<?xml version="1.0" encoding="utf-8"?>
<gpx version="1.1" creator="OsmAnd~ 4.3.8; modified by GPX Track Cleaner from GPX Viewer plugin (WordPress) " schemaLocation="http://www.topografix.com/GPX/1/1 http://www.topografix.com/GPX/1/1/gpx.xsd" xmlns="http://www.topografix.com/GPX/1/1" xmlns:xsi="http://www.w3.org/2001/XMLSchema-instance" xsi:schemaLocation="http://www.topografix.com/GPX/1/1 http://www.topografix.com/GPX/1/1/gpx.xsd http://www.garmin.com/xmlschemas/GpxExtensions/v3 http://www.garmin.com/xmlschemas/GpxExtensionsv3.xsd http://www.garmin.com/xmlschemas/TrackPointExtension/v1 http://www.garmin.com/xmlschemas/TrackPointExtensionv1.xsd http://www.garmin.com/xmlschemas/PowerExtension/v1 http://www.garmin.com/xmlschemas/PowerExtensionv1.xsd http://www.topografix.com/GPX/gpx_style/0/2 http://www.topografix.com/GPX/gpx_style/0/2/gpx_style.xsd" xmlns:gpxtpx="http://www.garmin.com/xmlschemas/TrackPointExtension/v1" xmlns:gpxx="http://www.garmin.com/xmlschemas/GpxExtensions/v3" xmlns:gpxpx="http://www.garmin.com/xmlschemas/PowerExtension/v1" xmlns:gpx_style="http://www.topografix.com/GPX/gpx_style/0/2">

	<trk>
		<name>2026-08-23_09-29_Sun</name>
		<cmt> distance: 413 km, up: 3144 m, down: 3029 m</cmt>
		<desc>1 track segments, original data of track points</desc>
		<trkseg>
			<trkpt lat="50.4298612" lon="7.2445463">
				<ele>313.2</ele>
				<time>2026-08-23T07:29:50.000Z</time>
			</trkpt>
			<trkpt lat="50.4297752" lon="7.2446205">
				<ele>309.5</ele>
				<time>2026-08-23T07:33:27.000Z</time>
			</trkpt>
			<trkpt lat="50.432077" lon="7.2440974">
				<ele>299.7</ele>
				<time>2026-08-23T07:33:28.000Z</time>
			</trkpt>
			<trkpt lat="50.4340169" lon="7.6692292">
				<ele>293.7</ele>
				<time>2026-08-23T07:35:00.000Z</time>
			</trkpt>
			<trkpt lat="50.433983" lon="7.6693704">
				<ele>292.9</ele>
				<time>2026-08-23T07:35:06.000Z</time>
			</trkpt>
			<trkpt lat="50.4339381" lon="7.6695023">
				<ele>291.4</ele>
				<time>2026-08-23T07:35:10.000Z</time>
			</trkpt>
			<trkpt lat="50.4338833" lon="7.6696796">
				<ele>288.4</ele>
				<time>2026-08-23T07:35:14.000Z</time>
			</trkpt>
			<trkpt lat="50.433828" lon="7.6698589">
				<ele>287.5</ele>
				<time>2026-08-23T07:35:17.000Z</time>
			</trkpt>
			<trkpt lat="50.4337778" lon="7.6700521">
				<ele>285.5</ele>
				<time>2026-08-23T07:35:20.000Z</time>
			</trkpt>
			<trkpt lat="50.4337446" lon="7.6701904">
				<ele>284.2</ele>
				<time>2026-08-23T07:35:22.000Z</time>
			</trkpt>
			<trkpt lat="50.4336841" lon="7.6704166">
				<ele>283.9</ele>
				<time>2026-08-23T07:35:25.000Z</time>
			</trkpt>
			<trkpt lat="50.433657" lon="7.6705795">
				<ele>282.9</ele>
				<time>2026-08-23T07:35:27.000Z</time>
			</trkpt>
			<trkpt lat="50.4336244" lon="7.6708177">
				<ele>282</ele>
				<time>2026-08-23T07:35:30.000Z</time>
			</trkpt>
			<trkpt lat="50.4336038" lon="7.670985">
				<ele>281.2</ele>
				<time>2026-08-23T07:35:33.000Z</time>
			</trkpt>
			<trkpt lat="50.4335713" lon="7.6711223">
				<ele>282</ele>
				<time>2026-08-23T07:35:37.000Z</time>
			</trkpt>
			<trkpt lat="50.4336365" lon="7.6712431">
				<ele>283.8</ele>
				<time>2026-08-23T07:35:43.000Z</time>
			</trkpt>
			<trkpt lat="50.4337404" lon="7.6713285">
				<ele>286.2</ele>
				<time>2026-08-23T07:35:47.000Z</time>
			</trkpt>
			<trkpt lat="50.4338257" lon="7.6714016">
				<ele>285.9</ele>
				<time>2026-08-23T07:35:51.000Z</time>
			</trkpt>
			<trkpt lat="50.4339277" lon="7.6714824">
				<ele>284.6</ele>
				<time>2026-08-23T07:35:55.000Z</time>
			</trkpt>
			<trkpt lat="50.4339844" lon="7.6715956">
				<ele>285.1</ele>
				<time>2026-08-23T07:36:02.000Z</time>
			</trkpt>
			<trkpt lat="50.4339484" lon="7.6717347">
				<ele>285.1</ele>
				<time>2026-08-23T07:36:08.000Z</time>
			</trkpt>
			<trkpt lat="50.4338596" lon="7.6717728">
				<ele>285.2</ele>
				<time>2026-08-23T07:36:14.000Z</time>
			</trkpt>
			<trkpt lat="50.4337824" lon="7.6716918">
				<ele>286.3</ele>
				<time>2026-08-23T07:36:18.000Z</time>
			</trkpt>
			<trkpt lat="50.4338066" lon="7.6715363">
				<ele>284</ele>
				<time>2026-08-23T07:36:22.000Z</time>
			</trkpt>
			<trkpt lat="50.4337987" lon="7.6713868">
				<ele>284.1</ele>
				<time>2026-08-23T07:36:29.000Z</time>
			</trkpt>
			<trkpt lat="50.4337005" lon="7.6713026">
				<ele>282.8</ele>
				<time>2026-08-23T07:36:32.000Z</time>
			</trkpt>
			<trkpt lat="50.4335927" lon="7.6712492">
				<ele>282.5</ele>
				<time>2026-08-23T07:36:35.000Z</time>
			</trkpt>
			<trkpt lat="50.4334782" lon="7.6712357">
				<ele>283</ele>
				<time>2026-08-23T07:36:45.000Z</time>
			</trkpt>
			<trkpt lat="50.4333834" lon="7.6713599">
				<ele>283.1</ele>
				<time>2026-08-23T07:36:48.000Z</time>
			</trkpt>
			<trkpt lat="50.4332824" lon="7.6715035">
				<ele>284.1</ele>
				<time>2026-08-23T07:36:51.000Z</time>
			</trkpt>
			<trkpt lat="50.4332202" lon="7.6716219">
				<ele>286.7</ele>
				<time>2026-08-23T07:36:55.000Z</time>
			</trkpt>
			<trkpt lat="50.4331834" lon="7.671792">
				<ele>286.2</ele>
				<time>2026-08-23T07:36:59.000Z</time>
			</trkpt>
			<trkpt lat="50.4331469" lon="7.6719862">
				<ele>286.1</ele>
				<time>2026-08-23T07:37:02.000Z</time>
			</trkpt>
			<trkpt lat="50.4330973" lon="7.6721984">
				<ele>286.6</ele>
				<time>2026-08-23T07:37:05.000Z</time>
			</trkpt>
			<trkpt lat="50.4330638" lon="7.6723427">
				<ele>286.5</ele>
				<time>2026-08-23T07:37:08.000Z</time>
			</trkpt>
			<trkpt lat="50.4330249" lon="7.6725041">
				<ele>288</ele>
				<time>2026-08-23T07:37:12.000Z</time>
			</trkpt>
			<trkpt lat="50.4329847" lon="7.6726429">
				<ele>287.6</ele>
				<time>2026-08-23T07:37:16.000Z</time>
			</trkpt>
			<trkpt lat="50.4329493" lon="7.6727908">
				<ele>284.3</ele>
				<time>2026-08-23T07:37:19.000Z</time>
			</trkpt>
			<trkpt lat="50.4329186" lon="7.6729473">
				<ele>282.3</ele>
				<time>2026-08-23T07:37:22.000Z</time>
			</trkpt>
			<trkpt lat="50.4328874" lon="7.6731041">
				<ele>282</ele>
				<time>2026-08-23T07:37:25.000Z</time>
			</trkpt>
			<trkpt lat="50.4328371" lon="7.6733191">
				<ele>282.2</ele>
				<time>2026-08-23T07:37:28.000Z</time>
			</trkpt>
			<trkpt lat="50.4328007" lon="7.6734535">
				<ele>282.3</ele>
				<time>2026-08-23T07:37:30.000Z</time>
			</trkpt>
			<trkpt lat="50.432724" lon="7.6736315">
				<ele>282.4</ele>
				<time>2026-08-23T07:37:33.000Z</time>
			</trkpt>
			<trkpt lat="50.4326233" lon="7.6737718">
				<ele>282.9</ele>
				<time>2026-08-23T07:37:36.000Z</time>
			</trkpt>
			<trkpt lat="50.4325396" lon="7.6738743">
				<ele>282.8</ele>
				<time>2026-08-23T07:37:39.000Z</time>
			</trkpt>
			<trkpt lat="50.4325094" lon="7.6740479">
				<ele>283.8</ele>
				<time>2026-08-23T07:37:42.000Z</time>
			</trkpt>
			<trkpt lat="50.4324885" lon="7.6742596">
				<ele>283.4</ele>
				<time>2026-08-23T07:37:45.000Z</time>
			</trkpt>
			<trkpt lat="50.4324826" lon="7.67441">
				<ele>283.8</ele>
				<time>2026-08-23T07:37:47.000Z</time>
			</trkpt>
			<trkpt lat="50.4324806" lon="7.6745764">
				<ele>284.4</ele>
				<time>2026-08-23T07:37:49.000Z</time>
			</trkpt>
			<trkpt lat="50.4324558" lon="7.6748613">
				<ele>285</ele>
				<time>2026-08-23T07:37:52.000Z</time>
			</trkpt>
			<trkpt lat="50.4324266" lon="7.675162">
				<ele>284.8</ele>
				<time>2026-08-23T07:37:55.000Z</time>
			</trkpt>
			<trkpt lat="50.4324183" lon="7.6754362">
				<ele>285.9</ele>
				<time>2026-08-23T07:37:58.000Z</time>
			</trkpt>
			<trkpt lat="50.4324064" lon="7.6757333">
				<ele>286.5</ele>
				<time>2026-08-23T07:38:01.000Z</time>
			</trkpt>
			<trkpt lat="50.4323962" lon="7.676039">
				<ele>287.3</ele>
				<time>2026-08-23T07:38:04.000Z</time>
			</trkpt>
			<trkpt lat="50.4323602" lon="7.676334">
				<ele>287</ele>
				<time>2026-08-23T07:38:07.000Z</time>
			</trkpt>
			<trkpt lat="50.4323082" lon="7.6765616">
				<ele>287.9</ele>
				<time>2026-08-23T07:38:09.000Z</time>
			</trkpt>
			<trkpt lat="50.432219" lon="7.6768515">
				<ele>290.4</ele>
				<time>2026-08-23T07:38:12.000Z</time>
			</trkpt>
			<trkpt lat="50.4322045" lon="7.6770657">
				<ele>291.6</ele>
				<time>2026-08-23T07:38:14.000Z</time>
			</trkpt>
			<trkpt lat="50.4322204" lon="7.6773788">
				<ele>292.5</ele>
				<time>2026-08-23T07:38:17.000Z</time>
			</trkpt>
			<trkpt lat="50.4322172" lon="7.6775635">
				<ele>293.4</ele>
				<time>2026-08-23T07:38:19.000Z</time>
			</trkpt>
			<trkpt lat="50.4322364" lon="7.677766">
				<ele>294.3</ele>
				<time>2026-08-23T07:38:22.000Z</time>
			</trkpt>
			<trkpt lat="50.4322656" lon="7.6779628">
				<ele>295.6</ele>
				<time>2026-08-23T07:38:25.000Z</time>
			</trkpt>
			<trkpt lat="50.4322923" lon="7.6781627">
				<ele>296.9</ele>
				<time>2026-08-23T07:38:28.000Z</time>
			</trkpt>
			<trkpt lat="50.432331" lon="7.6783542">
				<ele>298.8</ele>
				<time>2026-08-23T07:38:31.000Z</time>
			</trkpt>
			<trkpt lat="50.4323529" lon="7.678554">
				<ele>300.2</ele>
				<time>2026-08-23T07:38:34.000Z</time>
			</trkpt>
			<trkpt lat="50.4323516" lon="7.6787487">
				<ele>300.5</ele>
				<time>2026-08-23T07:38:37.000Z</time>
			</trkpt>
			<trkpt lat="50.432325" lon="7.6789361">
				<ele>301.7</ele>
				<time>2026-08-23T07:38:40.000Z</time>
			</trkpt>
			<trkpt lat="50.4322833" lon="7.6791176">
				<ele>302.9</ele>
				<time>2026-08-23T07:38:43.000Z</time>
			</trkpt>
			<trkpt lat="50.4322373" lon="7.6792973">
				<ele>304</ele>
				<time>2026-08-23T07:38:46.000Z</time>
			</trkpt>
			<trkpt lat="50.4321878" lon="7.6795104">
				<ele>305</ele>
				<time>2026-08-23T07:38:49.000Z</time>
			</trkpt>
			<trkpt lat="50.4321561" lon="7.6796533">
				<ele>305.8</ele>
				<time>2026-08-23T07:38:51.000Z</time>
			</trkpt>
			<trkpt lat="50.4321158" lon="7.6797927">
				<ele>305.5</ele>
				<time>2026-08-23T07:38:53.000Z</time>
			</trkpt>
			<trkpt lat="50.4320713" lon="7.6800207">
				<ele>307</ele>
				<time>2026-08-23T07:38:56.000Z</time>
			</trkpt>
			<trkpt lat="50.4320372" lon="7.6801812">
				<ele>307.2</ele>
				<time>2026-08-23T07:38:58.000Z</time>
			</trkpt>
			<trkpt lat="50.4319935" lon="7.6803427">
				<ele>308</ele>
				<time>2026-08-23T07:39:00.000Z</time>
			</trkpt>
			<trkpt lat="50.4319584" lon="7.6804924">
				<ele>308.2</ele>
				<time>2026-08-23T07:39:02.000Z</time>
			</trkpt>
			<trkpt lat="50.4319252" lon="7.6807356">
				<ele>308.8</ele>
				<time>2026-08-23T07:39:05.000Z</time>
			</trkpt>
			<trkpt lat="50.4318817" lon="7.68094">
				<ele>310.4</ele>
				<time>2026-08-23T07:39:08.000Z</time>
			</trkpt>
			<trkpt lat="50.4318397" lon="7.6810947">
				<ele>311.4</ele>
				<time>2026-08-23T07:39:11.000Z</time>
			</trkpt>
			<trkpt lat="50.4317989" lon="7.6812654">
				<ele>311.9</ele>
				<time>2026-08-23T07:39:14.000Z</time>
			</trkpt>
			<trkpt lat="50.4317522" lon="7.6814335">
				<ele>312.3</ele>
				<time>2026-08-23T07:39:17.000Z</time>
			</trkpt>
			<trkpt lat="50.4317165" lon="7.6816249">
				<ele>313.8</ele>
				<time>2026-08-23T07:39:20.000Z</time>
			</trkpt>
			<trkpt lat="50.431676" lon="7.6818207">
				<ele>315.4</ele>
				<time>2026-08-23T07:39:23.000Z</time>
			</trkpt>
			<trkpt lat="50.4316282" lon="7.6820191">
				<ele>316.5</ele>
				<time>2026-08-23T07:39:26.000Z</time>
			</trkpt>
			<trkpt lat="50.4315792" lon="7.6822196">
				<ele>318.4</ele>
				<time>2026-08-23T07:39:29.000Z</time>
			</trkpt>
			<trkpt lat="50.4316088" lon="7.6823634">
				<ele>319.3</ele>
				<time>2026-08-23T07:39:31.000Z</time>
			</trkpt>
			<trkpt lat="50.4317128" lon="7.6825263">
				<ele>321.1</ele>
				<time>2026-08-23T07:39:34.000Z</time>
			</trkpt>
			<trkpt lat="50.4317968" lon="7.6827151">
				<ele>321.7</ele>
				<time>2026-08-23T07:39:37.000Z</time>
			</trkpt>
			<trkpt lat="50.4318472" lon="7.6828511">
				<ele>322.1</ele>
				<time>2026-08-23T07:39:39.000Z</time>
			</trkpt>
			<trkpt lat="50.4318898" lon="7.6829848">
				<ele>321.7</ele>
				<time>2026-08-23T07:39:41.000Z</time>
			</trkpt>
			<trkpt lat="50.4319376" lon="7.6831142">
				<ele>321.6</ele>
				<time>2026-08-23T07:39:44.000Z</time>
			</trkpt>
			<trkpt lat="50.4320097" lon="7.6832199">
				<ele>321.9</ele>
				<time>2026-08-23T07:39:52.000Z</time>
			</trkpt>
			<trkpt lat="50.4321209" lon="7.6832246">
				<ele>322.5</ele>
				<time>2026-08-23T07:39:55.000Z</time>
			</trkpt>
			<trkpt lat="50.4322006" lon="7.683138">
				<ele>321.9</ele>
				<time>2026-08-23T07:39:57.000Z</time>
			</trkpt>
			<trkpt lat="50.4322939" lon="7.6830315">
				<ele>321.2</ele>
				<time>2026-08-23T07:39:59.000Z</time>
			</trkpt>
			<trkpt lat="50.4324594" lon="7.6828134">
				<ele>320.7</ele>
				<time>2026-08-23T07:40:02.000Z</time>
			</trkpt>
			<trkpt lat="50.4326507" lon="7.682557">
				<ele>321.2</ele>
				<time>2026-08-23T07:40:05.000Z</time>
			</trkpt>
			<trkpt lat="50.4327778" lon="7.6823459">
				<ele>321.5</ele>
				<time>2026-08-23T07:40:07.000Z</time>
			</trkpt>
			<trkpt lat="50.4329069" lon="7.682114">
				<ele>321.7</ele>
				<time>2026-08-23T07:40:09.000Z</time>
			</trkpt>
			<trkpt lat="50.4331202" lon="7.6817245">
				<ele>321.4</ele>
				<time>2026-08-23T07:40:12.000Z</time>
			</trkpt>
			<trkpt lat="50.4333309" lon="7.6812734">
				<ele>321.7</ele>
				<time>2026-08-23T07:40:15.000Z</time>
			</trkpt>
			<trkpt lat="50.4334779" lon="7.6809645">
				<ele>321.4</ele>
				<time>2026-08-23T07:40:17.000Z</time>
			</trkpt>
			<trkpt lat="50.4337135" lon="7.6804898">
				<ele>321.2</ele>
				<time>2026-08-23T07:40:20.000Z</time>
			</trkpt>
			<trkpt lat="50.433879" lon="7.6801671">
				<ele>320.5</ele>
				<time>2026-08-23T07:40:22.000Z</time>
			</trkpt>
			<trkpt lat="50.4341484" lon="7.6796701">
				<ele>320.6</ele>
				<time>2026-08-23T07:40:25.000Z</time>
			</trkpt>
			<trkpt lat="50.4343236" lon="7.6793239">
				<ele>321.5</ele>
				<time>2026-08-23T07:40:27.000Z</time>
			</trkpt>
			<trkpt lat="50.4345106" lon="7.6789618">
				<ele>322.3</ele>
				<time>2026-08-23T07:40:29.000Z</time>
			</trkpt>
			<trkpt lat="50.4348152" lon="7.6784233">
				<ele>321.9</ele>
				<time>2026-08-23T07:40:32.000Z</time>
			</trkpt>
			<trkpt lat="50.4350414" lon="7.6780468">
				<ele>322.4</ele>
				<time>2026-08-23T07:40:34.000Z</time>
			</trkpt>
			<trkpt lat="50.435256" lon="7.6776528">
				<ele>322.9</ele>
				<time>2026-08-23T07:40:36.000Z</time>
			</trkpt>
			<trkpt lat="50.4355714" lon="7.6770813">
				<ele>323.4</ele>
				<time>2026-08-23T07:40:39.000Z</time>
			</trkpt>
			<trkpt lat="50.435775" lon="7.6766925">
				<ele>323.5</ele>
				<time>2026-08-23T07:40:41.000Z</time>
			</trkpt>
			<trkpt lat="50.4360671" lon="7.6761335">
				<ele>322.1</ele>
				<time>2026-08-23T07:40:44.000Z</time>
			</trkpt>
			<trkpt lat="50.4362674" lon="7.6757289">
				<ele>322.5</ele>
				<time>2026-08-23T07:40:46.000Z</time>
			</trkpt>
			<trkpt lat="50.4365629" lon="7.6751186">
				<ele>322.4</ele>
				<time>2026-08-23T07:40:49.000Z</time>
			</trkpt>
			<trkpt lat="50.4368413" lon="7.6745204">
				<ele>321.5</ele>
				<time>2026-08-23T07:40:52.000Z</time>
			</trkpt>
			<trkpt lat="50.4370149" lon="7.6741371">
				<ele>320.8</ele>
				<time>2026-08-23T07:40:54.000Z</time>
			</trkpt>
			<trkpt lat="50.4371904" lon="7.6737557">
				<ele>320.5</ele>
				<time>2026-08-23T07:40:56.000Z</time>
			</trkpt>
			<trkpt lat="50.4374466" lon="7.6731977">
				<ele>320.5</ele>
				<time>2026-08-23T07:40:59.000Z</time>
			</trkpt>
			<trkpt lat="50.4376872" lon="7.6726509">
				<ele>322</ele>
				<time>2026-08-23T07:41:02.000Z</time>
			</trkpt>
			<trkpt lat="50.4379224" lon="7.672144">
				<ele>322.1</ele>
				<time>2026-08-23T07:41:05.000Z</time>
			</trkpt>
			<trkpt lat="50.4381436" lon="7.6716856">
				<ele>325.5</ele>
				<time>2026-08-23T07:41:08.000Z</time>
			</trkpt>
			<trkpt lat="50.4383459" lon="7.6713007">
				<ele>327.1</ele>
				<time>2026-08-23T07:41:11.000Z</time>
			</trkpt>
			<trkpt lat="50.438473" lon="7.6710118">
				<ele>328.4</ele>
				<time>2026-08-23T07:41:14.000Z</time>
			</trkpt>
			<trkpt lat="50.4385328" lon="7.6708799">
				<ele>330.3</ele>
				<time>2026-08-23T07:41:17.000Z</time>
			</trkpt>
			<trkpt lat="50.4386135" lon="7.670778">
				<ele>331.2</ele>
				<time>2026-08-23T07:41:21.000Z</time>
			</trkpt>
			<trkpt lat="50.4387154" lon="7.6707258">
				<ele>329.9</ele>
				<time>2026-08-23T07:41:24.000Z</time>
			</trkpt>
			<trkpt lat="50.4387633" lon="7.6705616">
				<ele>330.5</ele>
				<time>2026-08-23T07:41:27.000Z</time>
			</trkpt>
			<trkpt lat="50.4387979" lon="7.670333">
				<ele>330.9</ele>
				<time>2026-08-23T07:41:30.000Z</time>
			</trkpt>
			<trkpt lat="50.43888" lon="7.670188">
				<ele>329.3</ele>
				<time>2026-08-23T07:41:32.000Z</time>
			</trkpt>
			<trkpt lat="50.4390221" lon="7.6700803">
				<ele>329.2</ele>
				<time>2026-08-23T07:41:34.000Z</time>
			</trkpt>
			<trkpt lat="50.4391789" lon="7.6700158">
				<ele>328.8</ele>
				<time>2026-08-23T07:41:36.000Z</time>
			</trkpt>
			<trkpt lat="50.4393376" lon="7.6699556">
				<ele>328.5</ele>
				<time>2026-08-23T07:41:38.000Z</time>
			</trkpt>
			<trkpt lat="50.4395065" lon="7.669878">
				<ele>329.2</ele>
				<time>2026-08-23T07:41:41.000Z</time>
			</trkpt>
			<trkpt lat="50.4395732" lon="7.6699874">
				<ele>328.8</ele>
				<time>2026-08-23T07:41:45.000Z</time>
			</trkpt>
			<trkpt lat="50.4395659" lon="7.6701666">
				<ele>328.9</ele>
				<time>2026-08-23T07:41:48.000Z</time>
			</trkpt>
			<trkpt lat="50.4395568" lon="7.6703322">
				<ele>328.7</ele>
				<time>2026-08-23T07:41:51.000Z</time>
			</trkpt>
			<trkpt lat="50.4395381" lon="7.6704851">
				<ele>328.1</ele>
				<time>2026-08-23T07:41:56.000Z</time>
			</trkpt>
			<trkpt lat="50.4396116" lon="7.6705714">
				<ele>328.8</ele>
				<time>2026-08-23T07:42:00.000Z</time>
			</trkpt>
			<trkpt lat="50.4395784" lon="7.6704301">
				<ele>329.5</ele>
				<time>2026-08-23T07:43:31.000Z</time>
			</trkpt>
			<trkpt lat="50.4395818" lon="7.6702271">
				<ele>329</ele>
				<time>2026-08-23T07:43:35.000Z</time>
			</trkpt>
			<trkpt lat="50.4395858" lon="7.6700327">
				<ele>328.7</ele>
				<time>2026-08-23T07:43:38.000Z</time>
			</trkpt>
			<trkpt lat="50.4396272" lon="7.6698446">
				<ele>329</ele>
				<time>2026-08-23T07:43:41.000Z</time>
			</trkpt>
			<trkpt lat="50.439743" lon="7.6696276">
				<ele>329</ele>
				<time>2026-08-23T07:43:44.000Z</time>
			</trkpt>
			<trkpt lat="50.4398771" lon="7.6693786">
				<ele>328.8</ele>
				<time>2026-08-23T07:43:47.000Z</time>
			</trkpt>
			<trkpt lat="50.4399507" lon="7.6692173">
				<ele>328.7</ele>
				<time>2026-08-23T07:43:49.000Z</time>
			</trkpt>
			<trkpt lat="50.4400906" lon="7.6689522">
				<ele>328.9</ele>
				<time>2026-08-23T07:43:52.000Z</time>
			</trkpt>
			<trkpt lat="50.4402308" lon="7.6687914">
				<ele>329.2</ele>
				<time>2026-08-23T07:43:54.000Z</time>
			</trkpt>
			<trkpt lat="50.440472" lon="7.6685798">
				<ele>330.1</ele>
				<time>2026-08-23T07:43:57.000Z</time>
			</trkpt>
			<trkpt lat="50.440722" lon="7.6683785">
				<ele>331.3</ele>
				<time>2026-08-23T07:44:00.000Z</time>
			</trkpt>
			<trkpt lat="50.4409102" lon="7.6682393">
				<ele>332.2</ele>
				<time>2026-08-23T07:44:02.000Z</time>
			</trkpt>
			<trkpt lat="50.4411068" lon="7.6680918">
				<ele>332.9</ele>
				<time>2026-08-23T07:44:04.000Z</time>
			</trkpt>
			<trkpt lat="50.44139" lon="7.6678761">
				<ele>334.1</ele>
				<time>2026-08-23T07:44:07.000Z</time>
			</trkpt>
			<trkpt lat="50.4416483" lon="7.6675874">
				<ele>335</ele>
				<time>2026-08-23T07:44:10.000Z</time>
			</trkpt>
			<trkpt lat="50.441838" lon="7.6672287">
				<ele>335.8</ele>
				<time>2026-08-23T07:44:13.000Z</time>
			</trkpt>
			<trkpt lat="50.4419363" lon="7.6668409">
				<ele>337.1</ele>
				<time>2026-08-23T07:44:16.000Z</time>
			</trkpt>
			<trkpt lat="50.4419715" lon="7.6664279">
				<ele>339.5</ele>
				<time>2026-08-23T07:44:19.000Z</time>
			</trkpt>
			<trkpt lat="50.4419874" lon="7.6661345">
				<ele>341.1</ele>
				<time>2026-08-23T07:44:21.000Z</time>
			</trkpt>
			<trkpt lat="50.4419872" lon="7.6656822">
				<ele>343</ele>
				<time>2026-08-23T07:44:24.000Z</time>
			</trkpt>
			<trkpt lat="50.4419729" lon="7.66521">
				<ele>345.2</ele>
				<time>2026-08-23T07:44:27.000Z</time>
			</trkpt>
			<trkpt lat="50.4419687" lon="7.6648993">
				<ele>347</ele>
				<time>2026-08-23T07:44:29.000Z</time>
			</trkpt>
			<trkpt lat="50.4419592" lon="7.664434">
				<ele>347.5</ele>
				<time>2026-08-23T07:44:32.000Z</time>
			</trkpt>
			<trkpt lat="50.4419516" lon="7.6639925">
				<ele>348.1</ele>
				<time>2026-08-23T07:44:35.000Z</time>
			</trkpt>
			<trkpt lat="50.4419505" lon="7.6635786">
				<ele>349.4</ele>
				<time>2026-08-23T07:44:38.000Z</time>
			</trkpt>
			<trkpt lat="50.4419753" lon="7.6632427">
				<ele>350</ele>
				<time>2026-08-23T07:44:41.000Z</time>
			</trkpt>
			<trkpt lat="50.4420426" lon="7.6630451">
				<ele>351</ele>
				<time>2026-08-23T07:44:44.000Z</time>
			</trkpt>
			<trkpt lat="50.4421271" lon="7.6629892">
				<ele>351.3</ele>
				<time>2026-08-23T07:44:46.000Z</time>
			</trkpt>
			<trkpt lat="50.4422552" lon="7.6629738">
				<ele>351.5</ele>
				<time>2026-08-23T07:44:48.000Z</time>
			</trkpt>
			<trkpt lat="50.4425029" lon="7.6630644">
				<ele>350.8</ele>
				<time>2026-08-23T07:44:51.000Z</time>
			</trkpt>
			<trkpt lat="50.4426766" lon="7.6631279">
				<ele>351.4</ele>
				<time>2026-08-23T07:44:53.000Z</time>
			</trkpt>
			<trkpt lat="50.4428264" lon="7.6631973">
				<ele>351.5</ele>
				<time>2026-08-23T07:44:55.000Z</time>
			</trkpt>
			<trkpt lat="50.4429816" lon="7.6633553">
				<ele>352.6</ele>
				<time>2026-08-23T07:44:58.000Z</time>
			</trkpt>
			<trkpt lat="50.4430537" lon="7.6635174">
				<ele>352.8</ele>
				<time>2026-08-23T07:45:00.000Z</time>
			</trkpt>
			<trkpt lat="50.443098" lon="7.6639003">
				<ele>353.4</ele>
				<time>2026-08-23T07:45:03.000Z</time>
			</trkpt>
			<trkpt lat="50.4431188" lon="7.6643782">
				<ele>352.3</ele>
				<time>2026-08-23T07:45:06.000Z</time>
			</trkpt>
			<trkpt lat="50.443136" lon="7.6647326">
				<ele>351</ele>
				<time>2026-08-23T07:45:08.000Z</time>
			</trkpt>
			<trkpt lat="50.4431638" lon="7.6652719">
				<ele>349.6</ele>
				<time>2026-08-23T07:45:11.000Z</time>
			</trkpt>
			<trkpt lat="50.4432736" lon="7.665782">
				<ele>348.2</ele>
				<time>2026-08-23T07:45:14.000Z</time>
			</trkpt>
			<trkpt lat="50.4435181" lon="7.6661926">
				<ele>347.3</ele>
				<time>2026-08-23T07:45:17.000Z</time>
			</trkpt>
			<trkpt lat="50.4437288" lon="7.6664079">
				<ele>346.6</ele>
				<time>2026-08-23T07:45:19.000Z</time>
			</trkpt>
			<trkpt lat="50.4439444" lon="7.6666378">
				<ele>345.9</ele>
				<time>2026-08-23T07:45:21.000Z</time>
			</trkpt>
			<trkpt lat="50.4442572" lon="7.6670566">
				<ele>345.3</ele>
				<time>2026-08-23T07:45:24.000Z</time>
			</trkpt>
			<trkpt lat="50.4442572" lon="7.6670566">
				<ele>345.3</ele>
				<time>2026-08-23T07:47:40.000Z</time>
			</trkpt>
			<trkpt lat="50.4495736" lon="7.7126839">
				<ele>418.9</ele>
				<time>2026-08-23T07:47:45.000Z</time>
			</trkpt>
			<trkpt lat="50.4495742" lon="7.7149386">
				<ele>416.6</ele>
				<time>2026-08-23T07:47:51.000Z</time>
			</trkpt>
			<trkpt lat="50.4496775" lon="7.7172979">
				<ele>423.2</ele>
				<time>2026-08-23T07:47:57.000Z</time>
			</trkpt>
			<trkpt lat="50.4499209" lon="7.7192267">
				<ele>429.7</ele>
				<time>2026-08-23T07:48:02.000Z</time>
			</trkpt>
			<trkpt lat="50.4503979" lon="7.7214648">
				<ele>434.8</ele>
				<time>2026-08-23T07:48:08.000Z</time>
			</trkpt>
			<trkpt lat="50.4509168" lon="7.7233054">
				<ele>437.1</ele>
				<time>2026-08-23T07:48:13.000Z</time>
			</trkpt>
			<trkpt lat="50.4513785" lon="7.7251652">
				<ele>437.7</ele>
				<time>2026-08-23T07:48:18.000Z</time>
			</trkpt>
			<trkpt lat="50.451523" lon="7.7259305">
				<ele>437</ele>
				<time>2026-08-23T07:48:20.000Z</time>
			</trkpt>
			<trkpt lat="50.451722" lon="7.7271268">
				<ele>436.9</ele>
				<time>2026-08-23T07:48:23.000Z</time>
			</trkpt>
			<trkpt lat="50.4518636" lon="7.7283506">
				<ele>435.9</ele>
				<time>2026-08-23T07:48:26.000Z</time>
			</trkpt>
			<trkpt lat="50.4519799" lon="7.7295945">
				<ele>435.7</ele>
				<time>2026-08-23T07:48:29.000Z</time>
			</trkpt>
			<trkpt lat="50.4520298" lon="7.7308564">
				<ele>436.2</ele>
				<time>2026-08-23T07:48:32.000Z</time>
			</trkpt>
			<trkpt lat="50.4520426" lon="7.7320769">
				<ele>433</ele>
				<time>2026-08-23T07:48:35.000Z</time>
			</trkpt>
			<trkpt lat="50.4520443" lon="7.7328763">
				<ele>432.2</ele>
				<time>2026-08-23T07:48:37.000Z</time>
			</trkpt>
			<trkpt lat="50.4520654" lon="7.7336789">
				<ele>431</ele>
				<time>2026-08-23T07:48:39.000Z</time>
			</trkpt>
			<trkpt lat="50.4521685" lon="7.7348365">
				<ele>424.6</ele>
				<time>2026-08-23T07:48:42.000Z</time>
			</trkpt>
			<trkpt lat="50.4523205" lon="7.7359816">
				<ele>421</ele>
				<time>2026-08-23T07:48:45.000Z</time>
			</trkpt>
			<trkpt lat="50.4524579" lon="7.7367378">
				<ele>418.3</ele>
				<time>2026-08-23T07:48:47.000Z</time>
			</trkpt>
			<trkpt lat="50.4527104" lon="7.7378488">
				<ele>414.1</ele>
				<time>2026-08-23T07:48:50.000Z</time>
			</trkpt>
			<trkpt lat="50.4528773" lon="7.7385796">
				<ele>411.4</ele>
				<time>2026-08-23T07:48:52.000Z</time>
			</trkpt>
			<trkpt lat="50.4531421" lon="7.7396837">
				<ele>408.1</ele>
				<time>2026-08-23T07:48:55.000Z</time>
			</trkpt>
			<trkpt lat="50.4534151" lon="7.740782">
				<ele>404</ele>
				<time>2026-08-23T07:48:58.000Z</time>
			</trkpt>
			<trkpt lat="50.4536854" lon="7.7418822">
				<ele>399.8</ele>
				<time>2026-08-23T07:49:01.000Z</time>
			</trkpt>
			<trkpt lat="50.4538661" lon="7.74262">
				<ele>396.9</ele>
				<time>2026-08-23T07:49:03.000Z</time>
			</trkpt>
			<trkpt lat="50.4541318" lon="7.7437168">
				<ele>392.9</ele>
				<time>2026-08-23T07:49:06.000Z</time>
			</trkpt>
			<trkpt lat="50.4543155" lon="7.7444531">
				<ele>390.7</ele>
				<time>2026-08-23T07:49:08.000Z</time>
			</trkpt>
			<trkpt lat="50.4545889" lon="7.7455621">
				<ele>387.5</ele>
				<time>2026-08-23T07:49:11.000Z</time>
			</trkpt>
			<trkpt lat="50.4548682" lon="7.7466775">
				<ele>384.5</ele>
				<time>2026-08-23T07:49:14.000Z</time>
			</trkpt>
			<trkpt lat="50.4551505" lon="7.7477878">
				<ele>383</ele>
				<time>2026-08-23T07:49:17.000Z</time>
			</trkpt>
			<trkpt lat="50.4553401" lon="7.7485296">
				<ele>381.4</ele>
				<time>2026-08-23T07:49:19.000Z</time>
			</trkpt>
			<trkpt lat="50.4555265" lon="7.7492696">
				<ele>379.6</ele>
				<time>2026-08-23T07:49:21.000Z</time>
			</trkpt>
			<trkpt lat="50.4558007" lon="7.7503976">
				<ele>377.2</ele>
				<time>2026-08-23T07:49:24.000Z</time>
			</trkpt>
			<trkpt lat="50.456089" lon="7.7515486">
				<ele>375.6</ele>
				<time>2026-08-23T07:49:27.000Z</time>
			</trkpt>
			<trkpt lat="50.4562818" lon="7.7523198">
				<ele>375.1</ele>
				<time>2026-08-23T07:49:29.000Z</time>
			</trkpt>
			<trkpt lat="50.4565685" lon="7.7534976">
				<ele>372.7</ele>
				<time>2026-08-23T07:49:32.000Z</time>
			</trkpt>
			<trkpt lat="50.4568614" lon="7.7546886">
				<ele>371.3</ele>
				<time>2026-08-23T07:49:35.000Z</time>
			</trkpt>
			<trkpt lat="50.4571521" lon="7.7558785">
				<ele>370</ele>
				<time>2026-08-23T07:49:38.000Z</time>
			</trkpt>
			<trkpt lat="50.4573531" lon="7.7566641">
				<ele>368.4</ele>
				<time>2026-08-23T07:49:40.000Z</time>
			</trkpt>
			<trkpt lat="50.4575493" lon="7.7574634">
				<ele>368.4</ele>
				<time>2026-08-23T07:49:42.000Z</time>
			</trkpt>
			<trkpt lat="50.4577437" lon="7.7582536">
				<ele>368.3</ele>
				<time>2026-08-23T07:49:44.000Z</time>
			</trkpt>
			<trkpt lat="50.4580384" lon="7.7594154">
				<ele>368.4</ele>
				<time>2026-08-23T07:49:47.000Z</time>
			</trkpt>
			<trkpt lat="50.4583148" lon="7.760538">
				<ele>367.5</ele>
				<time>2026-08-23T07:49:50.000Z</time>
			</trkpt>
			<trkpt lat="50.458496" lon="7.7612656">
				<ele>367.9</ele>
				<time>2026-08-23T07:49:52.000Z</time>
			</trkpt>
			<trkpt lat="50.458771" lon="7.7623504">
				<ele>369</ele>
				<time>2026-08-23T07:49:55.000Z</time>
			</trkpt>
			<trkpt lat="50.4589472" lon="7.7630512">
				<ele>368.9</ele>
				<time>2026-08-23T07:49:57.000Z</time>
			</trkpt>
			<trkpt lat="50.4591875" lon="7.764093">
				<ele>369.8</ele>
				<time>2026-08-23T07:50:00.000Z</time>
			</trkpt>
			<trkpt lat="50.4593704" lon="7.7651649">
				<ele>371</ele>
				<time>2026-08-23T07:50:03.000Z</time>
			</trkpt>
			<trkpt lat="50.4594431" lon="7.7658695">
				<ele>370.6</ele>
				<time>2026-08-23T07:50:05.000Z</time>
			</trkpt>
			<trkpt lat="50.4594755" lon="7.766908">
				<ele>370.2</ele>
				<time>2026-08-23T07:50:08.000Z</time>
			</trkpt>
			<trkpt lat="50.4593955" lon="7.7679273">
				<ele>371.3</ele>
				<time>2026-08-23T07:50:11.000Z</time>
			</trkpt>
			<trkpt lat="50.4592933" lon="7.7685862">
				<ele>372.6</ele>
				<time>2026-08-23T07:50:13.000Z</time>
			</trkpt>
			<trkpt lat="50.4590779" lon="7.7695254">
				<ele>374.8</ele>
				<time>2026-08-23T07:50:16.000Z</time>
			</trkpt>
			<trkpt lat="50.4587885" lon="7.7703847">
				<ele>376.9</ele>
				<time>2026-08-23T07:50:19.000Z</time>
			</trkpt>
			<trkpt lat="50.45843" lon="7.7711812">
				<ele>379</ele>
				<time>2026-08-23T07:50:22.000Z</time>
			</trkpt>
			<trkpt lat="50.4581834" lon="7.7716861">
				<ele>379.8</ele>
				<time>2026-08-23T07:50:24.000Z</time>
			</trkpt>
			<trkpt lat="50.4579226" lon="7.7722038">
				<ele>380.4</ele>
				<time>2026-08-23T07:50:26.000Z</time>
			</trkpt>
			<trkpt lat="50.4575212" lon="7.7729674">
				<ele>380.1</ele>
				<time>2026-08-23T07:50:29.000Z</time>
			</trkpt>
			<trkpt lat="50.4570832" lon="7.7737229">
				<ele>380.1</ele>
				<time>2026-08-23T07:50:32.000Z</time>
			</trkpt>
			<trkpt lat="50.4566014" lon="7.7744208">
				<ele>376.4</ele>
				<time>2026-08-23T07:50:35.000Z</time>
			</trkpt>
			<trkpt lat="50.4560464" lon="7.77515">
				<ele>375.7</ele>
				<time>2026-08-23T07:50:38.000Z</time>
			</trkpt>
			<trkpt lat="50.4554316" lon="7.7758058">
				<ele>374.7</ele>
				<time>2026-08-23T07:50:41.000Z</time>
			</trkpt>
			<trkpt lat="50.4547745" lon="7.7763589">
				<ele>373</ele>
				<time>2026-08-23T07:50:44.000Z</time>
			</trkpt>
			<trkpt lat="50.454082" lon="7.7768362">
				<ele>371.2</ele>
				<time>2026-08-23T07:50:47.000Z</time>
			</trkpt>
			<trkpt lat="50.4536167" lon="7.7771591">
				<ele>369.1</ele>
				<time>2026-08-23T07:50:49.000Z</time>
			</trkpt>
			<trkpt lat="50.4531472" lon="7.7774871">
				<ele>368.2</ele>
				<time>2026-08-23T07:50:51.000Z</time>
			</trkpt>
			<trkpt lat="50.4524329" lon="7.7779695">
				<ele>367.1</ele>
				<time>2026-08-23T07:50:54.000Z</time>
			</trkpt>
			<trkpt lat="50.4517203" lon="7.7784721">
				<ele>365.3</ele>
				<time>2026-08-23T07:50:57.000Z</time>
			</trkpt>
			<trkpt lat="50.451023" lon="7.7790653">
				<ele>361.3</ele>
				<time>2026-08-23T07:51:00.000Z</time>
			</trkpt>
			<trkpt lat="50.4505793" lon="7.7795211">
				<ele>358.2</ele>
				<time>2026-08-23T07:51:02.000Z</time>
			</trkpt>
			<trkpt lat="50.4501526" lon="7.7800172">
				<ele>356.1</ele>
				<time>2026-08-23T07:51:04.000Z</time>
			</trkpt>
			<trkpt lat="50.449774" lon="7.7805338">
				<ele>354.8</ele>
				<time>2026-08-23T07:51:06.000Z</time>
			</trkpt>
			<trkpt lat="50.4492469" lon="7.781389">
				<ele>352.6</ele>
				<time>2026-08-23T07:51:09.000Z</time>
			</trkpt>
			<trkpt lat="50.4487763" lon="7.7823393">
				<ele>351.6</ele>
				<time>2026-08-23T07:51:12.000Z</time>
			</trkpt>
			<trkpt lat="50.4484965" lon="7.7830117">
				<ele>350.2</ele>
				<time>2026-08-23T07:51:14.000Z</time>
			</trkpt>
			<trkpt lat="50.4481266" lon="7.7841158">
				<ele>349.1</ele>
				<time>2026-08-23T07:51:17.000Z</time>
			</trkpt>
			<trkpt lat="50.4478409" lon="7.7852309">
				<ele>348.9</ele>
				<time>2026-08-23T07:51:20.000Z</time>
			</trkpt>
			<trkpt lat="50.4477037" lon="7.7859733">
				<ele>347</ele>
				<time>2026-08-23T07:51:22.000Z</time>
			</trkpt>
			<trkpt lat="50.4475916" lon="7.7867203">
				<ele>345.5</ele>
				<time>2026-08-23T07:51:24.000Z</time>
			</trkpt>
			<trkpt lat="50.4474473" lon="7.7878386">
				<ele>341</ele>
				<time>2026-08-23T07:51:27.000Z</time>
			</trkpt>
			<trkpt lat="50.447343" lon="7.7886033">
				<ele>339</ele>
				<time>2026-08-23T07:51:29.000Z</time>
			</trkpt>
			<trkpt lat="50.4471924" lon="7.7897278">
				<ele>334.8</ele>
				<time>2026-08-23T07:51:32.000Z</time>
			</trkpt>
			<trkpt lat="50.447106" lon="7.7904574">
				<ele>332.7</ele>
				<time>2026-08-23T07:51:34.000Z</time>
			</trkpt>
			<trkpt lat="50.4469641" lon="7.7915737">
				<ele>331.8</ele>
				<time>2026-08-23T07:51:37.000Z</time>
			</trkpt>
			<trkpt lat="50.4468628" lon="7.7923174">
				<ele>331.5</ele>
				<time>2026-08-23T07:51:39.000Z</time>
			</trkpt>
			<trkpt lat="50.4467129" lon="7.7934249">
				<ele>329.8</ele>
				<time>2026-08-23T07:51:42.000Z</time>
			</trkpt>
			<trkpt lat="50.4466196" lon="7.7941682">
				<ele>328.8</ele>
				<time>2026-08-23T07:51:44.000Z</time>
			</trkpt>
			<trkpt lat="50.4464831" lon="7.7952782">
				<ele>326.5</ele>
				<time>2026-08-23T07:51:47.000Z</time>
			</trkpt>
			<trkpt lat="50.4463888" lon="7.7960248">
				<ele>323.6</ele>
				<time>2026-08-23T07:51:49.000Z</time>
			</trkpt>
			<trkpt lat="50.4462843" lon="7.7967605">
				<ele>319.8</ele>
				<time>2026-08-23T07:51:51.000Z</time>
			</trkpt>
			<trkpt lat="50.4461293" lon="7.7978978">
				<ele>316.4</ele>
				<time>2026-08-23T07:51:54.000Z</time>
			</trkpt>
			<trkpt lat="50.4459706" lon="7.7990186">
				<ele>312.5</ele>
				<time>2026-08-23T07:51:57.000Z</time>
			</trkpt>
			<trkpt lat="50.4458232" lon="7.8001722">
				<ele>310.7</ele>
				<time>2026-08-23T07:52:00.000Z</time>
			</trkpt>
			<trkpt lat="50.4456742" lon="7.8013486">
				<ele>307.3</ele>
				<time>2026-08-23T07:52:03.000Z</time>
			</trkpt>
			<trkpt lat="50.4455342" lon="7.8025288">
				<ele>304.8</ele>
				<time>2026-08-23T07:52:06.000Z</time>
			</trkpt>
			<trkpt lat="50.4453881" lon="7.8037168">
				<ele>303.4</ele>
				<time>2026-08-23T07:52:09.000Z</time>
			</trkpt>
			<trkpt lat="50.4453002" lon="7.8045107">
				<ele>302.7</ele>
				<time>2026-08-23T07:52:11.000Z</time>
			</trkpt>
			<trkpt lat="50.4451962" lon="7.8056937">
				<ele>301</ele>
				<time>2026-08-23T07:52:14.000Z</time>
			</trkpt>
			<trkpt lat="50.4451263" lon="7.8068667">
				<ele>299.3</ele>
				<time>2026-08-23T07:52:17.000Z</time>
			</trkpt>
			<trkpt lat="50.4450838" lon="7.80801">
				<ele>297.8</ele>
				<time>2026-08-23T07:52:20.000Z</time>
			</trkpt>
			<trkpt lat="50.4450777" lon="7.8091164">
				<ele>298.6</ele>
				<time>2026-08-23T07:52:23.000Z</time>
			</trkpt>
			<trkpt lat="50.4450875" lon="7.8102458">
				<ele>298.6</ele>
				<time>2026-08-23T07:52:26.000Z</time>
			</trkpt>
			<trkpt lat="50.4451201" lon="7.8113723">
				<ele>298.1</ele>
				<time>2026-08-23T07:52:29.000Z</time>
			</trkpt>
			<trkpt lat="50.4451616" lon="7.8121194">
				<ele>297.4</ele>
				<time>2026-08-23T07:52:31.000Z</time>
			</trkpt>
			<trkpt lat="50.4452253" lon="7.8132538">
				<ele>297.3</ele>
				<time>2026-08-23T07:52:34.000Z</time>
			</trkpt>
			<trkpt lat="50.4452819" lon="7.8140072">
				<ele>296.4</ele>
				<time>2026-08-23T07:52:36.000Z</time>
			</trkpt>
			<trkpt lat="50.4453782" lon="7.815133">
				<ele>295.3</ele>
				<time>2026-08-23T07:52:39.000Z</time>
			</trkpt>
			<trkpt lat="50.4454768" lon="7.8162393">
				<ele>294.2</ele>
				<time>2026-08-23T07:52:42.000Z</time>
			</trkpt>
			<trkpt lat="50.4455638" lon="7.8173423">
				<ele>293.2</ele>
				<time>2026-08-23T07:52:45.000Z</time>
			</trkpt>
			<trkpt lat="50.4456235" lon="7.8180849">
				<ele>293.7</ele>
				<time>2026-08-23T07:52:47.000Z</time>
			</trkpt>
			<trkpt lat="50.4457171" lon="7.8191481">
				<ele>291.2</ele>
				<time>2026-08-23T07:52:50.000Z</time>
			</trkpt>
			<trkpt lat="50.4457774" lon="7.8198556">
				<ele>290.2</ele>
				<time>2026-08-23T07:52:52.000Z</time>
			</trkpt>
			<trkpt lat="50.4458857" lon="7.8209274">
				<ele>290</ele>
				<time>2026-08-23T07:52:55.000Z</time>
			</trkpt>
			<trkpt lat="50.4459523" lon="7.8216375">
				<ele>288.7</ele>
				<time>2026-08-23T07:52:57.000Z</time>
			</trkpt>
			<trkpt lat="50.4460428" lon="7.8227197">
				<ele>286.4</ele>
				<time>2026-08-23T07:53:00.000Z</time>
			</trkpt>
			<trkpt lat="50.4461146" lon="7.8238259">
				<ele>284.9</ele>
				<time>2026-08-23T07:53:03.000Z</time>
			</trkpt>
			<trkpt lat="50.4461636" lon="7.8249422">
				<ele>284.2</ele>
				<time>2026-08-23T07:53:06.000Z</time>
			</trkpt>
			<trkpt lat="50.4461724" lon="7.8260657">
				<ele>283.8</ele>
				<time>2026-08-23T07:53:09.000Z</time>
			</trkpt>
			<trkpt lat="50.446154" lon="7.8268117">
				<ele>283.8</ele>
				<time>2026-08-23T07:53:11.000Z</time>
			</trkpt>
			<trkpt lat="50.4460962" lon="7.8279501">
				<ele>282.9</ele>
				<time>2026-08-23T07:53:14.000Z</time>
			</trkpt>
			<trkpt lat="50.4460269" lon="7.8290813">
				<ele>281.8</ele>
				<time>2026-08-23T07:53:17.000Z</time>
			</trkpt>
			<trkpt lat="50.4459563" lon="7.830237">
				<ele>283.7</ele>
				<time>2026-08-23T07:53:20.000Z</time>
			</trkpt>
			<trkpt lat="50.4458867" lon="7.8313974">
				<ele>285.2</ele>
				<time>2026-08-23T07:53:23.000Z</time>
			</trkpt>
			<trkpt lat="50.4458618" lon="7.8321623">
				<ele>286.9</ele>
				<time>2026-08-23T07:53:25.000Z</time>
			</trkpt>
			<trkpt lat="50.4458418" lon="7.833294">
				<ele>289.8</ele>
				<time>2026-08-23T07:53:28.000Z</time>
			</trkpt>
			<trkpt lat="50.445841" lon="7.8340418">
				<ele>292</ele>
				<time>2026-08-23T07:53:30.000Z</time>
			</trkpt>
			<trkpt lat="50.445857" lon="7.8347816">
				<ele>293.7</ele>
				<time>2026-08-23T07:53:32.000Z</time>
			</trkpt>
			<trkpt lat="50.4458808" lon="7.835906">
				<ele>296.3</ele>
				<time>2026-08-23T07:53:35.000Z</time>
			</trkpt>
			<trkpt lat="50.4459257" lon="7.8370415">
				<ele>299.5</ele>
				<time>2026-08-23T07:53:38.000Z</time>
			</trkpt>
			<trkpt lat="50.4459736" lon="7.8381934">
				<ele>302.9</ele>
				<time>2026-08-23T07:53:41.000Z</time>
			</trkpt>
			<trkpt lat="50.4460007" lon="7.8389503">
				<ele>304.9</ele>
				<time>2026-08-23T07:53:43.000Z</time>
			</trkpt>
			<trkpt lat="50.4460276" lon="7.8397042">
				<ele>307.2</ele>
				<time>2026-08-23T07:53:45.000Z</time>
			</trkpt>
			<trkpt lat="50.4460577" lon="7.840451">
				<ele>309.2</ele>
				<time>2026-08-23T07:53:47.000Z</time>
			</trkpt>
			<trkpt lat="50.4461083" lon="7.8415606">
				<ele>311.9</ele>
				<time>2026-08-23T07:53:50.000Z</time>
			</trkpt>
			<trkpt lat="50.4461443" lon="7.8422876">
				<ele>312.1</ele>
				<time>2026-08-23T07:53:52.000Z</time>
			</trkpt>
			<trkpt lat="50.4461682" lon="7.8430435">
				<ele>314.2</ele>
				<time>2026-08-23T07:53:54.000Z</time>
			</trkpt>
			<trkpt lat="50.4461957" lon="7.8437823">
				<ele>314.2</ele>
				<time>2026-08-23T07:53:56.000Z</time>
			</trkpt>
			<trkpt lat="50.4462452" lon="7.8449186">
				<ele>315.4</ele>
				<time>2026-08-23T07:53:59.000Z</time>
			</trkpt>
			<trkpt lat="50.4462634" lon="7.8456934">
				<ele>316.1</ele>
				<time>2026-08-23T07:54:01.000Z</time>
			</trkpt>
			<trkpt lat="50.4463219" lon="7.8468115">
				<ele>316.2</ele>
				<time>2026-08-23T07:54:04.000Z</time>
			</trkpt>
			<trkpt lat="50.4464294" lon="7.8479177">
				<ele>315.3</ele>
				<time>2026-08-23T07:54:07.000Z</time>
			</trkpt>
			<trkpt lat="50.4465401" lon="7.8486554">
				<ele>314.8</ele>
				<time>2026-08-23T07:54:09.000Z</time>
			</trkpt>
			<trkpt lat="50.4466826" lon="7.8493852">
				<ele>314.3</ele>
				<time>2026-08-23T07:54:11.000Z</time>
			</trkpt>
			<trkpt lat="50.4468573" lon="7.8500999">
				<ele>313.3</ele>
				<time>2026-08-23T07:54:13.000Z</time>
			</trkpt>
			<trkpt lat="50.4470618" lon="7.850804">
				<ele>312.7</ele>
				<time>2026-08-23T07:54:15.000Z</time>
			</trkpt>
			<trkpt lat="50.4474322" lon="7.8518266">
				<ele>311.4</ele>
				<time>2026-08-23T07:54:18.000Z</time>
			</trkpt>
			<trkpt lat="50.447716" lon="7.852481">
				<ele>310.5</ele>
				<time>2026-08-23T07:54:20.000Z</time>
			</trkpt>
			<trkpt lat="50.448209" lon="7.8534012">
				<ele>309.1</ele>
				<time>2026-08-23T07:54:23.000Z</time>
			</trkpt>
			<trkpt lat="50.4487661" lon="7.8542384">
				<ele>308.2</ele>
				<time>2026-08-23T07:54:26.000Z</time>
			</trkpt>
			<trkpt lat="50.4493525" lon="7.8550269">
				<ele>307.6</ele>
				<time>2026-08-23T07:54:29.000Z</time>
			</trkpt>
			<trkpt lat="50.449934" lon="7.8558262">
				<ele>306.8</ele>
				<time>2026-08-23T07:54:32.000Z</time>
			</trkpt>
			<trkpt lat="50.4505017" lon="7.8565974">
				<ele>306.6</ele>
				<time>2026-08-23T07:54:35.000Z</time>
			</trkpt>
			<trkpt lat="50.4508706" lon="7.8570964">
				<ele>306.4</ele>
				<time>2026-08-23T07:54:37.000Z</time>
			</trkpt>
			<trkpt lat="50.4512332" lon="7.8575956">
				<ele>305.8</ele>
				<time>2026-08-23T07:54:39.000Z</time>
			</trkpt>
			<trkpt lat="50.4517763" lon="7.8583507">
				<ele>304.3</ele>
				<time>2026-08-23T07:54:42.000Z</time>
			</trkpt>
			<trkpt lat="50.4523007" lon="7.8591653">
				<ele>301.1</ele>
				<time>2026-08-23T07:54:45.000Z</time>
			</trkpt>
			<trkpt lat="50.452627" lon="7.8597362">
				<ele>299.3</ele>
				<time>2026-08-23T07:54:47.000Z</time>
			</trkpt>
			<trkpt lat="50.4529256" lon="7.8603335">
				<ele>297.1</ele>
				<time>2026-08-23T07:54:49.000Z</time>
			</trkpt>
			<trkpt lat="50.4533402" lon="7.8612748">
				<ele>294.2</ele>
				<time>2026-08-23T07:54:52.000Z</time>
			</trkpt>
			<trkpt lat="50.4537032" lon="7.862272">
				<ele>292.6</ele>
				<time>2026-08-23T07:54:55.000Z</time>
			</trkpt>
			<trkpt lat="50.4540165" lon="7.8633142">
				<ele>290.6</ele>
				<time>2026-08-23T07:54:58.000Z</time>
			</trkpt>
			<trkpt lat="50.4542719" lon="7.8644043">
				<ele>289.1</ele>
				<time>2026-08-23T07:55:01.000Z</time>
			</trkpt>
			<trkpt lat="50.4544643" lon="7.8655453">
				<ele>286.9</ele>
				<time>2026-08-23T07:55:04.000Z</time>
			</trkpt>
			<trkpt lat="50.4545594" lon="7.8663202">
				<ele>286.1</ele>
				<time>2026-08-23T07:55:06.000Z</time>
			</trkpt>
			<trkpt lat="50.4546434" lon="7.8674769">
				<ele>284.3</ele>
				<time>2026-08-23T07:55:09.000Z</time>
			</trkpt>
			<trkpt lat="50.4546764" lon="7.8682517">
				<ele>283.8</ele>
				<time>2026-08-23T07:55:11.000Z</time>
			</trkpt>
			<trkpt lat="50.4547107" lon="7.8693877">
				<ele>282.7</ele>
				<time>2026-08-23T07:55:14.000Z</time>
			</trkpt>
			<trkpt lat="50.4547686" lon="7.8705404">
				<ele>284.1</ele>
				<time>2026-08-23T07:55:17.000Z</time>
			</trkpt>
			<trkpt lat="50.4547942" lon="7.8712884">
				<ele>284</ele>
				<time>2026-08-23T07:55:19.000Z</time>
			</trkpt>
			<trkpt lat="50.4548273" lon="7.8724247">
				<ele>284.5</ele>
				<time>2026-08-23T07:55:22.000Z</time>
			</trkpt>
			<trkpt lat="50.454862" lon="7.87355">
				<ele>285.2</ele>
				<time>2026-08-23T07:55:25.000Z</time>
			</trkpt>
			<trkpt lat="50.4548868" lon="7.8743207">
				<ele>288.2</ele>
				<time>2026-08-23T07:55:27.000Z</time>
			</trkpt>
			<trkpt lat="50.4549066" lon="7.8754912">
				<ele>292.1</ele>
				<time>2026-08-23T07:55:30.000Z</time>
			</trkpt>
			<trkpt lat="50.4548919" lon="7.8766318">
				<ele>294.2</ele>
				<time>2026-08-23T07:55:33.000Z</time>
			</trkpt>
			<trkpt lat="50.4548711" lon="7.8777574">
				<ele>296.9</ele>
				<time>2026-08-23T07:55:36.000Z</time>
			</trkpt>
			<trkpt lat="50.4548176" lon="7.8788806">
				<ele>299.6</ele>
				<time>2026-08-23T07:55:39.000Z</time>
			</trkpt>
			<trkpt lat="50.4547513" lon="7.8800019">
				<ele>302.5</ele>
				<time>2026-08-23T07:55:42.000Z</time>
			</trkpt>
			<trkpt lat="50.4546772" lon="7.8811187">
				<ele>306.2</ele>
				<time>2026-08-23T07:55:45.000Z</time>
			</trkpt>
			<trkpt lat="50.4546278" lon="7.8818831">
				<ele>309.2</ele>
				<time>2026-08-23T07:55:47.000Z</time>
			</trkpt>
			<trkpt lat="50.4545567" lon="7.8830374">
				<ele>314.3</ele>
				<time>2026-08-23T07:55:50.000Z</time>
			</trkpt>
			<trkpt lat="50.4545015" lon="7.8837872">
				<ele>317.6</ele>
				<time>2026-08-23T07:55:52.000Z</time>
			</trkpt>
			<trkpt lat="50.4544212" lon="7.884902">
				<ele>321.2</ele>
				<time>2026-08-23T07:55:55.000Z</time>
			</trkpt>
			<trkpt lat="50.4543491" lon="7.8860152">
				<ele>327.1</ele>
				<time>2026-08-23T07:55:58.000Z</time>
			</trkpt>
			<trkpt lat="50.4543022" lon="7.8867388">
				<ele>329.9</ele>
				<time>2026-08-23T07:56:00.000Z</time>
			</trkpt>
			<trkpt lat="50.4542262" lon="7.887825">
				<ele>333.7</ele>
				<time>2026-08-23T07:56:03.000Z</time>
			</trkpt>
			<trkpt lat="50.4541773" lon="7.8885534">
				<ele>335.6</ele>
				<time>2026-08-23T07:56:05.000Z</time>
			</trkpt>
			<trkpt lat="50.4541172" lon="7.8896686">
				<ele>338.5</ele>
				<time>2026-08-23T07:56:08.000Z</time>
			</trkpt>
			<trkpt lat="50.4540724" lon="7.8904137">
				<ele>339.6</ele>
				<time>2026-08-23T07:56:10.000Z</time>
			</trkpt>
			<trkpt lat="50.4539996" lon="7.8911423">
				<ele>340.5</ele>
				<time>2026-08-23T07:56:12.000Z</time>
			</trkpt>
			<trkpt lat="50.4538593" lon="7.8922395">
				<ele>341.8</ele>
				<time>2026-08-23T07:56:15.000Z</time>
			</trkpt>
			<trkpt lat="50.4537445" lon="7.8929707">
				<ele>342.7</ele>
				<time>2026-08-23T07:56:17.000Z</time>
			</trkpt>
			<trkpt lat="50.45354" lon="7.8940564">
				<ele>344</ele>
				<time>2026-08-23T07:56:20.000Z</time>
			</trkpt>
			<trkpt lat="50.453382" lon="7.8947925">
				<ele>344.6</ele>
				<time>2026-08-23T07:56:22.000Z</time>
			</trkpt>
			<trkpt lat="50.4531052" lon="7.8958986">
				<ele>343.7</ele>
				<time>2026-08-23T07:56:25.000Z</time>
			</trkpt>
			<trkpt lat="50.4528961" lon="7.8966144">
				<ele>343.2</ele>
				<time>2026-08-23T07:56:27.000Z</time>
			</trkpt>
			<trkpt lat="50.4525559" lon="7.8976612">
				<ele>342.6</ele>
				<time>2026-08-23T07:56:30.000Z</time>
			</trkpt>
			<trkpt lat="50.4521707" lon="7.8986965">
				<ele>340.7</ele>
				<time>2026-08-23T07:56:33.000Z</time>
			</trkpt>
			<trkpt lat="50.4517299" lon="7.8997255">
				<ele>338.2</ele>
				<time>2026-08-23T07:56:36.000Z</time>
			</trkpt>
			<trkpt lat="50.4514142" lon="7.9004003">
				<ele>336.3</ele>
				<time>2026-08-23T07:56:38.000Z</time>
			</trkpt>
			<trkpt lat="50.4509189" lon="7.9014065">
				<ele>333.7</ele>
				<time>2026-08-23T07:56:41.000Z</time>
			</trkpt>
			<trkpt lat="50.4504236" lon="7.9024191">
				<ele>330.7</ele>
				<time>2026-08-23T07:56:44.000Z</time>
			</trkpt>
			<trkpt lat="50.4500906" lon="7.9031149">
				<ele>328.5</ele>
				<time>2026-08-23T07:56:46.000Z</time>
			</trkpt>
			<trkpt lat="50.4495855" lon="7.9041546">
				<ele>325.8</ele>
				<time>2026-08-23T07:56:49.000Z</time>
			</trkpt>
			<trkpt lat="50.4492425" lon="7.9048427">
				<ele>324.3</ele>
				<time>2026-08-23T07:56:51.000Z</time>
			</trkpt>
			<trkpt lat="50.448716" lon="7.9058706">
				<ele>321.6</ele>
				<time>2026-08-23T07:56:54.000Z</time>
			</trkpt>
			<trkpt lat="50.4483781" lon="7.9065626">
				<ele>319.7</ele>
				<time>2026-08-23T07:56:56.000Z</time>
			</trkpt>
			<trkpt lat="50.4480483" lon="7.9072456">
				<ele>318.1</ele>
				<time>2026-08-23T07:56:58.000Z</time>
			</trkpt>
			<trkpt lat="50.44756" lon="7.9082498">
				<ele>314.7</ele>
				<time>2026-08-23T07:57:01.000Z</time>
			</trkpt>
			<trkpt lat="50.4470667" lon="7.90925">
				<ele>311.1</ele>
				<time>2026-08-23T07:57:04.000Z</time>
			</trkpt>
			<trkpt lat="50.446547" lon="7.9102318">
				<ele>306.7</ele>
				<time>2026-08-23T07:57:07.000Z</time>
			</trkpt>
			<trkpt lat="50.4461728" lon="7.9108706">
				<ele>304.9</ele>
				<time>2026-08-23T07:57:09.000Z</time>
			</trkpt>
			<trkpt lat="50.4455828" lon="7.911782">
				<ele>302.5</ele>
				<time>2026-08-23T07:57:12.000Z</time>
			</trkpt>
			<trkpt lat="50.444952" lon="7.9126373">
				<ele>301</ele>
				<time>2026-08-23T07:57:15.000Z</time>
			</trkpt>
			<trkpt lat="50.4445068" lon="7.9131874">
				<ele>301</ele>
				<time>2026-08-23T07:57:17.000Z</time>
			</trkpt>
			<trkpt lat="50.4438263" lon="7.9139301">
				<ele>300.1</ele>
				<time>2026-08-23T07:57:20.000Z</time>
			</trkpt>
			<trkpt lat="50.4433709" lon="7.9143804">
				<ele>300.1</ele>
				<time>2026-08-23T07:57:22.000Z</time>
			</trkpt>
			<trkpt lat="50.4426435" lon="7.9150104">
				<ele>301.9</ele>
				<time>2026-08-23T07:57:25.000Z</time>
			</trkpt>
			<trkpt lat="50.4418955" lon="7.9155751">
				<ele>304.9</ele>
				<time>2026-08-23T07:57:28.000Z</time>
			</trkpt>
			<trkpt lat="50.4413807" lon="7.915903">
				<ele>306.3</ele>
				<time>2026-08-23T07:57:30.000Z</time>
			</trkpt>
			<trkpt lat="50.4408664" lon="7.9161992">
				<ele>306.9</ele>
				<time>2026-08-23T07:57:32.000Z</time>
			</trkpt>
			<trkpt lat="50.4401073" lon="7.9165714">
				<ele>308.9</ele>
				<time>2026-08-23T07:57:35.000Z</time>
			</trkpt>
			<trkpt lat="50.4393433" lon="7.9168727">
				<ele>311.2</ele>
				<time>2026-08-23T07:57:38.000Z</time>
			</trkpt>
			<trkpt lat="50.4388322" lon="7.9170359">
				<ele>313.1</ele>
				<time>2026-08-23T07:57:40.000Z</time>
			</trkpt>
			<trkpt lat="50.4383138" lon="7.9172048">
				<ele>314</ele>
				<time>2026-08-23T07:57:42.000Z</time>
			</trkpt>
			<trkpt lat="50.4377978" lon="7.9173776">
				<ele>315.3</ele>
				<time>2026-08-23T07:57:44.000Z</time>
			</trkpt>
			<trkpt lat="50.4370158" lon="7.9176419">
				<ele>316.2</ele>
				<time>2026-08-23T07:57:47.000Z</time>
			</trkpt>
			<trkpt lat="50.4364908" lon="7.9178173">
				<ele>316.7</ele>
				<time>2026-08-23T07:57:49.000Z</time>
			</trkpt>
			<trkpt lat="50.4357076" lon="7.9180763">
				<ele>318.4</ele>
				<time>2026-08-23T07:57:52.000Z</time>
			</trkpt>
			<trkpt lat="50.4351945" lon="7.9182508">
				<ele>320.1</ele>
				<time>2026-08-23T07:57:54.000Z</time>
			</trkpt>
			<trkpt lat="50.4344388" lon="7.9185508">
				<ele>323.8</ele>
				<time>2026-08-23T07:57:57.000Z</time>
			</trkpt>
			<trkpt lat="50.4339541" lon="7.9187882">
				<ele>325.2</ele>
				<time>2026-08-23T07:57:59.000Z</time>
			</trkpt>
			<trkpt lat="50.4334874" lon="7.9190732">
				<ele>328.7</ele>
				<time>2026-08-23T07:58:01.000Z</time>
			</trkpt>
			<trkpt lat="50.4330519" lon="7.9193795">
				<ele>331.7</ele>
				<time>2026-08-23T07:58:03.000Z</time>
			</trkpt>
			<trkpt lat="50.4324553" lon="7.9198699">
				<ele>335.1</ele>
				<time>2026-08-23T07:58:06.000Z</time>
			</trkpt>
			<trkpt lat="50.4320932" lon="7.9202146">
				<ele>337.5</ele>
				<time>2026-08-23T07:58:08.000Z</time>
			</trkpt>
			<trkpt lat="50.4317458" lon="7.920576">
				<ele>339.4</ele>
				<time>2026-08-23T07:58:10.000Z</time>
			</trkpt>
			<trkpt lat="50.4312588" lon="7.9211764">
				<ele>342.4</ele>
				<time>2026-08-23T07:58:13.000Z</time>
			</trkpt>
			<trkpt lat="50.4307824" lon="7.9218345">
				<ele>345</ele>
				<time>2026-08-23T07:58:16.000Z</time>
			</trkpt>
			<trkpt lat="50.4304534" lon="7.9222865">
				<ele>346.7</ele>
				<time>2026-08-23T07:58:18.000Z</time>
			</trkpt>
			<trkpt lat="50.4301141" lon="7.9227473">
				<ele>347.8</ele>
				<time>2026-08-23T07:58:20.000Z</time>
			</trkpt>
			<trkpt lat="50.4295889" lon="7.9234559">
				<ele>348.8</ele>
				<time>2026-08-23T07:58:23.000Z</time>
			</trkpt>
			<trkpt lat="50.4290263" lon="7.9241649">
				<ele>349.6</ele>
				<time>2026-08-23T07:58:26.000Z</time>
			</trkpt>
			<trkpt lat="50.428448" lon="7.9248932">
				<ele>349.7</ele>
				<time>2026-08-23T07:58:29.000Z</time>
			</trkpt>
			<trkpt lat="50.4280428" lon="7.9253639">
				<ele>349.8</ele>
				<time>2026-08-23T07:58:31.000Z</time>
			</trkpt>
			<trkpt lat="50.4273748" lon="7.9260013">
				<ele>348.9</ele>
				<time>2026-08-23T07:58:34.000Z</time>
			</trkpt>
			<trkpt lat="50.4268984" lon="7.9263717">
				<ele>348.3</ele>
				<time>2026-08-23T07:58:36.000Z</time>
			</trkpt>
			<trkpt lat="50.4264041" lon="7.9266759">
				<ele>348</ele>
				<time>2026-08-23T07:58:38.000Z</time>
			</trkpt>
			<trkpt lat="50.425633" lon="7.927018">
				<ele>347.8</ele>
				<time>2026-08-23T07:58:41.000Z</time>
			</trkpt>
			<trkpt lat="50.4251079" lon="7.9271678">
				<ele>347.9</ele>
				<time>2026-08-23T07:58:43.000Z</time>
			</trkpt>
			<trkpt lat="50.4243127" lon="7.9273105">
				<ele>349.6</ele>
				<time>2026-08-23T07:58:46.000Z</time>
			</trkpt>
			<trkpt lat="50.423786" lon="7.9273702">
				<ele>350.8</ele>
				<time>2026-08-23T07:58:48.000Z</time>
			</trkpt>
			<trkpt lat="50.4232774" lon="7.9274459">
				<ele>351.8</ele>
				<time>2026-08-23T07:58:50.000Z</time>
			</trkpt>
			<trkpt lat="50.4227646" lon="7.9275152">
				<ele>353</ele>
				<time>2026-08-23T07:58:52.000Z</time>
			</trkpt>
			<trkpt lat="50.4220008" lon="7.9276179">
				<ele>353.9</ele>
				<time>2026-08-23T07:58:55.000Z</time>
			</trkpt>
			<trkpt lat="50.4212581" lon="7.927723">
				<ele>354.6</ele>
				<time>2026-08-23T07:58:58.000Z</time>
			</trkpt>
			<trkpt lat="50.4207656" lon="7.9277804">
				<ele>354.6</ele>
				<time>2026-08-23T07:59:00.000Z</time>
			</trkpt>
			<trkpt lat="50.4200317" lon="7.9278645">
				<ele>354.5</ele>
				<time>2026-08-23T07:59:03.000Z</time>
			</trkpt>
			<trkpt lat="50.4195505" lon="7.9279342">
				<ele>353.5</ele>
				<time>2026-08-23T07:59:05.000Z</time>
			</trkpt>
			<trkpt lat="50.4188241" lon="7.9280518">
				<ele>351.7</ele>
				<time>2026-08-23T07:59:08.000Z</time>
			</trkpt>
			<trkpt lat="50.4180931" lon="7.9282718">
				<ele>349.2</ele>
				<time>2026-08-23T07:59:11.000Z</time>
			</trkpt>
			<trkpt lat="50.4176036" lon="7.9284814">
				<ele>347.3</ele>
				<time>2026-08-23T07:59:13.000Z</time>
			</trkpt>
			<trkpt lat="50.416874" lon="7.9289014">
				<ele>344.9</ele>
				<time>2026-08-23T07:59:16.000Z</time>
			</trkpt>
			<trkpt lat="50.4163996" lon="7.9292542">
				<ele>343.6</ele>
				<time>2026-08-23T07:59:18.000Z</time>
			</trkpt>
			<trkpt lat="50.4159376" lon="7.9296682">
				<ele>342.7</ele>
				<time>2026-08-23T07:59:20.000Z</time>
			</trkpt>
			<trkpt lat="50.4152868" lon="7.9303869">
				<ele>342</ele>
				<time>2026-08-23T07:59:23.000Z</time>
			</trkpt>
			<trkpt lat="50.4148811" lon="7.930933">
				<ele>342</ele>
				<time>2026-08-23T07:59:25.000Z</time>
			</trkpt>
			<trkpt lat="50.4143191" lon="7.9318137">
				<ele>343.3</ele>
				<time>2026-08-23T07:59:28.000Z</time>
			</trkpt>
			<trkpt lat="50.4138324" lon="7.9327671">
				<ele>345.6</ele>
				<time>2026-08-23T07:59:31.000Z</time>
			</trkpt>
			<trkpt lat="50.4134183" lon="7.9337721">
				<ele>347.4</ele>
				<time>2026-08-23T07:59:34.000Z</time>
			</trkpt>
			<trkpt lat="50.4131936" lon="7.934471">
				<ele>348.9</ele>
				<time>2026-08-23T07:59:36.000Z</time>
			</trkpt>
			<trkpt lat="50.4129073" lon="7.9355355">
				<ele>350.5</ele>
				<time>2026-08-23T07:59:39.000Z</time>
			</trkpt>
			<trkpt lat="50.4127041" lon="7.9366398">
				<ele>350.6</ele>
				<time>2026-08-23T07:59:42.000Z</time>
			</trkpt>
			<trkpt lat="50.4125673" lon="7.9377656">
				<ele>350.9</ele>
				<time>2026-08-23T07:59:45.000Z</time>
			</trkpt>
			<trkpt lat="50.4124843" lon="7.9389384">
				<ele>351.3</ele>
				<time>2026-08-23T07:59:48.000Z</time>
			</trkpt>
			<trkpt lat="50.4124874" lon="7.940118">
				<ele>350.7</ele>
				<time>2026-08-23T07:59:51.000Z</time>
			</trkpt>
			<trkpt lat="50.4125766" lon="7.9413218">
				<ele>349.2</ele>
				<time>2026-08-23T07:59:54.000Z</time>
			</trkpt>
			<trkpt lat="50.4127506" lon="7.9425276">
				<ele>347.2</ele>
				<time>2026-08-23T07:59:57.000Z</time>
			</trkpt>
			<trkpt lat="50.4129443" lon="7.9437377">
				<ele>345</ele>
				<time>2026-08-23T08:00:00.000Z</time>
			</trkpt>
			<trkpt lat="50.413069" lon="7.9445366">
				<ele>342.6</ele>
				<time>2026-08-23T08:00:02.000Z</time>
			</trkpt>
			<trkpt lat="50.413253" lon="7.9457687">
				<ele>340.5</ele>
				<time>2026-08-23T08:00:05.000Z</time>
			</trkpt>
			<trkpt lat="50.4133644" lon="7.9470247">
				<ele>338.7</ele>
				<time>2026-08-23T08:00:08.000Z</time>
			</trkpt>
			<trkpt lat="50.4134032" lon="7.9483077">
				<ele>336.4</ele>
				<time>2026-08-23T08:00:11.000Z</time>
			</trkpt>
			<trkpt lat="50.4133833" lon="7.9491727">
				<ele>335.3</ele>
				<time>2026-08-23T08:00:13.000Z</time>
			</trkpt>
			<trkpt lat="50.4133318" lon="7.950467">
				<ele>334.2</ele>
				<time>2026-08-23T08:00:16.000Z</time>
			</trkpt>
			<trkpt lat="50.4132744" lon="7.9517456">
				<ele>333.6</ele>
				<time>2026-08-23T08:00:19.000Z</time>
			</trkpt>
			<trkpt lat="50.4132323" lon="7.9525925">
				<ele>333.8</ele>
				<time>2026-08-23T08:00:21.000Z</time>
			</trkpt>
			<trkpt lat="50.4131909" lon="7.9534415">
				<ele>334.2</ele>
				<time>2026-08-23T08:00:23.000Z</time>
			</trkpt>
			<trkpt lat="50.4131331" lon="7.9547251">
				<ele>336.1</ele>
				<time>2026-08-23T08:00:26.000Z</time>
			</trkpt>
			<trkpt lat="50.4130834" lon="7.955981">
				<ele>337.9</ele>
				<time>2026-08-23T08:00:29.000Z</time>
			</trkpt>
			<trkpt lat="50.4130245" lon="7.957205">
				<ele>339.3</ele>
				<time>2026-08-23T08:00:32.000Z</time>
			</trkpt>
			<trkpt lat="50.4129883" lon="7.9580212">
				<ele>340.2</ele>
				<time>2026-08-23T08:00:34.000Z</time>
			</trkpt>
			<trkpt lat="50.4129499" lon="7.958845">
				<ele>341.8</ele>
				<time>2026-08-23T08:00:36.000Z</time>
			</trkpt>
			<trkpt lat="50.4128865" lon="7.9600607">
				<ele>343.9</ele>
				<time>2026-08-23T08:00:39.000Z</time>
			</trkpt>
			<trkpt lat="50.4128468" lon="7.9608676">
				<ele>345.1</ele>
				<time>2026-08-23T08:00:41.000Z</time>
			</trkpt>
			<trkpt lat="50.4127916" lon="7.9620589">
				<ele>346.5</ele>
				<time>2026-08-23T08:00:44.000Z</time>
			</trkpt>
			<trkpt lat="50.4127277" lon="7.9632432">
				<ele>346.8</ele>
				<time>2026-08-23T08:00:47.000Z</time>
			</trkpt>
			<trkpt lat="50.4126713" lon="7.9644291">
				<ele>347.1</ele>
				<time>2026-08-23T08:00:50.000Z</time>
			</trkpt>
			<trkpt lat="50.4126267" lon="7.9652095">
				<ele>345.6</ele>
				<time>2026-08-23T08:00:52.000Z</time>
			</trkpt>
			<trkpt lat="50.4125822" lon="7.9663977">
				<ele>345.3</ele>
				<time>2026-08-23T08:00:55.000Z</time>
			</trkpt>
			<trkpt lat="50.412522" lon="7.967601">
				<ele>344.7</ele>
				<time>2026-08-23T08:00:58.000Z</time>
			</trkpt>
			<trkpt lat="50.4124746" lon="7.9687959">
				<ele>344.2</ele>
				<time>2026-08-23T08:01:01.000Z</time>
			</trkpt>
			<trkpt lat="50.4124154" lon="7.9699978">
				<ele>343.4</ele>
				<time>2026-08-23T08:01:04.000Z</time>
			</trkpt>
			<trkpt lat="50.4123577" lon="7.971198">
				<ele>343</ele>
				<time>2026-08-23T08:01:07.000Z</time>
			</trkpt>
			<trkpt lat="50.4123211" lon="7.9720067">
				<ele>342.6</ele>
				<time>2026-08-23T08:01:09.000Z</time>
			</trkpt>
			<trkpt lat="50.412283" lon="7.9728164">
				<ele>342.2</ele>
				<time>2026-08-23T08:01:11.000Z</time>
			</trkpt>
			<trkpt lat="50.4122454" lon="7.9736221">
				<ele>341.9</ele>
				<time>2026-08-23T08:01:13.000Z</time>
			</trkpt>
			<trkpt lat="50.4122043" lon="7.974837">
				<ele>342</ele>
				<time>2026-08-23T08:01:16.000Z</time>
			</trkpt>
			<trkpt lat="50.4121729" lon="7.97604">
				<ele>341.8</ele>
				<time>2026-08-23T08:01:19.000Z</time>
			</trkpt>
			<trkpt lat="50.4121649" lon="7.976835">
				<ele>341</ele>
				<time>2026-08-23T08:01:21.000Z</time>
			</trkpt>
			<trkpt lat="50.4121768" lon="7.9776238">
				<ele>340</ele>
				<time>2026-08-23T08:01:23.000Z</time>
			</trkpt>
			<trkpt lat="50.4122091" lon="7.9788098">
				<ele>336.9</ele>
				<time>2026-08-23T08:01:26.000Z</time>
			</trkpt>
			<trkpt lat="50.4122419" lon="7.9796252">
				<ele>335.8</ele>
				<time>2026-08-23T08:01:28.000Z</time>
			</trkpt>
			<trkpt lat="50.4122723" lon="7.9808376">
				<ele>334.2</ele>
				<time>2026-08-23T08:01:31.000Z</time>
			</trkpt>
			<trkpt lat="50.412311" lon="7.9816526">
				<ele>332.8</ele>
				<time>2026-08-23T08:01:33.000Z</time>
			</trkpt>
			<trkpt lat="50.4123502" lon="7.9828309">
				<ele>326</ele>
				<time>2026-08-23T08:01:36.000Z</time>
			</trkpt>
			<trkpt lat="50.4123893" lon="7.9840248">
				<ele>320.4</ele>
				<time>2026-08-23T08:01:39.000Z</time>
			</trkpt>
			<trkpt lat="50.4123733" lon="7.9852561">
				<ele>316.6</ele>
				<time>2026-08-23T08:01:42.000Z</time>
			</trkpt>
			<trkpt lat="50.4123352" lon="7.9860836">
				<ele>313.4</ele>
				<time>2026-08-23T08:01:44.000Z</time>
			</trkpt>
			<trkpt lat="50.4122469" lon="7.9873254">
				<ele>309.4</ele>
				<time>2026-08-23T08:01:47.000Z</time>
			</trkpt>
			<trkpt lat="50.4121012" lon="7.9885398">
				<ele>306.1</ele>
				<time>2026-08-23T08:01:50.000Z</time>
			</trkpt>
			<trkpt lat="50.4119166" lon="7.9897101">
				<ele>303.1</ele>
				<time>2026-08-23T08:01:53.000Z</time>
			</trkpt>
			<trkpt lat="50.4117707" lon="7.9904757">
				<ele>301.2</ele>
				<time>2026-08-23T08:01:55.000Z</time>
			</trkpt>
			<trkpt lat="50.4115192" lon="7.9916106">
				<ele>299</ele>
				<time>2026-08-23T08:01:58.000Z</time>
			</trkpt>
			<trkpt lat="50.4112251" lon="7.9927217">
				<ele>297.4</ele>
				<time>2026-08-23T08:02:01.000Z</time>
			</trkpt>
			<trkpt lat="50.4109025" lon="7.9937663">
				<ele>296.2</ele>
				<time>2026-08-23T08:02:04.000Z</time>
			</trkpt>
			<trkpt lat="50.4105528" lon="7.9947452">
				<ele>295.1</ele>
				<time>2026-08-23T08:02:07.000Z</time>
			</trkpt>
			<trkpt lat="50.4101868" lon="7.9956738">
				<ele>294.1</ele>
				<time>2026-08-23T08:02:10.000Z</time>
			</trkpt>
			<trkpt lat="50.4098153" lon="7.9965511">
				<ele>292.4</ele>
				<time>2026-08-23T08:02:13.000Z</time>
			</trkpt>
			<trkpt lat="50.4095726" lon="7.997133">
				<ele>291.4</ele>
				<time>2026-08-23T08:02:15.000Z</time>
			</trkpt>
			<trkpt lat="50.4092076" lon="7.9980007">
				<ele>289.4</ele>
				<time>2026-08-23T08:02:18.000Z</time>
			</trkpt>
			<trkpt lat="50.4089602" lon="7.9985796">
				<ele>288.3</ele>
				<time>2026-08-23T08:02:20.000Z</time>
			</trkpt>
			<trkpt lat="50.4085943" lon="7.9994448">
				<ele>285.3</ele>
				<time>2026-08-23T08:02:23.000Z</time>
			</trkpt>
			<trkpt lat="50.4083517" lon="8.0000248">
				<ele>283.2</ele>
				<time>2026-08-23T08:02:25.000Z</time>
			</trkpt>
			<trkpt lat="50.4079834" lon="8.000904">
				<ele>279.3</ele>
				<time>2026-08-23T08:02:28.000Z</time>
			</trkpt>
			<trkpt lat="50.4077354" lon="8.0014925">
				<ele>276.3</ele>
				<time>2026-08-23T08:02:30.000Z</time>
			</trkpt>
			<trkpt lat="50.4074822" lon="8.0020909">
				<ele>274.8</ele>
				<time>2026-08-23T08:02:32.000Z</time>
			</trkpt>
			<trkpt lat="50.4071038" lon="8.0029946">
				<ele>271.5</ele>
				<time>2026-08-23T08:02:35.000Z</time>
			</trkpt>
			<trkpt lat="50.4067316" lon="8.0038994">
				<ele>267.2</ele>
				<time>2026-08-23T08:02:38.000Z</time>
			</trkpt>
			<trkpt lat="50.4064878" lon="8.0045072">
				<ele>264.8</ele>
				<time>2026-08-23T08:02:40.000Z</time>
			</trkpt>
			<trkpt lat="50.4061417" lon="8.0054423">
				<ele>260.9</ele>
				<time>2026-08-23T08:02:43.000Z</time>
			</trkpt>
			<trkpt lat="50.4059182" lon="8.0060788">
				<ele>258.2</ele>
				<time>2026-08-23T08:02:45.000Z</time>
			</trkpt>
			<trkpt lat="50.4056004" lon="8.0070691">
				<ele>254.8</ele>
				<time>2026-08-23T08:02:48.000Z</time>
			</trkpt>
			<trkpt lat="50.405306" lon="8.0080872">
				<ele>251.9</ele>
				<time>2026-08-23T08:02:51.000Z</time>
			</trkpt>
			<trkpt lat="50.4051196" lon="8.0087858">
				<ele>250.2</ele>
				<time>2026-08-23T08:02:53.000Z</time>
			</trkpt>
			<trkpt lat="50.4048585" lon="8.0098714">
				<ele>246.7</ele>
				<time>2026-08-23T08:02:56.000Z</time>
			</trkpt>
			<trkpt lat="50.4046319" lon="8.0109908">
				<ele>243.3</ele>
				<time>2026-08-23T08:02:59.000Z</time>
			</trkpt>
			<trkpt lat="50.4044847" lon="8.0117613">
				<ele>240.2</ele>
				<time>2026-08-23T08:03:01.000Z</time>
			</trkpt>
			<trkpt lat="50.4043078" lon="8.0129555">
				<ele>236.3</ele>
				<time>2026-08-23T08:03:04.000Z</time>
			</trkpt>
			<trkpt lat="50.4041984" lon="8.0137749">
				<ele>233.7</ele>
				<time>2026-08-23T08:03:06.000Z</time>
			</trkpt>
			<trkpt lat="50.4040603" lon="8.0149979">
				<ele>230.7</ele>
				<time>2026-08-23T08:03:09.000Z</time>
			</trkpt>
			<trkpt lat="50.4039861" lon="8.0158168">
				<ele>229.3</ele>
				<time>2026-08-23T08:03:11.000Z</time>
			</trkpt>
			<trkpt lat="50.4038994" lon="8.0170374">
				<ele>226.2</ele>
				<time>2026-08-23T08:03:14.000Z</time>
			</trkpt>
			<trkpt lat="50.4038684" lon="8.0178403">
				<ele>223.7</ele>
				<time>2026-08-23T08:03:16.000Z</time>
			</trkpt>
			<trkpt lat="50.403847" lon="8.0190476">
				<ele>219.8</ele>
				<time>2026-08-23T08:03:19.000Z</time>
			</trkpt>
			<trkpt lat="50.4038438" lon="8.019859">
				<ele>216.6</ele>
				<time>2026-08-23T08:03:21.000Z</time>
			</trkpt>
			<trkpt lat="50.4038473" lon="8.0206657">
				<ele>213.6</ele>
				<time>2026-08-23T08:03:23.000Z</time>
			</trkpt>
			<trkpt lat="50.4038422" lon="8.0214572">
				<ele>209.8</ele>
				<time>2026-08-23T08:03:25.000Z</time>
			</trkpt>
			<trkpt lat="50.4038416" lon="8.0226685">
				<ele>205.4</ele>
				<time>2026-08-23T08:03:28.000Z</time>
			</trkpt>
			<trkpt lat="50.4038399" lon="8.0238972">
				<ele>201.7</ele>
				<time>2026-08-23T08:03:31.000Z</time>
			</trkpt>
			<trkpt lat="50.4038345" lon="8.0247104">
				<ele>198.4</ele>
				<time>2026-08-23T08:03:33.000Z</time>
			</trkpt>
			<trkpt lat="50.4038348" lon="8.0259473">
				<ele>193.6</ele>
				<time>2026-08-23T08:03:36.000Z</time>
			</trkpt>
			<trkpt lat="50.4038401" lon="8.0267541">
				<ele>190.4</ele>
				<time>2026-08-23T08:03:38.000Z</time>
			</trkpt>
			<trkpt lat="50.4038406" lon="8.0275683">
				<ele>187.9</ele>
				<time>2026-08-23T08:03:40.000Z</time>
			</trkpt>
			<trkpt lat="50.4038341" lon="8.0288056">
				<ele>184.7</ele>
				<time>2026-08-23T08:03:43.000Z</time>
			</trkpt>
			<trkpt lat="50.4038259" lon="8.0296279">
				<ele>182.1</ele>
				<time>2026-08-23T08:03:45.000Z</time>
			</trkpt>
			<trkpt lat="50.4038217" lon="8.0308355">
				<ele>178.2</ele>
				<time>2026-08-23T08:03:48.000Z</time>
			</trkpt>
			<trkpt lat="50.4038159" lon="8.0320905">
				<ele>175.8</ele>
				<time>2026-08-23T08:03:51.000Z</time>
			</trkpt>
			<trkpt lat="50.4038146" lon="8.0329372">
				<ele>174.9</ele>
				<time>2026-08-23T08:03:53.000Z</time>
			</trkpt>
			<trkpt lat="50.4038191" lon="8.0342082">
				<ele>173.5</ele>
				<time>2026-08-23T08:03:56.000Z</time>
			</trkpt>
			<trkpt lat="50.4038105" lon="8.0350648">
				<ele>173.8</ele>
				<time>2026-08-23T08:03:58.000Z</time>
			</trkpt>
			<trkpt lat="50.4038075" lon="8.03591">
				<ele>173.8</ele>
				<time>2026-08-23T08:04:00.000Z</time>
			</trkpt>
			<trkpt lat="50.4037998" lon="8.0367549">
				<ele>173.8</ele>
				<time>2026-08-23T08:04:02.000Z</time>
			</trkpt>
			<trkpt lat="50.4037761" lon="8.03801">
				<ele>173.5</ele>
				<time>2026-08-23T08:04:05.000Z</time>
			</trkpt>
			<trkpt lat="50.4037635" lon="8.039243">
				<ele>173.8</ele>
				<time>2026-08-23T08:04:08.000Z</time>
			</trkpt>
			<trkpt lat="50.4037543" lon="8.0404745">
				<ele>173.5</ele>
				<time>2026-08-23T08:04:11.000Z</time>
			</trkpt>
			<trkpt lat="50.403744" lon="8.0412826">
				<ele>172.9</ele>
				<time>2026-08-23T08:04:13.000Z</time>
			</trkpt>
			<trkpt lat="50.4037444" lon="8.0424733">
				<ele>171.6</ele>
				<time>2026-08-23T08:04:16.000Z</time>
			</trkpt>
			<trkpt lat="50.4037415" lon="8.0432673">
				<ele>171.3</ele>
				<time>2026-08-23T08:04:18.000Z</time>
			</trkpt>
			<trkpt lat="50.4037378" lon="8.0444385">
				<ele>169.7</ele>
				<time>2026-08-23T08:04:21.000Z</time>
			</trkpt>
			<trkpt lat="50.4037361" lon="8.045218">
				<ele>169</ele>
				<time>2026-08-23T08:04:23.000Z</time>
			</trkpt>
			<trkpt lat="50.4037168" lon="8.0463952">
				<ele>168.4</ele>
				<time>2026-08-23T08:04:26.000Z</time>
			</trkpt>
			<trkpt lat="50.403692" lon="8.0471722">
				<ele>168.1</ele>
				<time>2026-08-23T08:04:28.000Z</time>
			</trkpt>
			<trkpt lat="50.4036564" lon="8.048349">
				<ele>168.7</ele>
				<time>2026-08-23T08:04:31.000Z</time>
			</trkpt>
			<trkpt lat="50.4036066" lon="8.0495317">
				<ele>170.9</ele>
				<time>2026-08-23T08:04:34.000Z</time>
			</trkpt>
			<trkpt lat="50.4035728" lon="8.0503118">
				<ele>172.3</ele>
				<time>2026-08-23T08:04:36.000Z</time>
			</trkpt>
			<trkpt lat="50.4035365" lon="8.0510816">
				<ele>173.7</ele>
				<time>2026-08-23T08:04:38.000Z</time>
			</trkpt>
			<trkpt lat="50.4034841" lon="8.0522295">
				<ele>176.1</ele>
				<time>2026-08-23T08:04:41.000Z</time>
			</trkpt>
			<trkpt lat="50.4034292" lon="8.0533671">
				<ele>180.3</ele>
				<time>2026-08-23T08:04:44.000Z</time>
			</trkpt>
			<trkpt lat="50.4033954" lon="8.0541231">
				<ele>183</ele>
				<time>2026-08-23T08:04:46.000Z</time>
			</trkpt>
			<trkpt lat="50.403353" lon="8.0548855">
				<ele>185.7</ele>
				<time>2026-08-23T08:04:48.000Z</time>
			</trkpt>
			<trkpt lat="50.4033005" lon="8.0560215">
				<ele>189.5</ele>
				<time>2026-08-23T08:04:51.000Z</time>
			</trkpt>
			<trkpt lat="50.4032677" lon="8.0567735">
				<ele>191.8</ele>
				<time>2026-08-23T08:04:53.000Z</time>
			</trkpt>
			<trkpt lat="50.4032121" lon="8.0579122">
				<ele>195.7</ele>
				<time>2026-08-23T08:04:56.000Z</time>
			</trkpt>
			<trkpt lat="50.4031204" lon="8.0590098">
				<ele>199.7</ele>
				<time>2026-08-23T08:04:59.000Z</time>
			</trkpt>
			<trkpt lat="50.4029598" lon="8.060071">
				<ele>202.5</ele>
				<time>2026-08-23T08:05:02.000Z</time>
			</trkpt>
			<trkpt lat="50.4027414" lon="8.0610831">
				<ele>205.5</ele>
				<time>2026-08-23T08:05:05.000Z</time>
			</trkpt>
			<trkpt lat="50.4024514" lon="8.0620765">
				<ele>207.2</ele>
				<time>2026-08-23T08:05:08.000Z</time>
			</trkpt>
			<trkpt lat="50.4022212" lon="8.0627287">
				<ele>207.5</ele>
				<time>2026-08-23T08:05:10.000Z</time>
			</trkpt>
			<trkpt lat="50.4018723" lon="8.0637041">
				<ele>208</ele>
				<time>2026-08-23T08:05:13.000Z</time>
			</trkpt>
			<trkpt lat="50.4016346" lon="8.0643682">
				<ele>208.4</ele>
				<time>2026-08-23T08:05:15.000Z</time>
			</trkpt>
			<trkpt lat="50.4012733" lon="8.0653747">
				<ele>208</ele>
				<time>2026-08-23T08:05:18.000Z</time>
			</trkpt>
			<trkpt lat="50.4010294" lon="8.0660527">
				<ele>207.4</ele>
				<time>2026-08-23T08:05:20.000Z</time>
			</trkpt>
			<trkpt lat="50.4006541" lon="8.0670834">
				<ele>205.5</ele>
				<time>2026-08-23T08:05:23.000Z</time>
			</trkpt>
			<trkpt lat="50.4004045" lon="8.0677631">
				<ele>203.2</ele>
				<time>2026-08-23T08:05:25.000Z</time>
			</trkpt>
			<trkpt lat="50.4001546" lon="8.0684539">
				<ele>201.1</ele>
				<time>2026-08-23T08:05:27.000Z</time>
			</trkpt>
			<trkpt lat="50.399776" lon="8.0695021">
				<ele>199.2</ele>
				<time>2026-08-23T08:05:30.000Z</time>
			</trkpt>
			<trkpt lat="50.3993924" lon="8.0705489">
				<ele>198.8</ele>
				<time>2026-08-23T08:05:33.000Z</time>
			</trkpt>
			<trkpt lat="50.3989799" lon="8.071565">
				<ele>199.1</ele>
				<time>2026-08-23T08:05:36.000Z</time>
			</trkpt>
			<trkpt lat="50.3986703" lon="8.0722135">
				<ele>200.3</ele>
				<time>2026-08-23T08:05:38.000Z</time>
			</trkpt>
			<trkpt lat="50.3983358" lon="8.0728264">
				<ele>201.2</ele>
				<time>2026-08-23T08:05:40.000Z</time>
			</trkpt>
			<trkpt lat="50.397798" lon="8.0736795">
				<ele>203.8</ele>
				<time>2026-08-23T08:05:43.000Z</time>
			</trkpt>
			<trkpt lat="50.3974194" lon="8.0741985">
				<ele>205</ele>
				<time>2026-08-23T08:05:45.000Z</time>
			</trkpt>
			<trkpt lat="50.3970259" lon="8.0746777">
				<ele>206.2</ele>
				<time>2026-08-23T08:05:47.000Z</time>
			</trkpt>
			<trkpt lat="50.3964065" lon="8.0753387">
				<ele>208.4</ele>
				<time>2026-08-23T08:05:50.000Z</time>
			</trkpt>
			<trkpt lat="50.3957593" lon="8.0759172">
				<ele>209.8</ele>
				<time>2026-08-23T08:05:53.000Z</time>
			</trkpt>
			<trkpt lat="50.3953093" lon="8.0762531">
				<ele>210.1</ele>
				<time>2026-08-23T08:05:55.000Z</time>
			</trkpt>
			<trkpt lat="50.3948533" lon="8.0765488">
				<ele>208.8</ele>
				<time>2026-08-23T08:05:57.000Z</time>
			</trkpt>
			<trkpt lat="50.3941544" lon="8.0769765">
				<ele>208.2</ele>
				<time>2026-08-23T08:06:00.000Z</time>
			</trkpt>
			<trkpt lat="50.3934388" lon="8.0774069">
				<ele>208.3</ele>
				<time>2026-08-23T08:06:03.000Z</time>
			</trkpt>
			<trkpt lat="50.3927124" lon="8.0778456">
				<ele>208.7</ele>
				<time>2026-08-23T08:06:06.000Z</time>
			</trkpt>
			<trkpt lat="50.3922261" lon="8.0781441">
				<ele>209</ele>
				<time>2026-08-23T08:06:08.000Z</time>
			</trkpt>
			<trkpt lat="50.3914945" lon="8.0785955">
				<ele>210.1</ele>
				<time>2026-08-23T08:06:11.000Z</time>
			</trkpt>
			<trkpt lat="50.3907565" lon="8.0790456">
				<ele>210.9</ele>
				<time>2026-08-23T08:06:14.000Z</time>
			</trkpt>
			<trkpt lat="50.3902641" lon="8.0793462">
				<ele>211.9</ele>
				<time>2026-08-23T08:06:16.000Z</time>
			</trkpt>
			<trkpt lat="50.3897754" lon="8.0796386">
				<ele>212.8</ele>
				<time>2026-08-23T08:06:18.000Z</time>
			</trkpt>
			<trkpt lat="50.3890444" lon="8.0800764">
				<ele>213.8</ele>
				<time>2026-08-23T08:06:21.000Z</time>
			</trkpt>
			<trkpt lat="50.3883187" lon="8.0805175">
				<ele>215</ele>
				<time>2026-08-23T08:06:24.000Z</time>
			</trkpt>
			<trkpt lat="50.3878372" lon="8.0808158">
				<ele>216.3</ele>
				<time>2026-08-23T08:06:26.000Z</time>
			</trkpt>
			<trkpt lat="50.3871189" lon="8.0812437">
				<ele>216.8</ele>
				<time>2026-08-23T08:06:29.000Z</time>
			</trkpt>
			<trkpt lat="50.3866383" lon="8.0815351">
				<ele>217.6</ele>
				<time>2026-08-23T08:06:31.000Z</time>
			</trkpt>
			<trkpt lat="50.3859246" lon="8.0819692">
				<ele>220.1</ele>
				<time>2026-08-23T08:06:34.000Z</time>
			</trkpt>
			<trkpt lat="50.3852133" lon="8.0823999">
				<ele>221.7</ele>
				<time>2026-08-23T08:06:37.000Z</time>
			</trkpt>
			<trkpt lat="50.3845076" lon="8.0828235">
				<ele>223.1</ele>
				<time>2026-08-23T08:06:40.000Z</time>
			</trkpt>
			<trkpt lat="50.3840376" lon="8.0831059">
				<ele>224.5</ele>
				<time>2026-08-23T08:06:42.000Z</time>
			</trkpt>
			<trkpt lat="50.3833477" lon="8.0835376">
				<ele>225</ele>
				<time>2026-08-23T08:06:45.000Z</time>
			</trkpt>
			<trkpt lat="50.3826711" lon="8.0840208">
				<ele>226.8</ele>
				<time>2026-08-23T08:06:48.000Z</time>
			</trkpt>
			<trkpt lat="50.3820206" lon="8.0845694">
				<ele>228.6</ele>
				<time>2026-08-23T08:06:51.000Z</time>
			</trkpt>
			<trkpt lat="50.3813823" lon="8.0852019">
				<ele>228.8</ele>
				<time>2026-08-23T08:06:54.000Z</time>
			</trkpt>
			<trkpt lat="50.3809709" lon="8.0856696">
				<ele>228.9</ele>
				<time>2026-08-23T08:06:56.000Z</time>
			</trkpt>
			<trkpt lat="50.3803863" lon="8.0864514">
				<ele>229.4</ele>
				<time>2026-08-23T08:06:59.000Z</time>
			</trkpt>
			<trkpt lat="50.3800163" lon="8.0870262">
				<ele>229.4</ele>
				<time>2026-08-23T08:07:01.000Z</time>
			</trkpt>
			<trkpt lat="50.3796625" lon="8.0876272">
				<ele>230.1</ele>
				<time>2026-08-23T08:07:03.000Z</time>
			</trkpt>
			<trkpt lat="50.3791798" lon="8.0885712">
				<ele>230.1</ele>
				<time>2026-08-23T08:07:06.000Z</time>
			</trkpt>
			<trkpt lat="50.3787409" lon="8.0895582">
				<ele>231</ele>
				<time>2026-08-23T08:07:09.000Z</time>
			</trkpt>
			<trkpt lat="50.3783636" lon="8.0904798">
				<ele>230.9</ele>
				<time>2026-08-23T08:07:12.000Z</time>
			</trkpt>
			<trkpt lat="50.3780226" lon="8.0913545">
				<ele>230.9</ele>
				<time>2026-08-23T08:07:15.000Z</time>
			</trkpt>
			<trkpt lat="50.3777922" lon="8.091945">
				<ele>230.9</ele>
				<time>2026-08-23T08:07:17.000Z</time>
			</trkpt>
			<trkpt lat="50.37744" lon="8.0928395">
				<ele>231.7</ele>
				<time>2026-08-23T08:07:20.000Z</time>
			</trkpt>
			<trkpt lat="50.3770838" lon="8.0937379">
				<ele>231.5</ele>
				<time>2026-08-23T08:07:23.000Z</time>
			</trkpt>
			<trkpt lat="50.3767209" lon="8.0946509">
				<ele>231.7</ele>
				<time>2026-08-23T08:07:26.000Z</time>
			</trkpt>
			<trkpt lat="50.3763554" lon="8.0955803">
				<ele>231.6</ele>
				<time>2026-08-23T08:07:29.000Z</time>
			</trkpt>
			<trkpt lat="50.3761115" lon="8.0962102">
				<ele>231.8</ele>
				<time>2026-08-23T08:07:31.000Z</time>
			</trkpt>
			<trkpt lat="50.3757388" lon="8.0971537">
				<ele>232.3</ele>
				<time>2026-08-23T08:07:34.000Z</time>
			</trkpt>
			<trkpt lat="50.3753704" lon="8.0980873">
				<ele>232.9</ele>
				<time>2026-08-23T08:07:37.000Z</time>
			</trkpt>
			<trkpt lat="50.3750167" lon="8.0989866">
				<ele>233</ele>
				<time>2026-08-23T08:07:40.000Z</time>
			</trkpt>
			<trkpt lat="50.3747833" lon="8.0995758">
				<ele>232.8</ele>
				<time>2026-08-23T08:07:42.000Z</time>
			</trkpt>
			<trkpt lat="50.3745539" lon="8.1001543">
				<ele>232.7</ele>
				<time>2026-08-23T08:07:44.000Z</time>
			</trkpt>
			<trkpt lat="50.3742106" lon="8.1010228">
				<ele>232.8</ele>
				<time>2026-08-23T08:07:47.000Z</time>
			</trkpt>
			<trkpt lat="50.3739845" lon="8.1015915">
				<ele>232.4</ele>
				<time>2026-08-23T08:07:49.000Z</time>
			</trkpt>
			<trkpt lat="50.3736425" lon="8.102447">
				<ele>232.1</ele>
				<time>2026-08-23T08:07:52.000Z</time>
			</trkpt>
			<trkpt lat="50.3734174" lon="8.1030169">
				<ele>232</ele>
				<time>2026-08-23T08:07:54.000Z</time>
			</trkpt>
			<trkpt lat="50.3730764" lon="8.1038941">
				<ele>231.9</ele>
				<time>2026-08-23T08:07:57.000Z</time>
			</trkpt>
			<trkpt lat="50.3728574" lon="8.1044728">
				<ele>232</ele>
				<time>2026-08-23T08:07:59.000Z</time>
			</trkpt>
			<trkpt lat="50.3725311" lon="8.1053799">
				<ele>232.5</ele>
				<time>2026-08-23T08:08:02.000Z</time>
			</trkpt>
			<trkpt lat="50.3721688" lon="8.1062964">
				<ele>231</ele>
				<time>2026-08-23T08:08:05.000Z</time>
			</trkpt>
			<trkpt lat="50.3717873" lon="8.1072591">
				<ele>230.8</ele>
				<time>2026-08-23T08:08:08.000Z</time>
			</trkpt>
			<trkpt lat="50.3715312" lon="8.1079098">
				<ele>229.8</ele>
				<time>2026-08-23T08:08:10.000Z</time>
			</trkpt>
			<trkpt lat="50.3711394" lon="8.1088994">
				<ele>228</ele>
				<time>2026-08-23T08:08:13.000Z</time>
			</trkpt>
			<trkpt lat="50.37074" lon="8.1099213">
				<ele>227.1</ele>
				<time>2026-08-23T08:08:16.000Z</time>
			</trkpt>
			<trkpt lat="50.370338" lon="8.1109527">
				<ele>226.5</ele>
				<time>2026-08-23T08:08:19.000Z</time>
			</trkpt>
			<trkpt lat="50.3700603" lon="8.1116557">
				<ele>227.3</ele>
				<time>2026-08-23T08:08:21.000Z</time>
			</trkpt>
			<trkpt lat="50.3697812" lon="8.1123604">
				<ele>227.2</ele>
				<time>2026-08-23T08:08:23.000Z</time>
			</trkpt>
			<trkpt lat="50.3693474" lon="8.1134066">
				<ele>227.1</ele>
				<time>2026-08-23T08:08:26.000Z</time>
			</trkpt>
			<trkpt lat="50.3690574" lon="8.1141102">
				<ele>227.4</ele>
				<time>2026-08-23T08:08:28.000Z</time>
			</trkpt>
			<trkpt lat="50.368773" lon="8.114816">
				<ele>227.4</ele>
				<time>2026-08-23T08:08:30.000Z</time>
			</trkpt>
			<trkpt lat="50.3683584" lon="8.1158732">
				<ele>227.2</ele>
				<time>2026-08-23T08:08:33.000Z</time>
			</trkpt>
			<trkpt lat="50.3680857" lon="8.1165613">
				<ele>227.2</ele>
				<time>2026-08-23T08:08:35.000Z</time>
			</trkpt>
			<trkpt lat="50.3676792" lon="8.117596">
				<ele>226.1</ele>
				<time>2026-08-23T08:08:38.000Z</time>
			</trkpt>
			<trkpt lat="50.3674024" lon="8.1183006">
				<ele>225.6</ele>
				<time>2026-08-23T08:08:40.000Z</time>
			</trkpt>
			<trkpt lat="50.3669817" lon="8.1193573">
				<ele>224</ele>
				<time>2026-08-23T08:08:43.000Z</time>
			</trkpt>
			<trkpt lat="50.3666992" lon="8.1200754">
				<ele>223.5</ele>
				<time>2026-08-23T08:08:45.000Z</time>
			</trkpt>
			<trkpt lat="50.3662873" lon="8.1211772">
				<ele>222.8</ele>
				<time>2026-08-23T08:08:48.000Z</time>
			</trkpt>
			<trkpt lat="50.3658668" lon="8.1222942">
				<ele>221.9</ele>
				<time>2026-08-23T08:08:51.000Z</time>
			</trkpt>
			<trkpt lat="50.3655713" lon="8.1230476">
				<ele>221.3</ele>
				<time>2026-08-23T08:08:53.000Z</time>
			</trkpt>
			<trkpt lat="50.365269" lon="8.1237988">
				<ele>221.6</ele>
				<time>2026-08-23T08:08:55.000Z</time>
			</trkpt>
			<trkpt lat="50.364823" lon="8.1249384">
				<ele>221.7</ele>
				<time>2026-08-23T08:08:58.000Z</time>
			</trkpt>
			<trkpt lat="50.3643692" lon="8.1260768">
				<ele>222.7</ele>
				<time>2026-08-23T08:09:01.000Z</time>
			</trkpt>
			<trkpt lat="50.3640678" lon="8.1268303">
				<ele>223.4</ele>
				<time>2026-08-23T08:09:03.000Z</time>
			</trkpt>
			<trkpt lat="50.3636272" lon="8.1279562">
				<ele>223.3</ele>
				<time>2026-08-23T08:09:06.000Z</time>
			</trkpt>
			<trkpt lat="50.3631856" lon="8.1290974">
				<ele>224</ele>
				<time>2026-08-23T08:09:09.000Z</time>
			</trkpt>
			<trkpt lat="50.3627318" lon="8.1302333">
				<ele>225.5</ele>
				<time>2026-08-23T08:09:12.000Z</time>
			</trkpt>
			<trkpt lat="50.3624292" lon="8.1309902">
				<ele>226.2</ele>
				<time>2026-08-23T08:09:14.000Z</time>
			</trkpt>
			<trkpt lat="50.36213" lon="8.1317497">
				<ele>227</ele>
				<time>2026-08-23T08:09:16.000Z</time>
			</trkpt>
			<trkpt lat="50.3616807" lon="8.1328907">
				<ele>228.4</ele>
				<time>2026-08-23T08:09:19.000Z</time>
			</trkpt>
			<trkpt lat="50.361243" lon="8.134034">
				<ele>229.5</ele>
				<time>2026-08-23T08:09:22.000Z</time>
			</trkpt>
			<trkpt lat="50.3608298" lon="8.1351966">
				<ele>230.9</ele>
				<time>2026-08-23T08:09:25.000Z</time>
			</trkpt>
			<trkpt lat="50.3605787" lon="8.135976">
				<ele>231.7</ele>
				<time>2026-08-23T08:09:27.000Z</time>
			</trkpt>
			<trkpt lat="50.3602462" lon="8.1371821">
				<ele>233.2</ele>
				<time>2026-08-23T08:09:30.000Z</time>
			</trkpt>
			<trkpt lat="50.3600468" lon="8.1379842">
				<ele>233</ele>
				<time>2026-08-23T08:09:32.000Z</time>
			</trkpt>
			<trkpt lat="50.3597542" lon="8.1392055">
				<ele>233.4</ele>
				<time>2026-08-23T08:09:35.000Z</time>
			</trkpt>
			<trkpt lat="50.3595676" lon="8.1399985">
				<ele>232.9</ele>
				<time>2026-08-23T08:09:37.000Z</time>
			</trkpt>
			<trkpt lat="50.3592853" lon="8.1412007">
				<ele>232.1</ele>
				<time>2026-08-23T08:09:40.000Z</time>
			</trkpt>
			<trkpt lat="50.3590917" lon="8.1419986">
				<ele>230.8</ele>
				<time>2026-08-23T08:09:42.000Z</time>
			</trkpt>
			<trkpt lat="50.3589039" lon="8.1428022">
				<ele>229.4</ele>
				<time>2026-08-23T08:09:44.000Z</time>
			</trkpt>
			<trkpt lat="50.3586167" lon="8.1440032">
				<ele>226.4</ele>
				<time>2026-08-23T08:09:47.000Z</time>
			</trkpt>
			<trkpt lat="50.3583316" lon="8.1451984">
				<ele>222.6</ele>
				<time>2026-08-23T08:09:50.000Z</time>
			</trkpt>
			<trkpt lat="50.3580449" lon="8.146388">
				<ele>218.4</ele>
				<time>2026-08-23T08:09:53.000Z</time>
			</trkpt>
			<trkpt lat="50.357854" lon="8.1471872">
				<ele>215.1</ele>
				<time>2026-08-23T08:09:55.000Z</time>
			</trkpt>
			<trkpt lat="50.3576634" lon="8.1479937">
				<ele>211.9</ele>
				<time>2026-08-23T08:09:57.000Z</time>
			</trkpt>
			<trkpt lat="50.357378" lon="8.1492042">
				<ele>206.8</ele>
				<time>2026-08-23T08:10:00.000Z</time>
			</trkpt>
			<trkpt lat="50.357182" lon="8.1500254">
				<ele>203.3</ele>
				<time>2026-08-23T08:10:02.000Z</time>
			</trkpt>
			<trkpt lat="50.356887" lon="8.1512662">
				<ele>199.4</ele>
				<time>2026-08-23T08:10:05.000Z</time>
			</trkpt>
			<trkpt lat="50.3565958" lon="8.1525078">
				<ele>197.1</ele>
				<time>2026-08-23T08:10:08.000Z</time>
			</trkpt>
			<trkpt lat="50.3562929" lon="8.1537507">
				<ele>197</ele>
				<time>2026-08-23T08:10:11.000Z</time>
			</trkpt>
			<trkpt lat="50.3560829" lon="8.1545816">
				<ele>197.1</ele>
				<time>2026-08-23T08:10:13.000Z</time>
			</trkpt>
			<trkpt lat="50.3558474" lon="8.1553872">
				<ele>197.2</ele>
				<time>2026-08-23T08:10:15.000Z</time>
			</trkpt>
			<trkpt lat="50.3555831" lon="8.1561584">
				<ele>198.6</ele>
				<time>2026-08-23T08:10:17.000Z</time>
			</trkpt>
			<trkpt lat="50.3551439" lon="8.1572303">
				<ele>202.3</ele>
				<time>2026-08-23T08:10:20.000Z</time>
			</trkpt>
			<trkpt lat="50.3548182" lon="8.1579032">
				<ele>205.2</ele>
				<time>2026-08-23T08:10:22.000Z</time>
			</trkpt>
			<trkpt lat="50.3542802" lon="8.1588451">
				<ele>209</ele>
				<time>2026-08-23T08:10:25.000Z</time>
			</trkpt>
			<trkpt lat="50.3536972" lon="8.1597307">
				<ele>211.9</ele>
				<time>2026-08-23T08:10:28.000Z</time>
			</trkpt>
			<trkpt lat="50.3530948" lon="8.1605953">
				<ele>214.3</ele>
				<time>2026-08-23T08:10:31.000Z</time>
			</trkpt>
			<trkpt lat="50.3526969" lon="8.1611749">
				<ele>215.2</ele>
				<time>2026-08-23T08:10:33.000Z</time>
			</trkpt>
			<trkpt lat="50.3520944" lon="8.162045">
				<ele>215.8</ele>
				<time>2026-08-23T08:10:36.000Z</time>
			</trkpt>
			<trkpt lat="50.3514871" lon="8.1629299">
				<ele>216.3</ele>
				<time>2026-08-23T08:10:39.000Z</time>
			</trkpt>
			<trkpt lat="50.351083" lon="8.1635145">
				<ele>216.5</ele>
				<time>2026-08-23T08:10:41.000Z</time>
			</trkpt>
			<trkpt lat="50.3504698" lon="8.1643891">
				<ele>217</ele>
				<time>2026-08-23T08:10:44.000Z</time>
			</trkpt>
			<trkpt lat="50.3500664" lon="8.1649839">
				<ele>218</ele>
				<time>2026-08-23T08:10:46.000Z</time>
			</trkpt>
			<trkpt lat="50.349665" lon="8.165555">
				<ele>218.4</ele>
				<time>2026-08-23T08:10:48.000Z</time>
			</trkpt>
			<trkpt lat="50.3490688" lon="8.1664162">
				<ele>221.6</ele>
				<time>2026-08-23T08:10:51.000Z</time>
			</trkpt>
			<trkpt lat="50.3484848" lon="8.1672671">
				<ele>225.7</ele>
				<time>2026-08-23T08:10:54.000Z</time>
			</trkpt>
			<trkpt lat="50.3480999" lon="8.1678256">
				<ele>228.8</ele>
				<time>2026-08-23T08:10:56.000Z</time>
			</trkpt>
			<trkpt lat="50.3477211" lon="8.1683755">
				<ele>231.8</ele>
				<time>2026-08-23T08:10:58.000Z</time>
			</trkpt>
			<trkpt lat="50.3471542" lon="8.169203">
				<ele>236.4</ele>
				<time>2026-08-23T08:11:01.000Z</time>
			</trkpt>
			<trkpt lat="50.3465923" lon="8.1700184">
				<ele>240.1</ele>
				<time>2026-08-23T08:11:04.000Z</time>
			</trkpt>
			<trkpt lat="50.3462197" lon="8.1705561">
				<ele>242.3</ele>
				<time>2026-08-23T08:11:06.000Z</time>
			</trkpt>
			<trkpt lat="50.3456641" lon="8.1713565">
				<ele>244.8</ele>
				<time>2026-08-23T08:11:09.000Z</time>
			</trkpt>
			<trkpt lat="50.3452953" lon="8.1718942">
				<ele>245.9</ele>
				<time>2026-08-23T08:11:11.000Z</time>
			</trkpt>
			<trkpt lat="50.3447412" lon="8.1727052">
				<ele>246.9</ele>
				<time>2026-08-23T08:11:14.000Z</time>
			</trkpt>
			<trkpt lat="50.3441766" lon="8.1735207">
				<ele>247.7</ele>
				<time>2026-08-23T08:11:17.000Z</time>
			</trkpt>
			<trkpt lat="50.3435999" lon="8.1743501">
				<ele>248.1</ele>
				<time>2026-08-23T08:11:20.000Z</time>
			</trkpt>
			<trkpt lat="50.3432172" lon="8.1748945">
				<ele>247.9</ele>
				<time>2026-08-23T08:11:22.000Z</time>
			</trkpt>
			<trkpt lat="50.3428382" lon="8.1754567">
				<ele>248.8</ele>
				<time>2026-08-23T08:11:24.000Z</time>
			</trkpt>
			<trkpt lat="50.3422862" lon="8.1763044">
				<ele>249.6</ele>
				<time>2026-08-23T08:11:27.000Z</time>
			</trkpt>
			<trkpt lat="50.3417566" lon="8.177178">
				<ele>249.6</ele>
				<time>2026-08-23T08:11:30.000Z</time>
			</trkpt>
			<trkpt lat="50.3414151" lon="8.1777821">
				<ele>250.5</ele>
				<time>2026-08-23T08:11:32.000Z</time>
			</trkpt>
			<trkpt lat="50.3409153" lon="8.1787374">
				<ele>251.8</ele>
				<time>2026-08-23T08:11:35.000Z</time>
			</trkpt>
			<trkpt lat="50.3404549" lon="8.1797496">
				<ele>252.4</ele>
				<time>2026-08-23T08:11:38.000Z</time>
			</trkpt>
			<trkpt lat="50.3400052" lon="8.1807866">
				<ele>252.5</ele>
				<time>2026-08-23T08:11:41.000Z</time>
			</trkpt>
			<trkpt lat="50.3397073" lon="8.1814969">
				<ele>251.8</ele>
				<time>2026-08-23T08:11:43.000Z</time>
			</trkpt>
			<trkpt lat="50.339253" lon="8.1825609">
				<ele>250.4</ele>
				<time>2026-08-23T08:11:46.000Z</time>
			</trkpt>
			<trkpt lat="50.3389554" lon="8.18326">
				<ele>249.1</ele>
				<time>2026-08-23T08:11:48.000Z</time>
			</trkpt>
			<trkpt lat="50.3385082" lon="8.1843098">
				<ele>247.6</ele>
				<time>2026-08-23T08:11:51.000Z</time>
			</trkpt>
			<trkpt lat="50.338052" lon="8.1853762">
				<ele>245.8</ele>
				<time>2026-08-23T08:11:54.000Z</time>
			</trkpt>
			<trkpt lat="50.3375863" lon="8.186469">
				<ele>244.9</ele>
				<time>2026-08-23T08:11:57.000Z</time>
			</trkpt>
			<trkpt lat="50.3371253" lon="8.1875474">
				<ele>245.3</ele>
				<time>2026-08-23T08:12:00.000Z</time>
			</trkpt>
			<trkpt lat="50.3368196" lon="8.1882598">
				<ele>245.8</ele>
				<time>2026-08-23T08:12:02.000Z</time>
			</trkpt>
			<trkpt lat="50.3365166" lon="8.1889811">
				<ele>248.1</ele>
				<time>2026-08-23T08:12:04.000Z</time>
			</trkpt>
			<trkpt lat="50.3360636" lon="8.1900424">
				<ele>252.8</ele>
				<time>2026-08-23T08:12:07.000Z</time>
			</trkpt>
			<trkpt lat="50.3356232" lon="8.191083">
				<ele>257.1</ele>
				<time>2026-08-23T08:12:10.000Z</time>
			</trkpt>
			<trkpt lat="50.3353348" lon="8.1917566">
				<ele>259.9</ele>
				<time>2026-08-23T08:12:12.000Z</time>
			</trkpt>
			<trkpt lat="50.3350467" lon="8.1924269">
				<ele>262.8</ele>
				<time>2026-08-23T08:12:14.000Z</time>
			</trkpt>
			<trkpt lat="50.3346186" lon="8.1933917">
				<ele>266.6</ele>
				<time>2026-08-23T08:12:17.000Z</time>
			</trkpt>
			<trkpt lat="50.3341962" lon="8.1943406">
				<ele>270.3</ele>
				<time>2026-08-23T08:12:20.000Z</time>
			</trkpt>
			<trkpt lat="50.333785" lon="8.1952876">
				<ele>274.5</ele>
				<time>2026-08-23T08:12:23.000Z</time>
			</trkpt>
			<trkpt lat="50.3333838" lon="8.1962488">
				<ele>278.6</ele>
				<time>2026-08-23T08:12:26.000Z</time>
			</trkpt>
			<trkpt lat="50.333112" lon="8.1968941">
				<ele>281.2</ele>
				<time>2026-08-23T08:12:28.000Z</time>
			</trkpt>
			<trkpt lat="50.3327024" lon="8.1978859">
				<ele>284.2</ele>
				<time>2026-08-23T08:12:31.000Z</time>
			</trkpt>
			<trkpt lat="50.3324296" lon="8.1985611">
				<ele>285.7</ele>
				<time>2026-08-23T08:12:33.000Z</time>
			</trkpt>
			<trkpt lat="50.3321616" lon="8.1992576">
				<ele>286.9</ele>
				<time>2026-08-23T08:12:35.000Z</time>
			</trkpt>
			<trkpt lat="50.3317589" lon="8.2003341">
				<ele>288.8</ele>
				<time>2026-08-23T08:12:38.000Z</time>
			</trkpt>
			<trkpt lat="50.331351" lon="8.2014492">
				<ele>291.2</ele>
				<time>2026-08-23T08:12:41.000Z</time>
			</trkpt>
			<trkpt lat="50.3309433" lon="8.2025674">
				<ele>293</ele>
				<time>2026-08-23T08:12:44.000Z</time>
			</trkpt>
			<trkpt lat="50.3305398" lon="8.2036722">
				<ele>294.6</ele>
				<time>2026-08-23T08:12:47.000Z</time>
			</trkpt>
			<trkpt lat="50.3301395" lon="8.2047722">
				<ele>296.9</ele>
				<time>2026-08-23T08:12:50.000Z</time>
			</trkpt>
			<trkpt lat="50.3298788" lon="8.2055005">
				<ele>298.4</ele>
				<time>2026-08-23T08:12:52.000Z</time>
			</trkpt>
			<trkpt lat="50.3294869" lon="8.2065918">
				<ele>300.8</ele>
				<time>2026-08-23T08:12:55.000Z</time>
			</trkpt>
			<trkpt lat="50.3290942" lon="8.2076717">
				<ele>302.4</ele>
				<time>2026-08-23T08:12:58.000Z</time>
			</trkpt>
			<trkpt lat="50.3287095" lon="8.2087679">
				<ele>304.8</ele>
				<time>2026-08-23T08:13:01.000Z</time>
			</trkpt>
			<trkpt lat="50.3283288" lon="8.2098703">
				<ele>306</ele>
				<time>2026-08-23T08:13:04.000Z</time>
			</trkpt>
			<trkpt lat="50.3279321" lon="8.2109656">
				<ele>307.3</ele>
				<time>2026-08-23T08:13:07.000Z</time>
			</trkpt>
			<trkpt lat="50.3275299" lon="8.2120817">
				<ele>308.1</ele>
				<time>2026-08-23T08:13:10.000Z</time>
			</trkpt>
			<trkpt lat="50.3272629" lon="8.2128236">
				<ele>308.5</ele>
				<time>2026-08-23T08:13:12.000Z</time>
			</trkpt>
			<trkpt lat="50.326848" lon="8.2139281">
				<ele>309.8</ele>
				<time>2026-08-23T08:13:15.000Z</time>
			</trkpt>
			<trkpt lat="50.3265487" lon="8.2146401">
				<ele>310.3</ele>
				<time>2026-08-23T08:13:17.000Z</time>
			</trkpt>
			<trkpt lat="50.3262293" lon="8.2153289">
				<ele>310.9</ele>
				<time>2026-08-23T08:13:19.000Z</time>
			</trkpt>
			<trkpt lat="50.3257174" lon="8.2163273">
				<ele>312</ele>
				<time>2026-08-23T08:13:22.000Z</time>
			</trkpt>
			<trkpt lat="50.3253424" lon="8.2169524">
				<ele>312.5</ele>
				<time>2026-08-23T08:13:24.000Z</time>
			</trkpt>
			<trkpt lat="50.3249474" lon="8.2175527">
				<ele>313.1</ele>
				<time>2026-08-23T08:13:26.000Z</time>
			</trkpt>
			<trkpt lat="50.3243396" lon="8.2184289">
				<ele>314.5</ele>
				<time>2026-08-23T08:13:29.000Z</time>
			</trkpt>
			<trkpt lat="50.3236991" lon="8.2192514">
				<ele>316.4</ele>
				<time>2026-08-23T08:13:32.000Z</time>
			</trkpt>
			<trkpt lat="50.3230278" lon="8.220011">
				<ele>317.9</ele>
				<time>2026-08-23T08:13:35.000Z</time>
			</trkpt>
			<trkpt lat="50.3223349" lon="8.2207078">
				<ele>319.9</ele>
				<time>2026-08-23T08:13:38.000Z</time>
			</trkpt>
			<trkpt lat="50.3218612" lon="8.221136">
				<ele>320.8</ele>
				<time>2026-08-23T08:13:40.000Z</time>
			</trkpt>
			<trkpt lat="50.3211426" lon="8.22174">
				<ele>322.5</ele>
				<time>2026-08-23T08:13:43.000Z</time>
			</trkpt>
			<trkpt lat="50.320662" lon="8.2221426">
				<ele>323.1</ele>
				<time>2026-08-23T08:13:45.000Z</time>
			</trkpt>
			<trkpt lat="50.3201779" lon="8.2225457">
				<ele>323.3</ele>
				<time>2026-08-23T08:13:47.000Z</time>
			</trkpt>
			<trkpt lat="50.3194477" lon="8.2231575">
				<ele>323.2</ele>
				<time>2026-08-23T08:13:50.000Z</time>
			</trkpt>
			<trkpt lat="50.3187056" lon="8.2237762">
				<ele>322</ele>
				<time>2026-08-23T08:13:53.000Z</time>
			</trkpt>
			<trkpt lat="50.3179688" lon="8.2243956">
				<ele>320</ele>
				<time>2026-08-23T08:13:56.000Z</time>
			</trkpt>
			<trkpt lat="50.3174723" lon="8.224803">
				<ele>319.4</ele>
				<time>2026-08-23T08:13:58.000Z</time>
			</trkpt>
			<trkpt lat="50.316731" lon="8.2254243">
				<ele>318.2</ele>
				<time>2026-08-23T08:14:01.000Z</time>
			</trkpt>
			<trkpt lat="50.315979" lon="8.2260506">
				<ele>318</ele>
				<time>2026-08-23T08:14:04.000Z</time>
			</trkpt>
			<trkpt lat="50.315478" lon="8.2264757">
				<ele>318.1</ele>
				<time>2026-08-23T08:14:06.000Z</time>
			</trkpt>
			<trkpt lat="50.3147216" lon="8.2271104">
				<ele>318.1</ele>
				<time>2026-08-23T08:14:09.000Z</time>
			</trkpt>
			<trkpt lat="50.3142157" lon="8.2275344">
				<ele>318.3</ele>
				<time>2026-08-23T08:14:11.000Z</time>
			</trkpt>
			<trkpt lat="50.3134524" lon="8.2281705">
				<ele>318</ele>
				<time>2026-08-23T08:14:14.000Z</time>
			</trkpt>
			<trkpt lat="50.3126813" lon="8.2288211">
				<ele>318.8</ele>
				<time>2026-08-23T08:14:17.000Z</time>
			</trkpt>
			<trkpt lat="50.3119204" lon="8.2294483">
				<ele>318.5</ele>
				<time>2026-08-23T08:14:20.000Z</time>
			</trkpt>
			<trkpt lat="50.3111506" lon="8.2300323">
				<ele>318.5</ele>
				<time>2026-08-23T08:14:23.000Z</time>
			</trkpt>
			<trkpt lat="50.3103706" lon="8.2305759">
				<ele>318.5</ele>
				<time>2026-08-23T08:14:26.000Z</time>
			</trkpt>
			<trkpt lat="50.3098547" lon="8.2309143">
				<ele>318.9</ele>
				<time>2026-08-23T08:14:28.000Z</time>
			</trkpt>
			<trkpt lat="50.3093859" lon="8.2312068">
				<ele>319.4</ele>
				<time>2026-08-23T08:14:30.000Z</time>
			</trkpt>
			<trkpt lat="50.3089835" lon="8.2314435">
				<ele>319.9</ele>
				<time>2026-08-23T08:14:32.000Z</time>
			</trkpt>
			<trkpt lat="50.3084622" lon="8.2317292">
				<ele>321.7</ele>
				<time>2026-08-23T08:14:35.000Z</time>
			</trkpt>
			<trkpt lat="50.3080289" lon="8.2319628">
				<ele>323.5</ele>
				<time>2026-08-23T08:14:38.000Z</time>
			</trkpt>
			<trkpt lat="50.3077691" lon="8.2320943">
				<ele>324.5</ele>
				<time>2026-08-23T08:14:40.000Z</time>
			</trkpt>
			<trkpt lat="50.3074361" lon="8.232259">
				<ele>325.8</ele>
				<time>2026-08-23T08:14:43.000Z</time>
			</trkpt>
			<trkpt lat="50.3071844" lon="8.2324078">
				<ele>326.5</ele>
				<time>2026-08-23T08:14:46.000Z</time>
			</trkpt>
			<trkpt lat="50.3069921" lon="8.232538">
				<ele>327.1</ele>
				<time>2026-08-23T08:14:48.000Z</time>
			</trkpt>
			<trkpt lat="50.3067608" lon="8.2326589">
				<ele>328.1</ele>
				<time>2026-08-23T08:14:50.000Z</time>
			</trkpt>
			<trkpt lat="50.3063733" lon="8.2328538">
				<ele>329.5</ele>
				<time>2026-08-23T08:14:53.000Z</time>
			</trkpt>
			<trkpt lat="50.3059645" lon="8.2330551">
				<ele>330.5</ele>
				<time>2026-08-23T08:14:56.000Z</time>
			</trkpt>
			<trkpt lat="50.3055593" lon="8.2332616">
				<ele>331.4</ele>
				<time>2026-08-23T08:14:59.000Z</time>
			</trkpt>
			<trkpt lat="50.3051539" lon="8.2334595">
				<ele>332.4</ele>
				<time>2026-08-23T08:15:02.000Z</time>
			</trkpt>
			<trkpt lat="50.3047362" lon="8.2336659">
				<ele>332.7</ele>
				<time>2026-08-23T08:15:05.000Z</time>
			</trkpt>
			<trkpt lat="50.3042984" lon="8.2338851">
				<ele>332.8</ele>
				<time>2026-08-23T08:15:08.000Z</time>
			</trkpt>
			<trkpt lat="50.3038285" lon="8.2341272">
				<ele>332.9</ele>
				<time>2026-08-23T08:15:11.000Z</time>
			</trkpt>
			<trkpt lat="50.3034842" lon="8.2343065">
				<ele>333.2</ele>
				<time>2026-08-23T08:15:13.000Z</time>
			</trkpt>
			<trkpt lat="50.3029631" lon="8.2345722">
				<ele>333.3</ele>
				<time>2026-08-23T08:15:16.000Z</time>
			</trkpt>
			<trkpt lat="50.302628" lon="8.2347429">
				<ele>333.5</ele>
				<time>2026-08-23T08:15:18.000Z</time>
			</trkpt>
			<trkpt lat="50.302166" lon="8.2349746">
				<ele>333.3</ele>
				<time>2026-08-23T08:15:21.000Z</time>
			</trkpt>
			<trkpt lat="50.3019072" lon="8.235111">
				<ele>334</ele>
				<time>2026-08-23T08:15:23.000Z</time>
			</trkpt>
			<trkpt lat="50.3016632" lon="8.2352325">
				<ele>334.1</ele>
				<time>2026-08-23T08:15:25.000Z</time>
			</trkpt>
			<trkpt lat="50.3013302" lon="8.2353982">
				<ele>334.7</ele>
				<time>2026-08-23T08:15:28.000Z</time>
			</trkpt>
			<trkpt lat="50.3010244" lon="8.2355543">
				<ele>335.1</ele>
				<time>2026-08-23T08:15:31.000Z</time>
			</trkpt>
			<trkpt lat="50.3008612" lon="8.235639">
				<ele>335.5</ele>
				<time>2026-08-23T08:15:33.000Z</time>
			</trkpt>
			<trkpt lat="50.3007328" lon="8.2357038">
				<ele>335.7</ele>
				<time>2026-08-23T08:15:35.000Z</time>
			</trkpt>
			<trkpt lat="50.3005609" lon="8.2357941">
				<ele>335.9</ele>
				<time>2026-08-23T08:15:38.000Z</time>
			</trkpt>
			<trkpt lat="50.3004332" lon="8.2358554">
				<ele>336.8</ele>
				<time>2026-08-23T08:15:41.000Z</time>
			</trkpt>
			<trkpt lat="50.3003248" lon="8.235913">
				<ele>336.8</ele>
				<time>2026-08-23T08:15:44.000Z</time>
			</trkpt>
			<trkpt lat="50.3002271" lon="8.2359624">
				<ele>336.6</ele>
				<time>2026-08-23T08:15:48.000Z</time>
			</trkpt>
			<trkpt lat="50.3001409" lon="8.2360072">
				<ele>336</ele>
				<time>2026-08-23T08:15:54.000Z</time>
			</trkpt>
			<trkpt lat="50.3000529" lon="8.2360525">
				<ele>335.8</ele>
				<time>2026-08-23T08:16:01.000Z</time>
			</trkpt>
			<trkpt lat="50.2999319" lon="8.2360568">
				<ele>334.8</ele>
				<time>2026-08-23T08:16:12.000Z</time>
			</trkpt>
			<trkpt lat="50.2998255" lon="8.2360979">
				<ele>334.4</ele>
				<time>2026-08-23T08:16:16.000Z</time>
			</trkpt>
			<trkpt lat="50.2997255" lon="8.2361573">
				<ele>332.9</ele>
				<time>2026-08-23T08:16:20.000Z</time>
			</trkpt>
			<trkpt lat="50.299634" lon="8.2362095">
				<ele>333.6</ele>
				<time>2026-08-23T08:16:24.000Z</time>
			</trkpt>
			<trkpt lat="50.2995472" lon="8.2362573">
				<ele>333.3</ele>
				<time>2026-08-23T08:16:32.000Z</time>
			</trkpt>
			<trkpt lat="50.2994515" lon="8.2363031">
				<ele>333.7</ele>
				<time>2026-08-23T08:16:43.000Z</time>
			</trkpt>
			<trkpt lat="50.2993652" lon="8.2363455">
				<ele>334.4</ele>
				<time>2026-08-23T08:16:50.000Z</time>
			</trkpt>
			<trkpt lat="50.2992742" lon="8.2363951">
				<ele>335</ele>
				<time>2026-08-23T08:16:57.000Z</time>
			</trkpt>
			<trkpt lat="50.2991809" lon="8.2364431">
				<ele>334.8</ele>
				<time>2026-08-23T08:17:04.000Z</time>
			</trkpt>
			<trkpt lat="50.2990867" lon="8.2364868">
				<ele>335.2</ele>
				<time>2026-08-23T08:17:09.000Z</time>
			</trkpt>
			<trkpt lat="50.2989909" lon="8.2365309">
				<ele>334.3</ele>
				<time>2026-08-23T08:17:15.000Z</time>
			</trkpt>
			<trkpt lat="50.2988975" lon="8.236585">
				<ele>333.1</ele>
				<time>2026-08-23T08:17:37.000Z</time>
			</trkpt>
			<trkpt lat="50.2988056" lon="8.2366371">
				<ele>333.2</ele>
				<time>2026-08-23T08:17:46.000Z</time>
			</trkpt>
			<trkpt lat="50.2987173" lon="8.2366835">
				<ele>333.1</ele>
				<time>2026-08-23T08:17:53.000Z</time>
			</trkpt>
			<trkpt lat="50.2986243" lon="8.2367295">
				<ele>333.3</ele>
				<time>2026-08-23T08:17:58.000Z</time>
			</trkpt>
			<trkpt lat="50.2985316" lon="8.2367761">
				<ele>333.6</ele>
				<time>2026-08-23T08:18:01.000Z</time>
			</trkpt>
			<trkpt lat="50.2984029" lon="8.2368408">
				<ele>333.1</ele>
				<time>2026-08-23T08:18:04.000Z</time>
			</trkpt>
			<trkpt lat="50.2983124" lon="8.2368868">
				<ele>333.2</ele>
				<time>2026-08-23T08:18:06.000Z</time>
			</trkpt>
			<trkpt lat="50.2981624" lon="8.2369671">
				<ele>333.3</ele>
				<time>2026-08-23T08:18:09.000Z</time>
			</trkpt>
			<trkpt lat="50.2979993" lon="8.2370735">
				<ele>334.1</ele>
				<time>2026-08-23T08:18:12.000Z</time>
			</trkpt>
			<trkpt lat="50.2978312" lon="8.2371796">
				<ele>334</ele>
				<time>2026-08-23T08:18:15.000Z</time>
			</trkpt>
			<trkpt lat="50.2976504" lon="8.237274">
				<ele>333.7</ele>
				<time>2026-08-23T08:18:18.000Z</time>
			</trkpt>
			<trkpt lat="50.2975235" lon="8.2373384">
				<ele>333.4</ele>
				<time>2026-08-23T08:18:20.000Z</time>
			</trkpt>
			<trkpt lat="50.2973813" lon="8.2374086">
				<ele>333.7</ele>
				<time>2026-08-23T08:18:22.000Z</time>
			</trkpt>
			<trkpt lat="50.2972227" lon="8.23749">
				<ele>333.7</ele>
				<time>2026-08-23T08:18:24.000Z</time>
			</trkpt>
			<trkpt lat="50.2969776" lon="8.2376136">
				<ele>334.2</ele>
				<time>2026-08-23T08:18:27.000Z</time>
			</trkpt>
			<trkpt lat="50.2967165" lon="8.2377537">
				<ele>334.4</ele>
				<time>2026-08-23T08:18:30.000Z</time>
			</trkpt>
			<trkpt lat="50.2964578" lon="8.2378788">
				<ele>334.2</ele>
				<time>2026-08-23T08:18:33.000Z</time>
			</trkpt>
			<trkpt lat="50.2962049" lon="8.2379985">
				<ele>333.2</ele>
				<time>2026-08-23T08:18:36.000Z</time>
			</trkpt>
			<trkpt lat="50.2960393" lon="8.2380778">
				<ele>332.9</ele>
				<time>2026-08-23T08:18:38.000Z</time>
			</trkpt>
			<trkpt lat="50.2957845" lon="8.2382108">
				<ele>333.2</ele>
				<time>2026-08-23T08:18:41.000Z</time>
			</trkpt>
			<trkpt lat="50.2955988" lon="8.2383056">
				<ele>333.3</ele>
				<time>2026-08-23T08:18:43.000Z</time>
			</trkpt>
			<trkpt lat="50.2953963" lon="8.2384078">
				<ele>333.8</ele>
				<time>2026-08-23T08:18:45.000Z</time>
			</trkpt>
			<trkpt lat="50.2950974" lon="8.2385668">
				<ele>334.3</ele>
				<time>2026-08-23T08:18:48.000Z</time>
			</trkpt>
			<trkpt lat="50.2947949" lon="8.2387177">
				<ele>334.7</ele>
				<time>2026-08-23T08:18:51.000Z</time>
			</trkpt>
			<trkpt lat="50.2946028" lon="8.238813">
				<ele>334.8</ele>
				<time>2026-08-23T08:18:53.000Z</time>
			</trkpt>
			<trkpt lat="50.2942942" lon="8.2389666">
				<ele>335.9</ele>
				<time>2026-08-23T08:18:56.000Z</time>
			</trkpt>
			<trkpt lat="50.2939615" lon="8.2391326">
				<ele>337</ele>
				<time>2026-08-23T08:18:59.000Z</time>
			</trkpt>
			<trkpt lat="50.2936015" lon="8.2393116">
				<ele>339.2</ele>
				<time>2026-08-23T08:19:02.000Z</time>
			</trkpt>
			<trkpt lat="50.2933352" lon="8.2394345">
				<ele>340.2</ele>
				<time>2026-08-23T08:19:04.000Z</time>
			</trkpt>
			<trkpt lat="50.2928915" lon="8.2396167">
				<ele>341.6</ele>
				<time>2026-08-23T08:19:07.000Z</time>
			</trkpt>
			<trkpt lat="50.2925672" lon="8.239741">
				<ele>342.6</ele>
				<time>2026-08-23T08:19:09.000Z</time>
			</trkpt>
			<trkpt lat="50.2922226" lon="8.2398572">
				<ele>343.4</ele>
				<time>2026-08-23T08:19:11.000Z</time>
			</trkpt>
			<trkpt lat="50.2916853" lon="8.2400021">
				<ele>343.9</ele>
				<time>2026-08-23T08:19:14.000Z</time>
			</trkpt>
			<trkpt lat="50.2913408" lon="8.2400775">
				<ele>344.1</ele>
				<time>2026-08-23T08:19:16.000Z</time>
			</trkpt>
			<trkpt lat="50.2908706" lon="8.2401638">
				<ele>344.5</ele>
				<time>2026-08-23T08:19:19.000Z</time>
			</trkpt>
			<trkpt lat="50.2905785" lon="8.2402011">
				<ele>344.8</ele>
				<time>2026-08-23T08:19:21.000Z</time>
			</trkpt>
			<trkpt lat="50.2903114" lon="8.2402288">
				<ele>345</ele>
				<time>2026-08-23T08:19:23.000Z</time>
			</trkpt>
			<trkpt lat="50.2899402" lon="8.2402579">
				<ele>345.2</ele>
				<time>2026-08-23T08:19:26.000Z</time>
			</trkpt>
			<trkpt lat="50.2896769" lon="8.240272">
				<ele>344.7</ele>
				<time>2026-08-23T08:19:28.000Z</time>
			</trkpt>
			<trkpt lat="50.2893952" lon="8.2402846">
				<ele>344.6</ele>
				<time>2026-08-23T08:19:30.000Z</time>
			</trkpt>
			<trkpt lat="50.2891049" lon="8.2403022">
				<ele>344.2</ele>
				<time>2026-08-23T08:19:32.000Z</time>
			</trkpt>
			<trkpt lat="50.2887618" lon="8.2403116">
				<ele>344</ele>
				<time>2026-08-23T08:19:35.000Z</time>
			</trkpt>
			<trkpt lat="50.2884556" lon="8.2403288">
				<ele>343.8</ele>
				<time>2026-08-23T08:19:38.000Z</time>
			</trkpt>
			<trkpt lat="50.2882482" lon="8.2403364">
				<ele>343.9</ele>
				<time>2026-08-23T08:19:40.000Z</time>
			</trkpt>
			<trkpt lat="50.28793" lon="8.2403582">
				<ele>344</ele>
				<time>2026-08-23T08:19:43.000Z</time>
			</trkpt>
			<trkpt lat="50.2876061" lon="8.2403742">
				<ele>342.6</ele>
				<time>2026-08-23T08:19:46.000Z</time>
			</trkpt>
			<trkpt lat="50.2873628" lon="8.2403882">
				<ele>343.1</ele>
				<time>2026-08-23T08:19:48.000Z</time>
			</trkpt>
			<trkpt lat="50.2869711" lon="8.2404129">
				<ele>342.8</ele>
				<time>2026-08-23T08:19:51.000Z</time>
			</trkpt>
			<trkpt lat="50.2865585" lon="8.2404334">
				<ele>342.5</ele>
				<time>2026-08-23T08:19:54.000Z</time>
			</trkpt>
			<trkpt lat="50.2862686" lon="8.2404538">
				<ele>342.1</ele>
				<time>2026-08-23T08:19:56.000Z</time>
			</trkpt>
			<trkpt lat="50.2859834" lon="8.2404639">
				<ele>342.2</ele>
				<time>2026-08-23T08:19:58.000Z</time>
			</trkpt>
			<trkpt lat="50.2857068" lon="8.2404733">
				<ele>342.3</ele>
				<time>2026-08-23T08:20:00.000Z</time>
			</trkpt>
			<trkpt lat="50.2854318" lon="8.2404891">
				<ele>342.3</ele>
				<time>2026-08-23T08:20:02.000Z</time>
			</trkpt>
			<trkpt lat="50.2850038" lon="8.2405094">
				<ele>343.1</ele>
				<time>2026-08-23T08:20:05.000Z</time>
			</trkpt>
			<trkpt lat="50.2847146" lon="8.2405291">
				<ele>343.8</ele>
				<time>2026-08-23T08:20:07.000Z</time>
			</trkpt>
			<trkpt lat="50.284419" lon="8.2405428">
				<ele>344.3</ele>
				<time>2026-08-23T08:20:09.000Z</time>
			</trkpt>
			<trkpt lat="50.2839672" lon="8.2405656">
				<ele>345.1</ele>
				<time>2026-08-23T08:20:12.000Z</time>
			</trkpt>
			<trkpt lat="50.283669" lon="8.2405872">
				<ele>345.9</ele>
				<time>2026-08-23T08:20:14.000Z</time>
			</trkpt>
			<trkpt lat="50.2833634" lon="8.240602">
				<ele>346.1</ele>
				<time>2026-08-23T08:20:16.000Z</time>
			</trkpt>
			<trkpt lat="50.2829148" lon="8.2406259">
				<ele>346.9</ele>
				<time>2026-08-23T08:20:19.000Z</time>
			</trkpt>
			<trkpt lat="50.2824518" lon="8.2406494">
				<ele>347.5</ele>
				<time>2026-08-23T08:20:22.000Z</time>
			</trkpt>
			<trkpt lat="50.2821412" lon="8.2406629">
				<ele>348</ele>
				<time>2026-08-23T08:20:24.000Z</time>
			</trkpt>
			<trkpt lat="50.2816756" lon="8.2406857">
				<ele>349.3</ele>
				<time>2026-08-23T08:20:27.000Z</time>
			</trkpt>
			<trkpt lat="50.2811988" lon="8.2407107">
				<ele>349.4</ele>
				<time>2026-08-23T08:20:30.000Z</time>
			</trkpt>
			<trkpt lat="50.2807167" lon="8.2407392">
				<ele>349.5</ele>
				<time>2026-08-23T08:20:33.000Z</time>
			</trkpt>
			<trkpt lat="50.2801962" lon="8.2408238">
				<ele>349.2</ele>
				<time>2026-08-23T08:20:36.000Z</time>
			</trkpt>
			<trkpt lat="50.2798253" lon="8.240908">
				<ele>348.8</ele>
				<time>2026-08-23T08:20:38.000Z</time>
			</trkpt>
			<trkpt lat="50.2792379" lon="8.2411186">
				<ele>347.7</ele>
				<time>2026-08-23T08:20:41.000Z</time>
			</trkpt>
			<trkpt lat="50.2786056" lon="8.2413953">
				<ele>346.3</ele>
				<time>2026-08-23T08:20:44.000Z</time>
			</trkpt>
			<trkpt lat="50.2782093" lon="8.2416152">
				<ele>344.9</ele>
				<time>2026-08-23T08:20:46.000Z</time>
			</trkpt>
			<trkpt lat="50.27766" lon="8.2419719">
				<ele>342.2</ele>
				<time>2026-08-23T08:20:49.000Z</time>
			</trkpt>
			<trkpt lat="50.2773732" lon="8.2421839">
				<ele>340.9</ele>
				<time>2026-08-23T08:20:51.000Z</time>
			</trkpt>
			<trkpt lat="50.2769714" lon="8.2424941">
				<ele>338.7</ele>
				<time>2026-08-23T08:20:54.000Z</time>
			</trkpt>
			<trkpt lat="50.2766022" lon="8.2427885">
				<ele>336.7</ele>
				<time>2026-08-23T08:20:57.000Z</time>
			</trkpt>
			<trkpt lat="50.2762185" lon="8.243101">
				<ele>335</ele>
				<time>2026-08-23T08:21:00.000Z</time>
			</trkpt>
			<trkpt lat="50.2759893" lon="8.2432893">
				<ele>333.6</ele>
				<time>2026-08-23T08:21:02.000Z</time>
			</trkpt>
			<trkpt lat="50.275772" lon="8.2434672">
				<ele>332.8</ele>
				<time>2026-08-23T08:21:04.000Z</time>
			</trkpt>
			<trkpt lat="50.2755548" lon="8.2436417">
				<ele>331.9</ele>
				<time>2026-08-23T08:21:06.000Z</time>
			</trkpt>
			<trkpt lat="50.2752681" lon="8.2438867">
				<ele>331.2</ele>
				<time>2026-08-23T08:21:09.000Z</time>
			</trkpt>
			<trkpt lat="50.2750828" lon="8.2440401">
				<ele>330.3</ele>
				<time>2026-08-23T08:21:11.000Z</time>
			</trkpt>
			<trkpt lat="50.2748358" lon="8.2442312">
				<ele>329.7</ele>
				<time>2026-08-23T08:21:14.000Z</time>
			</trkpt>
			<trkpt lat="50.2747012" lon="8.2443383">
				<ele>329.3</ele>
				<time>2026-08-23T08:21:16.000Z</time>
			</trkpt>
			<trkpt lat="50.2745348" lon="8.2444671">
				<ele>329</ele>
				<time>2026-08-23T08:21:19.000Z</time>
			</trkpt>
			<trkpt lat="50.2744363" lon="8.2445463">
				<ele>328.4</ele>
				<time>2026-08-23T08:21:21.000Z</time>
			</trkpt>
			<trkpt lat="50.2743154" lon="8.2446389">
				<ele>327.5</ele>
				<time>2026-08-23T08:21:24.000Z</time>
			</trkpt>
			<trkpt lat="50.2742351" lon="8.2447121">
				<ele>327.1</ele>
				<time>2026-08-23T08:21:26.000Z</time>
			</trkpt>
			<trkpt lat="50.2741318" lon="8.2448003">
				<ele>326.7</ele>
				<time>2026-08-23T08:21:29.000Z</time>
			</trkpt>
			<trkpt lat="50.2740439" lon="8.24487">
				<ele>326.8</ele>
				<time>2026-08-23T08:21:35.000Z</time>
			</trkpt>
			<trkpt lat="50.2739373" lon="8.2449565">
				<ele>326.9</ele>
				<time>2026-08-23T08:21:42.000Z</time>
			</trkpt>
			<trkpt lat="50.2737872" lon="8.2450726">
				<ele>326.2</ele>
				<time>2026-08-23T08:21:45.000Z</time>
			</trkpt>
			<trkpt lat="50.2736601" lon="8.2451735">
				<ele>326</ele>
				<time>2026-08-23T08:21:47.000Z</time>
			</trkpt>
			<trkpt lat="50.2735356" lon="8.24527">
				<ele>325.9</ele>
				<time>2026-08-23T08:21:49.000Z</time>
			</trkpt>
			<trkpt lat="50.273419" lon="8.2453608">
				<ele>325.6</ele>
				<time>2026-08-23T08:21:51.000Z</time>
			</trkpt>
			<trkpt lat="50.2732875" lon="8.2454686">
				<ele>325.6</ele>
				<time>2026-08-23T08:21:53.000Z</time>
			</trkpt>
			<trkpt lat="50.273087" lon="8.2456366">
				<ele>325.3</ele>
				<time>2026-08-23T08:21:56.000Z</time>
			</trkpt>
			<trkpt lat="50.2728663" lon="8.2458091">
				<ele>325.2</ele>
				<time>2026-08-23T08:21:59.000Z</time>
			</trkpt>
			<trkpt lat="50.2726163" lon="8.2460123">
				<ele>324.4</ele>
				<time>2026-08-23T08:22:02.000Z</time>
			</trkpt>
			<trkpt lat="50.2724377" lon="8.2461568">
				<ele>324.2</ele>
				<time>2026-08-23T08:22:04.000Z</time>
			</trkpt>
			<trkpt lat="50.2721595" lon="8.246381">
				<ele>324.4</ele>
				<time>2026-08-23T08:22:07.000Z</time>
			</trkpt>
			<trkpt lat="50.271973" lon="8.2465275">
				<ele>324.3</ele>
				<time>2026-08-23T08:22:09.000Z</time>
			</trkpt>
			<trkpt lat="50.271711" lon="8.246741">
				<ele>324.4</ele>
				<time>2026-08-23T08:22:12.000Z</time>
			</trkpt>
			<trkpt lat="50.2714394" lon="8.2469577">
				<ele>324.2</ele>
				<time>2026-08-23T08:22:15.000Z</time>
			</trkpt>
			<trkpt lat="50.2712477" lon="8.2471164">
				<ele>324.5</ele>
				<time>2026-08-23T08:22:17.000Z</time>
			</trkpt>
			<trkpt lat="50.270963" lon="8.247339">
				<ele>324.2</ele>
				<time>2026-08-23T08:22:20.000Z</time>
			</trkpt>
			<trkpt lat="50.2706653" lon="8.247571">
				<ele>324.1</ele>
				<time>2026-08-23T08:22:23.000Z</time>
			</trkpt>
			<trkpt lat="50.2703811" lon="8.2478045">
				<ele>324.1</ele>
				<time>2026-08-23T08:22:26.000Z</time>
			</trkpt>
			<trkpt lat="50.270228" lon="8.2479263">
				<ele>323.9</ele>
				<time>2026-08-23T08:22:28.000Z</time>
			</trkpt>
			<trkpt lat="50.2700156" lon="8.2480996">
				<ele>324</ele>
				<time>2026-08-23T08:22:31.000Z</time>
			</trkpt>
			<trkpt lat="50.2698699" lon="8.2482187">
				<ele>324</ele>
				<time>2026-08-23T08:22:33.000Z</time>
			</trkpt>
			<trkpt lat="50.2696437" lon="8.2484063">
				<ele>324</ele>
				<time>2026-08-23T08:22:36.000Z</time>
			</trkpt>
			<trkpt lat="50.2694328" lon="8.2485794">
				<ele>324.3</ele>
				<time>2026-08-23T08:22:39.000Z</time>
			</trkpt>
			<trkpt lat="50.2692352" lon="8.2487357">
				<ele>324.4</ele>
				<time>2026-08-23T08:22:42.000Z</time>
			</trkpt>
			<trkpt lat="50.2690011" lon="8.2489278">
				<ele>324.6</ele>
				<time>2026-08-23T08:22:45.000Z</time>
			</trkpt>
			<trkpt lat="50.2688148" lon="8.2490847">
				<ele>325</ele>
				<time>2026-08-23T08:22:47.000Z</time>
			</trkpt>
			<trkpt lat="50.2685034" lon="8.2493362">
				<ele>325.1</ele>
				<time>2026-08-23T08:22:50.000Z</time>
			</trkpt>
			<trkpt lat="50.2681796" lon="8.2495879">
				<ele>325.2</ele>
				<time>2026-08-23T08:22:53.000Z</time>
			</trkpt>
			<trkpt lat="50.267828" lon="8.2498679">
				<ele>325.3</ele>
				<time>2026-08-23T08:22:56.000Z</time>
			</trkpt>
			<trkpt lat="50.2675723" lon="8.2500574">
				<ele>325.1</ele>
				<time>2026-08-23T08:22:58.000Z</time>
			</trkpt>
			<trkpt lat="50.2671771" lon="8.2503222">
				<ele>324.7</ele>
				<time>2026-08-23T08:23:01.000Z</time>
			</trkpt>
			<trkpt lat="50.2667857" lon="8.250545">
				<ele>323.8</ele>
				<time>2026-08-23T08:23:04.000Z</time>
			</trkpt>
			<trkpt lat="50.2663822" lon="8.2507295">
				<ele>322.6</ele>
				<time>2026-08-23T08:23:07.000Z</time>
			</trkpt>
			<trkpt lat="50.26595" lon="8.2508943">
				<ele>321.5</ele>
				<time>2026-08-23T08:23:10.000Z</time>
			</trkpt>
			<trkpt lat="50.2655032" lon="8.2510194">
				<ele>320.1</ele>
				<time>2026-08-23T08:23:13.000Z</time>
			</trkpt>
			<trkpt lat="50.2652082" lon="8.2510854">
				<ele>319.3</ele>
				<time>2026-08-23T08:23:15.000Z</time>
			</trkpt>
			<trkpt lat="50.2648238" lon="8.2511402">
				<ele>317.8</ele>
				<time>2026-08-23T08:23:18.000Z</time>
			</trkpt>
			<trkpt lat="50.2645928" lon="8.2511591">
				<ele>317.2</ele>
				<time>2026-08-23T08:23:20.000Z</time>
			</trkpt>
			<trkpt lat="50.2643799" lon="8.251172">
				<ele>316.5</ele>
				<time>2026-08-23T08:23:22.000Z</time>
			</trkpt>
			<trkpt lat="50.2641065" lon="8.2511649">
				<ele>315.3</ele>
				<time>2026-08-23T08:23:25.000Z</time>
			</trkpt>
			<trkpt lat="50.2639526" lon="8.2511583">
				<ele>314.3</ele>
				<time>2026-08-23T08:23:27.000Z</time>
			</trkpt>
			<trkpt lat="50.2638092" lon="8.2511416">
				<ele>314.1</ele>
				<time>2026-08-23T08:23:29.000Z</time>
			</trkpt>
			<trkpt lat="50.2636662" lon="8.2511321">
				<ele>314.3</ele>
				<time>2026-08-23T08:23:31.000Z</time>
			</trkpt>
			<trkpt lat="50.2634722" lon="8.2511092">
				<ele>313.9</ele>
				<time>2026-08-23T08:23:34.000Z</time>
			</trkpt>
			<trkpt lat="50.2633631" lon="8.2510857">
				<ele>313.1</ele>
				<time>2026-08-23T08:23:36.000Z</time>
			</trkpt>
			<trkpt lat="50.2632135" lon="8.2510457">
				<ele>312.4</ele>
				<time>2026-08-23T08:23:39.000Z</time>
			</trkpt>
			<trkpt lat="50.2631027" lon="8.251037">
				<ele>312.4</ele>
				<time>2026-08-23T08:23:41.000Z</time>
			</trkpt>
			<trkpt lat="50.2629237" lon="8.2509935">
				<ele>311.8</ele>
				<time>2026-08-23T08:23:44.000Z</time>
			</trkpt>
			<trkpt lat="50.2628084" lon="8.250965">
				<ele>311.6</ele>
				<time>2026-08-23T08:23:46.000Z</time>
			</trkpt>
			<trkpt lat="50.2626426" lon="8.2509027">
				<ele>310.8</ele>
				<time>2026-08-23T08:23:49.000Z</time>
			</trkpt>
			<trkpt lat="50.2625033" lon="8.2508561">
				<ele>310.5</ele>
				<time>2026-08-23T08:23:52.000Z</time>
			</trkpt>
			<trkpt lat="50.2623934" lon="8.2508254">
				<ele>309.8</ele>
				<time>2026-08-23T08:23:55.000Z</time>
			</trkpt>
			<trkpt lat="50.2622801" lon="8.2507837">
				<ele>310.8</ele>
				<time>2026-08-23T08:23:59.000Z</time>
			</trkpt>
			<trkpt lat="50.2621668" lon="8.2507372">
				<ele>310</ele>
				<time>2026-08-23T08:24:02.000Z</time>
			</trkpt>
			<trkpt lat="50.2619914" lon="8.2506647">
				<ele>309.7</ele>
				<time>2026-08-23T08:24:05.000Z</time>
			</trkpt>
			<trkpt lat="50.2618738" lon="8.2506086">
				<ele>309.6</ele>
				<time>2026-08-23T08:24:07.000Z</time>
			</trkpt>
			<trkpt lat="50.2617507" lon="8.2505446">
				<ele>309.2</ele>
				<time>2026-08-23T08:24:09.000Z</time>
			</trkpt>
			<trkpt lat="50.2615723" lon="8.2504517">
				<ele>308.5</ele>
				<time>2026-08-23T08:24:12.000Z</time>
			</trkpt>
			<trkpt lat="50.2614616" lon="8.2503921">
				<ele>308.4</ele>
				<time>2026-08-23T08:24:14.000Z</time>
			</trkpt>
			<trkpt lat="50.2613052" lon="8.250294">
				<ele>308.5</ele>
				<time>2026-08-23T08:24:17.000Z</time>
			</trkpt>
			<trkpt lat="50.2611669" lon="8.250206">
				<ele>308</ele>
				<time>2026-08-23T08:24:20.000Z</time>
			</trkpt>
			<trkpt lat="50.2610589" lon="8.2501316">
				<ele>307.5</ele>
				<time>2026-08-23T08:24:22.000Z</time>
			</trkpt>
			<trkpt lat="50.2609354" lon="8.2500392">
				<ele>306.8</ele>
				<time>2026-08-23T08:24:24.000Z</time>
			</trkpt>
			<trkpt lat="50.2607336" lon="8.2498881">
				<ele>306.1</ele>
				<time>2026-08-23T08:24:27.000Z</time>
			</trkpt>
			<trkpt lat="50.2605934" lon="8.2497776">
				<ele>305.5</ele>
				<time>2026-08-23T08:24:29.000Z</time>
			</trkpt>
			<trkpt lat="50.2603894" lon="8.249603">
				<ele>304.8</ele>
				<time>2026-08-23T08:24:32.000Z</time>
			</trkpt>
			<trkpt lat="50.260265" lon="8.2494997">
				<ele>304.6</ele>
				<time>2026-08-23T08:24:34.000Z</time>
			</trkpt>
			<trkpt lat="50.2601288" lon="8.2493873">
				<ele>304</ele>
				<time>2026-08-23T08:24:37.000Z</time>
			</trkpt>
			<trkpt lat="50.260025" lon="8.2493033">
				<ele>303.3</ele>
				<time>2026-08-23T08:24:39.000Z</time>
			</trkpt>
			<trkpt lat="50.2598563" lon="8.2491583">
				<ele>303</ele>
				<time>2026-08-23T08:24:42.000Z</time>
			</trkpt>
			<trkpt lat="50.2597276" lon="8.2490546">
				<ele>302.6</ele>
				<time>2026-08-23T08:24:44.000Z</time>
			</trkpt>
			<trkpt lat="50.2595954" lon="8.2489474">
				<ele>301.7</ele>
				<time>2026-08-23T08:24:46.000Z</time>
			</trkpt>
			<trkpt lat="50.2594539" lon="8.2488283">
				<ele>300.7</ele>
				<time>2026-08-23T08:24:48.000Z</time>
			</trkpt>
			<trkpt lat="50.2592568" lon="8.2486643">
				<ele>300</ele>
				<time>2026-08-23T08:24:51.000Z</time>
			</trkpt>
			<trkpt lat="50.2591165" lon="8.2485544">
				<ele>299.4</ele>
				<time>2026-08-23T08:24:53.000Z</time>
			</trkpt>
			<trkpt lat="50.2589227" lon="8.2483913">
				<ele>298.8</ele>
				<time>2026-08-23T08:24:56.000Z</time>
			</trkpt>
			<trkpt lat="50.2588206" lon="8.248306">
				<ele>298.3</ele>
				<time>2026-08-23T08:24:58.000Z</time>
			</trkpt>
			<trkpt lat="50.2586669" lon="8.2481733">
				<ele>297.3</ele>
				<time>2026-08-23T08:25:01.000Z</time>
			</trkpt>
			<trkpt lat="50.2585436" lon="8.2480757">
				<ele>296.9</ele>
				<time>2026-08-23T08:25:04.000Z</time>
			</trkpt>
			<trkpt lat="50.2584302" lon="8.2479842">
				<ele>296.1</ele>
				<time>2026-08-23T08:25:07.000Z</time>
			</trkpt>
			<trkpt lat="50.2582937" lon="8.2478897">
				<ele>294.4</ele>
				<time>2026-08-23T08:25:10.000Z</time>
			</trkpt>
			<trkpt lat="50.2581723" lon="8.2478069">
				<ele>294.3</ele>
				<time>2026-08-23T08:25:12.000Z</time>
			</trkpt>
			<trkpt lat="50.2579842" lon="8.2476791">
				<ele>293.1</ele>
				<time>2026-08-23T08:25:15.000Z</time>
			</trkpt>
			<trkpt lat="50.2577861" lon="8.2475563">
				<ele>291.5</ele>
				<time>2026-08-23T08:25:18.000Z</time>
			</trkpt>
			<trkpt lat="50.2576699" lon="8.2474841">
				<ele>291.1</ele>
				<time>2026-08-23T08:25:20.000Z</time>
			</trkpt>
			<trkpt lat="50.2575171" lon="8.2474041">
				<ele>290.3</ele>
				<time>2026-08-23T08:25:23.000Z</time>
			</trkpt>
			<trkpt lat="50.2574007" lon="8.2473471">
				<ele>289.3</ele>
				<time>2026-08-23T08:25:25.000Z</time>
			</trkpt>
			<trkpt lat="50.2571826" lon="8.2472392">
				<ele>288.3</ele>
				<time>2026-08-23T08:25:28.000Z</time>
			</trkpt>
			<trkpt lat="50.2569089" lon="8.2471085">
				<ele>287.2</ele>
				<time>2026-08-23T08:25:31.000Z</time>
			</trkpt>
			<trkpt lat="50.2565833" lon="8.2469794">
				<ele>286.2</ele>
				<time>2026-08-23T08:25:34.000Z</time>
			</trkpt>
			<trkpt lat="50.2562321" lon="8.2468498">
				<ele>286.1</ele>
				<time>2026-08-23T08:25:37.000Z</time>
			</trkpt>
			<trkpt lat="50.2559012" lon="8.2467537">
				<ele>286.7</ele>
				<time>2026-08-23T08:25:40.000Z</time>
			</trkpt>
			<trkpt lat="50.2555685" lon="8.2466789">
				<ele>287.3</ele>
				<time>2026-08-23T08:25:43.000Z</time>
			</trkpt>
			<trkpt lat="50.255334" lon="8.2466361">
				<ele>287.9</ele>
				<time>2026-08-23T08:25:45.000Z</time>
			</trkpt>
			<trkpt lat="50.2549694" lon="8.2465851">
				<ele>289.3</ele>
				<time>2026-08-23T08:25:48.000Z</time>
			</trkpt>
			<trkpt lat="50.2546086" lon="8.2465704">
				<ele>290.2</ele>
				<time>2026-08-23T08:25:51.000Z</time>
			</trkpt>
			<trkpt lat="50.2543486" lon="8.2465651">
				<ele>291.1</ele>
				<time>2026-08-23T08:25:53.000Z</time>
			</trkpt>
			<trkpt lat="50.2539628" lon="8.2465862">
				<ele>292.5</ele>
				<time>2026-08-23T08:25:56.000Z</time>
			</trkpt>
			<trkpt lat="50.2537032" lon="8.2466057">
				<ele>293.1</ele>
				<time>2026-08-23T08:25:58.000Z</time>
			</trkpt>
			<trkpt lat="50.2532952" lon="8.2466753">
				<ele>295</ele>
				<time>2026-08-23T08:26:01.000Z</time>
			</trkpt>
			<trkpt lat="50.2530143" lon="8.246719">
				<ele>297</ele>
				<time>2026-08-23T08:26:03.000Z</time>
			</trkpt>
			<trkpt lat="50.2525932" lon="8.246793">
				<ele>298.6</ele>
				<time>2026-08-23T08:26:06.000Z</time>
			</trkpt>
			<trkpt lat="50.2522146" lon="8.2468572">
				<ele>300.6</ele>
				<time>2026-08-23T08:26:09.000Z</time>
			</trkpt>
			<trkpt lat="50.2519608" lon="8.2468916">
				<ele>301.6</ele>
				<time>2026-08-23T08:26:11.000Z</time>
			</trkpt>
			<trkpt lat="50.251621" lon="8.2469478">
				<ele>302.5</ele>
				<time>2026-08-23T08:26:14.000Z</time>
			</trkpt>
			<trkpt lat="50.2514485" lon="8.2469733">
				<ele>304.1</ele>
				<time>2026-08-23T08:26:16.000Z</time>
			</trkpt>
			<trkpt lat="50.2512002" lon="8.2470046">
				<ele>305.3</ele>
				<time>2026-08-23T08:26:19.000Z</time>
			</trkpt>
			<trkpt lat="50.250936" lon="8.2470312">
				<ele>306.6</ele>
				<time>2026-08-23T08:26:22.000Z</time>
			</trkpt>
			<trkpt lat="50.2506682" lon="8.2470432">
				<ele>308.4</ele>
				<time>2026-08-23T08:26:25.000Z</time>
			</trkpt>
			<trkpt lat="50.2504946" lon="8.2470449">
				<ele>309.3</ele>
				<time>2026-08-23T08:26:27.000Z</time>
			</trkpt>
			<trkpt lat="50.2502677" lon="8.2470413">
				<ele>310.4</ele>
				<time>2026-08-23T08:26:30.000Z</time>
			</trkpt>
			<trkpt lat="50.2500761" lon="8.2470283">
				<ele>311.2</ele>
				<time>2026-08-23T08:26:33.000Z</time>
			</trkpt>
			<trkpt lat="50.249952" lon="8.2470204">
				<ele>312.4</ele>
				<time>2026-08-23T08:26:35.000Z</time>
			</trkpt>
			<trkpt lat="50.2497336" lon="8.2469852">
				<ele>314.3</ele>
				<time>2026-08-23T08:26:38.000Z</time>
			</trkpt>
			<trkpt lat="50.2495567" lon="8.2469579">
				<ele>315.7</ele>
				<time>2026-08-23T08:26:40.000Z</time>
			</trkpt>
			<trkpt lat="50.2492487" lon="8.2468998">
				<ele>317.1</ele>
				<time>2026-08-23T08:26:43.000Z</time>
			</trkpt>
			<trkpt lat="50.2489511" lon="8.2468166">
				<ele>318.7</ele>
				<time>2026-08-23T08:26:46.000Z</time>
			</trkpt>
			<trkpt lat="50.2486174" lon="8.2467215">
				<ele>321.1</ele>
				<time>2026-08-23T08:26:49.000Z</time>
			</trkpt>
			<trkpt lat="50.2482767" lon="8.2466407">
				<ele>323.4</ele>
				<time>2026-08-23T08:26:52.000Z</time>
			</trkpt>
			<trkpt lat="50.2480424" lon="8.2465747">
				<ele>324.3</ele>
				<time>2026-08-23T08:26:54.000Z</time>
			</trkpt>
			<trkpt lat="50.2476476" lon="8.2464676">
				<ele>326.9</ele>
				<time>2026-08-23T08:26:57.000Z</time>
			</trkpt>
			<trkpt lat="50.2472179" lon="8.2463596">
				<ele>329.5</ele>
				<time>2026-08-23T08:27:00.000Z</time>
			</trkpt>
			<trkpt lat="50.2469008" lon="8.2462722">
				<ele>332.1</ele>
				<time>2026-08-23T08:27:02.000Z</time>
			</trkpt>
			<trkpt lat="50.2464246" lon="8.2461427">
				<ele>333.6</ele>
				<time>2026-08-23T08:27:05.000Z</time>
			</trkpt>
			<trkpt lat="50.2461011" lon="8.2460526">
				<ele>335.1</ele>
				<time>2026-08-23T08:27:07.000Z</time>
			</trkpt>
			<trkpt lat="50.2457814" lon="8.2459662">
				<ele>336.9</ele>
				<time>2026-08-23T08:27:09.000Z</time>
			</trkpt>
			<trkpt lat="50.2454625" lon="8.2458807">
				<ele>338.8</ele>
				<time>2026-08-23T08:27:11.000Z</time>
			</trkpt>
			<trkpt lat="50.2449671" lon="8.2457508">
				<ele>341</ele>
				<time>2026-08-23T08:27:14.000Z</time>
			</trkpt>
			<trkpt lat="50.2446357" lon="8.2456587">
				<ele>342.5</ele>
				<time>2026-08-23T08:27:16.000Z</time>
			</trkpt>
			<trkpt lat="50.2441359" lon="8.2455605">
				<ele>345.3</ele>
				<time>2026-08-23T08:27:19.000Z</time>
			</trkpt>
			<trkpt lat="50.2436172" lon="8.2455056">
				<ele>347.5</ele>
				<time>2026-08-23T08:27:22.000Z</time>
			</trkpt>
			<trkpt lat="50.2432755" lon="8.2454818">
				<ele>348.8</ele>
				<time>2026-08-23T08:27:24.000Z</time>
			</trkpt>
			<trkpt lat="50.24281" lon="8.245476">
				<ele>349.6</ele>
				<time>2026-08-23T08:27:27.000Z</time>
			</trkpt>
			<trkpt lat="50.2425198" lon="8.2454877">
				<ele>349.7</ele>
				<time>2026-08-23T08:27:29.000Z</time>
			</trkpt>
			<trkpt lat="50.2420882" lon="8.2454926">
				<ele>351.3</ele>
				<time>2026-08-23T08:27:32.000Z</time>
			</trkpt>
			<trkpt lat="50.2418198" lon="8.2455086">
				<ele>352.3</ele>
				<time>2026-08-23T08:27:34.000Z</time>
			</trkpt>
			<trkpt lat="50.2415395" lon="8.2455135">
				<ele>352.9</ele>
				<time>2026-08-23T08:27:37.000Z</time>
			</trkpt>
			<trkpt lat="50.2413946" lon="8.2455155">
				<ele>353.2</ele>
				<time>2026-08-23T08:27:39.000Z</time>
			</trkpt>
			<trkpt lat="50.2411863" lon="8.245513">
				<ele>353.8</ele>
				<time>2026-08-23T08:27:42.000Z</time>
			</trkpt>
			<trkpt lat="50.2409418" lon="8.2455211">
				<ele>354.5</ele>
				<time>2026-08-23T08:27:45.000Z</time>
			</trkpt>
			<trkpt lat="50.2407055" lon="8.2455362">
				<ele>354.7</ele>
				<time>2026-08-23T08:27:48.000Z</time>
			</trkpt>
			<trkpt lat="50.2404242" lon="8.2455516">
				<ele>355.5</ele>
				<time>2026-08-23T08:27:51.000Z</time>
			</trkpt>
			<trkpt lat="50.2402036" lon="8.2455637">
				<ele>356</ele>
				<time>2026-08-23T08:27:53.000Z</time>
			</trkpt>
			<trkpt lat="50.2398394" lon="8.2455723">
				<ele>356.6</ele>
				<time>2026-08-23T08:27:56.000Z</time>
			</trkpt>
			<trkpt lat="50.2394454" lon="8.2455788">
				<ele>356.7</ele>
				<time>2026-08-23T08:27:59.000Z</time>
			</trkpt>
			<trkpt lat="50.2390431" lon="8.2455825">
				<ele>358.1</ele>
				<time>2026-08-23T08:28:02.000Z</time>
			</trkpt>
			<trkpt lat="50.2387611" lon="8.2455864">
				<ele>358.9</ele>
				<time>2026-08-23T08:28:04.000Z</time>
			</trkpt>
			<trkpt lat="50.238313" lon="8.2455997">
				<ele>360</ele>
				<time>2026-08-23T08:28:07.000Z</time>
			</trkpt>
			<trkpt lat="50.2378303" lon="8.2456327">
				<ele>361.2</ele>
				<time>2026-08-23T08:28:10.000Z</time>
			</trkpt>
			<trkpt lat="50.2375066" lon="8.2456706">
				<ele>362.2</ele>
				<time>2026-08-23T08:28:12.000Z</time>
			</trkpt>
			<trkpt lat="50.2371926" lon="8.2457153">
				<ele>362.3</ele>
				<time>2026-08-23T08:28:14.000Z</time>
			</trkpt>
			<trkpt lat="50.2367225" lon="8.245835">
				<ele>363.9</ele>
				<time>2026-08-23T08:28:17.000Z</time>
			</trkpt>
			<trkpt lat="50.2362366" lon="8.245998">
				<ele>365.5</ele>
				<time>2026-08-23T08:28:20.000Z</time>
			</trkpt>
			<trkpt lat="50.2357394" lon="8.2462188">
				<ele>366.5</ele>
				<time>2026-08-23T08:28:23.000Z</time>
			</trkpt>
			<trkpt lat="50.2352676" lon="8.2464679">
				<ele>367.6</ele>
				<time>2026-08-23T08:28:26.000Z</time>
			</trkpt>
			<trkpt lat="50.2348138" lon="8.2467456">
				<ele>367.9</ele>
				<time>2026-08-23T08:28:29.000Z</time>
			</trkpt>
			<trkpt lat="50.2343695" lon="8.2470213">
				<ele>369.1</ele>
				<time>2026-08-23T08:28:32.000Z</time>
			</trkpt>
			<trkpt lat="50.2340609" lon="8.2472081">
				<ele>369.6</ele>
				<time>2026-08-23T08:28:34.000Z</time>
			</trkpt>
			<trkpt lat="50.2335849" lon="8.2475008">
				<ele>369.5</ele>
				<time>2026-08-23T08:28:37.000Z</time>
			</trkpt>
			<trkpt lat="50.2332559" lon="8.2477062">
				<ele>370.6</ele>
				<time>2026-08-23T08:28:39.000Z</time>
			</trkpt>
			<trkpt lat="50.2329231" lon="8.2479087">
				<ele>370.9</ele>
				<time>2026-08-23T08:28:41.000Z</time>
			</trkpt>
			<trkpt lat="50.2324156" lon="8.2482254">
				<ele>371.1</ele>
				<time>2026-08-23T08:28:44.000Z</time>
			</trkpt>
			<trkpt lat="50.2320727" lon="8.2484381">
				<ele>370.9</ele>
				<time>2026-08-23T08:28:46.000Z</time>
			</trkpt>
			<trkpt lat="50.2316996" lon="8.2486498">
				<ele>371.6</ele>
				<time>2026-08-23T08:28:48.000Z</time>
			</trkpt>
			<trkpt lat="50.2311368" lon="8.2489084">
				<ele>372</ele>
				<time>2026-08-23T08:28:51.000Z</time>
			</trkpt>
			<trkpt lat="50.2307689" lon="8.2490435">
				<ele>372.1</ele>
				<time>2026-08-23T08:28:53.000Z</time>
			</trkpt>
			<trkpt lat="50.2302185" lon="8.2491989">
				<ele>372.1</ele>
				<time>2026-08-23T08:28:56.000Z</time>
			</trkpt>
			<trkpt lat="50.2298771" lon="8.2492781">
				<ele>371.9</ele>
				<time>2026-08-23T08:28:58.000Z</time>
			</trkpt>
			<trkpt lat="50.2294984" lon="8.2493717">
				<ele>372.2</ele>
				<time>2026-08-23T08:29:01.000Z</time>
			</trkpt>
			<trkpt lat="50.2291745" lon="8.249456">
				<ele>372.2</ele>
				<time>2026-08-23T08:29:04.000Z</time>
			</trkpt>
			<trkpt lat="50.2288629" lon="8.2495162">
				<ele>371.9</ele>
				<time>2026-08-23T08:29:07.000Z</time>
			</trkpt>
			<trkpt lat="50.2286396" lon="8.2495451">
				<ele>372.4</ele>
				<time>2026-08-23T08:29:09.000Z</time>
			</trkpt>
			<trkpt lat="50.2282949" lon="8.2496138">
				<ele>372</ele>
				<time>2026-08-23T08:29:12.000Z</time>
			</trkpt>
			<trkpt lat="50.2279233" lon="8.2497028">
				<ele>372.3</ele>
				<time>2026-08-23T08:29:15.000Z</time>
			</trkpt>
			<trkpt lat="50.2276811" lon="8.2497615">
				<ele>372.2</ele>
				<time>2026-08-23T08:29:17.000Z</time>
			</trkpt>
			<trkpt lat="50.2273211" lon="8.2498511">
				<ele>372.4</ele>
				<time>2026-08-23T08:29:20.000Z</time>
			</trkpt>
			<trkpt lat="50.2270665" lon="8.249911">
				<ele>372.8</ele>
				<time>2026-08-23T08:29:22.000Z</time>
			</trkpt>
			<trkpt lat="50.2266534" lon="8.2500151">
				<ele>372.7</ele>
				<time>2026-08-23T08:29:25.000Z</time>
			</trkpt>
			<trkpt lat="50.2263599" lon="8.2500904">
				<ele>372.6</ele>
				<time>2026-08-23T08:29:27.000Z</time>
			</trkpt>
			<trkpt lat="50.225896" lon="8.2502089">
				<ele>372.5</ele>
				<time>2026-08-23T08:29:30.000Z</time>
			</trkpt>
			<trkpt lat="50.2255881" lon="8.2502877">
				<ele>372.9</ele>
				<time>2026-08-23T08:29:32.000Z</time>
			</trkpt>
			<trkpt lat="50.225148" lon="8.2503943">
				<ele>373.5</ele>
				<time>2026-08-23T08:29:35.000Z</time>
			</trkpt>
			<trkpt lat="50.2247356" lon="8.2504976">
				<ele>374.1</ele>
				<time>2026-08-23T08:29:38.000Z</time>
			</trkpt>
			<trkpt lat="50.2243356" lon="8.2505946">
				<ele>375.3</ele>
				<time>2026-08-23T08:29:41.000Z</time>
			</trkpt>
			<trkpt lat="50.2239259" lon="8.2506982">
				<ele>376.3</ele>
				<time>2026-08-23T08:29:44.000Z</time>
			</trkpt>
			<trkpt lat="50.2236558" lon="8.2507623">
				<ele>377</ele>
				<time>2026-08-23T08:29:46.000Z</time>
			</trkpt>
			<trkpt lat="50.2232679" lon="8.2508484">
				<ele>377.8</ele>
				<time>2026-08-23T08:29:49.000Z</time>
			</trkpt>
			<trkpt lat="50.2230238" lon="8.2508996">
				<ele>378.5</ele>
				<time>2026-08-23T08:29:51.000Z</time>
			</trkpt>
			<trkpt lat="50.2226938" lon="8.2509517">
				<ele>379.8</ele>
				<time>2026-08-23T08:29:54.000Z</time>
			</trkpt>
			<trkpt lat="50.2223908" lon="8.2509826">
				<ele>381.4</ele>
				<time>2026-08-23T08:29:57.000Z</time>
			</trkpt>
			<trkpt lat="50.2221858" lon="8.2509878">
				<ele>382.5</ele>
				<time>2026-08-23T08:29:59.000Z</time>
			</trkpt>
			<trkpt lat="50.2218971" lon="8.2509868">
				<ele>384.2</ele>
				<time>2026-08-23T08:30:02.000Z</time>
			</trkpt>
			<trkpt lat="50.2216156" lon="8.250978">
				<ele>386.9</ele>
				<time>2026-08-23T08:30:05.000Z</time>
			</trkpt>
			<trkpt lat="50.2214419" lon="8.2509644">
				<ele>387.9</ele>
				<time>2026-08-23T08:30:07.000Z</time>
			</trkpt>
			<trkpt lat="50.2211825" lon="8.2509308">
				<ele>389.3</ele>
				<time>2026-08-23T08:30:10.000Z</time>
			</trkpt>
			<trkpt lat="50.220997" lon="8.2509025">
				<ele>391.6</ele>
				<time>2026-08-23T08:30:12.000Z</time>
			</trkpt>
			<trkpt lat="50.2207459" lon="8.2508344">
				<ele>390.7</ele>
				<time>2026-08-23T08:30:15.000Z</time>
			</trkpt>
			<trkpt lat="50.2204549" lon="8.2507706">
				<ele>393.6</ele>
				<time>2026-08-23T08:30:18.000Z</time>
			</trkpt>
			<trkpt lat="50.2201846" lon="8.2507092">
				<ele>396.1</ele>
				<time>2026-08-23T08:30:21.000Z</time>
			</trkpt>
			<trkpt lat="50.2200008" lon="8.2506651">
				<ele>397.5</ele>
				<time>2026-08-23T08:30:23.000Z</time>
			</trkpt>
			<trkpt lat="50.219717" lon="8.2506046">
				<ele>399.4</ele>
				<time>2026-08-23T08:30:26.000Z</time>
			</trkpt>
			<trkpt lat="50.2195283" lon="8.2505616">
				<ele>400.8</ele>
				<time>2026-08-23T08:30:28.000Z</time>
			</trkpt>
			<trkpt lat="50.2193214" lon="8.2505138">
				<ele>401.8</ele>
				<time>2026-08-23T08:30:30.000Z</time>
			</trkpt>
			<trkpt lat="50.2189861" lon="8.2504373">
				<ele>403.6</ele>
				<time>2026-08-23T08:30:33.000Z</time>
			</trkpt>
			<trkpt lat="50.2186271" lon="8.2503605">
				<ele>405.4</ele>
				<time>2026-08-23T08:30:36.000Z</time>
			</trkpt>
			<trkpt lat="50.2182415" lon="8.2502666">
				<ele>406.8</ele>
				<time>2026-08-23T08:30:39.000Z</time>
			</trkpt>
			<trkpt lat="50.2179826" lon="8.2502086">
				<ele>408</ele>
				<time>2026-08-23T08:30:41.000Z</time>
			</trkpt>
			<trkpt lat="50.2177184" lon="8.2501438">
				<ele>408.9</ele>
				<time>2026-08-23T08:30:43.000Z</time>
			</trkpt>
			<trkpt lat="50.2172859" lon="8.2500462">
				<ele>410.5</ele>
				<time>2026-08-23T08:30:46.000Z</time>
			</trkpt>
			<trkpt lat="50.2168291" lon="8.249953">
				<ele>410.8</ele>
				<time>2026-08-23T08:30:49.000Z</time>
			</trkpt>
			<trkpt lat="50.2163401" lon="8.2498903">
				<ele>410.9</ele>
				<time>2026-08-23T08:30:52.000Z</time>
			</trkpt>
			<trkpt lat="50.2159981" lon="8.2498648">
				<ele>410.9</ele>
				<time>2026-08-23T08:30:54.000Z</time>
			</trkpt>
			<trkpt lat="50.215466" lon="8.2498834">
				<ele>411.1</ele>
				<time>2026-08-23T08:30:57.000Z</time>
			</trkpt>
			<trkpt lat="50.2150977" lon="8.2499196">
				<ele>411.2</ele>
				<time>2026-08-23T08:30:59.000Z</time>
			</trkpt>
			<trkpt lat="50.2147154" lon="8.2499841">
				<ele>411</ele>
				<time>2026-08-23T08:31:01.000Z</time>
			</trkpt>
			<trkpt lat="50.2141194" lon="8.2501198">
				<ele>410.4</ele>
				<time>2026-08-23T08:31:04.000Z</time>
			</trkpt>
			<trkpt lat="50.2137194" lon="8.2502373">
				<ele>410.4</ele>
				<time>2026-08-23T08:31:06.000Z</time>
			</trkpt>
			<trkpt lat="50.2130951" lon="8.250409">
				<ele>409.8</ele>
				<time>2026-08-23T08:31:09.000Z</time>
			</trkpt>
			<trkpt lat="50.212665" lon="8.2505208">
				<ele>409.9</ele>
				<time>2026-08-23T08:31:11.000Z</time>
			</trkpt>
			<trkpt lat="50.2122372" lon="8.2506287">
				<ele>410.1</ele>
				<time>2026-08-23T08:31:13.000Z</time>
			</trkpt>
			<trkpt lat="50.2115852" lon="8.2507839">
				<ele>410</ele>
				<time>2026-08-23T08:31:16.000Z</time>
			</trkpt>
			<trkpt lat="50.2109123" lon="8.2509501">
				<ele>410</ele>
				<time>2026-08-23T08:31:19.000Z</time>
			</trkpt>
			<trkpt lat="50.2102165" lon="8.2511148">
				<ele>410.6</ele>
				<time>2026-08-23T08:31:22.000Z</time>
			</trkpt>
			<trkpt lat="50.2094887" lon="8.2512925">
				<ele>411.8</ele>
				<time>2026-08-23T08:31:25.000Z</time>
			</trkpt>
			<trkpt lat="50.2087669" lon="8.2514746">
				<ele>414.9</ele>
				<time>2026-08-23T08:31:28.000Z</time>
			</trkpt>
			<trkpt lat="50.2082957" lon="8.2515934">
				<ele>417.1</ele>
				<time>2026-08-23T08:31:30.000Z</time>
			</trkpt>
			<trkpt lat="50.2075832" lon="8.2517695">
				<ele>419.5</ele>
				<time>2026-08-23T08:31:33.000Z</time>
			</trkpt>
			<trkpt lat="50.2071092" lon="8.2519019">
				<ele>420.4</ele>
				<time>2026-08-23T08:31:35.000Z</time>
			</trkpt>
			<trkpt lat="50.2066365" lon="8.2520337">
				<ele>421</ele>
				<time>2026-08-23T08:31:37.000Z</time>
			</trkpt>
			<trkpt lat="50.2059474" lon="8.25225">
				<ele>421.6</ele>
				<time>2026-08-23T08:31:40.000Z</time>
			</trkpt>
			<trkpt lat="50.2052842" lon="8.2524735">
				<ele>421</ele>
				<time>2026-08-23T08:31:43.000Z</time>
			</trkpt>
			<trkpt lat="50.2046047" lon="8.2527184">
				<ele>420.2</ele>
				<time>2026-08-23T08:31:46.000Z</time>
			</trkpt>
			<trkpt lat="50.2041619" lon="8.2528874">
				<ele>420</ele>
				<time>2026-08-23T08:31:48.000Z</time>
			</trkpt>
			<trkpt lat="50.2037467" lon="8.2530558">
				<ele>418.5</ele>
				<time>2026-08-23T08:31:50.000Z</time>
			</trkpt>
			<trkpt lat="50.203183" lon="8.2532936">
				<ele>417.5</ele>
				<time>2026-08-23T08:31:53.000Z</time>
			</trkpt>
			<trkpt lat="50.2028319" lon="8.2534408">
				<ele>416.1</ele>
				<time>2026-08-23T08:31:55.000Z</time>
			</trkpt>
			<trkpt lat="50.2024668" lon="8.2536039">
				<ele>415.1</ele>
				<time>2026-08-23T08:31:57.000Z</time>
			</trkpt>
			<trkpt lat="50.2019173" lon="8.2538686">
				<ele>412.6</ele>
				<time>2026-08-23T08:32:00.000Z</time>
			</trkpt>
			<trkpt lat="50.2013586" lon="8.2541398">
				<ele>410.3</ele>
				<time>2026-08-23T08:32:03.000Z</time>
			</trkpt>
			<trkpt lat="50.2009858" lon="8.2543333">
				<ele>408.2</ele>
				<time>2026-08-23T08:32:05.000Z</time>
			</trkpt>
			<trkpt lat="50.200393" lon="8.2546516">
				<ele>406.4</ele>
				<time>2026-08-23T08:32:08.000Z</time>
			</trkpt>
			<trkpt lat="50.1997932" lon="8.254975">
				<ele>404.2</ele>
				<time>2026-08-23T08:32:11.000Z</time>
			</trkpt>
			<trkpt lat="50.1993873" lon="8.2552045">
				<ele>403.1</ele>
				<time>2026-08-23T08:32:13.000Z</time>
			</trkpt>
			<trkpt lat="50.1989877" lon="8.2554322">
				<ele>402</ele>
				<time>2026-08-23T08:32:15.000Z</time>
			</trkpt>
			<trkpt lat="50.1984487" lon="8.2557644">
				<ele>401.3</ele>
				<time>2026-08-23T08:32:18.000Z</time>
			</trkpt>
			<trkpt lat="50.197918" lon="8.2561087">
				<ele>401.4</ele>
				<time>2026-08-23T08:32:21.000Z</time>
			</trkpt>
			<trkpt lat="50.1975672" lon="8.2563328">
				<ele>401.3</ele>
				<time>2026-08-23T08:32:23.000Z</time>
			</trkpt>
			<trkpt lat="50.1970562" lon="8.2566734">
				<ele>401.4</ele>
				<time>2026-08-23T08:32:26.000Z</time>
			</trkpt>
			<trkpt lat="50.196719" lon="8.2569046">
				<ele>401.4</ele>
				<time>2026-08-23T08:32:28.000Z</time>
			</trkpt>
			<trkpt lat="50.19623" lon="8.2572472">
				<ele>401.4</ele>
				<time>2026-08-23T08:32:31.000Z</time>
			</trkpt>
			<trkpt lat="50.1957706" lon="8.2575933">
				<ele>401.6</ele>
				<time>2026-08-23T08:32:34.000Z</time>
			</trkpt>
			<trkpt lat="50.1953208" lon="8.2579245">
				<ele>401.9</ele>
				<time>2026-08-23T08:32:37.000Z</time>
			</trkpt>
			<trkpt lat="50.1950319" lon="8.2581417">
				<ele>402</ele>
				<time>2026-08-23T08:32:39.000Z</time>
			</trkpt>
			<trkpt lat="50.1946171" lon="8.2584602">
				<ele>402.2</ele>
				<time>2026-08-23T08:32:42.000Z</time>
			</trkpt>
			<trkpt lat="50.1943609" lon="8.2586701">
				<ele>402.5</ele>
				<time>2026-08-23T08:32:44.000Z</time>
			</trkpt>
			<trkpt lat="50.1939965" lon="8.2589703">
				<ele>402.8</ele>
				<time>2026-08-23T08:32:47.000Z</time>
			</trkpt>
			<trkpt lat="50.1937632" lon="8.2591634">
				<ele>402.6</ele>
				<time>2026-08-23T08:32:49.000Z</time>
			</trkpt>
			<trkpt lat="50.1934119" lon="8.2594618">
				<ele>403.3</ele>
				<time>2026-08-23T08:32:52.000Z</time>
			</trkpt>
			<trkpt lat="50.1930394" lon="8.2597923">
				<ele>404.6</ele>
				<time>2026-08-23T08:32:55.000Z</time>
			</trkpt>
			<trkpt lat="50.1927742" lon="8.2600189">
				<ele>404.1</ele>
				<time>2026-08-23T08:32:57.000Z</time>
			</trkpt>
			<trkpt lat="50.1923584" lon="8.2603956">
				<ele>404.5</ele>
				<time>2026-08-23T08:33:00.000Z</time>
			</trkpt>
			<trkpt lat="50.1919147" lon="8.2608031">
				<ele>404.7</ele>
				<time>2026-08-23T08:33:03.000Z</time>
			</trkpt>
			<trkpt lat="50.1916022" lon="8.2610912">
				<ele>404.5</ele>
				<time>2026-08-23T08:33:05.000Z</time>
			</trkpt>
			<trkpt lat="50.1911129" lon="8.2615421">
				<ele>404.5</ele>
				<time>2026-08-23T08:33:08.000Z</time>
			</trkpt>
			<trkpt lat="50.1907741" lon="8.2618532">
				<ele>404.9</ele>
				<time>2026-08-23T08:33:10.000Z</time>
			</trkpt>
			<trkpt lat="50.1904253" lon="8.2621772">
				<ele>405.1</ele>
				<time>2026-08-23T08:33:12.000Z</time>
			</trkpt>
			<trkpt lat="50.190063" lon="8.2625193">
				<ele>405.1</ele>
				<time>2026-08-23T08:33:14.000Z</time>
			</trkpt>
			<trkpt lat="50.1894882" lon="8.2630385">
				<ele>405.9</ele>
				<time>2026-08-23T08:33:17.000Z</time>
			</trkpt>
			<trkpt lat="50.189095" lon="8.2633911">
				<ele>405.7</ele>
				<time>2026-08-23T08:33:19.000Z</time>
			</trkpt>
			<trkpt lat="50.1885137" lon="8.2639256">
				<ele>406.2</ele>
				<time>2026-08-23T08:33:22.000Z</time>
			</trkpt>
			<trkpt lat="50.1879457" lon="8.2644255">
				<ele>406.3</ele>
				<time>2026-08-23T08:33:25.000Z</time>
			</trkpt>
			<trkpt lat="50.1873731" lon="8.2648922">
				<ele>406.7</ele>
				<time>2026-08-23T08:33:28.000Z</time>
			</trkpt>
			<trkpt lat="50.1867821" lon="8.2653264">
				<ele>407.7</ele>
				<time>2026-08-23T08:33:31.000Z</time>
			</trkpt>
			<trkpt lat="50.1863651" lon="8.2656144">
				<ele>407.7</ele>
				<time>2026-08-23T08:33:33.000Z</time>
			</trkpt>
			<trkpt lat="50.1857196" lon="8.266033">
				<ele>408.4</ele>
				<time>2026-08-23T08:33:36.000Z</time>
			</trkpt>
			<trkpt lat="50.185269" lon="8.2662859">
				<ele>409.2</ele>
				<time>2026-08-23T08:33:38.000Z</time>
			</trkpt>
			<trkpt lat="50.1845847" lon="8.2666285">
				<ele>409.6</ele>
				<time>2026-08-23T08:33:41.000Z</time>
			</trkpt>
			<trkpt lat="50.1838998" lon="8.2669439">
				<ele>410.2</ele>
				<time>2026-08-23T08:33:44.000Z</time>
			</trkpt>
			<trkpt lat="50.18345" lon="8.2671503">
				<ele>410.8</ele>
				<time>2026-08-23T08:33:46.000Z</time>
			</trkpt>
			<trkpt lat="50.1828009" lon="8.2674654">
				<ele>410.6</ele>
				<time>2026-08-23T08:33:49.000Z</time>
			</trkpt>
			<trkpt lat="50.1821609" lon="8.2678316">
				<ele>411.6</ele>
				<time>2026-08-23T08:33:52.000Z</time>
			</trkpt>
			<trkpt lat="50.1817479" lon="8.2681056">
				<ele>411.5</ele>
				<time>2026-08-23T08:33:54.000Z</time>
			</trkpt>
			<trkpt lat="50.1811309" lon="8.268593">
				<ele>411.4</ele>
				<time>2026-08-23T08:33:57.000Z</time>
			</trkpt>
			<trkpt lat="50.1807127" lon="8.2689562">
				<ele>411.2</ele>
				<time>2026-08-23T08:33:59.000Z</time>
			</trkpt>
			<trkpt lat="50.1800956" lon="8.2695726">
				<ele>410</ele>
				<time>2026-08-23T08:34:02.000Z</time>
			</trkpt>
			<trkpt lat="50.1794827" lon="8.2702764">
				<ele>409</ele>
				<time>2026-08-23T08:34:05.000Z</time>
			</trkpt>
			<trkpt lat="50.1788871" lon="8.2710787">
				<ele>406.8</ele>
				<time>2026-08-23T08:34:08.000Z</time>
			</trkpt>
			<trkpt lat="50.1785187" lon="8.2716388">
				<ele>402.8</ele>
				<time>2026-08-23T08:34:10.000Z</time>
			</trkpt>
			<trkpt lat="50.177987" lon="8.2725493">
				<ele>398.8</ele>
				<time>2026-08-23T08:34:13.000Z</time>
			</trkpt>
			<trkpt lat="50.1774866" lon="8.2735246">
				<ele>399.8</ele>
				<time>2026-08-23T08:34:16.000Z</time>
			</trkpt>
			<trkpt lat="50.1771855" lon="8.2741993">
				<ele>399.2</ele>
				<time>2026-08-23T08:34:18.000Z</time>
			</trkpt>
			<trkpt lat="50.1769024" lon="8.2749">
				<ele>400.5</ele>
				<time>2026-08-23T08:34:20.000Z</time>
			</trkpt>
			<trkpt lat="50.176509" lon="8.2759489">
				<ele>403.5</ele>
				<time>2026-08-23T08:34:23.000Z</time>
			</trkpt>
			<trkpt lat="50.1761024" lon="8.276957">
				<ele>405.3</ele>
				<time>2026-08-23T08:34:26.000Z</time>
			</trkpt>
			<trkpt lat="50.175836" lon="8.2776402">
				<ele>406.4</ele>
				<time>2026-08-23T08:34:28.000Z</time>
			</trkpt>
			<trkpt lat="50.1754433" lon="8.2786945">
				<ele>408</ele>
				<time>2026-08-23T08:34:31.000Z</time>
			</trkpt>
			<trkpt lat="50.175045" lon="8.2797702">
				<ele>409.3</ele>
				<time>2026-08-23T08:34:34.000Z</time>
			</trkpt>
			<trkpt lat="50.1747799" lon="8.2804878">
				<ele>409.6</ele>
				<time>2026-08-23T08:34:36.000Z</time>
			</trkpt>
			<trkpt lat="50.1745151" lon="8.2812141">
				<ele>409.9</ele>
				<time>2026-08-23T08:34:38.000Z</time>
			</trkpt>
			<trkpt lat="50.1741243" lon="8.2822772">
				<ele>409.2</ele>
				<time>2026-08-23T08:34:41.000Z</time>
			</trkpt>
			<trkpt lat="50.1737506" lon="8.2833093">
				<ele>409.1</ele>
				<time>2026-08-23T08:34:44.000Z</time>
			</trkpt>
			<trkpt lat="50.173368" lon="8.2843334">
				<ele>408.3</ele>
				<time>2026-08-23T08:34:47.000Z</time>
			</trkpt>
			<trkpt lat="50.1731237" lon="8.285026">
				<ele>410.7</ele>
				<time>2026-08-23T08:34:49.000Z</time>
			</trkpt>
			<trkpt lat="50.1727581" lon="8.2860368">
				<ele>409.7</ele>
				<time>2026-08-23T08:34:52.000Z</time>
			</trkpt>
			<trkpt lat="50.1725053" lon="8.2866987">
				<ele>410.3</ele>
				<time>2026-08-23T08:34:54.000Z</time>
			</trkpt>
			<trkpt lat="50.1720862" lon="8.2876855">
				<ele>409.8</ele>
				<time>2026-08-23T08:34:57.000Z</time>
			</trkpt>
			<trkpt lat="50.1716382" lon="8.2886316">
				<ele>409.8</ele>
				<time>2026-08-23T08:35:00.000Z</time>
			</trkpt>
			<trkpt lat="50.1711332" lon="8.2895499">
				<ele>408.5</ele>
				<time>2026-08-23T08:35:03.000Z</time>
			</trkpt>
			<trkpt lat="50.1707836" lon="8.2901394">
				<ele>407.9</ele>
				<time>2026-08-23T08:35:05.000Z</time>
			</trkpt>
			<trkpt lat="50.1702294" lon="8.2909817">
				<ele>407.7</ele>
				<time>2026-08-23T08:35:08.000Z</time>
			</trkpt>
			<trkpt lat="50.1698363" lon="8.2915132">
				<ele>406.8</ele>
				<time>2026-08-23T08:35:10.000Z</time>
			</trkpt>
			<trkpt lat="50.1692202" lon="8.2922732">
				<ele>405.5</ele>
				<time>2026-08-23T08:35:13.000Z</time>
			</trkpt>
			<trkpt lat="50.1687937" lon="8.292747">
				<ele>404.3</ele>
				<time>2026-08-23T08:35:15.000Z</time>
			</trkpt>
			<trkpt lat="50.1683642" lon="8.2931914">
				<ele>403</ele>
				<time>2026-08-23T08:35:17.000Z</time>
			</trkpt>
			<trkpt lat="50.1679367" lon="8.2935898">
				<ele>401.8</ele>
				<time>2026-08-23T08:35:19.000Z</time>
			</trkpt>
			<trkpt lat="50.1672658" lon="8.2941584">
				<ele>399.5</ele>
				<time>2026-08-23T08:35:22.000Z</time>
			</trkpt>
			<trkpt lat="50.1668066" lon="8.2945327">
				<ele>398.6</ele>
				<time>2026-08-23T08:35:24.000Z</time>
			</trkpt>
			<trkpt lat="50.1661235" lon="8.2950958">
				<ele>396.7</ele>
				<time>2026-08-23T08:35:27.000Z</time>
			</trkpt>
			<trkpt lat="50.1654631" lon="8.2956852">
				<ele>394.3</ele>
				<time>2026-08-23T08:35:30.000Z</time>
			</trkpt>
			<trkpt lat="50.1648284" lon="8.2963198">
				<ele>391.2</ele>
				<time>2026-08-23T08:35:33.000Z</time>
			</trkpt>
			<trkpt lat="50.1644179" lon="8.2967786">
				<ele>389.7</ele>
				<time>2026-08-23T08:35:35.000Z</time>
			</trkpt>
			<trkpt lat="50.1638036" lon="8.2975372">
				<ele>388.6</ele>
				<time>2026-08-23T08:35:38.000Z</time>
			</trkpt>
			<trkpt lat="50.1632006" lon="8.2983809">
				<ele>387.4</ele>
				<time>2026-08-23T08:35:41.000Z</time>
			</trkpt>
			<trkpt lat="50.1626277" lon="8.2992353">
				<ele>382.4</ele>
				<time>2026-08-23T08:35:44.000Z</time>
			</trkpt>
			<trkpt lat="50.162281" lon="8.2997856">
				<ele>376.9</ele>
				<time>2026-08-23T08:35:46.000Z</time>
			</trkpt>
			<trkpt lat="50.1616893" lon="8.3006821">
				<ele>374</ele>
				<time>2026-08-23T08:35:49.000Z</time>
			</trkpt>
			<trkpt lat="50.1611066" lon="8.3015147">
				<ele>372.5</ele>
				<time>2026-08-23T08:35:52.000Z</time>
			</trkpt>
			<trkpt lat="50.1604915" lon="8.3023047">
				<ele>371.6</ele>
				<time>2026-08-23T08:35:55.000Z</time>
			</trkpt>
			<trkpt lat="50.1600642" lon="8.3027949">
				<ele>371.5</ele>
				<time>2026-08-23T08:35:57.000Z</time>
			</trkpt>
			<trkpt lat="50.159401" lon="8.3034834">
				<ele>372.3</ele>
				<time>2026-08-23T08:36:00.000Z</time>
			</trkpt>
			<trkpt lat="50.1589437" lon="8.3039217">
				<ele>372.6</ele>
				<time>2026-08-23T08:36:02.000Z</time>
			</trkpt>
			<trkpt lat="50.1582608" lon="8.304555">
				<ele>373</ele>
				<time>2026-08-23T08:36:05.000Z</time>
			</trkpt>
			<trkpt lat="50.1578102" lon="8.3049782">
				<ele>373.3</ele>
				<time>2026-08-23T08:36:07.000Z</time>
			</trkpt>
			<trkpt lat="50.1573688" lon="8.3053989">
				<ele>373.8</ele>
				<time>2026-08-23T08:36:09.000Z</time>
			</trkpt>
			<trkpt lat="50.156933" lon="8.3058">
				<ele>373.8</ele>
				<time>2026-08-23T08:36:11.000Z</time>
			</trkpt>
			<trkpt lat="50.156316" lon="8.3063716">
				<ele>372.8</ele>
				<time>2026-08-23T08:36:14.000Z</time>
			</trkpt>
			<trkpt lat="50.1558967" lon="8.3067591">
				<ele>372.9</ele>
				<time>2026-08-23T08:36:16.000Z</time>
			</trkpt>
			<trkpt lat="50.155271" lon="8.3073433">
				<ele>373.3</ele>
				<time>2026-08-23T08:36:19.000Z</time>
			</trkpt>
			<trkpt lat="50.1546424" lon="8.3079276">
				<ele>373.5</ele>
				<time>2026-08-23T08:36:22.000Z</time>
			</trkpt>
			<trkpt lat="50.1542277" lon="8.3083118">
				<ele>374</ele>
				<time>2026-08-23T08:36:24.000Z</time>
			</trkpt>
			<trkpt lat="50.1538285" lon="8.3086898">
				<ele>374.4</ele>
				<time>2026-08-23T08:36:26.000Z</time>
			</trkpt>
			<trkpt lat="50.1532544" lon="8.309236">
				<ele>374.9</ele>
				<time>2026-08-23T08:36:29.000Z</time>
			</trkpt>
			<trkpt lat="50.1528779" lon="8.3095972">
				<ele>375.7</ele>
				<time>2026-08-23T08:36:31.000Z</time>
			</trkpt>
			<trkpt lat="50.1523331" lon="8.310165">
				<ele>376.8</ele>
				<time>2026-08-23T08:36:34.000Z</time>
			</trkpt>
			<trkpt lat="50.1519875" lon="8.3105759">
				<ele>377.6</ele>
				<time>2026-08-23T08:36:36.000Z</time>
			</trkpt>
			<trkpt lat="50.1514807" lon="8.3112644">
				<ele>378.5</ele>
				<time>2026-08-23T08:36:39.000Z</time>
			</trkpt>
			<trkpt lat="50.1509959" lon="8.3120385">
				<ele>380.8</ele>
				<time>2026-08-23T08:36:42.000Z</time>
			</trkpt>
			<trkpt lat="50.1505511" lon="8.3129265">
				<ele>382.6</ele>
				<time>2026-08-23T08:36:45.000Z</time>
			</trkpt>
			<trkpt lat="50.1501813" lon="8.3139157">
				<ele>384.5</ele>
				<time>2026-08-23T08:36:48.000Z</time>
			</trkpt>
			<trkpt lat="50.1499786" lon="8.3146344">
				<ele>385.1</ele>
				<time>2026-08-23T08:36:50.000Z</time>
			</trkpt>
			<trkpt lat="50.1497486" lon="8.3157626">
				<ele>386.8</ele>
				<time>2026-08-23T08:36:53.000Z</time>
			</trkpt>
			<trkpt lat="50.1496042" lon="8.316918">
				<ele>388.2</ele>
				<time>2026-08-23T08:36:56.000Z</time>
			</trkpt>
			<trkpt lat="50.1494578" lon="8.3180497">
				<ele>388.3</ele>
				<time>2026-08-23T08:36:59.000Z</time>
			</trkpt>
			<trkpt lat="50.1493588" lon="8.3187745">
				<ele>387.2</ele>
				<time>2026-08-23T08:37:01.000Z</time>
			</trkpt>
			<trkpt lat="50.1492403" lon="8.3194731">
				<ele>384.5</ele>
				<time>2026-08-23T08:37:03.000Z</time>
			</trkpt>
			<trkpt lat="50.1489633" lon="8.3205308">
				<ele>382.2</ele>
				<time>2026-08-23T08:37:06.000Z</time>
			</trkpt>
			<trkpt lat="50.1487334" lon="8.3211953">
				<ele>381</ele>
				<time>2026-08-23T08:37:08.000Z</time>
			</trkpt>
			<trkpt lat="50.1483104" lon="8.3221368">
				<ele>378.6</ele>
				<time>2026-08-23T08:37:11.000Z</time>
			</trkpt>
			<trkpt lat="50.1478139" lon="8.3229548">
				<ele>371.7</ele>
				<time>2026-08-23T08:37:14.000Z</time>
			</trkpt>
			<trkpt lat="50.1474372" lon="8.3234655">
				<ele>368.7</ele>
				<time>2026-08-23T08:37:16.000Z</time>
			</trkpt>
			<trkpt lat="50.1468124" lon="8.3241804">
				<ele>364.9</ele>
				<time>2026-08-23T08:37:19.000Z</time>
			</trkpt>
			<trkpt lat="50.1463819" lon="8.3246604">
				<ele>363.2</ele>
				<time>2026-08-23T08:37:21.000Z</time>
			</trkpt>
			<trkpt lat="50.145726" lon="8.3253985">
				<ele>362.6</ele>
				<time>2026-08-23T08:37:24.000Z</time>
			</trkpt>
			<trkpt lat="50.1452854" lon="8.3258966">
				<ele>362.5</ele>
				<time>2026-08-23T08:37:26.000Z</time>
			</trkpt>
			<trkpt lat="50.1448354" lon="8.3263953">
				<ele>362.1</ele>
				<time>2026-08-23T08:37:28.000Z</time>
			</trkpt>
			<trkpt lat="50.144143" lon="8.3271618">
				<ele>361.2</ele>
				<time>2026-08-23T08:37:31.000Z</time>
			</trkpt>
			<trkpt lat="50.1436895" lon="8.3276768">
				<ele>361.1</ele>
				<time>2026-08-23T08:37:33.000Z</time>
			</trkpt>
			<trkpt lat="50.1430194" lon="8.3284293">
				<ele>360.4</ele>
				<time>2026-08-23T08:37:36.000Z</time>
			</trkpt>
			<trkpt lat="50.1425696" lon="8.3289151">
				<ele>359.2</ele>
				<time>2026-08-23T08:37:38.000Z</time>
			</trkpt>
			<trkpt lat="50.1418593" lon="8.3295494">
				<ele>356.8</ele>
				<time>2026-08-23T08:37:41.000Z</time>
			</trkpt>
			<trkpt lat="50.1413576" lon="8.3299302">
				<ele>354.7</ele>
				<time>2026-08-23T08:37:43.000Z</time>
			</trkpt>
			<trkpt lat="50.1405855" lon="8.3304608">
				<ele>349.6</ele>
				<time>2026-08-23T08:37:46.000Z</time>
			</trkpt>
			<trkpt lat="50.1400825" lon="8.3308138">
				<ele>346.5</ele>
				<time>2026-08-23T08:37:48.000Z</time>
			</trkpt>
			<trkpt lat="50.1395735" lon="8.331171">
				<ele>343.4</ele>
				<time>2026-08-23T08:37:50.000Z</time>
			</trkpt>
			<trkpt lat="50.13906" lon="8.3315173">
				<ele>340.6</ele>
				<time>2026-08-23T08:37:52.000Z</time>
			</trkpt>
			<trkpt lat="50.1382914" lon="8.3320553">
				<ele>336.2</ele>
				<time>2026-08-23T08:37:55.000Z</time>
			</trkpt>
			<trkpt lat="50.1375532" lon="8.3325666">
				<ele>332.3</ele>
				<time>2026-08-23T08:37:58.000Z</time>
			</trkpt>
			<trkpt lat="50.1370662" lon="8.3329064">
				<ele>329.5</ele>
				<time>2026-08-23T08:38:00.000Z</time>
			</trkpt>
			<trkpt lat="50.1363322" lon="8.333421">
				<ele>325.9</ele>
				<time>2026-08-23T08:38:03.000Z</time>
			</trkpt>
			<trkpt lat="50.1358438" lon="8.333768">
				<ele>324.2</ele>
				<time>2026-08-23T08:38:05.000Z</time>
			</trkpt>
			<trkpt lat="50.1351261" lon="8.3342673">
				<ele>322.9</ele>
				<time>2026-08-23T08:38:08.000Z</time>
			</trkpt>
			<trkpt lat="50.1344291" lon="8.3347405">
				<ele>322.5</ele>
				<time>2026-08-23T08:38:11.000Z</time>
			</trkpt>
			<trkpt lat="50.1339769" lon="8.3350538">
				<ele>322.6</ele>
				<time>2026-08-23T08:38:13.000Z</time>
			</trkpt>
			<trkpt lat="50.1332989" lon="8.335521">
				<ele>322.3</ele>
				<time>2026-08-23T08:38:16.000Z</time>
			</trkpt>
			<trkpt lat="50.1328545" lon="8.3358257">
				<ele>321.6</ele>
				<time>2026-08-23T08:38:18.000Z</time>
			</trkpt>
			<trkpt lat="50.132177" lon="8.3363005">
				<ele>321</ele>
				<time>2026-08-23T08:38:21.000Z</time>
			</trkpt>
			<trkpt lat="50.131723" lon="8.3366226">
				<ele>320.7</ele>
				<time>2026-08-23T08:38:23.000Z</time>
			</trkpt>
			<trkpt lat="50.1310246" lon="8.3371116">
				<ele>320.3</ele>
				<time>2026-08-23T08:38:26.000Z</time>
			</trkpt>
			<trkpt lat="50.1303238" lon="8.3376001">
				<ele>319.4</ele>
				<time>2026-08-23T08:38:29.000Z</time>
			</trkpt>
			<trkpt lat="50.1296252" lon="8.3380906">
				<ele>320.2</ele>
				<time>2026-08-23T08:38:32.000Z</time>
			</trkpt>
			<trkpt lat="50.1289304" lon="8.3385832">
				<ele>319.5</ele>
				<time>2026-08-23T08:38:35.000Z</time>
			</trkpt>
			<trkpt lat="50.1284643" lon="8.3389209">
				<ele>318.7</ele>
				<time>2026-08-23T08:38:37.000Z</time>
			</trkpt>
			<trkpt lat="50.1277525" lon="8.3393925">
				<ele>317.3</ele>
				<time>2026-08-23T08:38:40.000Z</time>
			</trkpt>
			<trkpt lat="50.1270307" lon="8.3397786">
				<ele>315.7</ele>
				<time>2026-08-23T08:38:43.000Z</time>
			</trkpt>
			<trkpt lat="50.1263228" lon="8.3401013">
				<ele>313.6</ele>
				<time>2026-08-23T08:38:46.000Z</time>
			</trkpt>
			<trkpt lat="50.1256021" lon="8.3403903">
				<ele>310.4</ele>
				<time>2026-08-23T08:38:49.000Z</time>
			</trkpt>
			<trkpt lat="50.1248697" lon="8.340633">
				<ele>305.1</ele>
				<time>2026-08-23T08:38:52.000Z</time>
			</trkpt>
			<trkpt lat="50.1241177" lon="8.3408222">
				<ele>302.1</ele>
				<time>2026-08-23T08:38:55.000Z</time>
			</trkpt>
			<trkpt lat="50.123605" lon="8.3409254">
				<ele>301.5</ele>
				<time>2026-08-23T08:38:57.000Z</time>
			</trkpt>
			<trkpt lat="50.1228874" lon="8.3410347">
				<ele>300.4</ele>
				<time>2026-08-23T08:39:00.000Z</time>
			</trkpt>
			<trkpt lat="50.1221621" lon="8.3410981">
				<ele>299.6</ele>
				<time>2026-08-23T08:39:03.000Z</time>
			</trkpt>
			<trkpt lat="50.1214278" lon="8.3411162">
				<ele>300.3</ele>
				<time>2026-08-23T08:39:06.000Z</time>
			</trkpt>
			<trkpt lat="50.1209494" lon="8.3411276">
				<ele>300.4</ele>
				<time>2026-08-23T08:39:08.000Z</time>
			</trkpt>
			<trkpt lat="50.120229" lon="8.3411528">
				<ele>300.1</ele>
				<time>2026-08-23T08:39:11.000Z</time>
			</trkpt>
			<trkpt lat="50.1197624" lon="8.3411606">
				<ele>301.1</ele>
				<time>2026-08-23T08:39:13.000Z</time>
			</trkpt>
			<trkpt lat="50.1193008" lon="8.3411744">
				<ele>301</ele>
				<time>2026-08-23T08:39:15.000Z</time>
			</trkpt>
			<trkpt lat="50.118639" lon="8.3411994">
				<ele>300</ele>
				<time>2026-08-23T08:39:18.000Z</time>
			</trkpt>
			<trkpt lat="50.117963" lon="8.3412863">
				<ele>299</ele>
				<time>2026-08-23T08:39:21.000Z</time>
			</trkpt>
			<trkpt lat="50.1172602" lon="8.3414102">
				<ele>297.8</ele>
				<time>2026-08-23T08:39:24.000Z</time>
			</trkpt>
			<trkpt lat="50.1167948" lon="8.3415096">
				<ele>296.4</ele>
				<time>2026-08-23T08:39:26.000Z</time>
			</trkpt>
			<trkpt lat="50.1163314" lon="8.3416366">
				<ele>295</ele>
				<time>2026-08-23T08:39:28.000Z</time>
			</trkpt>
			<trkpt lat="50.1156503" lon="8.341846">
				<ele>291.6</ele>
				<time>2026-08-23T08:39:31.000Z</time>
			</trkpt>
			<trkpt lat="50.1149703" lon="8.3420948">
				<ele>289</ele>
				<time>2026-08-23T08:39:34.000Z</time>
			</trkpt>
			<trkpt lat="50.1142857" lon="8.342388">
				<ele>285.6</ele>
				<time>2026-08-23T08:39:37.000Z</time>
			</trkpt>
			<trkpt lat="50.1138255" lon="8.3426128">
				<ele>282.6</ele>
				<time>2026-08-23T08:39:39.000Z</time>
			</trkpt>
			<trkpt lat="50.1131424" lon="8.3429743">
				<ele>278.3</ele>
				<time>2026-08-23T08:39:42.000Z</time>
			</trkpt>
			<trkpt lat="50.1124586" lon="8.343354">
				<ele>274.5</ele>
				<time>2026-08-23T08:39:45.000Z</time>
			</trkpt>
			<trkpt lat="50.1117749" lon="8.3437363">
				<ele>270</ele>
				<time>2026-08-23T08:39:48.000Z</time>
			</trkpt>
			<trkpt lat="50.1111243" lon="8.3441024">
				<ele>267.9</ele>
				<time>2026-08-23T08:39:51.000Z</time>
			</trkpt>
			<trkpt lat="50.1106989" lon="8.344349">
				<ele>268.8</ele>
				<time>2026-08-23T08:39:53.000Z</time>
			</trkpt>
			<trkpt lat="50.1102896" lon="8.3445753">
				<ele>268.6</ele>
				<time>2026-08-23T08:39:55.000Z</time>
			</trkpt>
			<trkpt lat="50.1097951" lon="8.3448414">
				<ele>269.2</ele>
				<time>2026-08-23T08:39:58.000Z</time>
			</trkpt>
			<trkpt lat="50.1095077" lon="8.3449965">
				<ele>270.4</ele>
				<time>2026-08-23T08:40:00.000Z</time>
			</trkpt>
			<trkpt lat="50.1091204" lon="8.3452163">
				<ele>271.1</ele>
				<time>2026-08-23T08:40:03.000Z</time>
			</trkpt>
			<trkpt lat="50.1087724" lon="8.3454174">
				<ele>272.4</ele>
				<time>2026-08-23T08:40:06.000Z</time>
			</trkpt>
			<trkpt lat="50.1085825" lon="8.3455129">
				<ele>272.5</ele>
				<time>2026-08-23T08:40:08.000Z</time>
			</trkpt>
			<trkpt lat="50.1083962" lon="8.3456216">
				<ele>271</ele>
				<time>2026-08-23T08:40:11.000Z</time>
			</trkpt>
			<trkpt lat="50.1082943" lon="8.345678">
				<ele>271</ele>
				<time>2026-08-23T08:40:14.000Z</time>
			</trkpt>
			<trkpt lat="50.1082032" lon="8.3457388">
				<ele>271.1</ele>
				<time>2026-08-23T08:40:18.000Z</time>
			</trkpt>
			<trkpt lat="50.1080949" lon="8.3458058">
				<ele>272.7</ele>
				<time>2026-08-23T08:40:22.000Z</time>
			</trkpt>
			<trkpt lat="50.1080045" lon="8.3458586">
				<ele>272.9</ele>
				<time>2026-08-23T08:40:24.000Z</time>
			</trkpt>
			<trkpt lat="50.1078571" lon="8.3459393">
				<ele>273.1</ele>
				<time>2026-08-23T08:40:27.000Z</time>
			</trkpt>
			<trkpt lat="50.1076893" lon="8.346026">
				<ele>273</ele>
				<time>2026-08-23T08:40:30.000Z</time>
			</trkpt>
			<trkpt lat="50.1075486" lon="8.3461022">
				<ele>273.7</ele>
				<time>2026-08-23T08:40:32.000Z</time>
			</trkpt>
			<trkpt lat="50.1073109" lon="8.3462348">
				<ele>273.9</ele>
				<time>2026-08-23T08:40:35.000Z</time>
			</trkpt>
			<trkpt lat="50.1071456" lon="8.346318">
				<ele>273.9</ele>
				<time>2026-08-23T08:40:37.000Z</time>
			</trkpt>
			<trkpt lat="50.1069849" lon="8.3464059">
				<ele>273.8</ele>
				<time>2026-08-23T08:40:39.000Z</time>
			</trkpt>
			<trkpt lat="50.1067127" lon="8.3465592">
				<ele>273.2</ele>
				<time>2026-08-23T08:40:42.000Z</time>
			</trkpt>
			<trkpt lat="50.1065333" lon="8.3466618">
				<ele>272</ele>
				<time>2026-08-23T08:40:44.000Z</time>
			</trkpt>
			<trkpt lat="50.1062617" lon="8.3468123">
				<ele>270.9</ele>
				<time>2026-08-23T08:40:47.000Z</time>
			</trkpt>
			<trkpt lat="50.1059772" lon="8.3469682">
				<ele>270.3</ele>
				<time>2026-08-23T08:40:50.000Z</time>
			</trkpt>
			<trkpt lat="50.1057867" lon="8.3470812">
				<ele>269.5</ele>
				<time>2026-08-23T08:40:52.000Z</time>
			</trkpt>
			<trkpt lat="50.1055961" lon="8.3471884">
				<ele>268.9</ele>
				<time>2026-08-23T08:40:54.000Z</time>
			</trkpt>
			<trkpt lat="50.1053107" lon="8.3473426">
				<ele>267.1</ele>
				<time>2026-08-23T08:40:57.000Z</time>
			</trkpt>
			<trkpt lat="50.1050031" lon="8.3475117">
				<ele>265.8</ele>
				<time>2026-08-23T08:41:00.000Z</time>
			</trkpt>
			<trkpt lat="50.1046938" lon="8.3476788">
				<ele>264.6</ele>
				<time>2026-08-23T08:41:03.000Z</time>
			</trkpt>
			<trkpt lat="50.1044836" lon="8.3478066">
				<ele>264.1</ele>
				<time>2026-08-23T08:41:05.000Z</time>
			</trkpt>
			<trkpt lat="50.1041502" lon="8.3479849">
				<ele>263.2</ele>
				<time>2026-08-23T08:41:08.000Z</time>
			</trkpt>
			<trkpt lat="50.1039244" lon="8.3481156">
				<ele>263.7</ele>
				<time>2026-08-23T08:41:10.000Z</time>
			</trkpt>
			<trkpt lat="50.1035561" lon="8.3483175">
				<ele>264.4</ele>
				<time>2026-08-23T08:41:13.000Z</time>
			</trkpt>
			<trkpt lat="50.1031838" lon="8.3485293">
				<ele>264.2</ele>
				<time>2026-08-23T08:41:16.000Z</time>
			</trkpt>
			<trkpt lat="50.1028111" lon="8.3487503">
				<ele>264.1</ele>
				<time>2026-08-23T08:41:19.000Z</time>
			</trkpt>
			<trkpt lat="50.1025357" lon="8.3489032">
				<ele>264.9</ele>
				<time>2026-08-23T08:41:21.000Z</time>
			</trkpt>
			<trkpt lat="50.1021101" lon="8.3491426">
				<ele>265.4</ele>
				<time>2026-08-23T08:41:24.000Z</time>
			</trkpt>
			<trkpt lat="50.1016786" lon="8.3493751">
				<ele>265.1</ele>
				<time>2026-08-23T08:41:27.000Z</time>
			</trkpt>
			<trkpt lat="50.1012662" lon="8.3496088">
				<ele>265.8</ele>
				<time>2026-08-23T08:41:30.000Z</time>
			</trkpt>
			<trkpt lat="50.1010071" lon="8.3497562">
				<ele>266.5</ele>
				<time>2026-08-23T08:41:32.000Z</time>
			</trkpt>
			<trkpt lat="50.1006286" lon="8.3499586">
				<ele>266.8</ele>
				<time>2026-08-23T08:41:35.000Z</time>
			</trkpt>
			<trkpt lat="50.100358" lon="8.3501114">
				<ele>267.2</ele>
				<time>2026-08-23T08:41:38.000Z</time>
			</trkpt>
			<trkpt lat="50.100164" lon="8.3502264">
				<ele>267.1</ele>
				<time>2026-08-23T08:41:41.000Z</time>
			</trkpt>
			<trkpt lat="50.1000247" lon="8.3502972">
				<ele>268.1</ele>
				<time>2026-08-23T08:41:44.000Z</time>
			</trkpt>
			<trkpt lat="50.0999344" lon="8.3503476">
				<ele>268.1</ele>
				<time>2026-08-23T08:41:46.000Z</time>
			</trkpt>
			<trkpt lat="50.0998436" lon="8.3504035">
				<ele>267.3</ele>
				<time>2026-08-23T08:41:49.000Z</time>
			</trkpt>
			<trkpt lat="50.099746" lon="8.3504629">
				<ele>266.8</ele>
				<time>2026-08-23T08:41:54.000Z</time>
			</trkpt>
			<trkpt lat="50.0996447" lon="8.3505179">
				<ele>267.4</ele>
				<time>2026-08-23T08:41:58.000Z</time>
			</trkpt>
			<trkpt lat="50.0995091" lon="8.350583">
				<ele>266.6</ele>
				<time>2026-08-23T08:42:01.000Z</time>
			</trkpt>
			<trkpt lat="50.0994221" lon="8.3506336">
				<ele>266.5</ele>
				<time>2026-08-23T08:42:03.000Z</time>
			</trkpt>
			<trkpt lat="50.0993345" lon="8.3506861">
				<ele>266.8</ele>
				<time>2026-08-23T08:42:05.000Z</time>
			</trkpt>
			<trkpt lat="50.0991453" lon="8.3507906">
				<ele>266.8</ele>
				<time>2026-08-23T08:42:08.000Z</time>
			</trkpt>
			<trkpt lat="50.099006" lon="8.3508723">
				<ele>267</ele>
				<time>2026-08-23T08:42:10.000Z</time>
			</trkpt>
			<trkpt lat="50.0988657" lon="8.3509514">
				<ele>265.5</ele>
				<time>2026-08-23T08:42:12.000Z</time>
			</trkpt>
			<trkpt lat="50.0986554" lon="8.3510643">
				<ele>264.4</ele>
				<time>2026-08-23T08:42:15.000Z</time>
			</trkpt>
			<trkpt lat="50.0985135" lon="8.3511448">
				<ele>264.4</ele>
				<time>2026-08-23T08:42:17.000Z</time>
			</trkpt>
			<trkpt lat="50.098372" lon="8.3512268">
				<ele>264</ele>
				<time>2026-08-23T08:42:19.000Z</time>
			</trkpt>
			<trkpt lat="50.0981571" lon="8.3513423">
				<ele>263.9</ele>
				<time>2026-08-23T08:42:22.000Z</time>
			</trkpt>
			<trkpt lat="50.0979287" lon="8.3514687">
				<ele>263.6</ele>
				<time>2026-08-23T08:42:25.000Z</time>
			</trkpt>
			<trkpt lat="50.097701" lon="8.3516031">
				<ele>263.8</ele>
				<time>2026-08-23T08:42:28.000Z</time>
			</trkpt>
			<trkpt lat="50.0975412" lon="8.3516908">
				<ele>263.4</ele>
				<time>2026-08-23T08:42:30.000Z</time>
			</trkpt>
			<trkpt lat="50.0973253" lon="8.3518039">
				<ele>264.6</ele>
				<time>2026-08-23T08:42:33.000Z</time>
			</trkpt>
			<trkpt lat="50.0971836" lon="8.3518784">
				<ele>263.6</ele>
				<time>2026-08-23T08:42:35.000Z</time>
			</trkpt>
			<trkpt lat="50.0970634" lon="8.3519527">
				<ele>263.6</ele>
				<time>2026-08-23T08:42:37.000Z</time>
			</trkpt>
			<trkpt lat="50.096889" lon="8.3520427">
				<ele>262.3</ele>
				<time>2026-08-23T08:42:40.000Z</time>
			</trkpt>
			<trkpt lat="50.096782" lon="8.3521003">
				<ele>262.4</ele>
				<time>2026-08-23T08:42:42.000Z</time>
			</trkpt>
			<trkpt lat="50.096619" lon="8.3521938">
				<ele>263.1</ele>
				<time>2026-08-23T08:42:45.000Z</time>
			</trkpt>
			<trkpt lat="50.0965099" lon="8.352252">
				<ele>262.6</ele>
				<time>2026-08-23T08:42:47.000Z</time>
			</trkpt>
			<trkpt lat="50.0963559" lon="8.3523493">
				<ele>262.1</ele>
				<time>2026-08-23T08:42:50.000Z</time>
			</trkpt>
			<trkpt lat="50.0962607" lon="8.3523939">
				<ele>261.9</ele>
				<time>2026-08-23T08:42:52.000Z</time>
			</trkpt>
			<trkpt lat="50.0961768" lon="8.3524454">
				<ele>262.2</ele>
				<time>2026-08-23T08:42:54.000Z</time>
			</trkpt>
			<trkpt lat="50.0960711" lon="8.3525086">
				<ele>262.1</ele>
				<time>2026-08-23T08:42:57.000Z</time>
			</trkpt>
			<trkpt lat="50.0959538" lon="8.3525776">
				<ele>262.8</ele>
				<time>2026-08-23T08:43:00.000Z</time>
			</trkpt>
			<trkpt lat="50.0958672" lon="8.3526206">
				<ele>262.2</ele>
				<time>2026-08-23T08:43:02.000Z</time>
			</trkpt>
			<trkpt lat="50.09578" lon="8.3526712">
				<ele>261.7</ele>
				<time>2026-08-23T08:43:04.000Z</time>
			</trkpt>
			<trkpt lat="50.0956262" lon="8.3527583">
				<ele>262</ele>
				<time>2026-08-23T08:43:07.000Z</time>
			</trkpt>
			<trkpt lat="50.0954623" lon="8.3528545">
				<ele>261.5</ele>
				<time>2026-08-23T08:43:10.000Z</time>
			</trkpt>
			<trkpt lat="50.0953025" lon="8.352942">
				<ele>261.3</ele>
				<time>2026-08-23T08:43:13.000Z</time>
			</trkpt>
			<trkpt lat="50.0951541" lon="8.3530209">
				<ele>261.5</ele>
				<time>2026-08-23T08:43:16.000Z</time>
			</trkpt>
			<trkpt lat="50.0950257" lon="8.3530925">
				<ele>260.7</ele>
				<time>2026-08-23T08:43:19.000Z</time>
			</trkpt>
			<trkpt lat="50.0948929" lon="8.3531668">
				<ele>261.2</ele>
				<time>2026-08-23T08:43:22.000Z</time>
			</trkpt>
			<trkpt lat="50.0947702" lon="8.3532288">
				<ele>261.6</ele>
				<time>2026-08-23T08:43:25.000Z</time>
			</trkpt>
			<trkpt lat="50.0946544" lon="8.3532992">
				<ele>261.8</ele>
				<time>2026-08-23T08:43:28.000Z</time>
			</trkpt>
			<trkpt lat="50.0945375" lon="8.353366">
				<ele>261.3</ele>
				<time>2026-08-23T08:43:31.000Z</time>
			</trkpt>
			<trkpt lat="50.0944232" lon="8.3534306">
				<ele>261.2</ele>
				<time>2026-08-23T08:43:34.000Z</time>
			</trkpt>
			<trkpt lat="50.0943002" lon="8.3534954">
				<ele>260.1</ele>
				<time>2026-08-23T08:43:37.000Z</time>
			</trkpt>
			<trkpt lat="50.0941689" lon="8.3535672">
				<ele>259.4</ele>
				<time>2026-08-23T08:43:40.000Z</time>
			</trkpt>
			<trkpt lat="50.0940748" lon="8.3536183">
				<ele>258.9</ele>
				<time>2026-08-23T08:43:42.000Z</time>
			</trkpt>
			<trkpt lat="50.0939179" lon="8.3537126">
				<ele>259.5</ele>
				<time>2026-08-23T08:43:45.000Z</time>
			</trkpt>
			<trkpt lat="50.0938159" lon="8.3537657">
				<ele>258.7</ele>
				<time>2026-08-23T08:43:47.000Z</time>
			</trkpt>
			<trkpt lat="50.0936719" lon="8.3538512">
				<ele>258.7</ele>
				<time>2026-08-23T08:43:50.000Z</time>
			</trkpt>
			<trkpt lat="50.0935232" lon="8.3539348">
				<ele>258.4</ele>
				<time>2026-08-23T08:43:53.000Z</time>
			</trkpt>
			<trkpt lat="50.0934304" lon="8.3539889">
				<ele>257.9</ele>
				<time>2026-08-23T08:43:55.000Z</time>
			</trkpt>
			<trkpt lat="50.0933335" lon="8.354046">
				<ele>258.5</ele>
				<time>2026-08-23T08:43:57.000Z</time>
			</trkpt>
			<trkpt lat="50.0931922" lon="8.3541222">
				<ele>257.6</ele>
				<time>2026-08-23T08:44:00.000Z</time>
			</trkpt>
			<trkpt lat="50.0930971" lon="8.3541708">
				<ele>257.6</ele>
				<time>2026-08-23T08:44:02.000Z</time>
			</trkpt>
			<trkpt lat="50.0929666" lon="8.3542382">
				<ele>257.1</ele>
				<time>2026-08-23T08:44:05.000Z</time>
			</trkpt>
			<trkpt lat="50.0928468" lon="8.3543023">
				<ele>256</ele>
				<time>2026-08-23T08:44:08.000Z</time>
			</trkpt>
			<trkpt lat="50.092726" lon="8.3543721">
				<ele>254.9</ele>
				<time>2026-08-23T08:44:11.000Z</time>
			</trkpt>
			<trkpt lat="50.0926005" lon="8.354451">
				<ele>254.5</ele>
				<time>2026-08-23T08:44:14.000Z</time>
			</trkpt>
			<trkpt lat="50.0924381" lon="8.3545466">
				<ele>253.8</ele>
				<time>2026-08-23T08:44:17.000Z</time>
			</trkpt>
			<trkpt lat="50.0922442" lon="8.3546575">
				<ele>253.6</ele>
				<time>2026-08-23T08:44:20.000Z</time>
			</trkpt>
			<trkpt lat="50.092014" lon="8.3547807">
				<ele>252.4</ele>
				<time>2026-08-23T08:44:23.000Z</time>
			</trkpt>
			<trkpt lat="50.091838" lon="8.3548812">
				<ele>251.3</ele>
				<time>2026-08-23T08:44:25.000Z</time>
			</trkpt>
			<trkpt lat="50.0915486" lon="8.3550538">
				<ele>249.6</ele>
				<time>2026-08-23T08:44:28.000Z</time>
			</trkpt>
			<trkpt lat="50.0913344" lon="8.3551678">
				<ele>248.3</ele>
				<time>2026-08-23T08:44:30.000Z</time>
			</trkpt>
			<trkpt lat="50.0910235" lon="8.3553383">
				<ele>246.9</ele>
				<time>2026-08-23T08:44:33.000Z</time>
			</trkpt>
			<trkpt lat="50.0908528" lon="8.3554334">
				<ele>246</ele>
				<time>2026-08-23T08:44:35.000Z</time>
			</trkpt>
			<trkpt lat="50.090609" lon="8.3555705">
				<ele>244</ele>
				<time>2026-08-23T08:44:38.000Z</time>
			</trkpt>
			<trkpt lat="50.0904378" lon="8.3556722">
				<ele>243.2</ele>
				<time>2026-08-23T08:44:40.000Z</time>
			</trkpt>
			<trkpt lat="50.0902534" lon="8.3557727">
				<ele>242</ele>
				<time>2026-08-23T08:44:42.000Z</time>
			</trkpt>
			<trkpt lat="50.0899731" lon="8.3559396">
				<ele>240.7</ele>
				<time>2026-08-23T08:44:45.000Z</time>
			</trkpt>
			<trkpt lat="50.089718" lon="8.3561006">
				<ele>239.3</ele>
				<time>2026-08-23T08:44:48.000Z</time>
			</trkpt>
			<trkpt lat="50.0894888" lon="8.3562541">
				<ele>238.1</ele>
				<time>2026-08-23T08:44:51.000Z</time>
			</trkpt>
			<trkpt lat="50.0893302" lon="8.3563514">
				<ele>237.1</ele>
				<time>2026-08-23T08:44:53.000Z</time>
			</trkpt>
			<trkpt lat="50.0890935" lon="8.3564971">
				<ele>235.9</ele>
				<time>2026-08-23T08:44:56.000Z</time>
			</trkpt>
			<trkpt lat="50.088848" lon="8.3566664">
				<ele>234</ele>
				<time>2026-08-23T08:44:59.000Z</time>
			</trkpt>
			<trkpt lat="50.0886804" lon="8.3567781">
				<ele>233.1</ele>
				<time>2026-08-23T08:45:01.000Z</time>
			</trkpt>
			<trkpt lat="50.088424" lon="8.3569545">
				<ele>231.9</ele>
				<time>2026-08-23T08:45:04.000Z</time>
			</trkpt>
			<trkpt lat="50.0881598" lon="8.3571286">
				<ele>229.8</ele>
				<time>2026-08-23T08:45:07.000Z</time>
			</trkpt>
			<trkpt lat="50.0879776" lon="8.3572493">
				<ele>229.2</ele>
				<time>2026-08-23T08:45:09.000Z</time>
			</trkpt>
			<trkpt lat="50.0876984" lon="8.357442">
				<ele>227.7</ele>
				<time>2026-08-23T08:45:12.000Z</time>
			</trkpt>
			<trkpt lat="50.0875013" lon="8.3575783">
				<ele>226.5</ele>
				<time>2026-08-23T08:45:14.000Z</time>
			</trkpt>
			<trkpt lat="50.0871879" lon="8.3577987">
				<ele>224.7</ele>
				<time>2026-08-23T08:45:17.000Z</time>
			</trkpt>
			<trkpt lat="50.0868611" lon="8.3580406">
				<ele>222.5</ele>
				<time>2026-08-23T08:45:20.000Z</time>
			</trkpt>
			<trkpt lat="50.0866408" lon="8.3582107">
				<ele>221.2</ele>
				<time>2026-08-23T08:45:22.000Z</time>
			</trkpt>
			<trkpt lat="50.0862954" lon="8.3584681">
				<ele>219.5</ele>
				<time>2026-08-23T08:45:25.000Z</time>
			</trkpt>
			<trkpt lat="50.0860687" lon="8.3586312">
				<ele>217.9</ele>
				<time>2026-08-23T08:45:27.000Z</time>
			</trkpt>
			<trkpt lat="50.0858335" lon="8.3588071">
				<ele>217</ele>
				<time>2026-08-23T08:45:29.000Z</time>
			</trkpt>
			<trkpt lat="50.0854552" lon="8.3590899">
				<ele>216.2</ele>
				<time>2026-08-23T08:45:32.000Z</time>
			</trkpt>
			<trkpt lat="50.0851987" lon="8.3592851">
				<ele>215.1</ele>
				<time>2026-08-23T08:45:34.000Z</time>
			</trkpt>
			<trkpt lat="50.0849273" lon="8.3595004">
				<ele>214.9</ele>
				<time>2026-08-23T08:45:36.000Z</time>
			</trkpt>
			<trkpt lat="50.0846368" lon="8.3597149">
				<ele>213.8</ele>
				<time>2026-08-23T08:45:38.000Z</time>
			</trkpt>
			<trkpt lat="50.0842134" lon="8.360039">
				<ele>212.7</ele>
				<time>2026-08-23T08:45:41.000Z</time>
			</trkpt>
			<trkpt lat="50.0837809" lon="8.3603573">
				<ele>211.7</ele>
				<time>2026-08-23T08:45:44.000Z</time>
			</trkpt>
			<trkpt lat="50.0833487" lon="8.3606877">
				<ele>210.6</ele>
				<time>2026-08-23T08:45:47.000Z</time>
			</trkpt>
			<trkpt lat="50.0829056" lon="8.3610249">
				<ele>210.5</ele>
				<time>2026-08-23T08:45:50.000Z</time>
			</trkpt>
			<trkpt lat="50.0824776" lon="8.3613548">
				<ele>209.6</ele>
				<time>2026-08-23T08:45:53.000Z</time>
			</trkpt>
			<trkpt lat="50.082206" lon="8.3615644">
				<ele>209.5</ele>
				<time>2026-08-23T08:45:55.000Z</time>
			</trkpt>
			<trkpt lat="50.0818422" lon="8.3618306">
				<ele>209</ele>
				<time>2026-08-23T08:45:58.000Z</time>
			</trkpt>
			<trkpt lat="50.0816483" lon="8.361981">
				<ele>208.3</ele>
				<time>2026-08-23T08:46:00.000Z</time>
			</trkpt>
			<trkpt lat="50.0814011" lon="8.3621553">
				<ele>207.2</ele>
				<time>2026-08-23T08:46:03.000Z</time>
			</trkpt>
			<trkpt lat="50.0812778" lon="8.3622454">
				<ele>206.7</ele>
				<time>2026-08-23T08:46:05.000Z</time>
			</trkpt>
			<trkpt lat="50.0811387" lon="8.3623599">
				<ele>207.1</ele>
				<time>2026-08-23T08:46:08.000Z</time>
			</trkpt>
			<trkpt lat="50.0810564" lon="8.3624216">
				<ele>207.3</ele>
				<time>2026-08-23T08:46:20.000Z</time>
			</trkpt>
			<trkpt lat="50.0809494" lon="8.3625018">
				<ele>207.2</ele>
				<time>2026-08-23T08:46:23.000Z</time>
			</trkpt>
			<trkpt lat="50.0808578" lon="8.3625631">
				<ele>207.1</ele>
				<time>2026-08-23T08:46:25.000Z</time>
			</trkpt>
			<trkpt lat="50.0807236" lon="8.36266">
				<ele>207.1</ele>
				<time>2026-08-23T08:46:28.000Z</time>
			</trkpt>
			<trkpt lat="50.0806138" lon="8.3627333">
				<ele>206.5</ele>
				<time>2026-08-23T08:46:30.000Z</time>
			</trkpt>
			<trkpt lat="50.0804732" lon="8.3628464">
				<ele>206.9</ele>
				<time>2026-08-23T08:46:32.000Z</time>
			</trkpt>
			<trkpt lat="50.0803391" lon="8.3629567">
				<ele>206.3</ele>
				<time>2026-08-23T08:46:34.000Z</time>
			</trkpt>
			<trkpt lat="50.0800674" lon="8.3631732">
				<ele>206.7</ele>
				<time>2026-08-23T08:46:37.000Z</time>
			</trkpt>
			<trkpt lat="50.0798776" lon="8.3633196">
				<ele>206.1</ele>
				<time>2026-08-23T08:46:39.000Z</time>
			</trkpt>
			<trkpt lat="50.0796845" lon="8.3634652">
				<ele>206.4</ele>
				<time>2026-08-23T08:46:41.000Z</time>
			</trkpt>
			<trkpt lat="50.0793765" lon="8.3636906">
				<ele>206.8</ele>
				<time>2026-08-23T08:46:44.000Z</time>
			</trkpt>
			<trkpt lat="50.0790228" lon="8.3639584">
				<ele>207.2</ele>
				<time>2026-08-23T08:46:47.000Z</time>
			</trkpt>
			<trkpt lat="50.0786513" lon="8.3642659">
				<ele>207.9</ele>
				<time>2026-08-23T08:46:50.000Z</time>
			</trkpt>
			<trkpt lat="50.0782815" lon="8.3645936">
				<ele>208.4</ele>
				<time>2026-08-23T08:46:53.000Z</time>
			</trkpt>
			<trkpt lat="50.0780291" lon="8.3648304">
				<ele>209.2</ele>
				<time>2026-08-23T08:46:55.000Z</time>
			</trkpt>
			<trkpt lat="50.0776515" lon="8.3651922">
				<ele>209.4</ele>
				<time>2026-08-23T08:46:58.000Z</time>
			</trkpt>
			<trkpt lat="50.0772502" lon="8.3655961">
				<ele>210.1</ele>
				<time>2026-08-23T08:47:01.000Z</time>
			</trkpt>
			<trkpt lat="50.0768413" lon="8.3660292">
				<ele>210.1</ele>
				<time>2026-08-23T08:47:04.000Z</time>
			</trkpt>
			<trkpt lat="50.0764501" lon="8.3664715">
				<ele>208.7</ele>
				<time>2026-08-23T08:47:07.000Z</time>
			</trkpt>
			<trkpt lat="50.0761938" lon="8.3667757">
				<ele>208.7</ele>
				<time>2026-08-23T08:47:09.000Z</time>
			</trkpt>
			<trkpt lat="50.0758019" lon="8.3672597">
				<ele>208.8</ele>
				<time>2026-08-23T08:47:12.000Z</time>
			</trkpt>
			<trkpt lat="50.0755429" lon="8.3675963">
				<ele>209.3</ele>
				<time>2026-08-23T08:47:14.000Z</time>
			</trkpt>
			<trkpt lat="50.0751549" lon="8.3680823">
				<ele>208.8</ele>
				<time>2026-08-23T08:47:17.000Z</time>
			</trkpt>
			<trkpt lat="50.0748156" lon="8.3685253">
				<ele>209</ele>
				<time>2026-08-23T08:47:20.000Z</time>
			</trkpt>
			<trkpt lat="50.0745416" lon="8.3688803">
				<ele>209.1</ele>
				<time>2026-08-23T08:47:23.000Z</time>
			</trkpt>
			<trkpt lat="50.0743918" lon="8.3690758">
				<ele>209.2</ele>
				<time>2026-08-23T08:47:25.000Z</time>
			</trkpt>
			<trkpt lat="50.0742166" lon="8.369308">
				<ele>208.7</ele>
				<time>2026-08-23T08:47:28.000Z</time>
			</trkpt>
			<trkpt lat="50.0740514" lon="8.3695221">
				<ele>208.6</ele>
				<time>2026-08-23T08:47:31.000Z</time>
			</trkpt>
			<trkpt lat="50.0739007" lon="8.3697233">
				<ele>208.1</ele>
				<time>2026-08-23T08:47:34.000Z</time>
			</trkpt>
			<trkpt lat="50.0737583" lon="8.3698978">
				<ele>207.9</ele>
				<time>2026-08-23T08:47:37.000Z</time>
			</trkpt>
			<trkpt lat="50.0736748" lon="8.3700082">
				<ele>207.7</ele>
				<time>2026-08-23T08:47:39.000Z</time>
			</trkpt>
			<trkpt lat="50.0735703" lon="8.3701318">
				<ele>207.1</ele>
				<time>2026-08-23T08:47:42.000Z</time>
			</trkpt>
			<trkpt lat="50.0734848" lon="8.3702533">
				<ele>207</ele>
				<time>2026-08-23T08:47:45.000Z</time>
			</trkpt>
			<trkpt lat="50.0733803" lon="8.3703872">
				<ele>206.5</ele>
				<time>2026-08-23T08:47:48.000Z</time>
			</trkpt>
			<trkpt lat="50.0732803" lon="8.3705154">
				<ele>206.1</ele>
				<time>2026-08-23T08:47:51.000Z</time>
			</trkpt>
			<trkpt lat="50.0731901" lon="8.3706263">
				<ele>206.1</ele>
				<time>2026-08-23T08:47:54.000Z</time>
			</trkpt>
			<trkpt lat="50.0731139" lon="8.3707285">
				<ele>206.2</ele>
				<time>2026-08-23T08:47:57.000Z</time>
			</trkpt>
			<trkpt lat="50.0730048" lon="8.3708635">
				<ele>205</ele>
				<time>2026-08-23T08:48:00.000Z</time>
			</trkpt>
			<trkpt lat="50.0729248" lon="8.3709689">
				<ele>204.6</ele>
				<time>2026-08-23T08:48:02.000Z</time>
			</trkpt>
			<trkpt lat="50.0727765" lon="8.3711514">
				<ele>203.7</ele>
				<time>2026-08-23T08:48:05.000Z</time>
			</trkpt>
			<trkpt lat="50.0726209" lon="8.3713554">
				<ele>203.2</ele>
				<time>2026-08-23T08:48:08.000Z</time>
			</trkpt>
			<trkpt lat="50.0724496" lon="8.3715749">
				<ele>202.1</ele>
				<time>2026-08-23T08:48:11.000Z</time>
			</trkpt>
			<trkpt lat="50.072259" lon="8.3718266">
				<ele>201</ele>
				<time>2026-08-23T08:48:14.000Z</time>
			</trkpt>
			<trkpt lat="50.0720598" lon="8.3720884">
				<ele>200.3</ele>
				<time>2026-08-23T08:48:17.000Z</time>
			</trkpt>
			<trkpt lat="50.0718482" lon="8.3723563">
				<ele>199.6</ele>
				<time>2026-08-23T08:48:20.000Z</time>
			</trkpt>
			<trkpt lat="50.0716379" lon="8.3726213">
				<ele>198.7</ele>
				<time>2026-08-23T08:48:23.000Z</time>
			</trkpt>
			<trkpt lat="50.0714913" lon="8.3728087">
				<ele>198.1</ele>
				<time>2026-08-23T08:48:25.000Z</time>
			</trkpt>
			<trkpt lat="50.07127" lon="8.3731317">
				<ele>198.2</ele>
				<time>2026-08-23T08:48:28.000Z</time>
			</trkpt>
			<trkpt lat="50.0710678" lon="8.3734221">
				<ele>198.4</ele>
				<time>2026-08-23T08:48:31.000Z</time>
			</trkpt>
			<trkpt lat="50.0709321" lon="8.3735994">
				<ele>198.5</ele>
				<time>2026-08-23T08:48:33.000Z</time>
			</trkpt>
			<trkpt lat="50.0707107" lon="8.3738871">
				<ele>198.7</ele>
				<time>2026-08-23T08:48:36.000Z</time>
			</trkpt>
			<trkpt lat="50.0704573" lon="8.3742039">
				<ele>199.9</ele>
				<time>2026-08-23T08:48:39.000Z</time>
			</trkpt>
			<trkpt lat="50.0702714" lon="8.3744478">
				<ele>201.3</ele>
				<time>2026-08-23T08:48:41.000Z</time>
			</trkpt>
			<trkpt lat="50.0699581" lon="8.3748488">
				<ele>204.2</ele>
				<time>2026-08-23T08:48:44.000Z</time>
			</trkpt>
			<trkpt lat="50.0697284" lon="8.375141">
				<ele>205.9</ele>
				<time>2026-08-23T08:48:46.000Z</time>
			</trkpt>
			<trkpt lat="50.0693714" lon="8.3756054">
				<ele>209.3</ele>
				<time>2026-08-23T08:48:49.000Z</time>
			</trkpt>
			<trkpt lat="50.0691421" lon="8.375898">
				<ele>211.5</ele>
				<time>2026-08-23T08:48:51.000Z</time>
			</trkpt>
			<trkpt lat="50.0688133" lon="8.3763184">
				<ele>213.3</ele>
				<time>2026-08-23T08:48:54.000Z</time>
			</trkpt>
			<trkpt lat="50.0684829" lon="8.3767197">
				<ele>215.3</ele>
				<time>2026-08-23T08:48:57.000Z</time>
			</trkpt>
			<trkpt lat="50.0681434" lon="8.3770916">
				<ele>217</ele>
				<time>2026-08-23T08:49:00.000Z</time>
			</trkpt>
			<trkpt lat="50.0679134" lon="8.3773407">
				<ele>218.5</ele>
				<time>2026-08-23T08:49:02.000Z</time>
			</trkpt>
			<trkpt lat="50.0675826" lon="8.3776958">
				<ele>219.5</ele>
				<time>2026-08-23T08:49:05.000Z</time>
			</trkpt>
			<trkpt lat="50.0673673" lon="8.3779113">
				<ele>220</ele>
				<time>2026-08-23T08:49:07.000Z</time>
			</trkpt>
			<trkpt lat="50.0670609" lon="8.3782116">
				<ele>219.9</ele>
				<time>2026-08-23T08:49:10.000Z</time>
			</trkpt>
			<trkpt lat="50.0668616" lon="8.3783866">
				<ele>219.9</ele>
				<time>2026-08-23T08:49:12.000Z</time>
			</trkpt>
			<trkpt lat="50.066571" lon="8.3786437">
				<ele>220.6</ele>
				<time>2026-08-23T08:49:15.000Z</time>
			</trkpt>
			<trkpt lat="50.0662511" lon="8.3789204">
				<ele>219.8</ele>
				<time>2026-08-23T08:49:18.000Z</time>
			</trkpt>
			<trkpt lat="50.0659233" lon="8.3792067">
				<ele>219.6</ele>
				<time>2026-08-23T08:49:21.000Z</time>
			</trkpt>
			<trkpt lat="50.065703" lon="8.3793924">
				<ele>220.4</ele>
				<time>2026-08-23T08:49:23.000Z</time>
			</trkpt>
			<trkpt lat="50.0655" lon="8.3795679">
				<ele>220.1</ele>
				<time>2026-08-23T08:49:25.000Z</time>
			</trkpt>
			<trkpt lat="50.065292" lon="8.379744">
				<ele>219.9</ele>
				<time>2026-08-23T08:49:27.000Z</time>
			</trkpt>
			<trkpt lat="50.0649926" lon="8.3799935">
				<ele>219.6</ele>
				<time>2026-08-23T08:49:30.000Z</time>
			</trkpt>
			<trkpt lat="50.064797" lon="8.380171">
				<ele>219.3</ele>
				<time>2026-08-23T08:49:32.000Z</time>
			</trkpt>
			<trkpt lat="50.064609" lon="8.380329">
				<ele>219.5</ele>
				<time>2026-08-23T08:49:34.000Z</time>
			</trkpt>
			<trkpt lat="50.0643307" lon="8.3805556">
				<ele>218.1</ele>
				<time>2026-08-23T08:49:37.000Z</time>
			</trkpt>
			<trkpt lat="50.0641314" lon="8.3807172">
				<ele>217.9</ele>
				<time>2026-08-23T08:49:39.000Z</time>
			</trkpt>
			<trkpt lat="50.0639455" lon="8.3808759">
				<ele>216.9</ele>
				<time>2026-08-23T08:49:41.000Z</time>
			</trkpt>
			<trkpt lat="50.0637597" lon="8.3810395">
				<ele>216.9</ele>
				<time>2026-08-23T08:49:43.000Z</time>
			</trkpt>
			<trkpt lat="50.0634875" lon="8.3812742">
				<ele>216.8</ele>
				<time>2026-08-23T08:49:46.000Z</time>
			</trkpt>
			<trkpt lat="50.0632037" lon="8.3815162">
				<ele>216.7</ele>
				<time>2026-08-23T08:49:49.000Z</time>
			</trkpt>
			<trkpt lat="50.0629953" lon="8.3816891">
				<ele>216.6</ele>
				<time>2026-08-23T08:49:51.000Z</time>
			</trkpt>
			<trkpt lat="50.0626921" lon="8.3819479">
				<ele>216</ele>
				<time>2026-08-23T08:49:54.000Z</time>
			</trkpt>
			<trkpt lat="50.0624984" lon="8.3821174">
				<ele>214.9</ele>
				<time>2026-08-23T08:49:56.000Z</time>
			</trkpt>
			<trkpt lat="50.0621683" lon="8.3823933">
				<ele>214.1</ele>
				<time>2026-08-23T08:49:59.000Z</time>
			</trkpt>
			<trkpt lat="50.0619829" lon="8.3825563">
				<ele>214.2</ele>
				<time>2026-08-23T08:50:01.000Z</time>
			</trkpt>
			<trkpt lat="50.0618302" lon="8.3826755">
				<ele>213.6</ele>
				<time>2026-08-23T08:50:03.000Z</time>
			</trkpt>
			<trkpt lat="50.0616189" lon="8.3828551">
				<ele>213.3</ele>
				<time>2026-08-23T08:50:06.000Z</time>
			</trkpt>
			<trkpt lat="50.0614357" lon="8.3829912">
				<ele>212.7</ele>
				<time>2026-08-23T08:50:09.000Z</time>
			</trkpt>
			<trkpt lat="50.0613307" lon="8.3830801">
				<ele>213.7</ele>
				<time>2026-08-23T08:50:11.000Z</time>
			</trkpt>
			<trkpt lat="50.0611397" lon="8.3832443">
				<ele>214.3</ele>
				<time>2026-08-23T08:50:14.000Z</time>
			</trkpt>
			<trkpt lat="50.0609768" lon="8.383385">
				<ele>213.6</ele>
				<time>2026-08-23T08:50:16.000Z</time>
			</trkpt>
			<trkpt lat="50.0607805" lon="8.3835504">
				<ele>213.4</ele>
				<time>2026-08-23T08:50:18.000Z</time>
			</trkpt>
			<trkpt lat="50.0604853" lon="8.3837961">
				<ele>212.8</ele>
				<time>2026-08-23T08:50:21.000Z</time>
			</trkpt>
			<trkpt lat="50.0601882" lon="8.3840547">
				<ele>212.9</ele>
				<time>2026-08-23T08:50:24.000Z</time>
			</trkpt>
			<trkpt lat="50.0599633" lon="8.3842354">
				<ele>212.2</ele>
				<time>2026-08-23T08:50:26.000Z</time>
			</trkpt>
			<trkpt lat="50.0596198" lon="8.3845259">
				<ele>211.6</ele>
				<time>2026-08-23T08:50:29.000Z</time>
			</trkpt>
			<trkpt lat="50.0592682" lon="8.3848367">
				<ele>211.8</ele>
				<time>2026-08-23T08:50:32.000Z</time>
			</trkpt>
			<trkpt lat="50.0590154" lon="8.3850517">
				<ele>211.9</ele>
				<time>2026-08-23T08:50:34.000Z</time>
			</trkpt>
			<trkpt lat="50.0586126" lon="8.385396">
				<ele>212.1</ele>
				<time>2026-08-23T08:50:37.000Z</time>
			</trkpt>
			<trkpt lat="50.0583404" lon="8.3856312">
				<ele>211.5</ele>
				<time>2026-08-23T08:50:39.000Z</time>
			</trkpt>
			<trkpt lat="50.0578972" lon="8.3859975">
				<ele>210.9</ele>
				<time>2026-08-23T08:50:42.000Z</time>
			</trkpt>
			<trkpt lat="50.0574456" lon="8.3863752">
				<ele>209.9</ele>
				<time>2026-08-23T08:50:45.000Z</time>
			</trkpt>
			<trkpt lat="50.0571276" lon="8.3866442">
				<ele>209.5</ele>
				<time>2026-08-23T08:50:47.000Z</time>
			</trkpt>
			<trkpt lat="50.0568139" lon="8.3869101">
				<ele>208.9</ele>
				<time>2026-08-23T08:50:49.000Z</time>
			</trkpt>
			<trkpt lat="50.0563222" lon="8.3873262">
				<ele>207.8</ele>
				<time>2026-08-23T08:50:52.000Z</time>
			</trkpt>
			<trkpt lat="50.0560116" lon="8.3875895">
				<ele>208.2</ele>
				<time>2026-08-23T08:50:54.000Z</time>
			</trkpt>
			<trkpt lat="50.0555671" lon="8.3879647">
				<ele>208.4</ele>
				<time>2026-08-23T08:50:57.000Z</time>
			</trkpt>
			<trkpt lat="50.0551528" lon="8.3883281">
				<ele>208.9</ele>
				<time>2026-08-23T08:51:00.000Z</time>
			</trkpt>
			<trkpt lat="50.0547529" lon="8.3886704">
				<ele>208.8</ele>
				<time>2026-08-23T08:51:03.000Z</time>
			</trkpt>
			<trkpt lat="50.0543752" lon="8.3889777">
				<ele>207.6</ele>
				<time>2026-08-23T08:51:06.000Z</time>
			</trkpt>
			<trkpt lat="50.0541337" lon="8.3891847">
				<ele>206.9</ele>
				<time>2026-08-23T08:51:08.000Z</time>
			</trkpt>
			<trkpt lat="50.0537627" lon="8.3895034">
				<ele>206</ele>
				<time>2026-08-23T08:51:11.000Z</time>
			</trkpt>
			<trkpt lat="50.053494" lon="8.3897242">
				<ele>205.8</ele>
				<time>2026-08-23T08:51:13.000Z</time>
			</trkpt>
			<trkpt lat="50.0530815" lon="8.3900676">
				<ele>205.4</ele>
				<time>2026-08-23T08:51:16.000Z</time>
			</trkpt>
			<trkpt lat="50.0526474" lon="8.3904366">
				<ele>204.6</ele>
				<time>2026-08-23T08:51:19.000Z</time>
			</trkpt>
			<trkpt lat="50.0521639" lon="8.3908428">
				<ele>203.2</ele>
				<time>2026-08-23T08:51:22.000Z</time>
			</trkpt>
			<trkpt lat="50.0518263" lon="8.3911298">
				<ele>202.8</ele>
				<time>2026-08-23T08:51:24.000Z</time>
			</trkpt>
			<trkpt lat="50.0512941" lon="8.3916009">
				<ele>202.3</ele>
				<time>2026-08-23T08:51:27.000Z</time>
			</trkpt>
			<trkpt lat="50.0509317" lon="8.3919507">
				<ele>202.3</ele>
				<time>2026-08-23T08:51:29.000Z</time>
			</trkpt>
			<trkpt lat="50.0503833" lon="8.3925404">
				<ele>201.9</ele>
				<time>2026-08-23T08:51:32.000Z</time>
			</trkpt>
			<trkpt lat="50.0498314" lon="8.3932067">
				<ele>201.9</ele>
				<time>2026-08-23T08:51:35.000Z</time>
			</trkpt>
			<trkpt lat="50.0492737" lon="8.3939402">
				<ele>201.6</ele>
				<time>2026-08-23T08:51:38.000Z</time>
			</trkpt>
			<trkpt lat="50.0489146" lon="8.394459">
				<ele>202.5</ele>
				<time>2026-08-23T08:51:40.000Z</time>
			</trkpt>
			<trkpt lat="50.0485765" lon="8.3949848">
				<ele>202.2</ele>
				<time>2026-08-23T08:51:42.000Z</time>
			</trkpt>
			<trkpt lat="50.0480838" lon="8.3958086">
				<ele>201.6</ele>
				<time>2026-08-23T08:51:45.000Z</time>
			</trkpt>
			<trkpt lat="50.0477734" lon="8.3963896">
				<ele>201.3</ele>
				<time>2026-08-23T08:51:47.000Z</time>
			</trkpt>
			<trkpt lat="50.0473327" lon="8.3973031">
				<ele>200.8</ele>
				<time>2026-08-23T08:51:50.000Z</time>
			</trkpt>
			<trkpt lat="50.046922" lon="8.3982564">
				<ele>199.4</ele>
				<time>2026-08-23T08:51:53.000Z</time>
			</trkpt>
			<trkpt lat="50.0465247" lon="8.3992365">
				<ele>197.2</ele>
				<time>2026-08-23T08:51:56.000Z</time>
			</trkpt>
			<trkpt lat="50.046197" lon="8.4002401">
				<ele>195.8</ele>
				<time>2026-08-23T08:51:59.000Z</time>
			</trkpt>
			<trkpt lat="50.0459972" lon="8.4009124">
				<ele>195.4</ele>
				<time>2026-08-23T08:52:01.000Z</time>
			</trkpt>
			<trkpt lat="50.0456898" lon="8.4019399">
				<ele>194.9</ele>
				<time>2026-08-23T08:52:04.000Z</time>
			</trkpt>
			<trkpt lat="50.0454811" lon="8.4026419">
				<ele>195.2</ele>
				<time>2026-08-23T08:52:06.000Z</time>
			</trkpt>
			<trkpt lat="50.04527" lon="8.4033595">
				<ele>195.6</ele>
				<time>2026-08-23T08:52:08.000Z</time>
			</trkpt>
			<trkpt lat="50.0450562" lon="8.4040672">
				<ele>195.2</ele>
				<time>2026-08-23T08:52:10.000Z</time>
			</trkpt>
			<trkpt lat="50.0447278" lon="8.4051508">
				<ele>195.4</ele>
				<time>2026-08-23T08:52:13.000Z</time>
			</trkpt>
			<trkpt lat="50.0443933" lon="8.4062513">
				<ele>194.4</ele>
				<time>2026-08-23T08:52:16.000Z</time>
			</trkpt>
			<trkpt lat="50.0440573" lon="8.4073677">
				<ele>194.8</ele>
				<time>2026-08-23T08:52:19.000Z</time>
			</trkpt>
			<trkpt lat="50.0437238" lon="8.4084788">
				<ele>194.9</ele>
				<time>2026-08-23T08:52:22.000Z</time>
			</trkpt>
			<trkpt lat="50.043492" lon="8.4092267">
				<ele>194.3</ele>
				<time>2026-08-23T08:52:24.000Z</time>
			</trkpt>
			<trkpt lat="50.0432665" lon="8.4099726">
				<ele>194.4</ele>
				<time>2026-08-23T08:52:26.000Z</time>
			</trkpt>
			<trkpt lat="50.0429265" lon="8.4111091">
				<ele>194.2</ele>
				<time>2026-08-23T08:52:29.000Z</time>
			</trkpt>
			<trkpt lat="50.0425846" lon="8.4122352">
				<ele>193.8</ele>
				<time>2026-08-23T08:52:32.000Z</time>
			</trkpt>
			<trkpt lat="50.042388" lon="8.4129239">
				<ele>194.7</ele>
				<time>2026-08-23T08:52:34.000Z</time>
			</trkpt>
			<trkpt lat="50.0422257" lon="8.4134636">
				<ele>194.4</ele>
				<time>2026-08-23T08:52:36.000Z</time>
			</trkpt>
			<trkpt lat="50.0419995" lon="8.4142135">
				<ele>194.2</ele>
				<time>2026-08-23T08:52:39.000Z</time>
			</trkpt>
			<trkpt lat="50.0418506" lon="8.4147163">
				<ele>193.7</ele>
				<time>2026-08-23T08:52:41.000Z</time>
			</trkpt>
			<trkpt lat="50.0416803" lon="8.4152408">
				<ele>193.5</ele>
				<time>2026-08-23T08:52:43.000Z</time>
			</trkpt>
			<trkpt lat="50.0414443" lon="8.416053">
				<ele>192.7</ele>
				<time>2026-08-23T08:52:46.000Z</time>
			</trkpt>
			<trkpt lat="50.0412965" lon="8.4165562">
				<ele>192.5</ele>
				<time>2026-08-23T08:52:48.000Z</time>
			</trkpt>
			<trkpt lat="50.0411492" lon="8.4170469">
				<ele>192.1</ele>
				<time>2026-08-23T08:52:50.000Z</time>
			</trkpt>
			<trkpt lat="50.0410096" lon="8.4175316">
				<ele>191.9</ele>
				<time>2026-08-23T08:52:52.000Z</time>
			</trkpt>
			<trkpt lat="50.0407814" lon="8.4183105">
				<ele>191.2</ele>
				<time>2026-08-23T08:52:55.000Z</time>
			</trkpt>
			<trkpt lat="50.0405413" lon="8.4191441">
				<ele>190.4</ele>
				<time>2026-08-23T08:52:58.000Z</time>
			</trkpt>
			<trkpt lat="50.0403034" lon="8.4200306">
				<ele>189.5</ele>
				<time>2026-08-23T08:53:01.000Z</time>
			</trkpt>
			<trkpt lat="50.0400596" lon="8.4208954">
				<ele>188.2</ele>
				<time>2026-08-23T08:53:04.000Z</time>
			</trkpt>
			<trkpt lat="50.0398994" lon="8.421491">
				<ele>187.3</ele>
				<time>2026-08-23T08:53:06.000Z</time>
			</trkpt>
			<trkpt lat="50.0397336" lon="8.4220982">
				<ele>185.9</ele>
				<time>2026-08-23T08:53:08.000Z</time>
			</trkpt>
			<trkpt lat="50.0395645" lon="8.422718">
				<ele>184.6</ele>
				<time>2026-08-23T08:53:10.000Z</time>
			</trkpt>
			<trkpt lat="50.0393123" lon="8.4236767">
				<ele>182.6</ele>
				<time>2026-08-23T08:53:13.000Z</time>
			</trkpt>
			<trkpt lat="50.039053" lon="8.4246652">
				<ele>180.2</ele>
				<time>2026-08-23T08:53:16.000Z</time>
			</trkpt>
			<trkpt lat="50.0388027" lon="8.4256319">
				<ele>177.7</ele>
				<time>2026-08-23T08:53:19.000Z</time>
			</trkpt>
			<trkpt lat="50.0385689" lon="8.4265367">
				<ele>175.2</ele>
				<time>2026-08-23T08:53:22.000Z</time>
			</trkpt>
			<trkpt lat="50.0383466" lon="8.4273962">
				<ele>173</ele>
				<time>2026-08-23T08:53:25.000Z</time>
			</trkpt>
			<trkpt lat="50.0381552" lon="8.4281097">
				<ele>170.7</ele>
				<time>2026-08-23T08:53:28.000Z</time>
			</trkpt>
			<trkpt lat="50.038057" lon="8.4284894">
				<ele>169.5</ele>
				<time>2026-08-23T08:53:30.000Z</time>
			</trkpt>
			<trkpt lat="50.0379808" lon="8.4287944">
				<ele>169.1</ele>
				<time>2026-08-23T08:53:32.000Z</time>
			</trkpt>
			<trkpt lat="50.0378743" lon="8.429204">
				<ele>167.7</ele>
				<time>2026-08-23T08:53:35.000Z</time>
			</trkpt>
			<trkpt lat="50.0378019" lon="8.4294949">
				<ele>167</ele>
				<time>2026-08-23T08:53:37.000Z</time>
			</trkpt>
			<trkpt lat="50.0376851" lon="8.4299487">
				<ele>165.6</ele>
				<time>2026-08-23T08:53:40.000Z</time>
			</trkpt>
			<trkpt lat="50.037554" lon="8.4304612">
				<ele>164.9</ele>
				<time>2026-08-23T08:53:43.000Z</time>
			</trkpt>
			<trkpt lat="50.037464" lon="8.4308105">
				<ele>163.9</ele>
				<time>2026-08-23T08:53:45.000Z</time>
			</trkpt>
			<trkpt lat="50.0373685" lon="8.4311752">
				<ele>162.8</ele>
				<time>2026-08-23T08:53:47.000Z</time>
			</trkpt>
			<trkpt lat="50.0372106" lon="8.4317556">
				<ele>161.2</ele>
				<time>2026-08-23T08:53:50.000Z</time>
			</trkpt>
			<trkpt lat="50.0371064" lon="8.4321581">
				<ele>160.4</ele>
				<time>2026-08-23T08:53:52.000Z</time>
			</trkpt>
			<trkpt lat="50.0369993" lon="8.4325707">
				<ele>159.3</ele>
				<time>2026-08-23T08:53:54.000Z</time>
			</trkpt>
			<trkpt lat="50.0368341" lon="8.4332137">
				<ele>158.5</ele>
				<time>2026-08-23T08:53:57.000Z</time>
			</trkpt>
			<trkpt lat="50.0367289" lon="8.433604">
				<ele>157.6</ele>
				<time>2026-08-23T08:53:59.000Z</time>
			</trkpt>
			<trkpt lat="50.0366028" lon="8.4340841">
				<ele>156.3</ele>
				<time>2026-08-23T08:54:02.000Z</time>
			</trkpt>
			<trkpt lat="50.0365206" lon="8.4343781">
				<ele>155.7</ele>
				<time>2026-08-23T08:54:04.000Z</time>
			</trkpt>
			<trkpt lat="50.0364437" lon="8.4346784">
				<ele>155</ele>
				<time>2026-08-23T08:54:06.000Z</time>
			</trkpt>
			<trkpt lat="50.0363234" lon="8.4351279">
				<ele>153.8</ele>
				<time>2026-08-23T08:54:09.000Z</time>
			</trkpt>
			<trkpt lat="50.0362069" lon="8.435591">
				<ele>153.1</ele>
				<time>2026-08-23T08:54:12.000Z</time>
			</trkpt>
			<trkpt lat="50.0361247" lon="8.4359228">
				<ele>152.5</ele>
				<time>2026-08-23T08:54:14.000Z</time>
			</trkpt>
			<trkpt lat="50.0359827" lon="8.4364721">
				<ele>153.2</ele>
				<time>2026-08-23T08:54:17.000Z</time>
			</trkpt>
			<trkpt lat="50.0358515" lon="8.4369843">
				<ele>152.3</ele>
				<time>2026-08-23T08:54:20.000Z</time>
			</trkpt>
			<trkpt lat="50.0357163" lon="8.437505">
				<ele>151.7</ele>
				<time>2026-08-23T08:54:23.000Z</time>
			</trkpt>
			<trkpt lat="50.0355797" lon="8.4380413">
				<ele>151.3</ele>
				<time>2026-08-23T08:54:26.000Z</time>
			</trkpt>
			<trkpt lat="50.0354383" lon="8.438601">
				<ele>150.1</ele>
				<time>2026-08-23T08:54:29.000Z</time>
			</trkpt>
			<trkpt lat="50.0352696" lon="8.4392102">
				<ele>148.8</ele>
				<time>2026-08-23T08:54:32.000Z</time>
			</trkpt>
			<trkpt lat="50.0350924" lon="8.4398942">
				<ele>148.5</ele>
				<time>2026-08-23T08:54:35.000Z</time>
			</trkpt>
			<trkpt lat="50.0349135" lon="8.4405918">
				<ele>148.2</ele>
				<time>2026-08-23T08:54:38.000Z</time>
			</trkpt>
			<trkpt lat="50.0347287" lon="8.4412929">
				<ele>147.9</ele>
				<time>2026-08-23T08:54:41.000Z</time>
			</trkpt>
			<trkpt lat="50.0345508" lon="8.4419803">
				<ele>148.2</ele>
				<time>2026-08-23T08:54:44.000Z</time>
			</trkpt>
			<trkpt lat="50.034371" lon="8.4426849">
				<ele>148</ele>
				<time>2026-08-23T08:54:47.000Z</time>
			</trkpt>
			<trkpt lat="50.0341854" lon="8.4433782">
				<ele>147.7</ele>
				<time>2026-08-23T08:54:50.000Z</time>
			</trkpt>
			<trkpt lat="50.0340095" lon="8.4440745">
				<ele>147.5</ele>
				<time>2026-08-23T08:54:53.000Z</time>
			</trkpt>
			<trkpt lat="50.0338377" lon="8.4447452">
				<ele>147</ele>
				<time>2026-08-23T08:54:56.000Z</time>
			</trkpt>
			<trkpt lat="50.0337169" lon="8.4451842">
				<ele>146.6</ele>
				<time>2026-08-23T08:54:58.000Z</time>
			</trkpt>
			<trkpt lat="50.0335253" lon="8.4458628">
				<ele>146.3</ele>
				<time>2026-08-23T08:55:01.000Z</time>
			</trkpt>
			<trkpt lat="50.0333993" lon="8.4463214">
				<ele>145.8</ele>
				<time>2026-08-23T08:55:03.000Z</time>
			</trkpt>
			<trkpt lat="50.0332719" lon="8.446798">
				<ele>145.7</ele>
				<time>2026-08-23T08:55:05.000Z</time>
			</trkpt>
			<trkpt lat="50.0330784" lon="8.4475435">
				<ele>145.9</ele>
				<time>2026-08-23T08:55:08.000Z</time>
			</trkpt>
			<trkpt lat="50.0328745" lon="8.4483322">
				<ele>145.9</ele>
				<time>2026-08-23T08:55:11.000Z</time>
			</trkpt>
			<trkpt lat="50.032662" lon="8.4491585">
				<ele>146.1</ele>
				<time>2026-08-23T08:55:14.000Z</time>
			</trkpt>
			<trkpt lat="50.0325185" lon="8.4497197">
				<ele>146.1</ele>
				<time>2026-08-23T08:55:16.000Z</time>
			</trkpt>
			<trkpt lat="50.032289" lon="8.4505904">
				<ele>146.2</ele>
				<time>2026-08-23T08:55:19.000Z</time>
			</trkpt>
			<trkpt lat="50.0321277" lon="8.4511923">
				<ele>146.2</ele>
				<time>2026-08-23T08:55:21.000Z</time>
			</trkpt>
			<trkpt lat="50.0318902" lon="8.4521002">
				<ele>146.2</ele>
				<time>2026-08-23T08:55:24.000Z</time>
			</trkpt>
			<trkpt lat="50.0317269" lon="8.452724">
				<ele>146.1</ele>
				<time>2026-08-23T08:55:26.000Z</time>
			</trkpt>
			<trkpt lat="50.0314878" lon="8.453664">
				<ele>145.7</ele>
				<time>2026-08-23T08:55:29.000Z</time>
			</trkpt>
			<trkpt lat="50.0312557" lon="8.4546009">
				<ele>146</ele>
				<time>2026-08-23T08:55:32.000Z</time>
			</trkpt>
			<trkpt lat="50.0310216" lon="8.4555438">
				<ele>145.8</ele>
				<time>2026-08-23T08:55:35.000Z</time>
			</trkpt>
			<trkpt lat="50.0307811" lon="8.4564781">
				<ele>145.1</ele>
				<time>2026-08-23T08:55:38.000Z</time>
			</trkpt>
			<trkpt lat="50.0305454" lon="8.4574461">
				<ele>145.1</ele>
				<time>2026-08-23T08:55:41.000Z</time>
			</trkpt>
			<trkpt lat="50.0303154" lon="8.4584289">
				<ele>145.4</ele>
				<time>2026-08-23T08:55:44.000Z</time>
			</trkpt>
			<trkpt lat="50.0300885" lon="8.4594389">
				<ele>145.5</ele>
				<time>2026-08-23T08:55:47.000Z</time>
			</trkpt>
			<trkpt lat="50.029932" lon="8.4601218">
				<ele>145.6</ele>
				<time>2026-08-23T08:55:49.000Z</time>
			</trkpt>
			<trkpt lat="50.0297815" lon="8.4608036">
				<ele>145.8</ele>
				<time>2026-08-23T08:55:51.000Z</time>
			</trkpt>
			<trkpt lat="50.0295619" lon="8.4618284">
				<ele>147.1</ele>
				<time>2026-08-23T08:55:54.000Z</time>
			</trkpt>
			<trkpt lat="50.02942" lon="8.4624839">
				<ele>146.7</ele>
				<time>2026-08-23T08:55:56.000Z</time>
			</trkpt>
			<trkpt lat="50.029291" lon="8.4631212">
				<ele>146.6</ele>
				<time>2026-08-23T08:55:58.000Z</time>
			</trkpt>
			<trkpt lat="50.0291049" lon="8.4640657">
				<ele>147.2</ele>
				<time>2026-08-23T08:56:01.000Z</time>
			</trkpt>
			<trkpt lat="50.0289801" lon="8.4646981">
				<ele>146.8</ele>
				<time>2026-08-23T08:56:03.000Z</time>
			</trkpt>
			<trkpt lat="50.0287879" lon="8.4656772">
				<ele>147.3</ele>
				<time>2026-08-23T08:56:06.000Z</time>
			</trkpt>
			<trkpt lat="50.0285934" lon="8.4666677">
				<ele>147.8</ele>
				<time>2026-08-23T08:56:09.000Z</time>
			</trkpt>
			<trkpt lat="50.0283903" lon="8.4676728">
				<ele>147.6</ele>
				<time>2026-08-23T08:56:12.000Z</time>
			</trkpt>
			<trkpt lat="50.0282545" lon="8.4683345">
				<ele>147.8</ele>
				<time>2026-08-23T08:56:14.000Z</time>
			</trkpt>
			<trkpt lat="50.0280574" lon="8.4693299">
				<ele>147.8</ele>
				<time>2026-08-23T08:56:17.000Z</time>
			</trkpt>
			<trkpt lat="50.0279288" lon="8.4700002">
				<ele>147.8</ele>
				<time>2026-08-23T08:56:19.000Z</time>
			</trkpt>
			<trkpt lat="50.0277374" lon="8.470992">
				<ele>148</ele>
				<time>2026-08-23T08:56:22.000Z</time>
			</trkpt>
			<trkpt lat="50.0276029" lon="8.4716526">
				<ele>148.1</ele>
				<time>2026-08-23T08:56:24.000Z</time>
			</trkpt>
			<trkpt lat="50.0273974" lon="8.472665">
				<ele>148.4</ele>
				<time>2026-08-23T08:56:27.000Z</time>
			</trkpt>
			<trkpt lat="50.027194" lon="8.4737048">
				<ele>148.6</ele>
				<time>2026-08-23T08:56:30.000Z</time>
			</trkpt>
			<trkpt lat="50.0269826" lon="8.474757">
				<ele>148.7</ele>
				<time>2026-08-23T08:56:33.000Z</time>
			</trkpt>
			<trkpt lat="50.0268423" lon="8.4754635">
				<ele>148.8</ele>
				<time>2026-08-23T08:56:35.000Z</time>
			</trkpt>
			<trkpt lat="50.0266308" lon="8.4765223">
				<ele>148.8</ele>
				<time>2026-08-23T08:56:38.000Z</time>
			</trkpt>
			<trkpt lat="50.0264971" lon="8.4772045">
				<ele>148.9</ele>
				<time>2026-08-23T08:56:40.000Z</time>
			</trkpt>
			<trkpt lat="50.0263633" lon="8.4778786">
				<ele>148.9</ele>
				<time>2026-08-23T08:56:42.000Z</time>
			</trkpt>
			<trkpt lat="50.0261662" lon="8.4788742">
				<ele>147.5</ele>
				<time>2026-08-23T08:56:45.000Z</time>
			</trkpt>
			<trkpt lat="50.0260566" lon="8.4795636">
				<ele>147.2</ele>
				<time>2026-08-23T08:56:47.000Z</time>
			</trkpt>
			<trkpt lat="50.0259018" lon="8.4806107">
				<ele>145.8</ele>
				<time>2026-08-23T08:56:50.000Z</time>
			</trkpt>
			<trkpt lat="50.0257658" lon="8.4817108">
				<ele>146.6</ele>
				<time>2026-08-23T08:56:53.000Z</time>
			</trkpt>
			<trkpt lat="50.0256595" lon="8.4828552">
				<ele>146</ele>
				<time>2026-08-23T08:56:56.000Z</time>
			</trkpt>
			<trkpt lat="50.0255987" lon="8.4840013">
				<ele>146.2</ele>
				<time>2026-08-23T08:56:59.000Z</time>
			</trkpt>
			<trkpt lat="50.0255766" lon="8.4851416">
				<ele>146.5</ele>
				<time>2026-08-23T08:57:02.000Z</time>
			</trkpt>
			<trkpt lat="50.0255948" lon="8.4862575">
				<ele>146.3</ele>
				<time>2026-08-23T08:57:05.000Z</time>
			</trkpt>
			<trkpt lat="50.0256164" lon="8.4870059">
				<ele>146.4</ele>
				<time>2026-08-23T08:57:07.000Z</time>
			</trkpt>
			<trkpt lat="50.0257022" lon="8.4881185">
				<ele>145.5</ele>
				<time>2026-08-23T08:57:10.000Z</time>
			</trkpt>
			<trkpt lat="50.0258278" lon="8.489256">
				<ele>145.5</ele>
				<time>2026-08-23T08:57:13.000Z</time>
			</trkpt>
			<trkpt lat="50.0259927" lon="8.4904013">
				<ele>145.4</ele>
				<time>2026-08-23T08:57:16.000Z</time>
			</trkpt>
			<trkpt lat="50.0261996" lon="8.491529">
				<ele>145.1</ele>
				<time>2026-08-23T08:57:19.000Z</time>
			</trkpt>
			<trkpt lat="50.0263628" lon="8.4922836">
				<ele>144.7</ele>
				<time>2026-08-23T08:57:21.000Z</time>
			</trkpt>
			<trkpt lat="50.0266389" lon="8.4933991">
				<ele>144.7</ele>
				<time>2026-08-23T08:57:24.000Z</time>
			</trkpt>
			<trkpt lat="50.0268459" lon="8.4941324">
				<ele>144.8</ele>
				<time>2026-08-23T08:57:26.000Z</time>
			</trkpt>
			<trkpt lat="50.0270728" lon="8.4948512">
				<ele>144</ele>
				<time>2026-08-23T08:57:28.000Z</time>
			</trkpt>
			<trkpt lat="50.0274558" lon="8.495932">
				<ele>144.1</ele>
				<time>2026-08-23T08:57:31.000Z</time>
			</trkpt>
			<trkpt lat="50.0277336" lon="8.4966565">
				<ele>144</ele>
				<time>2026-08-23T08:57:33.000Z</time>
			</trkpt>
			<trkpt lat="50.0281633" lon="8.4977477">
				<ele>144.4</ele>
				<time>2026-08-23T08:57:36.000Z</time>
			</trkpt>
			<trkpt lat="50.0284512" lon="8.4984779">
				<ele>144.6</ele>
				<time>2026-08-23T08:57:38.000Z</time>
			</trkpt>
			<trkpt lat="50.0287488" lon="8.4992076">
				<ele>144.7</ele>
				<time>2026-08-23T08:57:40.000Z</time>
			</trkpt>
			<trkpt lat="50.0291918" lon="8.5003158">
				<ele>144</ele>
				<time>2026-08-23T08:57:43.000Z</time>
			</trkpt>
			<trkpt lat="50.0294873" lon="8.5010547">
				<ele>143.9</ele>
				<time>2026-08-23T08:57:45.000Z</time>
			</trkpt>
			<trkpt lat="50.029784" lon="8.5018002">
				<ele>143.8</ele>
				<time>2026-08-23T08:57:47.000Z</time>
			</trkpt>
			<trkpt lat="50.0302123" lon="8.5029283">
				<ele>143.4</ele>
				<time>2026-08-23T08:57:50.000Z</time>
			</trkpt>
			<trkpt lat="50.0304987" lon="8.5036652">
				<ele>143.3</ele>
				<time>2026-08-23T08:57:52.000Z</time>
			</trkpt>
			<trkpt lat="50.0309323" lon="8.5047496">
				<ele>143.2</ele>
				<time>2026-08-23T08:57:55.000Z</time>
			</trkpt>
			<trkpt lat="50.0312176" lon="8.5054658">
				<ele>143.1</ele>
				<time>2026-08-23T08:57:57.000Z</time>
			</trkpt>
			<trkpt lat="50.0316346" lon="8.5065084">
				<ele>143.3</ele>
				<time>2026-08-23T08:58:00.000Z</time>
			</trkpt>
			<trkpt lat="50.0319164" lon="8.5072127">
				<ele>143.2</ele>
				<time>2026-08-23T08:58:02.000Z</time>
			</trkpt>
			<trkpt lat="50.0322054" lon="8.5079294">
				<ele>144.3</ele>
				<time>2026-08-23T08:58:04.000Z</time>
			</trkpt>
			<trkpt lat="50.0326337" lon="8.5090164">
				<ele>144.4</ele>
				<time>2026-08-23T08:58:07.000Z</time>
			</trkpt>
			<trkpt lat="50.0330701" lon="8.5101249">
				<ele>144.6</ele>
				<time>2026-08-23T08:58:10.000Z</time>
			</trkpt>
			<trkpt lat="50.0335137" lon="8.5112286">
				<ele>144.8</ele>
				<time>2026-08-23T08:58:13.000Z</time>
			</trkpt>
			<trkpt lat="50.0338103" lon="8.5119687">
				<ele>145</ele>
				<time>2026-08-23T08:58:15.000Z</time>
			</trkpt>
			<trkpt lat="50.0342558" lon="8.5130801">
				<ele>145.5</ele>
				<time>2026-08-23T08:58:18.000Z</time>
			</trkpt>
			<trkpt lat="50.0345487" lon="8.5138168">
				<ele>145.7</ele>
				<time>2026-08-23T08:58:20.000Z</time>
			</trkpt>
			<trkpt lat="50.0348414" lon="8.5145399">
				<ele>146.1</ele>
				<time>2026-08-23T08:58:22.000Z</time>
			</trkpt>
			<trkpt lat="50.0352803" lon="8.5156281">
				<ele>145.8</ele>
				<time>2026-08-23T08:58:25.000Z</time>
			</trkpt>
			<trkpt lat="50.035723" lon="8.5167315">
				<ele>145.9</ele>
				<time>2026-08-23T08:58:28.000Z</time>
			</trkpt>
			<trkpt lat="50.0360148" lon="8.5174561">
				<ele>145.5</ele>
				<time>2026-08-23T08:58:30.000Z</time>
			</trkpt>
			<trkpt lat="50.0363076" lon="8.5181642">
				<ele>146.8</ele>
				<time>2026-08-23T08:58:32.000Z</time>
			</trkpt>
			<trkpt lat="50.0367358" lon="8.5192345">
				<ele>147.5</ele>
				<time>2026-08-23T08:58:35.000Z</time>
			</trkpt>
			<trkpt lat="50.0370228" lon="8.5199458">
				<ele>147.9</ele>
				<time>2026-08-23T08:58:37.000Z</time>
			</trkpt>
			<trkpt lat="50.0373119" lon="8.5206601">
				<ele>148.2</ele>
				<time>2026-08-23T08:58:39.000Z</time>
			</trkpt>
			<trkpt lat="50.0377359" lon="8.5217256">
				<ele>148.4</ele>
				<time>2026-08-23T08:58:42.000Z</time>
			</trkpt>
			<trkpt lat="50.0381496" lon="8.5227689">
				<ele>148.6</ele>
				<time>2026-08-23T08:58:45.000Z</time>
			</trkpt>
			<trkpt lat="50.0384243" lon="8.5234565">
				<ele>149</ele>
				<time>2026-08-23T08:58:47.000Z</time>
			</trkpt>
			<trkpt lat="50.0386945" lon="8.5241282">
				<ele>148.9</ele>
				<time>2026-08-23T08:58:49.000Z</time>
			</trkpt>
			<trkpt lat="50.0391014" lon="8.5251375">
				<ele>149.2</ele>
				<time>2026-08-23T08:58:52.000Z</time>
			</trkpt>
			<trkpt lat="50.0395057" lon="8.5261707">
				<ele>149.7</ele>
				<time>2026-08-23T08:58:55.000Z</time>
			</trkpt>
			<trkpt lat="50.0399112" lon="8.5271889">
				<ele>149.6</ele>
				<time>2026-08-23T08:58:58.000Z</time>
			</trkpt>
			<trkpt lat="50.0401821" lon="8.5278644">
				<ele>149.9</ele>
				<time>2026-08-23T08:59:00.000Z</time>
			</trkpt>
			<trkpt lat="50.0405554" lon="8.5287957">
				<ele>150.7</ele>
				<time>2026-08-23T08:59:03.000Z</time>
			</trkpt>
			<trkpt lat="50.0408875" lon="8.5296285">
				<ele>151.2</ele>
				<time>2026-08-23T08:59:06.000Z</time>
			</trkpt>
			<trkpt lat="50.0410978" lon="8.5301587">
				<ele>151.3</ele>
				<time>2026-08-23T08:59:08.000Z</time>
			</trkpt>
			<trkpt lat="50.0414186" lon="8.530962">
				<ele>151.4</ele>
				<time>2026-08-23T08:59:11.000Z</time>
			</trkpt>
			<trkpt lat="50.0417466" lon="8.531791">
				<ele>151.6</ele>
				<time>2026-08-23T08:59:14.000Z</time>
			</trkpt>
			<trkpt lat="50.042091" lon="8.5326592">
				<ele>152</ele>
				<time>2026-08-23T08:59:17.000Z</time>
			</trkpt>
			<trkpt lat="50.042438" lon="8.5335403">
				<ele>152.9</ele>
				<time>2026-08-23T08:59:20.000Z</time>
			</trkpt>
			<trkpt lat="50.0426753" lon="8.5341315">
				<ele>152.7</ele>
				<time>2026-08-23T08:59:22.000Z</time>
			</trkpt>
			<trkpt lat="50.0430354" lon="8.5350339">
				<ele>152.8</ele>
				<time>2026-08-23T08:59:25.000Z</time>
			</trkpt>
			<trkpt lat="50.043276" lon="8.5356411">
				<ele>152.6</ele>
				<time>2026-08-23T08:59:27.000Z</time>
			</trkpt>
			<trkpt lat="50.0436371" lon="8.536546">
				<ele>152.5</ele>
				<time>2026-08-23T08:59:30.000Z</time>
			</trkpt>
			<trkpt lat="50.0440055" lon="8.5374508">
				<ele>152.5</ele>
				<time>2026-08-23T08:59:33.000Z</time>
			</trkpt>
			<trkpt lat="50.0449772" lon="8.539951">
				<ele>151.5</ele>
				<time>2026-08-23T08:59:41.000Z</time>
			</trkpt>
			<trkpt lat="50.0453412" lon="8.540831">
				<ele>152</ele>
				<time>2026-08-23T08:59:44.000Z</time>
			</trkpt>
			<trkpt lat="50.0455825" lon="8.5414242">
				<ele>151.5</ele>
				<time>2026-08-23T08:59:46.000Z</time>
			</trkpt>
			<trkpt lat="50.0459645" lon="8.5423685">
				<ele>152.2</ele>
				<time>2026-08-23T08:59:49.000Z</time>
			</trkpt>
			<trkpt lat="50.0463439" lon="8.5433174">
				<ele>152</ele>
				<time>2026-08-23T08:59:52.000Z</time>
			</trkpt>
			<trkpt lat="50.0465972" lon="8.5439682">
				<ele>151.5</ele>
				<time>2026-08-23T08:59:54.000Z</time>
			</trkpt>
			<trkpt lat="50.0469706" lon="8.5449903">
				<ele>150.8</ele>
				<time>2026-08-23T08:59:57.000Z</time>
			</trkpt>
			<trkpt lat="50.0473238" lon="8.5460283">
				<ele>150.2</ele>
				<time>2026-08-23T09:00:00.000Z</time>
			</trkpt>
			<trkpt lat="50.0476488" lon="8.5471182">
				<ele>150.7</ele>
				<time>2026-08-23T09:00:03.000Z</time>
			</trkpt>
			<trkpt lat="50.0479591" lon="8.5482251">
				<ele>151.7</ele>
				<time>2026-08-23T09:00:06.000Z</time>
			</trkpt>
			<trkpt lat="50.048147" lon="8.5489625">
				<ele>151.2</ele>
				<time>2026-08-23T09:00:08.000Z</time>
			</trkpt>
			<trkpt lat="50.048419" lon="8.550115">
				<ele>151.8</ele>
				<time>2026-08-23T09:00:11.000Z</time>
			</trkpt>
			<trkpt lat="50.0486647" lon="8.5512723">
				<ele>152.5</ele>
				<time>2026-08-23T09:00:14.000Z</time>
			</trkpt>
			<trkpt lat="50.0489104" lon="8.5524632">
				<ele>153.9</ele>
				<time>2026-08-23T09:00:17.000Z</time>
			</trkpt>
			<trkpt lat="50.049145" lon="8.5536394">
				<ele>154.2</ele>
				<time>2026-08-23T09:00:20.000Z</time>
			</trkpt>
			<trkpt lat="50.0493912" lon="8.5548469">
				<ele>156.3</ele>
				<time>2026-08-23T09:00:23.000Z</time>
			</trkpt>
			<trkpt lat="50.0496289" lon="8.5560419">
				<ele>157.5</ele>
				<time>2026-08-23T09:00:26.000Z</time>
			</trkpt>
			<trkpt lat="50.0497923" lon="8.5568356">
				<ele>158.3</ele>
				<time>2026-08-23T09:00:28.000Z</time>
			</trkpt>
			<trkpt lat="50.0500282" lon="8.5580034">
				<ele>158.2</ele>
				<time>2026-08-23T09:00:31.000Z</time>
			</trkpt>
			<trkpt lat="50.050267" lon="8.5591615">
				<ele>157.3</ele>
				<time>2026-08-23T09:00:34.000Z</time>
			</trkpt>
			<trkpt lat="50.0505021" lon="8.5603244">
				<ele>157.1</ele>
				<time>2026-08-23T09:00:37.000Z</time>
			</trkpt>
			<trkpt lat="50.0507368" lon="8.5614906">
				<ele>157</ele>
				<time>2026-08-23T09:00:40.000Z</time>
			</trkpt>
			<trkpt lat="50.0509713" lon="8.5626396">
				<ele>156.3</ele>
				<time>2026-08-23T09:00:43.000Z</time>
			</trkpt>
			<trkpt lat="50.0511926" lon="8.5638176">
				<ele>156.1</ele>
				<time>2026-08-23T09:00:46.000Z</time>
			</trkpt>
			<trkpt lat="50.051412" lon="8.5649762">
				<ele>156.4</ele>
				<time>2026-08-23T09:00:49.000Z</time>
			</trkpt>
			<trkpt lat="50.0515662" lon="8.5657381">
				<ele>156.1</ele>
				<time>2026-08-23T09:00:51.000Z</time>
			</trkpt>
			<trkpt lat="50.0517884" lon="8.5668938">
				<ele>156.6</ele>
				<time>2026-08-23T09:00:54.000Z</time>
			</trkpt>
			<trkpt lat="50.0519391" lon="8.567654">
				<ele>157.3</ele>
				<time>2026-08-23T09:00:56.000Z</time>
			</trkpt>
			<trkpt lat="50.052082" lon="8.5684077">
				<ele>158</ele>
				<time>2026-08-23T09:00:58.000Z</time>
			</trkpt>
			<trkpt lat="50.0523016" lon="8.5695455">
				<ele>158.4</ele>
				<time>2026-08-23T09:01:01.000Z</time>
			</trkpt>
			<trkpt lat="50.0524356" lon="8.5702458">
				<ele>157.6</ele>
				<time>2026-08-23T09:01:03.000Z</time>
			</trkpt>
			<trkpt lat="50.0526549" lon="8.5713721">
				<ele>158.4</ele>
				<time>2026-08-23T09:01:06.000Z</time>
			</trkpt>
			<trkpt lat="50.0528028" lon="8.5721308">
				<ele>159.9</ele>
				<time>2026-08-23T09:01:08.000Z</time>
			</trkpt>
			<trkpt lat="50.0529282" lon="8.5728848">
				<ele>162.2</ele>
				<time>2026-08-23T09:01:10.000Z</time>
			</trkpt>
			<trkpt lat="50.0531149" lon="8.5740118">
				<ele>163.5</ele>
				<time>2026-08-23T09:01:13.000Z</time>
			</trkpt>
			<trkpt lat="50.0532293" lon="8.5747688">
				<ele>164.2</ele>
				<time>2026-08-23T09:01:15.000Z</time>
			</trkpt>
			<trkpt lat="50.0533348" lon="8.5755227">
				<ele>164</ele>
				<time>2026-08-23T09:01:17.000Z</time>
			</trkpt>
			<trkpt lat="50.0534742" lon="8.5766521">
				<ele>162.9</ele>
				<time>2026-08-23T09:01:20.000Z</time>
			</trkpt>
			<trkpt lat="50.0535554" lon="8.5774324">
				<ele>162.9</ele>
				<time>2026-08-23T09:01:22.000Z</time>
			</trkpt>
			<trkpt lat="50.0536499" lon="8.5785969">
				<ele>163.3</ele>
				<time>2026-08-23T09:01:25.000Z</time>
			</trkpt>
			<trkpt lat="50.053725" lon="8.5797806">
				<ele>164.1</ele>
				<time>2026-08-23T09:01:28.000Z</time>
			</trkpt>
			<trkpt lat="50.0537555" lon="8.5805809">
				<ele>164.7</ele>
				<time>2026-08-23T09:01:30.000Z</time>
			</trkpt>
			<trkpt lat="50.0537781" lon="8.5813891">
				<ele>164.9</ele>
				<time>2026-08-23T09:01:32.000Z</time>
			</trkpt>
			<trkpt lat="50.0537881" lon="8.5826128">
				<ele>164.8</ele>
				<time>2026-08-23T09:01:35.000Z</time>
			</trkpt>
			<trkpt lat="50.0537719" lon="8.5834301">
				<ele>164.5</ele>
				<time>2026-08-23T09:01:37.000Z</time>
			</trkpt>
			<trkpt lat="50.0537375" lon="8.5846371">
				<ele>165.7</ele>
				<time>2026-08-23T09:01:40.000Z</time>
			</trkpt>
			<trkpt lat="50.0536852" lon="8.5858291">
				<ele>166.8</ele>
				<time>2026-08-23T09:01:43.000Z</time>
			</trkpt>
			<trkpt lat="50.0536284" lon="8.5869963">
				<ele>167.7</ele>
				<time>2026-08-23T09:01:46.000Z</time>
			</trkpt>
			<trkpt lat="50.0535708" lon="8.5881555">
				<ele>167.4</ele>
				<time>2026-08-23T09:01:49.000Z</time>
			</trkpt>
			<trkpt lat="50.0535161" lon="8.5892963">
				<ele>167.1</ele>
				<time>2026-08-23T09:01:52.000Z</time>
			</trkpt>
			<trkpt lat="50.0534836" lon="8.5900385">
				<ele>166.8</ele>
				<time>2026-08-23T09:01:54.000Z</time>
			</trkpt>
			<trkpt lat="50.0534368" lon="8.5911203">
				<ele>167.5</ele>
				<time>2026-08-23T09:01:57.000Z</time>
			</trkpt>
			<trkpt lat="50.05341" lon="8.591821">
				<ele>167.9</ele>
				<time>2026-08-23T09:01:59.000Z</time>
			</trkpt>
			<trkpt lat="50.0533752" lon="8.5925337">
				<ele>167.9</ele>
				<time>2026-08-23T09:02:01.000Z</time>
			</trkpt>
			<trkpt lat="50.0533446" lon="8.5932487">
				<ele>168</ele>
				<time>2026-08-23T09:02:03.000Z</time>
			</trkpt>
			<trkpt lat="50.0532938" lon="8.5943256">
				<ele>167.4</ele>
				<time>2026-08-23T09:02:06.000Z</time>
			</trkpt>
			<trkpt lat="50.0532673" lon="8.595063">
				<ele>167.8</ele>
				<time>2026-08-23T09:02:08.000Z</time>
			</trkpt>
			<trkpt lat="50.0532126" lon="8.5961637">
				<ele>167.7</ele>
				<time>2026-08-23T09:02:11.000Z</time>
			</trkpt>
			<trkpt lat="50.0531516" lon="8.5972573">
				<ele>167.6</ele>
				<time>2026-08-23T09:02:14.000Z</time>
			</trkpt>
			<trkpt lat="50.0531156" lon="8.5979969">
				<ele>167.9</ele>
				<time>2026-08-23T09:02:16.000Z</time>
			</trkpt>
			<trkpt lat="50.0530776" lon="8.5987318">
				<ele>168.2</ele>
				<time>2026-08-23T09:02:18.000Z</time>
			</trkpt>
			<trkpt lat="50.0530451" lon="8.5994526">
				<ele>168.5</ele>
				<time>2026-08-23T09:02:20.000Z</time>
			</trkpt>
			<trkpt lat="50.0530129" lon="8.6001751">
				<ele>168.1</ele>
				<time>2026-08-23T09:02:22.000Z</time>
			</trkpt>
			<trkpt lat="50.0529798" lon="8.6009031">
				<ele>167.9</ele>
				<time>2026-08-23T09:02:24.000Z</time>
			</trkpt>
			<trkpt lat="50.0529276" lon="8.6020329">
				<ele>168.4</ele>
				<time>2026-08-23T09:02:27.000Z</time>
			</trkpt>
			<trkpt lat="50.0528732" lon="8.6031674">
				<ele>167.9</ele>
				<time>2026-08-23T09:02:30.000Z</time>
			</trkpt>
			<trkpt lat="50.0528189" lon="8.6043509">
				<ele>168.4</ele>
				<time>2026-08-23T09:02:33.000Z</time>
			</trkpt>
			<trkpt lat="50.0527786" lon="8.6051466">
				<ele>168</ele>
				<time>2026-08-23T09:02:35.000Z</time>
			</trkpt>
			<trkpt lat="50.0527178" lon="8.6063575">
				<ele>167.9</ele>
				<time>2026-08-23T09:02:38.000Z</time>
			</trkpt>
			<trkpt lat="50.0526837" lon="8.6071732">
				<ele>168.1</ele>
				<time>2026-08-23T09:02:40.000Z</time>
			</trkpt>
			<trkpt lat="50.0526486" lon="8.6080047">
				<ele>168.3</ele>
				<time>2026-08-23T09:02:42.000Z</time>
			</trkpt>
			<trkpt lat="50.0525976" lon="8.6092666">
				<ele>168.6</ele>
				<time>2026-08-23T09:02:45.000Z</time>
			</trkpt>
			<trkpt lat="50.0525292" lon="8.6105521">
				<ele>168.5</ele>
				<time>2026-08-23T09:02:48.000Z</time>
			</trkpt>
			<trkpt lat="50.0524485" lon="8.6118564">
				<ele>167.8</ele>
				<time>2026-08-23T09:02:51.000Z</time>
			</trkpt>
			<trkpt lat="50.052391" lon="8.6131903">
				<ele>168.3</ele>
				<time>2026-08-23T09:02:54.000Z</time>
			</trkpt>
			<trkpt lat="50.0523477" lon="8.6140643">
				<ele>168.5</ele>
				<time>2026-08-23T09:02:56.000Z</time>
			</trkpt>
			<trkpt lat="50.0522935" lon="8.6153906">
				<ele>169.1</ele>
				<time>2026-08-23T09:02:59.000Z</time>
			</trkpt>
			<trkpt lat="50.0522342" lon="8.616735">
				<ele>169.3</ele>
				<time>2026-08-23T09:03:02.000Z</time>
			</trkpt>
			<trkpt lat="50.0521759" lon="8.6180648">
				<ele>169</ele>
				<time>2026-08-23T09:03:05.000Z</time>
			</trkpt>
			<trkpt lat="50.0521469" lon="8.6189277">
				<ele>169.2</ele>
				<time>2026-08-23T09:03:07.000Z</time>
			</trkpt>
			<trkpt lat="50.0521276" lon="8.6202268">
				<ele>168.9</ele>
				<time>2026-08-23T09:03:10.000Z</time>
			</trkpt>
			<trkpt lat="50.0521398" lon="8.621074">
				<ele>167.7</ele>
				<time>2026-08-23T09:03:12.000Z</time>
			</trkpt>
			<trkpt lat="50.0521657" lon="8.6219418">
				<ele>166.3</ele>
				<time>2026-08-23T09:03:14.000Z</time>
			</trkpt>
			<trkpt lat="50.0522116" lon="8.6228267">
				<ele>165</ele>
				<time>2026-08-23T09:03:16.000Z</time>
			</trkpt>
			<trkpt lat="50.0522782" lon="8.6237062">
				<ele>164.3</ele>
				<time>2026-08-23T09:03:18.000Z</time>
			</trkpt>
			<trkpt lat="50.0523642" lon="8.6245764">
				<ele>163.6</ele>
				<time>2026-08-23T09:03:20.000Z</time>
			</trkpt>
			<trkpt lat="50.0525201" lon="8.6258512">
				<ele>161.6</ele>
				<time>2026-08-23T09:03:23.000Z</time>
			</trkpt>
			<trkpt lat="50.0526494" lon="8.6266896">
				<ele>161.2</ele>
				<time>2026-08-23T09:03:25.000Z</time>
			</trkpt>
			<trkpt lat="50.0528832" lon="8.6279227">
				<ele>160.1</ele>
				<time>2026-08-23T09:03:28.000Z</time>
			</trkpt>
			<trkpt lat="50.0531829" lon="8.6291625">
				<ele>158.9</ele>
				<time>2026-08-23T09:03:31.000Z</time>
			</trkpt>
			<trkpt lat="50.0534108" lon="8.6300117">
				<ele>158.4</ele>
				<time>2026-08-23T09:03:33.000Z</time>
			</trkpt>
			<trkpt lat="50.0536418" lon="8.6308787">
				<ele>158.5</ele>
				<time>2026-08-23T09:03:35.000Z</time>
			</trkpt>
			<trkpt lat="50.0539883" lon="8.6321302">
				<ele>157.2</ele>
				<time>2026-08-23T09:03:38.000Z</time>
			</trkpt>
			<trkpt lat="50.054344" lon="8.6333684">
				<ele>156.6</ele>
				<time>2026-08-23T09:03:41.000Z</time>
			</trkpt>
			<trkpt lat="50.0546894" lon="8.6346043">
				<ele>156.7</ele>
				<time>2026-08-23T09:03:44.000Z</time>
			</trkpt>
			<trkpt lat="50.0549095" lon="8.6354189">
				<ele>156.8</ele>
				<time>2026-08-23T09:03:46.000Z</time>
			</trkpt>
			<trkpt lat="50.0552524" lon="8.6366455">
				<ele>157.7</ele>
				<time>2026-08-23T09:03:49.000Z</time>
			</trkpt>
			<trkpt lat="50.0555975" lon="8.6378496">
				<ele>157.5</ele>
				<time>2026-08-23T09:03:52.000Z</time>
			</trkpt>
			<trkpt lat="50.0559482" lon="8.6390656">
				<ele>158</ele>
				<time>2026-08-23T09:03:55.000Z</time>
			</trkpt>
			<trkpt lat="50.0561895" lon="8.6398624">
				<ele>158.2</ele>
				<time>2026-08-23T09:03:57.000Z</time>
			</trkpt>
			<trkpt lat="50.0565401" lon="8.6410758">
				<ele>157.5</ele>
				<time>2026-08-23T09:04:00.000Z</time>
			</trkpt>
			<trkpt lat="50.0568944" lon="8.6423054">
				<ele>157.6</ele>
				<time>2026-08-23T09:04:03.000Z</time>
			</trkpt>
			<trkpt lat="50.057238" lon="8.6435507">
				<ele>156.4</ele>
				<time>2026-08-23T09:04:06.000Z</time>
			</trkpt>
			<trkpt lat="50.0574741" lon="8.6443788">
				<ele>156.6</ele>
				<time>2026-08-23T09:04:08.000Z</time>
			</trkpt>
			<trkpt lat="50.0578173" lon="8.6456128">
				<ele>156.1</ele>
				<time>2026-08-23T09:04:11.000Z</time>
			</trkpt>
			<trkpt lat="50.0580522" lon="8.6464237">
				<ele>156.4</ele>
				<time>2026-08-23T09:04:13.000Z</time>
			</trkpt>
			<trkpt lat="50.0584126" lon="8.6476446">
				<ele>159.2</ele>
				<time>2026-08-23T09:04:16.000Z</time>
			</trkpt>
			<trkpt lat="50.0587602" lon="8.6488804">
				<ele>158.5</ele>
				<time>2026-08-23T09:04:19.000Z</time>
			</trkpt>
			<trkpt lat="50.0591131" lon="8.6500999">
				<ele>159.1</ele>
				<time>2026-08-23T09:04:22.000Z</time>
			</trkpt>
			<trkpt lat="50.0594594" lon="8.6513424">
				<ele>159.4</ele>
				<time>2026-08-23T09:04:25.000Z</time>
			</trkpt>
			<trkpt lat="50.0596797" lon="8.652181">
				<ele>159.6</ele>
				<time>2026-08-23T09:04:27.000Z</time>
			</trkpt>
			<trkpt lat="50.0599944" lon="8.6534453">
				<ele>159.8</ele>
				<time>2026-08-23T09:04:30.000Z</time>
			</trkpt>
			<trkpt lat="50.0601808" lon="8.6543154">
				<ele>160.3</ele>
				<time>2026-08-23T09:04:32.000Z</time>
			</trkpt>
			<trkpt lat="50.0603488" lon="8.6551754">
				<ele>159.4</ele>
				<time>2026-08-23T09:04:34.000Z</time>
			</trkpt>
			<trkpt lat="50.0605592" lon="8.6565119">
				<ele>160.2</ele>
				<time>2026-08-23T09:04:37.000Z</time>
			</trkpt>
			<trkpt lat="50.0606828" lon="8.6574062">
				<ele>160.5</ele>
				<time>2026-08-23T09:04:39.000Z</time>
			</trkpt>
			<trkpt lat="50.0608239" lon="8.6587497">
				<ele>161.2</ele>
				<time>2026-08-23T09:04:42.000Z</time>
			</trkpt>
			<trkpt lat="50.0609158" lon="8.6600834">
				<ele>163.1</ele>
				<time>2026-08-23T09:04:45.000Z</time>
			</trkpt>
			<trkpt lat="50.0609583" lon="8.6609584">
				<ele>163.9</ele>
				<time>2026-08-23T09:04:47.000Z</time>
			</trkpt>
			<trkpt lat="50.0610105" lon="8.6622862">
				<ele>165.7</ele>
				<time>2026-08-23T09:04:50.000Z</time>
			</trkpt>
			<trkpt lat="50.0610461" lon="8.6636232">
				<ele>168</ele>
				<time>2026-08-23T09:04:53.000Z</time>
			</trkpt>
			<trkpt lat="50.0610803" lon="8.6649379">
				<ele>169.8</ele>
				<time>2026-08-23T09:04:56.000Z</time>
			</trkpt>
			<trkpt lat="50.0610931" lon="8.6657968">
				<ele>170.1</ele>
				<time>2026-08-23T09:04:58.000Z</time>
			</trkpt>
			<trkpt lat="50.0611068" lon="8.6670715">
				<ele>170.8</ele>
				<time>2026-08-23T09:05:01.000Z</time>
			</trkpt>
			<trkpt lat="50.0611151" lon="8.6683237">
				<ele>171.3</ele>
				<time>2026-08-23T09:05:04.000Z</time>
			</trkpt>
			<trkpt lat="50.0611277" lon="8.6691492">
				<ele>171.1</ele>
				<time>2026-08-23T09:05:06.000Z</time>
			</trkpt>
			<trkpt lat="50.0611517" lon="8.670412">
				<ele>170.9</ele>
				<time>2026-08-23T09:05:09.000Z</time>
			</trkpt>
			<trkpt lat="50.0611633" lon="8.6712638">
				<ele>169.6</ele>
				<time>2026-08-23T09:05:11.000Z</time>
			</trkpt>
			<trkpt lat="50.0611797" lon="8.6725705">
				<ele>168.6</ele>
				<time>2026-08-23T09:05:14.000Z</time>
			</trkpt>
			<trkpt lat="50.0611899" lon="8.6738901">
				<ele>168.3</ele>
				<time>2026-08-23T09:05:17.000Z</time>
			</trkpt>
			<trkpt lat="50.061198" lon="8.6747724">
				<ele>167.8</ele>
				<time>2026-08-23T09:05:19.000Z</time>
			</trkpt>
			<trkpt lat="50.0612046" lon="8.6756607">
				<ele>167.4</ele>
				<time>2026-08-23T09:05:21.000Z</time>
			</trkpt>
			<trkpt lat="50.0612063" lon="8.677006">
				<ele>166.9</ele>
				<time>2026-08-23T09:05:24.000Z</time>
			</trkpt>
			<trkpt lat="50.0612063" lon="8.6783452">
				<ele>166.6</ele>
				<time>2026-08-23T09:05:27.000Z</time>
			</trkpt>
			<trkpt lat="50.0612065" lon="8.6796896">
				<ele>167.2</ele>
				<time>2026-08-23T09:05:30.000Z</time>
			</trkpt>
			<trkpt lat="50.0612038" lon="8.6805812">
				<ele>167.3</ele>
				<time>2026-08-23T09:05:32.000Z</time>
			</trkpt>
			<trkpt lat="50.0611904" lon="8.6819319">
				<ele>169.4</ele>
				<time>2026-08-23T09:05:35.000Z</time>
			</trkpt>
			<trkpt lat="50.0611666" lon="8.6832841">
				<ele>170.7</ele>
				<time>2026-08-23T09:05:38.000Z</time>
			</trkpt>
			<trkpt lat="50.0611436" lon="8.6846398">
				<ele>171.8</ele>
				<time>2026-08-23T09:05:41.000Z</time>
			</trkpt>
			<trkpt lat="50.0611331" lon="8.6859913">
				<ele>173.3</ele>
				<time>2026-08-23T09:05:44.000Z</time>
			</trkpt>
			<trkpt lat="50.06113" lon="8.6868847">
				<ele>174.2</ele>
				<time>2026-08-23T09:05:46.000Z</time>
			</trkpt>
			<trkpt lat="50.0611332" lon="8.6877775">
				<ele>175.3</ele>
				<time>2026-08-23T09:05:48.000Z</time>
			</trkpt>
			<trkpt lat="50.0611281" lon="8.6891249">
				<ele>176.7</ele>
				<time>2026-08-23T09:05:51.000Z</time>
			</trkpt>
			<trkpt lat="50.0611215" lon="8.6904814">
				<ele>177.7</ele>
				<time>2026-08-23T09:05:54.000Z</time>
			</trkpt>
			<trkpt lat="50.061121" lon="8.6913843">
				<ele>177.7</ele>
				<time>2026-08-23T09:05:56.000Z</time>
			</trkpt>
			<trkpt lat="50.0611313" lon="8.6927438">
				<ele>178.2</ele>
				<time>2026-08-23T09:05:59.000Z</time>
			</trkpt>
			<trkpt lat="50.061142" lon="8.6936466">
				<ele>178</ele>
				<time>2026-08-23T09:06:01.000Z</time>
			</trkpt>
			<trkpt lat="50.0611652" lon="8.6949638">
				<ele>178.1</ele>
				<time>2026-08-23T09:06:04.000Z</time>
			</trkpt>
			<trkpt lat="50.0611919" lon="8.6958251">
				<ele>177.5</ele>
				<time>2026-08-23T09:06:06.000Z</time>
			</trkpt>
			<trkpt lat="50.0612297" lon="8.6971179">
				<ele>176.4</ele>
				<time>2026-08-23T09:06:09.000Z</time>
			</trkpt>
			<trkpt lat="50.0612579" lon="8.6979927">
				<ele>175.5</ele>
				<time>2026-08-23T09:06:11.000Z</time>
			</trkpt>
			<trkpt lat="50.0613349" lon="8.69932">
				<ele>175.3</ele>
				<time>2026-08-23T09:06:14.000Z</time>
			</trkpt>
			<trkpt lat="50.0614523" lon="8.7005999">
				<ele>175</ele>
				<time>2026-08-23T09:06:17.000Z</time>
			</trkpt>
			<trkpt lat="50.0615811" lon="8.7018174">
				<ele>174.5</ele>
				<time>2026-08-23T09:06:20.000Z</time>
			</trkpt>
			<trkpt lat="50.06174" lon="8.7029927">
				<ele>174.6</ele>
				<time>2026-08-23T09:06:23.000Z</time>
			</trkpt>
			<trkpt lat="50.0618621" lon="8.7037807">
				<ele>174.7</ele>
				<time>2026-08-23T09:06:25.000Z</time>
			</trkpt>
			<trkpt lat="50.0620512" lon="8.7049749">
				<ele>175.9</ele>
				<time>2026-08-23T09:06:28.000Z</time>
			</trkpt>
			<trkpt lat="50.0622485" lon="8.706117">
				<ele>176.1</ele>
				<time>2026-08-23T09:06:31.000Z</time>
			</trkpt>
			<trkpt lat="50.0624546" lon="8.707209">
				<ele>176.4</ele>
				<time>2026-08-23T09:06:34.000Z</time>
			</trkpt>
			<trkpt lat="50.062579" lon="8.7078806">
				<ele>176.5</ele>
				<time>2026-08-23T09:06:36.000Z</time>
			</trkpt>
			<trkpt lat="50.0627036" lon="8.7085083">
				<ele>176.4</ele>
				<time>2026-08-23T09:06:38.000Z</time>
			</trkpt>
			<trkpt lat="50.0628322" lon="8.7091252">
				<ele>176.9</ele>
				<time>2026-08-23T09:06:40.000Z</time>
			</trkpt>
			<trkpt lat="50.0630111" lon="8.7100265">
				<ele>177.8</ele>
				<time>2026-08-23T09:06:43.000Z</time>
			</trkpt>
			<trkpt lat="50.0631943" lon="8.7109566">
				<ele>178</ele>
				<time>2026-08-23T09:06:46.000Z</time>
			</trkpt>
			<trkpt lat="50.0633858" lon="8.7119146">
				<ele>178.6</ele>
				<time>2026-08-23T09:06:49.000Z</time>
			</trkpt>
			<trkpt lat="50.0635782" lon="8.7129045">
				<ele>178.6</ele>
				<time>2026-08-23T09:06:52.000Z</time>
			</trkpt>
			<trkpt lat="50.063769" lon="8.713924">
				<ele>179.4</ele>
				<time>2026-08-23T09:06:55.000Z</time>
			</trkpt>
			<trkpt lat="50.0638875" lon="8.7146202">
				<ele>179.5</ele>
				<time>2026-08-23T09:06:57.000Z</time>
			</trkpt>
			<trkpt lat="50.0640522" lon="8.7156229">
				<ele>178.9</ele>
				<time>2026-08-23T09:07:00.000Z</time>
			</trkpt>
			<trkpt lat="50.0641489" lon="8.7162717">
				<ele>178.7</ele>
				<time>2026-08-23T09:07:02.000Z</time>
			</trkpt>
			<trkpt lat="50.0642224" lon="8.7169048">
				<ele>177.1</ele>
				<time>2026-08-23T09:07:04.000Z</time>
			</trkpt>
			<trkpt lat="50.064335" lon="8.7178397">
				<ele>177.7</ele>
				<time>2026-08-23T09:07:07.000Z</time>
			</trkpt>
			<trkpt lat="50.0644241" lon="8.718722">
				<ele>177.6</ele>
				<time>2026-08-23T09:07:10.000Z</time>
			</trkpt>
			<trkpt lat="50.0645048" lon="8.719624">
				<ele>177.5</ele>
				<time>2026-08-23T09:07:13.000Z</time>
			</trkpt>
			<trkpt lat="50.0645664" lon="8.7205643">
				<ele>177.6</ele>
				<time>2026-08-23T09:07:16.000Z</time>
			</trkpt>
			<trkpt lat="50.0646096" lon="8.7215291">
				<ele>178.5</ele>
				<time>2026-08-23T09:07:19.000Z</time>
			</trkpt>
			<trkpt lat="50.0646287" lon="8.7221716">
				<ele>177.9</ele>
				<time>2026-08-23T09:07:21.000Z</time>
			</trkpt>
			<trkpt lat="50.0646386" lon="8.7231601">
				<ele>178</ele>
				<time>2026-08-23T09:07:24.000Z</time>
			</trkpt>
			<trkpt lat="50.0646336" lon="8.7238238">
				<ele>178.1</ele>
				<time>2026-08-23T09:07:26.000Z</time>
			</trkpt>
			<trkpt lat="50.0646151" lon="8.7244868">
				<ele>178</ele>
				<time>2026-08-23T09:07:28.000Z</time>
			</trkpt>
			<trkpt lat="50.0645962" lon="8.7254725">
				<ele>178.8</ele>
				<time>2026-08-23T09:07:31.000Z</time>
			</trkpt>
			<trkpt lat="50.0645801" lon="8.7264315">
				<ele>179.9</ele>
				<time>2026-08-23T09:07:34.000Z</time>
			</trkpt>
			<trkpt lat="50.0645398" lon="8.727401">
				<ele>180.3</ele>
				<time>2026-08-23T09:07:37.000Z</time>
			</trkpt>
			<trkpt lat="50.0645002" lon="8.7283637">
				<ele>180</ele>
				<time>2026-08-23T09:07:40.000Z</time>
			</trkpt>
			<trkpt lat="50.0644813" lon="8.729031">
				<ele>179.9</ele>
				<time>2026-08-23T09:07:42.000Z</time>
			</trkpt>
			<trkpt lat="50.0644555" lon="8.7297156">
				<ele>179.5</ele>
				<time>2026-08-23T09:07:44.000Z</time>
			</trkpt>
			<trkpt lat="50.0644127" lon="8.730797">
				<ele>179.3</ele>
				<time>2026-08-23T09:07:47.000Z</time>
			</trkpt>
			<trkpt lat="50.0643586" lon="8.7319495">
				<ele>179.5</ele>
				<time>2026-08-23T09:07:50.000Z</time>
			</trkpt>
			<trkpt lat="50.0643048" lon="8.7331513">
				<ele>179</ele>
				<time>2026-08-23T09:07:53.000Z</time>
			</trkpt>
			<trkpt lat="50.0642547" lon="8.7343935">
				<ele>178.9</ele>
				<time>2026-08-23T09:07:56.000Z</time>
			</trkpt>
			<trkpt lat="50.0642213" lon="8.735242">
				<ele>178.5</ele>
				<time>2026-08-23T09:07:58.000Z</time>
			</trkpt>
			<trkpt lat="50.0641843" lon="8.7365515">
				<ele>177.8</ele>
				<time>2026-08-23T09:08:01.000Z</time>
			</trkpt>
			<trkpt lat="50.0641552" lon="8.7378988">
				<ele>177.6</ele>
				<time>2026-08-23T09:08:04.000Z</time>
			</trkpt>
			<trkpt lat="50.0641529" lon="8.7392354">
				<ele>177.3</ele>
				<time>2026-08-23T09:08:07.000Z</time>
			</trkpt>
			<trkpt lat="50.064163" lon="8.74013">
				<ele>177.8</ele>
				<time>2026-08-23T09:08:09.000Z</time>
			</trkpt>
			<trkpt lat="50.0642033" lon="8.7415072">
				<ele>177.4</ele>
				<time>2026-08-23T09:08:12.000Z</time>
			</trkpt>
			<trkpt lat="50.0642598" lon="8.7428561">
				<ele>177.9</ele>
				<time>2026-08-23T09:08:15.000Z</time>
			</trkpt>
			<trkpt lat="50.0643088" lon="8.7437449">
				<ele>177.9</ele>
				<time>2026-08-23T09:08:17.000Z</time>
			</trkpt>
			<trkpt lat="50.0643757" lon="8.7446096">
				<ele>177.8</ele>
				<time>2026-08-23T09:08:19.000Z</time>
			</trkpt>
			<trkpt lat="50.0644848" lon="8.7459126">
				<ele>177.4</ele>
				<time>2026-08-23T09:08:22.000Z</time>
			</trkpt>
			<trkpt lat="50.0645637" lon="8.7467843">
				<ele>177.4</ele>
				<time>2026-08-23T09:08:24.000Z</time>
			</trkpt>
			<trkpt lat="50.0646942" lon="8.7480859">
				<ele>177.3</ele>
				<time>2026-08-23T09:08:27.000Z</time>
			</trkpt>
			<trkpt lat="50.0648337" lon="8.7493829">
				<ele>177.9</ele>
				<time>2026-08-23T09:08:30.000Z</time>
			</trkpt>
			<trkpt lat="50.0649818" lon="8.7506528">
				<ele>178.1</ele>
				<time>2026-08-23T09:08:33.000Z</time>
			</trkpt>
			<trkpt lat="50.0650754" lon="8.7514922">
				<ele>178</ele>
				<time>2026-08-23T09:08:35.000Z</time>
			</trkpt>
			<trkpt lat="50.0651685" lon="8.7523274">
				<ele>177.8</ele>
				<time>2026-08-23T09:08:37.000Z</time>
			</trkpt>
			<trkpt lat="50.0653159" lon="8.7535681">
				<ele>178.1</ele>
				<time>2026-08-23T09:08:40.000Z</time>
			</trkpt>
			<trkpt lat="50.0654549" lon="8.7547783">
				<ele>177.9</ele>
				<time>2026-08-23T09:08:43.000Z</time>
			</trkpt>
			<trkpt lat="50.0655882" lon="8.7559572">
				<ele>177.8</ele>
				<time>2026-08-23T09:08:46.000Z</time>
			</trkpt>
			<trkpt lat="50.065684" lon="8.7567139">
				<ele>176.5</ele>
				<time>2026-08-23T09:08:48.000Z</time>
			</trkpt>
			<trkpt lat="50.0657662" lon="8.7575005">
				<ele>175.4</ele>
				<time>2026-08-23T09:08:50.000Z</time>
			</trkpt>
			<trkpt lat="50.0658606" lon="8.7582923">
				<ele>175</ele>
				<time>2026-08-23T09:08:52.000Z</time>
			</trkpt>
			<trkpt lat="50.0659992" lon="8.7594928">
				<ele>174.9</ele>
				<time>2026-08-23T09:08:55.000Z</time>
			</trkpt>
			<trkpt lat="50.0661307" lon="8.7607126">
				<ele>174.7</ele>
				<time>2026-08-23T09:08:58.000Z</time>
			</trkpt>
			<trkpt lat="50.0662598" lon="8.7619358">
				<ele>173.9</ele>
				<time>2026-08-23T09:09:01.000Z</time>
			</trkpt>
			<trkpt lat="50.0663481" lon="8.7627561">
				<ele>173.8</ele>
				<time>2026-08-23T09:09:03.000Z</time>
			</trkpt>
			<trkpt lat="50.0664783" lon="8.7639705">
				<ele>173.5</ele>
				<time>2026-08-23T09:09:06.000Z</time>
			</trkpt>
			<trkpt lat="50.0666016" lon="8.7651764">
				<ele>173.6</ele>
				<time>2026-08-23T09:09:09.000Z</time>
			</trkpt>
			<trkpt lat="50.066719" lon="8.7663723">
				<ele>173.2</ele>
				<time>2026-08-23T09:09:12.000Z</time>
			</trkpt>
			<trkpt lat="50.0667934" lon="8.7671746">
				<ele>172.5</ele>
				<time>2026-08-23T09:09:14.000Z</time>
			</trkpt>
			<trkpt lat="50.0668931" lon="8.7683382">
				<ele>172.1</ele>
				<time>2026-08-23T09:09:17.000Z</time>
			</trkpt>
			<trkpt lat="50.0669724" lon="8.769477">
				<ele>172.8</ele>
				<time>2026-08-23T09:09:20.000Z</time>
			</trkpt>
			<trkpt lat="50.0670481" lon="8.770556">
				<ele>172.1</ele>
				<time>2026-08-23T09:09:23.000Z</time>
			</trkpt>
			<trkpt lat="50.0671196" lon="8.7716537">
				<ele>172.1</ele>
				<time>2026-08-23T09:09:26.000Z</time>
			</trkpt>
			<trkpt lat="50.0671568" lon="8.7724064">
				<ele>172.4</ele>
				<time>2026-08-23T09:09:28.000Z</time>
			</trkpt>
			<trkpt lat="50.0672024" lon="8.7735329">
				<ele>171.2</ele>
				<time>2026-08-23T09:09:31.000Z</time>
			</trkpt>
			<trkpt lat="50.0672385" lon="8.7746653">
				<ele>170.7</ele>
				<time>2026-08-23T09:09:34.000Z</time>
			</trkpt>
			<trkpt lat="50.0672772" lon="8.7758085">
				<ele>170.5</ele>
				<time>2026-08-23T09:09:37.000Z</time>
			</trkpt>
			<trkpt lat="50.0673006" lon="8.7765813">
				<ele>171.2</ele>
				<time>2026-08-23T09:09:39.000Z</time>
			</trkpt>
			<trkpt lat="50.0673211" lon="8.7773576">
				<ele>171.5</ele>
				<time>2026-08-23T09:09:41.000Z</time>
			</trkpt>
			<trkpt lat="50.0673398" lon="8.7785395">
				<ele>171.5</ele>
				<time>2026-08-23T09:09:44.000Z</time>
			</trkpt>
			<trkpt lat="50.06736" lon="8.7797131">
				<ele>172.3</ele>
				<time>2026-08-23T09:09:47.000Z</time>
			</trkpt>
			<trkpt lat="50.0673736" lon="8.7804726">
				<ele>171.6</ele>
				<time>2026-08-23T09:09:49.000Z</time>
			</trkpt>
			<trkpt lat="50.0673832" lon="8.7812258">
				<ele>171.5</ele>
				<time>2026-08-23T09:09:51.000Z</time>
			</trkpt>
			<trkpt lat="50.0674027" lon="8.7823414">
				<ele>173</ele>
				<time>2026-08-23T09:09:54.000Z</time>
			</trkpt>
			<trkpt lat="50.0674151" lon="8.7834119">
				<ele>173.3</ele>
				<time>2026-08-23T09:09:57.000Z</time>
			</trkpt>
			<trkpt lat="50.0674377" lon="8.7844326">
				<ele>172.7</ele>
				<time>2026-08-23T09:10:00.000Z</time>
			</trkpt>
			<trkpt lat="50.0674602" lon="8.7853939">
				<ele>169.7</ele>
				<time>2026-08-23T09:10:03.000Z</time>
			</trkpt>
			<trkpt lat="50.0674786" lon="8.7860783">
				<ele>168.3</ele>
				<time>2026-08-23T09:10:05.000Z</time>
			</trkpt>
			<trkpt lat="50.0675016" lon="8.7871224">
				<ele>167.1</ele>
				<time>2026-08-23T09:10:08.000Z</time>
			</trkpt>
			<trkpt lat="50.0675198" lon="8.7882165">
				<ele>167.6</ele>
				<time>2026-08-23T09:10:11.000Z</time>
			</trkpt>
			<trkpt lat="50.067535" lon="8.7889248">
				<ele>167.9</ele>
				<time>2026-08-23T09:10:13.000Z</time>
			</trkpt>
			<trkpt lat="50.0675538" lon="8.7899352">
				<ele>166.9</ele>
				<time>2026-08-23T09:10:16.000Z</time>
			</trkpt>
			<trkpt lat="50.0675714" lon="8.7905755">
				<ele>166.3</ele>
				<time>2026-08-23T09:10:18.000Z</time>
			</trkpt>
			<trkpt lat="50.0675858" lon="8.7915207">
				<ele>167.1</ele>
				<time>2026-08-23T09:10:21.000Z</time>
			</trkpt>
			<trkpt lat="50.0675914" lon="8.7920942">
				<ele>166.6</ele>
				<time>2026-08-23T09:10:23.000Z</time>
			</trkpt>
			<trkpt lat="50.0676036" lon="8.792853">
				<ele>167</ele>
				<time>2026-08-23T09:10:26.000Z</time>
			</trkpt>
			<trkpt lat="50.0676077" lon="8.7932767">
				<ele>168.2</ele>
				<time>2026-08-23T09:10:28.000Z</time>
			</trkpt>
			<trkpt lat="50.0676126" lon="8.7938404">
				<ele>168.3</ele>
				<time>2026-08-23T09:10:31.000Z</time>
			</trkpt>
			<trkpt lat="50.0676188" lon="8.7942924">
				<ele>168.5</ele>
				<time>2026-08-23T09:10:34.000Z</time>
			</trkpt>
			<trkpt lat="50.0676178" lon="8.7944885">
				<ele>167.7</ele>
				<time>2026-08-23T09:10:36.000Z</time>
			</trkpt>
			<trkpt lat="50.0676207" lon="8.794643">
				<ele>167</ele>
				<time>2026-08-23T09:10:38.000Z</time>
			</trkpt>
			<trkpt lat="50.0676181" lon="8.7948719">
				<ele>167.6</ele>
				<time>2026-08-23T09:10:41.000Z</time>
			</trkpt>
			<trkpt lat="50.06762" lon="8.7950573">
				<ele>168.6</ele>
				<time>2026-08-23T09:10:43.000Z</time>
			</trkpt>
			<trkpt lat="50.0676284" lon="8.7952967">
				<ele>169.9</ele>
				<time>2026-08-23T09:10:46.000Z</time>
			</trkpt>
			<trkpt lat="50.0676315" lon="8.7954677">
				<ele>169.3</ele>
				<time>2026-08-23T09:10:49.000Z</time>
			</trkpt>
			<trkpt lat="50.0676323" lon="8.7956306">
				<ele>169.7</ele>
				<time>2026-08-23T09:10:52.000Z</time>
			</trkpt>
			<trkpt lat="50.0676334" lon="8.7957894">
				<ele>171.8</ele>
				<time>2026-08-23T09:10:58.000Z</time>
			</trkpt>
			<trkpt lat="50.0676329" lon="8.7959341">
				<ele>172.6</ele>
				<time>2026-08-23T09:11:03.000Z</time>
			</trkpt>
			<trkpt lat="50.0676307" lon="8.796082">
				<ele>173.9</ele>
				<time>2026-08-23T09:11:07.000Z</time>
			</trkpt>
			<trkpt lat="50.0676294" lon="8.7962685">
				<ele>172.9</ele>
				<time>2026-08-23T09:11:10.000Z</time>
			</trkpt>
			<trkpt lat="50.0676273" lon="8.7964498">
				<ele>172.4</ele>
				<time>2026-08-23T09:11:13.000Z</time>
			</trkpt>
			<trkpt lat="50.0676268" lon="8.7966326">
				<ele>172.1</ele>
				<time>2026-08-23T09:11:16.000Z</time>
			</trkpt>
			<trkpt lat="50.0676303" lon="8.7968561">
				<ele>172.5</ele>
				<time>2026-08-23T09:11:19.000Z</time>
			</trkpt>
			<trkpt lat="50.0676324" lon="8.7970678">
				<ele>173</ele>
				<time>2026-08-23T09:11:22.000Z</time>
			</trkpt>
			<trkpt lat="50.0676301" lon="8.7972467">
				<ele>172.8</ele>
				<time>2026-08-23T09:11:24.000Z</time>
			</trkpt>
			<trkpt lat="50.0676328" lon="8.7974544">
				<ele>172.9</ele>
				<time>2026-08-23T09:11:26.000Z</time>
			</trkpt>
			<trkpt lat="50.0676389" lon="8.797821">
				<ele>173</ele>
				<time>2026-08-23T09:11:29.000Z</time>
			</trkpt>
			<trkpt lat="50.0676441" lon="8.7981688">
				<ele>173.6</ele>
				<time>2026-08-23T09:11:32.000Z</time>
			</trkpt>
			<trkpt lat="50.0676493" lon="8.7983848">
				<ele>173.4</ele>
				<time>2026-08-23T09:11:34.000Z</time>
			</trkpt>
			<trkpt lat="50.0676561" lon="8.798669">
				<ele>172.2</ele>
				<time>2026-08-23T09:11:37.000Z</time>
			</trkpt>
			<trkpt lat="50.0676536" lon="8.7988638">
				<ele>172.6</ele>
				<time>2026-08-23T09:11:39.000Z</time>
			</trkpt>
			<trkpt lat="50.0676365" lon="8.7991787">
				<ele>172.6</ele>
				<time>2026-08-23T09:11:42.000Z</time>
			</trkpt>
			<trkpt lat="50.0676336" lon="8.7993979">
				<ele>173.1</ele>
				<time>2026-08-23T09:11:44.000Z</time>
			</trkpt>
			<trkpt lat="50.0676323" lon="8.7996306">
				<ele>172.9</ele>
				<time>2026-08-23T09:11:46.000Z</time>
			</trkpt>
			<trkpt lat="50.0676356" lon="8.7999551">
				<ele>172.7</ele>
				<time>2026-08-23T09:11:49.000Z</time>
			</trkpt>
			<trkpt lat="50.0676392" lon="8.8002664">
				<ele>173</ele>
				<time>2026-08-23T09:11:52.000Z</time>
			</trkpt>
			<trkpt lat="50.0676468" lon="8.80054">
				<ele>172.9</ele>
				<time>2026-08-23T09:11:55.000Z</time>
			</trkpt>
			<trkpt lat="50.0676526" lon="8.8007025">
				<ele>172.1</ele>
				<time>2026-08-23T09:11:57.000Z</time>
			</trkpt>
			<trkpt lat="50.0676553" lon="8.8009415">
				<ele>171</ele>
				<time>2026-08-23T09:12:00.000Z</time>
			</trkpt>
			<trkpt lat="50.0676579" lon="8.8011254">
				<ele>171.5</ele>
				<time>2026-08-23T09:12:02.000Z</time>
			</trkpt>
			<trkpt lat="50.0676599" lon="8.8013059">
				<ele>172</ele>
				<time>2026-08-23T09:12:04.000Z</time>
			</trkpt>
			<trkpt lat="50.0676629" lon="8.8014586">
				<ele>172.8</ele>
				<time>2026-08-23T09:12:06.000Z</time>
			</trkpt>
			<trkpt lat="50.0676598" lon="8.8016325">
				<ele>172.6</ele>
				<time>2026-08-23T09:12:09.000Z</time>
			</trkpt>
			<trkpt lat="50.0676598" lon="8.8017789">
				<ele>172.3</ele>
				<time>2026-08-23T09:12:14.000Z</time>
			</trkpt>
			<trkpt lat="50.0676597" lon="8.8019376">
				<ele>173</ele>
				<time>2026-08-23T09:12:20.000Z</time>
			</trkpt>
			<trkpt lat="50.0676597" lon="8.8021087">
				<ele>173.5</ele>
				<time>2026-08-23T09:12:24.000Z</time>
			</trkpt>
			<trkpt lat="50.0676597" lon="8.8022828">
				<ele>174.6</ele>
				<time>2026-08-23T09:12:28.000Z</time>
			</trkpt>
			<trkpt lat="50.0676609" lon="8.8024565">
				<ele>175.2</ele>
				<time>2026-08-23T09:12:32.000Z</time>
			</trkpt>
			<trkpt lat="50.0676654" lon="8.8026165">
				<ele>175.4</ele>
				<time>2026-08-23T09:12:52.000Z</time>
			</trkpt>
			<trkpt lat="50.067664" lon="8.8027574">
				<ele>175.9</ele>
				<time>2026-08-23T09:12:57.000Z</time>
			</trkpt>
			<trkpt lat="50.0676651" lon="8.8029183">
				<ele>175.8</ele>
				<time>2026-08-23T09:13:00.000Z</time>
			</trkpt>
			<trkpt lat="50.0676705" lon="8.8031104">
				<ele>175.1</ele>
				<time>2026-08-23T09:13:03.000Z</time>
			</trkpt>
			<trkpt lat="50.0676725" lon="8.803289">
				<ele>174.8</ele>
				<time>2026-08-23T09:13:06.000Z</time>
			</trkpt>
			<trkpt lat="50.0676749" lon="8.8034673">
				<ele>174.7</ele>
				<time>2026-08-23T09:13:09.000Z</time>
			</trkpt>
			<trkpt lat="50.0676792" lon="8.8036594">
				<ele>174.5</ele>
				<time>2026-08-23T09:13:12.000Z</time>
			</trkpt>
			<trkpt lat="50.0676846" lon="8.8038315">
				<ele>174.1</ele>
				<time>2026-08-23T09:13:15.000Z</time>
			</trkpt>
			<trkpt lat="50.0676896" lon="8.8040044">
				<ele>174.1</ele>
				<time>2026-08-23T09:13:18.000Z</time>
			</trkpt>
			<trkpt lat="50.0676926" lon="8.804152">
				<ele>174</ele>
				<time>2026-08-23T09:13:21.000Z</time>
			</trkpt>
			<trkpt lat="50.0676936" lon="8.8043007">
				<ele>176.4</ele>
				<time>2026-08-23T09:13:43.000Z</time>
			</trkpt>
			<trkpt lat="50.0676932" lon="8.8044798">
				<ele>176.6</ele>
				<time>2026-08-23T09:13:47.000Z</time>
			</trkpt>
			<trkpt lat="50.0676943" lon="8.8046229">
				<ele>176</ele>
				<time>2026-08-23T09:13:50.000Z</time>
			</trkpt>
			<trkpt lat="50.0676966" lon="8.8047947">
				<ele>175.7</ele>
				<time>2026-08-23T09:13:53.000Z</time>
			</trkpt>
			<trkpt lat="50.067697" lon="8.8049916">
				<ele>174.9</ele>
				<time>2026-08-23T09:13:56.000Z</time>
			</trkpt>
			<trkpt lat="50.0677032" lon="8.8052764">
				<ele>174.2</ele>
				<time>2026-08-23T09:13:59.000Z</time>
			</trkpt>
			<trkpt lat="50.0676842" lon="8.8056469">
				<ele>173.6</ele>
				<time>2026-08-23T09:14:02.000Z</time>
			</trkpt>
			<trkpt lat="50.0676732" lon="8.8058825">
				<ele>172.7</ele>
				<time>2026-08-23T09:14:04.000Z</time>
			</trkpt>
			<trkpt lat="50.0676757" lon="8.8062148">
				<ele>173</ele>
				<time>2026-08-23T09:14:07.000Z</time>
			</trkpt>
			<trkpt lat="50.0676758" lon="8.8064172">
				<ele>172.8</ele>
				<time>2026-08-23T09:14:09.000Z</time>
			</trkpt>
			<trkpt lat="50.067682" lon="8.8067187">
				<ele>172.3</ele>
				<time>2026-08-23T09:14:12.000Z</time>
			</trkpt>
			<trkpt lat="50.0676882" lon="8.8070573">
				<ele>171.8</ele>
				<time>2026-08-23T09:14:15.000Z</time>
			</trkpt>
			<trkpt lat="50.0676896" lon="8.8072908">
				<ele>171.7</ele>
				<time>2026-08-23T09:14:17.000Z</time>
			</trkpt>
			<trkpt lat="50.0676919" lon="8.8076451">
				<ele>171.7</ele>
				<time>2026-08-23T09:14:20.000Z</time>
			</trkpt>
			<trkpt lat="50.067691" lon="8.8078603">
				<ele>171.3</ele>
				<time>2026-08-23T09:14:22.000Z</time>
			</trkpt>
			<trkpt lat="50.0676957" lon="8.8080686">
				<ele>170.7</ele>
				<time>2026-08-23T09:14:24.000Z</time>
			</trkpt>
			<trkpt lat="50.0677007" lon="8.8082699">
				<ele>170.9</ele>
				<time>2026-08-23T09:14:26.000Z</time>
			</trkpt>
			<trkpt lat="50.0677098" lon="8.808591">
				<ele>171.3</ele>
				<time>2026-08-23T09:14:29.000Z</time>
			</trkpt>
			<trkpt lat="50.0677244" lon="8.8088788">
				<ele>170.4</ele>
				<time>2026-08-23T09:14:32.000Z</time>
			</trkpt>
			<trkpt lat="50.0677267" lon="8.8090754">
				<ele>170.2</ele>
				<time>2026-08-23T09:14:34.000Z</time>
			</trkpt>
			<trkpt lat="50.0677247" lon="8.8092495">
				<ele>169.8</ele>
				<time>2026-08-23T09:14:36.000Z</time>
			</trkpt>
			<trkpt lat="50.0677244" lon="8.8094562">
				<ele>170</ele>
				<time>2026-08-23T09:14:39.000Z</time>
			</trkpt>
			<trkpt lat="50.067736" lon="8.8096591">
				<ele>170.3</ele>
				<time>2026-08-23T09:14:42.000Z</time>
			</trkpt>
			<trkpt lat="50.0677362" lon="8.8098348">
				<ele>169.9</ele>
				<time>2026-08-23T09:14:44.000Z</time>
			</trkpt>
			<trkpt lat="50.0677368" lon="8.810003">
				<ele>170.1</ele>
				<time>2026-08-23T09:14:46.000Z</time>
			</trkpt>
			<trkpt lat="50.067739" lon="8.810262">
				<ele>170.6</ele>
				<time>2026-08-23T09:14:49.000Z</time>
			</trkpt>
			<trkpt lat="50.0677406" lon="8.8105375">
				<ele>169.6</ele>
				<time>2026-08-23T09:14:52.000Z</time>
			</trkpt>
			<trkpt lat="50.0677453" lon="8.8107893">
				<ele>169.6</ele>
				<time>2026-08-23T09:14:55.000Z</time>
			</trkpt>
			<trkpt lat="50.0677453" lon="8.8109728">
				<ele>169.8</ele>
				<time>2026-08-23T09:14:57.000Z</time>
			</trkpt>
			<trkpt lat="50.067752" lon="8.8112988">
				<ele>169.7</ele>
				<time>2026-08-23T09:15:00.000Z</time>
			</trkpt>
			<trkpt lat="50.0677561" lon="8.8116493">
				<ele>170.1</ele>
				<time>2026-08-23T09:15:03.000Z</time>
			</trkpt>
			<trkpt lat="50.0677529" lon="8.8120394">
				<ele>169.5</ele>
				<time>2026-08-23T09:15:06.000Z</time>
			</trkpt>
			<trkpt lat="50.0677576" lon="8.8123164">
				<ele>169.8</ele>
				<time>2026-08-23T09:15:08.000Z</time>
			</trkpt>
			<trkpt lat="50.0677632" lon="8.812737">
				<ele>169.1</ele>
				<time>2026-08-23T09:15:11.000Z</time>
			</trkpt>
			<trkpt lat="50.0677645" lon="8.8130014">
				<ele>169.4</ele>
				<time>2026-08-23T09:15:13.000Z</time>
			</trkpt>
			<trkpt lat="50.0677679" lon="8.813245">
				<ele>170.2</ele>
				<time>2026-08-23T09:15:15.000Z</time>
			</trkpt>
			<trkpt lat="50.0677704" lon="8.8134734">
				<ele>170.6</ele>
				<time>2026-08-23T09:15:17.000Z</time>
			</trkpt>
			<trkpt lat="50.0677761" lon="8.8138314">
				<ele>171.4</ele>
				<time>2026-08-23T09:15:20.000Z</time>
			</trkpt>
			<trkpt lat="50.0677869" lon="8.8141533">
				<ele>172.5</ele>
				<time>2026-08-23T09:15:23.000Z</time>
			</trkpt>
			<trkpt lat="50.0677919" lon="8.8144568">
				<ele>173.2</ele>
				<time>2026-08-23T09:15:26.000Z</time>
			</trkpt>
			<trkpt lat="50.0677897" lon="8.8146791">
				<ele>173</ele>
				<time>2026-08-23T09:15:28.000Z</time>
			</trkpt>
			<trkpt lat="50.0677946" lon="8.8149323">
				<ele>173.2</ele>
				<time>2026-08-23T09:15:30.000Z</time>
			</trkpt>
			<trkpt lat="50.0677962" lon="8.8153484">
				<ele>172.4</ele>
				<time>2026-08-23T09:15:33.000Z</time>
			</trkpt>
			<trkpt lat="50.0678061" lon="8.8158218">
				<ele>172.1</ele>
				<time>2026-08-23T09:15:36.000Z</time>
			</trkpt>
			<trkpt lat="50.0678139" lon="8.8163489">
				<ele>173.1</ele>
				<time>2026-08-23T09:15:39.000Z</time>
			</trkpt>
			<trkpt lat="50.0678146" lon="8.8167272">
				<ele>173.1</ele>
				<time>2026-08-23T09:15:41.000Z</time>
			</trkpt>
			<trkpt lat="50.0678126" lon="8.8173216">
				<ele>173.3</ele>
				<time>2026-08-23T09:15:44.000Z</time>
			</trkpt>
			<trkpt lat="50.0678122" lon="8.8178956">
				<ele>173.4</ele>
				<time>2026-08-23T09:15:47.000Z</time>
			</trkpt>
			<trkpt lat="50.0678054" lon="8.8184262">
				<ele>174.1</ele>
				<time>2026-08-23T09:15:50.000Z</time>
			</trkpt>
			<trkpt lat="50.0677905" lon="8.8189083">
				<ele>173.1</ele>
				<time>2026-08-23T09:15:53.000Z</time>
			</trkpt>
			<trkpt lat="50.0677872" lon="8.8193014">
				<ele>173.3</ele>
				<time>2026-08-23T09:15:56.000Z</time>
			</trkpt>
			<trkpt lat="50.0677798" lon="8.8196138">
				<ele>172.3</ele>
				<time>2026-08-23T09:15:59.000Z</time>
			</trkpt>
			<trkpt lat="50.0677711" lon="8.8199676">
				<ele>173.9</ele>
				<time>2026-08-23T09:16:02.000Z</time>
			</trkpt>
			<trkpt lat="50.0677642" lon="8.8202744">
				<ele>172.8</ele>
				<time>2026-08-23T09:16:05.000Z</time>
			</trkpt>
			<trkpt lat="50.0677494" lon="8.8204776">
				<ele>172.9</ele>
				<time>2026-08-23T09:16:08.000Z</time>
			</trkpt>
			<trkpt lat="50.0677409" lon="8.8206482">
				<ele>175.3</ele>
				<time>2026-08-23T09:16:23.000Z</time>
			</trkpt>
			<trkpt lat="50.0677203" lon="8.8208287">
				<ele>174.3</ele>
				<time>2026-08-23T09:16:27.000Z</time>
			</trkpt>
			<trkpt lat="50.0677117" lon="8.821004">
				<ele>175.8</ele>
				<time>2026-08-23T09:16:30.000Z</time>
			</trkpt>
			<trkpt lat="50.0677013" lon="8.8212012">
				<ele>176.5</ele>
				<time>2026-08-23T09:16:33.000Z</time>
			</trkpt>
			<trkpt lat="50.0676832" lon="8.8214974">
				<ele>177</ele>
				<time>2026-08-23T09:16:36.000Z</time>
			</trkpt>
			<trkpt lat="50.0676712" lon="8.8218518">
				<ele>177.4</ele>
				<time>2026-08-23T09:16:39.000Z</time>
			</trkpt>
			<trkpt lat="50.0676615" lon="8.822113">
				<ele>177.4</ele>
				<time>2026-08-23T09:16:41.000Z</time>
			</trkpt>
			<trkpt lat="50.0676412" lon="8.8223926">
				<ele>177.9</ele>
				<time>2026-08-23T09:16:43.000Z</time>
			</trkpt>
			<trkpt lat="50.067615" lon="8.8228344">
				<ele>178.5</ele>
				<time>2026-08-23T09:16:46.000Z</time>
			</trkpt>
			<trkpt lat="50.067578" lon="8.8232724">
				<ele>178.4</ele>
				<time>2026-08-23T09:16:49.000Z</time>
			</trkpt>
			<trkpt lat="50.0675544" lon="8.8235526">
				<ele>178.2</ele>
				<time>2026-08-23T09:16:51.000Z</time>
			</trkpt>
			<trkpt lat="50.0675286" lon="8.8238279">
				<ele>178.1</ele>
				<time>2026-08-23T09:16:53.000Z</time>
			</trkpt>
			<trkpt lat="50.0674913" lon="8.8242239">
				<ele>178.6</ele>
				<time>2026-08-23T09:16:56.000Z</time>
			</trkpt>
			<trkpt lat="50.0674505" lon="8.8245722">
				<ele>179.1</ele>
				<time>2026-08-23T09:16:59.000Z</time>
			</trkpt>
			<trkpt lat="50.0674217" lon="8.8248684">
				<ele>179.4</ele>
				<time>2026-08-23T09:17:02.000Z</time>
			</trkpt>
			<trkpt lat="50.067405" lon="8.8250169">
				<ele>179.7</ele>
				<time>2026-08-23T09:17:12.000Z</time>
			</trkpt>
			<trkpt lat="50.067357" lon="8.8252249">
				<ele>180.7</ele>
				<time>2026-08-23T09:17:16.000Z</time>
			</trkpt>
			<trkpt lat="50.067317" lon="8.8254458">
				<ele>181</ele>
				<time>2026-08-23T09:17:18.000Z</time>
			</trkpt>
			<trkpt lat="50.0672466" lon="8.825886">
				<ele>181.2</ele>
				<time>2026-08-23T09:17:21.000Z</time>
			</trkpt>
			<trkpt lat="50.0671693" lon="8.8263627">
				<ele>179.6</ele>
				<time>2026-08-23T09:17:24.000Z</time>
			</trkpt>
			<trkpt lat="50.067123" lon="8.8266785">
				<ele>179.5</ele>
				<time>2026-08-23T09:17:26.000Z</time>
			</trkpt>
			<trkpt lat="50.0670761" lon="8.8269825">
				<ele>179.8</ele>
				<time>2026-08-23T09:17:28.000Z</time>
			</trkpt>
			<trkpt lat="50.0669946" lon="8.8274304">
				<ele>178.8</ele>
				<time>2026-08-23T09:17:31.000Z</time>
			</trkpt>
			<trkpt lat="50.0669113" lon="8.8279145">
				<ele>178.6</ele>
				<time>2026-08-23T09:17:34.000Z</time>
			</trkpt>
			<trkpt lat="50.0668164" lon="8.8284016">
				<ele>178.5</ele>
				<time>2026-08-23T09:17:37.000Z</time>
			</trkpt>
			<trkpt lat="50.066719" lon="8.8288836">
				<ele>178</ele>
				<time>2026-08-23T09:17:40.000Z</time>
			</trkpt>
			<trkpt lat="50.0666563" lon="8.8291855">
				<ele>177.9</ele>
				<time>2026-08-23T09:17:42.000Z</time>
			</trkpt>
			<trkpt lat="50.0665505" lon="8.8296516">
				<ele>176.9</ele>
				<time>2026-08-23T09:17:45.000Z</time>
			</trkpt>
			<trkpt lat="50.0664809" lon="8.8299708">
				<ele>177.1</ele>
				<time>2026-08-23T09:17:47.000Z</time>
			</trkpt>
			<trkpt lat="50.0664091" lon="8.8302832">
				<ele>177</ele>
				<time>2026-08-23T09:17:49.000Z</time>
			</trkpt>
			<trkpt lat="50.0663348" lon="8.8305855">
				<ele>176.3</ele>
				<time>2026-08-23T09:17:51.000Z</time>
			</trkpt>
			<trkpt lat="50.066237" lon="8.8309932">
				<ele>175.7</ele>
				<time>2026-08-23T09:17:54.000Z</time>
			</trkpt>
			<trkpt lat="50.066184" lon="8.8311994">
				<ele>175.3</ele>
				<time>2026-08-23T09:17:56.000Z</time>
			</trkpt>
			<trkpt lat="50.066126" lon="8.8314564">
				<ele>175.2</ele>
				<time>2026-08-23T09:17:59.000Z</time>
			</trkpt>
			<trkpt lat="50.0660792" lon="8.8316789">
				<ele>175.3</ele>
				<time>2026-08-23T09:18:02.000Z</time>
			</trkpt>
			<trkpt lat="50.0660514" lon="8.8318605">
				<ele>175.1</ele>
				<time>2026-08-23T09:18:05.000Z</time>
			</trkpt>
			<trkpt lat="50.0660244" lon="8.8320259">
				<ele>174.2</ele>
				<time>2026-08-23T09:18:08.000Z</time>
			</trkpt>
			<trkpt lat="50.0659912" lon="8.8321848">
				<ele>174.1</ele>
				<time>2026-08-23T09:18:11.000Z</time>
			</trkpt>
			<trkpt lat="50.0659477" lon="8.832347">
				<ele>173.9</ele>
				<time>2026-08-23T09:18:14.000Z</time>
			</trkpt>
			<trkpt lat="50.0659015" lon="8.8325184">
				<ele>173.7</ele>
				<time>2026-08-23T09:18:17.000Z</time>
			</trkpt>
			<trkpt lat="50.0658411" lon="8.8327482">
				<ele>174.3</ele>
				<time>2026-08-23T09:18:20.000Z</time>
			</trkpt>
			<trkpt lat="50.0657869" lon="8.832936">
				<ele>174.1</ele>
				<time>2026-08-23T09:18:22.000Z</time>
			</trkpt>
			<trkpt lat="50.065705" lon="8.8332384">
				<ele>174.5</ele>
				<time>2026-08-23T09:18:25.000Z</time>
			</trkpt>
			<trkpt lat="50.0656523" lon="8.8334381">
				<ele>174.7</ele>
				<time>2026-08-23T09:18:27.000Z</time>
			</trkpt>
			<trkpt lat="50.0656024" lon="8.8336346">
				<ele>174.6</ele>
				<time>2026-08-23T09:18:29.000Z</time>
			</trkpt>
			<trkpt lat="50.0655387" lon="8.8338704">
				<ele>174.4</ele>
				<time>2026-08-23T09:18:32.000Z</time>
			</trkpt>
			<trkpt lat="50.0654932" lon="8.8340312">
				<ele>174</ele>
				<time>2026-08-23T09:18:35.000Z</time>
			</trkpt>
			<trkpt lat="50.0654487" lon="8.8342014">
				<ele>174.3</ele>
				<time>2026-08-23T09:18:38.000Z</time>
			</trkpt>
			<trkpt lat="50.0654019" lon="8.8343816">
				<ele>174.4</ele>
				<time>2026-08-23T09:18:41.000Z</time>
			</trkpt>
			<trkpt lat="50.0653612" lon="8.8345223">
				<ele>174.7</ele>
				<time>2026-08-23T09:18:44.000Z</time>
			</trkpt>
			<trkpt lat="50.0653212" lon="8.8346713">
				<ele>175</ele>
				<time>2026-08-23T09:18:48.000Z</time>
			</trkpt>
			<trkpt lat="50.0652762" lon="8.8348412">
				<ele>176.4</ele>
				<time>2026-08-23T09:18:52.000Z</time>
			</trkpt>
			<trkpt lat="50.0652404" lon="8.8349913">
				<ele>176.9</ele>
				<time>2026-08-23T09:18:54.000Z</time>
			</trkpt>
			<trkpt lat="50.0651708" lon="8.8352451">
				<ele>177.4</ele>
				<time>2026-08-23T09:18:57.000Z</time>
			</trkpt>
			<trkpt lat="50.0651207" lon="8.8354302">
				<ele>177.7</ele>
				<time>2026-08-23T09:18:59.000Z</time>
			</trkpt>
			<trkpt lat="50.0650353" lon="8.8357324">
				<ele>178</ele>
				<time>2026-08-23T09:19:02.000Z</time>
			</trkpt>
			<trkpt lat="50.0649759" lon="8.8359359">
				<ele>178.4</ele>
				<time>2026-08-23T09:19:04.000Z</time>
			</trkpt>
			<trkpt lat="50.0648942" lon="8.8362528">
				<ele>178.3</ele>
				<time>2026-08-23T09:19:07.000Z</time>
			</trkpt>
			<trkpt lat="50.0647976" lon="8.8365927">
				<ele>178</ele>
				<time>2026-08-23T09:19:10.000Z</time>
			</trkpt>
			<trkpt lat="50.0647077" lon="8.8369186">
				<ele>177.6</ele>
				<time>2026-08-23T09:19:13.000Z</time>
			</trkpt>
			<trkpt lat="50.0646513" lon="8.8371256">
				<ele>177.5</ele>
				<time>2026-08-23T09:19:15.000Z</time>
			</trkpt>
			<trkpt lat="50.0645874" lon="8.8373499">
				<ele>177.3</ele>
				<time>2026-08-23T09:19:18.000Z</time>
			</trkpt>
			<trkpt lat="50.0645369" lon="8.8375549">
				<ele>177.2</ele>
				<time>2026-08-23T09:19:21.000Z</time>
			</trkpt>
			<trkpt lat="50.0644837" lon="8.8377614">
				<ele>177.6</ele>
				<time>2026-08-23T09:19:24.000Z</time>
			</trkpt>
			<trkpt lat="50.0644467" lon="8.8378983">
				<ele>177.4</ele>
				<time>2026-08-23T09:19:26.000Z</time>
			</trkpt>
			<trkpt lat="50.0643932" lon="8.8381144">
				<ele>177.7</ele>
				<time>2026-08-23T09:19:29.000Z</time>
			</trkpt>
			<trkpt lat="50.0643308" lon="8.8383144">
				<ele>177.6</ele>
				<time>2026-08-23T09:19:32.000Z</time>
			</trkpt>
			<trkpt lat="50.0642708" lon="8.8385193">
				<ele>177.7</ele>
				<time>2026-08-23T09:19:35.000Z</time>
			</trkpt>
			<trkpt lat="50.0642151" lon="8.8387189">
				<ele>177.8</ele>
				<time>2026-08-23T09:19:38.000Z</time>
			</trkpt>
			<trkpt lat="50.0641776" lon="8.8388601">
				<ele>177.8</ele>
				<time>2026-08-23T09:19:40.000Z</time>
			</trkpt>
			<trkpt lat="50.0641143" lon="8.8390786">
				<ele>177.9</ele>
				<time>2026-08-23T09:19:43.000Z</time>
			</trkpt>
			<trkpt lat="50.0640747" lon="8.839229">
				<ele>177.9</ele>
				<time>2026-08-23T09:19:45.000Z</time>
			</trkpt>
			<trkpt lat="50.0640227" lon="8.8394392">
				<ele>177.7</ele>
				<time>2026-08-23T09:19:48.000Z</time>
			</trkpt>
			<trkpt lat="50.0639859" lon="8.8395712">
				<ele>178.4</ele>
				<time>2026-08-23T09:19:50.000Z</time>
			</trkpt>
			<trkpt lat="50.0639284" lon="8.839769">
				<ele>178.9</ele>
				<time>2026-08-23T09:19:53.000Z</time>
			</trkpt>
			<trkpt lat="50.0638661" lon="8.839998">
				<ele>178.7</ele>
				<time>2026-08-23T09:19:56.000Z</time>
			</trkpt>
			<trkpt lat="50.0638244" lon="8.8401513">
				<ele>179.2</ele>
				<time>2026-08-23T09:19:58.000Z</time>
			</trkpt>
			<trkpt lat="50.0637537" lon="8.8403984">
				<ele>179</ele>
				<time>2026-08-23T09:20:01.000Z</time>
			</trkpt>
			<trkpt lat="50.0636784" lon="8.8406882">
				<ele>179.3</ele>
				<time>2026-08-23T09:20:04.000Z</time>
			</trkpt>
			<trkpt lat="50.0636116" lon="8.8409259">
				<ele>179</ele>
				<time>2026-08-23T09:20:06.000Z</time>
			</trkpt>
			<trkpt lat="50.0635452" lon="8.8411746">
				<ele>178.9</ele>
				<time>2026-08-23T09:20:08.000Z</time>
			</trkpt>
			<trkpt lat="50.0634792" lon="8.8414103">
				<ele>179.1</ele>
				<time>2026-08-23T09:20:10.000Z</time>
			</trkpt>
			<trkpt lat="50.0633837" lon="8.8417562">
				<ele>179.1</ele>
				<time>2026-08-23T09:20:13.000Z</time>
			</trkpt>
			<trkpt lat="50.0632996" lon="8.8420779">
				<ele>179.4</ele>
				<time>2026-08-23T09:20:16.000Z</time>
			</trkpt>
			<trkpt lat="50.0632235" lon="8.8423699">
				<ele>179.5</ele>
				<time>2026-08-23T09:20:19.000Z</time>
			</trkpt>
			<trkpt lat="50.0631746" lon="8.8425604">
				<ele>179.2</ele>
				<time>2026-08-23T09:20:21.000Z</time>
			</trkpt>
			<trkpt lat="50.0631208" lon="8.8427597">
				<ele>179</ele>
				<time>2026-08-23T09:20:23.000Z</time>
			</trkpt>
			<trkpt lat="50.0630452" lon="8.8430548">
				<ele>179.3</ele>
				<time>2026-08-23T09:20:26.000Z</time>
			</trkpt>
			<trkpt lat="50.0629756" lon="8.8433395">
				<ele>179</ele>
				<time>2026-08-23T09:20:29.000Z</time>
			</trkpt>
			<trkpt lat="50.0629259" lon="8.8435258">
				<ele>179</ele>
				<time>2026-08-23T09:20:31.000Z</time>
			</trkpt>
			<trkpt lat="50.0628673" lon="8.8437882">
				<ele>179.3</ele>
				<time>2026-08-23T09:20:34.000Z</time>
			</trkpt>
			<trkpt lat="50.0628082" lon="8.84402">
				<ele>178.7</ele>
				<time>2026-08-23T09:20:37.000Z</time>
			</trkpt>
			<trkpt lat="50.0627808" lon="8.8441648">
				<ele>177.5</ele>
				<time>2026-08-23T09:20:39.000Z</time>
			</trkpt>
			<trkpt lat="50.0627238" lon="8.8444036">
				<ele>177.3</ele>
				<time>2026-08-23T09:20:42.000Z</time>
			</trkpt>
			<trkpt lat="50.0626721" lon="8.8446316">
				<ele>177.8</ele>
				<time>2026-08-23T09:20:45.000Z</time>
			</trkpt>
			<trkpt lat="50.0626247" lon="8.8448476">
				<ele>177.1</ele>
				<time>2026-08-23T09:20:48.000Z</time>
			</trkpt>
			<trkpt lat="50.0625931" lon="8.8449843">
				<ele>176.6</ele>
				<time>2026-08-23T09:20:50.000Z</time>
			</trkpt>
			<trkpt lat="50.0625456" lon="8.8451901">
				<ele>176.4</ele>
				<time>2026-08-23T09:20:53.000Z</time>
			</trkpt>
			<trkpt lat="50.0625" lon="8.845387">
				<ele>176.1</ele>
				<time>2026-08-23T09:20:56.000Z</time>
			</trkpt>
			<trkpt lat="50.062471" lon="8.8455359">
				<ele>175.6</ele>
				<time>2026-08-23T09:20:58.000Z</time>
			</trkpt>
			<trkpt lat="50.062423" lon="8.8457709">
				<ele>175.1</ele>
				<time>2026-08-23T09:21:01.000Z</time>
			</trkpt>
			<trkpt lat="50.06237" lon="8.8460297">
				<ele>175.4</ele>
				<time>2026-08-23T09:21:04.000Z</time>
			</trkpt>
			<trkpt lat="50.0623105" lon="8.8463076">
				<ele>174.5</ele>
				<time>2026-08-23T09:21:07.000Z</time>
			</trkpt>
			<trkpt lat="50.0622586" lon="8.8465635">
				<ele>173.9</ele>
				<time>2026-08-23T09:21:10.000Z</time>
			</trkpt>
			<trkpt lat="50.062207" lon="8.8468313">
				<ele>173.8</ele>
				<time>2026-08-23T09:21:13.000Z</time>
			</trkpt>
			<trkpt lat="50.0621549" lon="8.8471004">
				<ele>173.6</ele>
				<time>2026-08-23T09:21:16.000Z</time>
			</trkpt>
			<trkpt lat="50.0621175" lon="8.8472879">
				<ele>173</ele>
				<time>2026-08-23T09:21:18.000Z</time>
			</trkpt>
			<trkpt lat="50.0620665" lon="8.8475895">
				<ele>173.1</ele>
				<time>2026-08-23T09:21:21.000Z</time>
			</trkpt>
			<trkpt lat="50.0620077" lon="8.847909">
				<ele>173</ele>
				<time>2026-08-23T09:21:24.000Z</time>
			</trkpt>
			<trkpt lat="50.0619641" lon="8.8481426">
				<ele>173.1</ele>
				<time>2026-08-23T09:21:26.000Z</time>
			</trkpt>
			<trkpt lat="50.0618854" lon="8.8485715">
				<ele>173.1</ele>
				<time>2026-08-23T09:21:29.000Z</time>
			</trkpt>
			<trkpt lat="50.0618006" lon="8.8490365">
				<ele>173.1</ele>
				<time>2026-08-23T09:21:32.000Z</time>
			</trkpt>
			<trkpt lat="50.0617477" lon="8.8493483">
				<ele>172.8</ele>
				<time>2026-08-23T09:21:34.000Z</time>
			</trkpt>
			<trkpt lat="50.0616918" lon="8.8496751">
				<ele>172.7</ele>
				<time>2026-08-23T09:21:36.000Z</time>
			</trkpt>
			<trkpt lat="50.0616118" lon="8.8502106">
				<ele>172.6</ele>
				<time>2026-08-23T09:21:39.000Z</time>
			</trkpt>
			<trkpt lat="50.061537" lon="8.8507616">
				<ele>172.4</ele>
				<time>2026-08-23T09:21:42.000Z</time>
			</trkpt>
			<trkpt lat="50.0614592" lon="8.8513387">
				<ele>172.1</ele>
				<time>2026-08-23T09:21:45.000Z</time>
			</trkpt>
			<trkpt lat="50.0613936" lon="8.8518508">
				<ele>172</ele>
				<time>2026-08-23T09:21:48.000Z</time>
			</trkpt>
			<trkpt lat="50.0613404" lon="8.852276">
				<ele>172</ele>
				<time>2026-08-23T09:21:51.000Z</time>
			</trkpt>
			<trkpt lat="50.061296" lon="8.8526801">
				<ele>171.8</ele>
				<time>2026-08-23T09:21:54.000Z</time>
			</trkpt>
			<trkpt lat="50.0612514" lon="8.8530831">
				<ele>172</ele>
				<time>2026-08-23T09:21:57.000Z</time>
			</trkpt>
			<trkpt lat="50.0612246" lon="8.8533513">
				<ele>172.5</ele>
				<time>2026-08-23T09:21:59.000Z</time>
			</trkpt>
			<trkpt lat="50.061185" lon="8.8537291">
				<ele>171.9</ele>
				<time>2026-08-23T09:22:02.000Z</time>
			</trkpt>
			<trkpt lat="50.0611604" lon="8.8539487">
				<ele>171.8</ele>
				<time>2026-08-23T09:22:04.000Z</time>
			</trkpt>
			<trkpt lat="50.0611326" lon="8.8542556">
				<ele>171.8</ele>
				<time>2026-08-23T09:22:07.000Z</time>
			</trkpt>
			<trkpt lat="50.0611" lon="8.8545591">
				<ele>171.4</ele>
				<time>2026-08-23T09:22:10.000Z</time>
			</trkpt>
			<trkpt lat="50.0610857" lon="8.8547339">
				<ele>171.9</ele>
				<time>2026-08-23T09:22:12.000Z</time>
			</trkpt>
			<trkpt lat="50.0610707" lon="8.8549343">
				<ele>172.3</ele>
				<time>2026-08-23T09:22:15.000Z</time>
			</trkpt>
			<trkpt lat="50.0610597" lon="8.8550929">
				<ele>172.3</ele>
				<time>2026-08-23T09:22:17.000Z</time>
			</trkpt>
			<trkpt lat="50.0610348" lon="8.855415">
				<ele>172.8</ele>
				<time>2026-08-23T09:22:20.000Z</time>
			</trkpt>
			<trkpt lat="50.0610128" lon="8.8556763">
				<ele>172.6</ele>
				<time>2026-08-23T09:22:22.000Z</time>
			</trkpt>
			<trkpt lat="50.0609746" lon="8.8561277">
				<ele>172.2</ele>
				<time>2026-08-23T09:22:25.000Z</time>
			</trkpt>
			<trkpt lat="50.0609401" lon="8.8566457">
				<ele>172.4</ele>
				<time>2026-08-23T09:22:28.000Z</time>
			</trkpt>
			<trkpt lat="50.0609152" lon="8.8570235">
				<ele>173</ele>
				<time>2026-08-23T09:22:30.000Z</time>
			</trkpt>
			<trkpt lat="50.0608878" lon="8.857416">
				<ele>173.2</ele>
				<time>2026-08-23T09:22:32.000Z</time>
			</trkpt>
			<trkpt lat="50.0608462" lon="8.8580394">
				<ele>172.7</ele>
				<time>2026-08-23T09:22:35.000Z</time>
			</trkpt>
			<trkpt lat="50.0608019" lon="8.8586849">
				<ele>172.9</ele>
				<time>2026-08-23T09:22:38.000Z</time>
			</trkpt>
			<trkpt lat="50.0607781" lon="8.8591305">
				<ele>173</ele>
				<time>2026-08-23T09:22:40.000Z</time>
			</trkpt>
			<trkpt lat="50.0607465" lon="8.8595834">
				<ele>173.1</ele>
				<time>2026-08-23T09:22:42.000Z</time>
			</trkpt>
			<trkpt lat="50.0606987" lon="8.8602737">
				<ele>173.2</ele>
				<time>2026-08-23T09:22:45.000Z</time>
			</trkpt>
			<trkpt lat="50.0606531" lon="8.8609718">
				<ele>173.2</ele>
				<time>2026-08-23T09:22:48.000Z</time>
			</trkpt>
			<trkpt lat="50.0606077" lon="8.8616483">
				<ele>173.4</ele>
				<time>2026-08-23T09:22:51.000Z</time>
			</trkpt>
			<trkpt lat="50.060577" lon="8.8620918">
				<ele>173.7</ele>
				<time>2026-08-23T09:22:53.000Z</time>
			</trkpt>
			<trkpt lat="50.060547" lon="8.8625399">
				<ele>173.9</ele>
				<time>2026-08-23T09:22:55.000Z</time>
			</trkpt>
			<trkpt lat="50.0605165" lon="8.8629904">
				<ele>174.4</ele>
				<time>2026-08-23T09:22:57.000Z</time>
			</trkpt>
			<trkpt lat="50.0604724" lon="8.863662">
				<ele>175.3</ele>
				<time>2026-08-23T09:23:00.000Z</time>
			</trkpt>
			<trkpt lat="50.060428" lon="8.8643497">
				<ele>175.7</ele>
				<time>2026-08-23T09:23:03.000Z</time>
			</trkpt>
			<trkpt lat="50.0603822" lon="8.8650576">
				<ele>177.1</ele>
				<time>2026-08-23T09:23:06.000Z</time>
			</trkpt>
			<trkpt lat="50.0603339" lon="8.8658041">
				<ele>177.6</ele>
				<time>2026-08-23T09:23:09.000Z</time>
			</trkpt>
			<trkpt lat="50.0602832" lon="8.8665731">
				<ele>178.8</ele>
				<time>2026-08-23T09:23:12.000Z</time>
			</trkpt>
			<trkpt lat="50.0602491" lon="8.8670882">
				<ele>179</ele>
				<time>2026-08-23T09:23:14.000Z</time>
			</trkpt>
			<trkpt lat="50.0602136" lon="8.8676161">
				<ele>179.1</ele>
				<time>2026-08-23T09:23:16.000Z</time>
			</trkpt>
			<trkpt lat="50.0601605" lon="8.8683961">
				<ele>178.6</ele>
				<time>2026-08-23T09:23:19.000Z</time>
			</trkpt>
			<trkpt lat="50.0601084" lon="8.8691563">
				<ele>179.2</ele>
				<time>2026-08-23T09:23:22.000Z</time>
			</trkpt>
			<trkpt lat="50.0600623" lon="8.8698873">
				<ele>179.5</ele>
				<time>2026-08-23T09:23:25.000Z</time>
			</trkpt>
			<trkpt lat="50.0600268" lon="8.8703806">
				<ele>179.5</ele>
				<time>2026-08-23T09:23:27.000Z</time>
			</trkpt>
			<trkpt lat="50.0599804" lon="8.8711447">
				<ele>179.9</ele>
				<time>2026-08-23T09:23:30.000Z</time>
			</trkpt>
			<trkpt lat="50.059947" lon="8.8716677">
				<ele>179.9</ele>
				<time>2026-08-23T09:23:32.000Z</time>
			</trkpt>
			<trkpt lat="50.0598911" lon="8.8724726">
				<ele>179.6</ele>
				<time>2026-08-23T09:23:35.000Z</time>
			</trkpt>
			<trkpt lat="50.0598429" lon="8.8732753">
				<ele>177.7</ele>
				<time>2026-08-23T09:23:38.000Z</time>
			</trkpt>
			<trkpt lat="50.0597916" lon="8.8740995">
				<ele>177.9</ele>
				<time>2026-08-23T09:23:41.000Z</time>
			</trkpt>
			<trkpt lat="50.0597351" lon="8.8749396">
				<ele>177.9</ele>
				<time>2026-08-23T09:23:44.000Z</time>
			</trkpt>
			<trkpt lat="50.0596771" lon="8.8757759">
				<ele>178</ele>
				<time>2026-08-23T09:23:47.000Z</time>
			</trkpt>
			<trkpt lat="50.0596406" lon="8.8763418">
				<ele>178</ele>
				<time>2026-08-23T09:23:49.000Z</time>
			</trkpt>
			<trkpt lat="50.059582" lon="8.8772089">
				<ele>178.4</ele>
				<time>2026-08-23T09:23:52.000Z</time>
			</trkpt>
			<trkpt lat="50.0595005" lon="8.8781082">
				<ele>177.4</ele>
				<time>2026-08-23T09:23:55.000Z</time>
			</trkpt>
			<trkpt lat="50.0594482" lon="8.8787294">
				<ele>177.3</ele>
				<time>2026-08-23T09:23:57.000Z</time>
			</trkpt>
			<trkpt lat="50.0593785" lon="8.8797058">
				<ele>176.7</ele>
				<time>2026-08-23T09:24:00.000Z</time>
			</trkpt>
			<trkpt lat="50.059313" lon="8.8806957">
				<ele>174.1</ele>
				<time>2026-08-23T09:24:03.000Z</time>
			</trkpt>
			<trkpt lat="50.0592612" lon="8.8813949">
				<ele>174.3</ele>
				<time>2026-08-23T09:24:05.000Z</time>
			</trkpt>
			<trkpt lat="50.059164" lon="8.8824772">
				<ele>174.7</ele>
				<time>2026-08-23T09:24:08.000Z</time>
			</trkpt>
			<trkpt lat="50.0590655" lon="8.8835906">
				<ele>175.9</ele>
				<time>2026-08-23T09:24:11.000Z</time>
			</trkpt>
			<trkpt lat="50.0590024" lon="8.8843308">
				<ele>176.1</ele>
				<time>2026-08-23T09:24:13.000Z</time>
			</trkpt>
			<trkpt lat="50.0589381" lon="8.8850786">
				<ele>176</ele>
				<time>2026-08-23T09:24:15.000Z</time>
			</trkpt>
			<trkpt lat="50.0588486" lon="8.886177">
				<ele>173.9</ele>
				<time>2026-08-23T09:24:18.000Z</time>
			</trkpt>
			<trkpt lat="50.0587446" lon="8.8873164">
				<ele>172.8</ele>
				<time>2026-08-23T09:24:21.000Z</time>
			</trkpt>
			<trkpt lat="50.0586725" lon="8.888076">
				<ele>173.5</ele>
				<time>2026-08-23T09:24:23.000Z</time>
			</trkpt>
			<trkpt lat="50.0585549" lon="8.8892296">
				<ele>173</ele>
				<time>2026-08-23T09:24:26.000Z</time>
			</trkpt>
			<trkpt lat="50.0584741" lon="8.8900013">
				<ele>173.4</ele>
				<time>2026-08-23T09:24:28.000Z</time>
			</trkpt>
			<trkpt lat="50.0583483" lon="8.8911685">
				<ele>173.1</ele>
				<time>2026-08-23T09:24:31.000Z</time>
			</trkpt>
			<trkpt lat="50.0582642" lon="8.8919785">
				<ele>173.8</ele>
				<time>2026-08-23T09:24:33.000Z</time>
			</trkpt>
			<trkpt lat="50.0581233" lon="8.8931726">
				<ele>174.5</ele>
				<time>2026-08-23T09:24:36.000Z</time>
			</trkpt>
			<trkpt lat="50.05798" lon="8.8943471">
				<ele>173.4</ele>
				<time>2026-08-23T09:24:39.000Z</time>
			</trkpt>
			<trkpt lat="50.0578803" lon="8.8951439">
				<ele>174.5</ele>
				<time>2026-08-23T09:24:41.000Z</time>
			</trkpt>
			<trkpt lat="50.0577059" lon="8.896333">
				<ele>175.4</ele>
				<time>2026-08-23T09:24:44.000Z</time>
			</trkpt>
			<trkpt lat="50.0575235" lon="8.8974987">
				<ele>175.2</ele>
				<time>2026-08-23T09:24:47.000Z</time>
			</trkpt>
			<trkpt lat="50.0573426" lon="8.8986738">
				<ele>175.6</ele>
				<time>2026-08-23T09:24:50.000Z</time>
			</trkpt>
			<trkpt lat="50.0571456" lon="8.8998689">
				<ele>175.6</ele>
				<time>2026-08-23T09:24:53.000Z</time>
			</trkpt>
			<trkpt lat="50.0570071" lon="8.9006525">
				<ele>175.7</ele>
				<time>2026-08-23T09:24:55.000Z</time>
			</trkpt>
			<trkpt lat="50.0567927" lon="8.9018413">
				<ele>175.9</ele>
				<time>2026-08-23T09:24:58.000Z</time>
			</trkpt>
			<trkpt lat="50.0565623" lon="8.9030511">
				<ele>176.8</ele>
				<time>2026-08-23T09:25:01.000Z</time>
			</trkpt>
			<trkpt lat="50.0563224" lon="8.9042459">
				<ele>177.2</ele>
				<time>2026-08-23T09:25:04.000Z</time>
			</trkpt>
			<trkpt lat="50.0560726" lon="8.905418">
				<ele>178.6</ele>
				<time>2026-08-23T09:25:07.000Z</time>
			</trkpt>
			<trkpt lat="50.0558145" lon="8.9065856">
				<ele>178.8</ele>
				<time>2026-08-23T09:25:10.000Z</time>
			</trkpt>
			<trkpt lat="50.0555326" lon="8.9077445">
				<ele>179.4</ele>
				<time>2026-08-23T09:25:13.000Z</time>
			</trkpt>
			<trkpt lat="50.0552362" lon="8.9088979">
				<ele>180.1</ele>
				<time>2026-08-23T09:25:16.000Z</time>
			</trkpt>
			<trkpt lat="50.0550313" lon="8.9096667">
				<ele>180.7</ele>
				<time>2026-08-23T09:25:18.000Z</time>
			</trkpt>
			<trkpt lat="50.0548182" lon="8.910425">
				<ele>181</ele>
				<time>2026-08-23T09:25:20.000Z</time>
			</trkpt>
			<trkpt lat="50.0544896" lon="8.9115544">
				<ele>182.2</ele>
				<time>2026-08-23T09:25:23.000Z</time>
			</trkpt>
			<trkpt lat="50.0541611" lon="8.9126329">
				<ele>183.2</ele>
				<time>2026-08-23T09:25:26.000Z</time>
			</trkpt>
			<trkpt lat="50.0538251" lon="8.9136861">
				<ele>183.7</ele>
				<time>2026-08-23T09:25:29.000Z</time>
			</trkpt>
			<trkpt lat="50.0534681" lon="8.9147397">
				<ele>184.3</ele>
				<time>2026-08-23T09:25:32.000Z</time>
			</trkpt>
			<trkpt lat="50.0532164" lon="8.9154274">
				<ele>184.6</ele>
				<time>2026-08-23T09:25:34.000Z</time>
			</trkpt>
			<trkpt lat="50.0528335" lon="8.9164759">
				<ele>184.9</ele>
				<time>2026-08-23T09:25:37.000Z</time>
			</trkpt>
			<trkpt lat="50.0525784" lon="8.9171626">
				<ele>185.3</ele>
				<time>2026-08-23T09:25:39.000Z</time>
			</trkpt>
			<trkpt lat="50.0523129" lon="8.917836">
				<ele>184.7</ele>
				<time>2026-08-23T09:25:41.000Z</time>
			</trkpt>
			<trkpt lat="50.052032" lon="8.9185271">
				<ele>184.8</ele>
				<time>2026-08-23T09:25:43.000Z</time>
			</trkpt>
			<trkpt lat="50.0517337" lon="8.9192099">
				<ele>184.3</ele>
				<time>2026-08-23T09:25:45.000Z</time>
			</trkpt>
			<trkpt lat="50.0512709" lon="8.9202255">
				<ele>183.8</ele>
				<time>2026-08-23T09:25:48.000Z</time>
			</trkpt>
			<trkpt lat="50.0507902" lon="8.9212428">
				<ele>183.3</ele>
				<time>2026-08-23T09:25:51.000Z</time>
			</trkpt>
			<trkpt lat="50.0502854" lon="8.9222504">
				<ele>182.9</ele>
				<time>2026-08-23T09:25:54.000Z</time>
			</trkpt>
			<trkpt lat="50.0497667" lon="8.9232136">
				<ele>182.5</ele>
				<time>2026-08-23T09:25:57.000Z</time>
			</trkpt>
			<trkpt lat="50.0492342" lon="8.9241522">
				<ele>182.1</ele>
				<time>2026-08-23T09:26:00.000Z</time>
			</trkpt>
			<trkpt lat="50.0488683" lon="8.9247645">
				<ele>181.5</ele>
				<time>2026-08-23T09:26:02.000Z</time>
			</trkpt>
			<trkpt lat="50.0484849" lon="8.9253825">
				<ele>181.3</ele>
				<time>2026-08-23T09:26:04.000Z</time>
			</trkpt>
			<trkpt lat="50.0479123" lon="8.9262791">
				<ele>180.5</ele>
				<time>2026-08-23T09:26:07.000Z</time>
			</trkpt>
			<trkpt lat="50.0475211" lon="8.9268605">
				<ele>179.5</ele>
				<time>2026-08-23T09:26:09.000Z</time>
			</trkpt>
			<trkpt lat="50.0469114" lon="8.9276928">
				<ele>177.9</ele>
				<time>2026-08-23T09:26:12.000Z</time>
			</trkpt>
			<trkpt lat="50.0462979" lon="8.9284968">
				<ele>175.8</ele>
				<time>2026-08-23T09:26:15.000Z</time>
			</trkpt>
			<trkpt lat="50.0458834" lon="8.9290297">
				<ele>175.2</ele>
				<time>2026-08-23T09:26:17.000Z</time>
			</trkpt>
			<trkpt lat="50.0452449" lon="8.9297844">
				<ele>173.7</ele>
				<time>2026-08-23T09:26:20.000Z</time>
			</trkpt>
			<trkpt lat="50.0448025" lon="8.9302737">
				<ele>173.4</ele>
				<time>2026-08-23T09:26:22.000Z</time>
			</trkpt>
			<trkpt lat="50.0441313" lon="8.9309771">
				<ele>172.8</ele>
				<time>2026-08-23T09:26:25.000Z</time>
			</trkpt>
			<trkpt lat="50.0434478" lon="8.9316364">
				<ele>172.5</ele>
				<time>2026-08-23T09:26:28.000Z</time>
			</trkpt>
			<trkpt lat="50.0429881" lon="8.9320542">
				<ele>172.4</ele>
				<time>2026-08-23T09:26:30.000Z</time>
			</trkpt>
			<trkpt lat="50.0425217" lon="8.9324487">
				<ele>172.5</ele>
				<time>2026-08-23T09:26:32.000Z</time>
			</trkpt>
			<trkpt lat="50.0420549" lon="8.9328276">
				<ele>172.8</ele>
				<time>2026-08-23T09:26:34.000Z</time>
			</trkpt>
			<trkpt lat="50.0415842" lon="8.9331912">
				<ele>173.4</ele>
				<time>2026-08-23T09:26:36.000Z</time>
			</trkpt>
			<trkpt lat="50.0411149" lon="8.9335278">
				<ele>174</ele>
				<time>2026-08-23T09:26:38.000Z</time>
			</trkpt>
			<trkpt lat="50.0404078" lon="8.9339945">
				<ele>175</ele>
				<time>2026-08-23T09:26:41.000Z</time>
			</trkpt>
			<trkpt lat="50.0397142" lon="8.9344491">
				<ele>174.9</ele>
				<time>2026-08-23T09:26:44.000Z</time>
			</trkpt>
			<trkpt lat="50.0392466" lon="8.9347371">
				<ele>174.1</ele>
				<time>2026-08-23T09:26:46.000Z</time>
			</trkpt>
			<trkpt lat="50.0385227" lon="8.9351403">
				<ele>174.7</ele>
				<time>2026-08-23T09:26:49.000Z</time>
			</trkpt>
			<trkpt lat="50.0378032" lon="8.9355217">
				<ele>174.9</ele>
				<time>2026-08-23T09:26:52.000Z</time>
			</trkpt>
			<trkpt lat="50.037317" lon="8.9357642">
				<ele>175.7</ele>
				<time>2026-08-23T09:26:54.000Z</time>
			</trkpt>
			<trkpt lat="50.0365836" lon="8.9361353">
				<ele>177.3</ele>
				<time>2026-08-23T09:26:57.000Z</time>
			</trkpt>
			<trkpt lat="50.036096" lon="8.9363597">
				<ele>176.9</ele>
				<time>2026-08-23T09:26:59.000Z</time>
			</trkpt>
			<trkpt lat="50.0353498" lon="8.9367066">
				<ele>177.1</ele>
				<time>2026-08-23T09:27:02.000Z</time>
			</trkpt>
			<trkpt lat="50.034838" lon="8.9369337">
				<ele>177.5</ele>
				<time>2026-08-23T09:27:04.000Z</time>
			</trkpt>
			<trkpt lat="50.0343275" lon="8.9371546">
				<ele>177.5</ele>
				<time>2026-08-23T09:27:06.000Z</time>
			</trkpt>
			<trkpt lat="50.0335591" lon="8.9374753">
				<ele>176.5</ele>
				<time>2026-08-23T09:27:09.000Z</time>
			</trkpt>
			<trkpt lat="50.0330428" lon="8.937708">
				<ele>176</ele>
				<time>2026-08-23T09:27:11.000Z</time>
			</trkpt>
			<trkpt lat="50.0325096" lon="8.9379407">
				<ele>175.6</ele>
				<time>2026-08-23T09:27:13.000Z</time>
			</trkpt>
			<trkpt lat="50.0317112" lon="8.9383095">
				<ele>176</ele>
				<time>2026-08-23T09:27:16.000Z</time>
			</trkpt>
			<trkpt lat="50.0309245" lon="8.9386968">
				<ele>176.1</ele>
				<time>2026-08-23T09:27:19.000Z</time>
			</trkpt>
			<trkpt lat="50.030142" lon="8.9391022">
				<ele>175.7</ele>
				<time>2026-08-23T09:27:22.000Z</time>
			</trkpt>
			<trkpt lat="50.0296241" lon="8.9394022">
				<ele>176.2</ele>
				<time>2026-08-23T09:27:24.000Z</time>
			</trkpt>
			<trkpt lat="50.0288614" lon="8.9398746">
				<ele>176.5</ele>
				<time>2026-08-23T09:27:27.000Z</time>
			</trkpt>
			<trkpt lat="50.0281211" lon="8.940407">
				<ele>177</ele>
				<time>2026-08-23T09:27:30.000Z</time>
			</trkpt>
			<trkpt lat="50.0276468" lon="8.9407963">
				<ele>177.5</ele>
				<time>2026-08-23T09:27:32.000Z</time>
			</trkpt>
			<trkpt lat="50.0269529" lon="8.9414074">
				<ele>178.1</ele>
				<time>2026-08-23T09:27:35.000Z</time>
			</trkpt>
			<trkpt lat="50.026287" lon="8.942081">
				<ele>178.6</ele>
				<time>2026-08-23T09:27:38.000Z</time>
			</trkpt>
			<trkpt lat="50.0258474" lon="8.9425608">
				<ele>178.6</ele>
				<time>2026-08-23T09:27:40.000Z</time>
			</trkpt>
			<trkpt lat="50.025426" lon="8.9430489">
				<ele>179.4</ele>
				<time>2026-08-23T09:27:42.000Z</time>
			</trkpt>
			<trkpt lat="50.0248032" lon="8.9438357">
				<ele>180.1</ele>
				<time>2026-08-23T09:27:45.000Z</time>
			</trkpt>
			<trkpt lat="50.0244069" lon="8.9443806">
				<ele>180</ele>
				<time>2026-08-23T09:27:47.000Z</time>
			</trkpt>
			<trkpt lat="50.0240175" lon="8.9449401">
				<ele>180.1</ele>
				<time>2026-08-23T09:27:49.000Z</time>
			</trkpt>
			<trkpt lat="50.0234466" lon="8.9458189">
				<ele>180.2</ele>
				<time>2026-08-23T09:27:52.000Z</time>
			</trkpt>
			<trkpt lat="50.0230727" lon="8.9464122">
				<ele>179.9</ele>
				<time>2026-08-23T09:27:54.000Z</time>
			</trkpt>
			<trkpt lat="50.0227162" lon="8.9470402">
				<ele>179.8</ele>
				<time>2026-08-23T09:27:56.000Z</time>
			</trkpt>
			<trkpt lat="50.022189" lon="8.9479891">
				<ele>179.9</ele>
				<time>2026-08-23T09:27:59.000Z</time>
			</trkpt>
			<trkpt lat="50.021852" lon="8.9486458">
				<ele>180.2</ele>
				<time>2026-08-23T09:28:01.000Z</time>
			</trkpt>
			<trkpt lat="50.0215156" lon="8.9493163">
				<ele>180.1</ele>
				<time>2026-08-23T09:28:03.000Z</time>
			</trkpt>
			<trkpt lat="50.0210292" lon="8.9503472">
				<ele>180.1</ele>
				<time>2026-08-23T09:28:06.000Z</time>
			</trkpt>
			<trkpt lat="50.0207123" lon="8.9510438">
				<ele>181.4</ele>
				<time>2026-08-23T09:28:08.000Z</time>
			</trkpt>
			<trkpt lat="50.0203859" lon="8.9517342">
				<ele>180.8</ele>
				<time>2026-08-23T09:28:10.000Z</time>
			</trkpt>
			<trkpt lat="50.0199202" lon="8.9527972">
				<ele>179.4</ele>
				<time>2026-08-23T09:28:13.000Z</time>
			</trkpt>
			<trkpt lat="50.0196157" lon="8.9535">
				<ele>178.1</ele>
				<time>2026-08-23T09:28:15.000Z</time>
			</trkpt>
			<trkpt lat="50.0191477" lon="8.9545486">
				<ele>176.8</ele>
				<time>2026-08-23T09:28:18.000Z</time>
			</trkpt>
			<trkpt lat="50.0186899" lon="8.9556096">
				<ele>176.1</ele>
				<time>2026-08-23T09:28:21.000Z</time>
			</trkpt>
			<trkpt lat="50.018381" lon="8.9563068">
				<ele>175.8</ele>
				<time>2026-08-23T09:28:23.000Z</time>
			</trkpt>
			<trkpt lat="50.0179328" lon="8.9573318">
				<ele>175.6</ele>
				<time>2026-08-23T09:28:26.000Z</time>
			</trkpt>
			<trkpt lat="50.0176391" lon="8.9580134">
				<ele>174.9</ele>
				<time>2026-08-23T09:28:28.000Z</time>
			</trkpt>
			<trkpt lat="50.0171958" lon="8.959082">
				<ele>175.1</ele>
				<time>2026-08-23T09:28:31.000Z</time>
			</trkpt>
			<trkpt lat="50.0167421" lon="8.9601664">
				<ele>174.7</ele>
				<time>2026-08-23T09:28:34.000Z</time>
			</trkpt>
			<trkpt lat="50.0162695" lon="8.9612502">
				<ele>175.6</ele>
				<time>2026-08-23T09:28:37.000Z</time>
			</trkpt>
			<trkpt lat="50.0157855" lon="8.962314">
				<ele>175.8</ele>
				<time>2026-08-23T09:28:40.000Z</time>
			</trkpt>
			<trkpt lat="50.0154843" lon="8.9630393">
				<ele>177.3</ele>
				<time>2026-08-23T09:28:42.000Z</time>
			</trkpt>
			<trkpt lat="50.0150247" lon="8.9641039">
				<ele>178.1</ele>
				<time>2026-08-23T09:28:45.000Z</time>
			</trkpt>
			<trkpt lat="50.014717" lon="8.9648164">
				<ele>179.2</ele>
				<time>2026-08-23T09:28:47.000Z</time>
			</trkpt>
			<trkpt lat="50.0144106" lon="8.965529">
				<ele>180.2</ele>
				<time>2026-08-23T09:28:49.000Z</time>
			</trkpt>
			<trkpt lat="50.0139535" lon="8.9666021">
				<ele>181.3</ele>
				<time>2026-08-23T09:28:52.000Z</time>
			</trkpt>
			<trkpt lat="50.0136372" lon="8.9673119">
				<ele>182.6</ele>
				<time>2026-08-23T09:28:54.000Z</time>
			</trkpt>
			<trkpt lat="50.0133207" lon="8.9680155">
				<ele>182.7</ele>
				<time>2026-08-23T09:28:56.000Z</time>
			</trkpt>
			<trkpt lat="50.0128486" lon="8.9690606">
				<ele>182.9</ele>
				<time>2026-08-23T09:28:59.000Z</time>
			</trkpt>
			<trkpt lat="50.0125368" lon="8.969757">
				<ele>183.5</ele>
				<time>2026-08-23T09:29:01.000Z</time>
			</trkpt>
			<trkpt lat="50.0122329" lon="8.9704596">
				<ele>184.2</ele>
				<time>2026-08-23T09:29:03.000Z</time>
			</trkpt>
			<trkpt lat="50.0117728" lon="8.9715185">
				<ele>183.4</ele>
				<time>2026-08-23T09:29:06.000Z</time>
			</trkpt>
			<trkpt lat="50.0113165" lon="8.9725637">
				<ele>183</ele>
				<time>2026-08-23T09:29:09.000Z</time>
			</trkpt>
			<trkpt lat="50.0108734" lon="8.9736102">
				<ele>183.2</ele>
				<time>2026-08-23T09:29:12.000Z</time>
			</trkpt>
			<trkpt lat="50.0104302" lon="8.9746324">
				<ele>183.7</ele>
				<time>2026-08-23T09:29:15.000Z</time>
			</trkpt>
			<trkpt lat="50.0099924" lon="8.9756505">
				<ele>184.3</ele>
				<time>2026-08-23T09:29:18.000Z</time>
			</trkpt>
			<trkpt lat="50.0095401" lon="8.9766741">
				<ele>184.3</ele>
				<time>2026-08-23T09:29:21.000Z</time>
			</trkpt>
			<trkpt lat="50.0092485" lon="8.9773538">
				<ele>184.1</ele>
				<time>2026-08-23T09:29:23.000Z</time>
			</trkpt>
			<trkpt lat="50.00896" lon="8.9780169">
				<ele>183.6</ele>
				<time>2026-08-23T09:29:25.000Z</time>
			</trkpt>
			<trkpt lat="50.0085259" lon="8.979026">
				<ele>183.5</ele>
				<time>2026-08-23T09:29:28.000Z</time>
			</trkpt>
			<trkpt lat="50.008079" lon="8.9800371">
				<ele>184</ele>
				<time>2026-08-23T09:29:31.000Z</time>
			</trkpt>
			<trkpt lat="50.0077832" lon="8.9807095">
				<ele>183.5</ele>
				<time>2026-08-23T09:29:33.000Z</time>
			</trkpt>
			<trkpt lat="50.0074889" lon="8.9813838">
				<ele>183.4</ele>
				<time>2026-08-23T09:29:35.000Z</time>
			</trkpt>
			<trkpt lat="50.0070441" lon="8.9823964">
				<ele>183</ele>
				<time>2026-08-23T09:29:38.000Z</time>
			</trkpt>
			<trkpt lat="50.0067603" lon="8.9830636">
				<ele>183.3</ele>
				<time>2026-08-23T09:29:40.000Z</time>
			</trkpt>
			<trkpt lat="50.0063368" lon="8.9840397">
				<ele>183.4</ele>
				<time>2026-08-23T09:29:43.000Z</time>
			</trkpt>
			<trkpt lat="50.0059141" lon="8.9850274">
				<ele>182.3</ele>
				<time>2026-08-23T09:29:46.000Z</time>
			</trkpt>
			<trkpt lat="50.0056264" lon="8.985697">
				<ele>182.1</ele>
				<time>2026-08-23T09:29:48.000Z</time>
			</trkpt>
			<trkpt lat="50.0051882" lon="8.9867027">
				<ele>183</ele>
				<time>2026-08-23T09:29:51.000Z</time>
			</trkpt>
			<trkpt lat="50.0049039" lon="8.9873718">
				<ele>183.2</ele>
				<time>2026-08-23T09:29:53.000Z</time>
			</trkpt>
			<trkpt lat="50.0044749" lon="8.988355">
				<ele>183.2</ele>
				<time>2026-08-23T09:29:56.000Z</time>
			</trkpt>
			<trkpt lat="50.004188" lon="8.9890016">
				<ele>183.5</ele>
				<time>2026-08-23T09:29:58.000Z</time>
			</trkpt>
			<trkpt lat="50.0039056" lon="8.9896542">
				<ele>183.4</ele>
				<time>2026-08-23T09:30:00.000Z</time>
			</trkpt>
			<trkpt lat="50.0036218" lon="8.990301">
				<ele>183.2</ele>
				<time>2026-08-23T09:30:02.000Z</time>
			</trkpt>
			<trkpt lat="50.0032046" lon="8.9912823">
				<ele>183.4</ele>
				<time>2026-08-23T09:30:05.000Z</time>
			</trkpt>
			<trkpt lat="50.0027896" lon="8.9922479">
				<ele>183.2</ele>
				<time>2026-08-23T09:30:08.000Z</time>
			</trkpt>
			<trkpt lat="50.0023803" lon="8.9931934">
				<ele>183.5</ele>
				<time>2026-08-23T09:30:11.000Z</time>
			</trkpt>
			<trkpt lat="50.0021041" lon="8.9938128">
				<ele>183.9</ele>
				<time>2026-08-23T09:30:13.000Z</time>
			</trkpt>
			<trkpt lat="50.0018365" lon="8.9944256">
				<ele>183.5</ele>
				<time>2026-08-23T09:30:15.000Z</time>
			</trkpt>
			<trkpt lat="50.0014358" lon="8.9953372">
				<ele>182.9</ele>
				<time>2026-08-23T09:30:18.000Z</time>
			</trkpt>
			<trkpt lat="50.0011766" lon="8.995939">
				<ele>182.8</ele>
				<time>2026-08-23T09:30:20.000Z</time>
			</trkpt>
			<trkpt lat="50.0007879" lon="8.9968332">
				<ele>182.8</ele>
				<time>2026-08-23T09:30:23.000Z</time>
			</trkpt>
			<trkpt lat="50.0005313" lon="8.9974147">
				<ele>182.4</ele>
				<time>2026-08-23T09:30:25.000Z</time>
			</trkpt>
			<trkpt lat="50.0001557" lon="8.9982852">
				<ele>181.7</ele>
				<time>2026-08-23T09:30:28.000Z</time>
			</trkpt>
			<trkpt lat="49.9997627" lon="8.9991711">
				<ele>180.8</ele>
				<time>2026-08-23T09:30:31.000Z</time>
			</trkpt>
			<trkpt lat="49.9993654" lon="9.0000771">
				<ele>179.9</ele>
				<time>2026-08-23T09:30:34.000Z</time>
			</trkpt>
			<trkpt lat="49.9990986" lon="9.000687">
				<ele>179.5</ele>
				<time>2026-08-23T09:30:36.000Z</time>
			</trkpt>
			<trkpt lat="49.998704" lon="9.0016059">
				<ele>178.7</ele>
				<time>2026-08-23T09:30:39.000Z</time>
			</trkpt>
			<trkpt lat="49.9983037" lon="9.0025159">
				<ele>178.1</ele>
				<time>2026-08-23T09:30:42.000Z</time>
			</trkpt>
			<trkpt lat="49.9979156" lon="9.0034077">
				<ele>177.4</ele>
				<time>2026-08-23T09:30:45.000Z</time>
			</trkpt>
			<trkpt lat="49.9975246" lon="9.0042853">
				<ele>177.5</ele>
				<time>2026-08-23T09:30:48.000Z</time>
			</trkpt>
			<trkpt lat="49.9971434" lon="9.0051742">
				<ele>176.5</ele>
				<time>2026-08-23T09:30:51.000Z</time>
			</trkpt>
			<trkpt lat="49.996877" lon="9.0057802">
				<ele>176.4</ele>
				<time>2026-08-23T09:30:53.000Z</time>
			</trkpt>
			<trkpt lat="49.9966196" lon="9.0063855">
				<ele>176.3</ele>
				<time>2026-08-23T09:30:55.000Z</time>
			</trkpt>
			<trkpt lat="49.9962143" lon="9.0073223">
				<ele>176.9</ele>
				<time>2026-08-23T09:30:58.000Z</time>
			</trkpt>
			<trkpt lat="49.9958281" lon="9.0082308">
				<ele>177.1</ele>
				<time>2026-08-23T09:31:01.000Z</time>
			</trkpt>
			<trkpt lat="49.9954475" lon="9.0091002">
				<ele>176.7</ele>
				<time>2026-08-23T09:31:04.000Z</time>
			</trkpt>
			<trkpt lat="49.9951958" lon="9.0096766">
				<ele>176.7</ele>
				<time>2026-08-23T09:31:06.000Z</time>
			</trkpt>
			<trkpt lat="49.9948222" lon="9.0105213">
				<ele>176.5</ele>
				<time>2026-08-23T09:31:09.000Z</time>
			</trkpt>
			<trkpt lat="49.9944442" lon="9.0113894">
				<ele>176.7</ele>
				<time>2026-08-23T09:31:12.000Z</time>
			</trkpt>
			<trkpt lat="49.9940779" lon="9.0122448">
				<ele>177</ele>
				<time>2026-08-23T09:31:15.000Z</time>
			</trkpt>
			<trkpt lat="49.9938343" lon="9.0128029">
				<ele>177</ele>
				<time>2026-08-23T09:31:17.000Z</time>
			</trkpt>
			<trkpt lat="49.9934622" lon="9.013651">
				<ele>177.6</ele>
				<time>2026-08-23T09:31:20.000Z</time>
			</trkpt>
			<trkpt lat="49.993087" lon="9.0145218">
				<ele>178</ele>
				<time>2026-08-23T09:31:23.000Z</time>
			</trkpt>
			<trkpt lat="49.9928383" lon="9.0151073">
				<ele>178.2</ele>
				<time>2026-08-23T09:31:25.000Z</time>
			</trkpt>
			<trkpt lat="49.9925909" lon="9.015685">
				<ele>179.3</ele>
				<time>2026-08-23T09:31:27.000Z</time>
			</trkpt>
			<trkpt lat="49.9922163" lon="9.0165698">
				<ele>179</ele>
				<time>2026-08-23T09:31:30.000Z</time>
			</trkpt>
			<trkpt lat="49.9919782" lon="9.0171286">
				<ele>179.4</ele>
				<time>2026-08-23T09:31:32.000Z</time>
			</trkpt>
			<trkpt lat="49.9916253" lon="9.0179821">
				<ele>180.7</ele>
				<time>2026-08-23T09:31:35.000Z</time>
			</trkpt>
			<trkpt lat="49.991396" lon="9.0185481">
				<ele>180.9</ele>
				<time>2026-08-23T09:31:37.000Z</time>
			</trkpt>
			<trkpt lat="49.9910658" lon="9.0193765">
				<ele>181.3</ele>
				<time>2026-08-23T09:31:40.000Z</time>
			</trkpt>
			<trkpt lat="49.9908619" lon="9.0199156">
				<ele>181.2</ele>
				<time>2026-08-23T09:31:42.000Z</time>
			</trkpt>
			<trkpt lat="49.9905785" lon="9.0206992">
				<ele>181.3</ele>
				<time>2026-08-23T09:31:45.000Z</time>
			</trkpt>
			<trkpt lat="49.9902988" lon="9.0214602">
				<ele>181.6</ele>
				<time>2026-08-23T09:31:48.000Z</time>
			</trkpt>
			<trkpt lat="49.9901253" lon="9.021978">
				<ele>181.6</ele>
				<time>2026-08-23T09:31:50.000Z</time>
			</trkpt>
			<trkpt lat="49.9898679" lon="9.0227586">
				<ele>181.3</ele>
				<time>2026-08-23T09:31:53.000Z</time>
			</trkpt>
			<trkpt lat="49.9896159" lon="9.023549">
				<ele>180.5</ele>
				<time>2026-08-23T09:31:56.000Z</time>
			</trkpt>
			<trkpt lat="49.9893741" lon="9.0243715">
				<ele>180.4</ele>
				<time>2026-08-23T09:31:59.000Z</time>
			</trkpt>
			<trkpt lat="49.9892155" lon="9.0249374">
				<ele>180.6</ele>
				<time>2026-08-23T09:32:01.000Z</time>
			</trkpt>
			<trkpt lat="49.988983" lon="9.0258445">
				<ele>180.3</ele>
				<time>2026-08-23T09:32:04.000Z</time>
			</trkpt>
			<trkpt lat="49.9887688" lon="9.0267675">
				<ele>179.8</ele>
				<time>2026-08-23T09:32:07.000Z</time>
			</trkpt>
			<trkpt lat="49.9886207" lon="9.0274187">
				<ele>179.4</ele>
				<time>2026-08-23T09:32:09.000Z</time>
			</trkpt>
			<trkpt lat="49.9884166" lon="9.0284223">
				<ele>178.3</ele>
				<time>2026-08-23T09:32:12.000Z</time>
			</trkpt>
			<trkpt lat="49.9882353" lon="9.0294454">
				<ele>178.6</ele>
				<time>2026-08-23T09:32:15.000Z</time>
			</trkpt>
			<trkpt lat="49.9881233" lon="9.0301292">
				<ele>178.3</ele>
				<time>2026-08-23T09:32:17.000Z</time>
			</trkpt>
			<trkpt lat="49.9879767" lon="9.0311279">
				<ele>176.7</ele>
				<time>2026-08-23T09:32:20.000Z</time>
			</trkpt>
			<trkpt lat="49.9878439" lon="9.0321332">
				<ele>177.1</ele>
				<time>2026-08-23T09:32:23.000Z</time>
			</trkpt>
			<trkpt lat="49.9877417" lon="9.0331304">
				<ele>177.4</ele>
				<time>2026-08-23T09:32:26.000Z</time>
			</trkpt>
			<trkpt lat="49.9876815" lon="9.033797">
				<ele>177.8</ele>
				<time>2026-08-23T09:32:28.000Z</time>
			</trkpt>
			<trkpt lat="49.9876001" lon="9.0348226">
				<ele>177.4</ele>
				<time>2026-08-23T09:32:31.000Z</time>
			</trkpt>
			<trkpt lat="49.9875548" lon="9.0355271">
				<ele>177.6</ele>
				<time>2026-08-23T09:32:33.000Z</time>
			</trkpt>
			<trkpt lat="49.9875026" lon="9.0365826">
				<ele>177.3</ele>
				<time>2026-08-23T09:32:36.000Z</time>
			</trkpt>
			<trkpt lat="49.9874661" lon="9.0376073">
				<ele>177.2</ele>
				<time>2026-08-23T09:32:39.000Z</time>
			</trkpt>
			<trkpt lat="49.9874532" lon="9.0382825">
				<ele>177</ele>
				<time>2026-08-23T09:32:41.000Z</time>
			</trkpt>
			<trkpt lat="49.9874389" lon="9.0392979">
				<ele>178.4</ele>
				<time>2026-08-23T09:32:44.000Z</time>
			</trkpt>
			<trkpt lat="49.9874369" lon="9.0402869">
				<ele>177.7</ele>
				<time>2026-08-23T09:32:47.000Z</time>
			</trkpt>
			<trkpt lat="49.9874286" lon="9.0412529">
				<ele>177.4</ele>
				<time>2026-08-23T09:32:50.000Z</time>
			</trkpt>
			<trkpt lat="49.9874434" lon="9.0418782">
				<ele>176.7</ele>
				<time>2026-08-23T09:32:52.000Z</time>
			</trkpt>
			<trkpt lat="49.9874681" lon="9.0428051">
				<ele>176.6</ele>
				<time>2026-08-23T09:32:55.000Z</time>
			</trkpt>
			<trkpt lat="49.9874952" lon="9.0434006">
				<ele>175.7</ele>
				<time>2026-08-23T09:32:57.000Z</time>
			</trkpt>
			<trkpt lat="49.9875158" lon="9.0442861">
				<ele>174.8</ele>
				<time>2026-08-23T09:33:00.000Z</time>
			</trkpt>
			<trkpt lat="49.9875384" lon="9.0448512">
				<ele>172.3</ele>
				<time>2026-08-23T09:33:02.000Z</time>
			</trkpt>
			<trkpt lat="49.9875846" lon="9.0456916">
				<ele>171.4</ele>
				<time>2026-08-23T09:33:05.000Z</time>
			</trkpt>
			<trkpt lat="49.9876265" lon="9.0462668">
				<ele>171.1</ele>
				<time>2026-08-23T09:33:07.000Z</time>
			</trkpt>
			<trkpt lat="49.9876792" lon="9.0468441">
				<ele>169.8</ele>
				<time>2026-08-23T09:33:09.000Z</time>
			</trkpt>
			<trkpt lat="49.9877604" lon="9.047747">
				<ele>168.4</ele>
				<time>2026-08-23T09:33:12.000Z</time>
			</trkpt>
			<trkpt lat="49.9878636" lon="9.0486462">
				<ele>168.4</ele>
				<time>2026-08-23T09:33:15.000Z</time>
			</trkpt>
			<trkpt lat="49.98794" lon="9.0492439">
				<ele>168.6</ele>
				<time>2026-08-23T09:33:17.000Z</time>
			</trkpt>
			<trkpt lat="49.9880199" lon="9.0498286">
				<ele>168.2</ele>
				<time>2026-08-23T09:33:19.000Z</time>
			</trkpt>
			<trkpt lat="49.9881434" lon="9.0506743">
				<ele>166.1</ele>
				<time>2026-08-23T09:33:22.000Z</time>
			</trkpt>
			<trkpt lat="49.9882253" lon="9.0512399">
				<ele>165.6</ele>
				<time>2026-08-23T09:33:24.000Z</time>
			</trkpt>
			<trkpt lat="49.9883124" lon="9.0517751">
				<ele>163.5</ele>
				<time>2026-08-23T09:33:26.000Z</time>
			</trkpt>
			<trkpt lat="49.9884593" lon="9.0526778">
				<ele>163.1</ele>
				<time>2026-08-23T09:33:29.000Z</time>
			</trkpt>
			<trkpt lat="49.9886165" lon="9.0535825">
				<ele>162.7</ele>
				<time>2026-08-23T09:33:32.000Z</time>
			</trkpt>
			<trkpt lat="49.9887332" lon="9.0541688">
				<ele>162.9</ele>
				<time>2026-08-23T09:33:34.000Z</time>
			</trkpt>
			<trkpt lat="49.9889058" lon="9.0550901">
				<ele>163.6</ele>
				<time>2026-08-23T09:33:37.000Z</time>
			</trkpt>
			<trkpt lat="49.9890702" lon="9.0559954">
				<ele>162.8</ele>
				<time>2026-08-23T09:33:40.000Z</time>
			</trkpt>
			<trkpt lat="49.9892329" lon="9.0568638">
				<ele>164.1</ele>
				<time>2026-08-23T09:33:43.000Z</time>
			</trkpt>
			<trkpt lat="49.9893858" lon="9.0577">
				<ele>163.4</ele>
				<time>2026-08-23T09:33:46.000Z</time>
			</trkpt>
			<trkpt lat="49.989484" lon="9.0582344">
				<ele>163.3</ele>
				<time>2026-08-23T09:33:48.000Z</time>
			</trkpt>
			<trkpt lat="49.9895826" lon="9.0587701">
				<ele>164</ele>
				<time>2026-08-23T09:33:50.000Z</time>
			</trkpt>
			<trkpt lat="49.9897273" lon="9.0595443">
				<ele>164.4</ele>
				<time>2026-08-23T09:33:53.000Z</time>
			</trkpt>
			<trkpt lat="49.9898562" lon="9.0603293">
				<ele>164.7</ele>
				<time>2026-08-23T09:33:56.000Z</time>
			</trkpt>
			<trkpt lat="49.98994" lon="9.0608572">
				<ele>165.3</ele>
				<time>2026-08-23T09:33:58.000Z</time>
			</trkpt>
			<trkpt lat="49.9900648" lon="9.0616677">
				<ele>165.7</ele>
				<time>2026-08-23T09:34:01.000Z</time>
			</trkpt>
			<trkpt lat="49.9901895" lon="9.0624916">
				<ele>166.7</ele>
				<time>2026-08-23T09:34:04.000Z</time>
			</trkpt>
			<trkpt lat="49.9902662" lon="9.063035">
				<ele>167.2</ele>
				<time>2026-08-23T09:34:06.000Z</time>
			</trkpt>
			<trkpt lat="49.9903724" lon="9.0638389">
				<ele>167.8</ele>
				<time>2026-08-23T09:34:09.000Z</time>
			</trkpt>
			<trkpt lat="49.9904427" lon="9.0643682">
				<ele>167.7</ele>
				<time>2026-08-23T09:34:11.000Z</time>
			</trkpt>
			<trkpt lat="49.9905464" lon="9.0651391">
				<ele>168.2</ele>
				<time>2026-08-23T09:34:14.000Z</time>
			</trkpt>
			<trkpt lat="49.9906057" lon="9.0656373">
				<ele>168.3</ele>
				<time>2026-08-23T09:34:16.000Z</time>
			</trkpt>
			<trkpt lat="49.9906925" lon="9.0663884">
				<ele>168</ele>
				<time>2026-08-23T09:34:19.000Z</time>
			</trkpt>
			<trkpt lat="49.9907426" lon="9.0669045">
				<ele>168.4</ele>
				<time>2026-08-23T09:34:21.000Z</time>
			</trkpt>
			<trkpt lat="49.9907958" lon="9.0674109">
				<ele>168.8</ele>
				<time>2026-08-23T09:34:23.000Z</time>
			</trkpt>
			<trkpt lat="49.9908424" lon="9.0679152">
				<ele>168.9</ele>
				<time>2026-08-23T09:34:25.000Z</time>
			</trkpt>
			<trkpt lat="49.9909138" lon="9.0686647">
				<ele>169.5</ele>
				<time>2026-08-23T09:34:28.000Z</time>
			</trkpt>
			<trkpt lat="49.990978" lon="9.0693787">
				<ele>170</ele>
				<time>2026-08-23T09:34:31.000Z</time>
			</trkpt>
			<trkpt lat="49.991018" lon="9.0698411">
				<ele>169.8</ele>
				<time>2026-08-23T09:34:33.000Z</time>
			</trkpt>
			<trkpt lat="49.9910478" lon="9.0705105">
				<ele>169.9</ele>
				<time>2026-08-23T09:34:36.000Z</time>
			</trkpt>
			<trkpt lat="49.9909511" lon="9.0711206">
				<ele>169.5</ele>
				<time>2026-08-23T09:34:39.000Z</time>
			</trkpt>
			<trkpt lat="49.9908201" lon="9.0714846">
				<ele>169.1</ele>
				<time>2026-08-23T09:34:41.000Z</time>
			</trkpt>
			<trkpt lat="49.9906002" lon="9.0719043">
				<ele>168.7</ele>
				<time>2026-08-23T09:34:44.000Z</time>
			</trkpt>
			<trkpt lat="49.9904542" lon="9.0722069">
				<ele>169</ele>
				<time>2026-08-23T09:34:47.000Z</time>
			</trkpt>
			<trkpt lat="49.990384" lon="9.0723973">
				<ele>169.1</ele>
				<time>2026-08-23T09:34:49.000Z</time>
			</trkpt>
			<trkpt lat="49.9903062" lon="9.0727107">
				<ele>168.6</ele>
				<time>2026-08-23T09:34:52.000Z</time>
			</trkpt>
			<trkpt lat="49.9902741" lon="9.0729221">
				<ele>168.2</ele>
				<time>2026-08-23T09:34:54.000Z</time>
			</trkpt>
			<trkpt lat="49.9902629" lon="9.0731595">
				<ele>168</ele>
				<time>2026-08-23T09:34:56.000Z</time>
			</trkpt>
			<trkpt lat="49.9902466" lon="9.0735341">
				<ele>167.6</ele>
				<time>2026-08-23T09:34:59.000Z</time>
			</trkpt>
			<trkpt lat="49.9902315" lon="9.0739584">
				<ele>167.1</ele>
				<time>2026-08-23T09:35:02.000Z</time>
			</trkpt>
			<trkpt lat="49.9902174" lon="9.0742624">
				<ele>166.6</ele>
				<time>2026-08-23T09:35:04.000Z</time>
			</trkpt>
			<trkpt lat="49.9902018" lon="9.0747537">
				<ele>165.7</ele>
				<time>2026-08-23T09:35:07.000Z</time>
			</trkpt>
			<trkpt lat="49.9901915" lon="9.0750902">
				<ele>165.5</ele>
				<time>2026-08-23T09:35:09.000Z</time>
			</trkpt>
			<trkpt lat="49.9901599" lon="9.0755783">
				<ele>165.6</ele>
				<time>2026-08-23T09:35:12.000Z</time>
			</trkpt>
			<trkpt lat="49.990109" lon="9.075882">
				<ele>166.2</ele>
				<time>2026-08-23T09:35:14.000Z</time>
			</trkpt>
			<trkpt lat="49.9900281" lon="9.0761704">
				<ele>166.4</ele>
				<time>2026-08-23T09:35:16.000Z</time>
			</trkpt>
			<trkpt lat="49.9898752" lon="9.0766305">
				<ele>166.6</ele>
				<time>2026-08-23T09:35:19.000Z</time>
			</trkpt>
			<trkpt lat="49.9897604" lon="9.0769624">
				<ele>167</ele>
				<time>2026-08-23T09:35:21.000Z</time>
			</trkpt>
			<trkpt lat="49.9895885" lon="9.0775124">
				<ele>166.4</ele>
				<time>2026-08-23T09:35:24.000Z</time>
			</trkpt>
			<trkpt lat="49.9894904" lon="9.0779088">
				<ele>166.7</ele>
				<time>2026-08-23T09:35:26.000Z</time>
			</trkpt>
			<trkpt lat="49.989377" lon="9.0785362">
				<ele>165.9</ele>
				<time>2026-08-23T09:35:29.000Z</time>
			</trkpt>
			<trkpt lat="49.9893096" lon="9.0791423">
				<ele>165.1</ele>
				<time>2026-08-23T09:35:32.000Z</time>
			</trkpt>
			<trkpt lat="49.9892701" lon="9.0797039">
				<ele>163.3</ele>
				<time>2026-08-23T09:35:35.000Z</time>
			</trkpt>
			<trkpt lat="49.9891934" lon="9.0800172">
				<ele>163.7</ele>
				<time>2026-08-23T09:35:37.000Z</time>
			</trkpt>
			<trkpt lat="49.9889958" lon="9.0803748">
				<ele>163.6</ele>
				<time>2026-08-23T09:35:40.000Z</time>
			</trkpt>
			<trkpt lat="49.9887439" lon="9.0804923">
				<ele>162.8</ele>
				<time>2026-08-23T09:35:43.000Z</time>
			</trkpt>
			<trkpt lat="49.9885835" lon="9.0804535">
				<ele>163</ele>
				<time>2026-08-23T09:35:45.000Z</time>
			</trkpt>
			<trkpt lat="49.9884653" lon="9.0803605">
				<ele>163.1</ele>
				<time>2026-08-23T09:35:47.000Z</time>
			</trkpt>
			<trkpt lat="49.988304" lon="9.0801268">
				<ele>163.5</ele>
				<time>2026-08-23T09:35:50.000Z</time>
			</trkpt>
			<trkpt lat="49.9882225" lon="9.0797918">
				<ele>164.1</ele>
				<time>2026-08-23T09:35:53.000Z</time>
			</trkpt>
			<trkpt lat="49.988279" lon="9.0794487">
				<ele>164.3</ele>
				<time>2026-08-23T09:35:56.000Z</time>
			</trkpt>
			<trkpt lat="49.9884266" lon="9.0791744">
				<ele>165.2</ele>
				<time>2026-08-23T09:35:59.000Z</time>
			</trkpt>
			<trkpt lat="49.98862" lon="9.07903">
				<ele>165</ele>
				<time>2026-08-23T09:36:02.000Z</time>
			</trkpt>
			<trkpt lat="49.9887859" lon="9.079016">
				<ele>166.2</ele>
				<time>2026-08-23T09:36:04.000Z</time>
			</trkpt>
			<trkpt lat="49.9889568" lon="9.0790374">
				<ele>167.5</ele>
				<time>2026-08-23T09:36:06.000Z</time>
			</trkpt>
			<trkpt lat="49.9892127" lon="9.0791675">
				<ele>168.6</ele>
				<time>2026-08-23T09:36:09.000Z</time>
			</trkpt>
			<trkpt lat="49.9893889" lon="9.0793018">
				<ele>169.3</ele>
				<time>2026-08-23T09:36:11.000Z</time>
			</trkpt>
			<trkpt lat="49.9896642" lon="9.0795538">
				<ele>169.7</ele>
				<time>2026-08-23T09:36:14.000Z</time>
			</trkpt>
			<trkpt lat="49.9899507" lon="9.0798669">
				<ele>169.2</ele>
				<time>2026-08-23T09:36:17.000Z</time>
			</trkpt>
			<trkpt lat="49.9901196" lon="9.0801122">
				<ele>167.7</ele>
				<time>2026-08-23T09:36:19.000Z</time>
			</trkpt>
			<trkpt lat="49.9903242" lon="9.080466">
				<ele>166.7</ele>
				<time>2026-08-23T09:36:22.000Z</time>
			</trkpt>
			<trkpt lat="49.990409" lon="9.080665">
				<ele>166.2</ele>
				<time>2026-08-23T09:36:24.000Z</time>
			</trkpt>
			<trkpt lat="49.9904404" lon="9.0809095">
				<ele>167.9</ele>
				<time>2026-08-23T09:36:27.000Z</time>
			</trkpt>
			<trkpt lat="49.9905069" lon="9.081132">
				<ele>168.2</ele>
				<time>2026-08-23T09:36:30.000Z</time>
			</trkpt>
			<trkpt lat="49.9906077" lon="9.0811293">
				<ele>168</ele>
				<time>2026-08-23T09:36:32.000Z</time>
			</trkpt>
			<trkpt lat="49.9906812" lon="9.0809334">
				<ele>168.7</ele>
				<time>2026-08-23T09:36:35.000Z</time>
			</trkpt>
			<trkpt lat="49.9905626" lon="9.0807509">
				<ele>167.7</ele>
				<time>2026-08-23T09:36:38.000Z</time>
			</trkpt>
			<trkpt lat="49.9904582" lon="9.0805869">
				<ele>167.7</ele>
				<time>2026-08-23T09:36:40.000Z</time>
			</trkpt>
			<trkpt lat="49.9902883" lon="9.0802489">
				<ele>169</ele>
				<time>2026-08-23T09:36:43.000Z</time>
			</trkpt>
			<trkpt lat="49.9900548" lon="9.0798885">
				<ele>169.6</ele>
				<time>2026-08-23T09:36:46.000Z</time>
			</trkpt>
			<trkpt lat="49.9898691" lon="9.0796842">
				<ele>169.5</ele>
				<time>2026-08-23T09:36:48.000Z</time>
			</trkpt>
			<trkpt lat="49.9896652" lon="9.0794785">
				<ele>170.2</ele>
				<time>2026-08-23T09:36:50.000Z</time>
			</trkpt>
			<trkpt lat="49.989335" lon="9.0792">
				<ele>169.5</ele>
				<time>2026-08-23T09:36:53.000Z</time>
			</trkpt>
			<trkpt lat="49.989124" lon="9.0790569">
				<ele>169</ele>
				<time>2026-08-23T09:36:55.000Z</time>
			</trkpt>
			<trkpt lat="49.9889377" lon="9.0789495">
				<ele>168</ele>
				<time>2026-08-23T09:36:57.000Z</time>
			</trkpt>
			<trkpt lat="49.988774" lon="9.0788594">
				<ele>167.8</ele>
				<time>2026-08-23T09:36:59.000Z</time>
			</trkpt>
			<trkpt lat="49.9886396" lon="9.0787966">
				<ele>167.2</ele>
				<time>2026-08-23T09:37:03.000Z</time>
			</trkpt>
			<trkpt lat="49.9885692" lon="9.0786966">
				<ele>167.7</ele>
				<time>2026-08-23T09:37:06.000Z</time>
			</trkpt>
			<trkpt lat="49.9884316" lon="9.0786357">
				<ele>167</ele>
				<time>2026-08-23T09:37:09.000Z</time>
			</trkpt>
			<trkpt lat="49.9882388" lon="9.0786574">
				<ele>167.5</ele>
				<time>2026-08-23T09:37:12.000Z</time>
			</trkpt>
			<trkpt lat="49.988079" lon="9.0786492">
				<ele>167.2</ele>
				<time>2026-08-23T09:37:14.000Z</time>
			</trkpt>
			<trkpt lat="49.9877967" lon="9.0786319">
				<ele>167.2</ele>
				<time>2026-08-23T09:37:17.000Z</time>
			</trkpt>
			<trkpt lat="49.9875033" lon="9.078626">
				<ele>167</ele>
				<time>2026-08-23T09:37:20.000Z</time>
			</trkpt>
			<trkpt lat="49.9871839" lon="9.0786173">
				<ele>167</ele>
				<time>2026-08-23T09:37:23.000Z</time>
			</trkpt>
			<trkpt lat="49.9869661" lon="9.078613">
				<ele>167.2</ele>
				<time>2026-08-23T09:37:25.000Z</time>
			</trkpt>
			<trkpt lat="49.9866399" lon="9.0785804">
				<ele>166.6</ele>
				<time>2026-08-23T09:37:28.000Z</time>
			</trkpt>
			<trkpt lat="49.986329" lon="9.0784725">
				<ele>166.6</ele>
				<time>2026-08-23T09:37:31.000Z</time>
			</trkpt>
			<trkpt lat="49.9861368" lon="9.0783649">
				<ele>167.2</ele>
				<time>2026-08-23T09:37:33.000Z</time>
			</trkpt>
			<trkpt lat="49.9858834" lon="9.0781652">
				<ele>168.1</ele>
				<time>2026-08-23T09:37:36.000Z</time>
			</trkpt>
			<trkpt lat="49.9856753" lon="9.0779227">
				<ele>166.7</ele>
				<time>2026-08-23T09:37:39.000Z</time>
			</trkpt>
			<trkpt lat="49.9854404" lon="9.077758">
				<ele>166.5</ele>
				<time>2026-08-23T09:37:42.000Z</time>
			</trkpt>
			<trkpt lat="49.9852951" lon="9.0776654">
				<ele>167.4</ele>
				<time>2026-08-23T09:37:44.000Z</time>
			</trkpt>
			<trkpt lat="49.9851924" lon="9.0776012">
				<ele>166.9</ele>
				<time>2026-08-23T09:37:46.000Z</time>
			</trkpt>
			<trkpt lat="49.9851332" lon="9.0774802">
				<ele>167.1</ele>
				<time>2026-08-23T09:37:49.000Z</time>
			</trkpt>
			<trkpt lat="49.9851587" lon="9.0772842">
				<ele>167.2</ele>
				<time>2026-08-23T09:37:52.000Z</time>
			</trkpt>
			<trkpt lat="49.9852266" lon="9.0769911">
				<ele>166.2</ele>
				<time>2026-08-23T09:37:55.000Z</time>
			</trkpt>
			<trkpt lat="49.985295" lon="9.0766636">
				<ele>165.9</ele>
				<time>2026-08-23T09:37:58.000Z</time>
			</trkpt>
			<trkpt lat="49.985336" lon="9.0763175">
				<ele>164.8</ele>
				<time>2026-08-23T09:38:01.000Z</time>
			</trkpt>
			<trkpt lat="49.9853193" lon="9.0759747">
				<ele>164.4</ele>
				<time>2026-08-23T09:38:04.000Z</time>
			</trkpt>
			<trkpt lat="49.9853039" lon="9.0757818">
				<ele>163.9</ele>
				<time>2026-08-23T09:38:06.000Z</time>
			</trkpt>
			<trkpt lat="49.9852733" lon="9.075615">
				<ele>163.5</ele>
				<time>2026-08-23T09:38:09.000Z</time>
			</trkpt>
			<trkpt lat="49.9851898" lon="9.0755607">
				<ele>164.1</ele>
				<time>2026-08-23T09:38:17.000Z</time>
			</trkpt>
			<trkpt lat="49.985248" lon="9.0756676">
				<ele>164.4</ele>
				<time>2026-08-23T09:38:32.000Z</time>
			</trkpt>
			<trkpt lat="49.9852811" lon="9.0758291">
				<ele>163.8</ele>
				<time>2026-08-23T09:38:35.000Z</time>
			</trkpt>
			<trkpt lat="49.985361" lon="9.0759453">
				<ele>163.7</ele>
				<time>2026-08-23T09:38:39.000Z</time>
			</trkpt>
			<trkpt lat="49.9854786" lon="9.0759354">
				<ele>162.9</ele>
				<time>2026-08-23T09:38:43.000Z</time>
			</trkpt>
			<trkpt lat="49.9855859" lon="9.0759714">
				<ele>162.4</ele>
				<time>2026-08-23T09:38:47.000Z</time>
			</trkpt>
			<trkpt lat="49.9856918" lon="9.0759306">
				<ele>162.7</ele>
				<time>2026-08-23T09:38:52.000Z</time>
			</trkpt>
			<trkpt lat="49.9856115" lon="9.0760028">
				<ele>166.9</ele>
				<time>2026-08-23T09:38:53.000Z</time>
			</trkpt>
			<trkpt lat="49.9855071" lon="9.0759701">
				<ele>166.4</ele>
				<time>2026-08-23T09:38:57.000Z</time>
			</trkpt>
			<trkpt lat="49.9854086" lon="9.0759202">
				<ele>165.9</ele>
				<time>2026-08-23T09:39:01.000Z</time>
			</trkpt>
			<trkpt lat="49.9853151" lon="9.075957">
				<ele>166.2</ele>
				<time>2026-08-23T09:39:08.000Z</time>
			</trkpt>
			<trkpt lat="49.9852837" lon="9.0760888">
				<ele>165.5</ele>
				<time>2026-08-23T09:39:11.000Z</time>
			</trkpt>
			<trkpt lat="49.9852993" lon="9.0763017">
				<ele>165.1</ele>
				<time>2026-08-23T09:39:14.000Z</time>
			</trkpt>
			<trkpt lat="49.9852802" lon="9.0765549">
				<ele>164.9</ele>
				<time>2026-08-23T09:39:17.000Z</time>
			</trkpt>
			<trkpt lat="49.9852366" lon="9.0768473">
				<ele>164.8</ele>
				<time>2026-08-23T09:39:20.000Z</time>
			</trkpt>
			<trkpt lat="49.9851866" lon="9.0770567">
				<ele>165</ele>
				<time>2026-08-23T09:39:22.000Z</time>
			</trkpt>
			<trkpt lat="49.9851402" lon="9.0772558">
				<ele>165.2</ele>
				<time>2026-08-23T09:39:24.000Z</time>
			</trkpt>
			<trkpt lat="49.9850989" lon="9.0774336">
				<ele>165.5</ele>
				<time>2026-08-23T09:39:27.000Z</time>
			</trkpt>
			<trkpt lat="49.985123" lon="9.0775817">
				<ele>164.4</ele>
				<time>2026-08-23T09:39:41.000Z</time>
			</trkpt>
			<trkpt lat="49.9852232" lon="9.0776967">
				<ele>164.4</ele>
				<time>2026-08-23T09:39:44.000Z</time>
			</trkpt>
			<trkpt lat="49.9853784" lon="9.077802">
				<ele>164.1</ele>
				<time>2026-08-23T09:39:47.000Z</time>
			</trkpt>
			<trkpt lat="49.9855783" lon="9.0779275">
				<ele>163.3</ele>
				<time>2026-08-23T09:39:50.000Z</time>
			</trkpt>
			<trkpt lat="49.985787" lon="9.0781181">
				<ele>164.2</ele>
				<time>2026-08-23T09:39:53.000Z</time>
			</trkpt>
			<trkpt lat="49.9859289" lon="9.0782651">
				<ele>164.3</ele>
				<time>2026-08-23T09:39:55.000Z</time>
			</trkpt>
			<trkpt lat="49.9861845" lon="9.0784733">
				<ele>164.8</ele>
				<time>2026-08-23T09:39:58.000Z</time>
			</trkpt>
			<trkpt lat="49.9864738" lon="9.0786095">
				<ele>166.4</ele>
				<time>2026-08-23T09:40:01.000Z</time>
			</trkpt>
			<trkpt lat="49.9867886" lon="9.0786822">
				<ele>166.8</ele>
				<time>2026-08-23T09:40:04.000Z</time>
			</trkpt>
			<trkpt lat="49.9870007" lon="9.0787018">
				<ele>168.1</ele>
				<time>2026-08-23T09:40:06.000Z</time>
			</trkpt>
			<trkpt lat="49.9871957" lon="9.0787028">
				<ele>168.2</ele>
				<time>2026-08-23T09:40:08.000Z</time>
			</trkpt>
			<trkpt lat="49.9874787" lon="9.0787104">
				<ele>168</ele>
				<time>2026-08-23T09:40:11.000Z</time>
			</trkpt>
			<trkpt lat="49.9876706" lon="9.0787128">
				<ele>168</ele>
				<time>2026-08-23T09:40:13.000Z</time>
			</trkpt>
			<trkpt lat="49.9878538" lon="9.07872">
				<ele>169.1</ele>
				<time>2026-08-23T09:40:15.000Z</time>
			</trkpt>
			<trkpt lat="49.9880868" lon="9.078761">
				<ele>168.4</ele>
				<time>2026-08-23T09:40:18.000Z</time>
			</trkpt>
			<trkpt lat="49.9882125" lon="9.0787884">
				<ele>168.3</ele>
				<time>2026-08-23T09:40:20.000Z</time>
			</trkpt>
			<trkpt lat="49.9883081" lon="9.0788066">
				<ele>165.4</ele>
				<time>2026-08-23T09:40:23.000Z</time>
			</trkpt>
			<trkpt lat="49.9884024" lon="9.0789133">
				<ele>166</ele>
				<time>2026-08-23T09:40:27.000Z</time>
			</trkpt>
			<trkpt lat="49.988516" lon="9.0789679">
				<ele>166.3</ele>
				<time>2026-08-23T09:40:30.000Z</time>
			</trkpt>
			<trkpt lat="49.9886678" lon="9.0789502">
				<ele>167.3</ele>
				<time>2026-08-23T09:40:33.000Z</time>
			</trkpt>
			<trkpt lat="49.988786" lon="9.0789858">
				<ele>168.4</ele>
				<time>2026-08-23T09:40:35.000Z</time>
			</trkpt>
			<trkpt lat="49.9889692" lon="9.0790636">
				<ele>169.4</ele>
				<time>2026-08-23T09:40:38.000Z</time>
			</trkpt>
			<trkpt lat="49.9891588" lon="9.0791811">
				<ele>170.6</ele>
				<time>2026-08-23T09:40:41.000Z</time>
			</trkpt>
			<trkpt lat="49.9892898" lon="9.079269">
				<ele>171.1</ele>
				<time>2026-08-23T09:40:43.000Z</time>
			</trkpt>
			<trkpt lat="49.9894245" lon="9.079375">
				<ele>171.6</ele>
				<time>2026-08-23T09:40:45.000Z</time>
			</trkpt>
			<trkpt lat="49.9896374" lon="9.0795522">
				<ele>171.9</ele>
				<time>2026-08-23T09:40:48.000Z</time>
			</trkpt>
			<trkpt lat="49.9898677" lon="9.0797755">
				<ele>171.9</ele>
				<time>2026-08-23T09:40:51.000Z</time>
			</trkpt>
			<trkpt lat="49.9900944" lon="9.0800594">
				<ele>171.6</ele>
				<time>2026-08-23T09:40:54.000Z</time>
			</trkpt>
			<trkpt lat="49.9902696" lon="9.08038">
				<ele>169.4</ele>
				<time>2026-08-23T09:40:57.000Z</time>
			</trkpt>
			<trkpt lat="49.9903586" lon="9.0805696">
				<ele>168.8</ele>
				<time>2026-08-23T09:40:59.000Z</time>
			</trkpt>
			<trkpt lat="49.9904341" lon="9.0808">
				<ele>168.8</ele>
				<time>2026-08-23T09:41:02.000Z</time>
			</trkpt>
			<trkpt lat="49.9904115" lon="9.0810342">
				<ele>168.2</ele>
				<time>2026-08-23T09:41:05.000Z</time>
			</trkpt>
			<trkpt lat="49.9902626" lon="9.0812166">
				<ele>168.2</ele>
				<time>2026-08-23T09:41:08.000Z</time>
			</trkpt>
			<trkpt lat="49.99002" lon="9.0813182">
				<ele>166.5</ele>
				<time>2026-08-23T09:41:11.000Z</time>
			</trkpt>
			<trkpt lat="49.9898246" lon="9.0812725">
				<ele>165.9</ele>
				<time>2026-08-23T09:41:13.000Z</time>
			</trkpt>
			<trkpt lat="49.9895674" lon="9.0809619">
				<ele>164</ele>
				<time>2026-08-23T09:41:16.000Z</time>
			</trkpt>
			<trkpt lat="49.9894773" lon="9.0806348">
				<ele>163.8</ele>
				<time>2026-08-23T09:41:18.000Z</time>
			</trkpt>
			<trkpt lat="49.989455" lon="9.0800876">
				<ele>163.2</ele>
				<time>2026-08-23T09:41:21.000Z</time>
			</trkpt>
			<trkpt lat="49.9894699" lon="9.0797065">
				<ele>162.7</ele>
				<time>2026-08-23T09:41:23.000Z</time>
			</trkpt>
			<trkpt lat="49.9895023" lon="9.0793309">
				<ele>163.3</ele>
				<time>2026-08-23T09:41:25.000Z</time>
			</trkpt>
			<trkpt lat="49.9895252" lon="9.0789399">
				<ele>162.7</ele>
				<time>2026-08-23T09:41:27.000Z</time>
			</trkpt>
			<trkpt lat="49.9896105" lon="9.0783513">
				<ele>162.5</ele>
				<time>2026-08-23T09:41:30.000Z</time>
			</trkpt>
			<trkpt lat="49.9897114" lon="9.0777787">
				<ele>161.4</ele>
				<time>2026-08-23T09:41:33.000Z</time>
			</trkpt>
			<trkpt lat="49.9898666" lon="9.077183">
				<ele>160.9</ele>
				<time>2026-08-23T09:41:36.000Z</time>
			</trkpt>
			<trkpt lat="49.990062" lon="9.0765602">
				<ele>162.5</ele>
				<time>2026-08-23T09:41:39.000Z</time>
			</trkpt>
			<trkpt lat="49.9903003" lon="9.0759664">
				<ele>162.9</ele>
				<time>2026-08-23T09:41:42.000Z</time>
			</trkpt>
			<trkpt lat="49.9905761" lon="9.0753974">
				<ele>162.4</ele>
				<time>2026-08-23T09:41:45.000Z</time>
			</trkpt>
			<trkpt lat="49.9909032" lon="9.0748278">
				<ele>162.3</ele>
				<time>2026-08-23T09:41:48.000Z</time>
			</trkpt>
			<trkpt lat="49.9911339" lon="9.0744494">
				<ele>161.8</ele>
				<time>2026-08-23T09:41:50.000Z</time>
			</trkpt>
			<trkpt lat="49.9914695" lon="9.0738948">
				<ele>161.9</ele>
				<time>2026-08-23T09:41:53.000Z</time>
			</trkpt>
			<trkpt lat="49.991912" lon="9.0732814">
				<ele>162.1</ele>
				<time>2026-08-23T09:41:57.000Z</time>
			</trkpt>
			<trkpt lat="49.9922062" lon="9.0729123">
				<ele>160.9</ele>
				<time>2026-08-23T09:42:00.000Z</time>
			</trkpt>
			<trkpt lat="49.9923842" lon="9.072713">
				<ele>160.4</ele>
				<time>2026-08-23T09:42:02.000Z</time>
			</trkpt>
			<trkpt lat="49.9925615" lon="9.0725567">
				<ele>160.7</ele>
				<time>2026-08-23T09:42:04.000Z</time>
			</trkpt>
			<trkpt lat="49.9927856" lon="9.0724384">
				<ele>161.9</ele>
				<time>2026-08-23T09:42:07.000Z</time>
			</trkpt>
			<trkpt lat="49.992939" lon="9.0724914">
				<ele>161</ele>
				<time>2026-08-23T09:42:10.000Z</time>
			</trkpt>
			<trkpt lat="49.9931065" lon="9.0725534">
				<ele>162.2</ele>
				<time>2026-08-23T09:42:13.000Z</time>
			</trkpt>
			<trkpt lat="49.9932575" lon="9.0724059">
				<ele>161.3</ele>
				<time>2026-08-23T09:42:16.000Z</time>
			</trkpt>
			<trkpt lat="49.9932746" lon="9.0721104">
				<ele>161.3</ele>
				<time>2026-08-23T09:42:19.000Z</time>
			</trkpt>
			<trkpt lat="49.9933232" lon="9.0717458">
				<ele>160.2</ele>
				<time>2026-08-23T09:42:22.000Z</time>
			</trkpt>
			<trkpt lat="49.9934086" lon="9.0714925">
				<ele>160.6</ele>
				<time>2026-08-23T09:42:24.000Z</time>
			</trkpt>
			<trkpt lat="49.9935704" lon="9.071075">
				<ele>160.7</ele>
				<time>2026-08-23T09:42:27.000Z</time>
			</trkpt>
			<trkpt lat="49.9937975" lon="9.0707232">
				<ele>160.3</ele>
				<time>2026-08-23T09:42:30.000Z</time>
			</trkpt>
			<trkpt lat="49.9940298" lon="9.0704221">
				<ele>160</ele>
				<time>2026-08-23T09:42:33.000Z</time>
			</trkpt>
			<trkpt lat="49.9942724" lon="9.0700867">
				<ele>159.9</ele>
				<time>2026-08-23T09:42:36.000Z</time>
			</trkpt>
			<trkpt lat="49.9945388" lon="9.0697218">
				<ele>159.2</ele>
				<time>2026-08-23T09:42:39.000Z</time>
			</trkpt>
			<trkpt lat="49.994802" lon="9.069352">
				<ele>159.1</ele>
				<time>2026-08-23T09:42:42.000Z</time>
			</trkpt>
			<trkpt lat="49.9950636" lon="9.0689952">
				<ele>159.4</ele>
				<time>2026-08-23T09:42:45.000Z</time>
			</trkpt>
			<trkpt lat="49.995238" lon="9.0687473">
				<ele>159.4</ele>
				<time>2026-08-23T09:42:47.000Z</time>
			</trkpt>
			<trkpt lat="49.9955064" lon="9.0683864">
				<ele>159</ele>
				<time>2026-08-23T09:42:50.000Z</time>
			</trkpt>
			<trkpt lat="49.9957704" lon="9.0680053">
				<ele>159</ele>
				<time>2026-08-23T09:42:53.000Z</time>
			</trkpt>
			<trkpt lat="49.9959615" lon="9.0677519">
				<ele>158.9</ele>
				<time>2026-08-23T09:42:55.000Z</time>
			</trkpt>
			<trkpt lat="49.9962396" lon="9.0673652">
				<ele>158.7</ele>
				<time>2026-08-23T09:42:58.000Z</time>
			</trkpt>
			<trkpt lat="49.9965268" lon="9.0669697">
				<ele>157.9</ele>
				<time>2026-08-23T09:43:01.000Z</time>
			</trkpt>
			<trkpt lat="49.996726" lon="9.066701">
				<ele>157.7</ele>
				<time>2026-08-23T09:43:03.000Z</time>
			</trkpt>
			<trkpt lat="49.997019" lon="9.0663029">
				<ele>156.6</ele>
				<time>2026-08-23T09:43:06.000Z</time>
			</trkpt>
			<trkpt lat="49.9972065" lon="9.0660429">
				<ele>156.6</ele>
				<time>2026-08-23T09:43:08.000Z</time>
			</trkpt>
			<trkpt lat="49.997491" lon="9.0656458">
				<ele>156.7</ele>
				<time>2026-08-23T09:43:11.000Z</time>
			</trkpt>
			<trkpt lat="49.9977737" lon="9.0652496">
				<ele>156</ele>
				<time>2026-08-23T09:43:14.000Z</time>
			</trkpt>
			<trkpt lat="49.9980535" lon="9.0648609">
				<ele>155.8</ele>
				<time>2026-08-23T09:43:17.000Z</time>
			</trkpt>
			<trkpt lat="49.9982425" lon="9.0646139">
				<ele>155.3</ele>
				<time>2026-08-23T09:43:19.000Z</time>
			</trkpt>
			<trkpt lat="49.9985292" lon="9.064248">
				<ele>155.7</ele>
				<time>2026-08-23T09:43:22.000Z</time>
			</trkpt>
			<trkpt lat="49.9987803" lon="9.06385">
				<ele>155.7</ele>
				<time>2026-08-23T09:43:25.000Z</time>
			</trkpt>
			<trkpt lat="49.9990388" lon="9.0634994">
				<ele>155.2</ele>
				<time>2026-08-23T09:43:28.000Z</time>
			</trkpt>
			<trkpt lat="49.999301" lon="9.0631478">
				<ele>154.9</ele>
				<time>2026-08-23T09:43:31.000Z</time>
			</trkpt>
			<trkpt lat="49.9995796" lon="9.0627556">
				<ele>158.6</ele>
				<time>2026-08-23T09:43:34.000Z</time>
			</trkpt>
			<trkpt lat="49.9998352" lon="9.062391">
				<ele>158</ele>
				<time>2026-08-23T09:43:37.000Z</time>
			</trkpt>
			<trkpt lat="50.0000894" lon="9.0620447">
				<ele>157.9</ele>
				<time>2026-08-23T09:43:40.000Z</time>
			</trkpt>
			<trkpt lat="50.0003323" lon="9.0617">
				<ele>158.1</ele>
				<time>2026-08-23T09:43:43.000Z</time>
			</trkpt>
			<trkpt lat="50.0005568" lon="9.0613898">
				<ele>158.6</ele>
				<time>2026-08-23T09:43:46.000Z</time>
			</trkpt>
			<trkpt lat="50.0007614" lon="9.061099">
				<ele>158.2</ele>
				<time>2026-08-23T09:43:49.000Z</time>
			</trkpt>
			<trkpt lat="50.0009057" lon="9.0609062">
				<ele>158.8</ele>
				<time>2026-08-23T09:43:51.000Z</time>
			</trkpt>
			<trkpt lat="50.0011229" lon="9.0606365">
				<ele>158.8</ele>
				<time>2026-08-23T09:43:54.000Z</time>
			</trkpt>
			<trkpt lat="50.0012634" lon="9.0604525">
				<ele>158.9</ele>
				<time>2026-08-23T09:43:56.000Z</time>
			</trkpt>
			<trkpt lat="50.0014756" lon="9.0601968">
				<ele>158.3</ele>
				<time>2026-08-23T09:43:59.000Z</time>
			</trkpt>
			<trkpt lat="50.0016907" lon="9.0599126">
				<ele>158.8</ele>
				<time>2026-08-23T09:44:02.000Z</time>
			</trkpt>
			<trkpt lat="50.0019341" lon="9.0596294">
				<ele>159.2</ele>
				<time>2026-08-23T09:44:05.000Z</time>
			</trkpt>
			<trkpt lat="50.0021788" lon="9.059318">
				<ele>158.8</ele>
				<time>2026-08-23T09:44:08.000Z</time>
			</trkpt>
			<trkpt lat="50.0023502" lon="9.059121">
				<ele>159.1</ele>
				<time>2026-08-23T09:44:10.000Z</time>
			</trkpt>
			<trkpt lat="50.0026416" lon="9.0588823">
				<ele>158.2</ele>
				<time>2026-08-23T09:44:13.000Z</time>
			</trkpt>
			<trkpt lat="50.0029735" lon="9.0586878">
				<ele>158.9</ele>
				<time>2026-08-23T09:44:16.000Z</time>
			</trkpt>
			<trkpt lat="50.0032987" lon="9.0584871">
				<ele>159.5</ele>
				<time>2026-08-23T09:44:19.000Z</time>
			</trkpt>
			<trkpt lat="50.0036723" lon="9.0582928">
				<ele>162</ele>
				<time>2026-08-23T09:44:22.000Z</time>
			</trkpt>
			<trkpt lat="50.0040154" lon="9.0581051">
				<ele>162</ele>
				<time>2026-08-23T09:44:25.000Z</time>
			</trkpt>
			<trkpt lat="50.0043557" lon="9.0579235">
				<ele>161.7</ele>
				<time>2026-08-23T09:44:28.000Z</time>
			</trkpt>
			<trkpt lat="50.0045968" lon="9.0577996">
				<ele>162.8</ele>
				<time>2026-08-23T09:44:30.000Z</time>
			</trkpt>
			<trkpt lat="50.0049486" lon="9.0576052">
				<ele>162.6</ele>
				<time>2026-08-23T09:44:33.000Z</time>
			</trkpt>
			<trkpt lat="50.0053142" lon="9.0573851">
				<ele>162.4</ele>
				<time>2026-08-23T09:44:36.000Z</time>
			</trkpt>
			<trkpt lat="50.0056967" lon="9.0571608">
				<ele>162.1</ele>
				<time>2026-08-23T09:44:39.000Z</time>
			</trkpt>
			<trkpt lat="50.0059579" lon="9.0570144">
				<ele>162.2</ele>
				<time>2026-08-23T09:44:41.000Z</time>
			</trkpt>
			<trkpt lat="50.0063448" lon="9.0568004">
				<ele>162.5</ele>
				<time>2026-08-23T09:44:44.000Z</time>
			</trkpt>
			<trkpt lat="50.0067411" lon="9.0566007">
				<ele>163.8</ele>
				<time>2026-08-23T09:44:47.000Z</time>
			</trkpt>
			<trkpt lat="50.0069947" lon="9.0564474">
				<ele>163.6</ele>
				<time>2026-08-23T09:44:49.000Z</time>
			</trkpt>
			<trkpt lat="50.0073764" lon="9.056219">
				<ele>163.6</ele>
				<time>2026-08-23T09:44:52.000Z</time>
			</trkpt>
			<trkpt lat="50.0076253" lon="9.0560843">
				<ele>163.7</ele>
				<time>2026-08-23T09:44:54.000Z</time>
			</trkpt>
			<trkpt lat="50.0079352" lon="9.0559149">
				<ele>163.7</ele>
				<time>2026-08-23T09:44:57.000Z</time>
			</trkpt>
			<trkpt lat="50.008073" lon="9.0558419">
				<ele>164.1</ele>
				<time>2026-08-23T09:44:59.000Z</time>
			</trkpt>
			<trkpt lat="50.0082394" lon="9.0558755">
				<ele>163.3</ele>
				<time>2026-08-23T09:45:02.000Z</time>
			</trkpt>
			<trkpt lat="50.0083354" lon="9.0558134">
				<ele>162.8</ele>
				<time>2026-08-23T09:45:04.000Z</time>
			</trkpt>
			<trkpt lat="50.0084874" lon="9.0556284">
				<ele>161.3</ele>
				<time>2026-08-23T09:45:07.000Z</time>
			</trkpt>
			<trkpt lat="50.0087123" lon="9.0554848">
				<ele>161.5</ele>
				<time>2026-08-23T09:45:10.000Z</time>
			</trkpt>
			<trkpt lat="50.0089807" lon="9.055335">
				<ele>161.6</ele>
				<time>2026-08-23T09:45:13.000Z</time>
			</trkpt>
			<trkpt lat="50.0092828" lon="9.0551689">
				<ele>161.5</ele>
				<time>2026-08-23T09:45:16.000Z</time>
			</trkpt>
			<trkpt lat="50.0095122" lon="9.0550507">
				<ele>161.9</ele>
				<time>2026-08-23T09:45:18.000Z</time>
			</trkpt>
			<trkpt lat="50.0098642" lon="9.0548542">
				<ele>161.8</ele>
				<time>2026-08-23T09:45:21.000Z</time>
			</trkpt>
			<trkpt lat="50.0101084" lon="9.0547159">
				<ele>161.7</ele>
				<time>2026-08-23T09:45:23.000Z</time>
			</trkpt>
			<trkpt lat="50.0104832" lon="9.0545066">
				<ele>161.5</ele>
				<time>2026-08-23T09:45:26.000Z</time>
			</trkpt>
			<trkpt lat="50.0107429" lon="9.0543636">
				<ele>161.4</ele>
				<time>2026-08-23T09:45:28.000Z</time>
			</trkpt>
			<trkpt lat="50.0111392" lon="9.0541497">
				<ele>161.3</ele>
				<time>2026-08-23T09:45:31.000Z</time>
			</trkpt>
			<trkpt lat="50.0115362" lon="9.0539255">
				<ele>161.4</ele>
				<time>2026-08-23T09:45:34.000Z</time>
			</trkpt>
			<trkpt lat="50.0119438" lon="9.0536998">
				<ele>162</ele>
				<time>2026-08-23T09:45:37.000Z</time>
			</trkpt>
			<trkpt lat="50.0123634" lon="9.0534695">
				<ele>161.4</ele>
				<time>2026-08-23T09:45:40.000Z</time>
			</trkpt>
			<trkpt lat="50.0127994" lon="9.0532248">
				<ele>161.9</ele>
				<time>2026-08-23T09:45:43.000Z</time>
			</trkpt>
			<trkpt lat="50.0132277" lon="9.0529949">
				<ele>161.5</ele>
				<time>2026-08-23T09:45:46.000Z</time>
			</trkpt>
			<trkpt lat="50.0136141" lon="9.0528146">
				<ele>161.1</ele>
				<time>2026-08-23T09:45:49.000Z</time>
			</trkpt>
			<trkpt lat="50.0139136" lon="9.052692">
				<ele>160.3</ele>
				<time>2026-08-23T09:45:52.000Z</time>
			</trkpt>
			<trkpt lat="50.0141147" lon="9.0525976">
				<ele>160.7</ele>
				<time>2026-08-23T09:45:55.000Z</time>
			</trkpt>
			<trkpt lat="50.0142115" lon="9.0525435">
				<ele>160.6</ele>
				<time>2026-08-23T09:45:58.000Z</time>
			</trkpt>
			<trkpt lat="50.0143299" lon="9.0524683">
				<ele>162.6</ele>
				<time>2026-08-23T09:47:08.000Z</time>
			</trkpt>
			<trkpt lat="50.0145017" lon="9.0523267">
				<ele>162.6</ele>
				<time>2026-08-23T09:47:11.000Z</time>
			</trkpt>
			<trkpt lat="50.014755" lon="9.0521639">
				<ele>161.8</ele>
				<time>2026-08-23T09:47:14.000Z</time>
			</trkpt>
			<trkpt lat="50.0150868" lon="9.0519666">
				<ele>161.3</ele>
				<time>2026-08-23T09:47:17.000Z</time>
			</trkpt>
			<trkpt lat="50.0153463" lon="9.0518156">
				<ele>161.9</ele>
				<time>2026-08-23T09:47:19.000Z</time>
			</trkpt>
			<trkpt lat="50.0157574" lon="9.0515966">
				<ele>162.1</ele>
				<time>2026-08-23T09:47:22.000Z</time>
			</trkpt>
			<trkpt lat="50.0160485" lon="9.0514382">
				<ele>161.9</ele>
				<time>2026-08-23T09:47:24.000Z</time>
			</trkpt>
			<trkpt lat="50.0165109" lon="9.0511768">
				<ele>161.1</ele>
				<time>2026-08-23T09:47:27.000Z</time>
			</trkpt>
			<trkpt lat="50.0170026" lon="9.0509164">
				<ele>162.1</ele>
				<time>2026-08-23T09:47:30.000Z</time>
			</trkpt>
			<trkpt lat="50.0173347" lon="9.0507367">
				<ele>162.2</ele>
				<time>2026-08-23T09:47:32.000Z</time>
			</trkpt>
			<trkpt lat="50.0178375" lon="9.0504496">
				<ele>161.4</ele>
				<time>2026-08-23T09:47:35.000Z</time>
			</trkpt>
			<trkpt lat="50.0183472" lon="9.0501701">
				<ele>161.5</ele>
				<time>2026-08-23T09:47:38.000Z</time>
			</trkpt>
			<trkpt lat="50.0188621" lon="9.0498919">
				<ele>161.8</ele>
				<time>2026-08-23T09:47:41.000Z</time>
			</trkpt>
			<trkpt lat="50.0193518" lon="9.0496285">
				<ele>162.4</ele>
				<time>2026-08-23T09:47:44.000Z</time>
			</trkpt>
			<trkpt lat="50.0197808" lon="9.0493853">
				<ele>161.7</ele>
				<time>2026-08-23T09:47:47.000Z</time>
			</trkpt>
			<trkpt lat="50.020139" lon="9.0491948">
				<ele>161.1</ele>
				<time>2026-08-23T09:47:50.000Z</time>
			</trkpt>
			<trkpt lat="50.0203472" lon="9.0491239">
				<ele>162.1</ele>
				<time>2026-08-23T09:47:52.000Z</time>
			</trkpt>
			<trkpt lat="50.0205164" lon="9.0491119">
				<ele>161.7</ele>
				<time>2026-08-23T09:47:54.000Z</time>
			</trkpt>
			<trkpt lat="50.0207133" lon="9.049179">
				<ele>161.6</ele>
				<time>2026-08-23T09:47:57.000Z</time>
			</trkpt>
			<trkpt lat="50.0208378" lon="9.0493116">
				<ele>160.6</ele>
				<time>2026-08-23T09:48:00.000Z</time>
			</trkpt>
			<trkpt lat="50.0209721" lon="9.0491924">
				<ele>160.1</ele>
				<time>2026-08-23T09:48:03.000Z</time>
			</trkpt>
			<trkpt lat="50.0210409" lon="9.0489112">
				<ele>159.7</ele>
				<time>2026-08-23T09:48:06.000Z</time>
			</trkpt>
			<trkpt lat="50.021206" lon="9.0486553">
				<ele>159</ele>
				<time>2026-08-23T09:48:09.000Z</time>
			</trkpt>
			<trkpt lat="50.0214638" lon="9.0484801">
				<ele>159</ele>
				<time>2026-08-23T09:48:12.000Z</time>
			</trkpt>
			<trkpt lat="50.0216586" lon="9.04836">
				<ele>159.6</ele>
				<time>2026-08-23T09:48:14.000Z</time>
			</trkpt>
			<trkpt lat="50.0219336" lon="9.0482024">
				<ele>159.1</ele>
				<time>2026-08-23T09:48:17.000Z</time>
			</trkpt>
			<trkpt lat="50.0220867" lon="9.0481342">
				<ele>159.2</ele>
				<time>2026-08-23T09:48:19.000Z</time>
			</trkpt>
			<trkpt lat="50.0222558" lon="9.0480798">
				<ele>160.4</ele>
				<time>2026-08-23T09:48:22.000Z</time>
			</trkpt>
			<trkpt lat="50.0223706" lon="9.0481217">
				<ele>161.9</ele>
				<time>2026-08-23T09:48:24.000Z</time>
			</trkpt>
			<trkpt lat="50.0224743" lon="9.0480998">
				<ele>162.7</ele>
				<time>2026-08-23T09:48:26.000Z</time>
			</trkpt>
			<trkpt lat="50.0225526" lon="9.0479306">
				<ele>162.3</ele>
				<time>2026-08-23T09:48:29.000Z</time>
			</trkpt>
			<trkpt lat="50.0225105" lon="9.0477965">
				<ele>160.8</ele>
				<time>2026-08-23T09:48:31.000Z</time>
			</trkpt>
			<trkpt lat="50.0223894" lon="9.0475924">
				<ele>160</ele>
				<time>2026-08-23T09:48:34.000Z</time>
			</trkpt>
			<trkpt lat="50.022259" lon="9.0472398">
				<ele>159.3</ele>
				<time>2026-08-23T09:48:37.000Z</time>
			</trkpt>
			<trkpt lat="50.0221441" lon="9.0469394">
				<ele>159.5</ele>
				<time>2026-08-23T09:48:39.000Z</time>
			</trkpt>
			<trkpt lat="50.0219718" lon="9.0467028">
				<ele>159.6</ele>
				<time>2026-08-23T09:48:41.000Z</time>
			</trkpt>
			<trkpt lat="50.02162" lon="9.0465747">
				<ele>162.9</ele>
				<time>2026-08-23T09:48:44.000Z</time>
			</trkpt>
			<trkpt lat="50.0213715" lon="9.0466327">
				<ele>163.4</ele>
				<time>2026-08-23T09:48:46.000Z</time>
			</trkpt>
			<trkpt lat="50.0209727" lon="9.0467014">
				<ele>164.3</ele>
				<time>2026-08-23T09:48:49.000Z</time>
			</trkpt>
			<trkpt lat="50.0205804" lon="9.0465156">
				<ele>164.6</ele>
				<time>2026-08-23T09:48:52.000Z</time>
			</trkpt>
			<trkpt lat="50.0203207" lon="9.0462693">
				<ele>163.9</ele>
				<time>2026-08-23T09:48:54.000Z</time>
			</trkpt>
			<trkpt lat="50.0199138" lon="9.0457307">
				<ele>164.3</ele>
				<time>2026-08-23T09:48:57.000Z</time>
			</trkpt>
			<trkpt lat="50.0194763" lon="9.0451145">
				<ele>164</ele>
				<time>2026-08-23T09:49:00.000Z</time>
			</trkpt>
			<trkpt lat="50.0191864" lon="9.0446817">
				<ele>163.8</ele>
				<time>2026-08-23T09:49:02.000Z</time>
			</trkpt>
			<trkpt lat="50.0187366" lon="9.0439814">
				<ele>163.9</ele>
				<time>2026-08-23T09:49:05.000Z</time>
			</trkpt>
			<trkpt lat="50.018434" lon="9.0434798">
				<ele>163.8</ele>
				<time>2026-08-23T09:49:07.000Z</time>
			</trkpt>
			<trkpt lat="50.0181297" lon="9.0429618">
				<ele>163.9</ele>
				<time>2026-08-23T09:49:09.000Z</time>
			</trkpt>
			<trkpt lat="50.0176619" lon="9.0421656">
				<ele>163.7</ele>
				<time>2026-08-23T09:49:12.000Z</time>
			</trkpt>
			<trkpt lat="50.0171916" lon="9.041344">
				<ele>163.6</ele>
				<time>2026-08-23T09:49:15.000Z</time>
			</trkpt>
			<trkpt lat="50.016872" lon="9.0407777">
				<ele>164.1</ele>
				<time>2026-08-23T09:49:17.000Z</time>
			</trkpt>
			<trkpt lat="50.0165607" lon="9.0402154">
				<ele>164.6</ele>
				<time>2026-08-23T09:49:19.000Z</time>
			</trkpt>
			<trkpt lat="50.0160896" lon="9.0393646">
				<ele>164.6</ele>
				<time>2026-08-23T09:49:22.000Z</time>
			</trkpt>
			<trkpt lat="50.0156316" lon="9.0385244">
				<ele>164.9</ele>
				<time>2026-08-23T09:49:25.000Z</time>
			</trkpt>
			<trkpt lat="50.0153241" lon="9.0379645">
				<ele>166.1</ele>
				<time>2026-08-23T09:49:27.000Z</time>
			</trkpt>
			<trkpt lat="50.0148649" lon="9.0371323">
				<ele>165.9</ele>
				<time>2026-08-23T09:49:30.000Z</time>
			</trkpt>
			<trkpt lat="50.0144051" lon="9.0362873">
				<ele>166.1</ele>
				<time>2026-08-23T09:49:33.000Z</time>
			</trkpt>
			<trkpt lat="50.0139338" lon="9.0354384">
				<ele>166.5</ele>
				<time>2026-08-23T09:49:36.000Z</time>
			</trkpt>
			<trkpt lat="50.0134686" lon="9.0345926">
				<ele>166.6</ele>
				<time>2026-08-23T09:49:39.000Z</time>
			</trkpt>
			<trkpt lat="50.013019" lon="9.0337669">
				<ele>166.5</ele>
				<time>2026-08-23T09:49:42.000Z</time>
			</trkpt>
			<trkpt lat="50.0125984" lon="9.0329638">
				<ele>166.3</ele>
				<time>2026-08-23T09:49:45.000Z</time>
			</trkpt>
			<trkpt lat="50.0123264" lon="9.0324539">
				<ele>166.1</ele>
				<time>2026-08-23T09:49:47.000Z</time>
			</trkpt>
			<trkpt lat="50.0119302" lon="9.0317242">
				<ele>165.7</ele>
				<time>2026-08-23T09:49:50.000Z</time>
			</trkpt>
			<trkpt lat="50.011674" lon="9.0312601">
				<ele>165.7</ele>
				<time>2026-08-23T09:49:52.000Z</time>
			</trkpt>
			<trkpt lat="50.0114289" lon="9.0308032">
				<ele>165.6</ele>
				<time>2026-08-23T09:49:54.000Z</time>
			</trkpt>
			<trkpt lat="50.0110873" lon="9.0301398">
				<ele>165.6</ele>
				<time>2026-08-23T09:49:57.000Z</time>
			</trkpt>
			<trkpt lat="50.0108687" lon="9.0297099">
				<ele>165.8</ele>
				<time>2026-08-23T09:49:59.000Z</time>
			</trkpt>
			<trkpt lat="50.0105875" lon="9.0291184">
				<ele>165.4</ele>
				<time>2026-08-23T09:50:02.000Z</time>
			</trkpt>
			<trkpt lat="50.0104651" lon="9.0287732">
				<ele>165.6</ele>
				<time>2026-08-23T09:50:04.000Z</time>
			</trkpt>
			<trkpt lat="50.0104213" lon="9.0282349">
				<ele>164.4</ele>
				<time>2026-08-23T09:50:07.000Z</time>
			</trkpt>
			<trkpt lat="50.0104978" lon="9.0276986">
				<ele>164.1</ele>
				<time>2026-08-23T09:50:10.000Z</time>
			</trkpt>
			<trkpt lat="50.0106346" lon="9.0271589">
				<ele>162.8</ele>
				<time>2026-08-23T09:50:13.000Z</time>
			</trkpt>
			<trkpt lat="50.010702" lon="9.0265746">
				<ele>161.4</ele>
				<time>2026-08-23T09:50:16.000Z</time>
			</trkpt>
			<trkpt lat="50.0106569" lon="9.026209">
				<ele>160.6</ele>
				<time>2026-08-23T09:50:18.000Z</time>
			</trkpt>
			<trkpt lat="50.0105848" lon="9.0258176">
				<ele>159.7</ele>
				<time>2026-08-23T09:50:21.000Z</time>
			</trkpt>
			<trkpt lat="50.0105523" lon="9.0256234">
				<ele>159.4</ele>
				<time>2026-08-23T09:50:23.000Z</time>
			</trkpt>
			<trkpt lat="50.0106123" lon="9.0253575">
				<ele>159.3</ele>
				<time>2026-08-23T09:50:26.000Z</time>
			</trkpt>
			<trkpt lat="50.0108042" lon="9.0251764">
				<ele>158.7</ele>
				<time>2026-08-23T09:50:29.000Z</time>
			</trkpt>
			<trkpt lat="50.0111024" lon="9.0249369">
				<ele>158.6</ele>
				<time>2026-08-23T09:50:32.000Z</time>
			</trkpt>
			<trkpt lat="50.0114534" lon="9.0246504">
				<ele>159.1</ele>
				<time>2026-08-23T09:50:35.000Z</time>
			</trkpt>
			<trkpt lat="50.0118638" lon="9.0243682">
				<ele>159.4</ele>
				<time>2026-08-23T09:50:38.000Z</time>
			</trkpt>
			<trkpt lat="50.0123129" lon="9.0240577">
				<ele>160.4</ele>
				<time>2026-08-23T09:50:41.000Z</time>
			</trkpt>
			<trkpt lat="50.012632" lon="9.0238373">
				<ele>161.2</ele>
				<time>2026-08-23T09:50:43.000Z</time>
			</trkpt>
			<trkpt lat="50.0131055" lon="9.0235153">
				<ele>161.2</ele>
				<time>2026-08-23T09:50:46.000Z</time>
			</trkpt>
			<trkpt lat="50.0134316" lon="9.0232902">
				<ele>161.4</ele>
				<time>2026-08-23T09:50:48.000Z</time>
			</trkpt>
			<trkpt lat="50.0138951" lon="9.0229788">
				<ele>163.1</ele>
				<time>2026-08-23T09:50:51.000Z</time>
			</trkpt>
			<trkpt lat="50.0143238" lon="9.0226362">
				<ele>163.5</ele>
				<time>2026-08-23T09:50:54.000Z</time>
			</trkpt>
			<trkpt lat="50.0145882" lon="9.022324">
				<ele>162.6</ele>
				<time>2026-08-23T09:50:56.000Z</time>
			</trkpt>
			<trkpt lat="50.0148347" lon="9.0219699">
				<ele>162.8</ele>
				<time>2026-08-23T09:50:58.000Z</time>
			</trkpt>
			<trkpt lat="50.015212" lon="9.0213781">
				<ele>162.8</ele>
				<time>2026-08-23T09:51:01.000Z</time>
			</trkpt>
			<trkpt lat="50.0156017" lon="9.0207758">
				<ele>163.2</ele>
				<time>2026-08-23T09:51:04.000Z</time>
			</trkpt>
			<trkpt lat="50.0158597" lon="9.0203664">
				<ele>162.7</ele>
				<time>2026-08-23T09:51:06.000Z</time>
			</trkpt>
			<trkpt lat="50.0161319" lon="9.0199516">
				<ele>162.6</ele>
				<time>2026-08-23T09:51:08.000Z</time>
			</trkpt>
			<trkpt lat="50.0165418" lon="9.0193289">
				<ele>162</ele>
				<time>2026-08-23T09:51:11.000Z</time>
			</trkpt>
			<trkpt lat="50.0169502" lon="9.018702">
				<ele>161.6</ele>
				<time>2026-08-23T09:51:14.000Z</time>
			</trkpt>
			<trkpt lat="50.0173548" lon="9.0180618">
				<ele>161.2</ele>
				<time>2026-08-23T09:51:17.000Z</time>
			</trkpt>
			<trkpt lat="50.0177838" lon="9.0174142">
				<ele>160.9</ele>
				<time>2026-08-23T09:51:20.000Z</time>
			</trkpt>
			<trkpt lat="50.0180669" lon="9.0169763">
				<ele>161</ele>
				<time>2026-08-23T09:51:22.000Z</time>
			</trkpt>
			<trkpt lat="50.0184883" lon="9.0163158">
				<ele>159.3</ele>
				<time>2026-08-23T09:51:25.000Z</time>
			</trkpt>
			<trkpt lat="50.0187714" lon="9.0158765">
				<ele>159.1</ele>
				<time>2026-08-23T09:51:27.000Z</time>
			</trkpt>
			<trkpt lat="50.0191834" lon="9.0152282">
				<ele>158.8</ele>
				<time>2026-08-23T09:51:30.000Z</time>
			</trkpt>
			<trkpt lat="50.0195985" lon="9.0146147">
				<ele>158.4</ele>
				<time>2026-08-23T09:51:33.000Z</time>
			</trkpt>
			<trkpt lat="50.019868" lon="9.0141986">
				<ele>158.6</ele>
				<time>2026-08-23T09:51:35.000Z</time>
			</trkpt>
			<trkpt lat="50.0202645" lon="9.0135975">
				<ele>158</ele>
				<time>2026-08-23T09:51:38.000Z</time>
			</trkpt>
			<trkpt lat="50.0205034" lon="9.0132301">
				<ele>157.4</ele>
				<time>2026-08-23T09:51:40.000Z</time>
			</trkpt>
			<trkpt lat="50.0208387" lon="9.0127149">
				<ele>157</ele>
				<time>2026-08-23T09:51:43.000Z</time>
			</trkpt>
			<trkpt lat="50.0210451" lon="9.0124083">
				<ele>156.5</ele>
				<time>2026-08-23T09:51:45.000Z</time>
			</trkpt>
			<trkpt lat="50.02131" lon="9.0120289">
				<ele>157.8</ele>
				<time>2026-08-23T09:51:48.000Z</time>
			</trkpt>
			<trkpt lat="50.0215238" lon="9.0117599">
				<ele>156.8</ele>
				<time>2026-08-23T09:51:51.000Z</time>
			</trkpt>
			<trkpt lat="50.0216503" lon="9.0116166">
				<ele>158.3</ele>
				<time>2026-08-23T09:51:54.000Z</time>
			</trkpt>
			<trkpt lat="50.0218012" lon="9.011675">
				<ele>158</ele>
				<time>2026-08-23T09:51:57.000Z</time>
			</trkpt>
			<trkpt lat="50.0219723" lon="9.0119219">
				<ele>158.2</ele>
				<time>2026-08-23T09:52:00.000Z</time>
			</trkpt>
			<trkpt lat="50.022095" lon="9.0121705">
				<ele>158.5</ele>
				<time>2026-08-23T09:52:02.000Z</time>
			</trkpt>
			<trkpt lat="50.022225" lon="9.0124562">
				<ele>159</ele>
				<time>2026-08-23T09:52:04.000Z</time>
			</trkpt>
			<trkpt lat="50.0224379" lon="9.0129574">
				<ele>158.7</ele>
				<time>2026-08-23T09:52:07.000Z</time>
			</trkpt>
			<trkpt lat="50.0226714" lon="9.01353">
				<ele>159</ele>
				<time>2026-08-23T09:52:10.000Z</time>
			</trkpt>
			<trkpt lat="50.0229224" lon="9.0141533">
				<ele>159.7</ele>
				<time>2026-08-23T09:52:13.000Z</time>
			</trkpt>
			<trkpt lat="50.0230903" lon="9.0145704">
				<ele>160.2</ele>
				<time>2026-08-23T09:52:15.000Z</time>
			</trkpt>
			<trkpt lat="50.0232658" lon="9.0149922">
				<ele>160.2</ele>
				<time>2026-08-23T09:52:17.000Z</time>
			</trkpt>
			<trkpt lat="50.023531" lon="9.0156312">
				<ele>160.2</ele>
				<time>2026-08-23T09:52:20.000Z</time>
			</trkpt>
			<trkpt lat="50.0237938" lon="9.0162868">
				<ele>160.7</ele>
				<time>2026-08-23T09:52:23.000Z</time>
			</trkpt>
			<trkpt lat="50.0240594" lon="9.0169034">
				<ele>161.4</ele>
				<time>2026-08-23T09:52:26.000Z</time>
			</trkpt>
			<trkpt lat="50.024277" lon="9.0174302">
				<ele>162.3</ele>
				<time>2026-08-23T09:52:29.000Z</time>
			</trkpt>
			<trkpt lat="50.0244266" lon="9.0178093">
				<ele>161.7</ele>
				<time>2026-08-23T09:52:32.000Z</time>
			</trkpt>
			<trkpt lat="50.024469" lon="9.0179348">
				<ele>161.5</ele>
				<time>2026-08-23T09:52:34.000Z</time>
			</trkpt>
			<trkpt lat="50.0244908" lon="9.0181263">
				<ele>161.8</ele>
				<time>2026-08-23T09:52:37.000Z</time>
			</trkpt>
			<trkpt lat="50.0245953" lon="9.0182902">
				<ele>161.3</ele>
				<time>2026-08-23T09:52:40.000Z</time>
			</trkpt>
			<trkpt lat="50.0246841" lon="9.0184332">
				<ele>161.5</ele>
				<time>2026-08-23T09:52:42.000Z</time>
			</trkpt>
			<trkpt lat="50.0248319" lon="9.0187688">
				<ele>161.4</ele>
				<time>2026-08-23T09:52:45.000Z</time>
			</trkpt>
			<trkpt lat="50.0249513" lon="9.0190517">
				<ele>161</ele>
				<time>2026-08-23T09:52:47.000Z</time>
			</trkpt>
			<trkpt lat="50.0251323" lon="9.0195276">
				<ele>161.5</ele>
				<time>2026-08-23T09:52:50.000Z</time>
			</trkpt>
			<trkpt lat="50.0252756" lon="9.0198732">
				<ele>161.4</ele>
				<time>2026-08-23T09:52:52.000Z</time>
			</trkpt>
			<trkpt lat="50.0254944" lon="9.020395">
				<ele>161.4</ele>
				<time>2026-08-23T09:52:55.000Z</time>
			</trkpt>
			<trkpt lat="50.0256381" lon="9.0207549">
				<ele>161.6</ele>
				<time>2026-08-23T09:52:57.000Z</time>
			</trkpt>
			<trkpt lat="50.0257883" lon="9.0210965">
				<ele>161.9</ele>
				<time>2026-08-23T09:52:59.000Z</time>
			</trkpt>
			<trkpt lat="50.0259879" lon="9.0216123">
				<ele>161.9</ele>
				<time>2026-08-23T09:53:02.000Z</time>
			</trkpt>
			<trkpt lat="50.0261745" lon="9.022073">
				<ele>163</ele>
				<time>2026-08-23T09:53:05.000Z</time>
			</trkpt>
			<trkpt lat="50.0263001" lon="9.022403">
				<ele>162.1</ele>
				<time>2026-08-23T09:53:08.000Z</time>
			</trkpt>
			<trkpt lat="50.0264219" lon="9.0227056">
				<ele>162.5</ele>
				<time>2026-08-23T09:53:11.000Z</time>
			</trkpt>
			<trkpt lat="50.0264934" lon="9.0228221">
				<ele>162.7</ele>
				<time>2026-08-23T09:53:13.000Z</time>
			</trkpt>
			<trkpt lat="50.026591" lon="9.0228444">
				<ele>160.9</ele>
				<time>2026-08-23T09:53:16.000Z</time>
			</trkpt>
			<trkpt lat="50.0266856" lon="9.0228418">
				<ele>159.3</ele>
				<time>2026-08-23T09:53:21.000Z</time>
			</trkpt>
			<trkpt lat="50.0267321" lon="9.0229951">
				<ele>153.5</ele>
				<time>2026-08-23T09:53:22.000Z</time>
			</trkpt>
			<trkpt lat="50.0268027" lon="9.02311">
				<ele>154.5</ele>
				<time>2026-08-23T09:53:28.000Z</time>
			</trkpt>
			<trkpt lat="50.0268454" lon="9.0232411">
				<ele>155.6</ele>
				<time>2026-08-23T09:53:32.000Z</time>
			</trkpt>
			<trkpt lat="50.0267759" lon="9.0233454">
				<ele>157.1</ele>
				<time>2026-08-23T09:53:43.000Z</time>
			</trkpt>
			<trkpt lat="50.0266931" lon="9.0231643">
				<ele>158.4</ele>
				<time>2026-08-23T09:53:47.000Z</time>
			</trkpt>
			<trkpt lat="50.0266283" lon="9.022988">
				<ele>158.7</ele>
				<time>2026-08-23T09:53:49.000Z</time>
			</trkpt>
			<trkpt lat="50.02655" lon="9.0227684">
				<ele>158.4</ele>
				<time>2026-08-23T09:53:51.000Z</time>
			</trkpt>
			<trkpt lat="50.0263956" lon="9.0223771">
				<ele>157.8</ele>
				<time>2026-08-23T09:53:54.000Z</time>
			</trkpt>
			<trkpt lat="50.0262086" lon="9.0219474">
				<ele>158.9</ele>
				<time>2026-08-23T09:53:57.000Z</time>
			</trkpt>
			<trkpt lat="50.0260839" lon="9.0216352">
				<ele>159.2</ele>
				<time>2026-08-23T09:53:59.000Z</time>
			</trkpt>
			<trkpt lat="50.0258791" lon="9.0211278">
				<ele>159.6</ele>
				<time>2026-08-23T09:54:02.000Z</time>
			</trkpt>
			<trkpt lat="50.0256619" lon="9.0206066">
				<ele>159.5</ele>
				<time>2026-08-23T09:54:05.000Z</time>
			</trkpt>
			<trkpt lat="50.0254597" lon="9.0201197">
				<ele>159.4</ele>
				<time>2026-08-23T09:54:08.000Z</time>
			</trkpt>
			<trkpt lat="50.0252626" lon="9.0196589">
				<ele>159.3</ele>
				<time>2026-08-23T09:54:11.000Z</time>
			</trkpt>
			<trkpt lat="50.0251357" lon="9.0193671">
				<ele>159.2</ele>
				<time>2026-08-23T09:54:13.000Z</time>
			</trkpt>
			<trkpt lat="50.0249524" lon="9.0189378">
				<ele>158.9</ele>
				<time>2026-08-23T09:54:16.000Z</time>
			</trkpt>
			<trkpt lat="50.0248012" lon="9.0185628">
				<ele>160.1</ele>
				<time>2026-08-23T09:54:19.000Z</time>
			</trkpt>
			<trkpt lat="50.0247085" lon="9.0183083">
				<ele>160.5</ele>
				<time>2026-08-23T09:54:22.000Z</time>
			</trkpt>
			<trkpt lat="50.0246799" lon="9.018126">
				<ele>160.3</ele>
				<time>2026-08-23T09:54:25.000Z</time>
			</trkpt>
			<trkpt lat="50.0246369" lon="9.0179598">
				<ele>159.8</ele>
				<time>2026-08-23T09:54:28.000Z</time>
			</trkpt>
			<trkpt lat="50.024512" lon="9.0178179">
				<ele>159.5</ele>
				<time>2026-08-23T09:54:31.000Z</time>
			</trkpt>
			<trkpt lat="50.0243708" lon="9.0175283">
				<ele>159.2</ele>
				<time>2026-08-23T09:54:34.000Z</time>
			</trkpt>
			<trkpt lat="50.0242122" lon="9.0171387">
				<ele>160</ele>
				<time>2026-08-23T09:54:37.000Z</time>
			</trkpt>
			<trkpt lat="50.0240271" lon="9.0166982">
				<ele>159.1</ele>
				<time>2026-08-23T09:54:40.000Z</time>
			</trkpt>
			<trkpt lat="50.0238096" lon="9.0161765">
				<ele>159.5</ele>
				<time>2026-08-23T09:54:43.000Z</time>
			</trkpt>
			<trkpt lat="50.0235664" lon="9.0155886">
				<ele>159.3</ele>
				<time>2026-08-23T09:54:46.000Z</time>
			</trkpt>
			<trkpt lat="50.0234078" lon="9.015202">
				<ele>158.8</ele>
				<time>2026-08-23T09:54:48.000Z</time>
			</trkpt>
			<trkpt lat="50.0231594" lon="9.0146064">
				<ele>156.7</ele>
				<time>2026-08-23T09:54:51.000Z</time>
			</trkpt>
			<trkpt lat="50.0229897" lon="9.0141901">
				<ele>157.1</ele>
				<time>2026-08-23T09:54:53.000Z</time>
			</trkpt>
			<trkpt lat="50.0227299" lon="9.013575">
				<ele>157.6</ele>
				<time>2026-08-23T09:54:56.000Z</time>
			</trkpt>
			<trkpt lat="50.022477" lon="9.0129833">
				<ele>157.6</ele>
				<time>2026-08-23T09:54:59.000Z</time>
			</trkpt>
			<trkpt lat="50.0222485" lon="9.0124462">
				<ele>157.2</ele>
				<time>2026-08-23T09:55:02.000Z</time>
			</trkpt>
			<trkpt lat="50.02204" lon="9.0119799">
				<ele>157.3</ele>
				<time>2026-08-23T09:55:05.000Z</time>
			</trkpt>
			<trkpt lat="50.0219118" lon="9.0116984">
				<ele>157.1</ele>
				<time>2026-08-23T09:55:07.000Z</time>
			</trkpt>
			<trkpt lat="50.0218338" lon="9.011516">
				<ele>157.7</ele>
				<time>2026-08-23T09:55:09.000Z</time>
			</trkpt>
			<trkpt lat="50.0217828" lon="9.0113832">
				<ele>158.8</ele>
				<time>2026-08-23T09:56:06.000Z</time>
			</trkpt>
			<trkpt lat="50.0216819" lon="9.0113382">
				<ele>159</ele>
				<time>2026-08-23T09:56:09.000Z</time>
			</trkpt>
			<trkpt lat="50.0215843" lon="9.0114189">
				<ele>159.2</ele>
				<time>2026-08-23T09:56:11.000Z</time>
			</trkpt>
			<trkpt lat="50.0214238" lon="9.0116783">
				<ele>159</ele>
				<time>2026-08-23T09:56:14.000Z</time>
			</trkpt>
			<trkpt lat="50.02128" lon="9.011914">
				<ele>158.4</ele>
				<time>2026-08-23T09:56:16.000Z</time>
			</trkpt>
			<trkpt lat="50.0210014" lon="9.0123242">
				<ele>159</ele>
				<time>2026-08-23T09:56:19.000Z</time>
			</trkpt>
			<trkpt lat="50.0207982" lon="9.0126433">
				<ele>158.5</ele>
				<time>2026-08-23T09:56:21.000Z</time>
			</trkpt>
			<trkpt lat="50.0204744" lon="9.013157">
				<ele>158.9</ele>
				<time>2026-08-23T09:56:24.000Z</time>
			</trkpt>
			<trkpt lat="50.0201174" lon="9.0137001">
				<ele>159.4</ele>
				<time>2026-08-23T09:56:27.000Z</time>
			</trkpt>
			<trkpt lat="50.0197374" lon="9.014281">
				<ele>159.7</ele>
				<time>2026-08-23T09:56:30.000Z</time>
			</trkpt>
			<trkpt lat="50.019477" lon="9.0146748">
				<ele>159.6</ele>
				<time>2026-08-23T09:56:32.000Z</time>
			</trkpt>
			<trkpt lat="50.0192281" lon="9.0150848">
				<ele>158.9</ele>
				<time>2026-08-23T09:56:34.000Z</time>
			</trkpt>
			<trkpt lat="50.0189641" lon="9.0154874">
				<ele>159.3</ele>
				<time>2026-08-23T09:56:36.000Z</time>
			</trkpt>
			<trkpt lat="50.0185666" lon="9.016109">
				<ele>159.9</ele>
				<time>2026-08-23T09:56:39.000Z</time>
			</trkpt>
			<trkpt lat="50.0181567" lon="9.0167316">
				<ele>159.7</ele>
				<time>2026-08-23T09:56:42.000Z</time>
			</trkpt>
			<trkpt lat="50.017737" lon="9.0173407">
				<ele>161.8</ele>
				<time>2026-08-23T09:56:45.000Z</time>
			</trkpt>
			<trkpt lat="50.017464" lon="9.0177637">
				<ele>163.3</ele>
				<time>2026-08-23T09:56:47.000Z</time>
			</trkpt>
			<trkpt lat="50.0170569" lon="9.0184039">
				<ele>163.1</ele>
				<time>2026-08-23T09:56:50.000Z</time>
			</trkpt>
			<trkpt lat="50.0166347" lon="9.019038">
				<ele>163.3</ele>
				<time>2026-08-23T09:56:53.000Z</time>
			</trkpt>
			<trkpt lat="50.0163511" lon="9.0194662">
				<ele>162.5</ele>
				<time>2026-08-23T09:56:55.000Z</time>
			</trkpt>
			<trkpt lat="50.0159186" lon="9.0201206">
				<ele>163</ele>
				<time>2026-08-23T09:56:58.000Z</time>
			</trkpt>
			<trkpt lat="50.0156384" lon="9.0205594">
				<ele>163</ele>
				<time>2026-08-23T09:57:00.000Z</time>
			</trkpt>
			<trkpt lat="50.0152134" lon="9.021213">
				<ele>163.3</ele>
				<time>2026-08-23T09:57:03.000Z</time>
			</trkpt>
			<trkpt lat="50.0149442" lon="9.0216317">
				<ele>162.9</ele>
				<time>2026-08-23T09:57:05.000Z</time>
			</trkpt>
			<trkpt lat="50.0146808" lon="9.0220366">
				<ele>162.1</ele>
				<time>2026-08-23T09:57:07.000Z</time>
			</trkpt>
			<trkpt lat="50.0142854" lon="9.0225634">
				<ele>162.3</ele>
				<time>2026-08-23T09:57:10.000Z</time>
			</trkpt>
			<trkpt lat="50.0139754" lon="9.022816">
				<ele>163.1</ele>
				<time>2026-08-23T09:57:12.000Z</time>
			</trkpt>
			<trkpt lat="50.0135253" lon="9.0231518">
				<ele>163.2</ele>
				<time>2026-08-23T09:57:15.000Z</time>
			</trkpt>
			<trkpt lat="50.0132145" lon="9.0233597">
				<ele>164.1</ele>
				<time>2026-08-23T09:57:17.000Z</time>
			</trkpt>
			<trkpt lat="50.0129157" lon="9.0235777">
				<ele>164.5</ele>
				<time>2026-08-23T09:57:19.000Z</time>
			</trkpt>
			<trkpt lat="50.0124523" lon="9.0238887">
				<ele>164.7</ele>
				<time>2026-08-23T09:57:22.000Z</time>
			</trkpt>
			<trkpt lat="50.0119802" lon="9.0242119">
				<ele>164.9</ele>
				<time>2026-08-23T09:57:25.000Z</time>
			</trkpt>
			<trkpt lat="50.0116583" lon="9.0244334">
				<ele>165</ele>
				<time>2026-08-23T09:57:27.000Z</time>
			</trkpt>
			<trkpt lat="50.011188" lon="9.0247737">
				<ele>165.1</ele>
				<time>2026-08-23T09:57:30.000Z</time>
			</trkpt>
			<trkpt lat="50.0109216" lon="9.0249762">
				<ele>165.3</ele>
				<time>2026-08-23T09:57:32.000Z</time>
			</trkpt>
			<trkpt lat="50.0107413" lon="9.0251468">
				<ele>164.2</ele>
				<time>2026-08-23T09:57:34.000Z</time>
			</trkpt>
			<trkpt lat="50.0105424" lon="9.0253098">
				<ele>163.7</ele>
				<time>2026-08-23T09:57:37.000Z</time>
			</trkpt>
			<trkpt lat="50.0104471" lon="9.0253858">
				<ele>163.1</ele>
				<time>2026-08-23T09:57:40.000Z</time>
			</trkpt>
			<trkpt lat="50.0103428" lon="9.0254312">
				<ele>161.6</ele>
				<time>2026-08-23T09:57:51.000Z</time>
			</trkpt>
			<trkpt lat="50.0101821" lon="9.025566">
				<ele>161.7</ele>
				<time>2026-08-23T09:57:54.000Z</time>
			</trkpt>
			<trkpt lat="50.0100285" lon="9.0257139">
				<ele>161.4</ele>
				<time>2026-08-23T09:57:56.000Z</time>
			</trkpt>
			<trkpt lat="50.0097557" lon="9.0259884">
				<ele>160.8</ele>
				<time>2026-08-23T09:57:59.000Z</time>
			</trkpt>
			<trkpt lat="50.0094394" lon="9.0263504">
				<ele>160.4</ele>
				<time>2026-08-23T09:58:02.000Z</time>
			</trkpt>
			<trkpt lat="50.0092054" lon="9.0266259">
				<ele>160.3</ele>
				<time>2026-08-23T09:58:04.000Z</time>
			</trkpt>
			<trkpt lat="50.0088489" lon="9.0270941">
				<ele>162.3</ele>
				<time>2026-08-23T09:58:07.000Z</time>
			</trkpt>
			<trkpt lat="50.0085749" lon="9.0274381">
				<ele>163.2</ele>
				<time>2026-08-23T09:58:09.000Z</time>
			</trkpt>
			<trkpt lat="50.0082031" lon="9.0279575">
				<ele>160.6</ele>
				<time>2026-08-23T09:58:12.000Z</time>
			</trkpt>
			<trkpt lat="50.0079562" lon="9.0283607">
				<ele>160.5</ele>
				<time>2026-08-23T09:58:14.000Z</time>
			</trkpt>
			<trkpt lat="50.0075759" lon="9.0289779">
				<ele>159.3</ele>
				<time>2026-08-23T09:58:17.000Z</time>
			</trkpt>
			<trkpt lat="50.0072177" lon="9.0296608">
				<ele>159.2</ele>
				<time>2026-08-23T09:58:20.000Z</time>
			</trkpt>
			<trkpt lat="50.0068745" lon="9.0303917">
				<ele>159.7</ele>
				<time>2026-08-23T09:58:23.000Z</time>
			</trkpt>
			<trkpt lat="50.0065654" lon="9.0311481">
				<ele>159.6</ele>
				<time>2026-08-23T09:58:26.000Z</time>
			</trkpt>
			<trkpt lat="50.0062737" lon="9.0319128">
				<ele>158</ele>
				<time>2026-08-23T09:58:29.000Z</time>
			</trkpt>
			<trkpt lat="50.0059984" lon="9.0327265">
				<ele>158</ele>
				<time>2026-08-23T09:58:32.000Z</time>
			</trkpt>
			<trkpt lat="50.0057485" lon="9.0335527">
				<ele>158.6</ele>
				<time>2026-08-23T09:58:35.000Z</time>
			</trkpt>
			<trkpt lat="50.005496" lon="9.0343981">
				<ele>159.1</ele>
				<time>2026-08-23T09:58:38.000Z</time>
			</trkpt>
			<trkpt lat="50.0052079" lon="9.0352401">
				<ele>159.8</ele>
				<time>2026-08-23T09:58:41.000Z</time>
			</trkpt>
			<trkpt lat="50.0048958" lon="9.0360526">
				<ele>160.4</ele>
				<time>2026-08-23T09:58:44.000Z</time>
			</trkpt>
			<trkpt lat="50.0045487" lon="9.0368578">
				<ele>160.9</ele>
				<time>2026-08-23T09:58:47.000Z</time>
			</trkpt>
			<trkpt lat="50.0041784" lon="9.0376539">
				<ele>160.7</ele>
				<time>2026-08-23T09:58:50.000Z</time>
			</trkpt>
			<trkpt lat="50.0039195" lon="9.0381786">
				<ele>160.7</ele>
				<time>2026-08-23T09:58:52.000Z</time>
			</trkpt>
			<trkpt lat="50.0036547" lon="9.0387049">
				<ele>160.8</ele>
				<time>2026-08-23T09:58:54.000Z</time>
			</trkpt>
			<trkpt lat="50.0032198" lon="9.0394709">
				<ele>161.2</ele>
				<time>2026-08-23T09:58:57.000Z</time>
			</trkpt>
			<trkpt lat="50.0027693" lon="9.0402268">
				<ele>160</ele>
				<time>2026-08-23T09:59:00.000Z</time>
			</trkpt>
			<trkpt lat="50.0022912" lon="9.040976">
				<ele>160.1</ele>
				<time>2026-08-23T09:59:03.000Z</time>
			</trkpt>
			<trkpt lat="50.0019808" lon="9.0414664">
				<ele>160.3</ele>
				<time>2026-08-23T09:59:05.000Z</time>
			</trkpt>
			<trkpt lat="50.0016587" lon="9.0419494">
				<ele>160.5</ele>
				<time>2026-08-23T09:59:07.000Z</time>
			</trkpt>
			<trkpt lat="50.001152" lon="9.0426788">
				<ele>164.1</ele>
				<time>2026-08-23T09:59:10.000Z</time>
			</trkpt>
			<trkpt lat="50.0006785" lon="9.0434048">
				<ele>162.4</ele>
				<time>2026-08-23T09:59:13.000Z</time>
			</trkpt>
			<trkpt lat="50.0002444" lon="9.0441322">
				<ele>162</ele>
				<time>2026-08-23T09:59:16.000Z</time>
			</trkpt>
			<trkpt lat="49.9998177" lon="9.0447917">
				<ele>161.9</ele>
				<time>2026-08-23T09:59:19.000Z</time>
			</trkpt>
			<trkpt lat="49.9995472" lon="9.0452261">
				<ele>161.9</ele>
				<time>2026-08-23T09:59:21.000Z</time>
			</trkpt>
			<trkpt lat="49.9991341" lon="9.0458689">
				<ele>161.2</ele>
				<time>2026-08-23T09:59:24.000Z</time>
			</trkpt>
			<trkpt lat="49.998728" lon="9.0465208">
				<ele>161.4</ele>
				<time>2026-08-23T09:59:27.000Z</time>
			</trkpt>
			<trkpt lat="49.998455" lon="9.0469575">
				<ele>160.5</ele>
				<time>2026-08-23T09:59:29.000Z</time>
			</trkpt>
			<trkpt lat="49.9980598" lon="9.0476509">
				<ele>161.9</ele>
				<time>2026-08-23T09:59:32.000Z</time>
			</trkpt>
			<trkpt lat="49.9977822" lon="9.0481249">
				<ele>162.1</ele>
				<time>2026-08-23T09:59:34.000Z</time>
			</trkpt>
			<trkpt lat="49.9974904" lon="9.0485972">
				<ele>162.6</ele>
				<time>2026-08-23T09:59:36.000Z</time>
			</trkpt>
			<trkpt lat="49.9972012" lon="9.0490561">
				<ele>162.3</ele>
				<time>2026-08-23T09:59:38.000Z</time>
			</trkpt>
			<trkpt lat="49.9967453" lon="9.0496974">
				<ele>159.9</ele>
				<time>2026-08-23T09:59:41.000Z</time>
			</trkpt>
			<trkpt lat="49.9964302" lon="9.0501194">
				<ele>159.8</ele>
				<time>2026-08-23T09:59:43.000Z</time>
			</trkpt>
			<trkpt lat="49.9958989" lon="9.050683">
				<ele>160.1</ele>
				<time>2026-08-23T09:59:46.000Z</time>
			</trkpt>
			<trkpt lat="49.9953311" lon="9.0511421">
				<ele>160.8</ele>
				<time>2026-08-23T09:59:49.000Z</time>
			</trkpt>
			<trkpt lat="49.9949533" lon="9.0513802">
				<ele>160.3</ele>
				<time>2026-08-23T09:59:51.000Z</time>
			</trkpt>
			<trkpt lat="49.9943541" lon="9.0516584">
				<ele>161.4</ele>
				<time>2026-08-23T09:59:54.000Z</time>
			</trkpt>
			<trkpt lat="49.9937297" lon="9.0518042">
				<ele>161.7</ele>
				<time>2026-08-23T09:59:57.000Z</time>
			</trkpt>
			<trkpt lat="49.9930981" lon="9.0518251">
				<ele>162.1</ele>
				<time>2026-08-23T10:00:00.000Z</time>
			</trkpt>
			<trkpt lat="49.9924707" lon="9.0517947">
				<ele>162.3</ele>
				<time>2026-08-23T10:00:03.000Z</time>
			</trkpt>
			<trkpt lat="49.9918438" lon="9.0517427">
				<ele>162.6</ele>
				<time>2026-08-23T10:00:06.000Z</time>
			</trkpt>
			<trkpt lat="49.991217" lon="9.0517027">
				<ele>165.1</ele>
				<time>2026-08-23T10:00:09.000Z</time>
			</trkpt>
			<trkpt lat="49.9908091" lon="9.0516698">
				<ele>165.1</ele>
				<time>2026-08-23T10:00:11.000Z</time>
			</trkpt>
			<trkpt lat="49.9902157" lon="9.0516306">
				<ele>165.5</ele>
				<time>2026-08-23T10:00:14.000Z</time>
			</trkpt>
			<trkpt lat="49.9898269" lon="9.0516167">
				<ele>166.3</ele>
				<time>2026-08-23T10:00:16.000Z</time>
			</trkpt>
			<trkpt lat="49.9892626" lon="9.0515742">
				<ele>162.4</ele>
				<time>2026-08-23T10:00:19.000Z</time>
			</trkpt>
			<trkpt lat="49.9887146" lon="9.0515252">
				<ele>163.8</ele>
				<time>2026-08-23T10:00:22.000Z</time>
			</trkpt>
			<trkpt lat="49.9881957" lon="9.0514802">
				<ele>164.4</ele>
				<time>2026-08-23T10:00:25.000Z</time>
			</trkpt>
			<trkpt lat="49.987872" lon="9.0514364">
				<ele>163.2</ele>
				<time>2026-08-23T10:00:27.000Z</time>
			</trkpt>
			<trkpt lat="49.987564" lon="9.0513813">
				<ele>164.7</ele>
				<time>2026-08-23T10:00:29.000Z</time>
			</trkpt>
			<trkpt lat="49.9871822" lon="9.0513432">
				<ele>165</ele>
				<time>2026-08-23T10:00:32.000Z</time>
			</trkpt>
			<trkpt lat="49.9868752" lon="9.0512128">
				<ele>164</ele>
				<time>2026-08-23T10:00:35.000Z</time>
			</trkpt>
			<trkpt lat="49.9866771" lon="9.0508437">
				<ele>164.5</ele>
				<time>2026-08-23T10:00:38.000Z</time>
			</trkpt>
			<trkpt lat="49.9866888" lon="9.0503505">
				<ele>163.2</ele>
				<time>2026-08-23T10:00:41.000Z</time>
			</trkpt>
			<trkpt lat="49.9869258" lon="9.0499758">
				<ele>162.3</ele>
				<time>2026-08-23T10:00:44.000Z</time>
			</trkpt>
			<trkpt lat="49.9872756" lon="9.0498106">
				<ele>163</ele>
				<time>2026-08-23T10:00:47.000Z</time>
			</trkpt>
			<trkpt lat="49.9876378" lon="9.0497971">
				<ele>162.4</ele>
				<time>2026-08-23T10:00:50.000Z</time>
			</trkpt>
			<trkpt lat="49.9879243" lon="9.0500412">
				<ele>161.6</ele>
				<time>2026-08-23T10:00:53.000Z</time>
			</trkpt>
			<trkpt lat="49.9880646" lon="9.0505339">
				<ele>161.5</ele>
				<time>2026-08-23T10:00:56.000Z</time>
			</trkpt>
			<trkpt lat="49.9881381" lon="9.0509319">
				<ele>161.4</ele>
				<time>2026-08-23T10:00:58.000Z</time>
			</trkpt>
			<trkpt lat="49.9882122" lon="9.051357">
				<ele>161.3</ele>
				<time>2026-08-23T10:01:00.000Z</time>
			</trkpt>
			<trkpt lat="49.9883386" lon="9.0520821">
				<ele>160.7</ele>
				<time>2026-08-23T10:01:03.000Z</time>
			</trkpt>
			<trkpt lat="49.9884407" lon="9.0526048">
				<ele>160.5</ele>
				<time>2026-08-23T10:01:05.000Z</time>
			</trkpt>
			<trkpt lat="49.9886037" lon="9.0534686">
				<ele>160.7</ele>
				<time>2026-08-23T10:01:08.000Z</time>
			</trkpt>
			<trkpt lat="49.9887853" lon="9.0543959">
				<ele>161.3</ele>
				<time>2026-08-23T10:01:11.000Z</time>
			</trkpt>
			<trkpt lat="49.9889912" lon="9.0553645">
				<ele>164</ele>
				<time>2026-08-23T10:01:14.000Z</time>
			</trkpt>
			<trkpt lat="49.9891846" lon="9.0563559">
				<ele>164.6</ele>
				<time>2026-08-23T10:01:17.000Z</time>
			</trkpt>
			<trkpt lat="49.989374" lon="9.0573557">
				<ele>164.8</ele>
				<time>2026-08-23T10:01:20.000Z</time>
			</trkpt>
			<trkpt lat="49.9894998" lon="9.0580353">
				<ele>165.1</ele>
				<time>2026-08-23T10:01:22.000Z</time>
			</trkpt>
			<trkpt lat="49.9896789" lon="9.0590638">
				<ele>164.9</ele>
				<time>2026-08-23T10:01:25.000Z</time>
			</trkpt>
			<trkpt lat="49.9897889" lon="9.0597354">
				<ele>164.5</ele>
				<time>2026-08-23T10:01:27.000Z</time>
			</trkpt>
			<trkpt lat="49.9898994" lon="9.0604148">
				<ele>164.9</ele>
				<time>2026-08-23T10:01:29.000Z</time>
			</trkpt>
			<trkpt lat="49.9900516" lon="9.0614279">
				<ele>164.1</ele>
				<time>2026-08-23T10:01:32.000Z</time>
			</trkpt>
			<trkpt lat="49.9901512" lon="9.0621104">
				<ele>163.8</ele>
				<time>2026-08-23T10:01:34.000Z</time>
			</trkpt>
			<trkpt lat="49.9903007" lon="9.0631557">
				<ele>163.6</ele>
				<time>2026-08-23T10:01:37.000Z</time>
			</trkpt>
			<trkpt lat="49.9904399" lon="9.0642027">
				<ele>163.7</ele>
				<time>2026-08-23T10:01:40.000Z</time>
			</trkpt>
			<trkpt lat="49.9905274" lon="9.0648912">
				<ele>164.2</ele>
				<time>2026-08-23T10:01:42.000Z</time>
			</trkpt>
			<trkpt lat="49.9906118" lon="9.0655753">
				<ele>164.1</ele>
				<time>2026-08-23T10:01:44.000Z</time>
			</trkpt>
			<trkpt lat="49.9906925" lon="9.0662676">
				<ele>164.4</ele>
				<time>2026-08-23T10:01:46.000Z</time>
			</trkpt>
			<trkpt lat="49.9907643" lon="9.066956">
				<ele>164.1</ele>
				<time>2026-08-23T10:01:48.000Z</time>
			</trkpt>
			<trkpt lat="49.9908697" lon="9.0679698">
				<ele>164.3</ele>
				<time>2026-08-23T10:01:51.000Z</time>
			</trkpt>
			<trkpt lat="49.9909368" lon="9.0686397">
				<ele>165.3</ele>
				<time>2026-08-23T10:01:53.000Z</time>
			</trkpt>
			<trkpt lat="49.9910012" lon="9.0693313">
				<ele>165.4</ele>
				<time>2026-08-23T10:01:55.000Z</time>
			</trkpt>
			<trkpt lat="49.9910584" lon="9.0700139">
				<ele>165.6</ele>
				<time>2026-08-23T10:01:57.000Z</time>
			</trkpt>
			<trkpt lat="49.9911138" lon="9.0707001">
				<ele>165.7</ele>
				<time>2026-08-23T10:01:59.000Z</time>
			</trkpt>
			<trkpt lat="49.9911871" lon="9.0717299">
				<ele>165.7</ele>
				<time>2026-08-23T10:02:02.000Z</time>
			</trkpt>
			<trkpt lat="49.9912534" lon="9.0727848">
				<ele>164.9</ele>
				<time>2026-08-23T10:02:05.000Z</time>
			</trkpt>
			<trkpt lat="49.9912893" lon="9.0734959">
				<ele>165.3</ele>
				<time>2026-08-23T10:02:07.000Z</time>
			</trkpt>
			<trkpt lat="49.9913429" lon="9.074565">
				<ele>165.2</ele>
				<time>2026-08-23T10:02:10.000Z</time>
			</trkpt>
			<trkpt lat="49.9913858" lon="9.0756551">
				<ele>164.5</ele>
				<time>2026-08-23T10:02:13.000Z</time>
			</trkpt>
			<trkpt lat="49.991411" lon="9.0763774">
				<ele>164.2</ele>
				<time>2026-08-23T10:02:15.000Z</time>
			</trkpt>
			<trkpt lat="49.9914389" lon="9.0775003">
				<ele>164.9</ele>
				<time>2026-08-23T10:02:18.000Z</time>
			</trkpt>
			<trkpt lat="49.9914533" lon="9.0786339">
				<ele>165</ele>
				<time>2026-08-23T10:02:21.000Z</time>
			</trkpt>
			<trkpt lat="49.9914565" lon="9.0797746">
				<ele>165.1</ele>
				<time>2026-08-23T10:02:24.000Z</time>
			</trkpt>
			<trkpt lat="49.9914544" lon="9.0808915">
				<ele>165.3</ele>
				<time>2026-08-23T10:02:27.000Z</time>
			</trkpt>
			<trkpt lat="49.9914535" lon="9.081984">
				<ele>165.4</ele>
				<time>2026-08-23T10:02:30.000Z</time>
			</trkpt>
			<trkpt lat="49.9914394" lon="9.083104">
				<ele>165.8</ele>
				<time>2026-08-23T10:02:33.000Z</time>
			</trkpt>
			<trkpt lat="49.9914099" lon="9.0842709">
				<ele>166.5</ele>
				<time>2026-08-23T10:02:36.000Z</time>
			</trkpt>
			<trkpt lat="49.9913433" lon="9.0854501">
				<ele>166.9</ele>
				<time>2026-08-23T10:02:39.000Z</time>
			</trkpt>
			<trkpt lat="49.9912809" lon="9.0862626">
				<ele>167.6</ele>
				<time>2026-08-23T10:02:41.000Z</time>
			</trkpt>
			<trkpt lat="49.991186" lon="9.0874964">
				<ele>168.3</ele>
				<time>2026-08-23T10:02:44.000Z</time>
			</trkpt>
			<trkpt lat="49.9910918" lon="9.0887609">
				<ele>169.3</ele>
				<time>2026-08-23T10:02:47.000Z</time>
			</trkpt>
			<trkpt lat="49.9910024" lon="9.0900553">
				<ele>169.4</ele>
				<time>2026-08-23T10:02:50.000Z</time>
			</trkpt>
			<trkpt lat="49.9909441" lon="9.09092">
				<ele>169.3</ele>
				<time>2026-08-23T10:02:52.000Z</time>
			</trkpt>
			<trkpt lat="49.9908825" lon="9.0922354">
				<ele>168.4</ele>
				<time>2026-08-23T10:02:55.000Z</time>
			</trkpt>
			<trkpt lat="49.99085" lon="9.0935378">
				<ele>167.7</ele>
				<time>2026-08-23T10:02:58.000Z</time>
			</trkpt>
			<trkpt lat="49.9908487" lon="9.0944078">
				<ele>167</ele>
				<time>2026-08-23T10:03:00.000Z</time>
			</trkpt>
			<trkpt lat="49.9908686" lon="9.0952951">
				<ele>166.9</ele>
				<time>2026-08-23T10:03:02.000Z</time>
			</trkpt>
			<trkpt lat="49.9908998" lon="9.0966447">
				<ele>166.4</ele>
				<time>2026-08-23T10:03:05.000Z</time>
			</trkpt>
			<trkpt lat="49.9909321" lon="9.0975612">
				<ele>166</ele>
				<time>2026-08-23T10:03:07.000Z</time>
			</trkpt>
			<trkpt lat="49.9910137" lon="9.0989462">
				<ele>166.5</ele>
				<time>2026-08-23T10:03:10.000Z</time>
			</trkpt>
			<trkpt lat="49.9910828" lon="9.0998719">
				<ele>167.4</ele>
				<time>2026-08-23T10:03:12.000Z</time>
			</trkpt>
			<trkpt lat="49.9912035" lon="9.1012445">
				<ele>169.1</ele>
				<time>2026-08-23T10:03:15.000Z</time>
			</trkpt>
			<trkpt lat="49.991332" lon="9.1025935">
				<ele>170.9</ele>
				<time>2026-08-23T10:03:18.000Z</time>
			</trkpt>
			<trkpt lat="49.9914426" lon="9.1034787">
				<ele>172.7</ele>
				<time>2026-08-23T10:03:20.000Z</time>
			</trkpt>
			<trkpt lat="49.9915715" lon="9.1043428">
				<ele>174.9</ele>
				<time>2026-08-23T10:03:22.000Z</time>
			</trkpt>
			<trkpt lat="49.9917798" lon="9.105608">
				<ele>177.4</ele>
				<time>2026-08-23T10:03:25.000Z</time>
			</trkpt>
			<trkpt lat="49.9920183" lon="9.1068505">
				<ele>180.6</ele>
				<time>2026-08-23T10:03:28.000Z</time>
			</trkpt>
			<trkpt lat="49.9922752" lon="9.1080815">
				<ele>183.9</ele>
				<time>2026-08-23T10:03:31.000Z</time>
			</trkpt>
			<trkpt lat="49.992451" lon="9.1088852">
				<ele>185.3</ele>
				<time>2026-08-23T10:03:33.000Z</time>
			</trkpt>
			<trkpt lat="49.9927485" lon="9.1100769">
				<ele>188</ele>
				<time>2026-08-23T10:03:36.000Z</time>
			</trkpt>
			<trkpt lat="49.9930546" lon="9.1112519">
				<ele>191.3</ele>
				<time>2026-08-23T10:03:39.000Z</time>
			</trkpt>
			<trkpt lat="49.9932533" lon="9.112034">
				<ele>193</ele>
				<time>2026-08-23T10:03:41.000Z</time>
			</trkpt>
			<trkpt lat="49.9935587" lon="9.1132039">
				<ele>195.9</ele>
				<time>2026-08-23T10:03:44.000Z</time>
			</trkpt>
			<trkpt lat="49.9938466" lon="9.1143758">
				<ele>197.1</ele>
				<time>2026-08-23T10:03:47.000Z</time>
			</trkpt>
			<trkpt lat="49.9941186" lon="9.1155596">
				<ele>198</ele>
				<time>2026-08-23T10:03:50.000Z</time>
			</trkpt>
			<trkpt lat="49.9942826" lon="9.1163466">
				<ele>199.2</ele>
				<time>2026-08-23T10:03:52.000Z</time>
			</trkpt>
			<trkpt lat="49.9944421" lon="9.1171562">
				<ele>199.6</ele>
				<time>2026-08-23T10:03:54.000Z</time>
			</trkpt>
			<trkpt lat="49.9946623" lon="9.1183784">
				<ele>200.3</ele>
				<time>2026-08-23T10:03:57.000Z</time>
			</trkpt>
			<trkpt lat="49.9948558" lon="9.1196053">
				<ele>199.4</ele>
				<time>2026-08-23T10:04:00.000Z</time>
			</trkpt>
			<trkpt lat="49.9949819" lon="9.1204538">
				<ele>199.9</ele>
				<time>2026-08-23T10:04:02.000Z</time>
			</trkpt>
			<trkpt lat="49.9951269" lon="9.121723">
				<ele>198.2</ele>
				<time>2026-08-23T10:04:05.000Z</time>
			</trkpt>
			<trkpt lat="49.9952172" lon="9.122578">
				<ele>197.4</ele>
				<time>2026-08-23T10:04:07.000Z</time>
			</trkpt>
			<trkpt lat="49.9953302" lon="9.1238703">
				<ele>196.7</ele>
				<time>2026-08-23T10:04:10.000Z</time>
			</trkpt>
			<trkpt lat="49.9954162" lon="9.125147">
				<ele>195.5</ele>
				<time>2026-08-23T10:04:13.000Z</time>
			</trkpt>
			<trkpt lat="49.9954782" lon="9.1263911">
				<ele>193.9</ele>
				<time>2026-08-23T10:04:16.000Z</time>
			</trkpt>
			<trkpt lat="49.9955136" lon="9.1276034">
				<ele>193.7</ele>
				<time>2026-08-23T10:04:19.000Z</time>
			</trkpt>
			<trkpt lat="49.9955284" lon="9.1288084">
				<ele>193.4</ele>
				<time>2026-08-23T10:04:22.000Z</time>
			</trkpt>
			<trkpt lat="49.9955185" lon="9.1300097">
				<ele>193</ele>
				<time>2026-08-23T10:04:25.000Z</time>
			</trkpt>
			<trkpt lat="49.9954918" lon="9.1311817">
				<ele>193.1</ele>
				<time>2026-08-23T10:04:28.000Z</time>
			</trkpt>
			<trkpt lat="49.9954466" lon="9.1323289">
				<ele>194.1</ele>
				<time>2026-08-23T10:04:31.000Z</time>
			</trkpt>
			<trkpt lat="49.9954049" lon="9.1330847">
				<ele>194.3</ele>
				<time>2026-08-23T10:04:33.000Z</time>
			</trkpt>
			<trkpt lat="49.9953527" lon="9.1338371">
				<ele>194.8</ele>
				<time>2026-08-23T10:04:35.000Z</time>
			</trkpt>
			<trkpt lat="49.9952844" lon="9.1345805">
				<ele>195.7</ele>
				<time>2026-08-23T10:04:37.000Z</time>
			</trkpt>
			<trkpt lat="49.9951788" lon="9.1356768">
				<ele>196.7</ele>
				<time>2026-08-23T10:04:40.000Z</time>
			</trkpt>
			<trkpt lat="49.9950582" lon="9.1367533">
				<ele>197.7</ele>
				<time>2026-08-23T10:04:43.000Z</time>
			</trkpt>
			<trkpt lat="49.9949147" lon="9.1378097">
				<ele>198.5</ele>
				<time>2026-08-23T10:04:46.000Z</time>
			</trkpt>
			<trkpt lat="49.994822" lon="9.1384742">
				<ele>198.7</ele>
				<time>2026-08-23T10:04:48.000Z</time>
			</trkpt>
			<trkpt lat="49.9947168" lon="9.1391222">
				<ele>198.9</ele>
				<time>2026-08-23T10:04:50.000Z</time>
			</trkpt>
			<trkpt lat="49.9945565" lon="9.1400447">
				<ele>198.7</ele>
				<time>2026-08-23T10:04:53.000Z</time>
			</trkpt>
			<trkpt lat="49.9944448" lon="9.1406492">
				<ele>198.8</ele>
				<time>2026-08-23T10:04:55.000Z</time>
			</trkpt>
			<trkpt lat="49.9942497" lon="9.1415642">
				<ele>200.6</ele>
				<time>2026-08-23T10:04:58.000Z</time>
			</trkpt>
			<trkpt lat="49.9941274" lon="9.142161">
				<ele>201.6</ele>
				<time>2026-08-23T10:05:00.000Z</time>
			</trkpt>
			<trkpt lat="49.9939334" lon="9.1430271">
				<ele>201.8</ele>
				<time>2026-08-23T10:05:03.000Z</time>
			</trkpt>
			<trkpt lat="49.9938042" lon="9.1435943">
				<ele>201.8</ele>
				<time>2026-08-23T10:05:05.000Z</time>
			</trkpt>
			<trkpt lat="49.9936067" lon="9.1444474">
				<ele>202.7</ele>
				<time>2026-08-23T10:05:08.000Z</time>
			</trkpt>
			<trkpt lat="49.9934244" lon="9.1452604">
				<ele>202.8</ele>
				<time>2026-08-23T10:05:11.000Z</time>
			</trkpt>
			<trkpt lat="49.9932987" lon="9.1457814">
				<ele>202.7</ele>
				<time>2026-08-23T10:05:13.000Z</time>
			</trkpt>
			<trkpt lat="49.9931509" lon="9.1465596">
				<ele>203.4</ele>
				<time>2026-08-23T10:05:16.000Z</time>
			</trkpt>
			<trkpt lat="49.9930418" lon="9.1470896">
				<ele>203.2</ele>
				<time>2026-08-23T10:05:18.000Z</time>
			</trkpt>
			<trkpt lat="49.992886" lon="9.1478959">
				<ele>203</ele>
				<time>2026-08-23T10:05:21.000Z</time>
			</trkpt>
			<trkpt lat="49.9927209" lon="9.1487253">
				<ele>202.4</ele>
				<time>2026-08-23T10:05:24.000Z</time>
			</trkpt>
			<trkpt lat="49.9926166" lon="9.1492837">
				<ele>202.2</ele>
				<time>2026-08-23T10:05:26.000Z</time>
			</trkpt>
			<trkpt lat="49.9925118" lon="9.1498455">
				<ele>202.1</ele>
				<time>2026-08-23T10:05:28.000Z</time>
			</trkpt>
			<trkpt lat="49.9923626" lon="9.1507066">
				<ele>202.4</ele>
				<time>2026-08-23T10:05:31.000Z</time>
			</trkpt>
			<trkpt lat="49.992225" lon="9.1515745">
				<ele>202.2</ele>
				<time>2026-08-23T10:05:34.000Z</time>
			</trkpt>
			<trkpt lat="49.9920874" lon="9.1524342">
				<ele>201.3</ele>
				<time>2026-08-23T10:05:37.000Z</time>
			</trkpt>
			<trkpt lat="49.9919944" lon="9.1530186">
				<ele>200.2</ele>
				<time>2026-08-23T10:05:39.000Z</time>
			</trkpt>
			<trkpt lat="49.9919146" lon="9.1535954">
				<ele>199</ele>
				<time>2026-08-23T10:05:41.000Z</time>
			</trkpt>
			<trkpt lat="49.9918426" lon="9.1541863">
				<ele>198.6</ele>
				<time>2026-08-23T10:05:43.000Z</time>
			</trkpt>
			<trkpt lat="49.9917343" lon="9.1550898">
				<ele>198.6</ele>
				<time>2026-08-23T10:05:46.000Z</time>
			</trkpt>
			<trkpt lat="49.9916257" lon="9.1560059">
				<ele>196.8</ele>
				<time>2026-08-23T10:05:49.000Z</time>
			</trkpt>
			<trkpt lat="49.9915154" lon="9.156934">
				<ele>194.5</ele>
				<time>2026-08-23T10:05:52.000Z</time>
			</trkpt>
			<trkpt lat="49.9914568" lon="9.1575667">
				<ele>193.8</ele>
				<time>2026-08-23T10:05:54.000Z</time>
			</trkpt>
			<trkpt lat="49.991394" lon="9.1581935">
				<ele>192.4</ele>
				<time>2026-08-23T10:05:56.000Z</time>
			</trkpt>
			<trkpt lat="49.9913126" lon="9.1591298">
				<ele>190.6</ele>
				<time>2026-08-23T10:05:59.000Z</time>
			</trkpt>
			<trkpt lat="49.991244" lon="9.1600599">
				<ele>188.6</ele>
				<time>2026-08-23T10:06:02.000Z</time>
			</trkpt>
			<trkpt lat="49.9911942" lon="9.160681">
				<ele>187</ele>
				<time>2026-08-23T10:06:04.000Z</time>
			</trkpt>
			<trkpt lat="49.9911276" lon="9.1615945">
				<ele>185.3</ele>
				<time>2026-08-23T10:06:07.000Z</time>
			</trkpt>
			<trkpt lat="49.991072" lon="9.1625306">
				<ele>183.1</ele>
				<time>2026-08-23T10:06:10.000Z</time>
			</trkpt>
			<trkpt lat="49.9910383" lon="9.1631582">
				<ele>182.2</ele>
				<time>2026-08-23T10:06:12.000Z</time>
			</trkpt>
			<trkpt lat="49.9910046" lon="9.1637931">
				<ele>181.2</ele>
				<time>2026-08-23T10:06:14.000Z</time>
			</trkpt>
			<trkpt lat="49.9909619" lon="9.164754">
				<ele>179.7</ele>
				<time>2026-08-23T10:06:17.000Z</time>
			</trkpt>
			<trkpt lat="49.990946" lon="9.1653866">
				<ele>179.1</ele>
				<time>2026-08-23T10:06:19.000Z</time>
			</trkpt>
			<trkpt lat="49.9909338" lon="9.1660207">
				<ele>178.5</ele>
				<time>2026-08-23T10:06:21.000Z</time>
			</trkpt>
			<trkpt lat="49.9909238" lon="9.1669578">
				<ele>178.1</ele>
				<time>2026-08-23T10:06:24.000Z</time>
			</trkpt>
			<trkpt lat="49.9909302" lon="9.1675727">
				<ele>177.9</ele>
				<time>2026-08-23T10:06:26.000Z</time>
			</trkpt>
			<trkpt lat="49.990944" lon="9.1684606">
				<ele>177.3</ele>
				<time>2026-08-23T10:06:29.000Z</time>
			</trkpt>
			<trkpt lat="49.9909828" lon="9.1693195">
				<ele>177.4</ele>
				<time>2026-08-23T10:06:32.000Z</time>
			</trkpt>
			<trkpt lat="49.9910162" lon="9.1701481">
				<ele>177.5</ele>
				<time>2026-08-23T10:06:35.000Z</time>
			</trkpt>
			<trkpt lat="49.991067" lon="9.1709103">
				<ele>178.7</ele>
				<time>2026-08-23T10:06:38.000Z</time>
			</trkpt>
			<trkpt lat="49.9910917" lon="9.1713474">
				<ele>179.1</ele>
				<time>2026-08-23T10:06:40.000Z</time>
			</trkpt>
			<trkpt lat="49.9911246" lon="9.1717657">
				<ele>179.8</ele>
				<time>2026-08-23T10:06:42.000Z</time>
			</trkpt>
			<trkpt lat="49.9911584" lon="9.1721666">
				<ele>179.4</ele>
				<time>2026-08-23T10:06:44.000Z</time>
			</trkpt>
			<trkpt lat="49.9912236" lon="9.1727932">
				<ele>179.6</ele>
				<time>2026-08-23T10:06:47.000Z</time>
			</trkpt>
			<trkpt lat="49.9912728" lon="9.1732229">
				<ele>179.7</ele>
				<time>2026-08-23T10:06:49.000Z</time>
			</trkpt>
			<trkpt lat="49.9913421" lon="9.1738489">
				<ele>179.5</ele>
				<time>2026-08-23T10:06:52.000Z</time>
			</trkpt>
			<trkpt lat="49.9913919" lon="9.1742402">
				<ele>179.5</ele>
				<time>2026-08-23T10:06:54.000Z</time>
			</trkpt>
			<trkpt lat="49.991471" lon="9.1748125">
				<ele>179.4</ele>
				<time>2026-08-23T10:06:57.000Z</time>
			</trkpt>
			<trkpt lat="49.9915564" lon="9.1754258">
				<ele>179.4</ele>
				<time>2026-08-23T10:07:00.000Z</time>
			</trkpt>
			<trkpt lat="49.99162" lon="9.1758535">
				<ele>179.2</ele>
				<time>2026-08-23T10:07:02.000Z</time>
			</trkpt>
			<trkpt lat="49.991736" lon="9.1765181">
				<ele>179.4</ele>
				<time>2026-08-23T10:07:05.000Z</time>
			</trkpt>
			<trkpt lat="49.9918166" lon="9.1769912">
				<ele>179.3</ele>
				<time>2026-08-23T10:07:07.000Z</time>
			</trkpt>
			<trkpt lat="49.9919567" lon="9.1777411">
				<ele>179.4</ele>
				<time>2026-08-23T10:07:10.000Z</time>
			</trkpt>
			<trkpt lat="49.992119" lon="9.1785252">
				<ele>180.2</ele>
				<time>2026-08-23T10:07:13.000Z</time>
			</trkpt>
			<trkpt lat="49.9922963" lon="9.1793334">
				<ele>180.4</ele>
				<time>2026-08-23T10:07:16.000Z</time>
			</trkpt>
			<trkpt lat="49.9924846" lon="9.1801449">
				<ele>180.5</ele>
				<time>2026-08-23T10:07:19.000Z</time>
			</trkpt>
			<trkpt lat="49.9926072" lon="9.180695">
				<ele>182.4</ele>
				<time>2026-08-23T10:07:21.000Z</time>
			</trkpt>
			<trkpt lat="49.9927286" lon="9.1812138">
				<ele>181.3</ele>
				<time>2026-08-23T10:07:23.000Z</time>
			</trkpt>
			<trkpt lat="49.9929396" lon="9.18203">
				<ele>182.5</ele>
				<time>2026-08-23T10:07:26.000Z</time>
			</trkpt>
			<trkpt lat="49.993085" lon="9.1825677">
				<ele>183.2</ele>
				<time>2026-08-23T10:07:28.000Z</time>
			</trkpt>
			<trkpt lat="49.9933002" lon="9.1833421">
				<ele>183.9</ele>
				<time>2026-08-23T10:07:31.000Z</time>
			</trkpt>
			<trkpt lat="49.9935117" lon="9.1840802">
				<ele>185.1</ele>
				<time>2026-08-23T10:07:34.000Z</time>
			</trkpt>
			<trkpt lat="49.9936502" lon="9.1845651">
				<ele>185.7</ele>
				<time>2026-08-23T10:07:36.000Z</time>
			</trkpt>
			<trkpt lat="49.9937861" lon="9.1850369">
				<ele>185.5</ele>
				<time>2026-08-23T10:07:38.000Z</time>
			</trkpt>
			<trkpt lat="49.9939305" lon="9.1854979">
				<ele>186.6</ele>
				<time>2026-08-23T10:07:40.000Z</time>
			</trkpt>
			<trkpt lat="49.9941617" lon="9.1861953">
				<ele>186.9</ele>
				<time>2026-08-23T10:07:43.000Z</time>
			</trkpt>
			<trkpt lat="49.9943868" lon="9.1868712">
				<ele>186</ele>
				<time>2026-08-23T10:07:46.000Z</time>
			</trkpt>
			<trkpt lat="49.9945219" lon="9.1873137">
				<ele>185.7</ele>
				<time>2026-08-23T10:07:48.000Z</time>
			</trkpt>
			<trkpt lat="49.9947509" lon="9.1879502">
				<ele>185.1</ele>
				<time>2026-08-23T10:07:51.000Z</time>
			</trkpt>
			<trkpt lat="49.9949771" lon="9.1886192">
				<ele>185.2</ele>
				<time>2026-08-23T10:07:54.000Z</time>
			</trkpt>
			<trkpt lat="49.9951353" lon="9.189053">
				<ele>185.2</ele>
				<time>2026-08-23T10:07:56.000Z</time>
			</trkpt>
			<trkpt lat="49.9953606" lon="9.1897035">
				<ele>185.3</ele>
				<time>2026-08-23T10:07:59.000Z</time>
			</trkpt>
			<trkpt lat="49.9954755" lon="9.1900767">
				<ele>185.4</ele>
				<time>2026-08-23T10:08:01.000Z</time>
			</trkpt>
			<trkpt lat="49.9956844" lon="9.1907001">
				<ele>185.5</ele>
				<time>2026-08-23T10:08:04.000Z</time>
			</trkpt>
			<trkpt lat="50.0004593" lon="9.2055004">
				<ele>188.1</ele>
				<time>2026-08-23T10:09:14.000Z</time>
			</trkpt>
			<trkpt lat="50.0005538" lon="9.2059625">
				<ele>184.6</ele>
				<time>2026-08-23T10:09:16.000Z</time>
			</trkpt>
			<trkpt lat="50.0007474" lon="9.2067218">
				<ele>185.6</ele>
				<time>2026-08-23T10:09:19.000Z</time>
			</trkpt>
			<trkpt lat="50.0008709" lon="9.2072348">
				<ele>185.5</ele>
				<time>2026-08-23T10:09:21.000Z</time>
			</trkpt>
			<trkpt lat="50.0010046" lon="9.2077484">
				<ele>184.1</ele>
				<time>2026-08-23T10:09:23.000Z</time>
			</trkpt>
			<trkpt lat="50.0012233" lon="9.2086105">
				<ele>188.1</ele>
				<time>2026-08-23T10:09:26.000Z</time>
			</trkpt>
			<trkpt lat="50.0014533" lon="9.2095318">
				<ele>194.1</ele>
				<time>2026-08-23T10:09:29.000Z</time>
			</trkpt>
			<trkpt lat="50.0016794" lon="9.2103843">
				<ele>194.3</ele>
				<time>2026-08-23T10:09:32.000Z</time>
			</trkpt>
			<trkpt lat="50.0018305" lon="9.2109914">
				<ele>193.7</ele>
				<time>2026-08-23T10:09:34.000Z</time>
			</trkpt>
			<trkpt lat="50.0019866" lon="9.2116322">
				<ele>193.3</ele>
				<time>2026-08-23T10:09:36.000Z</time>
			</trkpt>
			<trkpt lat="50.0021945" lon="9.2125417">
				<ele>193.5</ele>
				<time>2026-08-23T10:09:39.000Z</time>
			</trkpt>
			<trkpt lat="50.0023482" lon="9.2134908">
				<ele>191.8</ele>
				<time>2026-08-23T10:09:42.000Z</time>
			</trkpt>
			<trkpt lat="50.0024656" lon="9.2142396">
				<ele>191.4</ele>
				<time>2026-08-23T10:09:44.000Z</time>
			</trkpt>
			<trkpt lat="50.0026468" lon="9.214927">
				<ele>192.1</ele>
				<time>2026-08-23T10:09:47.000Z</time>
			</trkpt>
			<trkpt lat="50.0028136" lon="9.2189645">
				<ele>191.8</ele>
				<time>2026-08-23T10:09:56.000Z</time>
			</trkpt>
			<trkpt lat="50.0029206" lon="9.220415">
				<ele>194.9</ele>
				<time>2026-08-23T10:09:59.000Z</time>
			</trkpt>
			<trkpt lat="50.0029068" lon="9.2211966">
				<ele>195.8</ele>
				<time>2026-08-23T10:10:01.000Z</time>
			</trkpt>
			<trkpt lat="50.0028854" lon="9.2219654">
				<ele>194.4</ele>
				<time>2026-08-23T10:10:03.000Z</time>
			</trkpt>
			<trkpt lat="50.0028349" lon="9.2231444">
				<ele>194.1</ele>
				<time>2026-08-23T10:10:06.000Z</time>
			</trkpt>
			<trkpt lat="50.0027429" lon="9.2243777">
				<ele>195.5</ele>
				<time>2026-08-23T10:10:09.000Z</time>
			</trkpt>
			<trkpt lat="50.0026696" lon="9.2251657">
				<ele>193.1</ele>
				<time>2026-08-23T10:10:11.000Z</time>
			</trkpt>
			<trkpt lat="50.0025311" lon="9.2263696">
				<ele>193.4</ele>
				<time>2026-08-23T10:10:14.000Z</time>
			</trkpt>
			<trkpt lat="50.0024247" lon="9.2271749">
				<ele>193.1</ele>
				<time>2026-08-23T10:10:16.000Z</time>
			</trkpt>
			<trkpt lat="50.0022381" lon="9.2284042">
				<ele>193.9</ele>
				<time>2026-08-23T10:10:19.000Z</time>
			</trkpt>
			<trkpt lat="50.0021126" lon="9.2292364">
				<ele>194.9</ele>
				<time>2026-08-23T10:10:21.000Z</time>
			</trkpt>
			<trkpt lat="50.0019105" lon="9.2304749">
				<ele>195.4</ele>
				<time>2026-08-23T10:10:24.000Z</time>
			</trkpt>
			<trkpt lat="50.001765" lon="9.2312982">
				<ele>196.5</ele>
				<time>2026-08-23T10:10:26.000Z</time>
			</trkpt>
			<trkpt lat="50.0015252" lon="9.2325168">
				<ele>197.4</ele>
				<time>2026-08-23T10:10:29.000Z</time>
			</trkpt>
			<trkpt lat="50.001267" lon="9.2337238">
				<ele>198.1</ele>
				<time>2026-08-23T10:10:32.000Z</time>
			</trkpt>
			<trkpt lat="50.0010867" lon="9.2345257">
				<ele>198.3</ele>
				<time>2026-08-23T10:10:34.000Z</time>
			</trkpt>
			<trkpt lat="50.0008015" lon="9.2357389">
				<ele>199</ele>
				<time>2026-08-23T10:10:37.000Z</time>
			</trkpt>
			<trkpt lat="50.000479" lon="9.236956">
				<ele>199.5</ele>
				<time>2026-08-23T10:10:40.000Z</time>
			</trkpt>
			<trkpt lat="50.0001538" lon="9.2381623">
				<ele>200.3</ele>
				<time>2026-08-23T10:10:43.000Z</time>
			</trkpt>
			<trkpt lat="49.9998121" lon="9.2393546">
				<ele>200.7</ele>
				<time>2026-08-23T10:10:46.000Z</time>
			</trkpt>
			<trkpt lat="49.9994542" lon="9.2405492">
				<ele>202</ele>
				<time>2026-08-23T10:10:49.000Z</time>
			</trkpt>
			<trkpt lat="49.9990777" lon="9.2417319">
				<ele>202.9</ele>
				<time>2026-08-23T10:10:52.000Z</time>
			</trkpt>
			<trkpt lat="49.9988246" lon="9.2425063">
				<ele>203</ele>
				<time>2026-08-23T10:10:54.000Z</time>
			</trkpt>
			<trkpt lat="49.9985522" lon="9.2432712">
				<ele>203</ele>
				<time>2026-08-23T10:10:56.000Z</time>
			</trkpt>
			<trkpt lat="49.9981347" lon="9.2444017">
				<ele>203.8</ele>
				<time>2026-08-23T10:10:59.000Z</time>
			</trkpt>
			<trkpt lat="49.9976902" lon="9.2455094">
				<ele>205.2</ele>
				<time>2026-08-23T10:11:02.000Z</time>
			</trkpt>
			<trkpt lat="49.9972066" lon="9.2465916">
				<ele>205.6</ele>
				<time>2026-08-23T10:11:05.000Z</time>
			</trkpt>
			<trkpt lat="49.9966833" lon="9.2476248">
				<ele>207.1</ele>
				<time>2026-08-23T10:11:08.000Z</time>
			</trkpt>
			<trkpt lat="49.9961178" lon="9.2485919">
				<ele>207.6</ele>
				<time>2026-08-23T10:11:11.000Z</time>
			</trkpt>
			<trkpt lat="49.9955152" lon="9.2495036">
				<ele>208.8</ele>
				<time>2026-08-23T10:11:14.000Z</time>
			</trkpt>
			<trkpt lat="49.9950953" lon="9.2500774">
				<ele>209.8</ele>
				<time>2026-08-23T10:11:16.000Z</time>
			</trkpt>
			<trkpt lat="49.9944312" lon="9.2508789">
				<ele>211.6</ele>
				<time>2026-08-23T10:11:19.000Z</time>
			</trkpt>
			<trkpt lat="49.9937481" lon="9.2516125">
				<ele>213</ele>
				<time>2026-08-23T10:11:22.000Z</time>
			</trkpt>
			<trkpt lat="49.993031" lon="9.2522601">
				<ele>213.8</ele>
				<time>2026-08-23T10:11:25.000Z</time>
			</trkpt>
			<trkpt lat="49.9925323" lon="9.2526474">
				<ele>213.6</ele>
				<time>2026-08-23T10:11:27.000Z</time>
			</trkpt>
			<trkpt lat="49.9917673" lon="9.253165">
				<ele>213.8</ele>
				<time>2026-08-23T10:11:30.000Z</time>
			</trkpt>
			<trkpt lat="49.9912537" lon="9.2534913">
				<ele>213.7</ele>
				<time>2026-08-23T10:11:32.000Z</time>
			</trkpt>
			<trkpt lat="49.9904498" lon="9.2539669">
				<ele>213.4</ele>
				<time>2026-08-23T10:11:35.000Z</time>
			</trkpt>
			<trkpt lat="49.9896482" lon="9.2544546">
				<ele>212.4</ele>
				<time>2026-08-23T10:11:38.000Z</time>
			</trkpt>
			<trkpt lat="49.9891259" lon="9.2548337">
				<ele>211</ele>
				<time>2026-08-23T10:11:40.000Z</time>
			</trkpt>
			<trkpt lat="49.9883544" lon="9.255469">
				<ele>208.4</ele>
				<time>2026-08-23T10:11:43.000Z</time>
			</trkpt>
			<trkpt lat="49.9875925" lon="9.2561832">
				<ele>207</ele>
				<time>2026-08-23T10:11:46.000Z</time>
			</trkpt>
			<trkpt lat="49.9870975" lon="9.2567196">
				<ele>206.1</ele>
				<time>2026-08-23T10:11:48.000Z</time>
			</trkpt>
			<trkpt lat="49.9864036" lon="9.257611">
				<ele>206.2</ele>
				<time>2026-08-23T10:11:51.000Z</time>
			</trkpt>
			<trkpt lat="49.985751" lon="9.2585406">
				<ele>206.4</ele>
				<time>2026-08-23T10:11:54.000Z</time>
			</trkpt>
			<trkpt lat="49.9853248" lon="9.2591755">
				<ele>208.2</ele>
				<time>2026-08-23T10:11:56.000Z</time>
			</trkpt>
			<trkpt lat="49.984707" lon="9.2601057">
				<ele>209.7</ele>
				<time>2026-08-23T10:11:59.000Z</time>
			</trkpt>
			<trkpt lat="49.9840885" lon="9.2610269">
				<ele>210.7</ele>
				<time>2026-08-23T10:12:02.000Z</time>
			</trkpt>
			<trkpt lat="49.9834784" lon="9.261946">
				<ele>212.8</ele>
				<time>2026-08-23T10:12:05.000Z</time>
			</trkpt>
			<trkpt lat="49.9828939" lon="9.2628955">
				<ele>215.3</ele>
				<time>2026-08-23T10:12:08.000Z</time>
			</trkpt>
			<trkpt lat="49.98233" lon="9.2638381">
				<ele>217.7</ele>
				<time>2026-08-23T10:12:11.000Z</time>
			</trkpt>
			<trkpt lat="49.9817789" lon="9.2647825">
				<ele>220</ele>
				<time>2026-08-23T10:12:14.000Z</time>
			</trkpt>
			<trkpt lat="49.9812292" lon="9.2657465">
				<ele>221.5</ele>
				<time>2026-08-23T10:12:17.000Z</time>
			</trkpt>
			<trkpt lat="49.9807016" lon="9.2666997">
				<ele>223</ele>
				<time>2026-08-23T10:12:20.000Z</time>
			</trkpt>
			<trkpt lat="49.9803488" lon="9.2673437">
				<ele>224.7</ele>
				<time>2026-08-23T10:12:22.000Z</time>
			</trkpt>
			<trkpt lat="49.9798296" lon="9.2683136">
				<ele>227.3</ele>
				<time>2026-08-23T10:12:25.000Z</time>
			</trkpt>
			<trkpt lat="49.979491" lon="9.2689759">
				<ele>228.7</ele>
				<time>2026-08-23T10:12:27.000Z</time>
			</trkpt>
			<trkpt lat="49.9790057" lon="9.2699859">
				<ele>229.7</ele>
				<time>2026-08-23T10:12:30.000Z</time>
			</trkpt>
			<trkpt lat="49.9785519" lon="9.2710234">
				<ele>230.9</ele>
				<time>2026-08-23T10:12:33.000Z</time>
			</trkpt>
			<trkpt lat="49.9781209" lon="9.2720739">
				<ele>232.7</ele>
				<time>2026-08-23T10:12:36.000Z</time>
			</trkpt>
			<trkpt lat="49.9778487" lon="9.2727917">
				<ele>233.5</ele>
				<time>2026-08-23T10:12:38.000Z</time>
			</trkpt>
			<trkpt lat="49.9774713" lon="9.2738995">
				<ele>236.7</ele>
				<time>2026-08-23T10:12:41.000Z</time>
			</trkpt>
			<trkpt lat="49.9772202" lon="9.2746391">
				<ele>238.1</ele>
				<time>2026-08-23T10:12:43.000Z</time>
			</trkpt>
			<trkpt lat="49.9768634" lon="9.2757346">
				<ele>241.3</ele>
				<time>2026-08-23T10:12:46.000Z</time>
			</trkpt>
			<trkpt lat="49.976502" lon="9.2768123">
				<ele>242.8</ele>
				<time>2026-08-23T10:12:49.000Z</time>
			</trkpt>
			<trkpt lat="49.9761295" lon="9.2778803">
				<ele>246.7</ele>
				<time>2026-08-23T10:12:52.000Z</time>
			</trkpt>
			<trkpt lat="49.9757503" lon="9.2789137">
				<ele>249.3</ele>
				<time>2026-08-23T10:12:55.000Z</time>
			</trkpt>
			<trkpt lat="49.9754783" lon="9.2795843">
				<ele>251.8</ele>
				<time>2026-08-23T10:12:57.000Z</time>
			</trkpt>
			<trkpt lat="49.975051" lon="9.2805548">
				<ele>255.4</ele>
				<time>2026-08-23T10:13:00.000Z</time>
			</trkpt>
			<trkpt lat="49.9746151" lon="9.2815074">
				<ele>259.6</ele>
				<time>2026-08-23T10:13:03.000Z</time>
			</trkpt>
			<trkpt lat="49.9743288" lon="9.2821333">
				<ele>261.4</ele>
				<time>2026-08-23T10:13:05.000Z</time>
			</trkpt>
			<trkpt lat="49.9738984" lon="9.2830474">
				<ele>264.2</ele>
				<time>2026-08-23T10:13:08.000Z</time>
			</trkpt>
			<trkpt lat="49.9735159" lon="9.283952">
				<ele>267.4</ele>
				<time>2026-08-23T10:13:11.000Z</time>
			</trkpt>
			<trkpt lat="49.9732938" lon="9.2845415">
				<ele>269</ele>
				<time>2026-08-23T10:13:13.000Z</time>
			</trkpt>
			<trkpt lat="49.9730046" lon="9.2854089">
				<ele>272.1</ele>
				<time>2026-08-23T10:13:16.000Z</time>
			</trkpt>
			<trkpt lat="49.9727379" lon="9.2863122">
				<ele>275.8</ele>
				<time>2026-08-23T10:13:19.000Z</time>
			</trkpt>
			<trkpt lat="49.9724718" lon="9.2872481">
				<ele>278.1</ele>
				<time>2026-08-23T10:13:22.000Z</time>
			</trkpt>
			<trkpt lat="49.9723011" lon="9.2879033">
				<ele>279.1</ele>
				<time>2026-08-23T10:13:24.000Z</time>
			</trkpt>
			<trkpt lat="49.9720482" lon="9.2889185">
				<ele>281.5</ele>
				<time>2026-08-23T10:13:27.000Z</time>
			</trkpt>
			<trkpt lat="49.9718712" lon="9.2896132">
				<ele>282.3</ele>
				<time>2026-08-23T10:13:29.000Z</time>
			</trkpt>
			<trkpt lat="49.971599" lon="9.2906933">
				<ele>283.6</ele>
				<time>2026-08-23T10:13:32.000Z</time>
			</trkpt>
			<trkpt lat="49.9712833" lon="9.2917745">
				<ele>285.3</ele>
				<time>2026-08-23T10:13:35.000Z</time>
			</trkpt>
			<trkpt lat="49.9709227" lon="9.2928418">
				<ele>286.3</ele>
				<time>2026-08-23T10:13:38.000Z</time>
			</trkpt>
			<trkpt lat="49.9706571" lon="9.2935412">
				<ele>286.7</ele>
				<time>2026-08-23T10:13:40.000Z</time>
			</trkpt>
			<trkpt lat="49.97037" lon="9.294224">
				<ele>287.2</ele>
				<time>2026-08-23T10:13:42.000Z</time>
			</trkpt>
			<trkpt lat="49.9700574" lon="9.2948988">
				<ele>288.2</ele>
				<time>2026-08-23T10:13:44.000Z</time>
			</trkpt>
			<trkpt lat="49.9695459" lon="9.2958542">
				<ele>288.3</ele>
				<time>2026-08-23T10:13:47.000Z</time>
			</trkpt>
			<trkpt lat="49.9690019" lon="9.2967518">
				<ele>289.7</ele>
				<time>2026-08-23T10:13:50.000Z</time>
			</trkpt>
			<trkpt lat="49.9686126" lon="9.2973073">
				<ele>290.8</ele>
				<time>2026-08-23T10:13:52.000Z</time>
			</trkpt>
			<trkpt lat="49.9680184" lon="9.298075">
				<ele>291.9</ele>
				<time>2026-08-23T10:13:55.000Z</time>
			</trkpt>
			<trkpt lat="49.9674026" lon="9.2988151">
				<ele>293.8</ele>
				<time>2026-08-23T10:13:58.000Z</time>
			</trkpt>
			<trkpt lat="49.9667856" lon="9.2995541">
				<ele>295.7</ele>
				<time>2026-08-23T10:14:01.000Z</time>
			</trkpt>
			<trkpt lat="49.9661851" lon="9.3003246">
				<ele>297.5</ele>
				<time>2026-08-23T10:14:04.000Z</time>
			</trkpt>
			<trkpt lat="49.9657991" lon="9.3008652">
				<ele>299.1</ele>
				<time>2026-08-23T10:14:06.000Z</time>
			</trkpt>
			<trkpt lat="49.9652517" lon="9.3017056">
				<ele>301.4</ele>
				<time>2026-08-23T10:14:09.000Z</time>
			</trkpt>
			<trkpt lat="49.9649062" lon="9.3022926">
				<ele>302.4</ele>
				<time>2026-08-23T10:14:11.000Z</time>
			</trkpt>
			<trkpt lat="49.9645798" lon="9.3028906">
				<ele>302.8</ele>
				<time>2026-08-23T10:14:13.000Z</time>
			</trkpt>
			<trkpt lat="49.9641123" lon="9.3038088">
				<ele>305.3</ele>
				<time>2026-08-23T10:14:16.000Z</time>
			</trkpt>
			<trkpt lat="49.9636956" lon="9.3047755">
				<ele>307.7</ele>
				<time>2026-08-23T10:14:19.000Z</time>
			</trkpt>
			<trkpt lat="49.9634334" lon="9.3054437">
				<ele>308.8</ele>
				<time>2026-08-23T10:14:21.000Z</time>
			</trkpt>
			<trkpt lat="49.963073" lon="9.3064547">
				<ele>311.3</ele>
				<time>2026-08-23T10:14:24.000Z</time>
			</trkpt>
			<trkpt lat="49.962847" lon="9.3071514">
				<ele>313.2</ele>
				<time>2026-08-23T10:14:26.000Z</time>
			</trkpt>
			<trkpt lat="49.9626402" lon="9.3078662">
				<ele>315.2</ele>
				<time>2026-08-23T10:14:28.000Z</time>
			</trkpt>
			<trkpt lat="49.9623506" lon="9.3089588">
				<ele>317.8</ele>
				<time>2026-08-23T10:14:31.000Z</time>
			</trkpt>
			<trkpt lat="49.9621731" lon="9.3096909">
				<ele>319.7</ele>
				<time>2026-08-23T10:14:33.000Z</time>
			</trkpt>
			<trkpt lat="49.9619413" lon="9.3108088">
				<ele>322.2</ele>
				<time>2026-08-23T10:14:36.000Z</time>
			</trkpt>
			<trkpt lat="49.961745" lon="9.3119434">
				<ele>324.6</ele>
				<time>2026-08-23T10:14:39.000Z</time>
			</trkpt>
			<trkpt lat="49.9616141" lon="9.3127026">
				<ele>326.5</ele>
				<time>2026-08-23T10:14:41.000Z</time>
			</trkpt>
			<trkpt lat="49.9614819" lon="9.313444">
				<ele>328.6</ele>
				<time>2026-08-23T10:14:43.000Z</time>
			</trkpt>
			<trkpt lat="49.9612649" lon="9.314538">
				<ele>331.6</ele>
				<time>2026-08-23T10:14:46.000Z</time>
			</trkpt>
			<trkpt lat="49.9611029" lon="9.3152442">
				<ele>333.7</ele>
				<time>2026-08-23T10:14:48.000Z</time>
			</trkpt>
			<trkpt lat="49.9608202" lon="9.3162588">
				<ele>337.4</ele>
				<time>2026-08-23T10:14:51.000Z</time>
			</trkpt>
			<trkpt lat="49.9606029" lon="9.3169014">
				<ele>339.7</ele>
				<time>2026-08-23T10:14:53.000Z</time>
			</trkpt>
			<trkpt lat="49.9602375" lon="9.3178378">
				<ele>343.5</ele>
				<time>2026-08-23T10:14:56.000Z</time>
			</trkpt>
			<trkpt lat="49.9599626" lon="9.3184402">
				<ele>346.1</ele>
				<time>2026-08-23T10:14:58.000Z</time>
			</trkpt>
			<trkpt lat="49.9595165" lon="9.319297">
				<ele>349</ele>
				<time>2026-08-23T10:15:01.000Z</time>
			</trkpt>
			<trkpt lat="49.9592025" lon="9.3198481">
				<ele>351.5</ele>
				<time>2026-08-23T10:15:03.000Z</time>
			</trkpt>
			<trkpt lat="49.958699" lon="9.3206222">
				<ele>354.5</ele>
				<time>2026-08-23T10:15:06.000Z</time>
			</trkpt>
			<trkpt lat="49.9581766" lon="9.321352">
				<ele>358</ele>
				<time>2026-08-23T10:15:09.000Z</time>
			</trkpt>
			<trkpt lat="49.9576115" lon="9.3220523">
				<ele>360.1</ele>
				<time>2026-08-23T10:15:12.000Z</time>
			</trkpt>
			<trkpt lat="49.9570093" lon="9.322736">
				<ele>362.4</ele>
				<time>2026-08-23T10:15:15.000Z</time>
			</trkpt>
			<trkpt lat="49.9565874" lon="9.323179">
				<ele>364</ele>
				<time>2026-08-23T10:15:17.000Z</time>
			</trkpt>
			<trkpt lat="49.9561583" lon="9.3236165">
				<ele>365.4</ele>
				<time>2026-08-23T10:15:19.000Z</time>
			</trkpt>
			<trkpt lat="49.9554922" lon="9.3242656">
				<ele>367.4</ele>
				<time>2026-08-23T10:15:22.000Z</time>
			</trkpt>
			<trkpt lat="49.9548111" lon="9.3249127">
				<ele>368.7</ele>
				<time>2026-08-23T10:15:25.000Z</time>
			</trkpt>
			<trkpt lat="49.9541165" lon="9.3255691">
				<ele>370.9</ele>
				<time>2026-08-23T10:15:28.000Z</time>
			</trkpt>
			<trkpt lat="49.9534172" lon="9.3262343">
				<ele>372</ele>
				<time>2026-08-23T10:15:31.000Z</time>
			</trkpt>
			<trkpt lat="49.9529552" lon="9.3266978">
				<ele>372.7</ele>
				<time>2026-08-23T10:15:33.000Z</time>
			</trkpt>
			<trkpt lat="49.9522781" lon="9.3274357">
				<ele>374.7</ele>
				<time>2026-08-23T10:15:36.000Z</time>
			</trkpt>
			<trkpt lat="49.9516378" lon="9.3282409">
				<ele>376.1</ele>
				<time>2026-08-23T10:15:39.000Z</time>
			</trkpt>
			<trkpt lat="49.9510367" lon="9.3291018">
				<ele>378.6</ele>
				<time>2026-08-23T10:15:42.000Z</time>
			</trkpt>
			<trkpt lat="49.9506582" lon="9.3296993">
				<ele>380.6</ele>
				<time>2026-08-23T10:15:44.000Z</time>
			</trkpt>
			<trkpt lat="49.9500995" lon="9.330604">
				<ele>383.3</ele>
				<time>2026-08-23T10:15:47.000Z</time>
			</trkpt>
			<trkpt lat="49.9495346" lon="9.3314748">
				<ele>386.6</ele>
				<time>2026-08-23T10:15:50.000Z</time>
			</trkpt>
			<trkpt lat="49.9491454" lon="9.3320272">
				<ele>388.3</ele>
				<time>2026-08-23T10:15:52.000Z</time>
			</trkpt>
			<trkpt lat="49.9487386" lon="9.3325392">
				<ele>390.4</ele>
				<time>2026-08-23T10:15:54.000Z</time>
			</trkpt>
			<trkpt lat="49.9483224" lon="9.333026">
				<ele>392.4</ele>
				<time>2026-08-23T10:15:56.000Z</time>
			</trkpt>
			<trkpt lat="49.9478967" lon="9.3334786">
				<ele>394.7</ele>
				<time>2026-08-23T10:15:58.000Z</time>
			</trkpt>
			<trkpt lat="49.9472668" lon="9.3341635">
				<ele>397.7</ele>
				<time>2026-08-23T10:16:01.000Z</time>
			</trkpt>
			<trkpt lat="49.9466123" lon="9.334816">
				<ele>401.9</ele>
				<time>2026-08-23T10:16:04.000Z</time>
			</trkpt>
			<trkpt lat="49.9459571" lon="9.3354709">
				<ele>405.5</ele>
				<time>2026-08-23T10:16:07.000Z</time>
			</trkpt>
			<trkpt lat="49.9453302" lon="9.3361737">
				<ele>408.3</ele>
				<time>2026-08-23T10:16:10.000Z</time>
			</trkpt>
			<trkpt lat="49.9447143" lon="9.3369134">
				<ele>410.8</ele>
				<time>2026-08-23T10:16:13.000Z</time>
			</trkpt>
			<trkpt lat="49.944106" lon="9.3376969">
				<ele>414.6</ele>
				<time>2026-08-23T10:16:16.000Z</time>
			</trkpt>
			<trkpt lat="49.9435237" lon="9.3385092">
				<ele>418.2</ele>
				<time>2026-08-23T10:16:19.000Z</time>
			</trkpt>
			<trkpt lat="49.9429587" lon="9.3393517">
				<ele>422.3</ele>
				<time>2026-08-23T10:16:22.000Z</time>
			</trkpt>
			<trkpt lat="49.9425878" lon="9.339911">
				<ele>424.4</ele>
				<time>2026-08-23T10:16:24.000Z</time>
			</trkpt>
			<trkpt lat="49.9420398" lon="9.3407687">
				<ele>426.9</ele>
				<time>2026-08-23T10:16:27.000Z</time>
			</trkpt>
			<trkpt lat="49.9416736" lon="9.3413407">
				<ele>429.4</ele>
				<time>2026-08-23T10:16:29.000Z</time>
			</trkpt>
			<trkpt lat="49.9413007" lon="9.3419115">
				<ele>431.7</ele>
				<time>2026-08-23T10:16:31.000Z</time>
			</trkpt>
			<trkpt lat="49.9409148" lon="9.3424755">
				<ele>433.3</ele>
				<time>2026-08-23T10:16:33.000Z</time>
			</trkpt>
			<trkpt lat="49.9403165" lon="9.3432834">
				<ele>436.4</ele>
				<time>2026-08-23T10:16:36.000Z</time>
			</trkpt>
			<trkpt lat="49.9399031" lon="9.3437966">
				<ele>438.2</ele>
				<time>2026-08-23T10:16:38.000Z</time>
			</trkpt>
			<trkpt lat="49.9392455" lon="9.3445097">
				<ele>441.3</ele>
				<time>2026-08-23T10:16:41.000Z</time>
			</trkpt>
			<trkpt lat="49.9385622" lon="9.3451619">
				<ele>444.5</ele>
				<time>2026-08-23T10:16:44.000Z</time>
			</trkpt>
			<trkpt lat="49.9378509" lon="9.3457573">
				<ele>448</ele>
				<time>2026-08-23T10:16:47.000Z</time>
			</trkpt>
			<trkpt lat="49.9371192" lon="9.3462888">
				<ele>449.9</ele>
				<time>2026-08-23T10:16:50.000Z</time>
			</trkpt>
			<trkpt lat="49.9366247" lon="9.3466229">
				<ele>452</ele>
				<time>2026-08-23T10:16:52.000Z</time>
			</trkpt>
			<trkpt lat="49.9358828" lon="9.3471542">
				<ele>453.9</ele>
				<time>2026-08-23T10:16:55.000Z</time>
			</trkpt>
			<trkpt lat="49.9351502" lon="9.3477216">
				<ele>456.6</ele>
				<time>2026-08-23T10:16:58.000Z</time>
			</trkpt>
			<trkpt lat="49.9346741" lon="9.3481373">
				<ele>457.6</ele>
				<time>2026-08-23T10:17:00.000Z</time>
			</trkpt>
			<trkpt lat="49.9339764" lon="9.3488112">
				<ele>458.7</ele>
				<time>2026-08-23T10:17:03.000Z</time>
			</trkpt>
			<trkpt lat="49.9332902" lon="9.3495506">
				<ele>459.1</ele>
				<time>2026-08-23T10:17:06.000Z</time>
			</trkpt>
			<trkpt lat="49.932594" lon="9.3503135">
				<ele>459.3</ele>
				<time>2026-08-23T10:17:09.000Z</time>
			</trkpt>
			<trkpt lat="49.9318732" lon="9.3510493">
				<ele>460.5</ele>
				<time>2026-08-23T10:17:12.000Z</time>
			</trkpt>
			<trkpt lat="49.9311356" lon="9.3517249">
				<ele>461.4</ele>
				<time>2026-08-23T10:17:15.000Z</time>
			</trkpt>
			<trkpt lat="49.9306165" lon="9.3521339">
				<ele>462.1</ele>
				<time>2026-08-23T10:17:17.000Z</time>
			</trkpt>
			<trkpt lat="49.9298248" lon="9.3526719">
				<ele>462</ele>
				<time>2026-08-23T10:17:20.000Z</time>
			</trkpt>
			<trkpt lat="49.9289908" lon="9.3531146">
				<ele>462.6</ele>
				<time>2026-08-23T10:17:23.000Z</time>
			</trkpt>
			<trkpt lat="49.9284333" lon="9.3533615">
				<ele>463.4</ele>
				<time>2026-08-23T10:17:25.000Z</time>
			</trkpt>
			<trkpt lat="49.9278778" lon="9.3535642">
				<ele>463.6</ele>
				<time>2026-08-23T10:17:27.000Z</time>
			</trkpt>
			<trkpt lat="49.9273129" lon="9.3537102">
				<ele>464</ele>
				<time>2026-08-23T10:17:29.000Z</time>
			</trkpt>
			<trkpt lat="49.9267462" lon="9.3538268">
				<ele>465</ele>
				<time>2026-08-23T10:17:31.000Z</time>
			</trkpt>
			<trkpt lat="49.9259018" lon="9.3539962">
				<ele>468.8</ele>
				<time>2026-08-23T10:17:34.000Z</time>
			</trkpt>
			<trkpt lat="49.9253441" lon="9.3541031">
				<ele>469.6</ele>
				<time>2026-08-23T10:17:36.000Z</time>
			</trkpt>
			<trkpt lat="49.9247879" lon="9.3542225">
				<ele>471</ele>
				<time>2026-08-23T10:17:38.000Z</time>
			</trkpt>
			<trkpt lat="49.9239622" lon="9.3544218">
				<ele>472.9</ele>
				<time>2026-08-23T10:17:41.000Z</time>
			</trkpt>
			<trkpt lat="49.9231582" lon="9.3547054">
				<ele>475</ele>
				<time>2026-08-23T10:17:44.000Z</time>
			</trkpt>
			<trkpt lat="49.9223564" lon="9.3550435">
				<ele>477.6</ele>
				<time>2026-08-23T10:17:47.000Z</time>
			</trkpt>
			<trkpt lat="49.9215917" lon="9.355462">
				<ele>479.4</ele>
				<time>2026-08-23T10:17:50.000Z</time>
			</trkpt>
			<trkpt lat="49.920852" lon="9.3559421">
				<ele>480.9</ele>
				<time>2026-08-23T10:17:53.000Z</time>
			</trkpt>
			<trkpt lat="49.9203665" lon="9.3562941">
				<ele>482.7</ele>
				<time>2026-08-23T10:17:55.000Z</time>
			</trkpt>
			<trkpt lat="49.9198797" lon="9.356663">
				<ele>485.5</ele>
				<time>2026-08-23T10:17:57.000Z</time>
			</trkpt>
			<trkpt lat="49.919182" lon="9.3572654">
				<ele>489.3</ele>
				<time>2026-08-23T10:18:00.000Z</time>
			</trkpt>
			<trkpt lat="49.9185164" lon="9.3579176">
				<ele>491.9</ele>
				<time>2026-08-23T10:18:03.000Z</time>
			</trkpt>
			<trkpt lat="49.9180899" lon="9.3583852">
				<ele>493.5</ele>
				<time>2026-08-23T10:18:05.000Z</time>
			</trkpt>
			<trkpt lat="49.9174603" lon="9.3591204">
				<ele>495.7</ele>
				<time>2026-08-23T10:18:08.000Z</time>
			</trkpt>
			<trkpt lat="49.9168515" lon="9.359896">
				<ele>495.6</ele>
				<time>2026-08-23T10:18:11.000Z</time>
			</trkpt>
			<trkpt lat="49.9162827" lon="9.3607287">
				<ele>498.4</ele>
				<time>2026-08-23T10:18:14.000Z</time>
			</trkpt>
			<trkpt lat="49.9158879" lon="9.3612984">
				<ele>499.2</ele>
				<time>2026-08-23T10:18:16.000Z</time>
			</trkpt>
			<trkpt lat="49.9153206" lon="9.3621873">
				<ele>500.8</ele>
				<time>2026-08-23T10:18:19.000Z</time>
			</trkpt>
			<trkpt lat="49.9147655" lon="9.3630519">
				<ele>501</ele>
				<time>2026-08-23T10:18:22.000Z</time>
			</trkpt>
			<trkpt lat="49.9143856" lon="9.3636402">
				<ele>502.1</ele>
				<time>2026-08-23T10:18:24.000Z</time>
			</trkpt>
			<trkpt lat="49.9140069" lon="9.3642347">
				<ele>502.8</ele>
				<time>2026-08-23T10:18:26.000Z</time>
			</trkpt>
			<trkpt lat="49.9134052" lon="9.3650991">
				<ele>504.3</ele>
				<time>2026-08-23T10:18:29.000Z</time>
			</trkpt>
			<trkpt lat="49.9127981" lon="9.3659465">
				<ele>505.4</ele>
				<time>2026-08-23T10:18:32.000Z</time>
			</trkpt>
			<trkpt lat="49.9121619" lon="9.3667425">
				<ele>506.6</ele>
				<time>2026-08-23T10:18:35.000Z</time>
			</trkpt>
			<trkpt lat="49.9114925" lon="9.3675368">
				<ele>507.3</ele>
				<time>2026-08-23T10:18:38.000Z</time>
			</trkpt>
			<trkpt lat="49.9107857" lon="9.368298">
				<ele>508.1</ele>
				<time>2026-08-23T10:18:41.000Z</time>
			</trkpt>
			<trkpt lat="49.9103095" lon="9.3687906">
				<ele>508</ele>
				<time>2026-08-23T10:18:43.000Z</time>
			</trkpt>
			<trkpt lat="49.9095631" lon="9.3695321">
				<ele>508.2</ele>
				<time>2026-08-23T10:18:46.000Z</time>
			</trkpt>
			<trkpt lat="49.9090588" lon="9.3700146">
				<ele>508.1</ele>
				<time>2026-08-23T10:18:48.000Z</time>
			</trkpt>
			<trkpt lat="49.9083097" lon="9.3707529">
				<ele>506.6</ele>
				<time>2026-08-23T10:18:51.000Z</time>
			</trkpt>
			<trkpt lat="49.9078149" lon="9.3712642">
				<ele>506.3</ele>
				<time>2026-08-23T10:18:53.000Z</time>
			</trkpt>
			<trkpt lat="49.9071009" lon="9.3720762">
				<ele>505.5</ele>
				<time>2026-08-23T10:18:56.000Z</time>
			</trkpt>
			<trkpt lat="49.9066384" lon="9.3726492">
				<ele>505.1</ele>
				<time>2026-08-23T10:18:58.000Z</time>
			</trkpt>
			<trkpt lat="49.9061975" lon="9.3732634">
				<ele>504.2</ele>
				<time>2026-08-23T10:19:00.000Z</time>
			</trkpt>
			<trkpt lat="49.9055797" lon="9.374227">
				<ele>503.7</ele>
				<time>2026-08-23T10:19:03.000Z</time>
			</trkpt>
			<trkpt lat="49.9051886" lon="9.3749007">
				<ele>503.2</ele>
				<time>2026-08-23T10:19:05.000Z</time>
			</trkpt>
			<trkpt lat="49.9046289" lon="9.3759494">
				<ele>503.3</ele>
				<time>2026-08-23T10:19:08.000Z</time>
			</trkpt>
			<trkpt lat="49.9042876" lon="9.3766844">
				<ele>502.9</ele>
				<time>2026-08-23T10:19:10.000Z</time>
			</trkpt>
			<trkpt lat="49.9039622" lon="9.3774366">
				<ele>503.8</ele>
				<time>2026-08-23T10:19:12.000Z</time>
			</trkpt>
			<trkpt lat="49.9035149" lon="9.378606">
				<ele>504.2</ele>
				<time>2026-08-23T10:19:15.000Z</time>
			</trkpt>
			<trkpt lat="49.903233" lon="9.3794087">
				<ele>504</ele>
				<time>2026-08-23T10:19:17.000Z</time>
			</trkpt>
			<trkpt lat="49.9028257" lon="9.3806116">
				<ele>505.2</ele>
				<time>2026-08-23T10:19:20.000Z</time>
			</trkpt>
			<trkpt lat="49.9024267" lon="9.3818379">
				<ele>507.1</ele>
				<time>2026-08-23T10:19:23.000Z</time>
			</trkpt>
			<trkpt lat="49.9020417" lon="9.3830392">
				<ele>508.6</ele>
				<time>2026-08-23T10:19:26.000Z</time>
			</trkpt>
			<trkpt lat="49.9016512" lon="9.3842412">
				<ele>510.8</ele>
				<time>2026-08-23T10:19:29.000Z</time>
			</trkpt>
			<trkpt lat="49.9013888" lon="9.3850296">
				<ele>511.7</ele>
				<time>2026-08-23T10:19:31.000Z</time>
			</trkpt>
			<trkpt lat="49.9009759" lon="9.3862049">
				<ele>513.5</ele>
				<time>2026-08-23T10:19:34.000Z</time>
			</trkpt>
			<trkpt lat="49.9006797" lon="9.3869696">
				<ele>513.9</ele>
				<time>2026-08-23T10:19:36.000Z</time>
			</trkpt>
			<trkpt lat="49.9002192" lon="9.3880996">
				<ele>514.4</ele>
				<time>2026-08-23T10:19:39.000Z</time>
			</trkpt>
			<trkpt lat="49.899725" lon="9.3892056">
				<ele>514</ele>
				<time>2026-08-23T10:19:42.000Z</time>
			</trkpt>
			<trkpt lat="49.8991953" lon="9.3902825">
				<ele>513.7</ele>
				<time>2026-08-23T10:19:45.000Z</time>
			</trkpt>
			<trkpt lat="49.8988315" lon="9.3909757">
				<ele>512.5</ele>
				<time>2026-08-23T10:19:47.000Z</time>
			</trkpt>
			<trkpt lat="49.89825" lon="9.3920033">
				<ele>512.3</ele>
				<time>2026-08-23T10:19:50.000Z</time>
			</trkpt>
			<trkpt lat="49.8976282" lon="9.3929759">
				<ele>512</ele>
				<time>2026-08-23T10:19:53.000Z</time>
			</trkpt>
			<trkpt lat="49.8971794" lon="9.3935536">
				<ele>511.4</ele>
				<time>2026-08-23T10:19:55.000Z</time>
			</trkpt>
			<trkpt lat="49.8964813" lon="9.3943546">
				<ele>510.5</ele>
				<time>2026-08-23T10:19:58.000Z</time>
			</trkpt>
			<trkpt lat="49.8960136" lon="9.3948558">
				<ele>509.5</ele>
				<time>2026-08-23T10:20:00.000Z</time>
			</trkpt>
			<trkpt lat="49.8953189" lon="9.3955723">
				<ele>509.6</ele>
				<time>2026-08-23T10:20:03.000Z</time>
			</trkpt>
			<trkpt lat="49.8948835" lon="9.3960655">
				<ele>508.7</ele>
				<time>2026-08-23T10:20:05.000Z</time>
			</trkpt>
			<trkpt lat="49.8942834" lon="9.3968472">
				<ele>508.1</ele>
				<time>2026-08-23T10:20:08.000Z</time>
			</trkpt>
			<trkpt lat="49.8937215" lon="9.3976871">
				<ele>508.8</ele>
				<time>2026-08-23T10:20:11.000Z</time>
			</trkpt>
			<trkpt lat="49.8932149" lon="9.3985941">
				<ele>509.1</ele>
				<time>2026-08-23T10:20:14.000Z</time>
			</trkpt>
			<trkpt lat="49.8927648" lon="9.3995536">
				<ele>510.8</ele>
				<time>2026-08-23T10:20:17.000Z</time>
			</trkpt>
			<trkpt lat="49.8923748" lon="9.400561">
				<ele>512.6</ele>
				<time>2026-08-23T10:20:20.000Z</time>
			</trkpt>
			<trkpt lat="49.892035" lon="9.4016003">
				<ele>514.7</ele>
				<time>2026-08-23T10:20:23.000Z</time>
			</trkpt>
			<trkpt lat="49.8917656" lon="9.4027077">
				<ele>517.1</ele>
				<time>2026-08-23T10:20:26.000Z</time>
			</trkpt>
			<trkpt lat="49.8915366" lon="9.4038228">
				<ele>518.8</ele>
				<time>2026-08-23T10:20:29.000Z</time>
			</trkpt>
			<trkpt lat="49.8914071" lon="9.4045778">
				<ele>519.7</ele>
				<time>2026-08-23T10:20:31.000Z</time>
			</trkpt>
			<trkpt lat="49.8912811" lon="9.4053429">
				<ele>520.2</ele>
				<time>2026-08-23T10:20:33.000Z</time>
			</trkpt>
			<trkpt lat="49.8911725" lon="9.406108">
				<ele>521.1</ele>
				<time>2026-08-23T10:20:35.000Z</time>
			</trkpt>
			<trkpt lat="49.8909892" lon="9.4072609">
				<ele>521.9</ele>
				<time>2026-08-23T10:20:38.000Z</time>
			</trkpt>
			<trkpt lat="49.8907581" lon="9.4084126">
				<ele>522.8</ele>
				<time>2026-08-23T10:20:41.000Z</time>
			</trkpt>
			<trkpt lat="49.890577" lon="9.4091776">
				<ele>522.2</ele>
				<time>2026-08-23T10:20:43.000Z</time>
			</trkpt>
			<trkpt lat="49.8902432" lon="9.4103236">
				<ele>522.2</ele>
				<time>2026-08-23T10:20:46.000Z</time>
			</trkpt>
			<trkpt lat="49.8898539" lon="9.411423">
				<ele>522.4</ele>
				<time>2026-08-23T10:20:49.000Z</time>
			</trkpt>
			<trkpt lat="49.8894086" lon="9.412492">
				<ele>521.3</ele>
				<time>2026-08-23T10:20:52.000Z</time>
			</trkpt>
			<trkpt lat="49.8890887" lon="9.4131868">
				<ele>520.8</ele>
				<time>2026-08-23T10:20:54.000Z</time>
			</trkpt>
			<trkpt lat="49.8885636" lon="9.4141965">
				<ele>519.7</ele>
				<time>2026-08-23T10:20:57.000Z</time>
			</trkpt>
			<trkpt lat="49.8879956" lon="9.4151808">
				<ele>517.5</ele>
				<time>2026-08-23T10:21:00.000Z</time>
			</trkpt>
			<trkpt lat="49.8873757" lon="9.416152">
				<ele>515.2</ele>
				<time>2026-08-23T10:21:03.000Z</time>
			</trkpt>
			<trkpt lat="49.8867259" lon="9.4171081">
				<ele>512</ele>
				<time>2026-08-23T10:21:06.000Z</time>
			</trkpt>
			<trkpt lat="49.8862805" lon="9.417749">
				<ele>510.1</ele>
				<time>2026-08-23T10:21:08.000Z</time>
			</trkpt>
			<trkpt lat="49.8858312" lon="9.4183995">
				<ele>508.5</ele>
				<time>2026-08-23T10:21:10.000Z</time>
			</trkpt>
			<trkpt lat="49.8851792" lon="9.4193595">
				<ele>505</ele>
				<time>2026-08-23T10:21:13.000Z</time>
			</trkpt>
			<trkpt lat="49.8847552" lon="9.4200097">
				<ele>502.9</ele>
				<time>2026-08-23T10:21:15.000Z</time>
			</trkpt>
			<trkpt lat="49.8841627" lon="9.4210325">
				<ele>498.2</ele>
				<time>2026-08-23T10:21:18.000Z</time>
			</trkpt>
			<trkpt lat="49.8836115" lon="9.4220865">
				<ele>493.6</ele>
				<time>2026-08-23T10:21:21.000Z</time>
			</trkpt>
			<trkpt lat="49.8830981" lon="9.4231777">
				<ele>489</ele>
				<time>2026-08-23T10:21:24.000Z</time>
			</trkpt>
			<trkpt lat="49.8827784" lon="9.4239345">
				<ele>486.4</ele>
				<time>2026-08-23T10:21:26.000Z</time>
			</trkpt>
			<trkpt lat="49.8823372" lon="9.4250822">
				<ele>482.2</ele>
				<time>2026-08-23T10:21:29.000Z</time>
			</trkpt>
			<trkpt lat="49.8820676" lon="9.4258632">
				<ele>480.1</ele>
				<time>2026-08-23T10:21:31.000Z</time>
			</trkpt>
			<trkpt lat="49.8816997" lon="9.427065">
				<ele>475.8</ele>
				<time>2026-08-23T10:21:34.000Z</time>
			</trkpt>
			<trkpt lat="49.8813888" lon="9.4282852">
				<ele>473</ele>
				<time>2026-08-23T10:21:37.000Z</time>
			</trkpt>
			<trkpt lat="49.8812005" lon="9.4291227">
				<ele>471.3</ele>
				<time>2026-08-23T10:21:39.000Z</time>
			</trkpt>
			<trkpt lat="49.8809307" lon="9.430391">
				<ele>469</ele>
				<time>2026-08-23T10:21:42.000Z</time>
			</trkpt>
			<trkpt lat="49.88075" lon="9.4312318">
				<ele>467.7</ele>
				<time>2026-08-23T10:21:44.000Z</time>
			</trkpt>
			<trkpt lat="49.8805677" lon="9.4320591">
				<ele>466</ele>
				<time>2026-08-23T10:21:46.000Z</time>
			</trkpt>
			<trkpt lat="49.880289" lon="9.4332799">
				<ele>464.2</ele>
				<time>2026-08-23T10:21:49.000Z</time>
			</trkpt>
			<trkpt lat="49.8800782" lon="9.4340805">
				<ele>463.3</ele>
				<time>2026-08-23T10:21:51.000Z</time>
			</trkpt>
			<trkpt lat="49.8797261" lon="9.4352795">
				<ele>463.5</ele>
				<time>2026-08-23T10:21:54.000Z</time>
			</trkpt>
			<trkpt lat="49.8794661" lon="9.4360606">
				<ele>463.2</ele>
				<time>2026-08-23T10:21:56.000Z</time>
			</trkpt>
			<trkpt lat="49.8790494" lon="9.437218">
				<ele>463.7</ele>
				<time>2026-08-23T10:21:59.000Z</time>
			</trkpt>
			<trkpt lat="49.8786002" lon="9.4383469">
				<ele>464.8</ele>
				<time>2026-08-23T10:22:02.000Z</time>
			</trkpt>
			<trkpt lat="49.8781052" lon="9.439464">
				<ele>466.8</ele>
				<time>2026-08-23T10:22:05.000Z</time>
			</trkpt>
			<trkpt lat="49.8777644" lon="9.4401715">
				<ele>468.1</ele>
				<time>2026-08-23T10:22:07.000Z</time>
			</trkpt>
			<trkpt lat="49.877411" lon="9.4408651">
				<ele>469.2</ele>
				<time>2026-08-23T10:22:09.000Z</time>
			</trkpt>
			<trkpt lat="49.8768495" lon="9.441869">
				<ele>471.5</ele>
				<time>2026-08-23T10:22:12.000Z</time>
			</trkpt>
			<trkpt lat="49.8762542" lon="9.4428273">
				<ele>474.2</ele>
				<time>2026-08-23T10:22:15.000Z</time>
			</trkpt>
			<trkpt lat="49.8758457" lon="9.4434426">
				<ele>475.9</ele>
				<time>2026-08-23T10:22:17.000Z</time>
			</trkpt>
			<trkpt lat="49.8754253" lon="9.444043">
				<ele>477.2</ele>
				<time>2026-08-23T10:22:19.000Z</time>
			</trkpt>
			<trkpt lat="49.8747847" lon="9.4449208">
				<ele>479.4</ele>
				<time>2026-08-23T10:22:22.000Z</time>
			</trkpt>
			<trkpt lat="49.8741418" lon="9.4457779">
				<ele>481.4</ele>
				<time>2026-08-23T10:22:25.000Z</time>
			</trkpt>
			<trkpt lat="49.8737091" lon="9.4463502">
				<ele>483.9</ele>
				<time>2026-08-23T10:22:27.000Z</time>
			</trkpt>
			<trkpt lat="49.8730551" lon="9.4471998">
				<ele>486.8</ele>
				<time>2026-08-23T10:22:30.000Z</time>
			</trkpt>
			<trkpt lat="49.8726242" lon="9.4477822">
				<ele>488.5</ele>
				<time>2026-08-23T10:22:32.000Z</time>
			</trkpt>
			<trkpt lat="49.8719855" lon="9.448664">
				<ele>489.7</ele>
				<time>2026-08-23T10:22:35.000Z</time>
			</trkpt>
			<trkpt lat="49.8715686" lon="9.449275">
				<ele>490.2</ele>
				<time>2026-08-23T10:22:37.000Z</time>
			</trkpt>
			<trkpt lat="49.8711562" lon="9.4499144">
				<ele>490.7</ele>
				<time>2026-08-23T10:22:39.000Z</time>
			</trkpt>
			<trkpt lat="49.8705517" lon="9.4508926">
				<ele>491.5</ele>
				<time>2026-08-23T10:22:42.000Z</time>
			</trkpt>
			<trkpt lat="49.8699726" lon="9.4519382">
				<ele>491</ele>
				<time>2026-08-23T10:22:45.000Z</time>
			</trkpt>
			<trkpt lat="49.8696021" lon="9.4526486">
				<ele>490</ele>
				<time>2026-08-23T10:22:47.000Z</time>
			</trkpt>
			<trkpt lat="49.8692558" lon="9.4533767">
				<ele>489.8</ele>
				<time>2026-08-23T10:22:49.000Z</time>
			</trkpt>
			<trkpt lat="49.8687837" lon="9.4544871">
				<ele>486.9</ele>
				<time>2026-08-23T10:22:52.000Z</time>
			</trkpt>
			<trkpt lat="49.8684826" lon="9.4552384">
				<ele>485.9</ele>
				<time>2026-08-23T10:22:54.000Z</time>
			</trkpt>
			<trkpt lat="49.868069" lon="9.4563588">
				<ele>484.3</ele>
				<time>2026-08-23T10:22:57.000Z</time>
			</trkpt>
			<trkpt lat="49.8677115" lon="9.4575049">
				<ele>482.8</ele>
				<time>2026-08-23T10:23:00.000Z</time>
			</trkpt>
			<trkpt lat="49.8674863" lon="9.4583212">
				<ele>481.9</ele>
				<time>2026-08-23T10:23:02.000Z</time>
			</trkpt>
			<trkpt lat="49.8671725" lon="9.4595977">
				<ele>479.1</ele>
				<time>2026-08-23T10:23:05.000Z</time>
			</trkpt>
			<trkpt lat="49.8668772" lon="9.4609243">
				<ele>477.2</ele>
				<time>2026-08-23T10:23:08.000Z</time>
			</trkpt>
			<trkpt lat="49.8666108" lon="9.4623188">
				<ele>475.6</ele>
				<time>2026-08-23T10:23:11.000Z</time>
			</trkpt>
			<trkpt lat="49.8664533" lon="9.4632502">
				<ele>474.1</ele>
				<time>2026-08-23T10:23:13.000Z</time>
			</trkpt>
			<trkpt lat="49.8663108" lon="9.4641622">
				<ele>473.2</ele>
				<time>2026-08-23T10:23:15.000Z</time>
			</trkpt>
			<trkpt lat="49.866158" lon="9.465504">
				<ele>471.1</ele>
				<time>2026-08-23T10:23:18.000Z</time>
			</trkpt>
			<trkpt lat="49.8660455" lon="9.4668379">
				<ele>468.5</ele>
				<time>2026-08-23T10:23:21.000Z</time>
			</trkpt>
			<trkpt lat="49.8659832" lon="9.4677131">
				<ele>466.8</ele>
				<time>2026-08-23T10:23:23.000Z</time>
			</trkpt>
			<trkpt lat="49.8658938" lon="9.4690519">
				<ele>463.8</ele>
				<time>2026-08-23T10:23:26.000Z</time>
			</trkpt>
			<trkpt lat="49.865796" lon="9.4704027">
				<ele>461.2</ele>
				<time>2026-08-23T10:23:29.000Z</time>
			</trkpt>
			<trkpt lat="49.865709" lon="9.4713056">
				<ele>459.4</ele>
				<time>2026-08-23T10:23:31.000Z</time>
			</trkpt>
			<trkpt lat="49.8655262" lon="9.472647">
				<ele>456.8</ele>
				<time>2026-08-23T10:23:34.000Z</time>
			</trkpt>
			<trkpt lat="49.8652747" lon="9.4739572">
				<ele>454.4</ele>
				<time>2026-08-23T10:23:37.000Z</time>
			</trkpt>
			<trkpt lat="49.8650667" lon="9.4748114">
				<ele>453.4</ele>
				<time>2026-08-23T10:23:39.000Z</time>
			</trkpt>
			<trkpt lat="49.8647154" lon="9.4760558">
				<ele>453.3</ele>
				<time>2026-08-23T10:23:42.000Z</time>
			</trkpt>
			<trkpt lat="49.8644471" lon="9.4768595">
				<ele>451</ele>
				<time>2026-08-23T10:23:44.000Z</time>
			</trkpt>
			<trkpt lat="49.8639958" lon="9.4780221">
				<ele>449.7</ele>
				<time>2026-08-23T10:23:47.000Z</time>
			</trkpt>
			<trkpt lat="49.8634864" lon="9.4791238">
				<ele>449.8</ele>
				<time>2026-08-23T10:23:50.000Z</time>
			</trkpt>
			<trkpt lat="49.8629344" lon="9.4801389">
				<ele>449.1</ele>
				<time>2026-08-23T10:23:53.000Z</time>
			</trkpt>
			<trkpt lat="49.8625433" lon="9.4807802">
				<ele>449.2</ele>
				<time>2026-08-23T10:23:55.000Z</time>
			</trkpt>
			<trkpt lat="49.8621405" lon="9.4813815">
				<ele>449.5</ele>
				<time>2026-08-23T10:23:57.000Z</time>
			</trkpt>
			<trkpt lat="49.8617214" lon="9.4819648">
				<ele>449.9</ele>
				<time>2026-08-23T10:23:59.000Z</time>
			</trkpt>
			<trkpt lat="49.8612764" lon="9.4825208">
				<ele>450.7</ele>
				<time>2026-08-23T10:24:01.000Z</time>
			</trkpt>
			<trkpt lat="49.8605836" lon="9.483308">
				<ele>452.1</ele>
				<time>2026-08-23T10:24:04.000Z</time>
			</trkpt>
			<trkpt lat="49.859882" lon="9.4841036">
				<ele>453.1</ele>
				<time>2026-08-23T10:24:07.000Z</time>
			</trkpt>
			<trkpt lat="49.8594202" lon="9.4846461">
				<ele>453.2</ele>
				<time>2026-08-23T10:24:09.000Z</time>
			</trkpt>
			<trkpt lat="49.8587633" lon="9.4855456">
				<ele>453.5</ele>
				<time>2026-08-23T10:24:12.000Z</time>
			</trkpt>
			<trkpt lat="49.8583412" lon="9.4861882">
				<ele>453.8</ele>
				<time>2026-08-23T10:24:14.000Z</time>
			</trkpt>
			<trkpt lat="49.8579388" lon="9.4868576">
				<ele>453.4</ele>
				<time>2026-08-23T10:24:16.000Z</time>
			</trkpt>
			<trkpt lat="49.8575618" lon="9.4875713">
				<ele>451.8</ele>
				<time>2026-08-23T10:24:18.000Z</time>
			</trkpt>
			<trkpt lat="49.8570336" lon="9.4886896">
				<ele>448.9</ele>
				<time>2026-08-23T10:24:21.000Z</time>
			</trkpt>
			<trkpt lat="49.8567147" lon="9.4894768">
				<ele>446.8</ele>
				<time>2026-08-23T10:24:23.000Z</time>
			</trkpt>
			<trkpt lat="49.8564148" lon="9.490284">
				<ele>445.2</ele>
				<time>2026-08-23T10:24:25.000Z</time>
			</trkpt>
			<trkpt lat="49.8561381" lon="9.4911076">
				<ele>443.1</ele>
				<time>2026-08-23T10:24:27.000Z</time>
			</trkpt>
			<trkpt lat="49.855729" lon="9.4923537">
				<ele>440</ele>
				<time>2026-08-23T10:24:30.000Z</time>
			</trkpt>
			<trkpt lat="49.8552938" lon="9.4935613">
				<ele>436.9</ele>
				<time>2026-08-23T10:24:33.000Z</time>
			</trkpt>
			<trkpt lat="49.8548258" lon="9.4947444">
				<ele>434.4</ele>
				<time>2026-08-23T10:24:36.000Z</time>
			</trkpt>
			<trkpt lat="49.854482" lon="9.4955077">
				<ele>432.7</ele>
				<time>2026-08-23T10:24:38.000Z</time>
			</trkpt>
			<trkpt lat="49.8541203" lon="9.4962412">
				<ele>431.1</ele>
				<time>2026-08-23T10:24:40.000Z</time>
			</trkpt>
			<trkpt lat="49.8535389" lon="9.4972626">
				<ele>429</ele>
				<time>2026-08-23T10:24:43.000Z</time>
			</trkpt>
			<trkpt lat="49.8531408" lon="9.4979016">
				<ele>427.2</ele>
				<time>2026-08-23T10:24:45.000Z</time>
			</trkpt>
			<trkpt lat="49.8524948" lon="9.4988109">
				<ele>424.7</ele>
				<time>2026-08-23T10:24:48.000Z</time>
			</trkpt>
			<trkpt lat="49.8517845" lon="9.4996704">
				<ele>422.2</ele>
				<time>2026-08-23T10:24:51.000Z</time>
			</trkpt>
			<trkpt lat="49.8510381" lon="9.5004516">
				<ele>420.1</ele>
				<time>2026-08-23T10:24:54.000Z</time>
			</trkpt>
			<trkpt lat="49.8505154" lon="9.5009301">
				<ele>419.9</ele>
				<time>2026-08-23T10:24:56.000Z</time>
			</trkpt>
			<trkpt lat="49.8497144" lon="9.5015978">
				<ele>420</ele>
				<time>2026-08-23T10:24:59.000Z</time>
			</trkpt>
			<trkpt lat="49.8491669" lon="9.5020094">
				<ele>420.9</ele>
				<time>2026-08-23T10:25:01.000Z</time>
			</trkpt>
			<trkpt lat="49.8483641" lon="9.5025688">
				<ele>421.7</ele>
				<time>2026-08-23T10:25:04.000Z</time>
			</trkpt>
			<trkpt lat="49.8478161" lon="9.50292">
				<ele>422.3</ele>
				<time>2026-08-23T10:25:06.000Z</time>
			</trkpt>
			<trkpt lat="49.8472853" lon="9.5032755">
				<ele>422.7</ele>
				<time>2026-08-23T10:25:08.000Z</time>
			</trkpt>
			<trkpt lat="49.8464583" lon="9.5038233">
				<ele>424.9</ele>
				<time>2026-08-23T10:25:11.000Z</time>
			</trkpt>
			<trkpt lat="49.8459174" lon="9.5041813">
				<ele>425.5</ele>
				<time>2026-08-23T10:25:13.000Z</time>
			</trkpt>
			<trkpt lat="49.8451118" lon="9.5047642">
				<ele>425.7</ele>
				<time>2026-08-23T10:25:16.000Z</time>
			</trkpt>
			<trkpt lat="49.8446" lon="9.5051667">
				<ele>426.5</ele>
				<time>2026-08-23T10:25:18.000Z</time>
			</trkpt>
			<trkpt lat="49.8438579" lon="9.5057849">
				<ele>427.2</ele>
				<time>2026-08-23T10:25:21.000Z</time>
			</trkpt>
			<trkpt lat="49.8431307" lon="9.5064463">
				<ele>427</ele>
				<time>2026-08-23T10:25:24.000Z</time>
			</trkpt>
			<trkpt lat="49.842658" lon="9.5069167">
				<ele>427.2</ele>
				<time>2026-08-23T10:25:26.000Z</time>
			</trkpt>
			<trkpt lat="49.8419581" lon="9.5076465">
				<ele>427.8</ele>
				<time>2026-08-23T10:25:29.000Z</time>
			</trkpt>
			<trkpt lat="49.8415049" lon="9.5081777">
				<ele>427.7</ele>
				<time>2026-08-23T10:25:31.000Z</time>
			</trkpt>
			<trkpt lat="49.8408276" lon="9.5089856">
				<ele>427.1</ele>
				<time>2026-08-23T10:25:34.000Z</time>
			</trkpt>
			<trkpt lat="49.8401746" lon="9.5098242">
				<ele>427.6</ele>
				<time>2026-08-23T10:25:37.000Z</time>
			</trkpt>
			<trkpt lat="49.8395438" lon="9.5107051">
				<ele>427.4</ele>
				<time>2026-08-23T10:25:40.000Z</time>
			</trkpt>
			<trkpt lat="49.8389312" lon="9.5116183">
				<ele>427.3</ele>
				<time>2026-08-23T10:25:43.000Z</time>
			</trkpt>
			<trkpt lat="49.8383374" lon="9.5125777">
				<ele>427.5</ele>
				<time>2026-08-23T10:25:46.000Z</time>
			</trkpt>
			<trkpt lat="49.8377693" lon="9.5135833">
				<ele>426.6</ele>
				<time>2026-08-23T10:25:49.000Z</time>
			</trkpt>
			<trkpt lat="49.837215" lon="9.5146277">
				<ele>425.6</ele>
				<time>2026-08-23T10:25:52.000Z</time>
			</trkpt>
			<trkpt lat="49.8366943" lon="9.5156874">
				<ele>425.6</ele>
				<time>2026-08-23T10:25:55.000Z</time>
			</trkpt>
			<trkpt lat="49.8363562" lon="9.5164197">
				<ele>425.1</ele>
				<time>2026-08-23T10:25:57.000Z</time>
			</trkpt>
			<trkpt lat="49.835881" lon="9.5175344">
				<ele>424.6</ele>
				<time>2026-08-23T10:26:00.000Z</time>
			</trkpt>
			<trkpt lat="49.8355877" lon="9.5182832">
				<ele>424.7</ele>
				<time>2026-08-23T10:26:02.000Z</time>
			</trkpt>
			<trkpt lat="49.835163" lon="9.5194195">
				<ele>422.4</ele>
				<time>2026-08-23T10:26:05.000Z</time>
			</trkpt>
			<trkpt lat="49.8348961" lon="9.520189">
				<ele>421.3</ele>
				<time>2026-08-23T10:26:07.000Z</time>
			</trkpt>
			<trkpt lat="49.8345166" lon="9.5213554">
				<ele>419.2</ele>
				<time>2026-08-23T10:26:10.000Z</time>
			</trkpt>
			<trkpt lat="49.8342637" lon="9.5221559">
				<ele>418</ele>
				<time>2026-08-23T10:26:12.000Z</time>
			</trkpt>
			<trkpt lat="49.8338937" lon="9.5233646">
				<ele>416</ele>
				<time>2026-08-23T10:26:15.000Z</time>
			</trkpt>
			<trkpt lat="49.833652" lon="9.5241594">
				<ele>413.8</ele>
				<time>2026-08-23T10:26:17.000Z</time>
			</trkpt>
			<trkpt lat="49.8334018" lon="9.5249475">
				<ele>411.9</ele>
				<time>2026-08-23T10:26:19.000Z</time>
			</trkpt>
			<trkpt lat="49.8330184" lon="9.5261407">
				<ele>408.7</ele>
				<time>2026-08-23T10:26:22.000Z</time>
			</trkpt>
			<trkpt lat="49.8326049" lon="9.5273116">
				<ele>405</ele>
				<time>2026-08-23T10:26:25.000Z</time>
			</trkpt>
			<trkpt lat="49.8321606" lon="9.5284499">
				<ele>402</ele>
				<time>2026-08-23T10:26:28.000Z</time>
			</trkpt>
			<trkpt lat="49.8318397" lon="9.5292114">
				<ele>399.5</ele>
				<time>2026-08-23T10:26:30.000Z</time>
			</trkpt>
			<trkpt lat="49.8313128" lon="9.5303212">
				<ele>396</ele>
				<time>2026-08-23T10:26:33.000Z</time>
			</trkpt>
			<trkpt lat="49.8309441" lon="9.5310356">
				<ele>393.8</ele>
				<time>2026-08-23T10:26:35.000Z</time>
			</trkpt>
			<trkpt lat="49.8305605" lon="9.5317392">
				<ele>391</ele>
				<time>2026-08-23T10:26:37.000Z</time>
			</trkpt>
			<trkpt lat="49.8299626" lon="9.5327706">
				<ele>387</ele>
				<time>2026-08-23T10:26:40.000Z</time>
			</trkpt>
			<trkpt lat="49.8293245" lon="9.5337468">
				<ele>383.3</ele>
				<time>2026-08-23T10:26:43.000Z</time>
			</trkpt>
			<trkpt lat="49.8288893" lon="9.5343492">
				<ele>380.5</ele>
				<time>2026-08-23T10:26:45.000Z</time>
			</trkpt>
			<trkpt lat="49.828446" lon="9.5349378">
				<ele>377.8</ele>
				<time>2026-08-23T10:26:47.000Z</time>
			</trkpt>
			<trkpt lat="49.827755" lon="9.535788">
				<ele>373.7</ele>
				<time>2026-08-23T10:26:50.000Z</time>
			</trkpt>
			<trkpt lat="49.8270502" lon="9.5366304">
				<ele>369.2</ele>
				<time>2026-08-23T10:26:53.000Z</time>
			</trkpt>
			<trkpt lat="49.826576" lon="9.5371898">
				<ele>367</ele>
				<time>2026-08-23T10:26:55.000Z</time>
			</trkpt>
			<trkpt lat="49.8258617" lon="9.5380357">
				<ele>363.9</ele>
				<time>2026-08-23T10:26:58.000Z</time>
			</trkpt>
			<trkpt lat="49.8253855" lon="9.538624">
				<ele>361.2</ele>
				<time>2026-08-23T10:27:00.000Z</time>
			</trkpt>
			<trkpt lat="49.8246969" lon="9.539531">
				<ele>357.8</ele>
				<time>2026-08-23T10:27:03.000Z</time>
			</trkpt>
			<trkpt lat="49.8242554" lon="9.5401556">
				<ele>355.3</ele>
				<time>2026-08-23T10:27:05.000Z</time>
			</trkpt>
			<trkpt lat="49.8238261" lon="9.540821">
				<ele>352.5</ele>
				<time>2026-08-23T10:27:07.000Z</time>
			</trkpt>
			<trkpt lat="49.823411" lon="9.5415004">
				<ele>350.3</ele>
				<time>2026-08-23T10:27:09.000Z</time>
			</trkpt>
			<trkpt lat="49.8228157" lon="9.54256">
				<ele>347.2</ele>
				<time>2026-08-23T10:27:12.000Z</time>
			</trkpt>
			<trkpt lat="49.8222616" lon="9.5436605">
				<ele>343.8</ele>
				<time>2026-08-23T10:27:15.000Z</time>
			</trkpt>
			<trkpt lat="49.8219149" lon="9.54441">
				<ele>341.5</ele>
				<time>2026-08-23T10:27:17.000Z</time>
			</trkpt>
			<trkpt lat="49.8214179" lon="9.5455636">
				<ele>337.8</ele>
				<time>2026-08-23T10:27:20.000Z</time>
			</trkpt>
			<trkpt lat="49.8209622" lon="9.5467531">
				<ele>334.8</ele>
				<time>2026-08-23T10:27:23.000Z</time>
			</trkpt>
			<trkpt lat="49.8205422" lon="9.5479776">
				<ele>331.8</ele>
				<time>2026-08-23T10:27:26.000Z</time>
			</trkpt>
			<trkpt lat="49.8201611" lon="9.5492432">
				<ele>329</ele>
				<time>2026-08-23T10:27:29.000Z</time>
			</trkpt>
			<trkpt lat="49.8199375" lon="9.5500973">
				<ele>326.7</ele>
				<time>2026-08-23T10:27:31.000Z</time>
			</trkpt>
			<trkpt lat="49.8196124" lon="9.5514063">
				<ele>325</ele>
				<time>2026-08-23T10:27:34.000Z</time>
			</trkpt>
			<trkpt lat="49.8194112" lon="9.5522639">
				<ele>323.4</ele>
				<time>2026-08-23T10:27:36.000Z</time>
			</trkpt>
			<trkpt lat="49.819111" lon="9.5535467">
				<ele>321</ele>
				<time>2026-08-23T10:27:39.000Z</time>
			</trkpt>
			<trkpt lat="49.8189114" lon="9.5543797">
				<ele>317.8</ele>
				<time>2026-08-23T10:27:41.000Z</time>
			</trkpt>
			<trkpt lat="49.8186042" lon="9.5556342">
				<ele>315</ele>
				<time>2026-08-23T10:27:44.000Z</time>
			</trkpt>
			<trkpt lat="49.8182989" lon="9.5568778">
				<ele>313</ele>
				<time>2026-08-23T10:27:47.000Z</time>
			</trkpt>
			<trkpt lat="49.8179735" lon="9.5580902">
				<ele>309.4</ele>
				<time>2026-08-23T10:27:50.000Z</time>
			</trkpt>
			<trkpt lat="49.8176407" lon="9.5592878">
				<ele>308</ele>
				<time>2026-08-23T10:27:53.000Z</time>
			</trkpt>
			<trkpt lat="49.817291" lon="9.5604978">
				<ele>307.6</ele>
				<time>2026-08-23T10:27:56.000Z</time>
			</trkpt>
			<trkpt lat="49.8170449" lon="9.5612983">
				<ele>306.7</ele>
				<time>2026-08-23T10:27:58.000Z</time>
			</trkpt>
			<trkpt lat="49.816661" lon="9.5624919">
				<ele>304</ele>
				<time>2026-08-23T10:28:01.000Z</time>
			</trkpt>
			<trkpt lat="49.816281" lon="9.5636537">
				<ele>300.2</ele>
				<time>2026-08-23T10:28:04.000Z</time>
			</trkpt>
			<trkpt lat="49.8158671" lon="9.5648303">
				<ele>298.4</ele>
				<time>2026-08-23T10:28:07.000Z</time>
			</trkpt>
			<trkpt lat="49.8154578" lon="9.566016">
				<ele>297</ele>
				<time>2026-08-23T10:28:10.000Z</time>
			</trkpt>
			<trkpt lat="49.815042" lon="9.5671895">
				<ele>293.9</ele>
				<time>2026-08-23T10:28:13.000Z</time>
			</trkpt>
			<trkpt lat="49.814595" lon="9.5683443">
				<ele>291.7</ele>
				<time>2026-08-23T10:28:16.000Z</time>
			</trkpt>
			<trkpt lat="49.8141292" lon="9.5695054">
				<ele>290.1</ele>
				<time>2026-08-23T10:28:19.000Z</time>
			</trkpt>
			<trkpt lat="49.8136609" lon="9.5706386">
				<ele>288.3</ele>
				<time>2026-08-23T10:28:22.000Z</time>
			</trkpt>
			<trkpt lat="49.8131798" lon="9.5717509">
				<ele>285.8</ele>
				<time>2026-08-23T10:28:25.000Z</time>
			</trkpt>
			<trkpt lat="49.8126844" lon="9.5728358">
				<ele>282.8</ele>
				<time>2026-08-23T10:28:28.000Z</time>
			</trkpt>
			<trkpt lat="49.8123462" lon="9.5735474">
				<ele>280.6</ele>
				<time>2026-08-23T10:28:30.000Z</time>
			</trkpt>
			<trkpt lat="49.812011" lon="9.5742457">
				<ele>279.7</ele>
				<time>2026-08-23T10:28:32.000Z</time>
			</trkpt>
			<trkpt lat="49.8114858" lon="9.5752998">
				<ele>277.8</ele>
				<time>2026-08-23T10:28:35.000Z</time>
			</trkpt>
			<trkpt lat="49.8111312" lon="9.5760192">
				<ele>276.5</ele>
				<time>2026-08-23T10:28:37.000Z</time>
			</trkpt>
			<trkpt lat="49.8105803" lon="9.577077">
				<ele>275.4</ele>
				<time>2026-08-23T10:28:40.000Z</time>
			</trkpt>
			<trkpt lat="49.8100244" lon="9.5781522">
				<ele>275.6</ele>
				<time>2026-08-23T10:28:43.000Z</time>
			</trkpt>
			<trkpt lat="49.8096438" lon="9.5788518">
				<ele>275</ele>
				<time>2026-08-23T10:28:45.000Z</time>
			</trkpt>
			<trkpt lat="49.8090627" lon="9.5798864">
				<ele>273.6</ele>
				<time>2026-08-23T10:28:48.000Z</time>
			</trkpt>
			<trkpt lat="49.808446" lon="9.5809097">
				<ele>273.1</ele>
				<time>2026-08-23T10:28:51.000Z</time>
			</trkpt>
			<trkpt lat="49.8080222" lon="9.5815636">
				<ele>272.9</ele>
				<time>2026-08-23T10:28:53.000Z</time>
			</trkpt>
			<trkpt lat="49.8073759" lon="9.5824962">
				<ele>273.1</ele>
				<time>2026-08-23T10:28:56.000Z</time>
			</trkpt>
			<trkpt lat="49.8069288" lon="9.5831015">
				<ele>272.6</ele>
				<time>2026-08-23T10:28:58.000Z</time>
			</trkpt>
			<trkpt lat="49.806221" lon="9.5839728">
				<ele>272.8</ele>
				<time>2026-08-23T10:29:01.000Z</time>
			</trkpt>
			<trkpt lat="49.8054782" lon="9.5847657">
				<ele>272.9</ele>
				<time>2026-08-23T10:29:04.000Z</time>
			</trkpt>
			<trkpt lat="49.8047047" lon="9.5854863">
				<ele>272.1</ele>
				<time>2026-08-23T10:29:07.000Z</time>
			</trkpt>
			<trkpt lat="49.8041852" lon="9.5859162">
				<ele>271.4</ele>
				<time>2026-08-23T10:29:09.000Z</time>
			</trkpt>
			<trkpt lat="49.8033666" lon="9.5864898">
				<ele>270.2</ele>
				<time>2026-08-23T10:29:12.000Z</time>
			</trkpt>
			<trkpt lat="49.8025316" lon="9.5869386">
				<ele>268.5</ele>
				<time>2026-08-23T10:29:15.000Z</time>
			</trkpt>
			<trkpt lat="49.8019496" lon="9.587169">
				<ele>268.7</ele>
				<time>2026-08-23T10:29:17.000Z</time>
			</trkpt>
			<trkpt lat="49.8010752" lon="9.5873981">
				<ele>265.8</ele>
				<time>2026-08-23T10:29:20.000Z</time>
			</trkpt>
			<trkpt lat="49.8002077" lon="9.5874868">
				<ele>264.3</ele>
				<time>2026-08-23T10:29:23.000Z</time>
			</trkpt>
			<trkpt lat="49.7993194" lon="9.587457">
				<ele>260.4</ele>
				<time>2026-08-23T10:29:26.000Z</time>
			</trkpt>
			<trkpt lat="49.7987296" lon="9.5873509">
				<ele>259</ele>
				<time>2026-08-23T10:29:28.000Z</time>
			</trkpt>
			<trkpt lat="49.7981384" lon="9.5871967">
				<ele>258</ele>
				<time>2026-08-23T10:29:30.000Z</time>
			</trkpt>
			<trkpt lat="49.7972655" lon="9.586823">
				<ele>257.1</ele>
				<time>2026-08-23T10:29:33.000Z</time>
			</trkpt>
			<trkpt lat="49.7964168" lon="9.586333">
				<ele>254.8</ele>
				<time>2026-08-23T10:29:36.000Z</time>
			</trkpt>
			<trkpt lat="49.7958708" lon="9.5859328">
				<ele>252.7</ele>
				<time>2026-08-23T10:29:38.000Z</time>
			</trkpt>
			<trkpt lat="49.7950908" lon="9.5852307">
				<ele>250.8</ele>
				<time>2026-08-23T10:29:41.000Z</time>
			</trkpt>
			<trkpt lat="49.7943724" lon="9.5844015">
				<ele>247.6</ele>
				<time>2026-08-23T10:29:44.000Z</time>
			</trkpt>
			<trkpt lat="49.7937082" lon="9.5834703">
				<ele>245.6</ele>
				<time>2026-08-23T10:29:47.000Z</time>
			</trkpt>
			<trkpt lat="49.7930944" lon="9.5824559">
				<ele>244.1</ele>
				<time>2026-08-23T10:29:50.000Z</time>
			</trkpt>
			<trkpt lat="49.7927315" lon="9.5817415">
				<ele>243.7</ele>
				<time>2026-08-23T10:29:52.000Z</time>
			</trkpt>
			<trkpt lat="49.7922242" lon="9.5806767">
				<ele>241.1</ele>
				<time>2026-08-23T10:29:55.000Z</time>
			</trkpt>
			<trkpt lat="49.7918851" lon="9.579991">
				<ele>239.4</ele>
				<time>2026-08-23T10:29:57.000Z</time>
			</trkpt>
			<trkpt lat="49.7913588" lon="9.5789192">
				<ele>238.1</ele>
				<time>2026-08-23T10:30:00.000Z</time>
			</trkpt>
			<trkpt lat="49.7907765" lon="9.5779005">
				<ele>237.1</ele>
				<time>2026-08-23T10:30:03.000Z</time>
			</trkpt>
			<trkpt lat="49.7901614" lon="9.5769284">
				<ele>235</ele>
				<time>2026-08-23T10:30:06.000Z</time>
			</trkpt>
			<trkpt lat="49.7895062" lon="9.5760032">
				<ele>230.7</ele>
				<time>2026-08-23T10:30:09.000Z</time>
			</trkpt>
			<trkpt lat="49.78904" lon="9.5754083">
				<ele>227.6</ele>
				<time>2026-08-23T10:30:11.000Z</time>
			</trkpt>
			<trkpt lat="49.7882901" lon="9.574591">
				<ele>224.3</ele>
				<time>2026-08-23T10:30:14.000Z</time>
			</trkpt>
			<trkpt lat="49.7875004" lon="9.5738573">
				<ele>220.6</ele>
				<time>2026-08-23T10:30:17.000Z</time>
			</trkpt>
			<trkpt lat="49.7869576" lon="9.5734273">
				<ele>218.4</ele>
				<time>2026-08-23T10:30:19.000Z</time>
			</trkpt>
			<trkpt lat="49.7864099" lon="9.573021">
				<ele>216.4</ele>
				<time>2026-08-23T10:30:21.000Z</time>
			</trkpt>
			<trkpt lat="49.7855718" lon="9.5724926">
				<ele>214.1</ele>
				<time>2026-08-23T10:30:24.000Z</time>
			</trkpt>
			<trkpt lat="49.7847081" lon="9.5720579">
				<ele>213.5</ele>
				<time>2026-08-23T10:30:27.000Z</time>
			</trkpt>
			<trkpt lat="49.7838495" lon="9.5717605">
				<ele>211.9</ele>
				<time>2026-08-23T10:30:30.000Z</time>
			</trkpt>
			<trkpt lat="49.7832663" lon="9.5715972">
				<ele>211.2</ele>
				<time>2026-08-23T10:30:32.000Z</time>
			</trkpt>
			<trkpt lat="49.7823841" lon="9.5714275">
				<ele>213.2</ele>
				<time>2026-08-23T10:30:35.000Z</time>
			</trkpt>
			<trkpt lat="49.7815112" lon="9.5713765">
				<ele>213.1</ele>
				<time>2026-08-23T10:30:38.000Z</time>
			</trkpt>
			<trkpt lat="49.7806312" lon="9.571396">
				<ele>214.7</ele>
				<time>2026-08-23T10:30:41.000Z</time>
			</trkpt>
			<trkpt lat="49.7800494" lon="9.5714768">
				<ele>215.6</ele>
				<time>2026-08-23T10:30:43.000Z</time>
			</trkpt>
			<trkpt lat="49.7791982" lon="9.5716773">
				<ele>215.9</ele>
				<time>2026-08-23T10:30:46.000Z</time>
			</trkpt>
			<trkpt lat="49.7786312" lon="9.5718663">
				<ele>216.7</ele>
				<time>2026-08-23T10:30:48.000Z</time>
			</trkpt>
			<trkpt lat="49.7778059" lon="9.5722268">
				<ele>216.7</ele>
				<time>2026-08-23T10:30:51.000Z</time>
			</trkpt>
			<trkpt lat="49.7772626" lon="9.5725031">
				<ele>217.9</ele>
				<time>2026-08-23T10:30:53.000Z</time>
			</trkpt>
			<trkpt lat="49.7767343" lon="9.5728198">
				<ele>217.6</ele>
				<time>2026-08-23T10:30:55.000Z</time>
			</trkpt>
			<trkpt lat="49.7759474" lon="9.57335">
				<ele>219.9</ele>
				<time>2026-08-23T10:30:58.000Z</time>
			</trkpt>
			<trkpt lat="49.7751813" lon="9.5739598">
				<ele>221.2</ele>
				<time>2026-08-23T10:31:01.000Z</time>
			</trkpt>
			<trkpt lat="49.7744555" lon="9.5746381">
				<ele>221.5</ele>
				<time>2026-08-23T10:31:04.000Z</time>
			</trkpt>
			<trkpt lat="49.7740006" lon="9.5751277">
				<ele>221.6</ele>
				<time>2026-08-23T10:31:06.000Z</time>
			</trkpt>
			<trkpt lat="49.7733553" lon="9.5759124">
				<ele>221.3</ele>
				<time>2026-08-23T10:31:09.000Z</time>
			</trkpt>
			<trkpt lat="49.7729329" lon="9.5764654">
				<ele>220.9</ele>
				<time>2026-08-23T10:31:11.000Z</time>
			</trkpt>
			<trkpt lat="49.7723301" lon="9.5773533">
				<ele>220.5</ele>
				<time>2026-08-23T10:31:14.000Z</time>
			</trkpt>
			<trkpt lat="49.7717573" lon="9.5782945">
				<ele>219.1</ele>
				<time>2026-08-23T10:31:17.000Z</time>
			</trkpt>
			<trkpt lat="49.7712419" lon="9.5793152">
				<ele>217.5</ele>
				<time>2026-08-23T10:31:20.000Z</time>
			</trkpt>
			<trkpt lat="49.7707499" lon="9.5804004">
				<ele>214.4</ele>
				<time>2026-08-23T10:31:23.000Z</time>
			</trkpt>
			<trkpt lat="49.7703134" lon="9.5815429">
				<ele>212.2</ele>
				<time>2026-08-23T10:31:26.000Z</time>
			</trkpt>
			<trkpt lat="49.7700511" lon="9.5823331">
				<ele>211</ele>
				<time>2026-08-23T10:31:28.000Z</time>
			</trkpt>
			<trkpt lat="49.7698093" lon="9.5831589">
				<ele>211.3</ele>
				<time>2026-08-23T10:31:30.000Z</time>
			</trkpt>
			<trkpt lat="49.7694974" lon="9.584409">
				<ele>209.1</ele>
				<time>2026-08-23T10:31:33.000Z</time>
			</trkpt>
			<trkpt lat="49.7693074" lon="9.5852542">
				<ele>209</ele>
				<time>2026-08-23T10:31:35.000Z</time>
			</trkpt>
			<trkpt lat="49.7690826" lon="9.5865286">
				<ele>209.6</ele>
				<time>2026-08-23T10:31:38.000Z</time>
			</trkpt>
			<trkpt lat="49.7688985" lon="9.5878074">
				<ele>211</ele>
				<time>2026-08-23T10:31:41.000Z</time>
			</trkpt>
			<trkpt lat="49.7687546" lon="9.589096">
				<ele>212.2</ele>
				<time>2026-08-23T10:31:44.000Z</time>
			</trkpt>
			<trkpt lat="49.7686192" lon="9.5903642">
				<ele>213.6</ele>
				<time>2026-08-23T10:31:47.000Z</time>
			</trkpt>
			<trkpt lat="49.7684586" lon="9.5916205">
				<ele>215.8</ele>
				<time>2026-08-23T10:31:50.000Z</time>
			</trkpt>
			<trkpt lat="49.7682753" lon="9.5928563">
				<ele>216.9</ele>
				<time>2026-08-23T10:31:53.000Z</time>
			</trkpt>
			<trkpt lat="49.7680305" lon="9.5940567">
				<ele>218.2</ele>
				<time>2026-08-23T10:31:56.000Z</time>
			</trkpt>
			<trkpt lat="49.7677492" lon="9.5952332">
				<ele>219.7</ele>
				<time>2026-08-23T10:31:59.000Z</time>
			</trkpt>
			<trkpt lat="49.7675266" lon="9.5959748">
				<ele>218.6</ele>
				<time>2026-08-23T10:32:01.000Z</time>
			</trkpt>
			<trkpt lat="49.7671598" lon="9.5970926">
				<ele>221</ele>
				<time>2026-08-23T10:32:04.000Z</time>
			</trkpt>
			<trkpt lat="49.7669066" lon="9.5978209">
				<ele>222</ele>
				<time>2026-08-23T10:32:06.000Z</time>
			</trkpt>
			<trkpt lat="49.7665026" lon="9.5988912">
				<ele>222.7</ele>
				<time>2026-08-23T10:32:09.000Z</time>
			</trkpt>
			<trkpt lat="49.7662223" lon="9.5995974">
				<ele>223.8</ele>
				<time>2026-08-23T10:32:11.000Z</time>
			</trkpt>
			<trkpt lat="49.765949" lon="9.6003116">
				<ele>223.6</ele>
				<time>2026-08-23T10:32:13.000Z</time>
			</trkpt>
			<trkpt lat="49.765573" lon="9.6014097">
				<ele>224.2</ele>
				<time>2026-08-23T10:32:16.000Z</time>
			</trkpt>
			<trkpt lat="49.7652313" lon="9.6025432">
				<ele>223.9</ele>
				<time>2026-08-23T10:32:19.000Z</time>
			</trkpt>
			<trkpt lat="49.765013" lon="9.6033153">
				<ele>225</ele>
				<time>2026-08-23T10:32:21.000Z</time>
			</trkpt>
			<trkpt lat="49.7647454" lon="9.6044842">
				<ele>226</ele>
				<time>2026-08-23T10:32:24.000Z</time>
			</trkpt>
			<trkpt lat="49.7645043" lon="9.6056812">
				<ele>228</ele>
				<time>2026-08-23T10:32:27.000Z</time>
			</trkpt>
			<trkpt lat="49.7642932" lon="9.6068902">
				<ele>228.8</ele>
				<time>2026-08-23T10:32:30.000Z</time>
			</trkpt>
			<trkpt lat="49.7641285" lon="9.6081014">
				<ele>231.2</ele>
				<time>2026-08-23T10:32:33.000Z</time>
			</trkpt>
			<trkpt lat="49.7640447" lon="9.6089398">
				<ele>233.8</ele>
				<time>2026-08-23T10:32:35.000Z</time>
			</trkpt>
			<trkpt lat="49.7639731" lon="9.609775">
				<ele>235.6</ele>
				<time>2026-08-23T10:32:37.000Z</time>
			</trkpt>
			<trkpt lat="49.7638928" lon="9.611026">
				<ele>236.8</ele>
				<time>2026-08-23T10:32:40.000Z</time>
			</trkpt>
			<trkpt lat="49.763857" lon="9.611866">
				<ele>238.5</ele>
				<time>2026-08-23T10:32:42.000Z</time>
			</trkpt>
			<trkpt lat="49.7638245" lon="9.6131202">
				<ele>240.9</ele>
				<time>2026-08-23T10:32:45.000Z</time>
			</trkpt>
			<trkpt lat="49.7637992" lon="9.6139408">
				<ele>241.9</ele>
				<time>2026-08-23T10:32:47.000Z</time>
			</trkpt>
			<trkpt lat="49.7637423" lon="9.6151823">
				<ele>243.4</ele>
				<time>2026-08-23T10:32:50.000Z</time>
			</trkpt>
			<trkpt lat="49.7636655" lon="9.6164213">
				<ele>246</ele>
				<time>2026-08-23T10:32:53.000Z</time>
			</trkpt>
			<trkpt lat="49.7636163" lon="9.6172498">
				<ele>247.8</ele>
				<time>2026-08-23T10:32:55.000Z</time>
			</trkpt>
			<trkpt lat="49.7635597" lon="9.6180666">
				<ele>249.9</ele>
				<time>2026-08-23T10:32:57.000Z</time>
			</trkpt>
			<trkpt lat="49.763454" lon="9.619273">
				<ele>253.2</ele>
				<time>2026-08-23T10:33:00.000Z</time>
			</trkpt>
			<trkpt lat="49.7633258" lon="9.6204649">
				<ele>255.7</ele>
				<time>2026-08-23T10:33:03.000Z</time>
			</trkpt>
			<trkpt lat="49.7631712" lon="9.6216386">
				<ele>257.3</ele>
				<time>2026-08-23T10:33:06.000Z</time>
			</trkpt>
			<trkpt lat="49.7629953" lon="9.6228197">
				<ele>260.4</ele>
				<time>2026-08-23T10:33:09.000Z</time>
			</trkpt>
			<trkpt lat="49.7628775" lon="9.6236243">
				<ele>262.7</ele>
				<time>2026-08-23T10:33:11.000Z</time>
			</trkpt>
			<trkpt lat="49.7626943" lon="9.6248236">
				<ele>265.6</ele>
				<time>2026-08-23T10:33:14.000Z</time>
			</trkpt>
			<trkpt lat="49.7625154" lon="9.626045">
				<ele>269</ele>
				<time>2026-08-23T10:33:17.000Z</time>
			</trkpt>
			<trkpt lat="49.7624007" lon="9.6268734">
				<ele>271.5</ele>
				<time>2026-08-23T10:33:19.000Z</time>
			</trkpt>
			<trkpt lat="49.7622418" lon="9.6281239">
				<ele>275.4</ele>
				<time>2026-08-23T10:33:22.000Z</time>
			</trkpt>
			<trkpt lat="49.7621537" lon="9.6289629">
				<ele>277.5</ele>
				<time>2026-08-23T10:33:24.000Z</time>
			</trkpt>
			<trkpt lat="49.7620322" lon="9.6302298">
				<ele>280.8</ele>
				<time>2026-08-23T10:33:27.000Z</time>
			</trkpt>
			<trkpt lat="49.7619375" lon="9.6314985">
				<ele>284.7</ele>
				<time>2026-08-23T10:33:30.000Z</time>
			</trkpt>
			<trkpt lat="49.7618709" lon="9.6327732">
				<ele>289.1</ele>
				<time>2026-08-23T10:33:33.000Z</time>
			</trkpt>
			<trkpt lat="49.76183" lon="9.6340584">
				<ele>292.7</ele>
				<time>2026-08-23T10:33:36.000Z</time>
			</trkpt>
			<trkpt lat="49.7618178" lon="9.6349008">
				<ele>295</ele>
				<time>2026-08-23T10:33:38.000Z</time>
			</trkpt>
			<trkpt lat="49.7618095" lon="9.636167">
				<ele>298.8</ele>
				<time>2026-08-23T10:33:41.000Z</time>
			</trkpt>
			<trkpt lat="49.7618279" lon="9.6374108">
				<ele>302.4</ele>
				<time>2026-08-23T10:33:44.000Z</time>
			</trkpt>
			<trkpt lat="49.7618757" lon="9.6386323">
				<ele>305.2</ele>
				<time>2026-08-23T10:33:47.000Z</time>
			</trkpt>
			<trkpt lat="49.7619527" lon="9.6398427">
				<ele>308.2</ele>
				<time>2026-08-23T10:33:50.000Z</time>
			</trkpt>
			<trkpt lat="49.7620617" lon="9.6410313">
				<ele>311.8</ele>
				<time>2026-08-23T10:33:53.000Z</time>
			</trkpt>
			<trkpt lat="49.762157" lon="9.6418188">
				<ele>313</ele>
				<time>2026-08-23T10:33:55.000Z</time>
			</trkpt>
			<trkpt lat="49.7622644" lon="9.6425973">
				<ele>314.8</ele>
				<time>2026-08-23T10:33:57.000Z</time>
			</trkpt>
			<trkpt lat="49.7624618" lon="9.6437593">
				<ele>318.1</ele>
				<time>2026-08-23T10:34:00.000Z</time>
			</trkpt>
			<trkpt lat="49.762713" lon="9.6449205">
				<ele>321.4</ele>
				<time>2026-08-23T10:34:03.000Z</time>
			</trkpt>
			<trkpt lat="49.7629996" lon="9.6460571">
				<ele>324.4</ele>
				<time>2026-08-23T10:34:06.000Z</time>
			</trkpt>
			<trkpt lat="49.7633214" lon="9.6471683">
				<ele>327.5</ele>
				<time>2026-08-23T10:34:09.000Z</time>
			</trkpt>
			<trkpt lat="49.763664" lon="9.6482551">
				<ele>330.6</ele>
				<time>2026-08-23T10:34:12.000Z</time>
			</trkpt>
			<trkpt lat="49.7640087" lon="9.6493507">
				<ele>334.1</ele>
				<time>2026-08-23T10:34:15.000Z</time>
			</trkpt>
			<trkpt lat="49.7643428" lon="9.6504218">
				<ele>337.4</ele>
				<time>2026-08-23T10:34:18.000Z</time>
			</trkpt>
			<trkpt lat="49.7646576" lon="9.651499">
				<ele>340.4</ele>
				<time>2026-08-23T10:34:21.000Z</time>
			</trkpt>
			<trkpt lat="49.7649865" lon="9.6525754">
				<ele>344.1</ele>
				<time>2026-08-23T10:34:24.000Z</time>
			</trkpt>
			<trkpt lat="49.7652883" lon="9.6536823">
				<ele>348.1</ele>
				<time>2026-08-23T10:34:27.000Z</time>
			</trkpt>
			<trkpt lat="49.7654779" lon="9.6544436">
				<ele>350.1</ele>
				<time>2026-08-23T10:34:29.000Z</time>
			</trkpt>
			<trkpt lat="49.7657369" lon="9.6555837">
				<ele>352.9</ele>
				<time>2026-08-23T10:34:32.000Z</time>
			</trkpt>
			<trkpt lat="49.7659735" lon="9.6567324">
				<ele>356</ele>
				<time>2026-08-23T10:34:35.000Z</time>
			</trkpt>
			<trkpt lat="49.7662001" lon="9.6578972">
				<ele>358.2</ele>
				<time>2026-08-23T10:34:38.000Z</time>
			</trkpt>
			<trkpt lat="49.7663457" lon="9.6586842">
				<ele>359.4</ele>
				<time>2026-08-23T10:34:40.000Z</time>
			</trkpt>
			<trkpt lat="49.7665566" lon="9.6598932">
				<ele>360.9</ele>
				<time>2026-08-23T10:34:43.000Z</time>
			</trkpt>
			<trkpt lat="49.7667456" lon="9.6611224">
				<ele>361.2</ele>
				<time>2026-08-23T10:34:46.000Z</time>
			</trkpt>
			<trkpt lat="49.7669275" lon="9.6623734">
				<ele>362.1</ele>
				<time>2026-08-23T10:34:49.000Z</time>
			</trkpt>
			<trkpt lat="49.7670305" lon="9.6632078">
				<ele>361.8</ele>
				<time>2026-08-23T10:34:51.000Z</time>
			</trkpt>
			<trkpt lat="49.7671369" lon="9.66406">
				<ele>361.8</ele>
				<time>2026-08-23T10:34:53.000Z</time>
			</trkpt>
			<trkpt lat="49.767281" lon="9.6653463">
				<ele>361.9</ele>
				<time>2026-08-23T10:34:56.000Z</time>
			</trkpt>
			<trkpt lat="49.767376" lon="9.6662109">
				<ele>361.4</ele>
				<time>2026-08-23T10:34:58.000Z</time>
			</trkpt>
			<trkpt lat="49.7674768" lon="9.6675263">
				<ele>360.2</ele>
				<time>2026-08-23T10:35:01.000Z</time>
			</trkpt>
			<trkpt lat="49.7675447" lon="9.6684103">
				<ele>360.3</ele>
				<time>2026-08-23T10:35:03.000Z</time>
			</trkpt>
			<trkpt lat="49.7676219" lon="9.669749">
				<ele>359.5</ele>
				<time>2026-08-23T10:35:06.000Z</time>
			</trkpt>
			<trkpt lat="49.767661" lon="9.6706528">
				<ele>358.8</ele>
				<time>2026-08-23T10:35:08.000Z</time>
			</trkpt>
			<trkpt lat="49.7677023" lon="9.6720088">
				<ele>359.1</ele>
				<time>2026-08-23T10:35:11.000Z</time>
			</trkpt>
			<trkpt lat="49.7677199" lon="9.6729174">
				<ele>360.1</ele>
				<time>2026-08-23T10:35:13.000Z</time>
			</trkpt>
			<trkpt lat="49.7677367" lon="9.6742672">
				<ele>361.2</ele>
				<time>2026-08-23T10:35:16.000Z</time>
			</trkpt>
			<trkpt lat="49.7677479" lon="9.6756056">
				<ele>364</ele>
				<time>2026-08-23T10:35:19.000Z</time>
			</trkpt>
			<trkpt lat="49.7677512" lon="9.6769412">
				<ele>365.6</ele>
				<time>2026-08-23T10:35:22.000Z</time>
			</trkpt>
			<trkpt lat="49.7677344" lon="9.6782671">
				<ele>368.3</ele>
				<time>2026-08-23T10:35:25.000Z</time>
			</trkpt>
			<trkpt lat="49.7677332" lon="9.6795824">
				<ele>371.5</ele>
				<time>2026-08-23T10:35:28.000Z</time>
			</trkpt>
			<trkpt lat="49.7677363" lon="9.680441">
				<ele>373.5</ele>
				<time>2026-08-23T10:35:30.000Z</time>
			</trkpt>
			<trkpt lat="49.7677425" lon="9.6817247">
				<ele>377.5</ele>
				<time>2026-08-23T10:35:33.000Z</time>
			</trkpt>
			<trkpt lat="49.7677827" lon="9.6829996">
				<ele>380.9</ele>
				<time>2026-08-23T10:35:36.000Z</time>
			</trkpt>
			<trkpt lat="49.7678123" lon="9.6838518">
				<ele>382.4</ele>
				<time>2026-08-23T10:35:38.000Z</time>
			</trkpt>
			<trkpt lat="49.7678731" lon="9.685141">
				<ele>383.9</ele>
				<time>2026-08-23T10:35:41.000Z</time>
			</trkpt>
			<trkpt lat="49.7679297" lon="9.6859976">
				<ele>384.8</ele>
				<time>2026-08-23T10:35:43.000Z</time>
			</trkpt>
			<trkpt lat="49.7680305" lon="9.6872803">
				<ele>385.5</ele>
				<time>2026-08-23T10:35:46.000Z</time>
			</trkpt>
			<trkpt lat="49.7681105" lon="9.6881326">
				<ele>386.5</ele>
				<time>2026-08-23T10:35:48.000Z</time>
			</trkpt>
			<trkpt lat="49.7682649" lon="9.6894137">
				<ele>387.8</ele>
				<time>2026-08-23T10:35:51.000Z</time>
			</trkpt>
			<trkpt lat="49.7684384" lon="9.6907109">
				<ele>388.1</ele>
				<time>2026-08-23T10:35:54.000Z</time>
			</trkpt>
			<trkpt lat="49.7686351" lon="9.6920242">
				<ele>388.8</ele>
				<time>2026-08-23T10:35:57.000Z</time>
			</trkpt>
			<trkpt lat="49.7688602" lon="9.6933034">
				<ele>389.7</ele>
				<time>2026-08-23T10:36:00.000Z</time>
			</trkpt>
			<trkpt lat="49.7691136" lon="9.6945789">
				<ele>392</ele>
				<time>2026-08-23T10:36:03.000Z</time>
			</trkpt>
			<trkpt lat="49.7693025" lon="9.6954242">
				<ele>393.1</ele>
				<time>2026-08-23T10:36:05.000Z</time>
			</trkpt>
			<trkpt lat="49.7695892" lon="9.6966815">
				<ele>395.4</ele>
				<time>2026-08-23T10:36:08.000Z</time>
			</trkpt>
			<trkpt lat="49.7699003" lon="9.6979194">
				<ele>397.2</ele>
				<time>2026-08-23T10:36:11.000Z</time>
			</trkpt>
			<trkpt lat="49.770215" lon="9.6991566">
				<ele>399</ele>
				<time>2026-08-23T10:36:14.000Z</time>
			</trkpt>
			<trkpt lat="49.7704263" lon="9.6999744">
				<ele>400.3</ele>
				<time>2026-08-23T10:36:16.000Z</time>
			</trkpt>
			<trkpt lat="49.7707387" lon="9.7011959">
				<ele>401.5</ele>
				<time>2026-08-23T10:36:19.000Z</time>
			</trkpt>
			<trkpt lat="49.7710393" lon="9.702414">
				<ele>403.6</ele>
				<time>2026-08-23T10:36:22.000Z</time>
			</trkpt>
			<trkpt lat="49.7713303" lon="9.7036286">
				<ele>405.4</ele>
				<time>2026-08-23T10:36:25.000Z</time>
			</trkpt>
			<trkpt lat="49.7716127" lon="9.7048566">
				<ele>406.2</ele>
				<time>2026-08-23T10:36:28.000Z</time>
			</trkpt>
			<trkpt lat="49.771783" lon="9.7056725">
				<ele>407.5</ele>
				<time>2026-08-23T10:36:30.000Z</time>
			</trkpt>
			<trkpt lat="49.7720279" lon="9.7069342">
				<ele>408.8</ele>
				<time>2026-08-23T10:36:33.000Z</time>
			</trkpt>
			<trkpt lat="49.7721793" lon="9.7077736">
				<ele>410.3</ele>
				<time>2026-08-23T10:36:35.000Z</time>
			</trkpt>
			<trkpt lat="49.772399" lon="9.7090497">
				<ele>411.4</ele>
				<time>2026-08-23T10:36:38.000Z</time>
			</trkpt>
			<trkpt lat="49.7726312" lon="9.7103297">
				<ele>412.3</ele>
				<time>2026-08-23T10:36:41.000Z</time>
			</trkpt>
			<trkpt lat="49.7728855" lon="9.7116031">
				<ele>412.6</ele>
				<time>2026-08-23T10:36:44.000Z</time>
			</trkpt>
			<trkpt lat="49.7731671" lon="9.7128767">
				<ele>412.8</ele>
				<time>2026-08-23T10:36:47.000Z</time>
			</trkpt>
			<trkpt lat="49.773478" lon="9.7141447">
				<ele>413.1</ele>
				<time>2026-08-23T10:36:50.000Z</time>
			</trkpt>
			<trkpt lat="49.7738117" lon="9.715388">
				<ele>412.1</ele>
				<time>2026-08-23T10:36:53.000Z</time>
			</trkpt>
			<trkpt lat="49.7740528" lon="9.7162028">
				<ele>411.2</ele>
				<time>2026-08-23T10:36:55.000Z</time>
			</trkpt>
			<trkpt lat="49.7744185" lon="9.7174335">
				<ele>408.9</ele>
				<time>2026-08-23T10:36:58.000Z</time>
			</trkpt>
			<trkpt lat="49.7747685" lon="9.7186613">
				<ele>406.4</ele>
				<time>2026-08-23T10:37:01.000Z</time>
			</trkpt>
			<trkpt lat="49.7749826" lon="9.7194834">
				<ele>404.9</ele>
				<time>2026-08-23T10:37:03.000Z</time>
			</trkpt>
			<trkpt lat="49.7752741" lon="9.7207297">
				<ele>402.4</ele>
				<time>2026-08-23T10:37:06.000Z</time>
			</trkpt>
			<trkpt lat="49.7755202" lon="9.7220045">
				<ele>399.9</ele>
				<time>2026-08-23T10:37:09.000Z</time>
			</trkpt>
			<trkpt lat="49.7757048" lon="9.7232835">
				<ele>397.7</ele>
				<time>2026-08-23T10:37:12.000Z</time>
			</trkpt>
			<trkpt lat="49.7757994" lon="9.7241418">
				<ele>395.7</ele>
				<time>2026-08-23T10:37:14.000Z</time>
			</trkpt>
			<trkpt lat="49.7758763" lon="9.7249724">
				<ele>393.1</ele>
				<time>2026-08-23T10:37:16.000Z</time>
			</trkpt>
			<trkpt lat="49.7759456" lon="9.7262519">
				<ele>390</ele>
				<time>2026-08-23T10:37:19.000Z</time>
			</trkpt>
			<trkpt lat="49.7759624" lon="9.7275506">
				<ele>388.1</ele>
				<time>2026-08-23T10:37:22.000Z</time>
			</trkpt>
			<trkpt lat="49.7759512" lon="9.7284024">
				<ele>387.8</ele>
				<time>2026-08-23T10:37:24.000Z</time>
			</trkpt>
			<trkpt lat="49.7758739" lon="9.7297137">
				<ele>384.7</ele>
				<time>2026-08-23T10:37:27.000Z</time>
			</trkpt>
			<trkpt lat="49.7758008" lon="9.7305636">
				<ele>383.4</ele>
				<time>2026-08-23T10:37:29.000Z</time>
			</trkpt>
			<trkpt lat="49.7757101" lon="9.7314334">
				<ele>383.4</ele>
				<time>2026-08-23T10:37:31.000Z</time>
			</trkpt>
			<trkpt lat="49.7755241" lon="9.7327289">
				<ele>383.3</ele>
				<time>2026-08-23T10:37:34.000Z</time>
			</trkpt>
			<trkpt lat="49.7753702" lon="9.7335644">
				<ele>383.4</ele>
				<time>2026-08-23T10:37:36.000Z</time>
			</trkpt>
			<trkpt lat="49.7750943" lon="9.7348009">
				<ele>384.1</ele>
				<time>2026-08-23T10:37:39.000Z</time>
			</trkpt>
			<trkpt lat="49.7747701" lon="9.7359956">
				<ele>384.1</ele>
				<time>2026-08-23T10:37:42.000Z</time>
			</trkpt>
			<trkpt lat="49.7744065" lon="9.7371569">
				<ele>383.4</ele>
				<time>2026-08-23T10:37:45.000Z</time>
			</trkpt>
			<trkpt lat="49.7740145" lon="9.7383232">
				<ele>384.7</ele>
				<time>2026-08-23T10:37:48.000Z</time>
			</trkpt>
			<trkpt lat="49.7736101" lon="9.7394613">
				<ele>387</ele>
				<time>2026-08-23T10:37:51.000Z</time>
			</trkpt>
			<trkpt lat="49.7733425" lon="9.7402326">
				<ele>387</ele>
				<time>2026-08-23T10:37:53.000Z</time>
			</trkpt>
			<trkpt lat="49.7729658" lon="9.7414105">
				<ele>388.8</ele>
				<time>2026-08-23T10:37:56.000Z</time>
			</trkpt>
			<trkpt lat="49.7726002" lon="9.7425804">
				<ele>386.3</ele>
				<time>2026-08-23T10:37:59.000Z</time>
			</trkpt>
			<trkpt lat="49.7722273" lon="9.7438088">
				<ele>384.2</ele>
				<time>2026-08-23T10:38:02.000Z</time>
			</trkpt>
			<trkpt lat="49.7720018" lon="9.7446512">
				<ele>384.4</ele>
				<time>2026-08-23T10:38:04.000Z</time>
			</trkpt>
			<trkpt lat="49.7716926" lon="9.7459403">
				<ele>383.2</ele>
				<time>2026-08-23T10:38:07.000Z</time>
			</trkpt>
			<trkpt lat="49.7715114" lon="9.7468091">
				<ele>381.8</ele>
				<time>2026-08-23T10:38:09.000Z</time>
			</trkpt>
			<trkpt lat="49.7712648" lon="9.7480918">
				<ele>379.6</ele>
				<time>2026-08-23T10:38:12.000Z</time>
			</trkpt>
			<trkpt lat="49.771039" lon="9.7494125">
				<ele>378.4</ele>
				<time>2026-08-23T10:38:15.000Z</time>
			</trkpt>
			<trkpt lat="49.7709054" lon="9.7502975">
				<ele>377.5</ele>
				<time>2026-08-23T10:38:17.000Z</time>
			</trkpt>
			<trkpt lat="49.7707817" lon="9.7511775">
				<ele>376.7</ele>
				<time>2026-08-23T10:38:19.000Z</time>
			</trkpt>
			<trkpt lat="49.7706751" lon="9.7520514">
				<ele>375.8</ele>
				<time>2026-08-23T10:38:21.000Z</time>
			</trkpt>
			<trkpt lat="49.7705377" lon="9.7533771">
				<ele>373.4</ele>
				<time>2026-08-23T10:38:24.000Z</time>
			</trkpt>
			<trkpt lat="49.7704301" lon="9.7547062">
				<ele>370.4</ele>
				<time>2026-08-23T10:38:27.000Z</time>
			</trkpt>
			<trkpt lat="49.7703689" lon="9.7555966">
				<ele>368.7</ele>
				<time>2026-08-23T10:38:29.000Z</time>
			</trkpt>
			<trkpt lat="49.7703187" lon="9.7564622">
				<ele>365.9</ele>
				<time>2026-08-23T10:38:31.000Z</time>
			</trkpt>
			<trkpt lat="49.7702672" lon="9.7577725">
				<ele>362.5</ele>
				<time>2026-08-23T10:38:34.000Z</time>
			</trkpt>
			<trkpt lat="49.7702486" lon="9.7586338">
				<ele>360.3</ele>
				<time>2026-08-23T10:38:36.000Z</time>
			</trkpt>
			<trkpt lat="49.7702283" lon="9.7599168">
				<ele>356.9</ele>
				<time>2026-08-23T10:38:39.000Z</time>
			</trkpt>
			<trkpt lat="49.7702199" lon="9.7611826">
				<ele>352.8</ele>
				<time>2026-08-23T10:38:42.000Z</time>
			</trkpt>
			<trkpt lat="49.7702107" lon="9.7620214">
				<ele>351</ele>
				<time>2026-08-23T10:38:44.000Z</time>
			</trkpt>
			<trkpt lat="49.7701729" lon="9.7632828">
				<ele>346.2</ele>
				<time>2026-08-23T10:38:47.000Z</time>
			</trkpt>
			<trkpt lat="49.7701271" lon="9.7645536">
				<ele>342.9</ele>
				<time>2026-08-23T10:38:50.000Z</time>
			</trkpt>
			<trkpt lat="49.7700389" lon="9.7658256">
				<ele>339.4</ele>
				<time>2026-08-23T10:38:53.000Z</time>
			</trkpt>
			<trkpt lat="49.7699595" lon="9.7666822">
				<ele>337.2</ele>
				<time>2026-08-23T10:38:55.000Z</time>
			</trkpt>
			<trkpt lat="49.7697885" lon="9.7679478">
				<ele>334</ele>
				<time>2026-08-23T10:38:58.000Z</time>
			</trkpt>
			<trkpt lat="49.7695578" lon="9.7691766">
				<ele>330.5</ele>
				<time>2026-08-23T10:39:01.000Z</time>
			</trkpt>
			<trkpt lat="49.7693642" lon="9.769965">
				<ele>327.6</ele>
				<time>2026-08-23T10:39:03.000Z</time>
			</trkpt>
			<trkpt lat="49.7690215" lon="9.7711058">
				<ele>324.5</ele>
				<time>2026-08-23T10:39:06.000Z</time>
			</trkpt>
			<trkpt lat="49.7686131" lon="9.7722078">
				<ele>321.6</ele>
				<time>2026-08-23T10:39:09.000Z</time>
			</trkpt>
			<trkpt lat="49.7682902" lon="9.7729054">
				<ele>318.1</ele>
				<time>2026-08-23T10:39:11.000Z</time>
			</trkpt>
			<trkpt lat="49.767765" lon="9.7738941">
				<ele>314.4</ele>
				<time>2026-08-23T10:39:14.000Z</time>
			</trkpt>
			<trkpt lat="49.7673936" lon="9.7745273">
				<ele>312</ele>
				<time>2026-08-23T10:39:16.000Z</time>
			</trkpt>
			<trkpt lat="49.766792" lon="9.7754119">
				<ele>309</ele>
				<time>2026-08-23T10:39:19.000Z</time>
			</trkpt>
			<trkpt lat="49.7663734" lon="9.7759735">
				<ele>307.7</ele>
				<time>2026-08-23T10:39:21.000Z</time>
			</trkpt>
			<trkpt lat="49.7657122" lon="9.7767532">
				<ele>305.1</ele>
				<time>2026-08-23T10:39:24.000Z</time>
			</trkpt>
			<trkpt lat="49.7650298" lon="9.777506">
				<ele>303.6</ele>
				<time>2026-08-23T10:39:27.000Z</time>
			</trkpt>
			<trkpt lat="49.7643312" lon="9.7782084">
				<ele>302</ele>
				<time>2026-08-23T10:39:30.000Z</time>
			</trkpt>
			<trkpt lat="49.7636015" lon="9.7788664">
				<ele>300.9</ele>
				<time>2026-08-23T10:39:33.000Z</time>
			</trkpt>
			<trkpt lat="49.7628659" lon="9.7794925">
				<ele>300.8</ele>
				<time>2026-08-23T10:39:36.000Z</time>
			</trkpt>
			<trkpt lat="49.7621201" lon="9.7801071">
				<ele>300.8</ele>
				<time>2026-08-23T10:39:39.000Z</time>
			</trkpt>
			<trkpt lat="49.7616228" lon="9.7805137">
				<ele>301.5</ele>
				<time>2026-08-23T10:39:41.000Z</time>
			</trkpt>
			<trkpt lat="49.7608843" lon="9.7811128">
				<ele>303.2</ele>
				<time>2026-08-23T10:39:44.000Z</time>
			</trkpt>
			<trkpt lat="49.7603978" lon="9.781517">
				<ele>303</ele>
				<time>2026-08-23T10:39:46.000Z</time>
			</trkpt>
			<trkpt lat="49.7596572" lon="9.7821315">
				<ele>303.5</ele>
				<time>2026-08-23T10:39:49.000Z</time>
			</trkpt>
			<trkpt lat="49.7589251" lon="9.7827866">
				<ele>304.3</ele>
				<time>2026-08-23T10:39:52.000Z</time>
			</trkpt>
			<trkpt lat="49.7582083" lon="9.7834776">
				<ele>304.7</ele>
				<time>2026-08-23T10:39:55.000Z</time>
			</trkpt>
			<trkpt lat="49.7574952" lon="9.7841943">
				<ele>304.2</ele>
				<time>2026-08-23T10:39:58.000Z</time>
			</trkpt>
			<trkpt lat="49.7570392" lon="9.7846882">
				<ele>304.7</ele>
				<time>2026-08-23T10:40:00.000Z</time>
			</trkpt>
			<trkpt lat="49.7563802" lon="9.7854437">
				<ele>306.2</ele>
				<time>2026-08-23T10:40:03.000Z</time>
			</trkpt>
			<trkpt lat="49.7557359" lon="9.786231">
				<ele>306.7</ele>
				<time>2026-08-23T10:40:06.000Z</time>
			</trkpt>
			<trkpt lat="49.7550992" lon="9.7870452">
				<ele>307.3</ele>
				<time>2026-08-23T10:40:09.000Z</time>
			</trkpt>
			<trkpt lat="49.754492" lon="9.7878882">
				<ele>308</ele>
				<time>2026-08-23T10:40:12.000Z</time>
			</trkpt>
			<trkpt lat="49.7538892" lon="9.7887593">
				<ele>308.8</ele>
				<time>2026-08-23T10:40:15.000Z</time>
			</trkpt>
			<trkpt lat="49.753316" lon="9.7896522">
				<ele>310.4</ele>
				<time>2026-08-23T10:40:18.000Z</time>
			</trkpt>
			<trkpt lat="49.7527598" lon="9.790578">
				<ele>310.2</ele>
				<time>2026-08-23T10:40:21.000Z</time>
			</trkpt>
			<trkpt lat="49.7523939" lon="9.7912125">
				<ele>309.9</ele>
				<time>2026-08-23T10:40:23.000Z</time>
			</trkpt>
			<trkpt lat="49.7520357" lon="9.7918626">
				<ele>310.2</ele>
				<time>2026-08-23T10:40:25.000Z</time>
			</trkpt>
			<trkpt lat="49.751508" lon="9.7928678">
				<ele>311.5</ele>
				<time>2026-08-23T10:40:28.000Z</time>
			</trkpt>
			<trkpt lat="49.7511689" lon="9.7935591">
				<ele>311.7</ele>
				<time>2026-08-23T10:40:30.000Z</time>
			</trkpt>
			<trkpt lat="49.7506717" lon="9.7946107">
				<ele>312.4</ele>
				<time>2026-08-23T10:40:33.000Z</time>
			</trkpt>
			<trkpt lat="49.750211" lon="9.7956662">
				<ele>313.2</ele>
				<time>2026-08-23T10:40:36.000Z</time>
			</trkpt>
			<trkpt lat="49.7499135" lon="9.7963814">
				<ele>314.2</ele>
				<time>2026-08-23T10:40:38.000Z</time>
			</trkpt>
			<trkpt lat="49.7494716" lon="9.7974886">
				<ele>316.2</ele>
				<time>2026-08-23T10:40:41.000Z</time>
			</trkpt>
			<trkpt lat="49.7490665" lon="9.7986178">
				<ele>316.6</ele>
				<time>2026-08-23T10:40:44.000Z</time>
			</trkpt>
			<trkpt lat="49.7488077" lon="9.7993797">
				<ele>316.8</ele>
				<time>2026-08-23T10:40:46.000Z</time>
			</trkpt>
			<trkpt lat="49.7484526" lon="9.8005406">
				<ele>317.6</ele>
				<time>2026-08-23T10:40:49.000Z</time>
			</trkpt>
			<trkpt lat="49.7481344" lon="9.8017175">
				<ele>318.3</ele>
				<time>2026-08-23T10:40:52.000Z</time>
			</trkpt>
			<trkpt lat="49.74794" lon="9.8025189">
				<ele>318.4</ele>
				<time>2026-08-23T10:40:54.000Z</time>
			</trkpt>
			<trkpt lat="49.7476827" lon="9.8037257">
				<ele>320</ele>
				<time>2026-08-23T10:40:57.000Z</time>
			</trkpt>
			<trkpt lat="49.7475255" lon="9.8045546">
				<ele>321.6</ele>
				<time>2026-08-23T10:40:59.000Z</time>
			</trkpt>
			<trkpt lat="49.7473367" lon="9.8057808">
				<ele>322.4</ele>
				<time>2026-08-23T10:41:02.000Z</time>
			</trkpt>
			<trkpt lat="49.7472327" lon="9.8065851">
				<ele>323.4</ele>
				<time>2026-08-23T10:41:04.000Z</time>
			</trkpt>
			<trkpt lat="49.7471052" lon="9.8078077">
				<ele>323.6</ele>
				<time>2026-08-23T10:41:07.000Z</time>
			</trkpt>
			<trkpt lat="49.7470399" lon="9.8086222">
				<ele>324.2</ele>
				<time>2026-08-23T10:41:09.000Z</time>
			</trkpt>
			<trkpt lat="49.746976" lon="9.8098464">
				<ele>326.4</ele>
				<time>2026-08-23T10:41:12.000Z</time>
			</trkpt>
			<trkpt lat="49.746959" lon="9.8110739">
				<ele>328.5</ele>
				<time>2026-08-23T10:41:15.000Z</time>
			</trkpt>
			<trkpt lat="49.7469662" lon="9.811881">
				<ele>329.7</ele>
				<time>2026-08-23T10:41:17.000Z</time>
			</trkpt>
			<trkpt lat="49.7470096" lon="9.813078">
				<ele>331.8</ele>
				<time>2026-08-23T10:41:20.000Z</time>
			</trkpt>
			<trkpt lat="49.7471005" lon="9.8142767">
				<ele>333.2</ele>
				<time>2026-08-23T10:41:23.000Z</time>
			</trkpt>
			<trkpt lat="49.7471769" lon="9.8150503">
				<ele>334.4</ele>
				<time>2026-08-23T10:41:25.000Z</time>
			</trkpt>
			<trkpt lat="49.7473028" lon="9.8162045">
				<ele>336</ele>
				<time>2026-08-23T10:41:28.000Z</time>
			</trkpt>
			<trkpt lat="49.7474508" lon="9.8173588">
				<ele>337.7</ele>
				<time>2026-08-23T10:41:31.000Z</time>
			</trkpt>
			<trkpt lat="49.7476185" lon="9.8185339">
				<ele>339.8</ele>
				<time>2026-08-23T10:41:34.000Z</time>
			</trkpt>
			<trkpt lat="49.7478012" lon="9.8197007">
				<ele>338.7</ele>
				<time>2026-08-23T10:41:37.000Z</time>
			</trkpt>
			<trkpt lat="49.7479454" lon="9.8205038">
				<ele>340.5</ele>
				<time>2026-08-23T10:41:39.000Z</time>
			</trkpt>
			<trkpt lat="49.7480805" lon="9.8212964">
				<ele>342.6</ele>
				<time>2026-08-23T10:41:41.000Z</time>
			</trkpt>
			<trkpt lat="49.7482645" lon="9.822508">
				<ele>344.7</ele>
				<time>2026-08-23T10:41:44.000Z</time>
			</trkpt>
			<trkpt lat="49.7484511" lon="9.8237394">
				<ele>348.1</ele>
				<time>2026-08-23T10:41:47.000Z</time>
			</trkpt>
			<trkpt lat="49.7486115" lon="9.8249803">
				<ele>351.6</ele>
				<time>2026-08-23T10:41:50.000Z</time>
			</trkpt>
			<trkpt lat="49.7487645" lon="9.8262068">
				<ele>355.3</ele>
				<time>2026-08-23T10:41:53.000Z</time>
			</trkpt>
			<trkpt lat="49.7488571" lon="9.8270264">
				<ele>358.3</ele>
				<time>2026-08-23T10:41:55.000Z</time>
			</trkpt>
			<trkpt lat="49.7489264" lon="9.827857">
				<ele>361.5</ele>
				<time>2026-08-23T10:41:57.000Z</time>
			</trkpt>
			<trkpt lat="49.7490146" lon="9.8291061">
				<ele>364.7</ele>
				<time>2026-08-23T10:42:00.000Z</time>
			</trkpt>
			<trkpt lat="49.7490981" lon="9.8303423">
				<ele>367.8</ele>
				<time>2026-08-23T10:42:03.000Z</time>
			</trkpt>
			<trkpt lat="49.74914" lon="9.8311674">
				<ele>370.6</ele>
				<time>2026-08-23T10:42:05.000Z</time>
			</trkpt>
			<trkpt lat="49.7491883" lon="9.8324084">
				<ele>373.7</ele>
				<time>2026-08-23T10:42:08.000Z</time>
			</trkpt>
			<trkpt lat="49.7492328" lon="9.8336412">
				<ele>376.8</ele>
				<time>2026-08-23T10:42:11.000Z</time>
			</trkpt>
			<trkpt lat="49.7492534" lon="9.8348839">
				<ele>380.1</ele>
				<time>2026-08-23T10:42:14.000Z</time>
			</trkpt>
			<trkpt lat="49.749265" lon="9.8357065">
				<ele>381.6</ele>
				<time>2026-08-23T10:42:16.000Z</time>
			</trkpt>
			<trkpt lat="49.749241" lon="9.8369385">
				<ele>386</ele>
				<time>2026-08-23T10:42:19.000Z</time>
			</trkpt>
			<trkpt lat="49.7492089" lon="9.8381749">
				<ele>389.7</ele>
				<time>2026-08-23T10:42:22.000Z</time>
			</trkpt>
			<trkpt lat="49.749163" lon="9.8394187">
				<ele>393.4</ele>
				<time>2026-08-23T10:42:25.000Z</time>
			</trkpt>
			<trkpt lat="49.7491099" lon="9.8406566">
				<ele>397.1</ele>
				<time>2026-08-23T10:42:28.000Z</time>
			</trkpt>
			<trkpt lat="49.7490302" lon="9.841899">
				<ele>398.9</ele>
				<time>2026-08-23T10:42:31.000Z</time>
			</trkpt>
			<trkpt lat="49.7489252" lon="9.8431438">
				<ele>400.7</ele>
				<time>2026-08-23T10:42:34.000Z</time>
			</trkpt>
			<trkpt lat="49.7488569" lon="9.843982">
				<ele>400.7</ele>
				<time>2026-08-23T10:42:36.000Z</time>
			</trkpt>
			<trkpt lat="49.7487376" lon="9.8452388">
				<ele>402.7</ele>
				<time>2026-08-23T10:42:39.000Z</time>
			</trkpt>
			<trkpt lat="49.7486446" lon="9.8460853">
				<ele>403.6</ele>
				<time>2026-08-23T10:42:41.000Z</time>
			</trkpt>
			<trkpt lat="49.748493" lon="9.8473495">
				<ele>405.9</ele>
				<time>2026-08-23T10:42:44.000Z</time>
			</trkpt>
			<trkpt lat="49.7483852" lon="9.8482018">
				<ele>407.2</ele>
				<time>2026-08-23T10:42:46.000Z</time>
			</trkpt>
			<trkpt lat="49.7482673" lon="9.8490557">
				<ele>408.1</ele>
				<time>2026-08-23T10:42:48.000Z</time>
			</trkpt>
			<trkpt lat="49.748071" lon="9.8503688">
				<ele>408.6</ele>
				<time>2026-08-23T10:42:51.000Z</time>
			</trkpt>
			<trkpt lat="49.7478716" lon="9.851694">
				<ele>409.8</ele>
				<time>2026-08-23T10:42:54.000Z</time>
			</trkpt>
			<trkpt lat="49.747728" lon="9.8525842">
				<ele>410.2</ele>
				<time>2026-08-23T10:42:56.000Z</time>
			</trkpt>
			<trkpt lat="49.747515" lon="9.853942">
				<ele>409.5</ele>
				<time>2026-08-23T10:42:59.000Z</time>
			</trkpt>
			<trkpt lat="49.7473805" lon="9.8548442">
				<ele>409.4</ele>
				<time>2026-08-23T10:43:01.000Z</time>
			</trkpt>
			<trkpt lat="49.7471735" lon="9.8561554">
				<ele>408.4</ele>
				<time>2026-08-23T10:43:04.000Z</time>
			</trkpt>
			<trkpt lat="49.7469769" lon="9.8574473">
				<ele>407.3</ele>
				<time>2026-08-23T10:43:07.000Z</time>
			</trkpt>
			<trkpt lat="49.7468394" lon="9.8583158">
				<ele>406.7</ele>
				<time>2026-08-23T10:43:09.000Z</time>
			</trkpt>
			<trkpt lat="49.7466364" lon="9.8596456">
				<ele>404.7</ele>
				<time>2026-08-23T10:43:12.000Z</time>
			</trkpt>
			<trkpt lat="49.7464489" lon="9.8609747">
				<ele>403.7</ele>
				<time>2026-08-23T10:43:15.000Z</time>
			</trkpt>
			<trkpt lat="49.7462775" lon="9.8622733">
				<ele>402.4</ele>
				<time>2026-08-23T10:43:18.000Z</time>
			</trkpt>
			<trkpt lat="49.7461153" lon="9.8635857">
				<ele>400.5</ele>
				<time>2026-08-23T10:43:21.000Z</time>
			</trkpt>
			<trkpt lat="49.7460179" lon="9.8644688">
				<ele>399.2</ele>
				<time>2026-08-23T10:43:23.000Z</time>
			</trkpt>
			<trkpt lat="49.7459005" lon="9.8658219">
				<ele>397</ele>
				<time>2026-08-23T10:43:26.000Z</time>
			</trkpt>
			<trkpt lat="49.7458128" lon="9.8671811">
				<ele>395.8</ele>
				<time>2026-08-23T10:43:29.000Z</time>
			</trkpt>
			<trkpt lat="49.74577" lon="9.8680789">
				<ele>395.4</ele>
				<time>2026-08-23T10:43:31.000Z</time>
			</trkpt>
			<trkpt lat="49.7457381" lon="9.869433">
				<ele>394.4</ele>
				<time>2026-08-23T10:43:34.000Z</time>
			</trkpt>
			<trkpt lat="49.7457383" lon="9.8703429">
				<ele>393.6</ele>
				<time>2026-08-23T10:43:36.000Z</time>
			</trkpt>
			<trkpt lat="49.7457644" lon="9.8717051">
				<ele>393.6</ele>
				<time>2026-08-23T10:43:39.000Z</time>
			</trkpt>
			<trkpt lat="49.7457958" lon="9.8726105">
				<ele>392.7</ele>
				<time>2026-08-23T10:43:41.000Z</time>
			</trkpt>
			<trkpt lat="49.7458636" lon="9.8739482">
				<ele>392.4</ele>
				<time>2026-08-23T10:43:44.000Z</time>
			</trkpt>
			<trkpt lat="49.7459368" lon="9.8748462">
				<ele>391.8</ele>
				<time>2026-08-23T10:43:46.000Z</time>
			</trkpt>
			<trkpt lat="49.7460677" lon="9.8761789">
				<ele>391.7</ele>
				<time>2026-08-23T10:43:49.000Z</time>
			</trkpt>
			<trkpt lat="49.7462306" lon="9.8775151">
				<ele>391.3</ele>
				<time>2026-08-23T10:43:52.000Z</time>
			</trkpt>
			<trkpt lat="49.7463587" lon="9.8783992">
				<ele>391.3</ele>
				<time>2026-08-23T10:43:54.000Z</time>
			</trkpt>
			<trkpt lat="49.7465705" lon="9.8797058">
				<ele>391.1</ele>
				<time>2026-08-23T10:43:57.000Z</time>
			</trkpt>
			<trkpt lat="49.7468253" lon="9.8809997">
				<ele>391.6</ele>
				<time>2026-08-23T10:44:00.000Z</time>
			</trkpt>
			<trkpt lat="49.7471063" lon="9.8822824">
				<ele>391.9</ele>
				<time>2026-08-23T10:44:03.000Z</time>
			</trkpt>
			<trkpt lat="49.7474289" lon="9.88353">
				<ele>392.7</ele>
				<time>2026-08-23T10:44:06.000Z</time>
			</trkpt>
			<trkpt lat="49.7477761" lon="9.8847367">
				<ele>391.9</ele>
				<time>2026-08-23T10:44:09.000Z</time>
			</trkpt>
			<trkpt lat="49.7481346" lon="9.885947">
				<ele>392.2</ele>
				<time>2026-08-23T10:44:12.000Z</time>
			</trkpt>
			<trkpt lat="49.7485348" lon="9.8870964">
				<ele>392.5</ele>
				<time>2026-08-23T10:44:15.000Z</time>
			</trkpt>
			<trkpt lat="49.7489448" lon="9.8882008">
				<ele>392</ele>
				<time>2026-08-23T10:44:18.000Z</time>
			</trkpt>
			<trkpt lat="49.7492226" lon="9.8889324">
				<ele>391.6</ele>
				<time>2026-08-23T10:44:20.000Z</time>
			</trkpt>
			<trkpt lat="49.7495064" lon="9.8896492">
				<ele>390.8</ele>
				<time>2026-08-23T10:44:22.000Z</time>
			</trkpt>
			<trkpt lat="49.7499368" lon="9.8907374">
				<ele>390.1</ele>
				<time>2026-08-23T10:44:25.000Z</time>
			</trkpt>
			<trkpt lat="49.7502227" lon="9.8914541">
				<ele>389.3</ele>
				<time>2026-08-23T10:44:27.000Z</time>
			</trkpt>
			<trkpt lat="49.7505101" lon="9.8921686">
				<ele>389.9</ele>
				<time>2026-08-23T10:44:29.000Z</time>
			</trkpt>
			<trkpt lat="49.7509311" lon="9.8932187">
				<ele>389.4</ele>
				<time>2026-08-23T10:44:32.000Z</time>
			</trkpt>
			<trkpt lat="49.7512151" lon="9.8939033">
				<ele>388.8</ele>
				<time>2026-08-23T10:44:34.000Z</time>
			</trkpt>
			<trkpt lat="49.7516242" lon="9.8949718">
				<ele>387.6</ele>
				<time>2026-08-23T10:44:37.000Z</time>
			</trkpt>
			<trkpt lat="49.75188" lon="9.8957026">
				<ele>386.3</ele>
				<time>2026-08-23T10:44:39.000Z</time>
			</trkpt>
			<trkpt lat="49.7522619" lon="9.8968146">
				<ele>383.9</ele>
				<time>2026-08-23T10:44:42.000Z</time>
			</trkpt>
			<trkpt lat="49.7526107" lon="9.8979426">
				<ele>380.7</ele>
				<time>2026-08-23T10:44:45.000Z</time>
			</trkpt>
			<trkpt lat="49.7529404" lon="9.8991119">
				<ele>379</ele>
				<time>2026-08-23T10:44:48.000Z</time>
			</trkpt>
			<trkpt lat="49.7531584" lon="9.8999209">
				<ele>377.5</ele>
				<time>2026-08-23T10:44:50.000Z</time>
			</trkpt>
			<trkpt lat="49.7533695" lon="9.900734">
				<ele>375.5</ele>
				<time>2026-08-23T10:44:52.000Z</time>
			</trkpt>
			<trkpt lat="49.7536721" lon="9.9020193">
				<ele>373.5</ele>
				<time>2026-08-23T10:44:55.000Z</time>
			</trkpt>
			<trkpt lat="49.7539423" lon="9.903341">
				<ele>370.7</ele>
				<time>2026-08-23T10:44:58.000Z</time>
			</trkpt>
			<trkpt lat="49.754179" lon="9.9046797">
				<ele>367.7</ele>
				<time>2026-08-23T10:45:01.000Z</time>
			</trkpt>
			<trkpt lat="49.7543857" lon="9.9060674">
				<ele>365.7</ele>
				<time>2026-08-23T10:45:04.000Z</time>
			</trkpt>
			<trkpt lat="49.7544991" lon="9.907">
				<ele>363.7</ele>
				<time>2026-08-23T10:45:06.000Z</time>
			</trkpt>
			<trkpt lat="49.7546481" lon="9.9083886">
				<ele>360.2</ele>
				<time>2026-08-23T10:45:09.000Z</time>
			</trkpt>
			<trkpt lat="49.754767" lon="9.9097822">
				<ele>356.1</ele>
				<time>2026-08-23T10:45:12.000Z</time>
			</trkpt>
			<trkpt lat="49.7548541" lon="9.9111286">
				<ele>352.8</ele>
				<time>2026-08-23T10:45:15.000Z</time>
			</trkpt>
			<trkpt lat="49.75489" lon="9.9120301">
				<ele>351</ele>
				<time>2026-08-23T10:45:17.000Z</time>
			</trkpt>
			<trkpt lat="49.7549153" lon="9.913376">
				<ele>347.6</ele>
				<time>2026-08-23T10:45:20.000Z</time>
			</trkpt>
			<trkpt lat="49.7548965" lon="9.9147426">
				<ele>344.3</ele>
				<time>2026-08-23T10:45:23.000Z</time>
			</trkpt>
			<trkpt lat="49.7548601" lon="9.9156326">
				<ele>340.8</ele>
				<time>2026-08-23T10:45:25.000Z</time>
			</trkpt>
			<trkpt lat="49.7548014" lon="9.9165187">
				<ele>338</ele>
				<time>2026-08-23T10:45:27.000Z</time>
			</trkpt>
			<trkpt lat="49.7546799" lon="9.917826">
				<ele>334.9</ele>
				<time>2026-08-23T10:45:30.000Z</time>
			</trkpt>
			<trkpt lat="49.7545843" lon="9.9187006">
				<ele>332.3</ele>
				<time>2026-08-23T10:45:32.000Z</time>
			</trkpt>
			<trkpt lat="49.7544009" lon="9.9200148">
				<ele>328.7</ele>
				<time>2026-08-23T10:45:35.000Z</time>
			</trkpt>
			<trkpt lat="49.7541841" lon="9.9212917">
				<ele>323.9</ele>
				<time>2026-08-23T10:45:38.000Z</time>
			</trkpt>
			<trkpt lat="49.7539345" lon="9.9225784">
				<ele>321.4</ele>
				<time>2026-08-23T10:45:41.000Z</time>
			</trkpt>
			<trkpt lat="49.753651" lon="9.9238643">
				<ele>319</ele>
				<time>2026-08-23T10:45:44.000Z</time>
			</trkpt>
			<trkpt lat="49.7534554" lon="9.9247104">
				<ele>317.6</ele>
				<time>2026-08-23T10:45:46.000Z</time>
			</trkpt>
			<trkpt lat="49.753259" lon="9.9255459">
				<ele>315.3</ele>
				<time>2026-08-23T10:45:48.000Z</time>
			</trkpt>
			<trkpt lat="49.7529681" lon="9.9267851">
				<ele>311.8</ele>
				<time>2026-08-23T10:45:51.000Z</time>
			</trkpt>
			<trkpt lat="49.7526882" lon="9.9280413">
				<ele>309.5</ele>
				<time>2026-08-23T10:45:54.000Z</time>
			</trkpt>
			<trkpt lat="49.7524334" lon="9.9293149">
				<ele>307.4</ele>
				<time>2026-08-23T10:45:57.000Z</time>
			</trkpt>
			<trkpt lat="49.752288" lon="9.9301941">
				<ele>305.2</ele>
				<time>2026-08-23T10:45:59.000Z</time>
			</trkpt>
			<trkpt lat="49.7521598" lon="9.9310729">
				<ele>301.3</ele>
				<time>2026-08-23T10:46:01.000Z</time>
			</trkpt>
			<trkpt lat="49.7520047" lon="9.9324064">
				<ele>297.6</ele>
				<time>2026-08-23T10:46:04.000Z</time>
			</trkpt>
			<trkpt lat="49.7519042" lon="9.9337268">
				<ele>294.1</ele>
				<time>2026-08-23T10:46:07.000Z</time>
			</trkpt>
			<trkpt lat="49.7518724" lon="9.9346086">
				<ele>292.6</ele>
				<time>2026-08-23T10:46:09.000Z</time>
			</trkpt>
			<trkpt lat="49.7518617" lon="9.9359566">
				<ele>289.7</ele>
				<time>2026-08-23T10:46:12.000Z</time>
			</trkpt>
			<trkpt lat="49.751894" lon="9.9373298">
				<ele>288</ele>
				<time>2026-08-23T10:46:15.000Z</time>
			</trkpt>
			<trkpt lat="49.7519258" lon="9.9382452">
				<ele>287.7</ele>
				<time>2026-08-23T10:46:17.000Z</time>
			</trkpt>
			<trkpt lat="49.7520269" lon="9.9395772">
				<ele>286.9</ele>
				<time>2026-08-23T10:46:20.000Z</time>
			</trkpt>
			<trkpt lat="49.7521793" lon="9.9408806">
				<ele>286.1</ele>
				<time>2026-08-23T10:46:23.000Z</time>
			</trkpt>
			<trkpt lat="49.7523741" lon="9.9421393">
				<ele>285.8</ele>
				<time>2026-08-23T10:46:26.000Z</time>
			</trkpt>
			<trkpt lat="49.7526103" lon="9.9434007">
				<ele>286.5</ele>
				<time>2026-08-23T10:46:29.000Z</time>
			</trkpt>
			<trkpt lat="49.7527833" lon="9.9441766">
				<ele>287.7</ele>
				<time>2026-08-23T10:46:31.000Z</time>
			</trkpt>
			<trkpt lat="49.7530671" lon="9.9452452">
				<ele>289.9</ele>
				<time>2026-08-23T10:46:34.000Z</time>
			</trkpt>
			<trkpt lat="49.7533665" lon="9.9462502">
				<ele>292.5</ele>
				<time>2026-08-23T10:46:37.000Z</time>
			</trkpt>
			<trkpt lat="49.7535564" lon="9.9469019">
				<ele>292.9</ele>
				<time>2026-08-23T10:46:39.000Z</time>
			</trkpt>
			<trkpt lat="49.7553636" lon="9.9547521">
				<ele>299</ele>
				<time>2026-08-23T10:47:03.000Z</time>
			</trkpt>
			<trkpt lat="49.7553405" lon="9.9558518">
				<ele>307.8</ele>
				<time>2026-08-23T10:47:06.000Z</time>
			</trkpt>
			<trkpt lat="49.755256" lon="9.9569092">
				<ele>315.1</ele>
				<time>2026-08-23T10:47:09.000Z</time>
			</trkpt>
			<trkpt lat="49.7551457" lon="9.9576133">
				<ele>317.5</ele>
				<time>2026-08-23T10:47:11.000Z</time>
			</trkpt>
			<trkpt lat="49.7549325" lon="9.9586288">
				<ele>322.4</ele>
				<time>2026-08-23T10:47:14.000Z</time>
			</trkpt>
			<trkpt lat="49.7547447" lon="9.9592969">
				<ele>323.7</ele>
				<time>2026-08-23T10:47:16.000Z</time>
			</trkpt>
			<trkpt lat="49.7543934" lon="9.9602638">
				<ele>325.5</ele>
				<time>2026-08-23T10:47:19.000Z</time>
			</trkpt>
			<trkpt lat="49.7539619" lon="9.9611844">
				<ele>326.4</ele>
				<time>2026-08-23T10:47:22.000Z</time>
			</trkpt>
			<trkpt lat="49.7536384" lon="9.9617428">
				<ele>325.9</ele>
				<time>2026-08-23T10:47:24.000Z</time>
			</trkpt>
			<trkpt lat="49.7532859" lon="9.9622696">
				<ele>325.4</ele>
				<time>2026-08-23T10:47:26.000Z</time>
			</trkpt>
			<trkpt lat="49.7528997" lon="9.9627548">
				<ele>326.5</ele>
				<time>2026-08-23T10:47:28.000Z</time>
			</trkpt>
			<trkpt lat="49.7522626" lon="9.9633976">
				<ele>325.6</ele>
				<time>2026-08-23T10:47:31.000Z</time>
			</trkpt>
			<trkpt lat="49.751573" lon="9.9639426">
				<ele>322.6</ele>
				<time>2026-08-23T10:47:34.000Z</time>
			</trkpt>
			<trkpt lat="49.750834" lon="9.9644021">
				<ele>320.9</ele>
				<time>2026-08-23T10:47:37.000Z</time>
			</trkpt>
			<trkpt lat="49.7503249" lon="9.9646605">
				<ele>320.6</ele>
				<time>2026-08-23T10:47:39.000Z</time>
			</trkpt>
			<trkpt lat="49.7495528" lon="9.964985">
				<ele>319.5</ele>
				<time>2026-08-23T10:47:42.000Z</time>
			</trkpt>
			<trkpt lat="49.7490252" lon="9.965189">
				<ele>317.3</ele>
				<time>2026-08-23T10:47:44.000Z</time>
			</trkpt>
			<trkpt lat="49.7482172" lon="9.9654804">
				<ele>314.5</ele>
				<time>2026-08-23T10:47:47.000Z</time>
			</trkpt>
			<trkpt lat="49.7476919" lon="9.9656724">
				<ele>313.3</ele>
				<time>2026-08-23T10:47:49.000Z</time>
			</trkpt>
			<trkpt lat="49.7468894" lon="9.9659649">
				<ele>310.5</ele>
				<time>2026-08-23T10:47:52.000Z</time>
			</trkpt>
			<trkpt lat="49.7460923" lon="9.9662696">
				<ele>307.9</ele>
				<time>2026-08-23T10:47:55.000Z</time>
			</trkpt>
			<trkpt lat="49.745552" lon="9.9664849">
				<ele>306.2</ele>
				<time>2026-08-23T10:47:57.000Z</time>
			</trkpt>
			<trkpt lat="49.7447581" lon="9.9668555">
				<ele>303.6</ele>
				<time>2026-08-23T10:48:00.000Z</time>
			</trkpt>
			<trkpt lat="49.743955" lon="9.9672935">
				<ele>301.2</ele>
				<time>2026-08-23T10:48:03.000Z</time>
			</trkpt>
			<trkpt lat="49.7432007" lon="9.9678268">
				<ele>299.2</ele>
				<time>2026-08-23T10:48:06.000Z</time>
			</trkpt>
			<trkpt lat="49.742719" lon="9.9682564">
				<ele>297</ele>
				<time>2026-08-23T10:48:08.000Z</time>
			</trkpt>
			<trkpt lat="49.7422886" lon="9.9687326">
				<ele>292.1</ele>
				<time>2026-08-23T10:48:10.000Z</time>
			</trkpt>
			<trkpt lat="49.7416336" lon="9.9695705">
				<ele>289.1</ele>
				<time>2026-08-23T10:48:13.000Z</time>
			</trkpt>
			<trkpt lat="49.7410414" lon="9.9705298">
				<ele>286.4</ele>
				<time>2026-08-23T10:48:16.000Z</time>
			</trkpt>
			<trkpt lat="49.7406914" lon="9.9712183">
				<ele>282.6</ele>
				<time>2026-08-23T10:48:18.000Z</time>
			</trkpt>
			<trkpt lat="49.7403732" lon="9.9719587">
				<ele>280.8</ele>
				<time>2026-08-23T10:48:20.000Z</time>
			</trkpt>
			<trkpt lat="49.7399585" lon="9.973142">
				<ele>277</ele>
				<time>2026-08-23T10:48:23.000Z</time>
			</trkpt>
			<trkpt lat="49.7397381" lon="9.9739631">
				<ele>274.7</ele>
				<time>2026-08-23T10:48:25.000Z</time>
			</trkpt>
			<trkpt lat="49.7394635" lon="9.9752152">
				<ele>268.7</ele>
				<time>2026-08-23T10:48:28.000Z</time>
			</trkpt>
			<trkpt lat="49.7392421" lon="9.9765045">
				<ele>263.6</ele>
				<time>2026-08-23T10:48:31.000Z</time>
			</trkpt>
			<trkpt lat="49.7391104" lon="9.9773867">
				<ele>260.9</ele>
				<time>2026-08-23T10:48:33.000Z</time>
			</trkpt>
			<trkpt lat="49.7389477" lon="9.9787179">
				<ele>257.6</ele>
				<time>2026-08-23T10:48:36.000Z</time>
			</trkpt>
			<trkpt lat="49.7388524" lon="9.979613">
				<ele>254.9</ele>
				<time>2026-08-23T10:48:38.000Z</time>
			</trkpt>
			<trkpt lat="49.7387443" lon="9.9809747">
				<ele>250.1</ele>
				<time>2026-08-23T10:48:41.000Z</time>
			</trkpt>
			<trkpt lat="49.7386943" lon="9.9818721">
				<ele>247.5</ele>
				<time>2026-08-23T10:48:43.000Z</time>
			</trkpt>
			<trkpt lat="49.7386592" lon="9.982772">
				<ele>245</ele>
				<time>2026-08-23T10:48:45.000Z</time>
			</trkpt>
			<trkpt lat="49.7386184" lon="9.98411">
				<ele>242.6</ele>
				<time>2026-08-23T10:48:48.000Z</time>
			</trkpt>
			<trkpt lat="49.7386062" lon="9.9850073">
				<ele>240.8</ele>
				<time>2026-08-23T10:48:50.000Z</time>
			</trkpt>
			<trkpt lat="49.738596" lon="9.9859143">
				<ele>239.3</ele>
				<time>2026-08-23T10:48:52.000Z</time>
			</trkpt>
			<trkpt lat="49.7386045" lon="9.9872746">
				<ele>238.5</ele>
				<time>2026-08-23T10:48:55.000Z</time>
			</trkpt>
			<trkpt lat="49.7386216" lon="9.9886161">
				<ele>237.5</ele>
				<time>2026-08-23T10:48:58.000Z</time>
			</trkpt>
			<trkpt lat="49.7386606" lon="9.989933">
				<ele>236.1</ele>
				<time>2026-08-23T10:49:01.000Z</time>
			</trkpt>
			<trkpt lat="49.7387274" lon="9.9912581">
				<ele>235.8</ele>
				<time>2026-08-23T10:49:04.000Z</time>
			</trkpt>
			<trkpt lat="49.7387753" lon="9.9921348">
				<ele>236.4</ele>
				<time>2026-08-23T10:49:06.000Z</time>
			</trkpt>
			<trkpt lat="49.7388839" lon="9.993458">
				<ele>237.5</ele>
				<time>2026-08-23T10:49:09.000Z</time>
			</trkpt>
			<trkpt lat="49.7389592" lon="9.9943294">
				<ele>238.4</ele>
				<time>2026-08-23T10:49:11.000Z</time>
			</trkpt>
			<trkpt lat="49.7390586" lon="9.995643">
				<ele>239.8</ele>
				<time>2026-08-23T10:49:14.000Z</time>
			</trkpt>
			<trkpt lat="49.7391524" lon="9.9969459">
				<ele>243.1</ele>
				<time>2026-08-23T10:49:17.000Z</time>
			</trkpt>
			<trkpt lat="49.7392582" lon="9.9982416">
				<ele>247.1</ele>
				<time>2026-08-23T10:49:20.000Z</time>
			</trkpt>
			<trkpt lat="49.7393683" lon="9.9995153">
				<ele>251.4</ele>
				<time>2026-08-23T10:49:23.000Z</time>
			</trkpt>
			<trkpt lat="49.7394474" lon="10.0003568">
				<ele>254.8</ele>
				<time>2026-08-23T10:49:25.000Z</time>
			</trkpt>
			<trkpt lat="49.7395537" lon="10.0016015">
				<ele>258.4</ele>
				<time>2026-08-23T10:49:28.000Z</time>
			</trkpt>
			<trkpt lat="49.7396295" lon="10.0024124">
				<ele>259.6</ele>
				<time>2026-08-23T10:49:30.000Z</time>
			</trkpt>
			<trkpt lat="49.7397594" lon="10.003639">
				<ele>263</ele>
				<time>2026-08-23T10:49:33.000Z</time>
			</trkpt>
			<trkpt lat="49.739902" lon="10.0048438">
				<ele>266.6</ele>
				<time>2026-08-23T10:49:36.000Z</time>
			</trkpt>
			<trkpt lat="49.7400516" lon="10.006036">
				<ele>269.3</ele>
				<time>2026-08-23T10:49:39.000Z</time>
			</trkpt>
			<trkpt lat="49.7402117" lon="10.0072201">
				<ele>272</ele>
				<time>2026-08-23T10:49:42.000Z</time>
			</trkpt>
			<trkpt lat="49.7403762" lon="10.0084074">
				<ele>275.2</ele>
				<time>2026-08-23T10:49:45.000Z</time>
			</trkpt>
			<trkpt lat="49.7405486" lon="10.0096095">
				<ele>278</ele>
				<time>2026-08-23T10:49:48.000Z</time>
			</trkpt>
			<trkpt lat="49.7407368" lon="10.0108162">
				<ele>281.9</ele>
				<time>2026-08-23T10:49:51.000Z</time>
			</trkpt>
			<trkpt lat="49.7408613" lon="10.011628">
				<ele>283.8</ele>
				<time>2026-08-23T10:49:53.000Z</time>
			</trkpt>
			<trkpt lat="49.74098" lon="10.0124275">
				<ele>285.7</ele>
				<time>2026-08-23T10:49:55.000Z</time>
			</trkpt>
			<trkpt lat="49.7411646" lon="10.0136044">
				<ele>288.6</ele>
				<time>2026-08-23T10:49:58.000Z</time>
			</trkpt>
			<trkpt lat="49.7413785" lon="10.0147615">
				<ele>291.2</ele>
				<time>2026-08-23T10:50:01.000Z</time>
			</trkpt>
			<trkpt lat="49.7416114" lon="10.0158935">
				<ele>294.8</ele>
				<time>2026-08-23T10:50:04.000Z</time>
			</trkpt>
			<trkpt lat="49.74177" lon="10.0166344">
				<ele>296.8</ele>
				<time>2026-08-23T10:50:06.000Z</time>
			</trkpt>
			<trkpt lat="49.7420134" lon="10.0177334">
				<ele>300</ele>
				<time>2026-08-23T10:50:09.000Z</time>
			</trkpt>
			<trkpt lat="49.7422765" lon="10.0188306">
				<ele>303.8</ele>
				<time>2026-08-23T10:50:12.000Z</time>
			</trkpt>
			<trkpt lat="49.7425381" lon="10.0199055">
				<ele>306.7</ele>
				<time>2026-08-23T10:50:15.000Z</time>
			</trkpt>
			<trkpt lat="49.7427291" lon="10.0205994">
				<ele>308.8</ele>
				<time>2026-08-23T10:50:17.000Z</time>
			</trkpt>
			<trkpt lat="49.7429158" lon="10.021301">
				<ele>311.2</ele>
				<time>2026-08-23T10:50:19.000Z</time>
			</trkpt>
			<trkpt lat="49.74321" lon="10.0223297">
				<ele>314.4</ele>
				<time>2026-08-23T10:50:22.000Z</time>
			</trkpt>
			<trkpt lat="49.7434156" lon="10.0230088">
				<ele>316.6</ele>
				<time>2026-08-23T10:50:24.000Z</time>
			</trkpt>
			<trkpt lat="49.7436251" lon="10.0236895">
				<ele>318.8</ele>
				<time>2026-08-23T10:50:26.000Z</time>
			</trkpt>
			<trkpt lat="49.7439467" lon="10.0247436">
				<ele>322.5</ele>
				<time>2026-08-23T10:50:29.000Z</time>
			</trkpt>
			<trkpt lat="49.7441659" lon="10.0254209">
				<ele>324.6</ele>
				<time>2026-08-23T10:50:31.000Z</time>
			</trkpt>
			<trkpt lat="49.7445055" lon="10.0264215">
				<ele>326.5</ele>
				<time>2026-08-23T10:50:34.000Z</time>
			</trkpt>
			<trkpt lat="49.7447399" lon="10.0270931">
				<ele>328.1</ele>
				<time>2026-08-23T10:50:36.000Z</time>
			</trkpt>
			<trkpt lat="49.7451001" lon="10.028108">
				<ele>331</ele>
				<time>2026-08-23T10:50:39.000Z</time>
			</trkpt>
			<trkpt lat="49.7453536" lon="10.0288032">
				<ele>332.9</ele>
				<time>2026-08-23T10:50:41.000Z</time>
			</trkpt>
			<trkpt lat="49.7457375" lon="10.0298326">
				<ele>335.6</ele>
				<time>2026-08-23T10:50:44.000Z</time>
			</trkpt>
			<trkpt lat="49.7460024" lon="10.0305155">
				<ele>336.4</ele>
				<time>2026-08-23T10:50:46.000Z</time>
			</trkpt>
			<trkpt lat="49.7462833" lon="10.0312173">
				<ele>338.1</ele>
				<time>2026-08-23T10:50:48.000Z</time>
			</trkpt>
			<trkpt lat="49.7465671" lon="10.0319145">
				<ele>338.6</ele>
				<time>2026-08-23T10:50:50.000Z</time>
			</trkpt>
			<trkpt lat="49.7469942" lon="10.032946">
				<ele>338.8</ele>
				<time>2026-08-23T10:50:53.000Z</time>
			</trkpt>
			<trkpt lat="49.7472986" lon="10.0336481">
				<ele>339.2</ele>
				<time>2026-08-23T10:50:55.000Z</time>
			</trkpt>
			<trkpt lat="49.7477666" lon="10.0346791">
				<ele>338.2</ele>
				<time>2026-08-23T10:50:58.000Z</time>
			</trkpt>
			<trkpt lat="49.7480757" lon="10.0354012">
				<ele>338.3</ele>
				<time>2026-08-23T10:51:00.000Z</time>
			</trkpt>
			<trkpt lat="49.7483899" lon="10.0361025">
				<ele>337.1</ele>
				<time>2026-08-23T10:51:02.000Z</time>
			</trkpt>
			<trkpt lat="49.7488708" lon="10.0371274">
				<ele>334.6</ele>
				<time>2026-08-23T10:51:05.000Z</time>
			</trkpt>
			<trkpt lat="49.7491925" lon="10.037844">
				<ele>333.6</ele>
				<time>2026-08-23T10:51:07.000Z</time>
			</trkpt>
			<trkpt lat="49.7495262" lon="10.0385278">
				<ele>332</ele>
				<time>2026-08-23T10:51:09.000Z</time>
			</trkpt>
			<trkpt lat="49.7500326" lon="10.0395685">
				<ele>329.7</ele>
				<time>2026-08-23T10:51:12.000Z</time>
			</trkpt>
			<trkpt lat="49.7505422" lon="10.040589">
				<ele>327.3</ele>
				<time>2026-08-23T10:51:15.000Z</time>
			</trkpt>
			<trkpt lat="49.7508858" lon="10.0412646">
				<ele>325.9</ele>
				<time>2026-08-23T10:51:17.000Z</time>
			</trkpt>
			<trkpt lat="49.7514062" lon="10.0422746">
				<ele>324.3</ele>
				<time>2026-08-23T10:51:20.000Z</time>
			</trkpt>
			<trkpt lat="49.7519181" lon="10.043262">
				<ele>321.5</ele>
				<time>2026-08-23T10:51:23.000Z</time>
			</trkpt>
			<trkpt lat="49.7524408" lon="10.0442392">
				<ele>320</ele>
				<time>2026-08-23T10:51:26.000Z</time>
			</trkpt>
			<trkpt lat="49.7529687" lon="10.0451939">
				<ele>317.8</ele>
				<time>2026-08-23T10:51:29.000Z</time>
			</trkpt>
			<trkpt lat="49.7533244" lon="10.0458318">
				<ele>316.6</ele>
				<time>2026-08-23T10:51:31.000Z</time>
			</trkpt>
			<trkpt lat="49.7538728" lon="10.046787">
				<ele>315.3</ele>
				<time>2026-08-23T10:51:34.000Z</time>
			</trkpt>
			<trkpt lat="49.754254" lon="10.0474126">
				<ele>315.1</ele>
				<time>2026-08-23T10:51:36.000Z</time>
			</trkpt>
			<trkpt lat="49.7548374" lon="10.0483377">
				<ele>313.5</ele>
				<time>2026-08-23T10:51:39.000Z</time>
			</trkpt>
			<trkpt lat="49.7552273" lon="10.0489453">
				<ele>314.1</ele>
				<time>2026-08-23T10:51:41.000Z</time>
			</trkpt>
			<trkpt lat="49.7556159" lon="10.0495502">
				<ele>314.4</ele>
				<time>2026-08-23T10:51:43.000Z</time>
			</trkpt>
			<trkpt lat="49.7562205" lon="10.0504694">
				<ele>315.8</ele>
				<time>2026-08-23T10:51:46.000Z</time>
			</trkpt>
			<trkpt lat="49.7568354" lon="10.0513616">
				<ele>317.3</ele>
				<time>2026-08-23T10:51:49.000Z</time>
			</trkpt>
			<trkpt lat="49.7574491" lon="10.052234">
				<ele>318</ele>
				<time>2026-08-23T10:51:52.000Z</time>
			</trkpt>
			<trkpt lat="49.758062" lon="10.0530938">
				<ele>319.6</ele>
				<time>2026-08-23T10:51:55.000Z</time>
			</trkpt>
			<trkpt lat="49.7586793" lon="10.0539399">
				<ele>320</ele>
				<time>2026-08-23T10:51:58.000Z</time>
			</trkpt>
			<trkpt lat="49.7592956" lon="10.0547465">
				<ele>321.7</ele>
				<time>2026-08-23T10:52:01.000Z</time>
			</trkpt>
			<trkpt lat="49.7598673" lon="10.0555428">
				<ele>322.3</ele>
				<time>2026-08-23T10:52:04.000Z</time>
			</trkpt>
			<trkpt lat="49.7604434" lon="10.0563394">
				<ele>323.5</ele>
				<time>2026-08-23T10:52:07.000Z</time>
			</trkpt>
			<trkpt lat="49.7608205" lon="10.0568353">
				<ele>323.2</ele>
				<time>2026-08-23T10:52:09.000Z</time>
			</trkpt>
			<trkpt lat="49.7613908" lon="10.0575913">
				<ele>325</ele>
				<time>2026-08-23T10:52:12.000Z</time>
			</trkpt>
			<trkpt lat="49.7619532" lon="10.05835">
				<ele>324.7</ele>
				<time>2026-08-23T10:52:15.000Z</time>
			</trkpt>
			<trkpt lat="49.762322" lon="10.0588625">
				<ele>325.4</ele>
				<time>2026-08-23T10:52:17.000Z</time>
			</trkpt>
			<trkpt lat="49.762897" lon="10.0596075">
				<ele>326.7</ele>
				<time>2026-08-23T10:52:20.000Z</time>
			</trkpt>
			<trkpt lat="49.7632855" lon="10.0601255">
				<ele>328.3</ele>
				<time>2026-08-23T10:52:22.000Z</time>
			</trkpt>
			<trkpt lat="49.763651" lon="10.060664">
				<ele>328.1</ele>
				<time>2026-08-23T10:52:24.000Z</time>
			</trkpt>
			<trkpt lat="49.7642245" lon="10.0614573">
				<ele>327.2</ele>
				<time>2026-08-23T10:52:27.000Z</time>
			</trkpt>
			<trkpt lat="49.7647779" lon="10.0622557">
				<ele>327.6</ele>
				<time>2026-08-23T10:52:30.000Z</time>
			</trkpt>
			<trkpt lat="49.765152" lon="10.0628147">
				<ele>328.5</ele>
				<time>2026-08-23T10:52:32.000Z</time>
			</trkpt>
			<trkpt lat="49.7657105" lon="10.0635957">
				<ele>328.7</ele>
				<time>2026-08-23T10:52:35.000Z</time>
			</trkpt>
			<trkpt lat="49.7662728" lon="10.0644446">
				<ele>330.7</ele>
				<time>2026-08-23T10:52:38.000Z</time>
			</trkpt>
			<trkpt lat="49.7666423" lon="10.0650175">
				<ele>332.3</ele>
				<time>2026-08-23T10:52:40.000Z</time>
			</trkpt>
			<trkpt lat="49.7670065" lon="10.065597">
				<ele>332.2</ele>
				<time>2026-08-23T10:52:42.000Z</time>
			</trkpt>
			<trkpt lat="49.7675514" lon="10.0664574">
				<ele>335</ele>
				<time>2026-08-23T10:52:45.000Z</time>
			</trkpt>
			<trkpt lat="49.7680708" lon="10.0673331">
				<ele>336.2</ele>
				<time>2026-08-23T10:52:48.000Z</time>
			</trkpt>
			<trkpt lat="49.7685861" lon="10.0681961">
				<ele>336.4</ele>
				<time>2026-08-23T10:52:51.000Z</time>
			</trkpt>
			<trkpt lat="49.7689284" lon="10.0687653">
				<ele>337.3</ele>
				<time>2026-08-23T10:52:53.000Z</time>
			</trkpt>
			<trkpt lat="49.7692705" lon="10.0693611">
				<ele>339.9</ele>
				<time>2026-08-23T10:52:55.000Z</time>
			</trkpt>
			<trkpt lat="49.7697778" lon="10.0702506">
				<ele>340.8</ele>
				<time>2026-08-23T10:52:58.000Z</time>
			</trkpt>
			<trkpt lat="49.7702725" lon="10.0711617">
				<ele>342</ele>
				<time>2026-08-23T10:53:01.000Z</time>
			</trkpt>
			<trkpt lat="49.7707575" lon="10.0720623">
				<ele>342.2</ele>
				<time>2026-08-23T10:53:04.000Z</time>
			</trkpt>
			<trkpt lat="49.7712379" lon="10.0729748">
				<ele>341.4</ele>
				<time>2026-08-23T10:53:07.000Z</time>
			</trkpt>
			<trkpt lat="49.771719" lon="10.0739311">
				<ele>341.9</ele>
				<time>2026-08-23T10:53:10.000Z</time>
			</trkpt>
			<trkpt lat="49.7720353" lon="10.0745737">
				<ele>343</ele>
				<time>2026-08-23T10:53:12.000Z</time>
			</trkpt>
			<trkpt lat="49.7723475" lon="10.0752111">
				<ele>343.6</ele>
				<time>2026-08-23T10:53:14.000Z</time>
			</trkpt>
			<trkpt lat="49.7728065" lon="10.0761928">
				<ele>344.2</ele>
				<time>2026-08-23T10:53:17.000Z</time>
			</trkpt>
			<trkpt lat="49.7732545" lon="10.0771756">
				<ele>345.1</ele>
				<time>2026-08-23T10:53:20.000Z</time>
			</trkpt>
			<trkpt lat="49.7735615" lon="10.0778351">
				<ele>344.5</ele>
				<time>2026-08-23T10:53:22.000Z</time>
			</trkpt>
			<trkpt lat="49.7738587" lon="10.0784979">
				<ele>344.2</ele>
				<time>2026-08-23T10:53:24.000Z</time>
			</trkpt>
			<trkpt lat="49.7743027" lon="10.079526">
				<ele>344.2</ele>
				<time>2026-08-23T10:53:27.000Z</time>
			</trkpt>
			<trkpt lat="49.7747345" lon="10.0805578">
				<ele>344</ele>
				<time>2026-08-23T10:53:30.000Z</time>
			</trkpt>
			<trkpt lat="49.7751603" lon="10.0815882">
				<ele>343.2</ele>
				<time>2026-08-23T10:53:33.000Z</time>
			</trkpt>
			<trkpt lat="49.775583" lon="10.082636">
				<ele>342.9</ele>
				<time>2026-08-23T10:53:36.000Z</time>
			</trkpt>
			<trkpt lat="49.7758605" lon="10.0833344">
				<ele>341.3</ele>
				<time>2026-08-23T10:53:38.000Z</time>
			</trkpt>
			<trkpt lat="49.7761367" lon="10.0840583">
				<ele>341.3</ele>
				<time>2026-08-23T10:53:40.000Z</time>
			</trkpt>
			<trkpt lat="49.7765426" lon="10.0851434">
				<ele>340.2</ele>
				<time>2026-08-23T10:53:43.000Z</time>
			</trkpt>
			<trkpt lat="49.7769402" lon="10.0862342">
				<ele>339.6</ele>
				<time>2026-08-23T10:53:46.000Z</time>
			</trkpt>
			<trkpt lat="49.777198" lon="10.0869676">
				<ele>339</ele>
				<time>2026-08-23T10:53:48.000Z</time>
			</trkpt>
			<trkpt lat="49.7775781" lon="10.0880479">
				<ele>338</ele>
				<time>2026-08-23T10:53:51.000Z</time>
			</trkpt>
			<trkpt lat="49.7778318" lon="10.0887799">
				<ele>337.5</ele>
				<time>2026-08-23T10:53:53.000Z</time>
			</trkpt>
			<trkpt lat="49.778201" lon="10.0898746">
				<ele>336.6</ele>
				<time>2026-08-23T10:53:56.000Z</time>
			</trkpt>
			<trkpt lat="49.7784382" lon="10.0906081">
				<ele>336.1</ele>
				<time>2026-08-23T10:53:58.000Z</time>
			</trkpt>
			<trkpt lat="49.7788093" lon="10.0917025">
				<ele>334.9</ele>
				<time>2026-08-23T10:54:01.000Z</time>
			</trkpt>
			<trkpt lat="49.779165" lon="10.0928174">
				<ele>334.2</ele>
				<time>2026-08-23T10:54:04.000Z</time>
			</trkpt>
			<trkpt lat="49.779509" lon="10.0939344">
				<ele>334.1</ele>
				<time>2026-08-23T10:54:07.000Z</time>
			</trkpt>
			<trkpt lat="49.7797305" lon="10.0946815">
				<ele>334.2</ele>
				<time>2026-08-23T10:54:09.000Z</time>
			</trkpt>
			<trkpt lat="49.7800582" lon="10.095801">
				<ele>333.1</ele>
				<time>2026-08-23T10:54:12.000Z</time>
			</trkpt>
			<trkpt lat="49.7802747" lon="10.0965652">
				<ele>333</ele>
				<time>2026-08-23T10:54:14.000Z</time>
			</trkpt>
			<trkpt lat="49.780599" lon="10.0977079">
				<ele>333.1</ele>
				<time>2026-08-23T10:54:17.000Z</time>
			</trkpt>
			<trkpt lat="49.7809144" lon="10.0988583">
				<ele>332.7</ele>
				<time>2026-08-23T10:54:20.000Z</time>
			</trkpt>
			<trkpt lat="49.7812111" lon="10.099989">
				<ele>331.7</ele>
				<time>2026-08-23T10:54:23.000Z</time>
			</trkpt>
			<trkpt lat="49.7815025" lon="10.1011317">
				<ele>330.9</ele>
				<time>2026-08-23T10:54:26.000Z</time>
			</trkpt>
			<trkpt lat="49.7817969" lon="10.1022705">
				<ele>329.3</ele>
				<time>2026-08-23T10:54:29.000Z</time>
			</trkpt>
			<trkpt lat="49.7820749" lon="10.1034309">
				<ele>329.2</ele>
				<time>2026-08-23T10:54:32.000Z</time>
			</trkpt>
			<trkpt lat="49.7823502" lon="10.104591">
				<ele>328.8</ele>
				<time>2026-08-23T10:54:35.000Z</time>
			</trkpt>
			<trkpt lat="49.7826166" lon="10.10578">
				<ele>327.6</ele>
				<time>2026-08-23T10:54:38.000Z</time>
			</trkpt>
			<trkpt lat="49.7828744" lon="10.1069794">
				<ele>326.2</ele>
				<time>2026-08-23T10:54:41.000Z</time>
			</trkpt>
			<trkpt lat="49.7831155" lon="10.1081532">
				<ele>324</ele>
				<time>2026-08-23T10:54:44.000Z</time>
			</trkpt>
			<trkpt lat="49.7833431" lon="10.109345">
				<ele>323.2</ele>
				<time>2026-08-23T10:54:47.000Z</time>
			</trkpt>
			<trkpt lat="49.7834964" lon="10.1101766">
				<ele>322.3</ele>
				<time>2026-08-23T10:54:49.000Z</time>
			</trkpt>
			<trkpt lat="49.7837081" lon="10.1114161">
				<ele>321.4</ele>
				<time>2026-08-23T10:54:52.000Z</time>
			</trkpt>
			<trkpt lat="49.7838452" lon="10.1122466">
				<ele>320.3</ele>
				<time>2026-08-23T10:54:54.000Z</time>
			</trkpt>
			<trkpt lat="49.784031" lon="10.1134943">
				<ele>316.8</ele>
				<time>2026-08-23T10:54:57.000Z</time>
			</trkpt>
			<trkpt lat="49.7842065" lon="10.1147764">
				<ele>314.4</ele>
				<time>2026-08-23T10:55:00.000Z</time>
			</trkpt>
			<trkpt lat="49.7843118" lon="10.1156258">
				<ele>313.4</ele>
				<time>2026-08-23T10:55:02.000Z</time>
			</trkpt>
			<trkpt lat="49.7844091" lon="10.1164772">
				<ele>311.9</ele>
				<time>2026-08-23T10:55:04.000Z</time>
			</trkpt>
			<trkpt lat="49.7845553" lon="10.1177567">
				<ele>311</ele>
				<time>2026-08-23T10:55:07.000Z</time>
			</trkpt>
			<trkpt lat="49.7846861" lon="10.1190384">
				<ele>309.1</ele>
				<time>2026-08-23T10:55:10.000Z</time>
			</trkpt>
			<trkpt lat="49.7847947" lon="10.1203162">
				<ele>307.1</ele>
				<time>2026-08-23T10:55:13.000Z</time>
			</trkpt>
			<trkpt lat="49.7848642" lon="10.1211777">
				<ele>305.8</ele>
				<time>2026-08-23T10:55:15.000Z</time>
			</trkpt>
			<trkpt lat="49.7849494" lon="10.1224871">
				<ele>304.9</ele>
				<time>2026-08-23T10:55:18.000Z</time>
			</trkpt>
			<trkpt lat="49.7849926" lon="10.123361">
				<ele>303.3</ele>
				<time>2026-08-23T10:55:20.000Z</time>
			</trkpt>
			<trkpt lat="49.7850479" lon="10.1246803">
				<ele>302.2</ele>
				<time>2026-08-23T10:55:23.000Z</time>
			</trkpt>
			<trkpt lat="49.7850917" lon="10.1259853">
				<ele>299.9</ele>
				<time>2026-08-23T10:55:26.000Z</time>
			</trkpt>
			<trkpt lat="49.7851171" lon="10.1272818">
				<ele>297.5</ele>
				<time>2026-08-23T10:55:29.000Z</time>
			</trkpt>
			<trkpt lat="49.7851055" lon="10.1285758">
				<ele>294.5</ele>
				<time>2026-08-23T10:55:32.000Z</time>
			</trkpt>
			<trkpt lat="49.7851047" lon="10.1298574">
				<ele>292.2</ele>
				<time>2026-08-23T10:55:35.000Z</time>
			</trkpt>
			<trkpt lat="49.7850976" lon="10.1307035">
				<ele>290.9</ele>
				<time>2026-08-23T10:55:37.000Z</time>
			</trkpt>
			<trkpt lat="49.7850787" lon="10.131952">
				<ele>287.2</ele>
				<time>2026-08-23T10:55:40.000Z</time>
			</trkpt>
			<trkpt lat="49.7850576" lon="10.1332253">
				<ele>284.5</ele>
				<time>2026-08-23T10:55:43.000Z</time>
			</trkpt>
			<trkpt lat="49.7850385" lon="10.1340662">
				<ele>283.1</ele>
				<time>2026-08-23T10:55:45.000Z</time>
			</trkpt>
			<trkpt lat="49.7850113" lon="10.1353132">
				<ele>281</ele>
				<time>2026-08-23T10:55:48.000Z</time>
			</trkpt>
			<trkpt lat="49.784984" lon="10.1365455">
				<ele>278.5</ele>
				<time>2026-08-23T10:55:51.000Z</time>
			</trkpt>
			<trkpt lat="49.7849715" lon="10.1373591">
				<ele>277.1</ele>
				<time>2026-08-23T10:55:53.000Z</time>
			</trkpt>
			<trkpt lat="49.7849579" lon="10.1385852">
				<ele>274.4</ele>
				<time>2026-08-23T10:55:56.000Z</time>
			</trkpt>
			<trkpt lat="49.7849456" lon="10.1393938">
				<ele>273</ele>
				<time>2026-08-23T10:55:58.000Z</time>
			</trkpt>
			<trkpt lat="49.784932" lon="10.1406092">
				<ele>271.2</ele>
				<time>2026-08-23T10:56:01.000Z</time>
			</trkpt>
			<trkpt lat="49.7849325" lon="10.1414127">
				<ele>269.6</ele>
				<time>2026-08-23T10:56:03.000Z</time>
			</trkpt>
			<trkpt lat="49.7849314" lon="10.1426043">
				<ele>267.3</ele>
				<time>2026-08-23T10:56:06.000Z</time>
			</trkpt>
			<trkpt lat="49.7849412" lon="10.143388">
				<ele>265.5</ele>
				<time>2026-08-23T10:56:08.000Z</time>
			</trkpt>
			<trkpt lat="49.7849721" lon="10.1445712">
				<ele>263.1</ele>
				<time>2026-08-23T10:56:11.000Z</time>
			</trkpt>
			<trkpt lat="49.7849932" lon="10.1453558">
				<ele>262.1</ele>
				<time>2026-08-23T10:56:13.000Z</time>
			</trkpt>
			<trkpt lat="49.7850429" lon="10.1465348">
				<ele>260</ele>
				<time>2026-08-23T10:56:16.000Z</time>
			</trkpt>
			<trkpt lat="49.7851029" lon="10.1476864">
				<ele>257.6</ele>
				<time>2026-08-23T10:56:19.000Z</time>
			</trkpt>
			<trkpt lat="49.785172" lon="10.1488752">
				<ele>255.5</ele>
				<time>2026-08-23T10:56:22.000Z</time>
			</trkpt>
			<trkpt lat="49.7852233" lon="10.1496698">
				<ele>254.7</ele>
				<time>2026-08-23T10:56:24.000Z</time>
			</trkpt>
			<trkpt lat="49.7852779" lon="10.1504586">
				<ele>254.5</ele>
				<time>2026-08-23T10:56:26.000Z</time>
			</trkpt>
			<trkpt lat="49.7853742" lon="10.1516326">
				<ele>254.8</ele>
				<time>2026-08-23T10:56:29.000Z</time>
			</trkpt>
			<trkpt lat="49.7854773" lon="10.1527852">
				<ele>253.6</ele>
				<time>2026-08-23T10:56:32.000Z</time>
			</trkpt>
			<trkpt lat="49.7856025" lon="10.1539168">
				<ele>250</ele>
				<time>2026-08-23T10:56:35.000Z</time>
			</trkpt>
			<trkpt lat="49.785735" lon="10.1550558">
				<ele>248.9</ele>
				<time>2026-08-23T10:56:38.000Z</time>
			</trkpt>
			<trkpt lat="49.785829" lon="10.1558109">
				<ele>248.7</ele>
				<time>2026-08-23T10:56:40.000Z</time>
			</trkpt>
			<trkpt lat="49.7859783" lon="10.1569429">
				<ele>247.2</ele>
				<time>2026-08-23T10:56:43.000Z</time>
			</trkpt>
			<trkpt lat="49.7860924" lon="10.1576769">
				<ele>246.8</ele>
				<time>2026-08-23T10:56:45.000Z</time>
			</trkpt>
			<trkpt lat="49.7862057" lon="10.1583783">
				<ele>245.8</ele>
				<time>2026-08-23T10:56:47.000Z</time>
			</trkpt>
			<trkpt lat="49.7863834" lon="10.1594386">
				<ele>245.7</ele>
				<time>2026-08-23T10:56:50.000Z</time>
			</trkpt>
			<trkpt lat="49.7865105" lon="10.1601531">
				<ele>245.7</ele>
				<time>2026-08-23T10:56:52.000Z</time>
			</trkpt>
			<trkpt lat="49.7867042" lon="10.1612301">
				<ele>245.1</ele>
				<time>2026-08-23T10:56:55.000Z</time>
			</trkpt>
			<trkpt lat="49.7869019" lon="10.162308">
				<ele>244.7</ele>
				<time>2026-08-23T10:56:58.000Z</time>
			</trkpt>
			<trkpt lat="49.7870388" lon="10.1630404">
				<ele>244.7</ele>
				<time>2026-08-23T10:57:00.000Z</time>
			</trkpt>
			<trkpt lat="49.7872476" lon="10.1641306">
				<ele>245.1</ele>
				<time>2026-08-23T10:57:03.000Z</time>
			</trkpt>
			<trkpt lat="49.7873877" lon="10.1648368">
				<ele>244.4</ele>
				<time>2026-08-23T10:57:05.000Z</time>
			</trkpt>
			<trkpt lat="49.787595" lon="10.1658881">
				<ele>244.8</ele>
				<time>2026-08-23T10:57:08.000Z</time>
			</trkpt>
			<trkpt lat="49.7877319" lon="10.1665903">
				<ele>244.9</ele>
				<time>2026-08-23T10:57:10.000Z</time>
			</trkpt>
			<trkpt lat="49.7879355" lon="10.1676624">
				<ele>245.4</ele>
				<time>2026-08-23T10:57:13.000Z</time>
			</trkpt>
			<trkpt lat="49.7880631" lon="10.1683753">
				<ele>245.7</ele>
				<time>2026-08-23T10:57:15.000Z</time>
			</trkpt>
			<trkpt lat="49.788235" lon="10.1694892">
				<ele>246.6</ele>
				<time>2026-08-23T10:57:18.000Z</time>
			</trkpt>
			<trkpt lat="49.7883416" lon="10.1702501">
				<ele>246.6</ele>
				<time>2026-08-23T10:57:20.000Z</time>
			</trkpt>
			<trkpt lat="49.7884713" lon="10.1713725">
				<ele>245.5</ele>
				<time>2026-08-23T10:57:23.000Z</time>
			</trkpt>
			<trkpt lat="49.7885762" lon="10.1724804">
				<ele>245.9</ele>
				<time>2026-08-23T10:57:26.000Z</time>
			</trkpt>
			<trkpt lat="49.7886279" lon="10.1732692">
				<ele>246.4</ele>
				<time>2026-08-23T10:57:28.000Z</time>
			</trkpt>
			<trkpt lat="49.788666" lon="10.1740573">
				<ele>246.5</ele>
				<time>2026-08-23T10:57:30.000Z</time>
			</trkpt>
			<trkpt lat="49.7886922" lon="10.1752299">
				<ele>246.5</ele>
				<time>2026-08-23T10:57:33.000Z</time>
			</trkpt>
			<trkpt lat="49.7886874" lon="10.1763736">
				<ele>245</ele>
				<time>2026-08-23T10:57:36.000Z</time>
			</trkpt>
			<trkpt lat="49.7886494" lon="10.177507">
				<ele>244.2</ele>
				<time>2026-08-23T10:57:39.000Z</time>
			</trkpt>
			<trkpt lat="49.7885931" lon="10.1782687">
				<ele>243.9</ele>
				<time>2026-08-23T10:57:41.000Z</time>
			</trkpt>
			<trkpt lat="49.7885382" lon="10.1790345">
				<ele>244.2</ele>
				<time>2026-08-23T10:57:43.000Z</time>
			</trkpt>
			<trkpt lat="49.7884169" lon="10.1801735">
				<ele>245</ele>
				<time>2026-08-23T10:57:46.000Z</time>
			</trkpt>
			<trkpt lat="49.7882765" lon="10.1813208">
				<ele>244.5</ele>
				<time>2026-08-23T10:57:49.000Z</time>
			</trkpt>
			<trkpt lat="49.7881078" lon="10.1824333">
				<ele>245.3</ele>
				<time>2026-08-23T10:57:52.000Z</time>
			</trkpt>
			<trkpt lat="49.7879176" lon="10.1835245">
				<ele>245.7</ele>
				<time>2026-08-23T10:57:55.000Z</time>
			</trkpt>
			<trkpt lat="49.7876946" lon="10.1846103">
				<ele>247</ele>
				<time>2026-08-23T10:57:58.000Z</time>
			</trkpt>
			<trkpt lat="49.7875404" lon="10.18531">
				<ele>247.7</ele>
				<time>2026-08-23T10:58:00.000Z</time>
			</trkpt>
			<trkpt lat="49.7872998" lon="10.1863505">
				<ele>248.9</ele>
				<time>2026-08-23T10:58:03.000Z</time>
			</trkpt>
			<trkpt lat="49.7871282" lon="10.1870392">
				<ele>249.4</ele>
				<time>2026-08-23T10:58:05.000Z</time>
			</trkpt>
			<trkpt lat="49.7868652" lon="10.1880697">
				<ele>250.8</ele>
				<time>2026-08-23T10:58:08.000Z</time>
			</trkpt>
			<trkpt lat="49.7866816" lon="10.188754">
				<ele>251.3</ele>
				<time>2026-08-23T10:58:10.000Z</time>
			</trkpt>
			<trkpt lat="49.786394" lon="10.1897792">
				<ele>252.2</ele>
				<time>2026-08-23T10:58:13.000Z</time>
			</trkpt>
			<trkpt lat="49.7861034" lon="10.1908041">
				<ele>253.9</ele>
				<time>2026-08-23T10:58:16.000Z</time>
			</trkpt>
			<trkpt lat="49.7858124" lon="10.1918393">
				<ele>255.6</ele>
				<time>2026-08-23T10:58:19.000Z</time>
			</trkpt>
			<trkpt lat="49.7856227" lon="10.1925183">
				<ele>255.5</ele>
				<time>2026-08-23T10:58:21.000Z</time>
			</trkpt>
			<trkpt lat="49.7853334" lon="10.1935524">
				<ele>256.6</ele>
				<time>2026-08-23T10:58:24.000Z</time>
			</trkpt>
			<trkpt lat="49.7851447" lon="10.1942266">
				<ele>257.1</ele>
				<time>2026-08-23T10:58:26.000Z</time>
			</trkpt>
			<trkpt lat="49.7848598" lon="10.1952495">
				<ele>258.8</ele>
				<time>2026-08-23T10:58:29.000Z</time>
			</trkpt>
			<trkpt lat="49.7846722" lon="10.195934">
				<ele>258.6</ele>
				<time>2026-08-23T10:58:31.000Z</time>
			</trkpt>
			<trkpt lat="49.7843907" lon="10.1969606">
				<ele>259</ele>
				<time>2026-08-23T10:58:34.000Z</time>
			</trkpt>
			<trkpt lat="49.7842058" lon="10.1976558">
				<ele>258.8</ele>
				<time>2026-08-23T10:58:36.000Z</time>
			</trkpt>
			<trkpt lat="49.7839292" lon="10.1987199">
				<ele>259.5</ele>
				<time>2026-08-23T10:58:39.000Z</time>
			</trkpt>
			<trkpt lat="49.7837484" lon="10.1994366">
				<ele>260.2</ele>
				<time>2026-08-23T10:58:41.000Z</time>
			</trkpt>
			<trkpt lat="49.7834996" lon="10.2004774">
				<ele>260.1</ele>
				<time>2026-08-23T10:58:44.000Z</time>
			</trkpt>
			<trkpt lat="49.7832572" lon="10.2015309">
				<ele>262.2</ele>
				<time>2026-08-23T10:58:47.000Z</time>
			</trkpt>
			<trkpt lat="49.7830402" lon="10.2025651">
				<ele>263.5</ele>
				<time>2026-08-23T10:58:50.000Z</time>
			</trkpt>
			<trkpt lat="49.7828976" lon="10.203251">
				<ele>264.3</ele>
				<time>2026-08-23T10:58:52.000Z</time>
			</trkpt>
			<trkpt lat="49.7826914" lon="10.2042926">
				<ele>264.4</ele>
				<time>2026-08-23T10:58:55.000Z</time>
			</trkpt>
			<trkpt lat="49.7825583" lon="10.2049764">
				<ele>264.4</ele>
				<time>2026-08-23T10:58:57.000Z</time>
			</trkpt>
			<trkpt lat="49.782369" lon="10.2060099">
				<ele>264.1</ele>
				<time>2026-08-23T10:59:00.000Z</time>
			</trkpt>
			<trkpt lat="49.7821875" lon="10.2070461">
				<ele>264</ele>
				<time>2026-08-23T10:59:03.000Z</time>
			</trkpt>
			<trkpt lat="49.7820722" lon="10.2077528">
				<ele>265.2</ele>
				<time>2026-08-23T10:59:05.000Z</time>
			</trkpt>
			<trkpt lat="49.7819071" lon="10.2088162">
				<ele>266.3</ele>
				<time>2026-08-23T10:59:08.000Z</time>
			</trkpt>
			<trkpt lat="49.7818056" lon="10.2095261">
				<ele>266.9</ele>
				<time>2026-08-23T10:59:10.000Z</time>
			</trkpt>
			<trkpt lat="49.7816389" lon="10.2106472">
				<ele>265.8</ele>
				<time>2026-08-23T10:59:13.000Z</time>
			</trkpt>
			<trkpt lat="49.7814854" lon="10.2117579">
				<ele>265.6</ele>
				<time>2026-08-23T10:59:16.000Z</time>
			</trkpt>
			<trkpt lat="49.7813572" lon="10.2128817">
				<ele>265.1</ele>
				<time>2026-08-23T10:59:19.000Z</time>
			</trkpt>
			<trkpt lat="49.7812713" lon="10.2136407">
				<ele>265.7</ele>
				<time>2026-08-23T10:59:21.000Z</time>
			</trkpt>
			<trkpt lat="49.7811524" lon="10.2147947">
				<ele>265.7</ele>
				<time>2026-08-23T10:59:24.000Z</time>
			</trkpt>
			<trkpt lat="49.781045" lon="10.215956">
				<ele>266.5</ele>
				<time>2026-08-23T10:59:27.000Z</time>
			</trkpt>
			<trkpt lat="49.7809801" lon="10.2167416">
				<ele>266.1</ele>
				<time>2026-08-23T10:59:29.000Z</time>
			</trkpt>
			<trkpt lat="49.7809158" lon="10.2175298">
				<ele>265.8</ele>
				<time>2026-08-23T10:59:31.000Z</time>
			</trkpt>
			<trkpt lat="49.7808344" lon="10.218691">
				<ele>266.2</ele>
				<time>2026-08-23T10:59:34.000Z</time>
			</trkpt>
			<trkpt lat="49.7807645" lon="10.2198283">
				<ele>266.3</ele>
				<time>2026-08-23T10:59:37.000Z</time>
			</trkpt>
			<trkpt lat="49.7807177" lon="10.2205718">
				<ele>266.3</ele>
				<time>2026-08-23T10:59:39.000Z</time>
			</trkpt>
			<trkpt lat="49.780654" lon="10.2216826">
				<ele>266.5</ele>
				<time>2026-08-23T10:59:42.000Z</time>
			</trkpt>
			<trkpt lat="49.7805881" lon="10.222792">
				<ele>266.8</ele>
				<time>2026-08-23T10:59:45.000Z</time>
			</trkpt>
			<trkpt lat="49.7805279" lon="10.2239062">
				<ele>266.9</ele>
				<time>2026-08-23T10:59:48.000Z</time>
			</trkpt>
			<trkpt lat="49.7804881" lon="10.2246563">
				<ele>267.3</ele>
				<time>2026-08-23T10:59:50.000Z</time>
			</trkpt>
			<trkpt lat="49.7804406" lon="10.2257537">
				<ele>267.9</ele>
				<time>2026-08-23T10:59:53.000Z</time>
			</trkpt>
			<trkpt lat="49.7803908" lon="10.2268518">
				<ele>269.3</ele>
				<time>2026-08-23T10:59:56.000Z</time>
			</trkpt>
			<trkpt lat="49.7803615" lon="10.22759">
				<ele>269.7</ele>
				<time>2026-08-23T10:59:58.000Z</time>
			</trkpt>
			<trkpt lat="49.7803247" lon="10.228325">
				<ele>269.8</ele>
				<time>2026-08-23T11:00:00.000Z</time>
			</trkpt>
			<trkpt lat="49.7802816" lon="10.2294269">
				<ele>270.4</ele>
				<time>2026-08-23T11:00:03.000Z</time>
			</trkpt>
			<trkpt lat="49.7802519" lon="10.2304732">
				<ele>271.5</ele>
				<time>2026-08-23T11:00:06.000Z</time>
			</trkpt>
			<trkpt lat="49.7802279" lon="10.2311747">
				<ele>271.3</ele>
				<time>2026-08-23T11:00:08.000Z</time>
			</trkpt>
			<trkpt lat="49.7802068" lon="10.2318615">
				<ele>270.6</ele>
				<time>2026-08-23T11:00:10.000Z</time>
			</trkpt>
			<trkpt lat="49.7801755" lon="10.2329078">
				<ele>270.8</ele>
				<time>2026-08-23T11:00:13.000Z</time>
			</trkpt>
			<trkpt lat="49.7801567" lon="10.2336147">
				<ele>271</ele>
				<time>2026-08-23T11:00:15.000Z</time>
			</trkpt>
			<trkpt lat="49.7801311" lon="10.2346921">
				<ele>270.9</ele>
				<time>2026-08-23T11:00:18.000Z</time>
			</trkpt>
			<trkpt lat="49.7801049" lon="10.2357888">
				<ele>270.6</ele>
				<time>2026-08-23T11:00:21.000Z</time>
			</trkpt>
			<trkpt lat="49.7800885" lon="10.2365156">
				<ele>271</ele>
				<time>2026-08-23T11:00:23.000Z</time>
			</trkpt>
			<trkpt lat="49.780065" lon="10.2372116">
				<ele>270.6</ele>
				<time>2026-08-23T11:00:25.000Z</time>
			</trkpt>
			<trkpt lat="49.7800288" lon="10.2381991">
				<ele>270.8</ele>
				<time>2026-08-23T11:00:28.000Z</time>
			</trkpt>
			<trkpt lat="49.7800125" lon="10.2391551">
				<ele>270.7</ele>
				<time>2026-08-23T11:00:31.000Z</time>
			</trkpt>
			<trkpt lat="49.7800026" lon="10.2397548">
				<ele>270.4</ele>
				<time>2026-08-23T11:00:33.000Z</time>
			</trkpt>
			<trkpt lat="49.779984" lon="10.2405962">
				<ele>270</ele>
				<time>2026-08-23T11:00:36.000Z</time>
			</trkpt>
			<trkpt lat="49.7799564" lon="10.2411124">
				<ele>269.9</ele>
				<time>2026-08-23T11:00:38.000Z</time>
			</trkpt>
			<trkpt lat="49.7799064" lon="10.2418434">
				<ele>270.2</ele>
				<time>2026-08-23T11:00:41.000Z</time>
			</trkpt>
			<trkpt lat="49.77987" lon="10.2425086">
				<ele>270.8</ele>
				<time>2026-08-23T11:00:44.000Z</time>
			</trkpt>
			<trkpt lat="49.7798455" lon="10.2430991">
				<ele>271.4</ele>
				<time>2026-08-23T11:00:47.000Z</time>
			</trkpt>
			<trkpt lat="49.7798441" lon="10.2435631">
				<ele>271.9</ele>
				<time>2026-08-23T11:00:50.000Z</time>
			</trkpt>
			<trkpt lat="49.7798416" lon="10.2438256">
				<ele>272.2</ele>
				<time>2026-08-23T11:00:52.000Z</time>
			</trkpt>
			<trkpt lat="49.7798337" lon="10.2441494">
				<ele>273</ele>
				<time>2026-08-23T11:00:55.000Z</time>
			</trkpt>
			<trkpt lat="49.7797782" lon="10.2444137">
				<ele>274.8</ele>
				<time>2026-08-23T11:00:58.000Z</time>
			</trkpt>
			<trkpt lat="49.7797031" lon="10.2445814">
				<ele>275.1</ele>
				<time>2026-08-23T11:01:01.000Z</time>
			</trkpt>
			<trkpt lat="49.7796129" lon="10.2447738">
				<ele>276.2</ele>
				<time>2026-08-23T11:01:04.000Z</time>
			</trkpt>
			<trkpt lat="49.7795456" lon="10.2449505">
				<ele>276</ele>
				<time>2026-08-23T11:01:07.000Z</time>
			</trkpt>
			<trkpt lat="49.7794884" lon="10.2451293">
				<ele>276</ele>
				<time>2026-08-23T11:01:10.000Z</time>
			</trkpt>
			<trkpt lat="49.7794465" lon="10.2453233">
				<ele>274.4</ele>
				<time>2026-08-23T11:01:13.000Z</time>
			</trkpt>
			<trkpt lat="49.7794406" lon="10.2454997">
				<ele>273.6</ele>
				<time>2026-08-23T11:01:16.000Z</time>
			</trkpt>
			<trkpt lat="49.7794445" lon="10.2456617">
				<ele>272.8</ele>
				<time>2026-08-23T11:01:20.000Z</time>
			</trkpt>
			<trkpt lat="49.7794568" lon="10.2458205">
				<ele>271.6</ele>
				<time>2026-08-23T11:01:28.000Z</time>
			</trkpt>
			<trkpt lat="49.7794635" lon="10.2460081">
				<ele>270.6</ele>
				<time>2026-08-23T11:01:32.000Z</time>
			</trkpt>
			<trkpt lat="49.7794653" lon="10.2461547">
				<ele>270.7</ele>
				<time>2026-08-23T11:01:34.000Z</time>
			</trkpt>
			<trkpt lat="49.7794766" lon="10.2463645">
				<ele>270.6</ele>
				<time>2026-08-23T11:01:37.000Z</time>
			</trkpt>
			<trkpt lat="49.7795258" lon="10.2465388">
				<ele>270.9</ele>
				<time>2026-08-23T11:01:40.000Z</time>
			</trkpt>
			<trkpt lat="49.7795581" lon="10.2466711">
				<ele>270.7</ele>
				<time>2026-08-23T11:01:43.000Z</time>
			</trkpt>
			<trkpt lat="49.7795251" lon="10.2468106">
				<ele>272</ele>
				<time>2026-08-23T11:01:49.000Z</time>
			</trkpt>
			<trkpt lat="49.7794318" lon="10.2468795">
				<ele>271.4</ele>
				<time>2026-08-23T11:01:54.000Z</time>
			</trkpt>
			<trkpt lat="49.7793411" lon="10.2467799">
				<ele>272.1</ele>
				<time>2026-08-23T11:01:59.000Z</time>
			</trkpt>
			<trkpt lat="49.7792779" lon="10.2466398">
				<ele>272.6</ele>
				<time>2026-08-23T11:02:03.000Z</time>
			</trkpt>
			<trkpt lat="49.7792399" lon="10.2465047">
				<ele>274.6</ele>
				<time>2026-08-23T11:02:04.000Z</time>
			</trkpt>
			<trkpt lat="49.7792478" lon="10.2463596">
				<ele>272.3</ele>
				<time>2026-08-23T11:02:07.000Z</time>
			</trkpt>
			<trkpt lat="49.779265" lon="10.2462054">
				<ele>270.5</ele>
				<time>2026-08-23T11:02:10.000Z</time>
			</trkpt>
			<trkpt lat="49.7792173" lon="10.2460756">
				<ele>270.4</ele>
				<time>2026-08-23T11:02:13.000Z</time>
			</trkpt>
			<trkpt lat="49.779114" lon="10.2460791">
				<ele>269.9</ele>
				<time>2026-08-23T11:02:16.000Z</time>
			</trkpt>
			<trkpt lat="49.7791107" lon="10.2462914">
				<ele>267.6</ele>
				<time>2026-08-23T11:02:19.000Z</time>
			</trkpt>
			<trkpt lat="49.7791416" lon="10.2465606">
				<ele>267.7</ele>
				<time>2026-08-23T11:02:22.000Z</time>
			</trkpt>
			<trkpt lat="49.7791655" lon="10.2467499">
				<ele>267.8</ele>
				<time>2026-08-23T11:02:24.000Z</time>
			</trkpt>
			<trkpt lat="49.7791905" lon="10.2469711">
				<ele>267.8</ele>
				<time>2026-08-23T11:02:27.000Z</time>
			</trkpt>
			<trkpt lat="49.7792095" lon="10.2471224">
				<ele>268.8</ele>
				<time>2026-08-23T11:02:29.000Z</time>
			</trkpt>
			<trkpt lat="49.779231" lon="10.2474123">
				<ele>269.5</ele>
				<time>2026-08-23T11:02:32.000Z</time>
			</trkpt>
			<trkpt lat="49.7792418" lon="10.2476337">
				<ele>269.2</ele>
				<time>2026-08-23T11:02:34.000Z</time>
			</trkpt>
			<trkpt lat="49.7792484" lon="10.2479449">
				<ele>269.5</ele>
				<time>2026-08-23T11:02:37.000Z</time>
			</trkpt>
			<trkpt lat="49.7792438" lon="10.2481577">
				<ele>269.1</ele>
				<time>2026-08-23T11:02:40.000Z</time>
			</trkpt>
			<trkpt lat="49.7792307" lon="10.2483046">
				<ele>269</ele>
				<time>2026-08-23T11:02:43.000Z</time>
			</trkpt>
			<trkpt lat="49.7792414" lon="10.2484686">
				<ele>272.4</ele>
				<time>2026-08-23T11:04:06.000Z</time>
			</trkpt>
			<trkpt lat="49.7792763" lon="10.2486916">
				<ele>271.9</ele>
				<time>2026-08-23T11:04:10.000Z</time>
			</trkpt>
			<trkpt lat="49.7793081" lon="10.248984">
				<ele>271.7</ele>
				<time>2026-08-23T11:04:13.000Z</time>
			</trkpt>
			<trkpt lat="49.7793998" lon="10.2491129">
				<ele>271.2</ele>
				<time>2026-08-23T11:04:15.000Z</time>
			</trkpt>
			<trkpt lat="49.7795178" lon="10.2492027">
				<ele>269.1</ele>
				<time>2026-08-23T11:04:17.000Z</time>
			</trkpt>
			<trkpt lat="49.7797328" lon="10.2493206">
				<ele>271</ele>
				<time>2026-08-23T11:04:20.000Z</time>
			</trkpt>
			<trkpt lat="49.7799002" lon="10.2494153">
				<ele>269.8</ele>
				<time>2026-08-23T11:04:23.000Z</time>
			</trkpt>
			<trkpt lat="49.7799854" lon="10.2495067">
				<ele>270.4</ele>
				<time>2026-08-23T11:04:26.000Z</time>
			</trkpt>
			<trkpt lat="49.7800088" lon="10.2496788">
				<ele>270.3</ele>
				<time>2026-08-23T11:04:28.000Z</time>
			</trkpt>
			<trkpt lat="49.7800338" lon="10.2499174">
				<ele>270.1</ele>
				<time>2026-08-23T11:04:30.000Z</time>
			</trkpt>
			<trkpt lat="49.7800835" lon="10.2503697">
				<ele>270.2</ele>
				<time>2026-08-23T11:04:33.000Z</time>
			</trkpt>
			<trkpt lat="49.7801296" lon="10.2509833">
				<ele>269.9</ele>
				<time>2026-08-23T11:04:36.000Z</time>
			</trkpt>
			<trkpt lat="49.7801661" lon="10.251433">
				<ele>269.8</ele>
				<time>2026-08-23T11:04:38.000Z</time>
			</trkpt>
			<trkpt lat="49.7801975" lon="10.251932">
				<ele>270.5</ele>
				<time>2026-08-23T11:04:40.000Z</time>
			</trkpt>
			<trkpt lat="49.7802614" lon="10.252766">
				<ele>270.3</ele>
				<time>2026-08-23T11:04:43.000Z</time>
			</trkpt>
			<trkpt lat="49.7803252" lon="10.2536564">
				<ele>269.8</ele>
				<time>2026-08-23T11:04:46.000Z</time>
			</trkpt>
			<trkpt lat="49.7804098" lon="10.2545408">
				<ele>270.3</ele>
				<time>2026-08-23T11:04:49.000Z</time>
			</trkpt>
			<trkpt lat="49.7805035" lon="10.2554662">
				<ele>270.9</ele>
				<time>2026-08-23T11:04:52.000Z</time>
			</trkpt>
			<trkpt lat="49.7805651" lon="10.2561149">
				<ele>270.6</ele>
				<time>2026-08-23T11:04:54.000Z</time>
			</trkpt>
			<trkpt lat="49.7806654" lon="10.2571296">
				<ele>270.9</ele>
				<time>2026-08-23T11:04:57.000Z</time>
			</trkpt>
			<trkpt lat="49.78074" lon="10.2578334">
				<ele>271</ele>
				<time>2026-08-23T11:04:59.000Z</time>
			</trkpt>
			<trkpt lat="49.7808255" lon="10.2585577">
				<ele>271.2</ele>
				<time>2026-08-23T11:05:01.000Z</time>
			</trkpt>
			<trkpt lat="49.7809627" lon="10.2596804">
				<ele>271.1</ele>
				<time>2026-08-23T11:05:04.000Z</time>
			</trkpt>
			<trkpt lat="49.7811071" lon="10.2608237">
				<ele>271.3</ele>
				<time>2026-08-23T11:05:07.000Z</time>
			</trkpt>
			<trkpt lat="49.7812549" lon="10.261978">
				<ele>271.1</ele>
				<time>2026-08-23T11:05:10.000Z</time>
			</trkpt>
			<trkpt lat="49.7814158" lon="10.2631648">
				<ele>270.8</ele>
				<time>2026-08-23T11:05:13.000Z</time>
			</trkpt>
			<trkpt lat="49.781528" lon="10.2639759">
				<ele>270.5</ele>
				<time>2026-08-23T11:05:15.000Z</time>
			</trkpt>
			<trkpt lat="49.781643" lon="10.2647765">
				<ele>270.4</ele>
				<time>2026-08-23T11:05:17.000Z</time>
			</trkpt>
			<trkpt lat="49.7818187" lon="10.2660028">
				<ele>270.5</ele>
				<time>2026-08-23T11:05:20.000Z</time>
			</trkpt>
			<trkpt lat="49.7819931" lon="10.2672138">
				<ele>269.5</ele>
				<time>2026-08-23T11:05:23.000Z</time>
			</trkpt>
			<trkpt lat="49.782166" lon="10.268421">
				<ele>269.3</ele>
				<time>2026-08-23T11:05:26.000Z</time>
			</trkpt>
			<trkpt lat="49.7823292" lon="10.2696388">
				<ele>268.1</ele>
				<time>2026-08-23T11:05:29.000Z</time>
			</trkpt>
			<trkpt lat="49.7824287" lon="10.270463">
				<ele>268.4</ele>
				<time>2026-08-23T11:05:31.000Z</time>
			</trkpt>
			<trkpt lat="49.78252" lon="10.2712842">
				<ele>267.9</ele>
				<time>2026-08-23T11:05:33.000Z</time>
			</trkpt>
			<trkpt lat="49.7826106" lon="10.2720944">
				<ele>268.2</ele>
				<time>2026-08-23T11:05:35.000Z</time>
			</trkpt>
			<trkpt lat="49.7827192" lon="10.2733274">
				<ele>267.9</ele>
				<time>2026-08-23T11:05:38.000Z</time>
			</trkpt>
			<trkpt lat="49.7827754" lon="10.2741706">
				<ele>268.1</ele>
				<time>2026-08-23T11:05:40.000Z</time>
			</trkpt>
			<trkpt lat="49.7828228" lon="10.2750059">
				<ele>268.1</ele>
				<time>2026-08-23T11:05:42.000Z</time>
			</trkpt>
			<trkpt lat="49.7828538" lon="10.2758461">
				<ele>268.3</ele>
				<time>2026-08-23T11:05:44.000Z</time>
			</trkpt>
			<trkpt lat="49.7828854" lon="10.2771151">
				<ele>269.3</ele>
				<time>2026-08-23T11:05:47.000Z</time>
			</trkpt>
			<trkpt lat="49.7828946" lon="10.2783707">
				<ele>269.4</ele>
				<time>2026-08-23T11:05:50.000Z</time>
			</trkpt>
			<trkpt lat="49.7828711" lon="10.2796433">
				<ele>269.4</ele>
				<time>2026-08-23T11:05:53.000Z</time>
			</trkpt>
			<trkpt lat="49.7828291" lon="10.2808992">
				<ele>269.7</ele>
				<time>2026-08-23T11:05:56.000Z</time>
			</trkpt>
			<trkpt lat="49.7827606" lon="10.2821368">
				<ele>270.3</ele>
				<time>2026-08-23T11:05:59.000Z</time>
			</trkpt>
			<trkpt lat="49.7826671" lon="10.2833361">
				<ele>271.1</ele>
				<time>2026-08-23T11:06:02.000Z</time>
			</trkpt>
			<trkpt lat="49.7826017" lon="10.2841587">
				<ele>270.9</ele>
				<time>2026-08-23T11:06:04.000Z</time>
			</trkpt>
			<trkpt lat="49.7825014" lon="10.2853827">
				<ele>272.1</ele>
				<time>2026-08-23T11:06:07.000Z</time>
			</trkpt>
			<trkpt lat="49.7824057" lon="10.2861925">
				<ele>273.1</ele>
				<time>2026-08-23T11:06:09.000Z</time>
			</trkpt>
			<trkpt lat="49.7822315" lon="10.2873902">
				<ele>274</ele>
				<time>2026-08-23T11:06:12.000Z</time>
			</trkpt>
			<trkpt lat="49.7821056" lon="10.2881983">
				<ele>274.9</ele>
				<time>2026-08-23T11:06:14.000Z</time>
			</trkpt>
			<trkpt lat="49.7818932" lon="10.2893863">
				<ele>276.6</ele>
				<time>2026-08-23T11:06:17.000Z</time>
			</trkpt>
			<trkpt lat="49.7816601" lon="10.2905556">
				<ele>277.6</ele>
				<time>2026-08-23T11:06:20.000Z</time>
			</trkpt>
			<trkpt lat="49.7814049" lon="10.2917022">
				<ele>278.7</ele>
				<time>2026-08-23T11:06:23.000Z</time>
			</trkpt>
			<trkpt lat="49.7812171" lon="10.2924605">
				<ele>278.4</ele>
				<time>2026-08-23T11:06:25.000Z</time>
			</trkpt>
			<trkpt lat="49.7810199" lon="10.2932144">
				<ele>279.7</ele>
				<time>2026-08-23T11:06:27.000Z</time>
			</trkpt>
			<trkpt lat="49.7807177" lon="10.2943377">
				<ele>280.5</ele>
				<time>2026-08-23T11:06:30.000Z</time>
			</trkpt>
			<trkpt lat="49.7803951" lon="10.2954459">
				<ele>280.8</ele>
				<time>2026-08-23T11:06:33.000Z</time>
			</trkpt>
			<trkpt lat="49.780172" lon="10.2961938">
				<ele>281.9</ele>
				<time>2026-08-23T11:06:35.000Z</time>
			</trkpt>
			<trkpt lat="49.7799367" lon="10.2969206">
				<ele>282.3</ele>
				<time>2026-08-23T11:06:37.000Z</time>
			</trkpt>
			<trkpt lat="49.7795724" lon="10.2980082">
				<ele>283.4</ele>
				<time>2026-08-23T11:06:40.000Z</time>
			</trkpt>
			<trkpt lat="49.7793236" lon="10.2987205">
				<ele>284.2</ele>
				<time>2026-08-23T11:06:42.000Z</time>
			</trkpt>
			<trkpt lat="49.7789457" lon="10.299814">
				<ele>285.4</ele>
				<time>2026-08-23T11:06:45.000Z</time>
			</trkpt>
			<trkpt lat="49.7786884" lon="10.3005372">
				<ele>286</ele>
				<time>2026-08-23T11:06:47.000Z</time>
			</trkpt>
			<trkpt lat="49.7784268" lon="10.3012633">
				<ele>287.1</ele>
				<time>2026-08-23T11:06:49.000Z</time>
			</trkpt>
			<trkpt lat="49.77804" lon="10.3023448">
				<ele>288.4</ele>
				<time>2026-08-23T11:06:52.000Z</time>
			</trkpt>
			<trkpt lat="49.7777825" lon="10.3030757">
				<ele>288.7</ele>
				<time>2026-08-23T11:06:54.000Z</time>
			</trkpt>
			<trkpt lat="49.777396" lon="10.3041732">
				<ele>289.3</ele>
				<time>2026-08-23T11:06:57.000Z</time>
			</trkpt>
			<trkpt lat="49.7771407" lon="10.3049162">
				<ele>289.3</ele>
				<time>2026-08-23T11:06:59.000Z</time>
			</trkpt>
			<trkpt lat="49.7767667" lon="10.3060415">
				<ele>290</ele>
				<time>2026-08-23T11:07:02.000Z</time>
			</trkpt>
			<trkpt lat="49.7763996" lon="10.3071868">
				<ele>290.4</ele>
				<time>2026-08-23T11:07:05.000Z</time>
			</trkpt>
			<trkpt lat="49.7761655" lon="10.3079616">
				<ele>290.6</ele>
				<time>2026-08-23T11:07:07.000Z</time>
			</trkpt>
			<trkpt lat="49.7758348" lon="10.3091429">
				<ele>290.5</ele>
				<time>2026-08-23T11:07:10.000Z</time>
			</trkpt>
			<trkpt lat="49.7755238" lon="10.3103632">
				<ele>288.5</ele>
				<time>2026-08-23T11:07:13.000Z</time>
			</trkpt>
			<trkpt lat="49.7752357" lon="10.3115998">
				<ele>288.9</ele>
				<time>2026-08-23T11:07:16.000Z</time>
			</trkpt>
			<trkpt lat="49.7749641" lon="10.3128783">
				<ele>289.9</ele>
				<time>2026-08-23T11:07:19.000Z</time>
			</trkpt>
			<trkpt lat="49.7747942" lon="10.3137282">
				<ele>289.9</ele>
				<time>2026-08-23T11:07:21.000Z</time>
			</trkpt>
			<trkpt lat="49.7745695" lon="10.3150286">
				<ele>290.5</ele>
				<time>2026-08-23T11:07:24.000Z</time>
			</trkpt>
			<trkpt lat="49.7743702" lon="10.3163391">
				<ele>291.8</ele>
				<time>2026-08-23T11:07:27.000Z</time>
			</trkpt>
			<trkpt lat="49.7742504" lon="10.3172227">
				<ele>291.9</ele>
				<time>2026-08-23T11:07:29.000Z</time>
			</trkpt>
			<trkpt lat="49.7740984" lon="10.3185612">
				<ele>292.1</ele>
				<time>2026-08-23T11:07:32.000Z</time>
			</trkpt>
			<trkpt lat="49.7740149" lon="10.3194496">
				<ele>292</ele>
				<time>2026-08-23T11:07:34.000Z</time>
			</trkpt>
			<trkpt lat="49.7739155" lon="10.3207967">
				<ele>292.2</ele>
				<time>2026-08-23T11:07:37.000Z</time>
			</trkpt>
			<trkpt lat="49.7738644" lon="10.3216944">
				<ele>292.2</ele>
				<time>2026-08-23T11:07:39.000Z</time>
			</trkpt>
			<trkpt lat="49.7738036" lon="10.3230041">
				<ele>292.7</ele>
				<time>2026-08-23T11:07:42.000Z</time>
			</trkpt>
			<trkpt lat="49.7737777" lon="10.3238798">
				<ele>293.1</ele>
				<time>2026-08-23T11:07:44.000Z</time>
			</trkpt>
			<trkpt lat="49.7737645" lon="10.3251917">
				<ele>294.1</ele>
				<time>2026-08-23T11:07:47.000Z</time>
			</trkpt>
			<trkpt lat="49.7737788" lon="10.3265074">
				<ele>294</ele>
				<time>2026-08-23T11:07:50.000Z</time>
			</trkpt>
			<trkpt lat="49.7738183" lon="10.3278278">
				<ele>294.9</ele>
				<time>2026-08-23T11:07:53.000Z</time>
			</trkpt>
			<trkpt lat="49.7738754" lon="10.3291408">
				<ele>295.8</ele>
				<time>2026-08-23T11:07:56.000Z</time>
			</trkpt>
			<trkpt lat="49.7739667" lon="10.33046">
				<ele>297.1</ele>
				<time>2026-08-23T11:07:59.000Z</time>
			</trkpt>
			<trkpt lat="49.7740397" lon="10.3313388">
				<ele>297.5</ele>
				<time>2026-08-23T11:08:01.000Z</time>
			</trkpt>
			<trkpt lat="49.7741659" lon="10.3326407">
				<ele>298.8</ele>
				<time>2026-08-23T11:08:04.000Z</time>
			</trkpt>
			<trkpt lat="49.7742943" lon="10.3339364">
				<ele>300.4</ele>
				<time>2026-08-23T11:08:07.000Z</time>
			</trkpt>
			<trkpt lat="49.7744283" lon="10.3352242">
				<ele>301</ele>
				<time>2026-08-23T11:08:10.000Z</time>
			</trkpt>
			<trkpt lat="49.7745205" lon="10.3360689">
				<ele>302.1</ele>
				<time>2026-08-23T11:08:12.000Z</time>
			</trkpt>
			<trkpt lat="49.7746104" lon="10.3369116">
				<ele>302.8</ele>
				<time>2026-08-23T11:08:14.000Z</time>
			</trkpt>
			<trkpt lat="49.7747429" lon="10.3381779">
				<ele>304.2</ele>
				<time>2026-08-23T11:08:17.000Z</time>
			</trkpt>
			<trkpt lat="49.7748211" lon="10.3390063">
				<ele>305.3</ele>
				<time>2026-08-23T11:08:19.000Z</time>
			</trkpt>
			<trkpt lat="49.7749285" lon="10.3402495">
				<ele>307.1</ele>
				<time>2026-08-23T11:08:22.000Z</time>
			</trkpt>
			<trkpt lat="49.7750294" lon="10.3414849">
				<ele>309.5</ele>
				<time>2026-08-23T11:08:25.000Z</time>
			</trkpt>
			<trkpt lat="49.7750842" lon="10.3423048">
				<ele>311.5</ele>
				<time>2026-08-23T11:08:27.000Z</time>
			</trkpt>
			<trkpt lat="49.7751448" lon="10.3435699">
				<ele>315.1</ele>
				<time>2026-08-23T11:08:30.000Z</time>
			</trkpt>
			<trkpt lat="49.7751738" lon="10.3443982">
				<ele>316.5</ele>
				<time>2026-08-23T11:08:32.000Z</time>
			</trkpt>
			<trkpt lat="49.7752063" lon="10.3456321">
				<ele>318.5</ele>
				<time>2026-08-23T11:08:35.000Z</time>
			</trkpt>
			<trkpt lat="49.7752236" lon="10.346864">
				<ele>320.2</ele>
				<time>2026-08-23T11:08:38.000Z</time>
			</trkpt>
			<trkpt lat="49.7752175" lon="10.3480923">
				<ele>321.8</ele>
				<time>2026-08-23T11:08:41.000Z</time>
			</trkpt>
			<trkpt lat="49.7752038" lon="10.3493171">
				<ele>323.7</ele>
				<time>2026-08-23T11:08:44.000Z</time>
			</trkpt>
			<trkpt lat="49.775171" lon="10.3505362">
				<ele>325.1</ele>
				<time>2026-08-23T11:08:47.000Z</time>
			</trkpt>
			<trkpt lat="49.7751264" lon="10.3517649">
				<ele>326.5</ele>
				<time>2026-08-23T11:08:50.000Z</time>
			</trkpt>
			<trkpt lat="49.7750887" lon="10.3525828">
				<ele>327.5</ele>
				<time>2026-08-23T11:08:52.000Z</time>
			</trkpt>
			<trkpt lat="49.77503" lon="10.3538069">
				<ele>328.4</ele>
				<time>2026-08-23T11:08:55.000Z</time>
			</trkpt>
			<trkpt lat="49.7749612" lon="10.3550336">
				<ele>330</ele>
				<time>2026-08-23T11:08:58.000Z</time>
			</trkpt>
			<trkpt lat="49.774883" lon="10.3562695">
				<ele>331.3</ele>
				<time>2026-08-23T11:09:01.000Z</time>
			</trkpt>
			<trkpt lat="49.7747964" lon="10.3575086">
				<ele>331.9</ele>
				<time>2026-08-23T11:09:04.000Z</time>
			</trkpt>
			<trkpt lat="49.774745" lon="10.3583473">
				<ele>332.5</ele>
				<time>2026-08-23T11:09:06.000Z</time>
			</trkpt>
			<trkpt lat="49.7746551" lon="10.3596099">
				<ele>333.7</ele>
				<time>2026-08-23T11:09:09.000Z</time>
			</trkpt>
			<trkpt lat="49.7745698" lon="10.360873">
				<ele>334.3</ele>
				<time>2026-08-23T11:09:12.000Z</time>
			</trkpt>
			<trkpt lat="49.7745034" lon="10.3617138">
				<ele>335.7</ele>
				<time>2026-08-23T11:09:14.000Z</time>
			</trkpt>
			<trkpt lat="49.7744177" lon="10.3629889">
				<ele>336.9</ele>
				<time>2026-08-23T11:09:17.000Z</time>
			</trkpt>
			<trkpt lat="49.774354" lon="10.3638454">
				<ele>337.5</ele>
				<time>2026-08-23T11:09:19.000Z</time>
			</trkpt>
			<trkpt lat="49.7742699" lon="10.3651188">
				<ele>338.7</ele>
				<time>2026-08-23T11:09:22.000Z</time>
			</trkpt>
			<trkpt lat="49.7742196" lon="10.3659654">
				<ele>339.8</ele>
				<time>2026-08-23T11:09:24.000Z</time>
			</trkpt>
			<trkpt lat="49.7741429" lon="10.3672497">
				<ele>341.2</ele>
				<time>2026-08-23T11:09:27.000Z</time>
			</trkpt>
			<trkpt lat="49.7740769" lon="10.3685289">
				<ele>342.4</ele>
				<time>2026-08-23T11:09:30.000Z</time>
			</trkpt>
			<trkpt lat="49.7740311" lon="10.3698295">
				<ele>343.3</ele>
				<time>2026-08-23T11:09:33.000Z</time>
			</trkpt>
			<trkpt lat="49.7739941" lon="10.3711191">
				<ele>344.5</ele>
				<time>2026-08-23T11:09:36.000Z</time>
			</trkpt>
			<trkpt lat="49.7739692" lon="10.3724021">
				<ele>346.2</ele>
				<time>2026-08-23T11:09:39.000Z</time>
			</trkpt>
			<trkpt lat="49.7739606" lon="10.3732602">
				<ele>346.7</ele>
				<time>2026-08-23T11:09:41.000Z</time>
			</trkpt>
			<trkpt lat="49.7739665" lon="10.3745448">
				<ele>348.3</ele>
				<time>2026-08-23T11:09:44.000Z</time>
			</trkpt>
			<trkpt lat="49.7739943" lon="10.375832">
				<ele>349.7</ele>
				<time>2026-08-23T11:09:47.000Z</time>
			</trkpt>
			<trkpt lat="49.774019" lon="10.3767061">
				<ele>350.5</ele>
				<time>2026-08-23T11:09:49.000Z</time>
			</trkpt>
			<trkpt lat="49.774074" lon="10.3779986">
				<ele>352.1</ele>
				<time>2026-08-23T11:09:52.000Z</time>
			</trkpt>
			<trkpt lat="49.7741457" lon="10.3792761">
				<ele>353.8</ele>
				<time>2026-08-23T11:09:55.000Z</time>
			</trkpt>
			<trkpt lat="49.7742324" lon="10.3805548">
				<ele>355.5</ele>
				<time>2026-08-23T11:09:58.000Z</time>
			</trkpt>
			<trkpt lat="49.7743425" lon="10.3818292">
				<ele>357.2</ele>
				<time>2026-08-23T11:10:01.000Z</time>
			</trkpt>
			<trkpt lat="49.7744236" lon="10.382682">
				<ele>358.2</ele>
				<time>2026-08-23T11:10:03.000Z</time>
			</trkpt>
			<trkpt lat="49.7745679" lon="10.3839406">
				<ele>360.2</ele>
				<time>2026-08-23T11:10:06.000Z</time>
			</trkpt>
			<trkpt lat="49.7747268" lon="10.3851857">
				<ele>361.8</ele>
				<time>2026-08-23T11:10:09.000Z</time>
			</trkpt>
			<trkpt lat="49.7749053" lon="10.3864174">
				<ele>363.6</ele>
				<time>2026-08-23T11:10:12.000Z</time>
			</trkpt>
			<trkpt lat="49.7751004" lon="10.387643">
				<ele>365</ele>
				<time>2026-08-23T11:10:15.000Z</time>
			</trkpt>
			<trkpt lat="49.7753182" lon="10.3888655">
				<ele>365.6</ele>
				<time>2026-08-23T11:10:18.000Z</time>
			</trkpt>
			<trkpt lat="49.7754702" lon="10.3896711">
				<ele>366.4</ele>
				<time>2026-08-23T11:10:20.000Z</time>
			</trkpt>
			<trkpt lat="49.7757247" lon="10.3908695">
				<ele>367.3</ele>
				<time>2026-08-23T11:10:23.000Z</time>
			</trkpt>
			<trkpt lat="49.7758955" lon="10.3916635">
				<ele>367.8</ele>
				<time>2026-08-23T11:10:25.000Z</time>
			</trkpt>
			<trkpt lat="49.7761694" lon="10.3928626">
				<ele>369</ele>
				<time>2026-08-23T11:10:28.000Z</time>
			</trkpt>
			<trkpt lat="49.7764575" lon="10.3940386">
				<ele>370.6</ele>
				<time>2026-08-23T11:10:31.000Z</time>
			</trkpt>
			<trkpt lat="49.7767712" lon="10.3952009">
				<ele>373.2</ele>
				<time>2026-08-23T11:10:34.000Z</time>
			</trkpt>
			<trkpt lat="49.7770979" lon="10.3963596">
				<ele>374.9</ele>
				<time>2026-08-23T11:10:37.000Z</time>
			</trkpt>
			<trkpt lat="49.7773254" lon="10.3971312">
				<ele>376.2</ele>
				<time>2026-08-23T11:10:39.000Z</time>
			</trkpt>
			<trkpt lat="49.7776808" lon="10.3982711">
				<ele>377.8</ele>
				<time>2026-08-23T11:10:42.000Z</time>
			</trkpt>
			<trkpt lat="49.7780453" lon="10.399394">
				<ele>379.9</ele>
				<time>2026-08-23T11:10:45.000Z</time>
			</trkpt>
			<trkpt lat="49.7783008" lon="10.400153">
				<ele>380.8</ele>
				<time>2026-08-23T11:10:47.000Z</time>
			</trkpt>
			<trkpt lat="49.7785567" lon="10.4008955">
				<ele>382</ele>
				<time>2026-08-23T11:10:49.000Z</time>
			</trkpt>
			<trkpt lat="49.7789455" lon="10.4020283">
				<ele>383.4</ele>
				<time>2026-08-23T11:10:52.000Z</time>
			</trkpt>
			<trkpt lat="49.7793452" lon="10.4031352">
				<ele>384.8</ele>
				<time>2026-08-23T11:10:55.000Z</time>
			</trkpt>
			<trkpt lat="49.7797494" lon="10.4042276">
				<ele>386.4</ele>
				<time>2026-08-23T11:10:58.000Z</time>
			</trkpt>
			<trkpt lat="49.7800102" lon="10.4049278">
				<ele>387.3</ele>
				<time>2026-08-23T11:11:00.000Z</time>
			</trkpt>
			<trkpt lat="49.7803985" lon="10.405948">
				<ele>389</ele>
				<time>2026-08-23T11:11:03.000Z</time>
			</trkpt>
			<trkpt lat="49.7807857" lon="10.4069566">
				<ele>390.1</ele>
				<time>2026-08-23T11:11:06.000Z</time>
			</trkpt>
			<trkpt lat="49.7811674" lon="10.4079575">
				<ele>391.7</ele>
				<time>2026-08-23T11:11:09.000Z</time>
			</trkpt>
			<trkpt lat="49.7814355" lon="10.408608">
				<ele>391.9</ele>
				<time>2026-08-23T11:11:11.000Z</time>
			</trkpt>
			<trkpt lat="49.7817215" lon="10.4092616">
				<ele>392.8</ele>
				<time>2026-08-23T11:11:13.000Z</time>
			</trkpt>
			<trkpt lat="49.7821215" lon="10.4102815">
				<ele>394.7</ele>
				<time>2026-08-23T11:11:16.000Z</time>
			</trkpt>
			<trkpt lat="49.7825112" lon="10.4113547">
				<ele>396.5</ele>
				<time>2026-08-23T11:11:19.000Z</time>
			</trkpt>
			<trkpt lat="49.7828911" lon="10.4124617">
				<ele>398.5</ele>
				<time>2026-08-23T11:11:22.000Z</time>
			</trkpt>
			<trkpt lat="49.7831515" lon="10.4132047">
				<ele>399.9</ele>
				<time>2026-08-23T11:11:24.000Z</time>
			</trkpt>
			<trkpt lat="49.7835164" lon="10.4143492">
				<ele>401.2</ele>
				<time>2026-08-23T11:11:27.000Z</time>
			</trkpt>
			<trkpt lat="49.7837347" lon="10.4151194">
				<ele>402.7</ele>
				<time>2026-08-23T11:11:29.000Z</time>
			</trkpt>
			<trkpt lat="49.7840724" lon="10.4163021">
				<ele>404.8</ele>
				<time>2026-08-23T11:11:32.000Z</time>
			</trkpt>
			<trkpt lat="49.7842763" lon="10.4170864">
				<ele>406.6</ele>
				<time>2026-08-23T11:11:34.000Z</time>
			</trkpt>
			<trkpt lat="49.7845658" lon="10.4182796">
				<ele>408.9</ele>
				<time>2026-08-23T11:11:37.000Z</time>
			</trkpt>
			<trkpt lat="49.7847437" lon="10.4190788">
				<ele>410.9</ele>
				<time>2026-08-23T11:11:39.000Z</time>
			</trkpt>
			<trkpt lat="49.7849793" lon="10.4202932">
				<ele>413</ele>
				<time>2026-08-23T11:11:42.000Z</time>
			</trkpt>
			<trkpt lat="49.7851095" lon="10.421102">
				<ele>414.6</ele>
				<time>2026-08-23T11:11:44.000Z</time>
			</trkpt>
			<trkpt lat="49.7852275" lon="10.4219256">
				<ele>416.2</ele>
				<time>2026-08-23T11:11:46.000Z</time>
			</trkpt>
			<trkpt lat="49.7853735" lon="10.4231744">
				<ele>418.5</ele>
				<time>2026-08-23T11:11:49.000Z</time>
			</trkpt>
			<trkpt lat="49.785482" lon="10.4244085">
				<ele>421.4</ele>
				<time>2026-08-23T11:11:52.000Z</time>
			</trkpt>
			<trkpt lat="49.7855386" lon="10.4252447">
				<ele>423</ele>
				<time>2026-08-23T11:11:54.000Z</time>
			</trkpt>
			<trkpt lat="49.7855765" lon="10.4260794">
				<ele>424.8</ele>
				<time>2026-08-23T11:11:56.000Z</time>
			</trkpt>
			<trkpt lat="49.7855994" lon="10.4273524">
				<ele>426.6</ele>
				<time>2026-08-23T11:11:59.000Z</time>
			</trkpt>
			<trkpt lat="49.7855848" lon="10.4286134">
				<ele>428.4</ele>
				<time>2026-08-23T11:12:02.000Z</time>
			</trkpt>
			<trkpt lat="49.7855545" lon="10.4294536">
				<ele>428.8</ele>
				<time>2026-08-23T11:12:04.000Z</time>
			</trkpt>
			<trkpt lat="49.7855044" lon="10.4303027">
				<ele>430.5</ele>
				<time>2026-08-23T11:12:06.000Z</time>
			</trkpt>
			<trkpt lat="49.7853982" lon="10.4315681">
				<ele>430</ele>
				<time>2026-08-23T11:12:09.000Z</time>
			</trkpt>
			<trkpt lat="49.7852574" lon="10.4328499">
				<ele>430.5</ele>
				<time>2026-08-23T11:12:12.000Z</time>
			</trkpt>
			<trkpt lat="49.7851303" lon="10.4337078">
				<ele>431.1</ele>
				<time>2026-08-23T11:12:14.000Z</time>
			</trkpt>
			<trkpt lat="49.7849874" lon="10.4345686">
				<ele>431</ele>
				<time>2026-08-23T11:12:16.000Z</time>
			</trkpt>
			<trkpt lat="49.7847446" lon="10.435879">
				<ele>430.5</ele>
				<time>2026-08-23T11:12:19.000Z</time>
			</trkpt>
			<trkpt lat="49.7844486" lon="10.4371879">
				<ele>430</ele>
				<time>2026-08-23T11:12:22.000Z</time>
			</trkpt>
			<trkpt lat="49.7841068" lon="10.4384896">
				<ele>428.4</ele>
				<time>2026-08-23T11:12:25.000Z</time>
			</trkpt>
			<trkpt lat="49.7838553" lon="10.4393463">
				<ele>427.7</ele>
				<time>2026-08-23T11:12:27.000Z</time>
			</trkpt>
			<trkpt lat="49.7835923" lon="10.4401694">
				<ele>426.6</ele>
				<time>2026-08-23T11:12:29.000Z</time>
			</trkpt>
			<trkpt lat="49.7831768" lon="10.441377">
				<ele>424.4</ele>
				<time>2026-08-23T11:12:32.000Z</time>
			</trkpt>
			<trkpt lat="49.7826891" lon="10.4425409">
				<ele>423.7</ele>
				<time>2026-08-23T11:12:35.000Z</time>
			</trkpt>
			<trkpt lat="49.7821794" lon="10.4437083">
				<ele>421.3</ele>
				<time>2026-08-23T11:12:38.000Z</time>
			</trkpt>
			<trkpt lat="49.7816358" lon="10.44485">
				<ele>417.7</ele>
				<time>2026-08-23T11:12:41.000Z</time>
			</trkpt>
			<trkpt lat="49.7810875" lon="10.4459624">
				<ele>416.8</ele>
				<time>2026-08-23T11:12:44.000Z</time>
			</trkpt>
			<trkpt lat="49.7805288" lon="10.44704">
				<ele>415.4</ele>
				<time>2026-08-23T11:12:47.000Z</time>
			</trkpt>
			<trkpt lat="49.780155" lon="10.4477652">
				<ele>413.4</ele>
				<time>2026-08-23T11:12:49.000Z</time>
			</trkpt>
			<trkpt lat="49.779772" lon="10.4484881">
				<ele>412.4</ele>
				<time>2026-08-23T11:12:51.000Z</time>
			</trkpt>
			<trkpt lat="49.7792025" lon="10.4495872">
				<ele>410.3</ele>
				<time>2026-08-23T11:12:54.000Z</time>
			</trkpt>
			<trkpt lat="49.7786204" lon="10.4506741">
				<ele>409.1</ele>
				<time>2026-08-23T11:12:57.000Z</time>
			</trkpt>
			<trkpt lat="49.7780377" lon="10.4517831">
				<ele>407.9</ele>
				<time>2026-08-23T11:13:00.000Z</time>
			</trkpt>
			<trkpt lat="49.7774485" lon="10.4528957">
				<ele>407.4</ele>
				<time>2026-08-23T11:13:03.000Z</time>
			</trkpt>
			<trkpt lat="49.776866" lon="10.454">
				<ele>406</ele>
				<time>2026-08-23T11:13:06.000Z</time>
			</trkpt>
			<trkpt lat="49.7762834" lon="10.4551077">
				<ele>404.9</ele>
				<time>2026-08-23T11:13:09.000Z</time>
			</trkpt>
			<trkpt lat="49.7756985" lon="10.4562081">
				<ele>403.2</ele>
				<time>2026-08-23T11:13:12.000Z</time>
			</trkpt>
			<trkpt lat="49.7753125" lon="10.4569358">
				<ele>402.9</ele>
				<time>2026-08-23T11:13:14.000Z</time>
			</trkpt>
			<trkpt lat="49.7747344" lon="10.4580208">
				<ele>403</ele>
				<time>2026-08-23T11:13:17.000Z</time>
			</trkpt>
			<trkpt lat="49.7741655" lon="10.4591224">
				<ele>401.8</ele>
				<time>2026-08-23T11:13:20.000Z</time>
			</trkpt>
			<trkpt lat="49.773792" lon="10.4598602">
				<ele>401.8</ele>
				<time>2026-08-23T11:13:22.000Z</time>
			</trkpt>
			<trkpt lat="49.7732571" lon="10.4609708">
				<ele>402.8</ele>
				<time>2026-08-23T11:13:25.000Z</time>
			</trkpt>
			<trkpt lat="49.7727527" lon="10.4621099">
				<ele>402.5</ele>
				<time>2026-08-23T11:13:28.000Z</time>
			</trkpt>
			<trkpt lat="49.7723044" lon="10.463227">
				<ele>401.5</ele>
				<time>2026-08-23T11:13:31.000Z</time>
			</trkpt>
			<trkpt lat="49.7719618" lon="10.4642534">
				<ele>399.4</ele>
				<time>2026-08-23T11:13:34.000Z</time>
			</trkpt>
			<trkpt lat="49.7717418" lon="10.4649588">
				<ele>398.7</ele>
				<time>2026-08-23T11:13:36.000Z</time>
			</trkpt>
			<trkpt lat="49.7714103" lon="10.4660546">
				<ele>398.3</ele>
				<time>2026-08-23T11:13:39.000Z</time>
			</trkpt>
			<trkpt lat="49.7712011" lon="10.4668179">
				<ele>398.1</ele>
				<time>2026-08-23T11:13:41.000Z</time>
			</trkpt>
			<trkpt lat="49.7709017" lon="10.4680112">
				<ele>398.2</ele>
				<time>2026-08-23T11:13:44.000Z</time>
			</trkpt>
			<trkpt lat="49.7707227" lon="10.4688337">
				<ele>397.5</ele>
				<time>2026-08-23T11:13:46.000Z</time>
			</trkpt>
			<trkpt lat="49.7704784" lon="10.4701011">
				<ele>398.5</ele>
				<time>2026-08-23T11:13:49.000Z</time>
			</trkpt>
			<trkpt lat="49.7703375" lon="10.470975">
				<ele>398.5</ele>
				<time>2026-08-23T11:13:51.000Z</time>
			</trkpt>
			<trkpt lat="49.7702104" lon="10.4718627">
				<ele>399.5</ele>
				<time>2026-08-23T11:13:53.000Z</time>
			</trkpt>
			<trkpt lat="49.7700413" lon="10.473221">
				<ele>399.7</ele>
				<time>2026-08-23T11:13:56.000Z</time>
			</trkpt>
			<trkpt lat="49.7698872" lon="10.4745793">
				<ele>399.1</ele>
				<time>2026-08-23T11:13:59.000Z</time>
			</trkpt>
			<trkpt lat="49.769767" lon="10.4759735">
				<ele>398.9</ele>
				<time>2026-08-23T11:14:02.000Z</time>
			</trkpt>
			<trkpt lat="49.7697013" lon="10.4769042">
				<ele>398.9</ele>
				<time>2026-08-23T11:14:04.000Z</time>
			</trkpt>
			<trkpt lat="49.7696021" lon="10.4782889">
				<ele>397.9</ele>
				<time>2026-08-23T11:14:07.000Z</time>
			</trkpt>
			<trkpt lat="49.7695334" lon="10.4792163">
				<ele>397.1</ele>
				<time>2026-08-23T11:14:09.000Z</time>
			</trkpt>
			<trkpt lat="49.7694334" lon="10.4805937">
				<ele>395.1</ele>
				<time>2026-08-23T11:14:12.000Z</time>
			</trkpt>
			<trkpt lat="49.769336" lon="10.4819588">
				<ele>393</ele>
				<time>2026-08-23T11:14:15.000Z</time>
			</trkpt>
			<trkpt lat="49.7692294" lon="10.4833237">
				<ele>391.7</ele>
				<time>2026-08-23T11:14:18.000Z</time>
			</trkpt>
			<trkpt lat="49.7691573" lon="10.4842484">
				<ele>391</ele>
				<time>2026-08-23T11:14:20.000Z</time>
			</trkpt>
			<trkpt lat="49.7690845" lon="10.4851642">
				<ele>389.3</ele>
				<time>2026-08-23T11:14:22.000Z</time>
			</trkpt>
			<trkpt lat="49.7689644" lon="10.4865464">
				<ele>387.2</ele>
				<time>2026-08-23T11:14:25.000Z</time>
			</trkpt>
			<trkpt lat="49.7688346" lon="10.4879467">
				<ele>385.4</ele>
				<time>2026-08-23T11:14:28.000Z</time>
			</trkpt>
			<trkpt lat="49.7686925" lon="10.4893538">
				<ele>384.3</ele>
				<time>2026-08-23T11:14:31.000Z</time>
			</trkpt>
			<trkpt lat="49.7685905" lon="10.490293">
				<ele>383.5</ele>
				<time>2026-08-23T11:14:33.000Z</time>
			</trkpt>
			<trkpt lat="49.7684354" lon="10.4916842">
				<ele>383.8</ele>
				<time>2026-08-23T11:14:36.000Z</time>
			</trkpt>
			<trkpt lat="49.7682629" lon="10.4930023">
				<ele>383.9</ele>
				<time>2026-08-23T11:14:39.000Z</time>
			</trkpt>
			<trkpt lat="49.7681461" lon="10.4938496">
				<ele>384.2</ele>
				<time>2026-08-23T11:14:41.000Z</time>
			</trkpt>
			<trkpt lat="49.7679649" lon="10.4950988">
				<ele>384.6</ele>
				<time>2026-08-23T11:14:44.000Z</time>
			</trkpt>
			<trkpt lat="49.7677808" lon="10.4963216">
				<ele>385.4</ele>
				<time>2026-08-23T11:14:47.000Z</time>
			</trkpt>
			<trkpt lat="49.7676521" lon="10.4971373">
				<ele>385.8</ele>
				<time>2026-08-23T11:14:49.000Z</time>
			</trkpt>
			<trkpt lat="49.7674472" lon="10.4983567">
				<ele>386.7</ele>
				<time>2026-08-23T11:14:52.000Z</time>
			</trkpt>
			<trkpt lat="49.7673113" lon="10.4991664">
				<ele>387</ele>
				<time>2026-08-23T11:14:54.000Z</time>
			</trkpt>
			<trkpt lat="49.7670984" lon="10.5004092">
				<ele>386.9</ele>
				<time>2026-08-23T11:14:57.000Z</time>
			</trkpt>
			<trkpt lat="49.7669554" lon="10.5012418">
				<ele>387.4</ele>
				<time>2026-08-23T11:14:59.000Z</time>
			</trkpt>
			<trkpt lat="49.7667307" lon="10.5025015">
				<ele>387.5</ele>
				<time>2026-08-23T11:15:02.000Z</time>
			</trkpt>
			<trkpt lat="49.7665006" lon="10.5037639">
				<ele>387.5</ele>
				<time>2026-08-23T11:15:05.000Z</time>
			</trkpt>
			<trkpt lat="49.7663499" lon="10.5046137">
				<ele>386.7</ele>
				<time>2026-08-23T11:15:07.000Z</time>
			</trkpt>
			<trkpt lat="49.7661193" lon="10.5058914">
				<ele>385.8</ele>
				<time>2026-08-23T11:15:10.000Z</time>
			</trkpt>
			<trkpt lat="49.765977" lon="10.5067505">
				<ele>386.1</ele>
				<time>2026-08-23T11:15:12.000Z</time>
			</trkpt>
			<trkpt lat="49.7657486" lon="10.5080392">
				<ele>385.6</ele>
				<time>2026-08-23T11:15:15.000Z</time>
			</trkpt>
			<trkpt lat="49.7655105" lon="10.50933">
				<ele>385.4</ele>
				<time>2026-08-23T11:15:18.000Z</time>
			</trkpt>
			<trkpt lat="49.7652844" lon="10.5106042">
				<ele>386</ele>
				<time>2026-08-23T11:15:21.000Z</time>
			</trkpt>
			<trkpt lat="49.7651363" lon="10.5114434">
				<ele>386.7</ele>
				<time>2026-08-23T11:15:23.000Z</time>
			</trkpt>
			<trkpt lat="49.7649254" lon="10.5127028">
				<ele>386.5</ele>
				<time>2026-08-23T11:15:26.000Z</time>
			</trkpt>
			<trkpt lat="49.7647943" lon="10.5135322">
				<ele>387.1</ele>
				<time>2026-08-23T11:15:28.000Z</time>
			</trkpt>
			<trkpt lat="49.7646038" lon="10.5147801">
				<ele>387.4</ele>
				<time>2026-08-23T11:15:31.000Z</time>
			</trkpt>
			<trkpt lat="49.7644215" lon="10.5160393">
				<ele>388.1</ele>
				<time>2026-08-23T11:15:34.000Z</time>
			</trkpt>
			<trkpt lat="49.7642452" lon="10.5173044">
				<ele>388.6</ele>
				<time>2026-08-23T11:15:37.000Z</time>
			</trkpt>
			<trkpt lat="49.7641401" lon="10.5181527">
				<ele>389</ele>
				<time>2026-08-23T11:15:39.000Z</time>
			</trkpt>
			<trkpt lat="49.7640388" lon="10.5190095">
				<ele>388.6</ele>
				<time>2026-08-23T11:15:41.000Z</time>
			</trkpt>
			<trkpt lat="49.7638896" lon="10.5202929">
				<ele>388.2</ele>
				<time>2026-08-23T11:15:44.000Z</time>
			</trkpt>
			<trkpt lat="49.7637933" lon="10.5211619">
				<ele>388</ele>
				<time>2026-08-23T11:15:46.000Z</time>
			</trkpt>
			<trkpt lat="49.7637105" lon="10.5220344">
				<ele>388.1</ele>
				<time>2026-08-23T11:15:48.000Z</time>
			</trkpt>
			<trkpt lat="49.7636044" lon="10.5233541">
				<ele>387</ele>
				<time>2026-08-23T11:15:51.000Z</time>
			</trkpt>
			<trkpt lat="49.7635397" lon="10.524235">
				<ele>385.6</ele>
				<time>2026-08-23T11:15:53.000Z</time>
			</trkpt>
			<trkpt lat="49.7634527" lon="10.5255896">
				<ele>385.2</ele>
				<time>2026-08-23T11:15:56.000Z</time>
			</trkpt>
			<trkpt lat="49.7633722" lon="10.5269625">
				<ele>383.4</ele>
				<time>2026-08-23T11:15:59.000Z</time>
			</trkpt>
			<trkpt lat="49.7633122" lon="10.5283058">
				<ele>382.5</ele>
				<time>2026-08-23T11:16:02.000Z</time>
			</trkpt>
			<trkpt lat="49.7632592" lon="10.5296147">
				<ele>380.9</ele>
				<time>2026-08-23T11:16:05.000Z</time>
			</trkpt>
			<trkpt lat="49.763233" lon="10.5305055">
				<ele>380.1</ele>
				<time>2026-08-23T11:16:07.000Z</time>
			</trkpt>
			<trkpt lat="49.7631918" lon="10.5318638">
				<ele>378</ele>
				<time>2026-08-23T11:16:10.000Z</time>
			</trkpt>
			<trkpt lat="49.7631573" lon="10.5332249">
				<ele>376.7</ele>
				<time>2026-08-23T11:16:13.000Z</time>
			</trkpt>
			<trkpt lat="49.7631361" lon="10.5341293">
				<ele>376</ele>
				<time>2026-08-23T11:16:15.000Z</time>
			</trkpt>
			<trkpt lat="49.7631169" lon="10.5350446">
				<ele>375.2</ele>
				<time>2026-08-23T11:16:17.000Z</time>
			</trkpt>
			<trkpt lat="49.763086" lon="10.5364359">
				<ele>374.9</ele>
				<time>2026-08-23T11:16:20.000Z</time>
			</trkpt>
			<trkpt lat="49.7630631" lon="10.5373577">
				<ele>374.4</ele>
				<time>2026-08-23T11:16:22.000Z</time>
			</trkpt>
			<trkpt lat="49.7630255" lon="10.5386996">
				<ele>374.7</ele>
				<time>2026-08-23T11:16:25.000Z</time>
			</trkpt>
			<trkpt lat="49.7629819" lon="10.5399892">
				<ele>374</ele>
				<time>2026-08-23T11:16:28.000Z</time>
			</trkpt>
			<trkpt lat="49.7629454" lon="10.5408423">
				<ele>373.5</ele>
				<time>2026-08-23T11:16:30.000Z</time>
			</trkpt>
			<trkpt lat="49.7629045" lon="10.5417027">
				<ele>373.8</ele>
				<time>2026-08-23T11:16:32.000Z</time>
			</trkpt>
			<trkpt lat="49.7628527" lon="10.5425757">
				<ele>374.3</ele>
				<time>2026-08-23T11:16:34.000Z</time>
			</trkpt>
			<trkpt lat="49.7627958" lon="10.5434474">
				<ele>374.2</ele>
				<time>2026-08-23T11:16:36.000Z</time>
			</trkpt>
			<trkpt lat="49.7626999" lon="10.5447413">
				<ele>374.4</ele>
				<time>2026-08-23T11:16:39.000Z</time>
			</trkpt>
			<trkpt lat="49.7625945" lon="10.5460457">
				<ele>373.9</ele>
				<time>2026-08-23T11:16:42.000Z</time>
			</trkpt>
			<trkpt lat="49.7625132" lon="10.5469068">
				<ele>375.1</ele>
				<time>2026-08-23T11:16:44.000Z</time>
			</trkpt>
			<trkpt lat="49.7623714" lon="10.5481992">
				<ele>375.5</ele>
				<time>2026-08-23T11:16:47.000Z</time>
			</trkpt>
			<trkpt lat="49.7622179" lon="10.5494907">
				<ele>376.3</ele>
				<time>2026-08-23T11:16:50.000Z</time>
			</trkpt>
			<trkpt lat="49.7621013" lon="10.5503536">
				<ele>377.1</ele>
				<time>2026-08-23T11:16:52.000Z</time>
			</trkpt>
			<trkpt lat="49.7619795" lon="10.5512141">
				<ele>377.8</ele>
				<time>2026-08-23T11:16:54.000Z</time>
			</trkpt>
			<trkpt lat="49.7617862" lon="10.5524983">
				<ele>379</ele>
				<time>2026-08-23T11:16:57.000Z</time>
			</trkpt>
			<trkpt lat="49.7616452" lon="10.5533467">
				<ele>379.5</ele>
				<time>2026-08-23T11:16:59.000Z</time>
			</trkpt>
			<trkpt lat="49.7614245" lon="10.5546101">
				<ele>379.3</ele>
				<time>2026-08-23T11:17:02.000Z</time>
			</trkpt>
			<trkpt lat="49.7611857" lon="10.5558987">
				<ele>379.7</ele>
				<time>2026-08-23T11:17:05.000Z</time>
			</trkpt>
			<trkpt lat="49.7609305" lon="10.5571627">
				<ele>379.5</ele>
				<time>2026-08-23T11:17:08.000Z</time>
			</trkpt>
			<trkpt lat="49.7606735" lon="10.5584042">
				<ele>379.5</ele>
				<time>2026-08-23T11:17:11.000Z</time>
			</trkpt>
			<trkpt lat="49.7604986" lon="10.5592387">
				<ele>379.7</ele>
				<time>2026-08-23T11:17:13.000Z</time>
			</trkpt>
			<trkpt lat="49.7602335" lon="10.5604549">
				<ele>378.5</ele>
				<time>2026-08-23T11:17:16.000Z</time>
			</trkpt>
			<trkpt lat="49.7599554" lon="10.5616828">
				<ele>377.4</ele>
				<time>2026-08-23T11:17:19.000Z</time>
			</trkpt>
			<trkpt lat="49.7597663" lon="10.5625073">
				<ele>376.6</ele>
				<time>2026-08-23T11:17:21.000Z</time>
			</trkpt>
			<trkpt lat="49.7595777" lon="10.5633458">
				<ele>374.9</ele>
				<time>2026-08-23T11:17:23.000Z</time>
			</trkpt>
			<trkpt lat="49.7592988" lon="10.56462">
				<ele>373.3</ele>
				<time>2026-08-23T11:17:26.000Z</time>
			</trkpt>
			<trkpt lat="49.7591424" lon="10.5655042">
				<ele>372.2</ele>
				<time>2026-08-23T11:17:28.000Z</time>
			</trkpt>
			<trkpt lat="49.7589579" lon="10.566809">
				<ele>370.6</ele>
				<time>2026-08-23T11:17:31.000Z</time>
			</trkpt>
			<trkpt lat="49.7588452" lon="10.5677022">
				<ele>369.9</ele>
				<time>2026-08-23T11:17:33.000Z</time>
			</trkpt>
			<trkpt lat="49.7587631" lon="10.5685912">
				<ele>370.4</ele>
				<time>2026-08-23T11:17:35.000Z</time>
			</trkpt>
			<trkpt lat="49.7586958" lon="10.5694429">
				<ele>370.8</ele>
				<time>2026-08-23T11:17:37.000Z</time>
			</trkpt>
			<trkpt lat="49.758635" lon="10.5707254">
				<ele>370.2</ele>
				<time>2026-08-23T11:17:40.000Z</time>
			</trkpt>
			<trkpt lat="49.7586475" lon="10.572021">
				<ele>368.9</ele>
				<time>2026-08-23T11:17:43.000Z</time>
			</trkpt>
			<trkpt lat="49.7586658" lon="10.5728888">
				<ele>368.4</ele>
				<time>2026-08-23T11:17:45.000Z</time>
			</trkpt>
			<trkpt lat="49.7587039" lon="10.5741915">
				<ele>368.1</ele>
				<time>2026-08-23T11:17:48.000Z</time>
			</trkpt>
			<trkpt lat="49.7587498" lon="10.5750616">
				<ele>367.6</ele>
				<time>2026-08-23T11:17:50.000Z</time>
			</trkpt>
			<trkpt lat="49.7588272" lon="10.576367">
				<ele>367.6</ele>
				<time>2026-08-23T11:17:53.000Z</time>
			</trkpt>
			<trkpt lat="49.758922" lon="10.5776594">
				<ele>368</ele>
				<time>2026-08-23T11:17:56.000Z</time>
			</trkpt>
			<trkpt lat="49.7590352" lon="10.5789276">
				<ele>368.9</ele>
				<time>2026-08-23T11:17:59.000Z</time>
			</trkpt>
			<trkpt lat="49.7591558" lon="10.580208">
				<ele>369.2</ele>
				<time>2026-08-23T11:18:02.000Z</time>
			</trkpt>
			<trkpt lat="49.759258" lon="10.5814726">
				<ele>370.2</ele>
				<time>2026-08-23T11:18:05.000Z</time>
			</trkpt>
			<trkpt lat="49.7593725" lon="10.5827244">
				<ele>371</ele>
				<time>2026-08-23T11:18:08.000Z</time>
			</trkpt>
			<trkpt lat="49.7594512" lon="10.5835464">
				<ele>371.5</ele>
				<time>2026-08-23T11:18:10.000Z</time>
			</trkpt>
			<trkpt lat="49.759555" lon="10.5847902">
				<ele>372.9</ele>
				<time>2026-08-23T11:18:13.000Z</time>
			</trkpt>
			<trkpt lat="49.7596198" lon="10.5856358">
				<ele>374.3</ele>
				<time>2026-08-23T11:18:15.000Z</time>
			</trkpt>
			<trkpt lat="49.7597099" lon="10.5868855">
				<ele>374.2</ele>
				<time>2026-08-23T11:18:18.000Z</time>
			</trkpt>
			<trkpt lat="49.7597775" lon="10.588137">
				<ele>373.8</ele>
				<time>2026-08-23T11:18:21.000Z</time>
			</trkpt>
			<trkpt lat="49.7598085" lon="10.5889875">
				<ele>373.3</ele>
				<time>2026-08-23T11:18:23.000Z</time>
			</trkpt>
			<trkpt lat="49.7598288" lon="10.5902986">
				<ele>374.3</ele>
				<time>2026-08-23T11:18:26.000Z</time>
			</trkpt>
			<trkpt lat="49.7598094" lon="10.5916159">
				<ele>374.6</ele>
				<time>2026-08-23T11:18:29.000Z</time>
			</trkpt>
			<trkpt lat="49.7597728" lon="10.5925129">
				<ele>374.3</ele>
				<time>2026-08-23T11:18:31.000Z</time>
			</trkpt>
			<trkpt lat="49.7596844" lon="10.593869">
				<ele>372.3</ele>
				<time>2026-08-23T11:18:34.000Z</time>
			</trkpt>
			<trkpt lat="49.759556" lon="10.5952232">
				<ele>371.9</ele>
				<time>2026-08-23T11:18:37.000Z</time>
			</trkpt>
			<trkpt lat="49.7593692" lon="10.5965713">
				<ele>369.4</ele>
				<time>2026-08-23T11:18:40.000Z</time>
			</trkpt>
			<trkpt lat="49.759229" lon="10.5974429">
				<ele>368.3</ele>
				<time>2026-08-23T11:18:42.000Z</time>
			</trkpt>
			<trkpt lat="49.7589784" lon="10.5987368">
				<ele>366.9</ele>
				<time>2026-08-23T11:18:45.000Z</time>
			</trkpt>
			<trkpt lat="49.75869" lon="10.6000042">
				<ele>365.5</ele>
				<time>2026-08-23T11:18:48.000Z</time>
			</trkpt>
			<trkpt lat="49.7583591" lon="10.6012767">
				<ele>364.5</ele>
				<time>2026-08-23T11:18:51.000Z</time>
			</trkpt>
			<trkpt lat="49.7581101" lon="10.6021182">
				<ele>363.5</ele>
				<time>2026-08-23T11:18:53.000Z</time>
			</trkpt>
			<trkpt lat="49.7578415" lon="10.602957">
				<ele>363.3</ele>
				<time>2026-08-23T11:18:55.000Z</time>
			</trkpt>
			<trkpt lat="49.7574167" lon="10.6041612">
				<ele>361.7</ele>
				<time>2026-08-23T11:18:58.000Z</time>
			</trkpt>
			<trkpt lat="49.7569609" lon="10.6052968">
				<ele>360.5</ele>
				<time>2026-08-23T11:19:01.000Z</time>
			</trkpt>
			<trkpt lat="49.7566572" lon="10.6060458">
				<ele>359.8</ele>
				<time>2026-08-23T11:19:03.000Z</time>
			</trkpt>
			<trkpt lat="49.7561714" lon="10.6071481">
				<ele>358.3</ele>
				<time>2026-08-23T11:19:06.000Z</time>
			</trkpt>
			<trkpt lat="49.7556422" lon="10.6082144">
				<ele>356</ele>
				<time>2026-08-23T11:19:09.000Z</time>
			</trkpt>
			<trkpt lat="49.7550894" lon="10.6092632">
				<ele>354.6</ele>
				<time>2026-08-23T11:19:12.000Z</time>
			</trkpt>
			<trkpt lat="49.7545398" lon="10.6102961">
				<ele>352.5</ele>
				<time>2026-08-23T11:19:15.000Z</time>
			</trkpt>
			<trkpt lat="49.7541763" lon="10.6109942">
				<ele>351.7</ele>
				<time>2026-08-23T11:19:17.000Z</time>
			</trkpt>
			<trkpt lat="49.7536215" lon="10.6120339">
				<ele>351.3</ele>
				<time>2026-08-23T11:19:20.000Z</time>
			</trkpt>
			<trkpt lat="49.753246" lon="10.6127034">
				<ele>351.1</ele>
				<time>2026-08-23T11:19:22.000Z</time>
			</trkpt>
			<trkpt lat="49.7528693" lon="10.6133694">
				<ele>350.7</ele>
				<time>2026-08-23T11:19:24.000Z</time>
			</trkpt>
			<trkpt lat="49.752316" lon="10.6143922">
				<ele>350.7</ele>
				<time>2026-08-23T11:19:27.000Z</time>
			</trkpt>
			<trkpt lat="49.7517668" lon="10.6154129">
				<ele>350.8</ele>
				<time>2026-08-23T11:19:30.000Z</time>
			</trkpt>
			<trkpt lat="49.7514014" lon="10.6160884">
				<ele>350.2</ele>
				<time>2026-08-23T11:19:32.000Z</time>
			</trkpt>
			<trkpt lat="49.750856" lon="10.6171205">
				<ele>349.4</ele>
				<time>2026-08-23T11:19:35.000Z</time>
			</trkpt>
			<trkpt lat="49.7502969" lon="10.6181515">
				<ele>348.9</ele>
				<time>2026-08-23T11:19:38.000Z</time>
			</trkpt>
			<trkpt lat="49.7499275" lon="10.6188459">
				<ele>348.8</ele>
				<time>2026-08-23T11:19:40.000Z</time>
			</trkpt>
			<trkpt lat="49.7495545" lon="10.6195394">
				<ele>348.5</ele>
				<time>2026-08-23T11:19:42.000Z</time>
			</trkpt>
			<trkpt lat="49.749179" lon="10.6202355">
				<ele>349.1</ele>
				<time>2026-08-23T11:19:44.000Z</time>
			</trkpt>
			<trkpt lat="49.748619" lon="10.6212883">
				<ele>348.5</ele>
				<time>2026-08-23T11:19:47.000Z</time>
			</trkpt>
			<trkpt lat="49.748065" lon="10.6223341">
				<ele>347.5</ele>
				<time>2026-08-23T11:19:50.000Z</time>
			</trkpt>
			<trkpt lat="49.7475172" lon="10.6233819">
				<ele>346.8</ele>
				<time>2026-08-23T11:19:53.000Z</time>
			</trkpt>
			<trkpt lat="49.747147" lon="10.6241116">
				<ele>347.5</ele>
				<time>2026-08-23T11:19:55.000Z</time>
			</trkpt>
			<trkpt lat="49.7466092" lon="10.6252091">
				<ele>346.5</ele>
				<time>2026-08-23T11:19:58.000Z</time>
			</trkpt>
			<trkpt lat="49.7460816" lon="10.6263101">
				<ele>346.5</ele>
				<time>2026-08-23T11:20:01.000Z</time>
			</trkpt>
			<trkpt lat="49.7457415" lon="10.6270673">
				<ele>346.6</ele>
				<time>2026-08-23T11:20:03.000Z</time>
			</trkpt>
			<trkpt lat="49.745411" lon="10.6278276">
				<ele>346.5</ele>
				<time>2026-08-23T11:20:05.000Z</time>
			</trkpt>
			<trkpt lat="49.7449441" lon="10.62901">
				<ele>343.8</ele>
				<time>2026-08-23T11:20:08.000Z</time>
			</trkpt>
			<trkpt lat="49.7446454" lon="10.6297981">
				<ele>342.7</ele>
				<time>2026-08-23T11:20:10.000Z</time>
			</trkpt>
			<trkpt lat="49.744227" lon="10.6309829">
				<ele>341.6</ele>
				<time>2026-08-23T11:20:13.000Z</time>
			</trkpt>
			<trkpt lat="49.7439758" lon="10.6317903">
				<ele>340</ele>
				<time>2026-08-23T11:20:15.000Z</time>
			</trkpt>
			<trkpt lat="49.7436343" lon="10.6330553">
				<ele>339.5</ele>
				<time>2026-08-23T11:20:18.000Z</time>
			</trkpt>
			<trkpt lat="49.7434209" lon="10.6339058">
				<ele>337.9</ele>
				<time>2026-08-23T11:20:20.000Z</time>
			</trkpt>
			<trkpt lat="49.743215" lon="10.6347609">
				<ele>338.4</ele>
				<time>2026-08-23T11:20:22.000Z</time>
			</trkpt>
			<trkpt lat="49.7429396" lon="10.6360493">
				<ele>338.5</ele>
				<time>2026-08-23T11:20:25.000Z</time>
			</trkpt>
			<trkpt lat="49.7427717" lon="10.6369431">
				<ele>338.8</ele>
				<time>2026-08-23T11:20:27.000Z</time>
			</trkpt>
			<trkpt lat="49.7425741" lon="10.6382302">
				<ele>338.4</ele>
				<time>2026-08-23T11:20:30.000Z</time>
			</trkpt>
			<trkpt lat="49.7424515" lon="10.6390975">
				<ele>338.6</ele>
				<time>2026-08-23T11:20:32.000Z</time>
			</trkpt>
			<trkpt lat="49.742258" lon="10.6404084">
				<ele>340.5</ele>
				<time>2026-08-23T11:20:35.000Z</time>
			</trkpt>
			<trkpt lat="49.7420709" lon="10.6417082">
				<ele>341.8</ele>
				<time>2026-08-23T11:20:38.000Z</time>
			</trkpt>
			<trkpt lat="49.7419575" lon="10.6425481">
				<ele>342.8</ele>
				<time>2026-08-23T11:20:40.000Z</time>
			</trkpt>
			<trkpt lat="49.741835" lon="10.6434102">
				<ele>343.2</ele>
				<time>2026-08-23T11:20:42.000Z</time>
			</trkpt>
			<trkpt lat="49.7416508" lon="10.6446313">
				<ele>342.4</ele>
				<time>2026-08-23T11:20:45.000Z</time>
			</trkpt>
			<trkpt lat="49.7415114" lon="10.645439">
				<ele>342.7</ele>
				<time>2026-08-23T11:20:47.000Z</time>
			</trkpt>
			<trkpt lat="49.7412811" lon="10.6466295">
				<ele>342.3</ele>
				<time>2026-08-23T11:20:50.000Z</time>
			</trkpt>
			<trkpt lat="49.7410158" lon="10.647813">
				<ele>343.5</ele>
				<time>2026-08-23T11:20:53.000Z</time>
			</trkpt>
			<trkpt lat="49.7407176" lon="10.6489726">
				<ele>344.6</ele>
				<time>2026-08-23T11:20:56.000Z</time>
			</trkpt>
			<trkpt lat="49.7403897" lon="10.6500972">
				<ele>346.2</ele>
				<time>2026-08-23T11:20:59.000Z</time>
			</trkpt>
			<trkpt lat="49.7400354" lon="10.6511859">
				<ele>347.3</ele>
				<time>2026-08-23T11:21:02.000Z</time>
			</trkpt>
			<trkpt lat="49.7397782" lon="10.6519003">
				<ele>348.3</ele>
				<time>2026-08-23T11:21:04.000Z</time>
			</trkpt>
			<trkpt lat="49.7395083" lon="10.6525939">
				<ele>349</ele>
				<time>2026-08-23T11:21:06.000Z</time>
			</trkpt>
			<trkpt lat="49.7392275" lon="10.6532764">
				<ele>349.3</ele>
				<time>2026-08-23T11:21:08.000Z</time>
			</trkpt>
			<trkpt lat="49.7387808" lon="10.6542794">
				<ele>350.3</ele>
				<time>2026-08-23T11:21:11.000Z</time>
			</trkpt>
			<trkpt lat="49.7383061" lon="10.6552513">
				<ele>352</ele>
				<time>2026-08-23T11:21:14.000Z</time>
			</trkpt>
			<trkpt lat="49.7378024" lon="10.6561871">
				<ele>353.2</ele>
				<time>2026-08-23T11:21:17.000Z</time>
			</trkpt>
			<trkpt lat="49.737459" lon="10.6567991">
				<ele>354.1</ele>
				<time>2026-08-23T11:21:19.000Z</time>
			</trkpt>
			<trkpt lat="49.7369321" lon="10.6577072">
				<ele>355.8</ele>
				<time>2026-08-23T11:21:22.000Z</time>
			</trkpt>
			<trkpt lat="49.7363979" lon="10.6586051">
				<ele>357.6</ele>
				<time>2026-08-23T11:21:25.000Z</time>
			</trkpt>
			<trkpt lat="49.7358766" lon="10.659507">
				<ele>358.8</ele>
				<time>2026-08-23T11:21:28.000Z</time>
			</trkpt>
			<trkpt lat="49.7355412" lon="10.6601221">
				<ele>358.5</ele>
				<time>2026-08-23T11:21:30.000Z</time>
			</trkpt>
			<trkpt lat="49.7350388" lon="10.6610289">
				<ele>359</ele>
				<time>2026-08-23T11:21:33.000Z</time>
			</trkpt>
			<trkpt lat="49.7345425" lon="10.6619332">
				<ele>361.4</ele>
				<time>2026-08-23T11:21:36.000Z</time>
			</trkpt>
			<trkpt lat="49.7342362" lon="10.6625485">
				<ele>362.8</ele>
				<time>2026-08-23T11:21:38.000Z</time>
			</trkpt>
			<trkpt lat="49.7338036" lon="10.6635067">
				<ele>364.5</ele>
				<time>2026-08-23T11:21:41.000Z</time>
			</trkpt>
			<trkpt lat="49.7333988" lon="10.6644796">
				<ele>367</ele>
				<time>2026-08-23T11:21:44.000Z</time>
			</trkpt>
			<trkpt lat="49.7331445" lon="10.6651397">
				<ele>368.1</ele>
				<time>2026-08-23T11:21:46.000Z</time>
			</trkpt>
			<trkpt lat="49.7327875" lon="10.6661537">
				<ele>369.4</ele>
				<time>2026-08-23T11:21:49.000Z</time>
			</trkpt>
			<trkpt lat="49.7324614" lon="10.6671654">
				<ele>370.9</ele>
				<time>2026-08-23T11:21:52.000Z</time>
			</trkpt>
			<trkpt lat="49.732274" lon="10.6678415">
				<ele>371.7</ele>
				<time>2026-08-23T11:21:54.000Z</time>
			</trkpt>
			<trkpt lat="49.7320047" lon="10.6688286">
				<ele>372.9</ele>
				<time>2026-08-23T11:21:57.000Z</time>
			</trkpt>
			<trkpt lat="49.7318424" lon="10.6694964">
				<ele>375</ele>
				<time>2026-08-23T11:21:59.000Z</time>
			</trkpt>
			<trkpt lat="49.7316274" lon="10.6704735">
				<ele>375.6</ele>
				<time>2026-08-23T11:22:02.000Z</time>
			</trkpt>
			<trkpt lat="49.7314456" lon="10.6714518">
				<ele>377.4</ele>
				<time>2026-08-23T11:22:05.000Z</time>
			</trkpt>
			<trkpt lat="49.7313292" lon="10.6720899">
				<ele>378.6</ele>
				<time>2026-08-23T11:22:07.000Z</time>
			</trkpt>
			<trkpt lat="49.7312228" lon="10.672748">
				<ele>379.5</ele>
				<time>2026-08-23T11:22:09.000Z</time>
			</trkpt>
			<trkpt lat="49.7310992" lon="10.6737566">
				<ele>380.6</ele>
				<time>2026-08-23T11:22:12.000Z</time>
			</trkpt>
			<trkpt lat="49.7310009" lon="10.6748164">
				<ele>383.5</ele>
				<time>2026-08-23T11:22:15.000Z</time>
			</trkpt>
			<trkpt lat="49.7309032" lon="10.6759022">
				<ele>385</ele>
				<time>2026-08-23T11:22:18.000Z</time>
			</trkpt>
			<trkpt lat="49.7308432" lon="10.6769879">
				<ele>385.7</ele>
				<time>2026-08-23T11:22:21.000Z</time>
			</trkpt>
			<trkpt lat="49.7308149" lon="10.6777306">
				<ele>386.5</ele>
				<time>2026-08-23T11:22:23.000Z</time>
			</trkpt>
			<trkpt lat="49.7308001" lon="10.6784834">
				<ele>387.4</ele>
				<time>2026-08-23T11:22:25.000Z</time>
			</trkpt>
			<trkpt lat="49.730812" lon="10.6795957">
				<ele>388.9</ele>
				<time>2026-08-23T11:22:28.000Z</time>
			</trkpt>
			<trkpt lat="49.7308422" lon="10.6807715">
				<ele>392.2</ele>
				<time>2026-08-23T11:22:31.000Z</time>
			</trkpt>
			<trkpt lat="49.7308758" lon="10.68157">
				<ele>392.7</ele>
				<time>2026-08-23T11:22:33.000Z</time>
			</trkpt>
			<trkpt lat="49.7309427" lon="10.6827498">
				<ele>396</ele>
				<time>2026-08-23T11:22:36.000Z</time>
			</trkpt>
			<trkpt lat="49.7310074" lon="10.6839261">
				<ele>398.4</ele>
				<time>2026-08-23T11:22:39.000Z</time>
			</trkpt>
			<trkpt lat="49.7310679" lon="10.6851259">
				<ele>400.6</ele>
				<time>2026-08-23T11:22:42.000Z</time>
			</trkpt>
			<trkpt lat="49.7311008" lon="10.6863316">
				<ele>402.1</ele>
				<time>2026-08-23T11:22:45.000Z</time>
			</trkpt>
			<trkpt lat="49.7311277" lon="10.6871149">
				<ele>403.1</ele>
				<time>2026-08-23T11:22:47.000Z</time>
			</trkpt>
			<trkpt lat="49.7311597" lon="10.6878958">
				<ele>404.1</ele>
				<time>2026-08-23T11:22:49.000Z</time>
			</trkpt>
			<trkpt lat="49.7312017" lon="10.6890796">
				<ele>405.1</ele>
				<time>2026-08-23T11:22:52.000Z</time>
			</trkpt>
			<trkpt lat="49.7312304" lon="10.6898563">
				<ele>405.8</ele>
				<time>2026-08-23T11:22:54.000Z</time>
			</trkpt>
			<trkpt lat="49.7312522" lon="10.6906316">
				<ele>406.3</ele>
				<time>2026-08-23T11:22:56.000Z</time>
			</trkpt>
			<trkpt lat="49.7312674" lon="10.6918721">
				<ele>409.4</ele>
				<time>2026-08-23T11:22:59.000Z</time>
			</trkpt>
			<trkpt lat="49.731283" lon="10.6930632">
				<ele>409.1</ele>
				<time>2026-08-23T11:23:02.000Z</time>
			</trkpt>
			<trkpt lat="49.731317" lon="10.6942589">
				<ele>407.5</ele>
				<time>2026-08-23T11:23:05.000Z</time>
			</trkpt>
			<trkpt lat="49.7313364" lon="10.6950837">
				<ele>407.5</ele>
				<time>2026-08-23T11:23:07.000Z</time>
			</trkpt>
			<trkpt lat="49.7313365" lon="10.6959137">
				<ele>407.3</ele>
				<time>2026-08-23T11:23:09.000Z</time>
			</trkpt>
			<trkpt lat="49.7313176" lon="10.6971695">
				<ele>407.2</ele>
				<time>2026-08-23T11:23:12.000Z</time>
			</trkpt>
			<trkpt lat="49.731302" lon="10.6980268">
				<ele>407.4</ele>
				<time>2026-08-23T11:23:14.000Z</time>
			</trkpt>
			<trkpt lat="49.7312856" lon="10.6988735">
				<ele>407.9</ele>
				<time>2026-08-23T11:23:16.000Z</time>
			</trkpt>
			<trkpt lat="49.7312437" lon="10.7001896">
				<ele>408.1</ele>
				<time>2026-08-23T11:23:19.000Z</time>
			</trkpt>
			<trkpt lat="49.7311991" lon="10.7015161">
				<ele>409</ele>
				<time>2026-08-23T11:23:22.000Z</time>
			</trkpt>
			<trkpt lat="49.7311439" lon="10.702399">
				<ele>409.9</ele>
				<time>2026-08-23T11:23:24.000Z</time>
			</trkpt>
			<trkpt lat="49.7311039" lon="10.7032744">
				<ele>410.6</ele>
				<time>2026-08-23T11:23:26.000Z</time>
			</trkpt>
			<trkpt lat="49.7310573" lon="10.7045714">
				<ele>410.1</ele>
				<time>2026-08-23T11:23:29.000Z</time>
			</trkpt>
			<trkpt lat="49.7310049" lon="10.70592">
				<ele>409.7</ele>
				<time>2026-08-23T11:23:32.000Z</time>
			</trkpt>
			<trkpt lat="49.7309725" lon="10.7068114">
				<ele>408.8</ele>
				<time>2026-08-23T11:23:34.000Z</time>
			</trkpt>
			<trkpt lat="49.7309259" lon="10.7081059">
				<ele>406.8</ele>
				<time>2026-08-23T11:23:37.000Z</time>
			</trkpt>
			<trkpt lat="49.7308886" lon="10.7094239">
				<ele>406.5</ele>
				<time>2026-08-23T11:23:40.000Z</time>
			</trkpt>
			<trkpt lat="49.7308654" lon="10.7103078">
				<ele>406.6</ele>
				<time>2026-08-23T11:23:42.000Z</time>
			</trkpt>
			<trkpt lat="49.7308349" lon="10.7116304">
				<ele>405.7</ele>
				<time>2026-08-23T11:23:45.000Z</time>
			</trkpt>
			<trkpt lat="49.7308181" lon="10.7129789">
				<ele>406.2</ele>
				<time>2026-08-23T11:23:48.000Z</time>
			</trkpt>
			<trkpt lat="49.7308131" lon="10.7138742">
				<ele>406</ele>
				<time>2026-08-23T11:23:50.000Z</time>
			</trkpt>
			<trkpt lat="49.7308106" lon="10.715209">
				<ele>406.6</ele>
				<time>2026-08-23T11:23:53.000Z</time>
			</trkpt>
			<trkpt lat="49.7308171" lon="10.7160939">
				<ele>406.2</ele>
				<time>2026-08-23T11:23:55.000Z</time>
			</trkpt>
			<trkpt lat="49.7308268" lon="10.7169806">
				<ele>405.7</ele>
				<time>2026-08-23T11:23:57.000Z</time>
			</trkpt>
			<trkpt lat="49.7308632" lon="10.7183214">
				<ele>405</ele>
				<time>2026-08-23T11:24:00.000Z</time>
			</trkpt>
			<trkpt lat="49.7308966" lon="10.7192167">
				<ele>404.5</ele>
				<time>2026-08-23T11:24:02.000Z</time>
			</trkpt>
			<trkpt lat="49.73095" lon="10.7205621">
				<ele>403.8</ele>
				<time>2026-08-23T11:24:05.000Z</time>
			</trkpt>
			<trkpt lat="49.7310195" lon="10.7219018">
				<ele>403.2</ele>
				<time>2026-08-23T11:24:08.000Z</time>
			</trkpt>
			<trkpt lat="49.7310656" lon="10.72279">
				<ele>402.5</ele>
				<time>2026-08-23T11:24:10.000Z</time>
			</trkpt>
			<trkpt lat="49.7311512" lon="10.7241353">
				<ele>402.4</ele>
				<time>2026-08-23T11:24:13.000Z</time>
			</trkpt>
			<trkpt lat="49.7312448" lon="10.7254711">
				<ele>401.8</ele>
				<time>2026-08-23T11:24:16.000Z</time>
			</trkpt>
			<trkpt lat="49.7313563" lon="10.7267935">
				<ele>401.5</ele>
				<time>2026-08-23T11:24:19.000Z</time>
			</trkpt>
			<trkpt lat="49.7314728" lon="10.7281487">
				<ele>400.7</ele>
				<time>2026-08-23T11:24:22.000Z</time>
			</trkpt>
			<trkpt lat="49.7316049" lon="10.7294907">
				<ele>399.7</ele>
				<time>2026-08-23T11:24:25.000Z</time>
			</trkpt>
			<trkpt lat="49.7317034" lon="10.7303757">
				<ele>398.5</ele>
				<time>2026-08-23T11:24:27.000Z</time>
			</trkpt>
			<trkpt lat="49.7318068" lon="10.7312855">
				<ele>399</ele>
				<time>2026-08-23T11:24:29.000Z</time>
			</trkpt>
			<trkpt lat="49.7319144" lon="10.7321741">
				<ele>398</ele>
				<time>2026-08-23T11:24:31.000Z</time>
			</trkpt>
			<trkpt lat="49.7320798" lon="10.7335146">
				<ele>397</ele>
				<time>2026-08-23T11:24:34.000Z</time>
			</trkpt>
			<trkpt lat="49.7321925" lon="10.7343787">
				<ele>396.7</ele>
				<time>2026-08-23T11:24:36.000Z</time>
			</trkpt>
			<trkpt lat="49.732373" lon="10.7356562">
				<ele>395.7</ele>
				<time>2026-08-23T11:24:39.000Z</time>
			</trkpt>
			<trkpt lat="49.7324897" lon="10.736505">
				<ele>394.9</ele>
				<time>2026-08-23T11:24:41.000Z</time>
			</trkpt>
			<trkpt lat="49.7326184" lon="10.7373749">
				<ele>394</ele>
				<time>2026-08-23T11:24:43.000Z</time>
			</trkpt>
			<trkpt lat="49.7327463" lon="10.7382344">
				<ele>393.9</ele>
				<time>2026-08-23T11:24:45.000Z</time>
			</trkpt>
			<trkpt lat="49.7329478" lon="10.739496">
				<ele>392.1</ele>
				<time>2026-08-23T11:24:48.000Z</time>
			</trkpt>
			<trkpt lat="49.7330803" lon="10.7403528">
				<ele>391.6</ele>
				<time>2026-08-23T11:24:50.000Z</time>
			</trkpt>
			<trkpt lat="49.7332841" lon="10.7416284">
				<ele>390.3</ele>
				<time>2026-08-23T11:24:53.000Z</time>
			</trkpt>
			<trkpt lat="49.7334227" lon="10.7424753">
				<ele>389.7</ele>
				<time>2026-08-23T11:24:55.000Z</time>
			</trkpt>
			<trkpt lat="49.7336309" lon="10.7437285">
				<ele>388.2</ele>
				<time>2026-08-23T11:24:58.000Z</time>
			</trkpt>
			<trkpt lat="49.7338373" lon="10.7450355">
				<ele>387.5</ele>
				<time>2026-08-23T11:25:01.000Z</time>
			</trkpt>
			<trkpt lat="49.7340433" lon="10.7462847">
				<ele>385.6</ele>
				<time>2026-08-23T11:25:04.000Z</time>
			</trkpt>
			<trkpt lat="49.7341796" lon="10.7471377">
				<ele>384.9</ele>
				<time>2026-08-23T11:25:06.000Z</time>
			</trkpt>
			<trkpt lat="49.7343862" lon="10.748436">
				<ele>383.5</ele>
				<time>2026-08-23T11:25:09.000Z</time>
			</trkpt>
			<trkpt lat="49.734596" lon="10.7497392">
				<ele>382.1</ele>
				<time>2026-08-23T11:25:12.000Z</time>
			</trkpt>
			<trkpt lat="49.7347392" lon="10.7506191">
				<ele>381.7</ele>
				<time>2026-08-23T11:25:14.000Z</time>
			</trkpt>
			<trkpt lat="49.7349516" lon="10.7519229">
				<ele>380.1</ele>
				<time>2026-08-23T11:25:17.000Z</time>
			</trkpt>
			<trkpt lat="49.7350933" lon="10.7527708">
				<ele>379.2</ele>
				<time>2026-08-23T11:25:19.000Z</time>
			</trkpt>
			<trkpt lat="49.7353016" lon="10.7540509">
				<ele>376.9</ele>
				<time>2026-08-23T11:25:22.000Z</time>
			</trkpt>
			<trkpt lat="49.7355211" lon="10.7553531">
				<ele>376.4</ele>
				<time>2026-08-23T11:25:25.000Z</time>
			</trkpt>
			<trkpt lat="49.735714" lon="10.7566678">
				<ele>375.1</ele>
				<time>2026-08-23T11:25:28.000Z</time>
			</trkpt>
			<trkpt lat="49.7358457" lon="10.7575519">
				<ele>374.5</ele>
				<time>2026-08-23T11:25:30.000Z</time>
			</trkpt>
			<trkpt lat="49.7359766" lon="10.7584177">
				<ele>374.2</ele>
				<time>2026-08-23T11:25:32.000Z</time>
			</trkpt>
			<trkpt lat="49.7361617" lon="10.7597257">
				<ele>373.6</ele>
				<time>2026-08-23T11:25:35.000Z</time>
			</trkpt>
			<trkpt lat="49.736347" lon="10.7610265">
				<ele>374</ele>
				<time>2026-08-23T11:25:38.000Z</time>
			</trkpt>
			<trkpt lat="49.7364634" lon="10.7618997">
				<ele>373.3</ele>
				<time>2026-08-23T11:25:40.000Z</time>
			</trkpt>
			<trkpt lat="49.7366316" lon="10.7632059">
				<ele>372.4</ele>
				<time>2026-08-23T11:25:43.000Z</time>
			</trkpt>
			<trkpt lat="49.7367434" lon="10.7640859">
				<ele>372.5</ele>
				<time>2026-08-23T11:25:45.000Z</time>
			</trkpt>
			<trkpt lat="49.7369013" lon="10.7653986">
				<ele>372.8</ele>
				<time>2026-08-23T11:25:48.000Z</time>
			</trkpt>
			<trkpt lat="49.7370589" lon="10.7667205">
				<ele>372.6</ele>
				<time>2026-08-23T11:25:51.000Z</time>
			</trkpt>
			<trkpt lat="49.7371533" lon="10.767599">
				<ele>372.7</ele>
				<time>2026-08-23T11:25:53.000Z</time>
			</trkpt>
			<trkpt lat="49.7372962" lon="10.7688927">
				<ele>372</ele>
				<time>2026-08-23T11:25:56.000Z</time>
			</trkpt>
			<trkpt lat="49.7373862" lon="10.7697568">
				<ele>371.8</ele>
				<time>2026-08-23T11:25:58.000Z</time>
			</trkpt>
			<trkpt lat="49.7375111" lon="10.7710805">
				<ele>370.5</ele>
				<time>2026-08-23T11:26:01.000Z</time>
			</trkpt>
			<trkpt lat="49.7375911" lon="10.7719471">
				<ele>370.5</ele>
				<time>2026-08-23T11:26:03.000Z</time>
			</trkpt>
			<trkpt lat="49.737705" lon="10.7732444">
				<ele>369.9</ele>
				<time>2026-08-23T11:26:06.000Z</time>
			</trkpt>
			<trkpt lat="49.7377764" lon="10.7741061">
				<ele>371.7</ele>
				<time>2026-08-23T11:26:08.000Z</time>
			</trkpt>
			<trkpt lat="49.7378291" lon="10.7749988">
				<ele>373.2</ele>
				<time>2026-08-23T11:26:10.000Z</time>
			</trkpt>
			<trkpt lat="49.7379133" lon="10.7763119">
				<ele>374.3</ele>
				<time>2026-08-23T11:26:13.000Z</time>
			</trkpt>
			<trkpt lat="49.7379847" lon="10.7776118">
				<ele>374.2</ele>
				<time>2026-08-23T11:26:16.000Z</time>
			</trkpt>
			<trkpt lat="49.7380206" lon="10.7784989">
				<ele>374.1</ele>
				<time>2026-08-23T11:26:18.000Z</time>
			</trkpt>
			<trkpt lat="49.7380749" lon="10.7798448">
				<ele>374.4</ele>
				<time>2026-08-23T11:26:21.000Z</time>
			</trkpt>
			<trkpt lat="49.7381076" lon="10.7807509">
				<ele>374.4</ele>
				<time>2026-08-23T11:26:23.000Z</time>
			</trkpt>
			<trkpt lat="49.7381498" lon="10.7821008">
				<ele>374.5</ele>
				<time>2026-08-23T11:26:26.000Z</time>
			</trkpt>
			<trkpt lat="49.7381775" lon="10.7834268">
				<ele>374.7</ele>
				<time>2026-08-23T11:26:29.000Z</time>
			</trkpt>
			<trkpt lat="49.7381882" lon="10.7843131">
				<ele>373.9</ele>
				<time>2026-08-23T11:26:31.000Z</time>
			</trkpt>
			<trkpt lat="49.7382006" lon="10.7851933">
				<ele>374.1</ele>
				<time>2026-08-23T11:26:33.000Z</time>
			</trkpt>
			<trkpt lat="49.7382007" lon="10.7865079">
				<ele>373.4</ele>
				<time>2026-08-23T11:26:36.000Z</time>
			</trkpt>
			<trkpt lat="49.7381907" lon="10.7873705">
				<ele>372.6</ele>
				<time>2026-08-23T11:26:38.000Z</time>
			</trkpt>
			<trkpt lat="49.7381651" lon="10.7887028">
				<ele>371.1</ele>
				<time>2026-08-23T11:26:41.000Z</time>
			</trkpt>
			<trkpt lat="49.7381244" lon="10.7900119">
				<ele>370.1</ele>
				<time>2026-08-23T11:26:44.000Z</time>
			</trkpt>
			<trkpt lat="49.738083" lon="10.7913467">
				<ele>370</ele>
				<time>2026-08-23T11:26:47.000Z</time>
			</trkpt>
			<trkpt lat="49.7380368" lon="10.7922396">
				<ele>369.9</ele>
				<time>2026-08-23T11:26:49.000Z</time>
			</trkpt>
			<trkpt lat="49.7379789" lon="10.7930942">
				<ele>369.3</ele>
				<time>2026-08-23T11:26:51.000Z</time>
			</trkpt>
			<trkpt lat="49.7379048" lon="10.7939805">
				<ele>370</ele>
				<time>2026-08-23T11:26:53.000Z</time>
			</trkpt>
			<trkpt lat="49.7377787" lon="10.7953104">
				<ele>369.1</ele>
				<time>2026-08-23T11:26:56.000Z</time>
			</trkpt>
			<trkpt lat="49.7376162" lon="10.7966374">
				<ele>366.4</ele>
				<time>2026-08-23T11:26:59.000Z</time>
			</trkpt>
			<trkpt lat="49.7374227" lon="10.7979583">
				<ele>365.3</ele>
				<time>2026-08-23T11:27:02.000Z</time>
			</trkpt>
			<trkpt lat="49.7372268" lon="10.7992387">
				<ele>361.6</ele>
				<time>2026-08-23T11:27:05.000Z</time>
			</trkpt>
			<trkpt lat="49.7370832" lon="10.8000922">
				<ele>361</ele>
				<time>2026-08-23T11:27:07.000Z</time>
			</trkpt>
			<trkpt lat="49.7368383" lon="10.8013554">
				<ele>360.8</ele>
				<time>2026-08-23T11:27:10.000Z</time>
			</trkpt>
			<trkpt lat="49.7366581" lon="10.8021918">
				<ele>361.1</ele>
				<time>2026-08-23T11:27:12.000Z</time>
			</trkpt>
			<trkpt lat="49.7364697" lon="10.8030294">
				<ele>361.2</ele>
				<time>2026-08-23T11:27:14.000Z</time>
			</trkpt>
			<trkpt lat="49.7361604" lon="10.8042678">
				<ele>359.3</ele>
				<time>2026-08-23T11:27:17.000Z</time>
			</trkpt>
			<trkpt lat="49.7358141" lon="10.8055042">
				<ele>360.7</ele>
				<time>2026-08-23T11:27:20.000Z</time>
			</trkpt>
			<trkpt lat="49.7355732" lon="10.8062988">
				<ele>360.3</ele>
				<time>2026-08-23T11:27:22.000Z</time>
			</trkpt>
			<trkpt lat="49.7351855" lon="10.807493">
				<ele>361.4</ele>
				<time>2026-08-23T11:27:25.000Z</time>
			</trkpt>
			<trkpt lat="49.7349118" lon="10.8082552">
				<ele>360.7</ele>
				<time>2026-08-23T11:27:27.000Z</time>
			</trkpt>
			<trkpt lat="49.7346249" lon="10.8090223">
				<ele>360.6</ele>
				<time>2026-08-23T11:27:29.000Z</time>
			</trkpt>
			<trkpt lat="49.7341746" lon="10.8101534">
				<ele>360.1</ele>
				<time>2026-08-23T11:27:32.000Z</time>
			</trkpt>
			<trkpt lat="49.7337009" lon="10.8112457">
				<ele>359.9</ele>
				<time>2026-08-23T11:27:35.000Z</time>
			</trkpt>
			<trkpt lat="49.7333591" lon="10.8119545">
				<ele>360.1</ele>
				<time>2026-08-23T11:27:37.000Z</time>
			</trkpt>
			<trkpt lat="49.7330122" lon="10.8126518">
				<ele>360.5</ele>
				<time>2026-08-23T11:27:39.000Z</time>
			</trkpt>
			<trkpt lat="49.732651" lon="10.8133316">
				<ele>360.6</ele>
				<time>2026-08-23T11:27:41.000Z</time>
			</trkpt>
			<trkpt lat="49.7320944" lon="10.8143309">
				<ele>361.2</ele>
				<time>2026-08-23T11:27:44.000Z</time>
			</trkpt>
			<trkpt lat="49.7317147" lon="10.8149751">
				<ele>361.5</ele>
				<time>2026-08-23T11:27:46.000Z</time>
			</trkpt>
			<trkpt lat="49.7313228" lon="10.8155916">
				<ele>362.2</ele>
				<time>2026-08-23T11:27:48.000Z</time>
			</trkpt>
			<trkpt lat="49.730922" lon="10.816195">
				<ele>362.3</ele>
				<time>2026-08-23T11:27:50.000Z</time>
			</trkpt>
			<trkpt lat="49.7303091" lon="10.8170833">
				<ele>363</ele>
				<time>2026-08-23T11:27:53.000Z</time>
			</trkpt>
			<trkpt lat="49.7296903" lon="10.8179245">
				<ele>364</ele>
				<time>2026-08-23T11:27:56.000Z</time>
			</trkpt>
			<trkpt lat="49.7292723" lon="10.8184744">
				<ele>363.8</ele>
				<time>2026-08-23T11:27:58.000Z</time>
			</trkpt>
			<trkpt lat="49.7286438" lon="10.8192931">
				<ele>363.6</ele>
				<time>2026-08-23T11:28:01.000Z</time>
			</trkpt>
			<trkpt lat="49.728009" lon="10.8201122">
				<ele>363.3</ele>
				<time>2026-08-23T11:28:04.000Z</time>
			</trkpt>
			<trkpt lat="49.7275846" lon="10.8206572">
				<ele>363.4</ele>
				<time>2026-08-23T11:28:06.000Z</time>
			</trkpt>
			<trkpt lat="49.7269397" lon="10.8214589">
				<ele>366.5</ele>
				<time>2026-08-23T11:28:09.000Z</time>
			</trkpt>
			<trkpt lat="49.7263035" lon="10.8222859">
				<ele>366.1</ele>
				<time>2026-08-23T11:28:12.000Z</time>
			</trkpt>
			<trkpt lat="49.7258808" lon="10.8228486">
				<ele>365.9</ele>
				<time>2026-08-23T11:28:14.000Z</time>
			</trkpt>
			<trkpt lat="49.7254587" lon="10.8234194">
				<ele>365.9</ele>
				<time>2026-08-23T11:28:16.000Z</time>
			</trkpt>
			<trkpt lat="49.7248304" lon="10.8242825">
				<ele>365.7</ele>
				<time>2026-08-23T11:28:19.000Z</time>
			</trkpt>
			<trkpt lat="49.7242053" lon="10.8251717">
				<ele>367.1</ele>
				<time>2026-08-23T11:28:22.000Z</time>
			</trkpt>
			<trkpt lat="49.7237944" lon="10.8257841">
				<ele>367.7</ele>
				<time>2026-08-23T11:28:24.000Z</time>
			</trkpt>
			<trkpt lat="49.7231774" lon="10.8267049">
				<ele>369.6</ele>
				<time>2026-08-23T11:28:27.000Z</time>
			</trkpt>
			<trkpt lat="49.722779" lon="10.8273469">
				<ele>369.8</ele>
				<time>2026-08-23T11:28:29.000Z</time>
			</trkpt>
			<trkpt lat="49.7221854" lon="10.8283212">
				<ele>369.3</ele>
				<time>2026-08-23T11:28:32.000Z</time>
			</trkpt>
			<trkpt lat="49.721598" lon="10.8293305">
				<ele>366.7</ele>
				<time>2026-08-23T11:28:35.000Z</time>
			</trkpt>
			<trkpt lat="49.7210066" lon="10.8303411">
				<ele>366.5</ele>
				<time>2026-08-23T11:28:38.000Z</time>
			</trkpt>
			<trkpt lat="49.7206082" lon="10.8310207">
				<ele>365.5</ele>
				<time>2026-08-23T11:28:40.000Z</time>
			</trkpt>
			<trkpt lat="49.7200204" lon="10.8320727">
				<ele>363.7</ele>
				<time>2026-08-23T11:28:43.000Z</time>
			</trkpt>
			<trkpt lat="49.7196221" lon="10.8327879">
				<ele>362.1</ele>
				<time>2026-08-23T11:28:45.000Z</time>
			</trkpt>
			<trkpt lat="49.7192117" lon="10.8335077">
				<ele>361.1</ele>
				<time>2026-08-23T11:28:47.000Z</time>
			</trkpt>
			<trkpt lat="49.7186058" lon="10.8345762">
				<ele>358.7</ele>
				<time>2026-08-23T11:28:50.000Z</time>
			</trkpt>
			<trkpt lat="49.7182074" lon="10.8352675">
				<ele>356.9</ele>
				<time>2026-08-23T11:28:52.000Z</time>
			</trkpt>
			<trkpt lat="49.7176051" lon="10.8363054">
				<ele>354.5</ele>
				<time>2026-08-23T11:28:55.000Z</time>
			</trkpt>
			<trkpt lat="49.7169929" lon="10.8373258">
				<ele>352</ele>
				<time>2026-08-23T11:28:58.000Z</time>
			</trkpt>
			<trkpt lat="49.7163868" lon="10.838308">
				<ele>349.6</ele>
				<time>2026-08-23T11:29:01.000Z</time>
			</trkpt>
			<trkpt lat="49.7157643" lon="10.8392591">
				<ele>347.5</ele>
				<time>2026-08-23T11:29:04.000Z</time>
			</trkpt>
			<trkpt lat="49.7151292" lon="10.8401966">
				<ele>345.4</ele>
				<time>2026-08-23T11:29:07.000Z</time>
			</trkpt>
			<trkpt lat="49.7144798" lon="10.8411385">
				<ele>343.7</ele>
				<time>2026-08-23T11:29:10.000Z</time>
			</trkpt>
			<trkpt lat="49.7138211" lon="10.8420431">
				<ele>341.5</ele>
				<time>2026-08-23T11:29:13.000Z</time>
			</trkpt>
			<trkpt lat="49.7131455" lon="10.8429368">
				<ele>339.4</ele>
				<time>2026-08-23T11:29:16.000Z</time>
			</trkpt>
			<trkpt lat="49.7126795" lon="10.8435165">
				<ele>339</ele>
				<time>2026-08-23T11:29:18.000Z</time>
			</trkpt>
			<trkpt lat="49.7120002" lon="10.8443594">
				<ele>338.5</ele>
				<time>2026-08-23T11:29:21.000Z</time>
			</trkpt>
			<trkpt lat="49.7113269" lon="10.8451801">
				<ele>333.6</ele>
				<time>2026-08-23T11:29:24.000Z</time>
			</trkpt>
			<trkpt lat="49.7106287" lon="10.8459689">
				<ele>331.4</ele>
				<time>2026-08-23T11:29:27.000Z</time>
			</trkpt>
			<trkpt lat="49.7101661" lon="10.8464891">
				<ele>329</ele>
				<time>2026-08-23T11:29:29.000Z</time>
			</trkpt>
			<trkpt lat="49.7094499" lon="10.8472527">
				<ele>327.7</ele>
				<time>2026-08-23T11:29:32.000Z</time>
			</trkpt>
			<trkpt lat="49.7087194" lon="10.8480028">
				<ele>326.9</ele>
				<time>2026-08-23T11:29:35.000Z</time>
			</trkpt>
			<trkpt lat="49.7079996" lon="10.8487099">
				<ele>324.3</ele>
				<time>2026-08-23T11:29:38.000Z</time>
			</trkpt>
			<trkpt lat="49.7075077" lon="10.8491774">
				<ele>323.2</ele>
				<time>2026-08-23T11:29:40.000Z</time>
			</trkpt>
			<trkpt lat="49.7067735" lon="10.8498734">
				<ele>319.6</ele>
				<time>2026-08-23T11:29:43.000Z</time>
			</trkpt>
			<trkpt lat="49.7060102" lon="10.8505217">
				<ele>318.6</ele>
				<time>2026-08-23T11:29:46.000Z</time>
			</trkpt>
			<trkpt lat="49.7054965" lon="10.8509439">
				<ele>318.6</ele>
				<time>2026-08-23T11:29:48.000Z</time>
			</trkpt>
			<trkpt lat="49.7047237" lon="10.8515723">
				<ele>318.4</ele>
				<time>2026-08-23T11:29:51.000Z</time>
			</trkpt>
			<trkpt lat="49.7039595" lon="10.8521638">
				<ele>318.8</ele>
				<time>2026-08-23T11:29:54.000Z</time>
			</trkpt>
			<trkpt lat="49.7034412" lon="10.852546">
				<ele>319.7</ele>
				<time>2026-08-23T11:29:56.000Z</time>
			</trkpt>
			<trkpt lat="49.7026464" lon="10.8530916">
				<ele>320.1</ele>
				<time>2026-08-23T11:29:59.000Z</time>
			</trkpt>
			<trkpt lat="49.7021101" lon="10.8534511">
				<ele>321.4</ele>
				<time>2026-08-23T11:30:01.000Z</time>
			</trkpt>
			<trkpt lat="49.7013229" lon="10.8539761">
				<ele>321.2</ele>
				<time>2026-08-23T11:30:04.000Z</time>
			</trkpt>
			<trkpt lat="49.7007955" lon="10.8543185">
				<ele>321.7</ele>
				<time>2026-08-23T11:30:06.000Z</time>
			</trkpt>
			<trkpt lat="49.6999918" lon="10.85479">
				<ele>323.3</ele>
				<time>2026-08-23T11:30:09.000Z</time>
			</trkpt>
			<trkpt lat="49.6994604" lon="10.8551008">
				<ele>323.7</ele>
				<time>2026-08-23T11:30:11.000Z</time>
			</trkpt>
			<trkpt lat="49.6986555" lon="10.855543">
				<ele>323.9</ele>
				<time>2026-08-23T11:30:14.000Z</time>
			</trkpt>
			<trkpt lat="49.6978398" lon="10.8559669">
				<ele>324.5</ele>
				<time>2026-08-23T11:30:17.000Z</time>
			</trkpt>
			<trkpt lat="49.6972934" lon="10.8562451">
				<ele>324.7</ele>
				<time>2026-08-23T11:30:19.000Z</time>
			</trkpt>
			<trkpt lat="49.6964687" lon="10.8566479">
				<ele>324.3</ele>
				<time>2026-08-23T11:30:22.000Z</time>
			</trkpt>
			<trkpt lat="49.6959225" lon="10.8569193">
				<ele>323.8</ele>
				<time>2026-08-23T11:30:24.000Z</time>
			</trkpt>
			<trkpt lat="49.6950831" lon="10.8573213">
				<ele>324.2</ele>
				<time>2026-08-23T11:30:27.000Z</time>
			</trkpt>
			<trkpt lat="49.6942412" lon="10.8577112">
				<ele>323.5</ele>
				<time>2026-08-23T11:30:30.000Z</time>
			</trkpt>
			<trkpt lat="49.6934002" lon="10.8581106">
				<ele>322.5</ele>
				<time>2026-08-23T11:30:33.000Z</time>
			</trkpt>
			<trkpt lat="49.6928343" lon="10.8583646">
				<ele>320.9</ele>
				<time>2026-08-23T11:30:35.000Z</time>
			</trkpt>
			<trkpt lat="49.6919607" lon="10.8587752">
				<ele>320.6</ele>
				<time>2026-08-23T11:30:38.000Z</time>
			</trkpt>
			<trkpt lat="49.6913792" lon="10.8590512">
				<ele>320.8</ele>
				<time>2026-08-23T11:30:40.000Z</time>
			</trkpt>
			<trkpt lat="49.6905262" lon="10.859473">
				<ele>321</ele>
				<time>2026-08-23T11:30:43.000Z</time>
			</trkpt>
			<trkpt lat="49.6899736" lon="10.8597555">
				<ele>320.8</ele>
				<time>2026-08-23T11:30:45.000Z</time>
			</trkpt>
			<trkpt lat="49.6891475" lon="10.8601798">
				<ele>321</ele>
				<time>2026-08-23T11:30:48.000Z</time>
			</trkpt>
			<trkpt lat="49.6883213" lon="10.8606099">
				<ele>321.7</ele>
				<time>2026-08-23T11:30:51.000Z</time>
			</trkpt>
			<trkpt lat="49.6874933" lon="10.8610504">
				<ele>323.6</ele>
				<time>2026-08-23T11:30:54.000Z</time>
			</trkpt>
			<trkpt lat="49.6866713" lon="10.861515">
				<ele>325.8</ele>
				<time>2026-08-23T11:30:57.000Z</time>
			</trkpt>
			<trkpt lat="49.6858635" lon="10.862005">
				<ele>327</ele>
				<time>2026-08-23T11:31:00.000Z</time>
			</trkpt>
			<trkpt lat="49.6850662" lon="10.8625135">
				<ele>329.6</ele>
				<time>2026-08-23T11:31:03.000Z</time>
			</trkpt>
			<trkpt lat="49.6842736" lon="10.863037">
				<ele>332.4</ele>
				<time>2026-08-23T11:31:06.000Z</time>
			</trkpt>
			<trkpt lat="49.6834962" lon="10.8635805">
				<ele>334.8</ele>
				<time>2026-08-23T11:31:09.000Z</time>
			</trkpt>
			<trkpt lat="49.6827303" lon="10.8641319">
				<ele>337.1</ele>
				<time>2026-08-23T11:31:12.000Z</time>
			</trkpt>
			<trkpt lat="49.6819712" lon="10.8647117">
				<ele>339.2</ele>
				<time>2026-08-23T11:31:15.000Z</time>
			</trkpt>
			<trkpt lat="49.6812176" lon="10.8653068">
				<ele>342.1</ele>
				<time>2026-08-23T11:31:18.000Z</time>
			</trkpt>
			<trkpt lat="49.6804751" lon="10.8658992">
				<ele>344.9</ele>
				<time>2026-08-23T11:31:21.000Z</time>
			</trkpt>
			<trkpt lat="49.6799931" lon="10.866305">
				<ele>347.3</ele>
				<time>2026-08-23T11:31:23.000Z</time>
			</trkpt>
			<trkpt lat="49.6792839" lon="10.8669293">
				<ele>348.5</ele>
				<time>2026-08-23T11:31:26.000Z</time>
			</trkpt>
			<trkpt lat="49.6785754" lon="10.8675881">
				<ele>349.5</ele>
				<time>2026-08-23T11:31:29.000Z</time>
			</trkpt>
			<trkpt lat="49.6778684" lon="10.8682564">
				<ele>350.8</ele>
				<time>2026-08-23T11:31:32.000Z</time>
			</trkpt>
			<trkpt lat="49.6771644" lon="10.8689308">
				<ele>351.4</ele>
				<time>2026-08-23T11:31:35.000Z</time>
			</trkpt>
			<trkpt lat="49.6764623" lon="10.8696522">
				<ele>352.6</ele>
				<time>2026-08-23T11:31:38.000Z</time>
			</trkpt>
			<trkpt lat="49.6759972" lon="10.8701395">
				<ele>353.6</ele>
				<time>2026-08-23T11:31:40.000Z</time>
			</trkpt>
			<trkpt lat="49.6752944" lon="10.8709046">
				<ele>354.5</ele>
				<time>2026-08-23T11:31:43.000Z</time>
			</trkpt>
			<trkpt lat="49.6745902" lon="10.8716942">
				<ele>354.1</ele>
				<time>2026-08-23T11:31:46.000Z</time>
			</trkpt>
			<trkpt lat="49.673883" lon="10.8725185">
				<ele>353.9</ele>
				<time>2026-08-23T11:31:49.000Z</time>
			</trkpt>
			<trkpt lat="49.6731869" lon="10.8733692">
				<ele>353.7</ele>
				<time>2026-08-23T11:31:52.000Z</time>
			</trkpt>
			<trkpt lat="49.6724956" lon="10.8742415">
				<ele>352.9</ele>
				<time>2026-08-23T11:31:55.000Z</time>
			</trkpt>
			<trkpt lat="49.6720396" lon="10.8748464">
				<ele>352.8</ele>
				<time>2026-08-23T11:31:57.000Z</time>
			</trkpt>
			<trkpt lat="49.6713545" lon="10.8757623">
				<ele>352.5</ele>
				<time>2026-08-23T11:32:00.000Z</time>
			</trkpt>
			<trkpt lat="49.6706741" lon="10.8767065">
				<ele>352.5</ele>
				<time>2026-08-23T11:32:03.000Z</time>
			</trkpt>
			<trkpt lat="49.6702297" lon="10.8773467">
				<ele>352.3</ele>
				<time>2026-08-23T11:32:05.000Z</time>
			</trkpt>
			<trkpt lat="49.6695759" lon="10.8783265">
				<ele>352.1</ele>
				<time>2026-08-23T11:32:08.000Z</time>
			</trkpt>
			<trkpt lat="49.6691412" lon="10.8789913">
				<ele>351.8</ele>
				<time>2026-08-23T11:32:10.000Z</time>
			</trkpt>
			<trkpt lat="49.6685006" lon="10.8799894">
				<ele>351.7</ele>
				<time>2026-08-23T11:32:13.000Z</time>
			</trkpt>
			<trkpt lat="49.6678698" lon="10.8809712">
				<ele>352.1</ele>
				<time>2026-08-23T11:32:16.000Z</time>
			</trkpt>
			<trkpt lat="49.6674502" lon="10.8816334">
				<ele>352.1</ele>
				<time>2026-08-23T11:32:18.000Z</time>
			</trkpt>
			<trkpt lat="49.6670398" lon="10.8823053">
				<ele>351</ele>
				<time>2026-08-23T11:32:20.000Z</time>
			</trkpt>
			<trkpt lat="49.6664047" lon="10.8833302">
				<ele>350.2</ele>
				<time>2026-08-23T11:32:23.000Z</time>
			</trkpt>
			<trkpt lat="49.6657828" lon="10.8843262">
				<ele>349.8</ele>
				<time>2026-08-23T11:32:26.000Z</time>
			</trkpt>
			<trkpt lat="49.6651707" lon="10.8852902">
				<ele>349.5</ele>
				<time>2026-08-23T11:32:29.000Z</time>
			</trkpt>
			<trkpt lat="49.6647617" lon="10.885924">
				<ele>349.3</ele>
				<time>2026-08-23T11:32:31.000Z</time>
			</trkpt>
			<trkpt lat="49.6641423" lon="10.8868567">
				<ele>349.3</ele>
				<time>2026-08-23T11:32:34.000Z</time>
			</trkpt>
			<trkpt lat="49.6635164" lon="10.8877639">
				<ele>349.4</ele>
				<time>2026-08-23T11:32:37.000Z</time>
			</trkpt>
			<trkpt lat="49.662893" lon="10.8887153">
				<ele>348.2</ele>
				<time>2026-08-23T11:32:40.000Z</time>
			</trkpt>
			<trkpt lat="49.6622452" lon="10.8896142">
				<ele>347.9</ele>
				<time>2026-08-23T11:32:43.000Z</time>
			</trkpt>
			<trkpt lat="49.6617931" lon="10.8902006">
				<ele>346.8</ele>
				<time>2026-08-23T11:32:45.000Z</time>
			</trkpt>
			<trkpt lat="49.661094" lon="10.8910581">
				<ele>346.2</ele>
				<time>2026-08-23T11:32:48.000Z</time>
			</trkpt>
			<trkpt lat="49.6603609" lon="10.8919025">
				<ele>345</ele>
				<time>2026-08-23T11:32:51.000Z</time>
			</trkpt>
			<trkpt lat="49.6596123" lon="10.8927326">
				<ele>344.3</ele>
				<time>2026-08-23T11:32:54.000Z</time>
			</trkpt>
			<trkpt lat="49.6588721" lon="10.8935148">
				<ele>343.1</ele>
				<time>2026-08-23T11:32:57.000Z</time>
			</trkpt>
			<trkpt lat="49.6583635" lon="10.8940313">
				<ele>342.7</ele>
				<time>2026-08-23T11:32:59.000Z</time>
			</trkpt>
			<trkpt lat="49.6575946" lon="10.8947597">
				<ele>341.2</ele>
				<time>2026-08-23T11:33:02.000Z</time>
			</trkpt>
			<trkpt lat="49.6567967" lon="10.8954417">
				<ele>340.5</ele>
				<time>2026-08-23T11:33:05.000Z</time>
			</trkpt>
			<trkpt lat="49.6560062" lon="10.8961294">
				<ele>340.3</ele>
				<time>2026-08-23T11:33:08.000Z</time>
			</trkpt>
			<trkpt lat="49.655222" lon="10.8968269">
				<ele>339.1</ele>
				<time>2026-08-23T11:33:11.000Z</time>
			</trkpt>
			<trkpt lat="49.6544422" lon="10.8974882">
				<ele>340</ele>
				<time>2026-08-23T11:33:14.000Z</time>
			</trkpt>
			<trkpt lat="49.6536724" lon="10.8981408">
				<ele>339.9</ele>
				<time>2026-08-23T11:33:17.000Z</time>
			</trkpt>
			<trkpt lat="49.6531662" lon="10.8985868">
				<ele>340.7</ele>
				<time>2026-08-23T11:33:19.000Z</time>
			</trkpt>
			<trkpt lat="49.6524501" lon="10.8992465">
				<ele>333.7</ele>
				<time>2026-08-23T11:33:22.000Z</time>
			</trkpt>
			<trkpt lat="49.6517013" lon="10.8999376">
				<ele>331.9</ele>
				<time>2026-08-23T11:33:25.000Z</time>
			</trkpt>
			<trkpt lat="49.6512048" lon="10.9004254">
				<ele>331.5</ele>
				<time>2026-08-23T11:33:27.000Z</time>
			</trkpt>
			<trkpt lat="49.6504631" lon="10.9011785">
				<ele>331.3</ele>
				<time>2026-08-23T11:33:30.000Z</time>
			</trkpt>
			<trkpt lat="49.6497259" lon="10.9019533">
				<ele>331.5</ele>
				<time>2026-08-23T11:33:33.000Z</time>
			</trkpt>
			<trkpt lat="49.6492368" lon="10.9024863">
				<ele>331.9</ele>
				<time>2026-08-23T11:33:35.000Z</time>
			</trkpt>
			<trkpt lat="49.6485183" lon="10.9033275">
				<ele>330.9</ele>
				<time>2026-08-23T11:33:38.000Z</time>
			</trkpt>
			<trkpt lat="49.6478116" lon="10.9041492">
				<ele>331.3</ele>
				<time>2026-08-23T11:33:41.000Z</time>
			</trkpt>
			<trkpt lat="49.6473487" lon="10.9046951">
				<ele>331.5</ele>
				<time>2026-08-23T11:33:43.000Z</time>
			</trkpt>
			<trkpt lat="49.6468877" lon="10.9052454">
				<ele>332</ele>
				<time>2026-08-23T11:33:45.000Z</time>
			</trkpt>
			<trkpt lat="49.6461962" lon="10.9060709">
				<ele>332.5</ele>
				<time>2026-08-23T11:33:48.000Z</time>
			</trkpt>
			<trkpt lat="49.6455042" lon="10.9068992">
				<ele>332.2</ele>
				<time>2026-08-23T11:33:51.000Z</time>
			</trkpt>
			<trkpt lat="49.6450348" lon="10.9074373">
				<ele>332.5</ele>
				<time>2026-08-23T11:33:53.000Z</time>
			</trkpt>
			<trkpt lat="49.6443238" lon="10.9082254">
				<ele>332.8</ele>
				<time>2026-08-23T11:33:56.000Z</time>
			</trkpt>
			<trkpt lat="49.6436101" lon="10.9090124">
				<ele>331.9</ele>
				<time>2026-08-23T11:33:59.000Z</time>
			</trkpt>
			<trkpt lat="49.6428836" lon="10.9097702">
				<ele>332.6</ele>
				<time>2026-08-23T11:34:02.000Z</time>
			</trkpt>
			<trkpt lat="49.6423993" lon="10.9102499">
				<ele>332.4</ele>
				<time>2026-08-23T11:34:04.000Z</time>
			</trkpt>
			<trkpt lat="49.6416566" lon="10.9109375">
				<ele>332.7</ele>
				<time>2026-08-23T11:34:07.000Z</time>
			</trkpt>
			<trkpt lat="49.6408984" lon="10.911615">
				<ele>334.1</ele>
				<time>2026-08-23T11:34:10.000Z</time>
			</trkpt>
			<trkpt lat="49.64014" lon="10.9122824">
				<ele>334.6</ele>
				<time>2026-08-23T11:34:13.000Z</time>
			</trkpt>
			<trkpt lat="49.6396314" lon="10.9127163">
				<ele>334.7</ele>
				<time>2026-08-23T11:34:15.000Z</time>
			</trkpt>
			<trkpt lat="49.6388578" lon="10.9133203">
				<ele>334.7</ele>
				<time>2026-08-23T11:34:18.000Z</time>
			</trkpt>
			<trkpt lat="49.6383455" lon="10.9137109">
				<ele>334.2</ele>
				<time>2026-08-23T11:34:20.000Z</time>
			</trkpt>
			<trkpt lat="49.6375464" lon="10.9142444">
				<ele>335.3</ele>
				<time>2026-08-23T11:34:23.000Z</time>
			</trkpt>
			<trkpt lat="49.6370062" lon="10.9145969">
				<ele>336</ele>
				<time>2026-08-23T11:34:25.000Z</time>
			</trkpt>
			<trkpt lat="49.6362059" lon="10.9150929">
				<ele>335.6</ele>
				<time>2026-08-23T11:34:28.000Z</time>
			</trkpt>
			<trkpt lat="49.6356662" lon="10.9154084">
				<ele>336.1</ele>
				<time>2026-08-23T11:34:30.000Z</time>
			</trkpt>
			<trkpt lat="49.6348411" lon="10.9158431">
				<ele>337.5</ele>
				<time>2026-08-23T11:34:33.000Z</time>
			</trkpt>
			<trkpt lat="49.6342833" lon="10.9160954">
				<ele>338</ele>
				<time>2026-08-23T11:34:35.000Z</time>
			</trkpt>
			<trkpt lat="49.6334495" lon="10.9164718">
				<ele>337.7</ele>
				<time>2026-08-23T11:34:38.000Z</time>
			</trkpt>
			<trkpt lat="49.6328907" lon="10.9167176">
				<ele>338.4</ele>
				<time>2026-08-23T11:34:40.000Z</time>
			</trkpt>
			<trkpt lat="49.6323341" lon="10.9169497">
				<ele>338.5</ele>
				<time>2026-08-23T11:34:42.000Z</time>
			</trkpt>
			<trkpt lat="49.631492" lon="10.9172637">
				<ele>338.2</ele>
				<time>2026-08-23T11:34:45.000Z</time>
			</trkpt>
			<trkpt lat="49.6309316" lon="10.9174644">
				<ele>338.6</ele>
				<time>2026-08-23T11:34:47.000Z</time>
			</trkpt>
			<trkpt lat="49.6300888" lon="10.9177416">
				<ele>338.2</ele>
				<time>2026-08-23T11:34:50.000Z</time>
			</trkpt>
			<trkpt lat="49.6292374" lon="10.9179836">
				<ele>338.3</ele>
				<time>2026-08-23T11:34:53.000Z</time>
			</trkpt>
			<trkpt lat="49.6286682" lon="10.9181249">
				<ele>338.3</ele>
				<time>2026-08-23T11:34:55.000Z</time>
			</trkpt>
			<trkpt lat="49.6278104" lon="10.9183545">
				<ele>338.6</ele>
				<time>2026-08-23T11:34:58.000Z</time>
			</trkpt>
			<trkpt lat="49.6269609" lon="10.9185766">
				<ele>338.9</ele>
				<time>2026-08-23T11:35:01.000Z</time>
			</trkpt>
			<trkpt lat="49.626107" lon="10.9188001">
				<ele>339.5</ele>
				<time>2026-08-23T11:35:04.000Z</time>
			</trkpt>
			<trkpt lat="49.6252435" lon="10.9190338">
				<ele>341.1</ele>
				<time>2026-08-23T11:35:07.000Z</time>
			</trkpt>
			<trkpt lat="49.62439" lon="10.9192958">
				<ele>341.8</ele>
				<time>2026-08-23T11:35:10.000Z</time>
			</trkpt>
			<trkpt lat="49.6235472" lon="10.9195822">
				<ele>342</ele>
				<time>2026-08-23T11:35:13.000Z</time>
			</trkpt>
			<trkpt lat="49.6226939" lon="10.9198874">
				<ele>342.8</ele>
				<time>2026-08-23T11:35:16.000Z</time>
			</trkpt>
			<trkpt lat="49.6221307" lon="10.920111">
				<ele>343.5</ele>
				<time>2026-08-23T11:35:18.000Z</time>
			</trkpt>
			<trkpt lat="49.6215709" lon="10.92034">
				<ele>343.9</ele>
				<time>2026-08-23T11:35:20.000Z</time>
			</trkpt>
			<trkpt lat="49.6207369" lon="10.9207242">
				<ele>344.5</ele>
				<time>2026-08-23T11:35:23.000Z</time>
			</trkpt>
			<trkpt lat="49.6201868" lon="10.9209911">
				<ele>344.6</ele>
				<time>2026-08-23T11:35:25.000Z</time>
			</trkpt>
			<trkpt lat="49.6193702" lon="10.9214189">
				<ele>344.5</ele>
				<time>2026-08-23T11:35:28.000Z</time>
			</trkpt>
			<trkpt lat="49.6185642" lon="10.921881">
				<ele>344.6</ele>
				<time>2026-08-23T11:35:31.000Z</time>
			</trkpt>
			<trkpt lat="49.617754" lon="10.9223572">
				<ele>345.8</ele>
				<time>2026-08-23T11:35:34.000Z</time>
			</trkpt>
			<trkpt lat="49.6169553" lon="10.9228509">
				<ele>347.1</ele>
				<time>2026-08-23T11:35:37.000Z</time>
			</trkpt>
			<trkpt lat="49.6164301" lon="10.9231851">
				<ele>347.5</ele>
				<time>2026-08-23T11:35:39.000Z</time>
			</trkpt>
			<trkpt lat="49.6156362" lon="10.9236986">
				<ele>348.9</ele>
				<time>2026-08-23T11:35:42.000Z</time>
			</trkpt>
			<trkpt lat="49.614851" lon="10.9242483">
				<ele>349.4</ele>
				<time>2026-08-23T11:35:45.000Z</time>
			</trkpt>
			<trkpt lat="49.6140377" lon="10.9247689">
				<ele>351.1</ele>
				<time>2026-08-23T11:35:48.000Z</time>
			</trkpt>
			<trkpt lat="49.6132269" lon="10.9252601">
				<ele>353.7</ele>
				<time>2026-08-23T11:35:51.000Z</time>
			</trkpt>
			<trkpt lat="49.6126746" lon="10.9255607">
				<ele>355.3</ele>
				<time>2026-08-23T11:35:53.000Z</time>
			</trkpt>
			<trkpt lat="49.6121182" lon="10.9258413">
				<ele>357</ele>
				<time>2026-08-23T11:35:55.000Z</time>
			</trkpt>
			<trkpt lat="49.611276" lon="10.9262355">
				<ele>358.5</ele>
				<time>2026-08-23T11:35:58.000Z</time>
			</trkpt>
			<trkpt lat="49.6104313" lon="10.9265781">
				<ele>359.8</ele>
				<time>2026-08-23T11:36:01.000Z</time>
			</trkpt>
			<trkpt lat="49.6095629" lon="10.926885">
				<ele>360</ele>
				<time>2026-08-23T11:36:04.000Z</time>
			</trkpt>
			<trkpt lat="49.6086997" lon="10.9271663">
				<ele>358.8</ele>
				<time>2026-08-23T11:36:07.000Z</time>
			</trkpt>
			<trkpt lat="49.6081029" lon="10.9273125">
				<ele>359.4</ele>
				<time>2026-08-23T11:36:09.000Z</time>
			</trkpt>
			<trkpt lat="49.6074995" lon="10.9274476">
				<ele>358.6</ele>
				<time>2026-08-23T11:36:11.000Z</time>
			</trkpt>
			<trkpt lat="49.6065763" lon="10.9276182">
				<ele>357.9</ele>
				<time>2026-08-23T11:36:14.000Z</time>
			</trkpt>
			<trkpt lat="49.6056635" lon="10.9277423">
				<ele>357</ele>
				<time>2026-08-23T11:36:17.000Z</time>
			</trkpt>
			<trkpt lat="49.605051" lon="10.9277932">
				<ele>356.6</ele>
				<time>2026-08-23T11:36:19.000Z</time>
			</trkpt>
			<trkpt lat="49.604435" lon="10.9278304">
				<ele>356.4</ele>
				<time>2026-08-23T11:36:21.000Z</time>
			</trkpt>
			<trkpt lat="49.6035022" lon="10.9278175">
				<ele>356.4</ele>
				<time>2026-08-23T11:36:24.000Z</time>
			</trkpt>
			<trkpt lat="49.6025812" lon="10.9277409">
				<ele>356.8</ele>
				<time>2026-08-23T11:36:27.000Z</time>
			</trkpt>
			<trkpt lat="49.6019801" lon="10.9276922">
				<ele>356.6</ele>
				<time>2026-08-23T11:36:29.000Z</time>
			</trkpt>
			<trkpt lat="49.6010888" lon="10.9275812">
				<ele>357.1</ele>
				<time>2026-08-23T11:36:32.000Z</time>
			</trkpt>
			<trkpt lat="49.6005001" lon="10.9274964">
				<ele>356.7</ele>
				<time>2026-08-23T11:36:34.000Z</time>
			</trkpt>
			<trkpt lat="49.5996057" lon="10.9273257">
				<ele>356.5</ele>
				<time>2026-08-23T11:36:37.000Z</time>
			</trkpt>
			<trkpt lat="49.5990153" lon="10.9272166">
				<ele>356.4</ele>
				<time>2026-08-23T11:36:39.000Z</time>
			</trkpt>
			<trkpt lat="49.5981257" lon="10.9270408">
				<ele>356.8</ele>
				<time>2026-08-23T11:36:42.000Z</time>
			</trkpt>
			<trkpt lat="49.5975292" lon="10.9269305">
				<ele>356</ele>
				<time>2026-08-23T11:36:44.000Z</time>
			</trkpt>
			<trkpt lat="49.5969328" lon="10.9268133">
				<ele>356.3</ele>
				<time>2026-08-23T11:36:46.000Z</time>
			</trkpt>
			<trkpt lat="49.596046" lon="10.9266429">
				<ele>357.9</ele>
				<time>2026-08-23T11:36:49.000Z</time>
			</trkpt>
			<trkpt lat="49.5951563" lon="10.9264767">
				<ele>360</ele>
				<time>2026-08-23T11:36:52.000Z</time>
			</trkpt>
			<trkpt lat="49.5945835" lon="10.9263814">
				<ele>359.3</ele>
				<time>2026-08-23T11:36:54.000Z</time>
			</trkpt>
			<trkpt lat="49.5937165" lon="10.9262482">
				<ele>360.2</ele>
				<time>2026-08-23T11:36:57.000Z</time>
			</trkpt>
			<trkpt lat="49.5931395" lon="10.9261698">
				<ele>361.3</ele>
				<time>2026-08-23T11:36:59.000Z</time>
			</trkpt>
			<trkpt lat="49.5925546" lon="10.926107">
				<ele>361.9</ele>
				<time>2026-08-23T11:37:01.000Z</time>
			</trkpt>
			<trkpt lat="49.5916736" lon="10.9260507">
				<ele>361.9</ele>
				<time>2026-08-23T11:37:04.000Z</time>
			</trkpt>
			<trkpt lat="49.5911239" lon="10.9260545">
				<ele>360.4</ele>
				<time>2026-08-23T11:37:06.000Z</time>
			</trkpt>
			<trkpt lat="49.590242" lon="10.926055">
				<ele>359.3</ele>
				<time>2026-08-23T11:37:09.000Z</time>
			</trkpt>
			<trkpt lat="49.5893662" lon="10.926091">
				<ele>359.5</ele>
				<time>2026-08-23T11:37:12.000Z</time>
			</trkpt>
			<trkpt lat="49.5887822" lon="10.9261322">
				<ele>359.9</ele>
				<time>2026-08-23T11:37:14.000Z</time>
			</trkpt>
			<trkpt lat="49.5879195" lon="10.9262402">
				<ele>360.2</ele>
				<time>2026-08-23T11:37:17.000Z</time>
			</trkpt>
			<trkpt lat="49.5873378" lon="10.9263339">
				<ele>360.9</ele>
				<time>2026-08-23T11:37:19.000Z</time>
			</trkpt>
			<trkpt lat="49.586464" lon="10.9264936">
				<ele>362.3</ele>
				<time>2026-08-23T11:37:22.000Z</time>
			</trkpt>
			<trkpt lat="49.5855944" lon="10.9267046">
				<ele>363.7</ele>
				<time>2026-08-23T11:37:25.000Z</time>
			</trkpt>
			<trkpt lat="49.5847208" lon="10.9269337">
				<ele>364.2</ele>
				<time>2026-08-23T11:37:28.000Z</time>
			</trkpt>
			<trkpt lat="49.5838522" lon="10.9272153">
				<ele>364.1</ele>
				<time>2026-08-23T11:37:31.000Z</time>
			</trkpt>
			<trkpt lat="49.5832733" lon="10.9274207">
				<ele>364.9</ele>
				<time>2026-08-23T11:37:33.000Z</time>
			</trkpt>
			<trkpt lat="49.582414" lon="10.9277632">
				<ele>365</ele>
				<time>2026-08-23T11:37:36.000Z</time>
			</trkpt>
			<trkpt lat="49.58184" lon="10.9280119">
				<ele>365.7</ele>
				<time>2026-08-23T11:37:38.000Z</time>
			</trkpt>
			<trkpt lat="49.5809938" lon="10.9284024">
				<ele>366.9</ele>
				<time>2026-08-23T11:37:41.000Z</time>
			</trkpt>
			<trkpt lat="49.5801502" lon="10.9288432">
				<ele>367.5</ele>
				<time>2026-08-23T11:37:44.000Z</time>
			</trkpt>
			<trkpt lat="49.5793127" lon="10.9293232">
				<ele>368.3</ele>
				<time>2026-08-23T11:37:47.000Z</time>
			</trkpt>
			<trkpt lat="49.5787591" lon="10.9296688">
				<ele>368.7</ele>
				<time>2026-08-23T11:37:49.000Z</time>
			</trkpt>
			<trkpt lat="49.5779262" lon="10.9302048">
				<ele>369.4</ele>
				<time>2026-08-23T11:37:52.000Z</time>
			</trkpt>
			<trkpt lat="49.5773802" lon="10.9305897">
				<ele>369.8</ele>
				<time>2026-08-23T11:37:54.000Z</time>
			</trkpt>
			<trkpt lat="49.5765688" lon="10.9311868">
				<ele>371.1</ele>
				<time>2026-08-23T11:37:57.000Z</time>
			</trkpt>
			<trkpt lat="49.5757878" lon="10.9318277">
				<ele>369.6</ele>
				<time>2026-08-23T11:38:00.000Z</time>
			</trkpt>
			<trkpt lat="49.57502" lon="10.932483">
				<ele>367.4</ele>
				<time>2026-08-23T11:38:03.000Z</time>
			</trkpt>
			<trkpt lat="49.5745144" lon="10.9329478">
				<ele>366.8</ele>
				<time>2026-08-23T11:38:05.000Z</time>
			</trkpt>
			<trkpt lat="49.5740074" lon="10.9334216">
				<ele>365.5</ele>
				<time>2026-08-23T11:38:07.000Z</time>
			</trkpt>
			<trkpt lat="49.5732629" lon="10.934163">
				<ele>365.5</ele>
				<time>2026-08-23T11:38:10.000Z</time>
			</trkpt>
			<trkpt lat="49.5725149" lon="10.9349471">
				<ele>365</ele>
				<time>2026-08-23T11:38:13.000Z</time>
			</trkpt>
			<trkpt lat="49.5717869" lon="10.9357692">
				<ele>362.9</ele>
				<time>2026-08-23T11:38:16.000Z</time>
			</trkpt>
			<trkpt lat="49.5710696" lon="10.936625">
				<ele>362.4</ele>
				<time>2026-08-23T11:38:19.000Z</time>
			</trkpt>
			<trkpt lat="49.57037" lon="10.9375204">
				<ele>361.2</ele>
				<time>2026-08-23T11:38:22.000Z</time>
			</trkpt>
			<trkpt lat="49.5696864" lon="10.938438">
				<ele>360</ele>
				<time>2026-08-23T11:38:25.000Z</time>
			</trkpt>
			<trkpt lat="49.5692335" lon="10.9390799">
				<ele>359.3</ele>
				<time>2026-08-23T11:38:27.000Z</time>
			</trkpt>
			<trkpt lat="49.5685639" lon="10.9400566">
				<ele>358.1</ele>
				<time>2026-08-23T11:38:30.000Z</time>
			</trkpt>
			<trkpt lat="49.5681285" lon="10.9407167">
				<ele>357.1</ele>
				<time>2026-08-23T11:38:32.000Z</time>
			</trkpt>
			<trkpt lat="49.5677059" lon="10.941389">
				<ele>355.9</ele>
				<time>2026-08-23T11:38:34.000Z</time>
			</trkpt>
			<trkpt lat="49.5670777" lon="10.942427">
				<ele>355</ele>
				<time>2026-08-23T11:38:37.000Z</time>
			</trkpt>
			<trkpt lat="49.5666839" lon="10.9431398">
				<ele>354.1</ele>
				<time>2026-08-23T11:38:39.000Z</time>
			</trkpt>
			<trkpt lat="49.5661229" lon="10.9442296">
				<ele>352.5</ele>
				<time>2026-08-23T11:38:42.000Z</time>
			</trkpt>
			<trkpt lat="49.5657721" lon="10.9449843">
				<ele>352.4</ele>
				<time>2026-08-23T11:38:44.000Z</time>
			</trkpt>
			<trkpt lat="49.5652578" lon="10.946101">
				<ele>349.5</ele>
				<time>2026-08-23T11:38:47.000Z</time>
			</trkpt>
			<trkpt lat="49.5649158" lon="10.9468658">
				<ele>348.9</ele>
				<time>2026-08-23T11:38:49.000Z</time>
			</trkpt>
			<trkpt lat="49.564431" lon="10.9480384">
				<ele>348.3</ele>
				<time>2026-08-23T11:38:52.000Z</time>
			</trkpt>
			<trkpt lat="49.5639802" lon="10.9492073">
				<ele>348.2</ele>
				<time>2026-08-23T11:38:55.000Z</time>
			</trkpt>
			<trkpt lat="49.5635458" lon="10.9503693">
				<ele>347.3</ele>
				<time>2026-08-23T11:38:58.000Z</time>
			</trkpt>
			<trkpt lat="49.5632668" lon="10.9511305">
				<ele>346.4</ele>
				<time>2026-08-23T11:39:00.000Z</time>
			</trkpt>
			<trkpt lat="49.5628812" lon="10.9523322">
				<ele>346.5</ele>
				<time>2026-08-23T11:39:03.000Z</time>
			</trkpt>
			<trkpt lat="49.562521" lon="10.953556">
				<ele>345.1</ele>
				<time>2026-08-23T11:39:06.000Z</time>
			</trkpt>
			<trkpt lat="49.5621871" lon="10.9548085">
				<ele>343.7</ele>
				<time>2026-08-23T11:39:09.000Z</time>
			</trkpt>
			<trkpt lat="49.5619789" lon="10.955664">
				<ele>343.6</ele>
				<time>2026-08-23T11:39:11.000Z</time>
			</trkpt>
			<trkpt lat="49.56169" lon="10.9569608">
				<ele>343.6</ele>
				<time>2026-08-23T11:39:14.000Z</time>
			</trkpt>
			<trkpt lat="49.5615118" lon="10.9578315">
				<ele>343.5</ele>
				<time>2026-08-23T11:39:16.000Z</time>
			</trkpt>
			<trkpt lat="49.5612561" lon="10.9591483">
				<ele>344.2</ele>
				<time>2026-08-23T11:39:19.000Z</time>
			</trkpt>
			<trkpt lat="49.5610348" lon="10.9604846">
				<ele>344.7</ele>
				<time>2026-08-23T11:39:22.000Z</time>
			</trkpt>
			<trkpt lat="49.5609029" lon="10.9613882">
				<ele>345</ele>
				<time>2026-08-23T11:39:24.000Z</time>
			</trkpt>
			<trkpt lat="49.5607238" lon="10.962753">
				<ele>345.2</ele>
				<time>2026-08-23T11:39:27.000Z</time>
			</trkpt>
			<trkpt lat="49.5606277" lon="10.9636552">
				<ele>345.1</ele>
				<time>2026-08-23T11:39:29.000Z</time>
			</trkpt>
			<trkpt lat="49.5604998" lon="10.9650191">
				<ele>344.7</ele>
				<time>2026-08-23T11:39:32.000Z</time>
			</trkpt>
			<trkpt lat="49.5603855" lon="10.9663961">
				<ele>345.1</ele>
				<time>2026-08-23T11:39:35.000Z</time>
			</trkpt>
			<trkpt lat="49.5603257" lon="10.9673193">
				<ele>344.8</ele>
				<time>2026-08-23T11:39:37.000Z</time>
			</trkpt>
			<trkpt lat="49.5602635" lon="10.9682622">
				<ele>344.1</ele>
				<time>2026-08-23T11:39:39.000Z</time>
			</trkpt>
			<trkpt lat="49.5601794" lon="10.9696383">
				<ele>343.5</ele>
				<time>2026-08-23T11:39:42.000Z</time>
			</trkpt>
			<trkpt lat="49.5601344" lon="10.9709491">
				<ele>342.2</ele>
				<time>2026-08-23T11:39:45.000Z</time>
			</trkpt>
			<trkpt lat="49.5601195" lon="10.9718025">
				<ele>341.4</ele>
				<time>2026-08-23T11:39:47.000Z</time>
			</trkpt>
			<trkpt lat="49.5601054" lon="10.9730355">
				<ele>339.9</ele>
				<time>2026-08-23T11:39:50.000Z</time>
			</trkpt>
			<trkpt lat="49.5600878" lon="10.9738631">
				<ele>339</ele>
				<time>2026-08-23T11:39:52.000Z</time>
			</trkpt>
			<trkpt lat="49.5600695" lon="10.9751216">
				<ele>336.8</ele>
				<time>2026-08-23T11:39:55.000Z</time>
			</trkpt>
			<trkpt lat="49.5600676" lon="10.9763826">
				<ele>335.4</ele>
				<time>2026-08-23T11:39:58.000Z</time>
			</trkpt>
			<trkpt lat="49.5600605" lon="10.9772191">
				<ele>334.7</ele>
				<time>2026-08-23T11:40:00.000Z</time>
			</trkpt>
			<trkpt lat="49.5600562" lon="10.9780773">
				<ele>333.4</ele>
				<time>2026-08-23T11:40:02.000Z</time>
			</trkpt>
			<trkpt lat="49.5600489" lon="10.9793657">
				<ele>332.9</ele>
				<time>2026-08-23T11:40:05.000Z</time>
			</trkpt>
			<trkpt lat="49.5600464" lon="10.9802105">
				<ele>331.4</ele>
				<time>2026-08-23T11:40:07.000Z</time>
			</trkpt>
			<trkpt lat="49.5600423" lon="10.981066">
				<ele>330.6</ele>
				<time>2026-08-23T11:40:09.000Z</time>
			</trkpt>
			<trkpt lat="49.5600315" lon="10.9823679">
				<ele>330.1</ele>
				<time>2026-08-23T11:40:12.000Z</time>
			</trkpt>
			<trkpt lat="49.5600243" lon="10.983665">
				<ele>329.2</ele>
				<time>2026-08-23T11:40:15.000Z</time>
			</trkpt>
			<trkpt lat="49.5600215" lon="10.9845473">
				<ele>328.9</ele>
				<time>2026-08-23T11:40:17.000Z</time>
			</trkpt>
			<trkpt lat="49.5600143" lon="10.9858572">
				<ele>328.2</ele>
				<time>2026-08-23T11:40:20.000Z</time>
			</trkpt>
			<trkpt lat="49.5600092" lon="10.9867179">
				<ele>328.2</ele>
				<time>2026-08-23T11:40:22.000Z</time>
			</trkpt>
			<trkpt lat="49.5599778" lon="10.9880409">
				<ele>327.8</ele>
				<time>2026-08-23T11:40:25.000Z</time>
			</trkpt>
			<trkpt lat="49.5599462" lon="10.9889179">
				<ele>328.5</ele>
				<time>2026-08-23T11:40:27.000Z</time>
			</trkpt>
			<trkpt lat="49.5598732" lon="10.99023">
				<ele>328.6</ele>
				<time>2026-08-23T11:40:30.000Z</time>
			</trkpt>
			<trkpt lat="49.5597549" lon="10.9915502">
				<ele>328.9</ele>
				<time>2026-08-23T11:40:33.000Z</time>
			</trkpt>
			<trkpt lat="49.5596626" lon="10.9924149">
				<ele>328.4</ele>
				<time>2026-08-23T11:40:35.000Z</time>
			</trkpt>
			<trkpt lat="49.559468" lon="10.9937399">
				<ele>329</ele>
				<time>2026-08-23T11:40:38.000Z</time>
			</trkpt>
			<trkpt lat="49.5592415" lon="10.9950273">
				<ele>328.5</ele>
				<time>2026-08-23T11:40:41.000Z</time>
			</trkpt>
			<trkpt lat="49.5589721" lon="10.9962913">
				<ele>328.7</ele>
				<time>2026-08-23T11:40:44.000Z</time>
			</trkpt>
			<trkpt lat="49.5587738" lon="10.997096">
				<ele>329.6</ele>
				<time>2026-08-23T11:40:46.000Z</time>
			</trkpt>
			<trkpt lat="49.5585626" lon="10.9978914">
				<ele>330.4</ele>
				<time>2026-08-23T11:40:48.000Z</time>
			</trkpt>
			<trkpt lat="49.5582293" lon="10.9990275">
				<ele>330.4</ele>
				<time>2026-08-23T11:40:51.000Z</time>
			</trkpt>
			<trkpt lat="49.5579786" lon="10.9997792">
				<ele>332.4</ele>
				<time>2026-08-23T11:40:53.000Z</time>
			</trkpt>
			<trkpt lat="49.557589" lon="11.0008907">
				<ele>334</ele>
				<time>2026-08-23T11:40:56.000Z</time>
			</trkpt>
			<trkpt lat="49.5571619" lon="11.0019776">
				<ele>336</ele>
				<time>2026-08-23T11:40:59.000Z</time>
			</trkpt>
			<trkpt lat="49.5566888" lon="11.0030356">
				<ele>338.1</ele>
				<time>2026-08-23T11:41:02.000Z</time>
			</trkpt>
			<trkpt lat="49.5561936" lon="11.0040521">
				<ele>337.9</ele>
				<time>2026-08-23T11:41:05.000Z</time>
			</trkpt>
			<trkpt lat="49.5556714" lon="11.005055">
				<ele>338.3</ele>
				<time>2026-08-23T11:41:08.000Z</time>
			</trkpt>
			<trkpt lat="49.5550999" lon="11.0060179">
				<ele>340.1</ele>
				<time>2026-08-23T11:41:11.000Z</time>
			</trkpt>
			<trkpt lat="49.5547096" lon="11.0066284">
				<ele>341.1</ele>
				<time>2026-08-23T11:41:13.000Z</time>
			</trkpt>
			<trkpt lat="49.5540996" lon="11.0075188">
				<ele>341</ele>
				<time>2026-08-23T11:41:16.000Z</time>
			</trkpt>
			<trkpt lat="49.5534513" lon="11.0083784">
				<ele>341.2</ele>
				<time>2026-08-23T11:41:19.000Z</time>
			</trkpt>
			<trkpt lat="49.5527721" lon="11.0092005">
				<ele>341.1</ele>
				<time>2026-08-23T11:41:22.000Z</time>
			</trkpt>
			<trkpt lat="49.5522926" lon="11.009705">
				<ele>341.4</ele>
				<time>2026-08-23T11:41:24.000Z</time>
			</trkpt>
			<trkpt lat="49.5515676" lon="11.0104515">
				<ele>341.9</ele>
				<time>2026-08-23T11:41:27.000Z</time>
			</trkpt>
			<trkpt lat="49.5510697" lon="11.0109208">
				<ele>342.4</ele>
				<time>2026-08-23T11:41:29.000Z</time>
			</trkpt>
			<trkpt lat="49.5503229" lon="11.0115744">
				<ele>341.5</ele>
				<time>2026-08-23T11:41:32.000Z</time>
			</trkpt>
			<trkpt lat="49.5495544" lon="11.0122271">
				<ele>342.6</ele>
				<time>2026-08-23T11:41:35.000Z</time>
			</trkpt>
			<trkpt lat="49.549039" lon="11.012672">
				<ele>343.1</ele>
				<time>2026-08-23T11:41:37.000Z</time>
			</trkpt>
			<trkpt lat="49.5482652" lon="11.0133333">
				<ele>343.2</ele>
				<time>2026-08-23T11:41:40.000Z</time>
			</trkpt>
			<trkpt lat="49.5477454" lon="11.0137784">
				<ele>344.1</ele>
				<time>2026-08-23T11:41:42.000Z</time>
			</trkpt>
			<trkpt lat="49.5472303" lon="11.0142228">
				<ele>345.2</ele>
				<time>2026-08-23T11:41:44.000Z</time>
			</trkpt>
			<trkpt lat="49.5464548" lon="11.0149209">
				<ele>346.7</ele>
				<time>2026-08-23T11:41:47.000Z</time>
			</trkpt>
			<trkpt lat="49.5459456" lon="11.0154089">
				<ele>347.7</ele>
				<time>2026-08-23T11:41:49.000Z</time>
			</trkpt>
			<trkpt lat="49.5452098" lon="11.0161866">
				<ele>348.6</ele>
				<time>2026-08-23T11:41:52.000Z</time>
			</trkpt>
			<trkpt lat="49.5447386" lon="11.0167253">
				<ele>349.7</ele>
				<time>2026-08-23T11:41:54.000Z</time>
			</trkpt>
			<trkpt lat="49.5440684" lon="11.017547">
				<ele>350.8</ele>
				<time>2026-08-23T11:41:57.000Z</time>
			</trkpt>
			<trkpt lat="49.5436496" lon="11.0181226">
				<ele>351.6</ele>
				<time>2026-08-23T11:41:59.000Z</time>
			</trkpt>
			<trkpt lat="49.5430432" lon="11.0190145">
				<ele>351.5</ele>
				<time>2026-08-23T11:42:02.000Z</time>
			</trkpt>
			<trkpt lat="49.5426581" lon="11.0196191">
				<ele>351.9</ele>
				<time>2026-08-23T11:42:04.000Z</time>
			</trkpt>
			<trkpt lat="49.5421053" lon="11.0205771">
				<ele>352.5</ele>
				<time>2026-08-23T11:42:07.000Z</time>
			</trkpt>
			<trkpt lat="49.5415756" lon="11.0215523">
				<ele>353.6</ele>
				<time>2026-08-23T11:42:10.000Z</time>
			</trkpt>
			<trkpt lat="49.5412521" lon="11.0222259">
				<ele>353.5</ele>
				<time>2026-08-23T11:42:12.000Z</time>
			</trkpt>
			<trkpt lat="49.5409288" lon="11.0229159">
				<ele>353.6</ele>
				<time>2026-08-23T11:42:14.000Z</time>
			</trkpt>
			<trkpt lat="49.5404792" lon="11.0239769">
				<ele>353.6</ele>
				<time>2026-08-23T11:42:17.000Z</time>
			</trkpt>
			<trkpt lat="49.540049" lon="11.0250749">
				<ele>354.5</ele>
				<time>2026-08-23T11:42:20.000Z</time>
			</trkpt>
			<trkpt lat="49.5396645" lon="11.0261868">
				<ele>354.1</ele>
				<time>2026-08-23T11:42:23.000Z</time>
			</trkpt>
			<trkpt lat="49.5394143" lon="11.0269491">
				<ele>353.9</ele>
				<time>2026-08-23T11:42:25.000Z</time>
			</trkpt>
			<trkpt lat="49.5391711" lon="11.0277167">
				<ele>353.8</ele>
				<time>2026-08-23T11:42:27.000Z</time>
			</trkpt>
			<trkpt lat="49.5388332" lon="11.0288981">
				<ele>352.7</ele>
				<time>2026-08-23T11:42:30.000Z</time>
			</trkpt>
			<trkpt lat="49.5384877" lon="11.0300701">
				<ele>351.4</ele>
				<time>2026-08-23T11:42:33.000Z</time>
			</trkpt>
			<trkpt lat="49.5382593" lon="11.0308619">
				<ele>350.1</ele>
				<time>2026-08-23T11:42:35.000Z</time>
			</trkpt>
			<trkpt lat="49.5380241" lon="11.0316452">
				<ele>349.7</ele>
				<time>2026-08-23T11:42:37.000Z</time>
			</trkpt>
			<trkpt lat="49.5376824" lon="11.0328468">
				<ele>349</ele>
				<time>2026-08-23T11:42:40.000Z</time>
			</trkpt>
			<trkpt lat="49.5374688" lon="11.0336629">
				<ele>348.8</ele>
				<time>2026-08-23T11:42:42.000Z</time>
			</trkpt>
			<trkpt lat="49.5372365" lon="11.0344661">
				<ele>348.3</ele>
				<time>2026-08-23T11:42:44.000Z</time>
			</trkpt>
			<trkpt lat="49.5368842" lon="11.0356533">
				<ele>347.8</ele>
				<time>2026-08-23T11:42:47.000Z</time>
			</trkpt>
			<trkpt lat="49.5365305" lon="11.0368444">
				<ele>346.5</ele>
				<time>2026-08-23T11:42:50.000Z</time>
			</trkpt>
			<trkpt lat="49.5362975" lon="11.0376383">
				<ele>346.1</ele>
				<time>2026-08-23T11:42:52.000Z</time>
			</trkpt>
			<trkpt lat="49.5359453" lon="11.0388398">
				<ele>345.3</ele>
				<time>2026-08-23T11:42:55.000Z</time>
			</trkpt>
			<trkpt lat="49.5355884" lon="11.0400528">
				<ele>345.9</ele>
				<time>2026-08-23T11:42:58.000Z</time>
			</trkpt>
			<trkpt lat="49.5353531" lon="11.0408661">
				<ele>345.9</ele>
				<time>2026-08-23T11:43:00.000Z</time>
			</trkpt>
			<trkpt lat="49.5351136" lon="11.0416665">
				<ele>345.7</ele>
				<time>2026-08-23T11:43:02.000Z</time>
			</trkpt>
			<trkpt lat="49.5347656" lon="11.0428818">
				<ele>345.5</ele>
				<time>2026-08-23T11:43:05.000Z</time>
			</trkpt>
			<trkpt lat="49.5344075" lon="11.0440989">
				<ele>346.6</ele>
				<time>2026-08-23T11:43:08.000Z</time>
			</trkpt>
			<trkpt lat="49.5341688" lon="11.0449127">
				<ele>347.2</ele>
				<time>2026-08-23T11:43:10.000Z</time>
			</trkpt>
			<trkpt lat="49.5338143" lon="11.0461159">
				<ele>345.7</ele>
				<time>2026-08-23T11:43:13.000Z</time>
			</trkpt>
			<trkpt lat="49.5335686" lon="11.0469306">
				<ele>345.8</ele>
				<time>2026-08-23T11:43:15.000Z</time>
			</trkpt>
			<trkpt lat="49.5333289" lon="11.0477522">
				<ele>346.2</ele>
				<time>2026-08-23T11:43:17.000Z</time>
			</trkpt>
			<trkpt lat="49.5329614" lon="11.0489663">
				<ele>347.3</ele>
				<time>2026-08-23T11:43:20.000Z</time>
			</trkpt>
			<trkpt lat="49.5325848" lon="11.0501834">
				<ele>348.1</ele>
				<time>2026-08-23T11:43:23.000Z</time>
			</trkpt>
			<trkpt lat="49.5322172" lon="11.0514098">
				<ele>348.6</ele>
				<time>2026-08-23T11:43:26.000Z</time>
			</trkpt>
			<trkpt lat="49.5318529" lon="11.0526258">
				<ele>349.6</ele>
				<time>2026-08-23T11:43:29.000Z</time>
			</trkpt>
			<trkpt lat="49.5314926" lon="11.0538586">
				<ele>349.3</ele>
				<time>2026-08-23T11:43:32.000Z</time>
			</trkpt>
			<trkpt lat="49.5312532" lon="11.0546748">
				<ele>350.7</ele>
				<time>2026-08-23T11:43:34.000Z</time>
			</trkpt>
			<trkpt lat="49.5308967" lon="11.0558971">
				<ele>351.7</ele>
				<time>2026-08-23T11:43:37.000Z</time>
			</trkpt>
			<trkpt lat="49.5305415" lon="11.0571016">
				<ele>351.6</ele>
				<time>2026-08-23T11:43:40.000Z</time>
			</trkpt>
			<trkpt lat="49.5301482" lon="11.0582945">
				<ele>352.9</ele>
				<time>2026-08-23T11:43:43.000Z</time>
			</trkpt>
			<trkpt lat="49.5298715" lon="11.0590813">
				<ele>352.9</ele>
				<time>2026-08-23T11:43:45.000Z</time>
			</trkpt>
			<trkpt lat="49.5294352" lon="11.0602316">
				<ele>353</ele>
				<time>2026-08-23T11:43:48.000Z</time>
			</trkpt>
			<trkpt lat="49.5289762" lon="11.0613659">
				<ele>354</ele>
				<time>2026-08-23T11:43:51.000Z</time>
			</trkpt>
			<trkpt lat="49.528658" lon="11.0621054">
				<ele>354</ele>
				<time>2026-08-23T11:43:53.000Z</time>
			</trkpt>
			<trkpt lat="49.52816" lon="11.0631923">
				<ele>355.1</ele>
				<time>2026-08-23T11:43:56.000Z</time>
			</trkpt>
			<trkpt lat="49.5276428" lon="11.0642836">
				<ele>355.8</ele>
				<time>2026-08-23T11:43:59.000Z</time>
			</trkpt>
			<trkpt lat="49.5270929" lon="11.0653311">
				<ele>357.4</ele>
				<time>2026-08-23T11:44:02.000Z</time>
			</trkpt>
			<trkpt lat="49.5267373" lon="11.0660124">
				<ele>357.9</ele>
				<time>2026-08-23T11:44:04.000Z</time>
			</trkpt>
			<trkpt lat="49.5262096" lon="11.0670518">
				<ele>357.5</ele>
				<time>2026-08-23T11:44:07.000Z</time>
			</trkpt>
			<trkpt lat="49.5258536" lon="11.0677433">
				<ele>358.6</ele>
				<time>2026-08-23T11:44:09.000Z</time>
			</trkpt>
			<trkpt lat="49.5252912" lon="11.0687668">
				<ele>358.7</ele>
				<time>2026-08-23T11:44:12.000Z</time>
			</trkpt>
			<trkpt lat="49.5249262" lon="11.0694557">
				<ele>358.3</ele>
				<time>2026-08-23T11:44:14.000Z</time>
			</trkpt>
			<trkpt lat="49.5243927" lon="11.0704871">
				<ele>359.1</ele>
				<time>2026-08-23T11:44:17.000Z</time>
			</trkpt>
			<trkpt lat="49.5240211" lon="11.0711708">
				<ele>358.6</ele>
				<time>2026-08-23T11:44:19.000Z</time>
			</trkpt>
			<trkpt lat="49.523456" lon="11.0721498">
				<ele>358.3</ele>
				<time>2026-08-23T11:44:22.000Z</time>
			</trkpt>
			<trkpt lat="49.5229052" lon="11.0731635">
				<ele>358.3</ele>
				<time>2026-08-23T11:44:25.000Z</time>
			</trkpt>
			<trkpt lat="49.5223646" lon="11.0741677">
				<ele>359.2</ele>
				<time>2026-08-23T11:44:28.000Z</time>
			</trkpt>
			<trkpt lat="49.522002" lon="11.0748251">
				<ele>361.6</ele>
				<time>2026-08-23T11:44:30.000Z</time>
			</trkpt>
			<trkpt lat="49.5214609" lon="11.0758209">
				<ele>361.1</ele>
				<time>2026-08-23T11:44:33.000Z</time>
			</trkpt>
			<trkpt lat="49.521091" lon="11.0765032">
				<ele>361.9</ele>
				<time>2026-08-23T11:44:35.000Z</time>
			</trkpt>
			<trkpt lat="49.5207313" lon="11.0771541">
				<ele>361.2</ele>
				<time>2026-08-23T11:44:37.000Z</time>
			</trkpt>
			<trkpt lat="49.5203637" lon="11.0778412">
				<ele>362.7</ele>
				<time>2026-08-23T11:44:39.000Z</time>
			</trkpt>
			<trkpt lat="49.5198309" lon="11.0788622">
				<ele>364</ele>
				<time>2026-08-23T11:44:42.000Z</time>
			</trkpt>
			<trkpt lat="49.5192922" lon="11.0799015">
				<ele>364.7</ele>
				<time>2026-08-23T11:44:45.000Z</time>
			</trkpt>
			<trkpt lat="49.5187454" lon="11.0809241">
				<ele>364.5</ele>
				<time>2026-08-23T11:44:48.000Z</time>
			</trkpt>
			<trkpt lat="49.5183812" lon="11.0816077">
				<ele>365.5</ele>
				<time>2026-08-23T11:44:50.000Z</time>
			</trkpt>
			<trkpt lat="49.5178462" lon="11.0826104">
				<ele>364.8</ele>
				<time>2026-08-23T11:44:53.000Z</time>
			</trkpt>
			<trkpt lat="49.5174822" lon="11.0832992">
				<ele>365.5</ele>
				<time>2026-08-23T11:44:55.000Z</time>
			</trkpt>
			<trkpt lat="49.5169369" lon="11.0843263">
				<ele>366</ele>
				<time>2026-08-23T11:44:58.000Z</time>
			</trkpt>
			<trkpt lat="49.5165759" lon="11.0850093">
				<ele>366.5</ele>
				<time>2026-08-23T11:45:00.000Z</time>
			</trkpt>
			<trkpt lat="49.5160304" lon="11.0860275">
				<ele>367.2</ele>
				<time>2026-08-23T11:45:03.000Z</time>
			</trkpt>
			<trkpt lat="49.5156668" lon="11.0867083">
				<ele>368</ele>
				<time>2026-08-23T11:45:05.000Z</time>
			</trkpt>
			<trkpt lat="49.5151378" lon="11.0877486">
				<ele>368.8</ele>
				<time>2026-08-23T11:45:08.000Z</time>
			</trkpt>
			<trkpt lat="49.5146368" lon="11.0888062">
				<ele>368.8</ele>
				<time>2026-08-23T11:45:11.000Z</time>
			</trkpt>
			<trkpt lat="49.514317" lon="11.0895345">
				<ele>369</ele>
				<time>2026-08-23T11:45:13.000Z</time>
			</trkpt>
			<trkpt lat="49.5140099" lon="11.090255">
				<ele>368.3</ele>
				<time>2026-08-23T11:45:15.000Z</time>
			</trkpt>
			<trkpt lat="49.5135628" lon="11.0913494">
				<ele>367.7</ele>
				<time>2026-08-23T11:45:18.000Z</time>
			</trkpt>
			<trkpt lat="49.5131416" lon="11.0924551">
				<ele>367.5</ele>
				<time>2026-08-23T11:45:21.000Z</time>
			</trkpt>
			<trkpt lat="49.5127484" lon="11.0935898">
				<ele>369</ele>
				<time>2026-08-23T11:45:24.000Z</time>
			</trkpt>
			<trkpt lat="49.5123707" lon="11.0947321">
				<ele>369.9</ele>
				<time>2026-08-23T11:45:27.000Z</time>
			</trkpt>
			<trkpt lat="49.5120253" lon="11.0958922">
				<ele>371.3</ele>
				<time>2026-08-23T11:45:30.000Z</time>
			</trkpt>
			<trkpt lat="49.511704" lon="11.0970577">
				<ele>372.4</ele>
				<time>2026-08-23T11:45:33.000Z</time>
			</trkpt>
			<trkpt lat="49.5114987" lon="11.097829">
				<ele>373.4</ele>
				<time>2026-08-23T11:45:35.000Z</time>
			</trkpt>
			<trkpt lat="49.5112156" lon="11.0989768">
				<ele>374.3</ele>
				<time>2026-08-23T11:45:38.000Z</time>
			</trkpt>
			<trkpt lat="49.510921" lon="11.1001366">
				<ele>376.1</ele>
				<time>2026-08-23T11:45:41.000Z</time>
			</trkpt>
			<trkpt lat="49.5106333" lon="11.101278">
				<ele>377.4</ele>
				<time>2026-08-23T11:45:44.000Z</time>
			</trkpt>
			<trkpt lat="49.510445" lon="11.1020356">
				<ele>379</ele>
				<time>2026-08-23T11:45:46.000Z</time>
			</trkpt>
			<trkpt lat="49.5101594" lon="11.1031794">
				<ele>381.2</ele>
				<time>2026-08-23T11:45:49.000Z</time>
			</trkpt>
			<trkpt lat="49.5098775" lon="11.104307">
				<ele>383.7</ele>
				<time>2026-08-23T11:45:52.000Z</time>
			</trkpt>
			<trkpt lat="49.5095949" lon="11.1054362">
				<ele>385.9</ele>
				<time>2026-08-23T11:45:55.000Z</time>
			</trkpt>
			<trkpt lat="49.5094092" lon="11.1061955">
				<ele>387.1</ele>
				<time>2026-08-23T11:45:57.000Z</time>
			</trkpt>
			<trkpt lat="49.5091227" lon="11.1073389">
				<ele>388.8</ele>
				<time>2026-08-23T11:46:00.000Z</time>
			</trkpt>
			<trkpt lat="49.5088338" lon="11.1084854">
				<ele>389.6</ele>
				<time>2026-08-23T11:46:03.000Z</time>
			</trkpt>
			<trkpt lat="49.5085383" lon="11.1096506">
				<ele>390.5</ele>
				<time>2026-08-23T11:46:06.000Z</time>
			</trkpt>
			<trkpt lat="49.508242" lon="11.110833">
				<ele>391</ele>
				<time>2026-08-23T11:46:09.000Z</time>
			</trkpt>
			<trkpt lat="49.5080423" lon="11.1116278">
				<ele>391</ele>
				<time>2026-08-23T11:46:11.000Z</time>
			</trkpt>
			<trkpt lat="49.507746" lon="11.11283">
				<ele>391.6</ele>
				<time>2026-08-23T11:46:14.000Z</time>
			</trkpt>
			<trkpt lat="49.5074446" lon="11.1140339">
				<ele>392.1</ele>
				<time>2026-08-23T11:46:17.000Z</time>
			</trkpt>
			<trkpt lat="49.5072419" lon="11.1148446">
				<ele>391.9</ele>
				<time>2026-08-23T11:46:19.000Z</time>
			</trkpt>
			<trkpt lat="49.5070376" lon="11.1156498">
				<ele>391.9</ele>
				<time>2026-08-23T11:46:21.000Z</time>
			</trkpt>
			<trkpt lat="49.5068267" lon="11.1164564">
				<ele>392.2</ele>
				<time>2026-08-23T11:46:24.000Z</time>
			</trkpt>
			<trkpt lat="49.506473" lon="11.1176329">
				<ele>392.4</ele>
				<time>2026-08-23T11:46:26.000Z</time>
			</trkpt>
			<trkpt lat="49.506093" lon="11.1188114">
				<ele>392.8</ele>
				<time>2026-08-23T11:46:29.000Z</time>
			</trkpt>
			<trkpt lat="49.5058281" lon="11.1195756">
				<ele>392.7</ele>
				<time>2026-08-23T11:46:31.000Z</time>
			</trkpt>
			<trkpt lat="49.5054032" lon="11.1206847">
				<ele>392</ele>
				<time>2026-08-23T11:46:34.000Z</time>
			</trkpt>
			<trkpt lat="49.5051018" lon="11.1214272">
				<ele>392.5</ele>
				<time>2026-08-23T11:46:36.000Z</time>
			</trkpt>
			<trkpt lat="49.5047846" lon="11.1221597">
				<ele>393.5</ele>
				<time>2026-08-23T11:46:38.000Z</time>
			</trkpt>
			<trkpt lat="49.5044597" lon="11.1228793">
				<ele>394.3</ele>
				<time>2026-08-23T11:46:40.000Z</time>
			</trkpt>
			<trkpt lat="49.5039489" lon="11.123935">
				<ele>394.4</ele>
				<time>2026-08-23T11:46:43.000Z</time>
			</trkpt>
			<trkpt lat="49.5034227" lon="11.1249811">
				<ele>393.1</ele>
				<time>2026-08-23T11:46:46.000Z</time>
			</trkpt>
			<trkpt lat="49.5028988" lon="11.1260356">
				<ele>392.3</ele>
				<time>2026-08-23T11:46:49.000Z</time>
			</trkpt>
			<trkpt lat="49.5023778" lon="11.1270759">
				<ele>390.6</ele>
				<time>2026-08-23T11:46:52.000Z</time>
			</trkpt>
			<trkpt lat="49.5018667" lon="11.1281307">
				<ele>390.4</ele>
				<time>2026-08-23T11:46:55.000Z</time>
			</trkpt>
			<trkpt lat="49.5013942" lon="11.129168">
				<ele>387.9</ele>
				<time>2026-08-23T11:46:58.000Z</time>
			</trkpt>
			<trkpt lat="49.5010986" lon="11.1298743">
				<ele>387.1</ele>
				<time>2026-08-23T11:47:00.000Z</time>
			</trkpt>
			<trkpt lat="49.5006866" lon="11.1309434">
				<ele>386.4</ele>
				<time>2026-08-23T11:47:03.000Z</time>
			</trkpt>
			<trkpt lat="49.5004331" lon="11.1316559">
				<ele>385.6</ele>
				<time>2026-08-23T11:47:05.000Z</time>
			</trkpt>
			<trkpt lat="49.5000862" lon="11.1327203">
				<ele>384.9</ele>
				<time>2026-08-23T11:47:08.000Z</time>
			</trkpt>
			<trkpt lat="49.499743" lon="11.133773">
				<ele>383.8</ele>
				<time>2026-08-23T11:47:11.000Z</time>
			</trkpt>
			<trkpt lat="49.4995193" lon="11.1344658">
				<ele>382.8</ele>
				<time>2026-08-23T11:47:13.000Z</time>
			</trkpt>
			<trkpt lat="49.4993069" lon="11.1352055">
				<ele>382.8</ele>
				<time>2026-08-23T11:47:15.000Z</time>
			</trkpt>
			<trkpt lat="49.4990855" lon="11.1359322">
				<ele>382.8</ele>
				<time>2026-08-23T11:47:17.000Z</time>
			</trkpt>
			<trkpt lat="49.4988516" lon="11.1366646">
				<ele>383.6</ele>
				<time>2026-08-23T11:47:19.000Z</time>
			</trkpt>
			<trkpt lat="49.4984595" lon="11.1377265">
				<ele>383</ele>
				<time>2026-08-23T11:47:22.000Z</time>
			</trkpt>
			<trkpt lat="49.4981755" lon="11.1384366">
				<ele>383.6</ele>
				<time>2026-08-23T11:47:24.000Z</time>
			</trkpt>
			<trkpt lat="49.4977194" lon="11.1394845">
				<ele>383.4</ele>
				<time>2026-08-23T11:47:27.000Z</time>
			</trkpt>
			<trkpt lat="49.4972504" lon="11.1404684">
				<ele>382.6</ele>
				<time>2026-08-23T11:47:30.000Z</time>
			</trkpt>
			<trkpt lat="49.496742" lon="11.1414665">
				<ele>382</ele>
				<time>2026-08-23T11:47:33.000Z</time>
			</trkpt>
			<trkpt lat="49.4962249" lon="11.1424755">
				<ele>383.3</ele>
				<time>2026-08-23T11:47:36.000Z</time>
			</trkpt>
			<trkpt lat="49.4958963" lon="11.1431322">
				<ele>382.1</ele>
				<time>2026-08-23T11:47:38.000Z</time>
			</trkpt>
			<trkpt lat="49.4953924" lon="11.1441524">
				<ele>381.4</ele>
				<time>2026-08-23T11:47:41.000Z</time>
			</trkpt>
			<trkpt lat="49.495059" lon="11.1448361">
				<ele>381</ele>
				<time>2026-08-23T11:47:43.000Z</time>
			</trkpt>
			<trkpt lat="49.4945533" lon="11.1458616">
				<ele>381.5</ele>
				<time>2026-08-23T11:47:46.000Z</time>
			</trkpt>
			<trkpt lat="49.4940448" lon="11.146887">
				<ele>381.1</ele>
				<time>2026-08-23T11:47:49.000Z</time>
			</trkpt>
			<trkpt lat="49.4937101" lon="11.1475599">
				<ele>379.8</ele>
				<time>2026-08-23T11:47:51.000Z</time>
			</trkpt>
			<trkpt lat="49.493198" lon="11.1485961">
				<ele>379.3</ele>
				<time>2026-08-23T11:47:54.000Z</time>
			</trkpt>
			<trkpt lat="49.4926853" lon="11.149622">
				<ele>379.4</ele>
				<time>2026-08-23T11:47:57.000Z</time>
			</trkpt>
			<trkpt lat="49.4923459" lon="11.1503053">
				<ele>378.4</ele>
				<time>2026-08-23T11:47:59.000Z</time>
			</trkpt>
			<trkpt lat="49.4918325" lon="11.1513394">
				<ele>378.4</ele>
				<time>2026-08-23T11:48:02.000Z</time>
			</trkpt>
			<trkpt lat="49.4913169" lon="11.1523774">
				<ele>377.4</ele>
				<time>2026-08-23T11:48:05.000Z</time>
			</trkpt>
			<trkpt lat="49.4908109" lon="11.15341">
				<ele>377.6</ele>
				<time>2026-08-23T11:48:08.000Z</time>
			</trkpt>
			<trkpt lat="49.4904734" lon="11.1541072">
				<ele>377.4</ele>
				<time>2026-08-23T11:48:10.000Z</time>
			</trkpt>
			<trkpt lat="49.490132" lon="11.1547871">
				<ele>378</ele>
				<time>2026-08-23T11:48:12.000Z</time>
			</trkpt>
			<trkpt lat="49.4897899" lon="11.1554707">
				<ele>378</ele>
				<time>2026-08-23T11:48:14.000Z</time>
			</trkpt>
			<trkpt lat="49.4892833" lon="11.1565019">
				<ele>378</ele>
				<time>2026-08-23T11:48:17.000Z</time>
			</trkpt>
			<trkpt lat="49.4889486" lon="11.1571936">
				<ele>378.2</ele>
				<time>2026-08-23T11:48:19.000Z</time>
			</trkpt>
			<trkpt lat="49.4886081" lon="11.15788">
				<ele>378.5</ele>
				<time>2026-08-23T11:48:21.000Z</time>
			</trkpt>
			<trkpt lat="49.4881005" lon="11.1588999">
				<ele>377.2</ele>
				<time>2026-08-23T11:48:24.000Z</time>
			</trkpt>
			<trkpt lat="49.4877646" lon="11.1595788">
				<ele>376.9</ele>
				<time>2026-08-23T11:48:26.000Z</time>
			</trkpt>
			<trkpt lat="49.4874242" lon="11.1602706">
				<ele>376.8</ele>
				<time>2026-08-23T11:48:28.000Z</time>
			</trkpt>
			<trkpt lat="49.4869134" lon="11.1613066">
				<ele>376.6</ele>
				<time>2026-08-23T11:48:31.000Z</time>
			</trkpt>
			<trkpt lat="49.4864052" lon="11.1623432">
				<ele>375.6</ele>
				<time>2026-08-23T11:48:34.000Z</time>
			</trkpt>
			<trkpt lat="49.4858887" lon="11.1633768">
				<ele>375.6</ele>
				<time>2026-08-23T11:48:37.000Z</time>
			</trkpt>
			<trkpt lat="49.4853813" lon="11.1644022">
				<ele>375.3</ele>
				<time>2026-08-23T11:48:40.000Z</time>
			</trkpt>
			<trkpt lat="49.4850433" lon="11.16509">
				<ele>375.8</ele>
				<time>2026-08-23T11:48:42.000Z</time>
			</trkpt>
			<trkpt lat="49.4847055" lon="11.1657698">
				<ele>376</ele>
				<time>2026-08-23T11:48:44.000Z</time>
			</trkpt>
			<trkpt lat="49.4841969" lon="11.1667753">
				<ele>376.4</ele>
				<time>2026-08-23T11:48:47.000Z</time>
			</trkpt>
			<trkpt lat="49.4836904" lon="11.1677785">
				<ele>376.4</ele>
				<time>2026-08-23T11:48:50.000Z</time>
			</trkpt>
			<trkpt lat="49.4833455" lon="11.1684062">
				<ele>375</ele>
				<time>2026-08-23T11:48:52.000Z</time>
			</trkpt>
			<trkpt lat="49.4827853" lon="11.1693346">
				<ele>374.1</ele>
				<time>2026-08-23T11:48:55.000Z</time>
			</trkpt>
			<trkpt lat="49.4823965" lon="11.169942">
				<ele>373</ele>
				<time>2026-08-23T11:48:57.000Z</time>
			</trkpt>
			<trkpt lat="49.4817837" lon="11.1708159">
				<ele>372.5</ele>
				<time>2026-08-23T11:49:00.000Z</time>
			</trkpt>
			<trkpt lat="49.4813595" lon="11.1713874">
				<ele>372.3</ele>
				<time>2026-08-23T11:49:02.000Z</time>
			</trkpt>
			<trkpt lat="49.4807015" lon="11.1721998">
				<ele>371.7</ele>
				<time>2026-08-23T11:49:05.000Z</time>
			</trkpt>
			<trkpt lat="49.4800331" lon="11.1730102">
				<ele>372.8</ele>
				<time>2026-08-23T11:49:08.000Z</time>
			</trkpt>
			<trkpt lat="49.479616" lon="11.1735394">
				<ele>371.7</ele>
				<time>2026-08-23T11:49:10.000Z</time>
			</trkpt>
			<trkpt lat="49.4792257" lon="11.1740164">
				<ele>371.5</ele>
				<time>2026-08-23T11:49:12.000Z</time>
			</trkpt>
			<trkpt lat="49.4788713" lon="11.174453">
				<ele>370.2</ele>
				<time>2026-08-23T11:49:14.000Z</time>
			</trkpt>
			<trkpt lat="49.4785201" lon="11.1748896">
				<ele>369</ele>
				<time>2026-08-23T11:49:16.000Z</time>
			</trkpt>
			<trkpt lat="49.4779885" lon="11.1755381">
				<ele>366.7</ele>
				<time>2026-08-23T11:49:19.000Z</time>
			</trkpt>
			<trkpt lat="49.4776354" lon="11.1759823">
				<ele>364.8</ele>
				<time>2026-08-23T11:49:21.000Z</time>
			</trkpt>
			<trkpt lat="49.4770971" lon="11.1766326">
				<ele>365.5</ele>
				<time>2026-08-23T11:49:24.000Z</time>
			</trkpt>
			<trkpt lat="49.4765743" lon="11.1772906">
				<ele>364.3</ele>
				<time>2026-08-23T11:49:27.000Z</time>
			</trkpt>
			<trkpt lat="49.4762247" lon="11.1777248">
				<ele>363.6</ele>
				<time>2026-08-23T11:49:29.000Z</time>
			</trkpt>
			<trkpt lat="49.4758796" lon="11.1781532">
				<ele>363.2</ele>
				<time>2026-08-23T11:49:31.000Z</time>
			</trkpt>
			<trkpt lat="49.4753641" lon="11.1787885">
				<ele>362.8</ele>
				<time>2026-08-23T11:49:34.000Z</time>
			</trkpt>
			<trkpt lat="49.4748414" lon="11.1794262">
				<ele>362.3</ele>
				<time>2026-08-23T11:49:37.000Z</time>
			</trkpt>
			<trkpt lat="49.4744968" lon="11.1798439">
				<ele>362</ele>
				<time>2026-08-23T11:49:39.000Z</time>
			</trkpt>
			<trkpt lat="49.4739946" lon="11.1804495">
				<ele>362.3</ele>
				<time>2026-08-23T11:49:42.000Z</time>
			</trkpt>
			<trkpt lat="49.4734977" lon="11.1810737">
				<ele>361.8</ele>
				<time>2026-08-23T11:49:45.000Z</time>
			</trkpt>
			<trkpt lat="49.4729867" lon="11.1817211">
				<ele>362.2</ele>
				<time>2026-08-23T11:49:48.000Z</time>
			</trkpt>
			<trkpt lat="49.4726448" lon="11.182148">
				<ele>362.2</ele>
				<time>2026-08-23T11:49:50.000Z</time>
			</trkpt>
			<trkpt lat="49.472312" lon="11.1825776">
				<ele>361.9</ele>
				<time>2026-08-23T11:49:52.000Z</time>
			</trkpt>
			<trkpt lat="49.4718129" lon="11.1832101">
				<ele>361.6</ele>
				<time>2026-08-23T11:49:55.000Z</time>
			</trkpt>
			<trkpt lat="49.4712928" lon="11.1838196">
				<ele>362.1</ele>
				<time>2026-08-23T11:49:58.000Z</time>
			</trkpt>
			<trkpt lat="49.4707852" lon="11.184438">
				<ele>362.4</ele>
				<time>2026-08-23T11:50:01.000Z</time>
			</trkpt>
			<trkpt lat="49.4702799" lon="11.1850466">
				<ele>363.9</ele>
				<time>2026-08-23T11:50:04.000Z</time>
			</trkpt>
			<trkpt lat="49.4697873" lon="11.185653">
				<ele>363.7</ele>
				<time>2026-08-23T11:50:07.000Z</time>
			</trkpt>
			<trkpt lat="49.4693108" lon="11.1862471">
				<ele>364.3</ele>
				<time>2026-08-23T11:50:10.000Z</time>
			</trkpt>
			<trkpt lat="49.4688558" lon="11.1868706">
				<ele>363.7</ele>
				<time>2026-08-23T11:50:13.000Z</time>
			</trkpt>
			<trkpt lat="49.4684088" lon="11.1875126">
				<ele>363.5</ele>
				<time>2026-08-23T11:50:16.000Z</time>
			</trkpt>
			<trkpt lat="49.4681191" lon="11.1879803">
				<ele>363.6</ele>
				<time>2026-08-23T11:50:18.000Z</time>
			</trkpt>
			<trkpt lat="49.4677046" lon="11.188721">
				<ele>366.5</ele>
				<time>2026-08-23T11:50:21.000Z</time>
			</trkpt>
			<trkpt lat="49.4673057" lon="11.1895036">
				<ele>369.7</ele>
				<time>2026-08-23T11:50:24.000Z</time>
			</trkpt>
			<trkpt lat="49.4670577" lon="11.1900462">
				<ele>370.7</ele>
				<time>2026-08-23T11:50:26.000Z</time>
			</trkpt>
			<trkpt lat="49.4666891" lon="11.1908851">
				<ele>372.3</ele>
				<time>2026-08-23T11:50:29.000Z</time>
			</trkpt>
			<trkpt lat="49.4663455" lon="11.1917864">
				<ele>373.4</ele>
				<time>2026-08-23T11:50:32.000Z</time>
			</trkpt>
			<trkpt lat="49.4661241" lon="11.1924104">
				<ele>373.9</ele>
				<time>2026-08-23T11:50:34.000Z</time>
			</trkpt>
			<trkpt lat="49.4658076" lon="11.1933866">
				<ele>373.8</ele>
				<time>2026-08-23T11:50:37.000Z</time>
			</trkpt>
			<trkpt lat="49.46552" lon="11.1944151">
				<ele>373.9</ele>
				<time>2026-08-23T11:50:40.000Z</time>
			</trkpt>
			<trkpt lat="49.4653506" lon="11.1951268">
				<ele>374</ele>
				<time>2026-08-23T11:50:42.000Z</time>
			</trkpt>
			<trkpt lat="49.4651938" lon="11.1958515">
				<ele>374.6</ele>
				<time>2026-08-23T11:50:44.000Z</time>
			</trkpt>
			<trkpt lat="49.4649836" lon="11.1969702">
				<ele>375.6</ele>
				<time>2026-08-23T11:50:47.000Z</time>
			</trkpt>
			<trkpt lat="49.4648239" lon="11.1981145">
				<ele>376</ele>
				<time>2026-08-23T11:50:50.000Z</time>
			</trkpt>
			<trkpt lat="49.4647395" lon="11.1988834">
				<ele>376.2</ele>
				<time>2026-08-23T11:50:52.000Z</time>
			</trkpt>
			<trkpt lat="49.4646474" lon="11.2000304">
				<ele>376.4</ele>
				<time>2026-08-23T11:50:55.000Z</time>
			</trkpt>
			<trkpt lat="49.4646085" lon="11.2008049">
				<ele>376.6</ele>
				<time>2026-08-23T11:50:57.000Z</time>
			</trkpt>
			<trkpt lat="49.4645916" lon="11.2015715">
				<ele>376.7</ele>
				<time>2026-08-23T11:50:59.000Z</time>
			</trkpt>
			<trkpt lat="49.4646025" lon="11.2027259">
				<ele>377.4</ele>
				<time>2026-08-23T11:51:02.000Z</time>
			</trkpt>
			<trkpt lat="49.4646686" lon="11.2038483">
				<ele>376.7</ele>
				<time>2026-08-23T11:51:05.000Z</time>
			</trkpt>
			<trkpt lat="49.4647346" lon="11.2045831">
				<ele>376.7</ele>
				<time>2026-08-23T11:51:07.000Z</time>
			</trkpt>
			<trkpt lat="49.4648466" lon="11.2056685">
				<ele>376.9</ele>
				<time>2026-08-23T11:51:10.000Z</time>
			</trkpt>
			<trkpt lat="49.4649346" lon="11.206364">
				<ele>377.6</ele>
				<time>2026-08-23T11:51:12.000Z</time>
			</trkpt>
			<trkpt lat="49.4650135" lon="11.2070394">
				<ele>377.8</ele>
				<time>2026-08-23T11:51:14.000Z</time>
			</trkpt>
			<trkpt lat="49.4651364" lon="11.2080472">
				<ele>378.1</ele>
				<time>2026-08-23T11:51:17.000Z</time>
			</trkpt>
			<trkpt lat="49.4652205" lon="11.2087198">
				<ele>378.2</ele>
				<time>2026-08-23T11:51:19.000Z</time>
			</trkpt>
			<trkpt lat="49.4653427" lon="11.2097273">
				<ele>378.4</ele>
				<time>2026-08-23T11:51:22.000Z</time>
			</trkpt>
			<trkpt lat="49.4654198" lon="11.2104063">
				<ele>378.1</ele>
				<time>2026-08-23T11:51:24.000Z</time>
			</trkpt>
			<trkpt lat="49.4655338" lon="11.2114111">
				<ele>378.7</ele>
				<time>2026-08-23T11:51:27.000Z</time>
			</trkpt>
			<trkpt lat="49.4656569" lon="11.212434">
				<ele>379</ele>
				<time>2026-08-23T11:51:30.000Z</time>
			</trkpt>
			<trkpt lat="49.4657911" lon="11.2134548">
				<ele>379.3</ele>
				<time>2026-08-23T11:51:33.000Z</time>
			</trkpt>
			<trkpt lat="49.4658842" lon="11.214159">
				<ele>379.5</ele>
				<time>2026-08-23T11:51:35.000Z</time>
			</trkpt>
			<trkpt lat="49.4659794" lon="11.2148863">
				<ele>380.1</ele>
				<time>2026-08-23T11:51:37.000Z</time>
			</trkpt>
			<trkpt lat="49.4660604" lon="11.2156171">
				<ele>379.7</ele>
				<time>2026-08-23T11:51:39.000Z</time>
			</trkpt>
			<trkpt lat="49.4661724" lon="11.2167248">
				<ele>381.1</ele>
				<time>2026-08-23T11:51:42.000Z</time>
			</trkpt>
			<trkpt lat="49.4662343" lon="11.217881">
				<ele>381.9</ele>
				<time>2026-08-23T11:51:45.000Z</time>
			</trkpt>
			<trkpt lat="49.4662435" lon="11.2190794">
				<ele>383.6</ele>
				<time>2026-08-23T11:51:48.000Z</time>
			</trkpt>
			<trkpt lat="49.4662069" lon="11.2202691">
				<ele>383.4</ele>
				<time>2026-08-23T11:51:51.000Z</time>
			</trkpt>
			<trkpt lat="49.4661582" lon="11.221084">
				<ele>384.2</ele>
				<time>2026-08-23T11:51:53.000Z</time>
			</trkpt>
			<trkpt lat="49.4660268" lon="11.2223214">
				<ele>386.7</ele>
				<time>2026-08-23T11:51:56.000Z</time>
			</trkpt>
			<trkpt lat="49.4659211" lon="11.2231212">
				<ele>385.7</ele>
				<time>2026-08-23T11:51:58.000Z</time>
			</trkpt>
			<trkpt lat="49.4657332" lon="11.2243161">
				<ele>385.2</ele>
				<time>2026-08-23T11:52:01.000Z</time>
			</trkpt>
			<trkpt lat="49.4655033" lon="11.2254997">
				<ele>385.8</ele>
				<time>2026-08-23T11:52:04.000Z</time>
			</trkpt>
			<trkpt lat="49.4652145" lon="11.2266346">
				<ele>385.4</ele>
				<time>2026-08-23T11:52:07.000Z</time>
			</trkpt>
			<trkpt lat="49.4649077" lon="11.2277378">
				<ele>385.2</ele>
				<time>2026-08-23T11:52:10.000Z</time>
			</trkpt>
			<trkpt lat="49.4646752" lon="11.2284559">
				<ele>385.9</ele>
				<time>2026-08-23T11:52:12.000Z</time>
			</trkpt>
			<trkpt lat="49.4642977" lon="11.2295097">
				<ele>385.5</ele>
				<time>2026-08-23T11:52:15.000Z</time>
			</trkpt>
			<trkpt lat="49.4638723" lon="11.2305313">
				<ele>386.8</ele>
				<time>2026-08-23T11:52:18.000Z</time>
			</trkpt>
			<trkpt lat="49.4633972" lon="11.2315106">
				<ele>387.8</ele>
				<time>2026-08-23T11:52:21.000Z</time>
			</trkpt>
			<trkpt lat="49.4630713" lon="11.2321349">
				<ele>387.9</ele>
				<time>2026-08-23T11:52:23.000Z</time>
			</trkpt>
			<trkpt lat="49.4625399" lon="11.2330272">
				<ele>388.2</ele>
				<time>2026-08-23T11:52:26.000Z</time>
			</trkpt>
			<trkpt lat="49.4620071" lon="11.2338531">
				<ele>389.1</ele>
				<time>2026-08-23T11:52:29.000Z</time>
			</trkpt>
			<trkpt lat="49.4614628" lon="11.234603">
				<ele>389.1</ele>
				<time>2026-08-23T11:52:32.000Z</time>
			</trkpt>
			<trkpt lat="49.461083" lon="11.2350736">
				<ele>389.7</ele>
				<time>2026-08-23T11:52:34.000Z</time>
			</trkpt>
			<trkpt lat="49.4605038" lon="11.2357426">
				<ele>391</ele>
				<time>2026-08-23T11:52:37.000Z</time>
			</trkpt>
			<trkpt lat="49.4599091" lon="11.2363247">
				<ele>392.5</ele>
				<time>2026-08-23T11:52:40.000Z</time>
			</trkpt>
			<trkpt lat="49.4593002" lon="11.2368252">
				<ele>392.8</ele>
				<time>2026-08-23T11:52:43.000Z</time>
			</trkpt>
			<trkpt lat="49.4586559" lon="11.2372472">
				<ele>394.3</ele>
				<time>2026-08-23T11:52:46.000Z</time>
			</trkpt>
			<trkpt lat="49.4582165" lon="11.2374956">
				<ele>394.8</ele>
				<time>2026-08-23T11:52:48.000Z</time>
			</trkpt>
			<trkpt lat="49.4575424" lon="11.2377999">
				<ele>395.5</ele>
				<time>2026-08-23T11:52:51.000Z</time>
			</trkpt>
			<trkpt lat="49.4568502" lon="11.2380269">
				<ele>396.4</ele>
				<time>2026-08-23T11:52:54.000Z</time>
			</trkpt>
			<trkpt lat="49.4563769" lon="11.2381206">
				<ele>397.5</ele>
				<time>2026-08-23T11:52:56.000Z</time>
			</trkpt>
			<trkpt lat="49.4556688" lon="11.238192">
				<ele>398.6</ele>
				<time>2026-08-23T11:52:59.000Z</time>
			</trkpt>
			<trkpt lat="49.4551958" lon="11.2381945">
				<ele>398.5</ele>
				<time>2026-08-23T11:53:01.000Z</time>
			</trkpt>
			<trkpt lat="49.4547209" lon="11.238167">
				<ele>398.4</ele>
				<time>2026-08-23T11:53:03.000Z</time>
			</trkpt>
			<trkpt lat="49.4540108" lon="11.2380369">
				<ele>398.5</ele>
				<time>2026-08-23T11:53:06.000Z</time>
			</trkpt>
			<trkpt lat="49.4535444" lon="11.2379137">
				<ele>399</ele>
				<time>2026-08-23T11:53:08.000Z</time>
			</trkpt>
			<trkpt lat="49.4528489" lon="11.2376506">
				<ele>399</ele>
				<time>2026-08-23T11:53:11.000Z</time>
			</trkpt>
			<trkpt lat="49.4521718" lon="11.2373075">
				<ele>399.8</ele>
				<time>2026-08-23T11:53:14.000Z</time>
			</trkpt>
			<trkpt lat="49.4515177" lon="11.2368844">
				<ele>400.2</ele>
				<time>2026-08-23T11:53:17.000Z</time>
			</trkpt>
			<trkpt lat="49.4508843" lon="11.2364086">
				<ele>401</ele>
				<time>2026-08-23T11:53:20.000Z</time>
			</trkpt>
			<trkpt lat="49.4502861" lon="11.235891">
				<ele>401.5</ele>
				<time>2026-08-23T11:53:23.000Z</time>
			</trkpt>
			<trkpt lat="49.4498872" lon="11.2355354">
				<ele>402</ele>
				<time>2026-08-23T11:53:25.000Z</time>
			</trkpt>
			<trkpt lat="49.4494928" lon="11.2351855">
				<ele>402.4</ele>
				<time>2026-08-23T11:53:27.000Z</time>
			</trkpt>
			<trkpt lat="49.4489037" lon="11.2346764">
				<ele>403</ele>
				<time>2026-08-23T11:53:30.000Z</time>
			</trkpt>
			<trkpt lat="49.4485152" lon="11.234322">
				<ele>403.2</ele>
				<time>2026-08-23T11:53:32.000Z</time>
			</trkpt>
			<trkpt lat="49.4479301" lon="11.2337877">
				<ele>403.1</ele>
				<time>2026-08-23T11:53:35.000Z</time>
			</trkpt>
			<trkpt lat="49.4475306" lon="11.233421">
				<ele>403.3</ele>
				<time>2026-08-23T11:53:37.000Z</time>
			</trkpt>
			<trkpt lat="49.4469297" lon="11.2328602">
				<ele>403.5</ele>
				<time>2026-08-23T11:53:40.000Z</time>
			</trkpt>
			<trkpt lat="49.4463249" lon="11.2322847">
				<ele>403</ele>
				<time>2026-08-23T11:53:43.000Z</time>
			</trkpt>
			<trkpt lat="49.445905" lon="11.2318887">
				<ele>404</ele>
				<time>2026-08-23T11:53:45.000Z</time>
			</trkpt>
			<trkpt lat="49.4452868" lon="11.2312609">
				<ele>405.1</ele>
				<time>2026-08-23T11:53:48.000Z</time>
			</trkpt>
			<trkpt lat="49.444658" lon="11.2305728">
				<ele>408.9</ele>
				<time>2026-08-23T11:53:51.000Z</time>
			</trkpt>
			<trkpt lat="49.4442664" lon="11.2301476">
				<ele>410</ele>
				<time>2026-08-23T11:53:53.000Z</time>
			</trkpt>
			<trkpt lat="49.4437172" lon="11.2295534">
				<ele>411.2</ele>
				<time>2026-08-23T11:53:56.000Z</time>
			</trkpt>
			<trkpt lat="49.4431714" lon="11.2289536">
				<ele>412.1</ele>
				<time>2026-08-23T11:53:59.000Z</time>
			</trkpt>
			<trkpt lat="49.4428076" lon="11.228539">
				<ele>413.4</ele>
				<time>2026-08-23T11:54:01.000Z</time>
			</trkpt>
			<trkpt lat="49.4422521" lon="11.2279181">
				<ele>414.1</ele>
				<time>2026-08-23T11:54:04.000Z</time>
			</trkpt>
			<trkpt lat="49.4416802" lon="11.2272735">
				<ele>416.2</ele>
				<time>2026-08-23T11:54:07.000Z</time>
			</trkpt>
			<trkpt lat="49.4412939" lon="11.2268544">
				<ele>417.3</ele>
				<time>2026-08-23T11:54:09.000Z</time>
			</trkpt>
			<trkpt lat="49.4409115" lon="11.2264268">
				<ele>417.1</ele>
				<time>2026-08-23T11:54:11.000Z</time>
			</trkpt>
			<trkpt lat="49.4403481" lon="11.2257827">
				<ele>417.5</ele>
				<time>2026-08-23T11:54:14.000Z</time>
			</trkpt>
			<trkpt lat="49.4397619" lon="11.2251402">
				<ele>420.7</ele>
				<time>2026-08-23T11:54:17.000Z</time>
			</trkpt>
			<trkpt lat="49.4393836" lon="11.2247191">
				<ele>422.4</ele>
				<time>2026-08-23T11:54:19.000Z</time>
			</trkpt>
			<trkpt lat="49.4388248" lon="11.2240958">
				<ele>424.7</ele>
				<time>2026-08-23T11:54:22.000Z</time>
			</trkpt>
			<trkpt lat="49.4382602" lon="11.2234717">
				<ele>426.7</ele>
				<time>2026-08-23T11:54:25.000Z</time>
			</trkpt>
			<trkpt lat="49.4376968" lon="11.2228387">
				<ele>427.4</ele>
				<time>2026-08-23T11:54:28.000Z</time>
			</trkpt>
			<trkpt lat="49.4373098" lon="11.2224192">
				<ele>428.6</ele>
				<time>2026-08-23T11:54:30.000Z</time>
			</trkpt>
			<trkpt lat="49.4367143" lon="11.2217536">
				<ele>430.3</ele>
				<time>2026-08-23T11:54:33.000Z</time>
			</trkpt>
			<trkpt lat="49.4361005" lon="11.2210694">
				<ele>432.7</ele>
				<time>2026-08-23T11:54:36.000Z</time>
			</trkpt>
			<trkpt lat="49.435482" lon="11.2203764">
				<ele>431.9</ele>
				<time>2026-08-23T11:54:39.000Z</time>
			</trkpt>
			<trkpt lat="49.4348719" lon="11.2196861">
				<ele>430.5</ele>
				<time>2026-08-23T11:54:42.000Z</time>
			</trkpt>
			<trkpt lat="49.4344858" lon="11.2192362">
				<ele>429.8</ele>
				<time>2026-08-23T11:54:44.000Z</time>
			</trkpt>
			<trkpt lat="49.4341124" lon="11.2187828">
				<ele>428.3</ele>
				<time>2026-08-23T11:54:46.000Z</time>
			</trkpt>
			<trkpt lat="49.4335324" lon="11.218131">
				<ele>427.5</ele>
				<time>2026-08-23T11:54:49.000Z</time>
			</trkpt>
			<trkpt lat="49.4331474" lon="11.2177162">
				<ele>427.3</ele>
				<time>2026-08-23T11:54:51.000Z</time>
			</trkpt>
			<trkpt lat="49.4325857" lon="11.2170973">
				<ele>426</ele>
				<time>2026-08-23T11:54:54.000Z</time>
			</trkpt>
			<trkpt lat="49.432216" lon="11.2166945">
				<ele>425.8</ele>
				<time>2026-08-23T11:54:56.000Z</time>
			</trkpt>
			<trkpt lat="49.4318444" lon="11.2162826">
				<ele>425.5</ele>
				<time>2026-08-23T11:54:58.000Z</time>
			</trkpt>
			<trkpt lat="49.4312867" lon="11.2156705">
				<ele>424.8</ele>
				<time>2026-08-23T11:55:01.000Z</time>
			</trkpt>
			<trkpt lat="49.4307572" lon="11.2150772">
				<ele>421.2</ele>
				<time>2026-08-23T11:55:04.000Z</time>
			</trkpt>
			<trkpt lat="49.4302366" lon="11.2144842">
				<ele>417.9</ele>
				<time>2026-08-23T11:55:07.000Z</time>
			</trkpt>
			<trkpt lat="49.4298817" lon="11.2140809">
				<ele>415.8</ele>
				<time>2026-08-23T11:55:09.000Z</time>
			</trkpt>
			<trkpt lat="49.4293389" lon="11.2134761">
				<ele>414.3</ele>
				<time>2026-08-23T11:55:12.000Z</time>
			</trkpt>
			<trkpt lat="49.4287936" lon="11.2128724">
				<ele>413.5</ele>
				<time>2026-08-23T11:55:15.000Z</time>
			</trkpt>
			<trkpt lat="49.4282416" lon="11.2122586">
				<ele>413</ele>
				<time>2026-08-23T11:55:18.000Z</time>
			</trkpt>
			<trkpt lat="49.4278731" lon="11.2118524">
				<ele>412.6</ele>
				<time>2026-08-23T11:55:20.000Z</time>
			</trkpt>
			<trkpt lat="49.427317" lon="11.2112382">
				<ele>411.9</ele>
				<time>2026-08-23T11:55:23.000Z</time>
			</trkpt>
			<trkpt lat="49.4269523" lon="11.210839">
				<ele>411</ele>
				<time>2026-08-23T11:55:25.000Z</time>
			</trkpt>
			<trkpt lat="49.4264701" lon="11.210255">
				<ele>401.9</ele>
				<time>2026-08-23T11:55:28.000Z</time>
			</trkpt>
			<trkpt lat="49.4259375" lon="11.2096662">
				<ele>400.7</ele>
				<time>2026-08-23T11:55:31.000Z</time>
			</trkpt>
			<trkpt lat="49.4255941" lon="11.2092677">
				<ele>399.9</ele>
				<time>2026-08-23T11:55:33.000Z</time>
			</trkpt>
			<trkpt lat="49.4250839" lon="11.2087101">
				<ele>398.7</ele>
				<time>2026-08-23T11:55:36.000Z</time>
			</trkpt>
			<trkpt lat="49.4247534" lon="11.2083651">
				<ele>398</ele>
				<time>2026-08-23T11:55:38.000Z</time>
			</trkpt>
			<trkpt lat="49.4243654" lon="11.2079529">
				<ele>397.1</ele>
				<time>2026-08-23T11:55:41.000Z</time>
			</trkpt>
			<trkpt lat="49.4241436" lon="11.207694">
				<ele>397.1</ele>
				<time>2026-08-23T11:55:43.000Z</time>
			</trkpt>
			<trkpt lat="49.4238864" lon="11.2072724">
				<ele>398.4</ele>
				<time>2026-08-23T11:55:46.000Z</time>
			</trkpt>
			<trkpt lat="49.4238191" lon="11.2070176">
				<ele>395.3</ele>
				<time>2026-08-23T11:55:48.000Z</time>
			</trkpt>
			<trkpt lat="49.4236791" lon="11.206688">
				<ele>395.5</ele>
				<time>2026-08-23T11:55:51.000Z</time>
			</trkpt>
			<trkpt lat="49.4236115" lon="11.2065742">
				<ele>393</ele>
				<time>2026-08-23T11:55:53.000Z</time>
			</trkpt>
			<trkpt lat="49.4235093" lon="11.2064392">
				<ele>392.8</ele>
				<time>2026-08-23T11:55:56.000Z</time>
			</trkpt>
			<trkpt lat="49.4234467" lon="11.2063326">
				<ele>393</ele>
				<time>2026-08-23T11:56:02.000Z</time>
			</trkpt>
			<trkpt lat="49.4234028" lon="11.2061881">
				<ele>394</ele>
				<time>2026-08-23T11:57:36.000Z</time>
			</trkpt>
			<trkpt lat="49.4233311" lon="11.2060635">
				<ele>393.7</ele>
				<time>2026-08-23T11:57:38.000Z</time>
			</trkpt>
			<trkpt lat="49.4232268" lon="11.2059214">
				<ele>393.7</ele>
				<time>2026-08-23T11:57:41.000Z</time>
			</trkpt>
			<trkpt lat="49.4231162" lon="11.2057404">
				<ele>394</ele>
				<time>2026-08-23T11:57:44.000Z</time>
			</trkpt>
			<trkpt lat="49.4230287" lon="11.2056475">
				<ele>392.9</ele>
				<time>2026-08-23T11:57:46.000Z</time>
			</trkpt>
			<trkpt lat="49.422893" lon="11.20561">
				<ele>393</ele>
				<time>2026-08-23T11:57:49.000Z</time>
			</trkpt>
			<trkpt lat="49.4227612" lon="11.2056045">
				<ele>393.2</ele>
				<time>2026-08-23T11:57:52.000Z</time>
			</trkpt>
			<trkpt lat="49.4225992" lon="11.2055316">
				<ele>392.5</ele>
				<time>2026-08-23T11:57:55.000Z</time>
			</trkpt>
			<trkpt lat="49.4223659" lon="11.2054352">
				<ele>392.4</ele>
				<time>2026-08-23T11:57:58.000Z</time>
			</trkpt>
			<trkpt lat="49.4220772" lon="11.2053727">
				<ele>394.1</ele>
				<time>2026-08-23T11:58:01.000Z</time>
			</trkpt>
			<trkpt lat="49.4217581" lon="11.2052328">
				<ele>393.9</ele>
				<time>2026-08-23T11:58:04.000Z</time>
			</trkpt>
			<trkpt lat="49.421425" lon="11.2049511">
				<ele>394.5</ele>
				<time>2026-08-23T11:58:07.000Z</time>
			</trkpt>
			<trkpt lat="49.4210363" lon="11.2045874">
				<ele>394.3</ele>
				<time>2026-08-23T11:58:10.000Z</time>
			</trkpt>
			<trkpt lat="49.4207438" lon="11.2043231">
				<ele>394.5</ele>
				<time>2026-08-23T11:58:12.000Z</time>
			</trkpt>
			<trkpt lat="49.4204476" lon="11.2040347">
				<ele>394.4</ele>
				<time>2026-08-23T11:58:14.000Z</time>
			</trkpt>
			<trkpt lat="49.419982" lon="11.2035687">
				<ele>393.9</ele>
				<time>2026-08-23T11:58:17.000Z</time>
			</trkpt>
			<trkpt lat="49.4195234" lon="11.2031051">
				<ele>394.4</ele>
				<time>2026-08-23T11:58:20.000Z</time>
			</trkpt>
			<trkpt lat="49.4192041" lon="11.2027912">
				<ele>395.2</ele>
				<time>2026-08-23T11:58:22.000Z</time>
			</trkpt>
			<trkpt lat="49.418689" lon="11.2023106">
				<ele>395.7</ele>
				<time>2026-08-23T11:58:25.000Z</time>
			</trkpt>
			<trkpt lat="49.4181364" lon="11.2017666">
				<ele>396.3</ele>
				<time>2026-08-23T11:58:28.000Z</time>
			</trkpt>
			<trkpt lat="49.4175615" lon="11.2011911">
				<ele>396</ele>
				<time>2026-08-23T11:58:31.000Z</time>
			</trkpt>
			<trkpt lat="49.4169658" lon="11.2005873">
				<ele>396.3</ele>
				<time>2026-08-23T11:58:34.000Z</time>
			</trkpt>
			<trkpt lat="49.4165509" lon="11.2001723">
				<ele>396.3</ele>
				<time>2026-08-23T11:58:36.000Z</time>
			</trkpt>
			<trkpt lat="49.4159237" lon="11.1995333">
				<ele>396.2</ele>
				<time>2026-08-23T11:58:39.000Z</time>
			</trkpt>
			<trkpt lat="49.4154909" lon="11.1991161">
				<ele>396.4</ele>
				<time>2026-08-23T11:58:41.000Z</time>
			</trkpt>
			<trkpt lat="49.4150453" lon="11.1986958">
				<ele>396.2</ele>
				<time>2026-08-23T11:58:43.000Z</time>
			</trkpt>
			<trkpt lat="49.4143564" lon="11.1980934">
				<ele>395.8</ele>
				<time>2026-08-23T11:58:46.000Z</time>
			</trkpt>
			<trkpt lat="49.4138949" lon="11.1977359">
				<ele>394.6</ele>
				<time>2026-08-23T11:58:48.000Z</time>
			</trkpt>
			<trkpt lat="49.4131494" lon="11.1972267">
				<ele>395.1</ele>
				<time>2026-08-23T11:58:51.000Z</time>
			</trkpt>
			<trkpt lat="49.4126555" lon="11.1969224">
				<ele>395.7</ele>
				<time>2026-08-23T11:58:53.000Z</time>
			</trkpt>
			<trkpt lat="49.4119091" lon="11.19652">
				<ele>396.8</ele>
				<time>2026-08-23T11:58:56.000Z</time>
			</trkpt>
			<trkpt lat="49.4111548" lon="11.1961738">
				<ele>399.2</ele>
				<time>2026-08-23T11:58:59.000Z</time>
			</trkpt>
			<trkpt lat="49.4104039" lon="11.1958857">
				<ele>401.7</ele>
				<time>2026-08-23T11:59:02.000Z</time>
			</trkpt>
			<trkpt lat="49.4099047" lon="11.1957274">
				<ele>402.9</ele>
				<time>2026-08-23T11:59:04.000Z</time>
			</trkpt>
			<trkpt lat="49.4091397" lon="11.1955253">
				<ele>405.4</ele>
				<time>2026-08-23T11:59:07.000Z</time>
			</trkpt>
			<trkpt lat="49.4083947" lon="11.1954062">
				<ele>405.7</ele>
				<time>2026-08-23T11:59:10.000Z</time>
			</trkpt>
			<trkpt lat="49.4076262" lon="11.1953292">
				<ele>408.4</ele>
				<time>2026-08-23T11:59:13.000Z</time>
			</trkpt>
			<trkpt lat="49.4068597" lon="11.195317">
				<ele>410.5</ele>
				<time>2026-08-23T11:59:16.000Z</time>
			</trkpt>
			<trkpt lat="49.4060533" lon="11.1953322">
				<ele>417.1</ele>
				<time>2026-08-23T11:59:19.000Z</time>
			</trkpt>
			<trkpt lat="49.4055296" lon="11.1953899">
				<ele>418</ele>
				<time>2026-08-23T11:59:21.000Z</time>
			</trkpt>
			<trkpt lat="49.4047315" lon="11.195466">
				<ele>419.9</ele>
				<time>2026-08-23T11:59:24.000Z</time>
			</trkpt>
			<trkpt lat="49.4039553" lon="11.1956544">
				<ele>420.2</ele>
				<time>2026-08-23T11:59:27.000Z</time>
			</trkpt>
			<trkpt lat="49.403439" lon="11.1958159">
				<ele>419.5</ele>
				<time>2026-08-23T11:59:29.000Z</time>
			</trkpt>
			<trkpt lat="49.4029163" lon="11.1959974">
				<ele>419.5</ele>
				<time>2026-08-23T11:59:31.000Z</time>
			</trkpt>
			<trkpt lat="49.4021455" lon="11.196333">
				<ele>418.8</ele>
				<time>2026-08-23T11:59:34.000Z</time>
			</trkpt>
			<trkpt lat="49.4016346" lon="11.1965808">
				<ele>418.1</ele>
				<time>2026-08-23T11:59:36.000Z</time>
			</trkpt>
			<trkpt lat="49.4008736" lon="11.1969816">
				<ele>416.9</ele>
				<time>2026-08-23T11:59:39.000Z</time>
			</trkpt>
			<trkpt lat="49.4003543" lon="11.1972546">
				<ele>416.9</ele>
				<time>2026-08-23T11:59:41.000Z</time>
			</trkpt>
			<trkpt lat="49.3995751" lon="11.1976662">
				<ele>416.8</ele>
				<time>2026-08-23T11:59:44.000Z</time>
			</trkpt>
			<trkpt lat="49.3990567" lon="11.1979448">
				<ele>417.7</ele>
				<time>2026-08-23T11:59:46.000Z</time>
			</trkpt>
			<trkpt lat="49.3985358" lon="11.1982141">
				<ele>418</ele>
				<time>2026-08-23T11:59:48.000Z</time>
			</trkpt>
			<trkpt lat="49.3977507" lon="11.1986293">
				<ele>418.3</ele>
				<time>2026-08-23T11:59:51.000Z</time>
			</trkpt>
			<trkpt lat="49.3969786" lon="11.1990486">
				<ele>416.7</ele>
				<time>2026-08-23T11:59:54.000Z</time>
			</trkpt>
			<trkpt lat="49.3964468" lon="11.1993389">
				<ele>416.8</ele>
				<time>2026-08-23T11:59:56.000Z</time>
			</trkpt>
			<trkpt lat="49.3959202" lon="11.1996141">
				<ele>417.8</ele>
				<time>2026-08-23T11:59:58.000Z</time>
			</trkpt>
			<trkpt lat="49.3951466" lon="11.2000068">
				<ele>418.3</ele>
				<time>2026-08-23T12:00:01.000Z</time>
			</trkpt>
			<trkpt lat="49.3943982" lon="11.2004032">
				<ele>418.2</ele>
				<time>2026-08-23T12:00:04.000Z</time>
			</trkpt>
			<trkpt lat="49.3938848" lon="11.2006692">
				<ele>419.3</ele>
				<time>2026-08-23T12:00:06.000Z</time>
			</trkpt>
			<trkpt lat="49.3931201" lon="11.2010238">
				<ele>420.7</ele>
				<time>2026-08-23T12:00:09.000Z</time>
			</trkpt>
			<trkpt lat="49.3923508" lon="11.2013163">
				<ele>422</ele>
				<time>2026-08-23T12:00:12.000Z</time>
			</trkpt>
			<trkpt lat="49.3918318" lon="11.2014808">
				<ele>422.5</ele>
				<time>2026-08-23T12:00:14.000Z</time>
			</trkpt>
			<trkpt lat="49.3910386" lon="11.2016896">
				<ele>423.7</ele>
				<time>2026-08-23T12:00:17.000Z</time>
			</trkpt>
			<trkpt lat="49.3902483" lon="11.2018525">
				<ele>423.8</ele>
				<time>2026-08-23T12:00:20.000Z</time>
			</trkpt>
			<trkpt lat="49.3897144" lon="11.2019171">
				<ele>424.2</ele>
				<time>2026-08-23T12:00:22.000Z</time>
			</trkpt>
			<trkpt lat="49.3891828" lon="11.2019445">
				<ele>424.4</ele>
				<time>2026-08-23T12:00:24.000Z</time>
			</trkpt>
			<trkpt lat="49.3884119" lon="11.2019303">
				<ele>424.1</ele>
				<time>2026-08-23T12:00:27.000Z</time>
			</trkpt>
			<trkpt lat="49.3879005" lon="11.201908">
				<ele>424.6</ele>
				<time>2026-08-23T12:00:29.000Z</time>
			</trkpt>
			<trkpt lat="49.3871215" lon="11.2018323">
				<ele>426</ele>
				<time>2026-08-23T12:00:32.000Z</time>
			</trkpt>
			<trkpt lat="49.3863645" lon="11.2016885">
				<ele>425.8</ele>
				<time>2026-08-23T12:00:35.000Z</time>
			</trkpt>
			<trkpt lat="49.3855941" lon="11.2015066">
				<ele>426.3</ele>
				<time>2026-08-23T12:00:38.000Z</time>
			</trkpt>
			<trkpt lat="49.3850944" lon="11.2013654">
				<ele>426.6</ele>
				<time>2026-08-23T12:00:40.000Z</time>
			</trkpt>
			<trkpt lat="49.3843524" lon="11.2011819">
				<ele>425.9</ele>
				<time>2026-08-23T12:00:43.000Z</time>
			</trkpt>
			<trkpt lat="49.3836229" lon="11.2010055">
				<ele>426.5</ele>
				<time>2026-08-23T12:00:46.000Z</time>
			</trkpt>
			<trkpt lat="49.3828987" lon="11.2008153">
				<ele>425.6</ele>
				<time>2026-08-23T12:00:49.000Z</time>
			</trkpt>
			<trkpt lat="49.3821322" lon="11.2006569">
				<ele>424.2</ele>
				<time>2026-08-23T12:00:52.000Z</time>
			</trkpt>
			<trkpt lat="49.381332" lon="11.2004605">
				<ele>422.6</ele>
				<time>2026-08-23T12:00:55.000Z</time>
			</trkpt>
			<trkpt lat="49.3807929" lon="11.2003506">
				<ele>421.4</ele>
				<time>2026-08-23T12:00:57.000Z</time>
			</trkpt>
			<trkpt lat="49.3799628" lon="11.2002235">
				<ele>418.8</ele>
				<time>2026-08-23T12:01:00.000Z</time>
			</trkpt>
			<trkpt lat="49.3791227" lon="11.2001453">
				<ele>417.1</ele>
				<time>2026-08-23T12:01:03.000Z</time>
			</trkpt>
			<trkpt lat="49.3785542" lon="11.2001474">
				<ele>415.8</ele>
				<time>2026-08-23T12:01:05.000Z</time>
			</trkpt>
			<trkpt lat="49.377979" lon="11.2001859">
				<ele>413.7</ele>
				<time>2026-08-23T12:01:07.000Z</time>
			</trkpt>
			<trkpt lat="49.3771283" lon="11.2002928">
				<ele>410.5</ele>
				<time>2026-08-23T12:01:10.000Z</time>
			</trkpt>
			<trkpt lat="49.3762948" lon="11.200403">
				<ele>408.5</ele>
				<time>2026-08-23T12:01:13.000Z</time>
			</trkpt>
			<trkpt lat="49.3757768" lon="11.2004771">
				<ele>407.8</ele>
				<time>2026-08-23T12:01:15.000Z</time>
			</trkpt>
			<trkpt lat="49.3750152" lon="11.2005687">
				<ele>406.5</ele>
				<time>2026-08-23T12:01:18.000Z</time>
			</trkpt>
			<trkpt lat="49.3742706" lon="11.200658">
				<ele>405.4</ele>
				<time>2026-08-23T12:01:21.000Z</time>
			</trkpt>
			<trkpt lat="49.3737724" lon="11.2007225">
				<ele>405</ele>
				<time>2026-08-23T12:01:23.000Z</time>
			</trkpt>
			<trkpt lat="49.3730264" lon="11.2008287">
				<ele>405.2</ele>
				<time>2026-08-23T12:01:26.000Z</time>
			</trkpt>
			<trkpt lat="49.3722959" lon="11.2009199">
				<ele>404.9</ele>
				<time>2026-08-23T12:01:29.000Z</time>
			</trkpt>
			<trkpt lat="49.3718126" lon="11.2009834">
				<ele>404.1</ele>
				<time>2026-08-23T12:01:31.000Z</time>
			</trkpt>
			<trkpt lat="49.3710861" lon="11.2010698">
				<ele>404.7</ele>
				<time>2026-08-23T12:01:34.000Z</time>
			</trkpt>
			<trkpt lat="49.3706059" lon="11.2011223">
				<ele>404.7</ele>
				<time>2026-08-23T12:01:36.000Z</time>
			</trkpt>
			<trkpt lat="49.369889" lon="11.2012025">
				<ele>403.9</ele>
				<time>2026-08-23T12:01:39.000Z</time>
			</trkpt>
			<trkpt lat="49.3693998" lon="11.2012603">
				<ele>404.1</ele>
				<time>2026-08-23T12:01:41.000Z</time>
			</trkpt>
			<trkpt lat="49.3686939" lon="11.2013588">
				<ele>404.8</ele>
				<time>2026-08-23T12:01:44.000Z</time>
			</trkpt>
			<trkpt lat="49.3680155" lon="11.2014451">
				<ele>405.1</ele>
				<time>2026-08-23T12:01:47.000Z</time>
			</trkpt>
			<trkpt lat="49.3675958" lon="11.2014976">
				<ele>405.4</ele>
				<time>2026-08-23T12:01:49.000Z</time>
			</trkpt>
			<trkpt lat="49.367008" lon="11.2015679">
				<ele>404.5</ele>
				<time>2026-08-23T12:01:52.000Z</time>
			</trkpt>
			<trkpt lat="49.366628" lon="11.201618">
				<ele>404.7</ele>
				<time>2026-08-23T12:01:54.000Z</time>
			</trkpt>
			<trkpt lat="49.3662527" lon="11.2016748">
				<ele>404.9</ele>
				<time>2026-08-23T12:01:56.000Z</time>
			</trkpt>
			<trkpt lat="49.3656868" lon="11.2017659">
				<ele>403.7</ele>
				<time>2026-08-23T12:01:59.000Z</time>
			</trkpt>
			<trkpt lat="49.3651273" lon="11.2018386">
				<ele>404</ele>
				<time>2026-08-23T12:02:02.000Z</time>
			</trkpt>
			<trkpt lat="49.3647489" lon="11.2018828">
				<ele>403.9</ele>
				<time>2026-08-23T12:02:04.000Z</time>
			</trkpt>
			<trkpt lat="49.3643524" lon="11.201933">
				<ele>405.6</ele>
				<time>2026-08-23T12:02:06.000Z</time>
			</trkpt>
			<trkpt lat="49.363968" lon="11.2019773">
				<ele>406.3</ele>
				<time>2026-08-23T12:02:08.000Z</time>
			</trkpt>
			<trkpt lat="49.3634058" lon="11.2020438">
				<ele>406.5</ele>
				<time>2026-08-23T12:02:11.000Z</time>
			</trkpt>
			<trkpt lat="49.3628564" lon="11.2021013">
				<ele>407.4</ele>
				<time>2026-08-23T12:02:14.000Z</time>
			</trkpt>
			<trkpt lat="49.3623182" lon="11.2021688">
				<ele>407.3</ele>
				<time>2026-08-23T12:02:17.000Z</time>
			</trkpt>
			<trkpt lat="49.3619707" lon="11.2022086">
				<ele>407.4</ele>
				<time>2026-08-23T12:02:19.000Z</time>
			</trkpt>
			<trkpt lat="49.3614655" lon="11.2022723">
				<ele>407.8</ele>
				<time>2026-08-23T12:02:22.000Z</time>
			</trkpt>
			<trkpt lat="49.3610076" lon="11.20233">
				<ele>408.5</ele>
				<time>2026-08-23T12:02:25.000Z</time>
			</trkpt>
			<trkpt lat="49.3607182" lon="11.2023624">
				<ele>408</ele>
				<time>2026-08-23T12:02:27.000Z</time>
			</trkpt>
			<trkpt lat="49.3602987" lon="11.2024154">
				<ele>408</ele>
				<time>2026-08-23T12:02:30.000Z</time>
			</trkpt>
			<trkpt lat="49.3598729" lon="11.2024582">
				<ele>408.4</ele>
				<time>2026-08-23T12:02:33.000Z</time>
			</trkpt>
			<trkpt lat="49.3594367" lon="11.2025102">
				<ele>408.2</ele>
				<time>2026-08-23T12:02:36.000Z</time>
			</trkpt>
			<trkpt lat="49.3591397" lon="11.202551">
				<ele>408.3</ele>
				<time>2026-08-23T12:02:38.000Z</time>
			</trkpt>
			<trkpt lat="49.3587007" lon="11.20262">
				<ele>408.3</ele>
				<time>2026-08-23T12:02:41.000Z</time>
			</trkpt>
			<trkpt lat="49.3584151" lon="11.20265">
				<ele>408.4</ele>
				<time>2026-08-23T12:02:43.000Z</time>
			</trkpt>
			<trkpt lat="49.3579791" lon="11.2027258">
				<ele>407.9</ele>
				<time>2026-08-23T12:02:46.000Z</time>
			</trkpt>
			<trkpt lat="49.35769" lon="11.2027822">
				<ele>407.7</ele>
				<time>2026-08-23T12:02:48.000Z</time>
			</trkpt>
			<trkpt lat="49.3574109" lon="11.2028645">
				<ele>406.8</ele>
				<time>2026-08-23T12:02:50.000Z</time>
			</trkpt>
			<trkpt lat="49.3571321" lon="11.2029114">
				<ele>406.2</ele>
				<time>2026-08-23T12:02:52.000Z</time>
			</trkpt>
			<trkpt lat="49.3567118" lon="11.203011">
				<ele>405.7</ele>
				<time>2026-08-23T12:02:55.000Z</time>
			</trkpt>
			<trkpt lat="49.3564285" lon="11.2031009">
				<ele>405.2</ele>
				<time>2026-08-23T12:02:57.000Z</time>
			</trkpt>
			<trkpt lat="49.3559634" lon="11.2031817">
				<ele>404.1</ele>
				<time>2026-08-23T12:03:00.000Z</time>
			</trkpt>
			<trkpt lat="49.3556409" lon="11.2032242">
				<ele>403.2</ele>
				<time>2026-08-23T12:03:02.000Z</time>
			</trkpt>
			<trkpt lat="49.3552923" lon="11.2032674">
				<ele>403.2</ele>
				<time>2026-08-23T12:03:04.000Z</time>
			</trkpt>
			<trkpt lat="49.3547556" lon="11.2033449">
				<ele>403.1</ele>
				<time>2026-08-23T12:03:07.000Z</time>
			</trkpt>
			<trkpt lat="49.354219" lon="11.2034169">
				<ele>403.5</ele>
				<time>2026-08-23T12:03:10.000Z</time>
			</trkpt>
			<trkpt lat="49.3537058" lon="11.2034848">
				<ele>403.4</ele>
				<time>2026-08-23T12:03:13.000Z</time>
			</trkpt>
			<trkpt lat="49.3533708" lon="11.2035143">
				<ele>403.1</ele>
				<time>2026-08-23T12:03:15.000Z</time>
			</trkpt>
			<trkpt lat="49.3528655" lon="11.2034981">
				<ele>403.3</ele>
				<time>2026-08-23T12:03:18.000Z</time>
			</trkpt>
			<trkpt lat="49.352517" lon="11.2034743">
				<ele>403.8</ele>
				<time>2026-08-23T12:03:20.000Z</time>
			</trkpt>
			<trkpt lat="49.3519953" lon="11.2035024">
				<ele>405.6</ele>
				<time>2026-08-23T12:03:23.000Z</time>
			</trkpt>
			<trkpt lat="49.3514516" lon="11.2035281">
				<ele>406.1</ele>
				<time>2026-08-23T12:03:26.000Z</time>
			</trkpt>
			<trkpt lat="49.3510815" lon="11.2035388">
				<ele>407.2</ele>
				<time>2026-08-23T12:03:28.000Z</time>
			</trkpt>
			<trkpt lat="49.3505176" lon="11.2035471">
				<ele>407.9</ele>
				<time>2026-08-23T12:03:31.000Z</time>
			</trkpt>
			<trkpt lat="49.3499589" lon="11.2035422">
				<ele>409.2</ele>
				<time>2026-08-23T12:03:34.000Z</time>
			</trkpt>
			<trkpt lat="49.3495876" lon="11.2035363">
				<ele>409.2</ele>
				<time>2026-08-23T12:03:36.000Z</time>
			</trkpt>
			<trkpt lat="49.3489799" lon="11.2035486">
				<ele>409</ele>
				<time>2026-08-23T12:03:39.000Z</time>
			</trkpt>
			<trkpt lat="49.348356" lon="11.2035697">
				<ele>409.8</ele>
				<time>2026-08-23T12:03:42.000Z</time>
			</trkpt>
			<trkpt lat="49.3479226" lon="11.2035694">
				<ele>410.5</ele>
				<time>2026-08-23T12:03:44.000Z</time>
			</trkpt>
			<trkpt lat="49.3474869" lon="11.2035786">
				<ele>410.4</ele>
				<time>2026-08-23T12:03:46.000Z</time>
			</trkpt>
			<trkpt lat="49.346829" lon="11.2035914">
				<ele>410.3</ele>
				<time>2026-08-23T12:03:49.000Z</time>
			</trkpt>
			<trkpt lat="49.3461497" lon="11.2035884">
				<ele>411.7</ele>
				<time>2026-08-23T12:03:52.000Z</time>
			</trkpt>
			<trkpt lat="49.3456824" lon="11.2035974">
				<ele>412.9</ele>
				<time>2026-08-23T12:03:54.000Z</time>
			</trkpt>
			<trkpt lat="49.3449746" lon="11.2036044">
				<ele>414.5</ele>
				<time>2026-08-23T12:03:57.000Z</time>
			</trkpt>
			<trkpt lat="49.3444983" lon="11.2036049">
				<ele>415.1</ele>
				<time>2026-08-23T12:03:59.000Z</time>
			</trkpt>
			<trkpt lat="49.3437775" lon="11.2036162">
				<ele>416.2</ele>
				<time>2026-08-23T12:04:02.000Z</time>
			</trkpt>
			<trkpt lat="49.3430492" lon="11.2036276">
				<ele>417.1</ele>
				<time>2026-08-23T12:04:05.000Z</time>
			</trkpt>
			<trkpt lat="49.3425647" lon="11.2036274">
				<ele>418</ele>
				<time>2026-08-23T12:04:07.000Z</time>
			</trkpt>
			<trkpt lat="49.3418263" lon="11.203646">
				<ele>420</ele>
				<time>2026-08-23T12:04:10.000Z</time>
			</trkpt>
			<trkpt lat="49.3410823" lon="11.2036634">
				<ele>420.9</ele>
				<time>2026-08-23T12:04:13.000Z</time>
			</trkpt>
			<trkpt lat="49.3405876" lon="11.203703">
				<ele>421</ele>
				<time>2026-08-23T12:04:15.000Z</time>
			</trkpt>
			<trkpt lat="49.3398359" lon="11.2037982">
				<ele>421.7</ele>
				<time>2026-08-23T12:04:18.000Z</time>
			</trkpt>
			<trkpt lat="49.3393444" lon="11.2038574">
				<ele>422.4</ele>
				<time>2026-08-23T12:04:20.000Z</time>
			</trkpt>
			<trkpt lat="49.3388485" lon="11.2039268">
				<ele>423.2</ele>
				<time>2026-08-23T12:04:22.000Z</time>
			</trkpt>
			<trkpt lat="49.3383475" lon="11.2040025">
				<ele>423.3</ele>
				<time>2026-08-23T12:04:24.000Z</time>
			</trkpt>
			<trkpt lat="49.3378453" lon="11.204079">
				<ele>422.6</ele>
				<time>2026-08-23T12:04:26.000Z</time>
			</trkpt>
			<trkpt lat="49.3370813" lon="11.2041849">
				<ele>422.2</ele>
				<time>2026-08-23T12:04:29.000Z</time>
			</trkpt>
			<trkpt lat="49.3363143" lon="11.2042913">
				<ele>420.3</ele>
				<time>2026-08-23T12:04:32.000Z</time>
			</trkpt>
			<trkpt lat="49.3358054" lon="11.2043584">
				<ele>419.3</ele>
				<time>2026-08-23T12:04:34.000Z</time>
			</trkpt>
			<trkpt lat="49.335292" lon="11.2044326">
				<ele>418.9</ele>
				<time>2026-08-23T12:04:36.000Z</time>
			</trkpt>
			<trkpt lat="49.3345284" lon="11.2045287">
				<ele>418.1</ele>
				<time>2026-08-23T12:04:39.000Z</time>
			</trkpt>
			<trkpt lat="49.3340195" lon="11.2046005">
				<ele>417.1</ele>
				<time>2026-08-23T12:04:41.000Z</time>
			</trkpt>
			<trkpt lat="49.333506" lon="11.2046695">
				<ele>416.4</ele>
				<time>2026-08-23T12:04:43.000Z</time>
			</trkpt>
			<trkpt lat="49.3327438" lon="11.2047697">
				<ele>415.7</ele>
				<time>2026-08-23T12:04:46.000Z</time>
			</trkpt>
			<trkpt lat="49.3319792" lon="11.2048727">
				<ele>415.7</ele>
				<time>2026-08-23T12:04:49.000Z</time>
			</trkpt>
			<trkpt lat="49.3314697" lon="11.2049427">
				<ele>415.1</ele>
				<time>2026-08-23T12:04:51.000Z</time>
			</trkpt>
			<trkpt lat="49.330716" lon="11.2050407">
				<ele>414.2</ele>
				<time>2026-08-23T12:04:54.000Z</time>
			</trkpt>
			<trkpt lat="49.3299468" lon="11.2051458">
				<ele>415</ele>
				<time>2026-08-23T12:04:57.000Z</time>
			</trkpt>
			<trkpt lat="49.3294193" lon="11.2052217">
				<ele>414.7</ele>
				<time>2026-08-23T12:04:59.000Z</time>
			</trkpt>
			<trkpt lat="49.3286232" lon="11.2053309">
				<ele>415.1</ele>
				<time>2026-08-23T12:05:02.000Z</time>
			</trkpt>
			<trkpt lat="49.3280798" lon="11.2054147">
				<ele>416.2</ele>
				<time>2026-08-23T12:05:04.000Z</time>
			</trkpt>
			<trkpt lat="49.3275354" lon="11.2054869">
				<ele>417.2</ele>
				<time>2026-08-23T12:05:06.000Z</time>
			</trkpt>
			<trkpt lat="49.3267138" lon="11.2056031">
				<ele>418</ele>
				<time>2026-08-23T12:05:09.000Z</time>
			</trkpt>
			<trkpt lat="49.3261812" lon="11.2056787">
				<ele>419.3</ele>
				<time>2026-08-23T12:05:11.000Z</time>
			</trkpt>
			<trkpt lat="49.3256558" lon="11.2057545">
				<ele>420.2</ele>
				<time>2026-08-23T12:05:13.000Z</time>
			</trkpt>
			<trkpt lat="49.3248637" lon="11.2058611">
				<ele>421.9</ele>
				<time>2026-08-23T12:05:16.000Z</time>
			</trkpt>
			<trkpt lat="49.3243517" lon="11.205928">
				<ele>422.2</ele>
				<time>2026-08-23T12:05:18.000Z</time>
			</trkpt>
			<trkpt lat="49.3235849" lon="11.206039">
				<ele>423.8</ele>
				<time>2026-08-23T12:05:21.000Z</time>
			</trkpt>
			<trkpt lat="49.3228204" lon="11.2061422">
				<ele>425.3</ele>
				<time>2026-08-23T12:05:24.000Z</time>
			</trkpt>
			<trkpt lat="49.3223099" lon="11.2062157">
				<ele>425.7</ele>
				<time>2026-08-23T12:05:26.000Z</time>
			</trkpt>
			<trkpt lat="49.3215414" lon="11.2063258">
				<ele>426.7</ele>
				<time>2026-08-23T12:05:29.000Z</time>
			</trkpt>
			<trkpt lat="49.3210278" lon="11.2063922">
				<ele>427.5</ele>
				<time>2026-08-23T12:05:31.000Z</time>
			</trkpt>
			<trkpt lat="49.3202609" lon="11.2064956">
				<ele>428.9</ele>
				<time>2026-08-23T12:05:34.000Z</time>
			</trkpt>
			<trkpt lat="49.3197497" lon="11.2065592">
				<ele>429.6</ele>
				<time>2026-08-23T12:05:36.000Z</time>
			</trkpt>
			<trkpt lat="49.3192495" lon="11.2066329">
				<ele>430.3</ele>
				<time>2026-08-23T12:05:38.000Z</time>
			</trkpt>
			<trkpt lat="49.318492" lon="11.2067361">
				<ele>430.2</ele>
				<time>2026-08-23T12:05:41.000Z</time>
			</trkpt>
			<trkpt lat="49.3177391" lon="11.2068424">
				<ele>430.7</ele>
				<time>2026-08-23T12:05:44.000Z</time>
			</trkpt>
			<trkpt lat="49.3169892" lon="11.2069617">
				<ele>430.8</ele>
				<time>2026-08-23T12:05:47.000Z</time>
			</trkpt>
			<trkpt lat="49.3162534" lon="11.2070702">
				<ele>430.7</ele>
				<time>2026-08-23T12:05:50.000Z</time>
			</trkpt>
			<trkpt lat="49.3155157" lon="11.2071654">
				<ele>430.8</ele>
				<time>2026-08-23T12:05:53.000Z</time>
			</trkpt>
			<trkpt lat="49.3150157" lon="11.2072275">
				<ele>430</ele>
				<time>2026-08-23T12:05:55.000Z</time>
			</trkpt>
			<trkpt lat="49.3142704" lon="11.2073122">
				<ele>428</ele>
				<time>2026-08-23T12:05:58.000Z</time>
			</trkpt>
			<trkpt lat="49.3135002" lon="11.2073622">
				<ele>427.6</ele>
				<time>2026-08-23T12:06:01.000Z</time>
			</trkpt>
			<trkpt lat="49.3129871" lon="11.2073982">
				<ele>427.4</ele>
				<time>2026-08-23T12:06:03.000Z</time>
			</trkpt>
			<trkpt lat="49.3122164" lon="11.2074262">
				<ele>426.8</ele>
				<time>2026-08-23T12:06:06.000Z</time>
			</trkpt>
			<trkpt lat="49.3114572" lon="11.2074809">
				<ele>424.7</ele>
				<time>2026-08-23T12:06:09.000Z</time>
			</trkpt>
			<trkpt lat="49.3106928" lon="11.2075112">
				<ele>425.3</ele>
				<time>2026-08-23T12:06:12.000Z</time>
			</trkpt>
			<trkpt lat="49.3101786" lon="11.2075259">
				<ele>425.6</ele>
				<time>2026-08-23T12:06:14.000Z</time>
			</trkpt>
			<trkpt lat="49.3094083" lon="11.2075623">
				<ele>425.1</ele>
				<time>2026-08-23T12:06:17.000Z</time>
			</trkpt>
			<trkpt lat="49.308634" lon="11.2076001">
				<ele>426.6</ele>
				<time>2026-08-23T12:06:20.000Z</time>
			</trkpt>
			<trkpt lat="49.307863" lon="11.2076435">
				<ele>428.2</ele>
				<time>2026-08-23T12:06:23.000Z</time>
			</trkpt>
			<trkpt lat="49.3071012" lon="11.2076805">
				<ele>428.6</ele>
				<time>2026-08-23T12:06:26.000Z</time>
			</trkpt>
			<trkpt lat="49.3065951" lon="11.2077014">
				<ele>429.7</ele>
				<time>2026-08-23T12:06:28.000Z</time>
			</trkpt>
			<trkpt lat="49.3060848" lon="11.207729">
				<ele>430.8</ele>
				<time>2026-08-23T12:06:30.000Z</time>
			</trkpt>
			<trkpt lat="49.305322" lon="11.207747">
				<ele>432.7</ele>
				<time>2026-08-23T12:06:33.000Z</time>
			</trkpt>
			<trkpt lat="49.3047992" lon="11.2077719">
				<ele>432.3</ele>
				<time>2026-08-23T12:06:35.000Z</time>
			</trkpt>
			<trkpt lat="49.3040174" lon="11.2078094">
				<ele>434.1</ele>
				<time>2026-08-23T12:06:38.000Z</time>
			</trkpt>
			<trkpt lat="49.3032297" lon="11.2078462">
				<ele>435.2</ele>
				<time>2026-08-23T12:06:41.000Z</time>
			</trkpt>
			<trkpt lat="49.3027023" lon="11.2078799">
				<ele>434.7</ele>
				<time>2026-08-23T12:06:43.000Z</time>
			</trkpt>
			<trkpt lat="49.301912" lon="11.2079178">
				<ele>433.7</ele>
				<time>2026-08-23T12:06:46.000Z</time>
			</trkpt>
			<trkpt lat="49.3011196" lon="11.2079595">
				<ele>433.9</ele>
				<time>2026-08-23T12:06:49.000Z</time>
			</trkpt>
			<trkpt lat="49.3005828" lon="11.2079914">
				<ele>433.6</ele>
				<time>2026-08-23T12:06:51.000Z</time>
			</trkpt>
			<trkpt lat="49.2997899" lon="11.2080129">
				<ele>431.8</ele>
				<time>2026-08-23T12:06:54.000Z</time>
			</trkpt>
			<trkpt lat="49.298978" lon="11.2080517">
				<ele>430.1</ele>
				<time>2026-08-23T12:06:57.000Z</time>
			</trkpt>
			<trkpt lat="49.2984324" lon="11.2080834">
				<ele>428.6</ele>
				<time>2026-08-23T12:06:59.000Z</time>
			</trkpt>
			<trkpt lat="49.2976112" lon="11.208114">
				<ele>427.5</ele>
				<time>2026-08-23T12:07:02.000Z</time>
			</trkpt>
			<trkpt lat="49.2967825" lon="11.2081501">
				<ele>426.5</ele>
				<time>2026-08-23T12:07:05.000Z</time>
			</trkpt>
			<trkpt lat="49.2959696" lon="11.208183">
				<ele>426.8</ele>
				<time>2026-08-23T12:07:08.000Z</time>
			</trkpt>
			<trkpt lat="49.2954386" lon="11.208209">
				<ele>426</ele>
				<time>2026-08-23T12:07:10.000Z</time>
			</trkpt>
			<trkpt lat="49.2946415" lon="11.2082413">
				<ele>425.3</ele>
				<time>2026-08-23T12:07:13.000Z</time>
			</trkpt>
			<trkpt lat="49.2938444" lon="11.208294">
				<ele>422.7</ele>
				<time>2026-08-23T12:07:16.000Z</time>
			</trkpt>
			<trkpt lat="49.293314" lon="11.208317">
				<ele>420.6</ele>
				<time>2026-08-23T12:07:18.000Z</time>
			</trkpt>
			<trkpt lat="49.292528" lon="11.2083516">
				<ele>418.9</ele>
				<time>2026-08-23T12:07:21.000Z</time>
			</trkpt>
			<trkpt lat="49.2920132" lon="11.2083749">
				<ele>418.8</ele>
				<time>2026-08-23T12:07:23.000Z</time>
			</trkpt>
			<trkpt lat="49.2915022" lon="11.2083989">
				<ele>419.6</ele>
				<time>2026-08-23T12:07:25.000Z</time>
			</trkpt>
			<trkpt lat="49.2907341" lon="11.2084319">
				<ele>421.3</ele>
				<time>2026-08-23T12:07:28.000Z</time>
			</trkpt>
			<trkpt lat="49.2899633" lon="11.2084636">
				<ele>423.5</ele>
				<time>2026-08-23T12:07:31.000Z</time>
			</trkpt>
			<trkpt lat="49.2894457" lon="11.2084938">
				<ele>424.5</ele>
				<time>2026-08-23T12:07:33.000Z</time>
			</trkpt>
			<trkpt lat="49.2886859" lon="11.208528">
				<ele>425.3</ele>
				<time>2026-08-23T12:07:36.000Z</time>
			</trkpt>
			<trkpt lat="49.2881725" lon="11.2085733">
				<ele>424.7</ele>
				<time>2026-08-23T12:07:38.000Z</time>
			</trkpt>
			<trkpt lat="49.28738" lon="11.20864">
				<ele>425.4</ele>
				<time>2026-08-23T12:07:41.000Z</time>
			</trkpt>
			<trkpt lat="49.2868499" lon="11.2086744">
				<ele>425.8</ele>
				<time>2026-08-23T12:07:43.000Z</time>
			</trkpt>
			<trkpt lat="49.2860872" lon="11.2087225">
				<ele>425.9</ele>
				<time>2026-08-23T12:07:46.000Z</time>
			</trkpt>
			<trkpt lat="49.2853498" lon="11.20877">
				<ele>426.4</ele>
				<time>2026-08-23T12:07:49.000Z</time>
			</trkpt>
			<trkpt lat="49.2848596" lon="11.2087967">
				<ele>427.1</ele>
				<time>2026-08-23T12:07:51.000Z</time>
			</trkpt>
			<trkpt lat="49.2841117" lon="11.2088298">
				<ele>427.5</ele>
				<time>2026-08-23T12:07:54.000Z</time>
			</trkpt>
			<trkpt lat="49.2836112" lon="11.2088657">
				<ele>428.2</ele>
				<time>2026-08-23T12:07:56.000Z</time>
			</trkpt>
			<trkpt lat="49.2828519" lon="11.2089078">
				<ele>430.7</ele>
				<time>2026-08-23T12:07:59.000Z</time>
			</trkpt>
			<trkpt lat="49.2820978" lon="11.2089336">
				<ele>434.1</ele>
				<time>2026-08-23T12:08:02.000Z</time>
			</trkpt>
			<trkpt lat="49.2815974" lon="11.2089562">
				<ele>434.8</ele>
				<time>2026-08-23T12:08:04.000Z</time>
			</trkpt>
			<trkpt lat="49.2808551" lon="11.2089927">
				<ele>436.6</ele>
				<time>2026-08-23T12:08:07.000Z</time>
			</trkpt>
			<trkpt lat="49.2803686" lon="11.2090379">
				<ele>438</ele>
				<time>2026-08-23T12:08:09.000Z</time>
			</trkpt>
			<trkpt lat="49.2796484" lon="11.2091377">
				<ele>438.9</ele>
				<time>2026-08-23T12:08:12.000Z</time>
			</trkpt>
			<trkpt lat="49.2791863" lon="11.2092278">
				<ele>439.1</ele>
				<time>2026-08-23T12:08:14.000Z</time>
			</trkpt>
			<trkpt lat="49.2784843" lon="11.2093466">
				<ele>439.8</ele>
				<time>2026-08-23T12:08:17.000Z</time>
			</trkpt>
			<trkpt lat="49.2777676" lon="11.2094774">
				<ele>439</ele>
				<time>2026-08-23T12:08:20.000Z</time>
			</trkpt>
			<trkpt lat="49.2772918" lon="11.2095946">
				<ele>437.9</ele>
				<time>2026-08-23T12:08:22.000Z</time>
			</trkpt>
			<trkpt lat="49.2765597" lon="11.209785">
				<ele>435.5</ele>
				<time>2026-08-23T12:08:25.000Z</time>
			</trkpt>
			<trkpt lat="49.2758224" lon="11.2099716">
				<ele>433.5</ele>
				<time>2026-08-23T12:08:28.000Z</time>
			</trkpt>
			<trkpt lat="49.275328" lon="11.210086">
				<ele>431.6</ele>
				<time>2026-08-23T12:08:30.000Z</time>
			</trkpt>
			<trkpt lat="49.2745866" lon="11.2102541">
				<ele>428.9</ele>
				<time>2026-08-23T12:08:33.000Z</time>
			</trkpt>
			<trkpt lat="49.2738296" lon="11.2104448">
				<ele>427.7</ele>
				<time>2026-08-23T12:08:36.000Z</time>
			</trkpt>
			<trkpt lat="49.2730591" lon="11.2106134">
				<ele>428.3</ele>
				<time>2026-08-23T12:08:39.000Z</time>
			</trkpt>
			<trkpt lat="49.2722895" lon="11.2108011">
				<ele>429.1</ele>
				<time>2026-08-23T12:08:42.000Z</time>
			</trkpt>
			<trkpt lat="49.2715239" lon="11.2109824">
				<ele>432.2</ele>
				<time>2026-08-23T12:08:45.000Z</time>
			</trkpt>
			<trkpt lat="49.2710156" lon="11.211098">
				<ele>434.2</ele>
				<time>2026-08-23T12:08:47.000Z</time>
			</trkpt>
			<trkpt lat="49.2702783" lon="11.2112699">
				<ele>436.8</ele>
				<time>2026-08-23T12:08:50.000Z</time>
			</trkpt>
			<trkpt lat="49.2697889" lon="11.2113768">
				<ele>438.1</ele>
				<time>2026-08-23T12:08:52.000Z</time>
			</trkpt>
			<trkpt lat="49.2690591" lon="11.2115562">
				<ele>439.7</ele>
				<time>2026-08-23T12:08:55.000Z</time>
			</trkpt>
			<trkpt lat="49.2685668" lon="11.2116765">
				<ele>440.4</ele>
				<time>2026-08-23T12:08:57.000Z</time>
			</trkpt>
			<trkpt lat="49.2680718" lon="11.2117953">
				<ele>441.4</ele>
				<time>2026-08-23T12:08:59.000Z</time>
			</trkpt>
			<trkpt lat="49.2673213" lon="11.2119756">
				<ele>441.1</ele>
				<time>2026-08-23T12:09:02.000Z</time>
			</trkpt>
			<trkpt lat="49.266823" lon="11.2120891">
				<ele>440.7</ele>
				<time>2026-08-23T12:09:04.000Z</time>
			</trkpt>
			<trkpt lat="49.2660754" lon="11.212257">
				<ele>440.7</ele>
				<time>2026-08-23T12:09:07.000Z</time>
			</trkpt>
			<trkpt lat="49.2653465" lon="11.212427">
				<ele>439.9</ele>
				<time>2026-08-23T12:09:10.000Z</time>
			</trkpt>
			<trkpt lat="49.2648616" lon="11.2125384">
				<ele>440.4</ele>
				<time>2026-08-23T12:09:12.000Z</time>
			</trkpt>
			<trkpt lat="49.2643837" lon="11.2126521">
				<ele>439.8</ele>
				<time>2026-08-23T12:09:14.000Z</time>
			</trkpt>
			<trkpt lat="49.2636758" lon="11.2128234">
				<ele>439.5</ele>
				<time>2026-08-23T12:09:17.000Z</time>
			</trkpt>
			<trkpt lat="49.2632" lon="11.2129296">
				<ele>440</ele>
				<time>2026-08-23T12:09:19.000Z</time>
			</trkpt>
			<trkpt lat="49.2624898" lon="11.213105">
				<ele>440.4</ele>
				<time>2026-08-23T12:09:22.000Z</time>
			</trkpt>
			<trkpt lat="49.2620253" lon="11.2131964">
				<ele>441.6</ele>
				<time>2026-08-23T12:09:24.000Z</time>
			</trkpt>
			<trkpt lat="49.2613454" lon="11.2133432">
				<ele>441.7</ele>
				<time>2026-08-23T12:09:27.000Z</time>
			</trkpt>
			<trkpt lat="49.2608975" lon="11.2134453">
				<ele>442.1</ele>
				<time>2026-08-23T12:09:29.000Z</time>
			</trkpt>
			<trkpt lat="49.2604659" lon="11.2135376">
				<ele>442.6</ele>
				<time>2026-08-23T12:09:31.000Z</time>
			</trkpt>
			<trkpt lat="49.2598399" lon="11.2137022">
				<ele>442.8</ele>
				<time>2026-08-23T12:09:34.000Z</time>
			</trkpt>
			<trkpt lat="49.2592011" lon="11.2138475">
				<ele>443.4</ele>
				<time>2026-08-23T12:09:37.000Z</time>
			</trkpt>
			<trkpt lat="49.2587623" lon="11.2139575">
				<ele>443.3</ele>
				<time>2026-08-23T12:09:39.000Z</time>
			</trkpt>
			<trkpt lat="49.2580912" lon="11.2141116">
				<ele>442.5</ele>
				<time>2026-08-23T12:09:42.000Z</time>
			</trkpt>
			<trkpt lat="49.2574067" lon="11.2142817">
				<ele>440.8</ele>
				<time>2026-08-23T12:09:45.000Z</time>
			</trkpt>
			<trkpt lat="49.2567171" lon="11.2144474">
				<ele>440.7</ele>
				<time>2026-08-23T12:09:48.000Z</time>
			</trkpt>
			<trkpt lat="49.2560443" lon="11.2146002">
				<ele>442.5</ele>
				<time>2026-08-23T12:09:51.000Z</time>
			</trkpt>
			<trkpt lat="49.2553922" lon="11.2147425">
				<ele>444.1</ele>
				<time>2026-08-23T12:09:54.000Z</time>
			</trkpt>
			<trkpt lat="49.2547755" lon="11.2148727">
				<ele>445.8</ele>
				<time>2026-08-23T12:09:57.000Z</time>
			</trkpt>
			<trkpt lat="49.2541924" lon="11.2149908">
				<ele>446.8</ele>
				<time>2026-08-23T12:10:00.000Z</time>
			</trkpt>
			<trkpt lat="49.2538101" lon="11.2150683">
				<ele>448.1</ele>
				<time>2026-08-23T12:10:02.000Z</time>
			</trkpt>
			<trkpt lat="49.2532824" lon="11.2151865">
				<ele>448.4</ele>
				<time>2026-08-23T12:10:05.000Z</time>
			</trkpt>
			<trkpt lat="49.252978" lon="11.2152622">
				<ele>448.7</ele>
				<time>2026-08-23T12:10:07.000Z</time>
			</trkpt>
			<trkpt lat="49.2527069" lon="11.2152973">
				<ele>448</ele>
				<time>2026-08-23T12:10:09.000Z</time>
			</trkpt>
			<trkpt lat="49.2523098" lon="11.2152023">
				<ele>446.7</ele>
				<time>2026-08-23T12:10:12.000Z</time>
			</trkpt>
			<trkpt lat="49.2519753" lon="11.2149499">
				<ele>447.3</ele>
				<time>2026-08-23T12:10:15.000Z</time>
			</trkpt>
			<trkpt lat="49.2518103" lon="11.2147082">
				<ele>447.9</ele>
				<time>2026-08-23T12:10:17.000Z</time>
			</trkpt>
			<trkpt lat="49.2516882" lon="11.2144082">
				<ele>448.7</ele>
				<time>2026-08-23T12:10:19.000Z</time>
			</trkpt>
			<trkpt lat="49.2515809" lon="11.2138924">
				<ele>449.2</ele>
				<time>2026-08-23T12:10:22.000Z</time>
			</trkpt>
			<trkpt lat="49.2515384" lon="11.2134544">
				<ele>448.9</ele>
				<time>2026-08-23T12:10:25.000Z</time>
			</trkpt>
			<trkpt lat="49.2515394" lon="11.2131067">
				<ele>449.8</ele>
				<time>2026-08-23T12:10:28.000Z</time>
			</trkpt>
			<trkpt lat="49.2516503" lon="11.2129043">
				<ele>450</ele>
				<time>2026-08-23T12:10:31.000Z</time>
			</trkpt>
			<trkpt lat="49.2518548" lon="11.2129066">
				<ele>449.3</ele>
				<time>2026-08-23T12:10:34.000Z</time>
			</trkpt>
			<trkpt lat="49.2521306" lon="11.2130918">
				<ele>450.4</ele>
				<time>2026-08-23T12:10:37.000Z</time>
			</trkpt>
			<trkpt lat="49.2523478" lon="11.2132437">
				<ele>451.2</ele>
				<time>2026-08-23T12:10:39.000Z</time>
			</trkpt>
			<trkpt lat="49.2527056" lon="11.2134609">
				<ele>451.3</ele>
				<time>2026-08-23T12:10:42.000Z</time>
			</trkpt>
			<trkpt lat="49.2531202" lon="11.2136205">
				<ele>450.4</ele>
				<time>2026-08-23T12:10:45.000Z</time>
			</trkpt>
			<trkpt lat="49.253597" lon="11.2137052">
				<ele>450.3</ele>
				<time>2026-08-23T12:10:48.000Z</time>
			</trkpt>
			<trkpt lat="49.2539444" lon="11.2137082">
				<ele>448.8</ele>
				<time>2026-08-23T12:10:50.000Z</time>
			</trkpt>
			<trkpt lat="49.2544815" lon="11.2136569">
				<ele>447.6</ele>
				<time>2026-08-23T12:10:53.000Z</time>
			</trkpt>
			<trkpt lat="49.2549957" lon="11.2135713">
				<ele>440.6</ele>
				<time>2026-08-23T12:10:56.000Z</time>
			</trkpt>
			<trkpt lat="49.2553362" lon="11.2135106">
				<ele>434.6</ele>
				<time>2026-08-23T12:10:58.000Z</time>
			</trkpt>
			<trkpt lat="49.2558816" lon="11.2134411">
				<ele>432.9</ele>
				<time>2026-08-23T12:11:01.000Z</time>
			</trkpt>
			<trkpt lat="49.2562326" lon="11.213395">
				<ele>431.4</ele>
				<time>2026-08-23T12:11:03.000Z</time>
			</trkpt>
			<trkpt lat="49.2567441" lon="11.2133286">
				<ele>431.1</ele>
				<time>2026-08-23T12:11:06.000Z</time>
			</trkpt>
			<trkpt lat="49.2572132" lon="11.2132592">
				<ele>431.3</ele>
				<time>2026-08-23T12:11:09.000Z</time>
			</trkpt>
			<trkpt lat="49.2575298" lon="11.2132076">
				<ele>432.7</ele>
				<time>2026-08-23T12:11:11.000Z</time>
			</trkpt>
			<trkpt lat="49.2580133" lon="11.2130856">
				<ele>436.9</ele>
				<time>2026-08-23T12:11:14.000Z</time>
			</trkpt>
			<trkpt lat="49.258315" lon="11.212963">
				<ele>437.6</ele>
				<time>2026-08-23T12:11:16.000Z</time>
			</trkpt>
			<trkpt lat="49.2587123" lon="11.2127433">
				<ele>437.9</ele>
				<time>2026-08-23T12:11:19.000Z</time>
			</trkpt>
			<trkpt lat="49.2590561" lon="11.2125066">
				<ele>437.1</ele>
				<time>2026-08-23T12:11:22.000Z</time>
			</trkpt>
			<trkpt lat="49.2593868" lon="11.2121651">
				<ele>436.6</ele>
				<time>2026-08-23T12:11:25.000Z</time>
			</trkpt>
			<trkpt lat="49.2597248" lon="11.2117526">
				<ele>435.8</ele>
				<time>2026-08-23T12:11:28.000Z</time>
			</trkpt>
			<trkpt lat="49.2600212" lon="11.211269">
				<ele>435.3</ele>
				<time>2026-08-23T12:11:31.000Z</time>
			</trkpt>
			<trkpt lat="49.2602613" lon="11.2109827">
				<ele>434.8</ele>
				<time>2026-08-23T12:11:33.000Z</time>
			</trkpt>
			<trkpt lat="49.2606461" lon="11.2106593">
				<ele>433</ele>
				<time>2026-08-23T12:11:36.000Z</time>
			</trkpt>
			<trkpt lat="49.261058" lon="11.2105024">
				<ele>431.9</ele>
				<time>2026-08-23T12:11:39.000Z</time>
			</trkpt>
			<trkpt lat="49.2613338" lon="11.2104964">
				<ele>431.9</ele>
				<time>2026-08-23T12:11:41.000Z</time>
			</trkpt>
			<trkpt lat="49.2617296" lon="11.210587">
				<ele>432.8</ele>
				<time>2026-08-23T12:11:44.000Z</time>
			</trkpt>
			<trkpt lat="49.261971" lon="11.2106594">
				<ele>432.6</ele>
				<time>2026-08-23T12:11:46.000Z</time>
			</trkpt>
			<trkpt lat="49.2622775" lon="11.2107625">
				<ele>433.6</ele>
				<time>2026-08-23T12:11:49.000Z</time>
			</trkpt>
			<trkpt lat="49.2624122" lon="11.210798">
				<ele>435.2</ele>
				<time>2026-08-23T12:11:51.000Z</time>
			</trkpt>
			<trkpt lat="49.2625195" lon="11.2109388">
				<ele>435.5</ele>
				<time>2026-08-23T12:11:54.000Z</time>
			</trkpt>
			<trkpt lat="49.2625765" lon="11.211221">
				<ele>437.3</ele>
				<time>2026-08-23T12:11:57.000Z</time>
			</trkpt>
			<trkpt lat="49.2626047" lon="11.2114888">
				<ele>437.5</ele>
				<time>2026-08-23T12:11:59.000Z</time>
			</trkpt>
			<trkpt lat="49.2626523" lon="11.2119204">
				<ele>437.7</ele>
				<time>2026-08-23T12:12:02.000Z</time>
			</trkpt>
			<trkpt lat="49.2626935" lon="11.2122203">
				<ele>437.6</ele>
				<time>2026-08-23T12:12:04.000Z</time>
			</trkpt>
			<trkpt lat="49.2627511" lon="11.2126716">
				<ele>438</ele>
				<time>2026-08-23T12:12:07.000Z</time>
			</trkpt>
			<trkpt lat="49.2627862" lon="11.2129739">
				<ele>439.4</ele>
				<time>2026-08-23T12:12:09.000Z</time>
			</trkpt>
			<trkpt lat="49.2628336" lon="11.2134164">
				<ele>439.8</ele>
				<time>2026-08-23T12:12:12.000Z</time>
			</trkpt>
			<trkpt lat="49.2628724" lon="11.213867">
				<ele>439.6</ele>
				<time>2026-08-23T12:12:15.000Z</time>
			</trkpt>
			<trkpt lat="49.2628863" lon="11.214148">
				<ele>439.7</ele>
				<time>2026-08-23T12:12:17.000Z</time>
			</trkpt>
			<trkpt lat="49.2629085" lon="11.214359">
				<ele>440.3</ele>
				<time>2026-08-23T12:12:19.000Z</time>
			</trkpt>
			<trkpt lat="49.2629378" lon="11.2147193">
				<ele>440.6</ele>
				<time>2026-08-23T12:12:22.000Z</time>
			</trkpt>
			<trkpt lat="49.2629745" lon="11.215077">
				<ele>442</ele>
				<time>2026-08-23T12:12:25.000Z</time>
			</trkpt>
			<trkpt lat="49.2630092" lon="11.2154463">
				<ele>444.3</ele>
				<time>2026-08-23T12:12:28.000Z</time>
			</trkpt>
			<trkpt lat="49.2630365" lon="11.215742">
				<ele>444.1</ele>
				<time>2026-08-23T12:12:31.000Z</time>
			</trkpt>
			<trkpt lat="49.2630674" lon="11.2159142">
				<ele>443.7</ele>
				<time>2026-08-23T12:12:33.000Z</time>
			</trkpt>
			<trkpt lat="49.2631108" lon="11.2161718">
				<ele>443.4</ele>
				<time>2026-08-23T12:12:36.000Z</time>
			</trkpt>
			<trkpt lat="49.2631487" lon="11.2165473">
				<ele>444.1</ele>
				<time>2026-08-23T12:12:39.000Z</time>
			</trkpt>
			<trkpt lat="49.2631549" lon="11.216969">
				<ele>445.4</ele>
				<time>2026-08-23T12:12:42.000Z</time>
			</trkpt>
			<trkpt lat="49.2631394" lon="11.2172683">
				<ele>445.2</ele>
				<time>2026-08-23T12:12:44.000Z</time>
			</trkpt>
			<trkpt lat="49.2630972" lon="11.2177198">
				<ele>445</ele>
				<time>2026-08-23T12:12:47.000Z</time>
			</trkpt>
			<trkpt lat="49.2630656" lon="11.2180359">
				<ele>445.2</ele>
				<time>2026-08-23T12:12:49.000Z</time>
			</trkpt>
			<trkpt lat="49.2629854" lon="11.2184719">
				<ele>444.9</ele>
				<time>2026-08-23T12:12:52.000Z</time>
			</trkpt>
			<trkpt lat="49.2629243" lon="11.2186556">
				<ele>445.2</ele>
				<time>2026-08-23T12:12:54.000Z</time>
			</trkpt>
			<trkpt lat="49.2628659" lon="11.2187967">
				<ele>445.2</ele>
				<time>2026-08-23T12:12:56.000Z</time>
			</trkpt>
			<trkpt lat="49.262825" lon="11.219011">
				<ele>444.8</ele>
				<time>2026-08-23T12:12:59.000Z</time>
			</trkpt>
			<trkpt lat="49.2627839" lon="11.2191849">
				<ele>443.6</ele>
				<time>2026-08-23T12:13:01.000Z</time>
			</trkpt>
			<trkpt lat="49.2626636" lon="11.2195685">
				<ele>443.6</ele>
				<time>2026-08-23T12:13:04.000Z</time>
			</trkpt>
			<trkpt lat="49.262558" lon="11.2199103">
				<ele>445.4</ele>
				<time>2026-08-23T12:13:06.000Z</time>
			</trkpt>
			<trkpt lat="49.2623969" lon="11.2204744">
				<ele>447.9</ele>
				<time>2026-08-23T12:13:09.000Z</time>
			</trkpt>
			<trkpt lat="49.2622959" lon="11.2208973">
				<ele>448.6</ele>
				<time>2026-08-23T12:13:11.000Z</time>
			</trkpt>
			<trkpt lat="49.2621844" lon="11.2213518">
				<ele>449</ele>
				<time>2026-08-23T12:13:13.000Z</time>
			</trkpt>
			<trkpt lat="49.2619611" lon="11.2219922">
				<ele>448.2</ele>
				<time>2026-08-23T12:13:16.000Z</time>
			</trkpt>
			<trkpt lat="49.2616929" lon="11.2225772">
				<ele>448.8</ele>
				<time>2026-08-23T12:13:19.000Z</time>
			</trkpt>
			<trkpt lat="49.2614938" lon="11.2229136">
				<ele>449.3</ele>
				<time>2026-08-23T12:13:21.000Z</time>
			</trkpt>
			<trkpt lat="49.2611537" lon="11.2233628">
				<ele>449.7</ele>
				<time>2026-08-23T12:13:24.000Z</time>
			</trkpt>
			<trkpt lat="49.2607786" lon="11.2237622">
				<ele>448.5</ele>
				<time>2026-08-23T12:13:27.000Z</time>
			</trkpt>
			<trkpt lat="49.2604186" lon="11.2241459">
				<ele>448.1</ele>
				<time>2026-08-23T12:13:30.000Z</time>
			</trkpt>
			<trkpt lat="49.2600907" lon="11.2244691">
				<ele>446.8</ele>
				<time>2026-08-23T12:13:33.000Z</time>
			</trkpt>
			<trkpt lat="49.259889" lon="11.2246912">
				<ele>446.1</ele>
				<time>2026-08-23T12:13:35.000Z</time>
			</trkpt>
			<trkpt lat="49.2596364" lon="11.225072">
				<ele>445</ele>
				<time>2026-08-23T12:13:38.000Z</time>
			</trkpt>
			<trkpt lat="49.2594948" lon="11.2253668">
				<ele>444.5</ele>
				<time>2026-08-23T12:13:40.000Z</time>
			</trkpt>
			<trkpt lat="49.2593798" lon="11.2257025">
				<ele>443.6</ele>
				<time>2026-08-23T12:13:42.000Z</time>
			</trkpt>
			<trkpt lat="49.2592272" lon="11.2262674">
				<ele>442.8</ele>
				<time>2026-08-23T12:13:45.000Z</time>
			</trkpt>
			<trkpt lat="49.2591083" lon="11.2267143">
				<ele>442.9</ele>
				<time>2026-08-23T12:13:48.000Z</time>
			</trkpt>
			<trkpt lat="49.259009" lon="11.2271041">
				<ele>442.3</ele>
				<time>2026-08-23T12:13:51.000Z</time>
			</trkpt>
			<trkpt lat="49.2589137" lon="11.2274668">
				<ele>441.7</ele>
				<time>2026-08-23T12:13:54.000Z</time>
			</trkpt>
			<trkpt lat="49.2588194" lon="11.2278296">
				<ele>441.4</ele>
				<time>2026-08-23T12:13:57.000Z</time>
			</trkpt>
			<trkpt lat="49.2587583" lon="11.2280604">
				<ele>441.5</ele>
				<time>2026-08-23T12:13:59.000Z</time>
			</trkpt>
			<trkpt lat="49.258672" lon="11.2282903">
				<ele>441.2</ele>
				<time>2026-08-23T12:14:01.000Z</time>
			</trkpt>
			<trkpt lat="49.258508" lon="11.2286374">
				<ele>441.3</ele>
				<time>2026-08-23T12:14:04.000Z</time>
			</trkpt>
			<trkpt lat="49.2583066" lon="11.2289597">
				<ele>441.5</ele>
				<time>2026-08-23T12:14:07.000Z</time>
			</trkpt>
			<trkpt lat="49.2580773" lon="11.2292116">
				<ele>441</ele>
				<time>2026-08-23T12:14:10.000Z</time>
			</trkpt>
			<trkpt lat="49.2578175" lon="11.2294122">
				<ele>441.1</ele>
				<time>2026-08-23T12:14:13.000Z</time>
			</trkpt>
			<trkpt lat="49.2576405" lon="11.2295168">
				<ele>440.8</ele>
				<time>2026-08-23T12:14:15.000Z</time>
			</trkpt>
			<trkpt lat="49.2573665" lon="11.2296646">
				<ele>440.5</ele>
				<time>2026-08-23T12:14:18.000Z</time>
			</trkpt>
			<trkpt lat="49.2571814" lon="11.2297589">
				<ele>440.3</ele>
				<time>2026-08-23T12:14:20.000Z</time>
			</trkpt>
			<trkpt lat="49.2569674" lon="11.2298678">
				<ele>439.6</ele>
				<time>2026-08-23T12:14:23.000Z</time>
			</trkpt>
			<trkpt lat="49.2567386" lon="11.2300196">
				<ele>439</ele>
				<time>2026-08-23T12:14:26.000Z</time>
			</trkpt>
			<trkpt lat="49.2564679" lon="11.2302363">
				<ele>438.3</ele>
				<time>2026-08-23T12:14:29.000Z</time>
			</trkpt>
			<trkpt lat="49.2562892" lon="11.2303973">
				<ele>438.2</ele>
				<time>2026-08-23T12:14:31.000Z</time>
			</trkpt>
			<trkpt lat="49.256115" lon="11.2305624">
				<ele>437.7</ele>
				<time>2026-08-23T12:14:33.000Z</time>
			</trkpt>
			<trkpt lat="49.2558528" lon="11.2308132">
				<ele>436.8</ele>
				<time>2026-08-23T12:14:36.000Z</time>
			</trkpt>
			<trkpt lat="49.2556119" lon="11.2310385">
				<ele>435.7</ele>
				<time>2026-08-23T12:14:39.000Z</time>
			</trkpt>
			<trkpt lat="49.2553896" lon="11.2312278">
				<ele>435.1</ele>
				<time>2026-08-23T12:14:42.000Z</time>
			</trkpt>
			<trkpt lat="49.2552327" lon="11.2314481">
				<ele>433.5</ele>
				<time>2026-08-23T12:14:45.000Z</time>
			</trkpt>
			<trkpt lat="49.2551756" lon="11.2316977">
				<ele>433.5</ele>
				<time>2026-08-23T12:14:48.000Z</time>
			</trkpt>
			<trkpt lat="49.2552117" lon="11.2318417">
				<ele>434.2</ele>
				<time>2026-08-23T12:14:52.000Z</time>
			</trkpt>
			<trkpt lat="49.2553545" lon="11.2318542">
				<ele>435.8</ele>
				<time>2026-08-23T12:14:55.000Z</time>
			</trkpt>
			<trkpt lat="49.2555024" lon="11.2318114">
				<ele>435.6</ele>
				<time>2026-08-23T12:14:58.000Z</time>
			</trkpt>
			<trkpt lat="49.2555981" lon="11.2318168">
				<ele>435.7</ele>
				<time>2026-08-23T12:15:02.000Z</time>
			</trkpt>
			<trkpt lat="49.2557126" lon="11.2317661">
				<ele>437</ele>
				<time>2026-08-23T12:15:14.000Z</time>
			</trkpt>
			<trkpt lat="49.2558031" lon="11.2317344">
				<ele>437.7</ele>
				<time>2026-08-23T12:15:17.000Z</time>
			</trkpt>
			<trkpt lat="49.2558924" lon="11.2317924">
				<ele>438.5</ele>
				<time>2026-08-23T12:15:20.000Z</time>
			</trkpt>
			<trkpt lat="49.2559168" lon="11.231994">
				<ele>438.5</ele>
				<time>2026-08-23T12:15:23.000Z</time>
			</trkpt>
			<trkpt lat="49.2559047" lon="11.2321604">
				<ele>438.1</ele>
				<time>2026-08-23T12:15:25.000Z</time>
			</trkpt>
			<trkpt lat="49.2558405" lon="11.2324286">
				<ele>436.9</ele>
				<time>2026-08-23T12:15:28.000Z</time>
			</trkpt>
			<trkpt lat="49.2557903" lon="11.2326078">
				<ele>436.3</ele>
				<time>2026-08-23T12:15:30.000Z</time>
			</trkpt>
			<trkpt lat="49.2557117" lon="11.2328828">
				<ele>436.7</ele>
				<time>2026-08-23T12:15:33.000Z</time>
			</trkpt>
			<trkpt lat="49.2556642" lon="11.2331488">
				<ele>437.2</ele>
				<time>2026-08-23T12:15:36.000Z</time>
			</trkpt>
			<trkpt lat="49.2556773" lon="11.2334243">
				<ele>437.1</ele>
				<time>2026-08-23T12:15:39.000Z</time>
			</trkpt>
			<trkpt lat="49.2557124" lon="11.23361">
				<ele>436.2</ele>
				<time>2026-08-23T12:15:41.000Z</time>
			</trkpt>
			<trkpt lat="49.255807" lon="11.2338709">
				<ele>436.4</ele>
				<time>2026-08-23T12:15:44.000Z</time>
			</trkpt>
			<trkpt lat="49.2559136" lon="11.2340907">
				<ele>436.9</ele>
				<time>2026-08-23T12:15:47.000Z</time>
			</trkpt>
			<trkpt lat="49.2559692" lon="11.2342349">
				<ele>436.6</ele>
				<time>2026-08-23T12:15:50.000Z</time>
			</trkpt>
			<trkpt lat="49.2560284" lon="11.2343576">
				<ele>436.8</ele>
				<time>2026-08-23T12:15:53.000Z</time>
			</trkpt>
			<trkpt lat="49.2561081" lon="11.2345074">
				<ele>436.4</ele>
				<time>2026-08-23T12:15:56.000Z</time>
			</trkpt>
			<trkpt lat="49.2561943" lon="11.2346608">
				<ele>436.4</ele>
				<time>2026-08-23T12:15:59.000Z</time>
			</trkpt>
			<trkpt lat="49.2562749" lon="11.2348197">
				<ele>436.4</ele>
				<time>2026-08-23T12:16:02.000Z</time>
			</trkpt>
			<trkpt lat="49.2563048" lon="11.2349598">
				<ele>436.5</ele>
				<time>2026-08-23T12:16:06.000Z</time>
			</trkpt>
			<trkpt lat="49.2563066" lon="11.2351176">
				<ele>437.8</ele>
				<time>2026-08-23T12:16:10.000Z</time>
			</trkpt>
			<trkpt lat="49.2563387" lon="11.2352639">
				<ele>437.4</ele>
				<time>2026-08-23T12:16:14.000Z</time>
			</trkpt>
			<trkpt lat="49.2564376" lon="11.2351827">
				<ele>435.8</ele>
				<time>2026-08-23T12:16:19.000Z</time>
			</trkpt>
			<trkpt lat="49.2563762" lon="11.234974">
				<ele>434.8</ele>
				<time>2026-08-23T12:16:22.000Z</time>
			</trkpt>
			<trkpt lat="49.2563215" lon="11.2348645">
				<ele>434.9</ele>
				<time>2026-08-23T12:16:24.000Z</time>
			</trkpt>
			<trkpt lat="49.2562406" lon="11.2346933">
				<ele>433.8</ele>
				<time>2026-08-23T12:16:27.000Z</time>
			</trkpt>
			<trkpt lat="49.2561662" lon="11.2345523">
				<ele>433</ele>
				<time>2026-08-23T12:16:30.000Z</time>
			</trkpt>
			<trkpt lat="49.2561148" lon="11.2344355">
				<ele>432.4</ele>
				<time>2026-08-23T12:16:34.000Z</time>
			</trkpt>
			<trkpt lat="49.2560621" lon="11.234321">
				<ele>432.5</ele>
				<time>2026-08-23T12:16:40.000Z</time>
			</trkpt>
			<trkpt lat="49.255978" lon="11.2341462">
				<ele>432.2</ele>
				<time>2026-08-23T12:16:43.000Z</time>
			</trkpt>
			<trkpt lat="49.2558926" lon="11.2339937">
				<ele>432.4</ele>
				<time>2026-08-23T12:16:45.000Z</time>
			</trkpt>
			<trkpt lat="49.2557646" lon="11.2337314">
				<ele>431.7</ele>
				<time>2026-08-23T12:16:48.000Z</time>
			</trkpt>
			<trkpt lat="49.255708" lon="11.2335489">
				<ele>432.5</ele>
				<time>2026-08-23T12:16:50.000Z</time>
			</trkpt>
			<trkpt lat="49.2556738" lon="11.2332631">
				<ele>432.9</ele>
				<time>2026-08-23T12:16:53.000Z</time>
			</trkpt>
			<trkpt lat="49.2556935" lon="11.2330519">
				<ele>433.3</ele>
				<time>2026-08-23T12:16:55.000Z</time>
			</trkpt>
			<trkpt lat="49.2557712" lon="11.2327625">
				<ele>435.3</ele>
				<time>2026-08-23T12:16:58.000Z</time>
			</trkpt>
			<trkpt lat="49.2558515" lon="11.2324847">
				<ele>435.8</ele>
				<time>2026-08-23T12:17:01.000Z</time>
			</trkpt>
			<trkpt lat="49.2559033" lon="11.2321923">
				<ele>435.7</ele>
				<time>2026-08-23T12:17:04.000Z</time>
			</trkpt>
			<trkpt lat="49.2559023" lon="11.2319113">
				<ele>437.4</ele>
				<time>2026-08-23T12:17:07.000Z</time>
			</trkpt>
			<trkpt lat="49.2558778" lon="11.2317657">
				<ele>437.7</ele>
				<time>2026-08-23T12:17:11.000Z</time>
			</trkpt>
			<trkpt lat="49.2558035" lon="11.2316787">
				<ele>438</ele>
				<time>2026-08-23T12:17:14.000Z</time>
			</trkpt>
			<trkpt lat="49.2556354" lon="11.2317052">
				<ele>437.1</ele>
				<time>2026-08-23T12:17:17.000Z</time>
			</trkpt>
			<trkpt lat="49.2554299" lon="11.231745">
				<ele>437.9</ele>
				<time>2026-08-23T12:17:20.000Z</time>
			</trkpt>
			<trkpt lat="49.2551773" lon="11.2317989">
				<ele>437.3</ele>
				<time>2026-08-23T12:17:23.000Z</time>
			</trkpt>
			<trkpt lat="49.254891" lon="11.2318751">
				<ele>436.8</ele>
				<time>2026-08-23T12:17:26.000Z</time>
			</trkpt>
			<trkpt lat="49.254704" lon="11.2319155">
				<ele>436.4</ele>
				<time>2026-08-23T12:17:28.000Z</time>
			</trkpt>
			<trkpt lat="49.2544339" lon="11.2319774">
				<ele>436.7</ele>
				<time>2026-08-23T12:17:31.000Z</time>
			</trkpt>
			<trkpt lat="49.2542563" lon="11.2320219">
				<ele>436.7</ele>
				<time>2026-08-23T12:17:33.000Z</time>
			</trkpt>
			<trkpt lat="49.2540015" lon="11.2320652">
				<ele>435.6</ele>
				<time>2026-08-23T12:17:36.000Z</time>
			</trkpt>
			<trkpt lat="49.2538234" lon="11.2321008">
				<ele>435.2</ele>
				<time>2026-08-23T12:17:38.000Z</time>
			</trkpt>
			<trkpt lat="49.2535543" lon="11.2321456">
				<ele>434.9</ele>
				<time>2026-08-23T12:17:41.000Z</time>
			</trkpt>
			<trkpt lat="49.2533807" lon="11.2321746">
				<ele>434.7</ele>
				<time>2026-08-23T12:17:43.000Z</time>
			</trkpt>
			<trkpt lat="49.2531334" lon="11.2322319">
				<ele>434.4</ele>
				<time>2026-08-23T12:17:46.000Z</time>
			</trkpt>
			<trkpt lat="49.2528944" lon="11.2322929">
				<ele>433.4</ele>
				<time>2026-08-23T12:17:49.000Z</time>
			</trkpt>
			<trkpt lat="49.2527424" lon="11.2323406">
				<ele>433.2</ele>
				<time>2026-08-23T12:17:51.000Z</time>
			</trkpt>
			<trkpt lat="49.252507" lon="11.2323944">
				<ele>433.8</ele>
				<time>2026-08-23T12:17:54.000Z</time>
			</trkpt>
			<trkpt lat="49.2522823" lon="11.2324217">
				<ele>431.6</ele>
				<time>2026-08-23T12:17:57.000Z</time>
			</trkpt>
			<trkpt lat="49.2521286" lon="11.2324111">
				<ele>430.6</ele>
				<time>2026-08-23T12:17:59.000Z</time>
			</trkpt>
			<trkpt lat="49.2519008" lon="11.2324126">
				<ele>429.9</ele>
				<time>2026-08-23T12:18:02.000Z</time>
			</trkpt>
			<trkpt lat="49.2516878" lon="11.2324512">
				<ele>429.4</ele>
				<time>2026-08-23T12:18:05.000Z</time>
			</trkpt>
			<trkpt lat="49.2515692" lon="11.2325126">
				<ele>429.3</ele>
				<time>2026-08-23T12:18:07.000Z</time>
			</trkpt>
			<trkpt lat="49.2514555" lon="11.232532">
				<ele>429.5</ele>
				<time>2026-08-23T12:18:10.000Z</time>
			</trkpt>
			<trkpt lat="49.2513647" lon="11.232463">
				<ele>429.5</ele>
				<time>2026-08-23T12:18:13.000Z</time>
			</trkpt>
			<trkpt lat="49.25135" lon="11.2322815">
				<ele>429.9</ele>
				<time>2026-08-23T12:18:16.000Z</time>
			</trkpt>
			<trkpt lat="49.2513678" lon="11.2319886">
				<ele>430.8</ele>
				<time>2026-08-23T12:18:19.000Z</time>
			</trkpt>
			<trkpt lat="49.2513719" lon="11.2316547">
				<ele>429.9</ele>
				<time>2026-08-23T12:18:22.000Z</time>
			</trkpt>
			<trkpt lat="49.2513643" lon="11.2314053">
				<ele>429.4</ele>
				<time>2026-08-23T12:18:24.000Z</time>
			</trkpt>
			<trkpt lat="49.2513249" lon="11.2310456">
				<ele>427.8</ele>
				<time>2026-08-23T12:18:27.000Z</time>
			</trkpt>
			<trkpt lat="49.251284" lon="11.2308044">
				<ele>427.5</ele>
				<time>2026-08-23T12:18:29.000Z</time>
			</trkpt>
			<trkpt lat="49.2512289" lon="11.2305667">
				<ele>427.6</ele>
				<time>2026-08-23T12:18:31.000Z</time>
			</trkpt>
			<trkpt lat="49.2511745" lon="11.230343">
				<ele>427.3</ele>
				<time>2026-08-23T12:18:33.000Z</time>
			</trkpt>
			<trkpt lat="49.2510893" lon="11.2300197">
				<ele>427.2</ele>
				<time>2026-08-23T12:18:36.000Z</time>
			</trkpt>
			<trkpt lat="49.2510182" lon="11.2297667">
				<ele>427</ele>
				<time>2026-08-23T12:18:39.000Z</time>
			</trkpt>
			<trkpt lat="49.2509518" lon="11.2295428">
				<ele>426.9</ele>
				<time>2026-08-23T12:18:42.000Z</time>
			</trkpt>
			<trkpt lat="49.2509123" lon="11.2293974">
				<ele>427.2</ele>
				<time>2026-08-23T12:18:44.000Z</time>
			</trkpt>
			<trkpt lat="49.250877" lon="11.2292625">
				<ele>427.1</ele>
				<time>2026-08-23T12:18:46.000Z</time>
			</trkpt>
			<trkpt lat="49.2508237" lon="11.2290444">
				<ele>427</ele>
				<time>2026-08-23T12:18:49.000Z</time>
			</trkpt>
			<trkpt lat="49.250777" lon="11.228851">
				<ele>427.4</ele>
				<time>2026-08-23T12:18:52.000Z</time>
			</trkpt>
			<trkpt lat="49.2507578" lon="11.2286798">
				<ele>428.5</ele>
				<time>2026-08-23T12:18:55.000Z</time>
			</trkpt>
			<trkpt lat="49.250782" lon="11.2285409">
				<ele>432.3</ele>
				<time>2026-08-23T12:19:02.000Z</time>
			</trkpt>
			<trkpt lat="49.2508123" lon="11.2284027">
				<ele>431.8</ele>
				<time>2026-08-23T12:19:09.000Z</time>
			</trkpt>
			<trkpt lat="49.2507644" lon="11.2282737">
				<ele>431.4</ele>
				<time>2026-08-23T12:19:14.000Z</time>
			</trkpt>
			<trkpt lat="49.2506623" lon="11.2282933">
				<ele>432.4</ele>
				<time>2026-08-23T12:19:21.000Z</time>
			</trkpt>
			<trkpt lat="49.2506755" lon="11.228473">
				<ele>432.1</ele>
				<time>2026-08-23T12:19:24.000Z</time>
			</trkpt>
			<trkpt lat="49.250738" lon="11.2286969">
				<ele>432.3</ele>
				<time>2026-08-23T12:19:27.000Z</time>
			</trkpt>
			<trkpt lat="49.2507874" lon="11.2289438">
				<ele>432.5</ele>
				<time>2026-08-23T12:19:30.000Z</time>
			</trkpt>
			<trkpt lat="49.2508255" lon="11.2291119">
				<ele>432.4</ele>
				<time>2026-08-23T12:19:32.000Z</time>
			</trkpt>
			<trkpt lat="49.2508809" lon="11.2293636">
				<ele>432.9</ele>
				<time>2026-08-23T12:19:35.000Z</time>
			</trkpt>
			<trkpt lat="49.2509424" lon="11.2295927">
				<ele>432.9</ele>
				<time>2026-08-23T12:19:38.000Z</time>
			</trkpt>
			<trkpt lat="49.250993" lon="11.22974">
				<ele>433.3</ele>
				<time>2026-08-23T12:19:40.000Z</time>
			</trkpt>
			<trkpt lat="49.251055" lon="11.2299723">
				<ele>433.3</ele>
				<time>2026-08-23T12:19:43.000Z</time>
			</trkpt>
			<trkpt lat="49.2511139" lon="11.2301589">
				<ele>434</ele>
				<time>2026-08-23T12:19:46.000Z</time>
			</trkpt>
			<trkpt lat="49.2511607" lon="11.230333">
				<ele>434.5</ele>
				<time>2026-08-23T12:19:49.000Z</time>
			</trkpt>
			<trkpt lat="49.2512137" lon="11.2305635">
				<ele>434.5</ele>
				<time>2026-08-23T12:19:52.000Z</time>
			</trkpt>
			<trkpt lat="49.2512689" lon="11.230858">
				<ele>435.3</ele>
				<time>2026-08-23T12:19:55.000Z</time>
			</trkpt>
			<trkpt lat="49.2512961" lon="11.2310699">
				<ele>435</ele>
				<time>2026-08-23T12:19:57.000Z</time>
			</trkpt>
			<trkpt lat="49.2513236" lon="11.2312843">
				<ele>436.2</ele>
				<time>2026-08-23T12:19:59.000Z</time>
			</trkpt>
			<trkpt lat="49.2513611" lon="11.2315872">
				<ele>435.2</ele>
				<time>2026-08-23T12:20:02.000Z</time>
			</trkpt>
			<trkpt lat="49.2513574" lon="11.2317822">
				<ele>436.5</ele>
				<time>2026-08-23T12:20:04.000Z</time>
			</trkpt>
			<trkpt lat="49.2513343" lon="11.2321001">
				<ele>436.2</ele>
				<time>2026-08-23T12:20:07.000Z</time>
			</trkpt>
			<trkpt lat="49.2513097" lon="11.2322828">
				<ele>436.7</ele>
				<time>2026-08-23T12:20:09.000Z</time>
			</trkpt>
			<trkpt lat="49.2512667" lon="11.2325959">
				<ele>436.7</ele>
				<time>2026-08-23T12:20:12.000Z</time>
			</trkpt>
			<trkpt lat="49.2512321" lon="11.2328175">
				<ele>436.8</ele>
				<time>2026-08-23T12:20:14.000Z</time>
			</trkpt>
			<trkpt lat="49.2511823" lon="11.2331304">
				<ele>436.9</ele>
				<time>2026-08-23T12:20:17.000Z</time>
			</trkpt>
			<trkpt lat="49.2512067" lon="11.233334">
				<ele>437</ele>
				<time>2026-08-23T12:20:19.000Z</time>
			</trkpt>
			<trkpt lat="49.2512983" lon="11.233614">
				<ele>436.9</ele>
				<time>2026-08-23T12:20:22.000Z</time>
			</trkpt>
			<trkpt lat="49.2513648" lon="11.2338919">
				<ele>437.1</ele>
				<time>2026-08-23T12:20:25.000Z</time>
			</trkpt>
			<trkpt lat="49.2513932" lon="11.2341427">
				<ele>437</ele>
				<time>2026-08-23T12:20:28.000Z</time>
			</trkpt>
			<trkpt lat="49.251379" lon="11.2343498">
				<ele>437.5</ele>
				<time>2026-08-23T12:20:31.000Z</time>
			</trkpt>
			<trkpt lat="49.2513744" lon="11.234556">
				<ele>438</ele>
				<time>2026-08-23T12:20:34.000Z</time>
			</trkpt>
			<trkpt lat="49.2513821" lon="11.2347548">
				<ele>440</ele>
				<time>2026-08-23T12:20:37.000Z</time>
			</trkpt>
			<trkpt lat="49.2513777" lon="11.2349838">
				<ele>440.5</ele>
				<time>2026-08-23T12:20:40.000Z</time>
			</trkpt>
			<trkpt lat="49.2513554" lon="11.2351738">
				<ele>440.1</ele>
				<time>2026-08-23T12:20:43.000Z</time>
			</trkpt>
			<trkpt lat="49.2513516" lon="11.2353738">
				<ele>440.2</ele>
				<time>2026-08-23T12:20:46.000Z</time>
			</trkpt>
			<trkpt lat="49.2513431" lon="11.235512">
				<ele>439.5</ele>
				<time>2026-08-23T12:20:48.000Z</time>
			</trkpt>
			<trkpt lat="49.2513437" lon="11.2356976">
				<ele>438.3</ele>
				<time>2026-08-23T12:20:51.000Z</time>
			</trkpt>
			<trkpt lat="49.2513231" lon="11.2359244">
				<ele>438.7</ele>
				<time>2026-08-23T12:20:54.000Z</time>
			</trkpt>
			<trkpt lat="49.2513182" lon="11.2360718">
				<ele>439.2</ele>
				<time>2026-08-23T12:20:56.000Z</time>
			</trkpt>
			<trkpt lat="49.2513113" lon="11.2362406">
				<ele>439.6</ele>
				<time>2026-08-23T12:20:59.000Z</time>
			</trkpt>
			<trkpt lat="49.2512914" lon="11.2364269">
				<ele>438.5</ele>
				<time>2026-08-23T12:21:02.000Z</time>
			</trkpt>
			<trkpt lat="49.2513058" lon="11.236579">
				<ele>438.7</ele>
				<time>2026-08-23T12:21:06.000Z</time>
			</trkpt>
			<trkpt lat="49.25139" lon="11.2365233">
				<ele>437</ele>
				<time>2026-08-23T12:21:11.000Z</time>
			</trkpt>
			<trkpt lat="49.251363" lon="11.2363561">
				<ele>435.2</ele>
				<time>2026-08-23T12:21:16.000Z</time>
			</trkpt>
			<trkpt lat="49.2513515" lon="11.2361898">
				<ele>435.2</ele>
				<time>2026-08-23T12:21:20.000Z</time>
			</trkpt>
			<trkpt lat="49.2513838" lon="11.2360112">
				<ele>440.4</ele>
				<time>2026-08-23T12:21:21.000Z</time>
			</trkpt>
			<trkpt lat="49.2513916" lon="11.2357713">
				<ele>440.2</ele>
				<time>2026-08-23T12:21:24.000Z</time>
			</trkpt>
			<trkpt lat="49.2513977" lon="11.2355954">
				<ele>439.1</ele>
				<time>2026-08-23T12:21:26.000Z</time>
			</trkpt>
			<trkpt lat="49.2514069" lon="11.2353124">
				<ele>438.3</ele>
				<time>2026-08-23T12:21:29.000Z</time>
			</trkpt>
			<trkpt lat="49.2514156" lon="11.2350236">
				<ele>437.2</ele>
				<time>2026-08-23T12:21:32.000Z</time>
			</trkpt>
			<trkpt lat="49.2514225" lon="11.2348389">
				<ele>436.7</ele>
				<time>2026-08-23T12:21:34.000Z</time>
			</trkpt>
			<trkpt lat="49.2514253" lon="11.2346844">
				<ele>436.9</ele>
				<time>2026-08-23T12:21:36.000Z</time>
			</trkpt>
			<trkpt lat="49.2514217" lon="11.2345413">
				<ele>436.8</ele>
				<time>2026-08-23T12:21:39.000Z</time>
			</trkpt>
			<trkpt lat="49.2514211" lon="11.2343958">
				<ele>432.8</ele>
				<time>2026-08-23T12:21:42.000Z</time>
			</trkpt>
			<trkpt lat="49.2514134" lon="11.2342005">
				<ele>433.4</ele>
				<time>2026-08-23T12:21:45.000Z</time>
			</trkpt>
			<trkpt lat="49.2514004" lon="11.2340448">
				<ele>433.6</ele>
				<time>2026-08-23T12:21:48.000Z</time>
			</trkpt>
			<trkpt lat="49.2513805" lon="11.2338775">
				<ele>431.9</ele>
				<time>2026-08-23T12:21:54.000Z</time>
			</trkpt>
			<trkpt lat="49.2513431" lon="11.2337072">
				<ele>429.8</ele>
				<time>2026-08-23T12:21:57.000Z</time>
			</trkpt>
			<trkpt lat="49.2512728" lon="11.2334646">
				<ele>430.3</ele>
				<time>2026-08-23T12:22:00.000Z</time>
			</trkpt>
			<trkpt lat="49.2512324" lon="11.23332">
				<ele>429.8</ele>
				<time>2026-08-23T12:22:02.000Z</time>
			</trkpt>
			<trkpt lat="49.2511776" lon="11.2331437">
				<ele>428.4</ele>
				<time>2026-08-23T12:22:05.000Z</time>
			</trkpt>
			<trkpt lat="49.251081" lon="11.2330852">
				<ele>429.5</ele>
				<time>2026-08-23T12:22:08.000Z</time>
			</trkpt>
			<trkpt lat="49.250969" lon="11.2330865">
				<ele>428.1</ele>
				<time>2026-08-23T12:22:12.000Z</time>
			</trkpt>
			<trkpt lat="49.250928" lon="11.2329409">
				<ele>427.9</ele>
				<time>2026-08-23T12:22:16.000Z</time>
			</trkpt>
			<trkpt lat="49.2509066" lon="11.2327808">
				<ele>427.4</ele>
				<time>2026-08-23T12:22:20.000Z</time>
			</trkpt>
			<trkpt lat="49.2508761" lon="11.232646">
				<ele>426.6</ele>
				<time>2026-08-23T12:22:26.000Z</time>
			</trkpt>
			<trkpt lat="49.2508502" lon="11.2325021">
				<ele>427.4</ele>
				<time>2026-08-23T12:22:45.000Z</time>
			</trkpt>
			<trkpt lat="49.2508145" lon="11.2323308">
				<ele>426.3</ele>
				<time>2026-08-23T12:22:49.000Z</time>
			</trkpt>
			<trkpt lat="49.2507788" lon="11.2321844">
				<ele>426.6</ele>
				<time>2026-08-23T12:22:52.000Z</time>
			</trkpt>
			<trkpt lat="49.2506826" lon="11.2321104">
				<ele>426.2</ele>
				<time>2026-08-23T12:22:56.000Z</time>
			</trkpt>
			<trkpt lat="49.2506078" lon="11.2322359">
				<ele>426</ele>
				<time>2026-08-23T12:23:00.000Z</time>
			</trkpt>
			<trkpt lat="49.2506664" lon="11.23236">
				<ele>428.3</ele>
				<time>2026-08-23T12:23:05.000Z</time>
			</trkpt>
		</trkseg>
	</trk>
</gpx>
